<?xml version="1.0" encoding="UTF-8" standalone="no" ?>
<gpx xmlns="http://www.topografix.com/GPX/1/1" xmlns:xsi="http://www.w3.org/2001/XMLSchema-instance" xsi:schemaLocation="http://www.topografix.com/GPX/1/1 http://www.topografix.com/GPX/1/1/gpx.xsd" version="1.1" creator="VisuGPX - https://www.visugpx.com">
  <metadata>
    <name>Wailly, Tilloy-lèz-Conty, Conty</name>
  </metadata>
  <trk>
    <name><![CDATA[Wailly, Tilloy-lèz-Conty, Conty_1]]></name>
    <trkseg>
      <trkpt lat="49.7695" lon="2.16425">
        <ele>50</ele>
        <time>2022-05-11T12:04:48Z</time>
      </trkpt>
      <trkpt lat="49.76949" lon="2.16424">
        <ele>50</ele>
        <time>2022-05-11T12:04:50Z</time>
      </trkpt>
      <trkpt lat="49.76948" lon="2.16424">
        <ele>50</ele>
        <time>2022-05-11T12:04:51Z</time>
      </trkpt>
      <trkpt lat="49.76947" lon="2.16424">
        <ele>50</ele>
        <time>2022-05-11T12:04:52Z</time>
      </trkpt>
      <trkpt lat="49.76946" lon="2.16424">
        <ele>50</ele>
        <time>2022-05-11T12:04:53Z</time>
      </trkpt>
      <trkpt lat="49.76944" lon="2.16424">
        <ele>49.9</ele>
        <time>2022-05-11T12:04:54Z</time>
      </trkpt>
      <trkpt lat="49.76943" lon="2.16424">
        <ele>49.9</ele>
        <time>2022-05-11T12:04:56Z</time>
      </trkpt>
      <trkpt lat="49.76944" lon="2.1643">
        <ele>49.9</ele>
        <time>2022-05-11T12:04:57Z</time>
      </trkpt>
      <trkpt lat="49.76944" lon="2.16429">
        <ele>49.9</ele>
        <time>2022-05-11T12:04:58Z</time>
      </trkpt>
      <trkpt lat="49.76942" lon="2.1643">
        <ele>49.9</ele>
        <time>2022-05-11T12:04:59Z</time>
      </trkpt>
      <trkpt lat="49.76941" lon="2.16429">
        <ele>49.9</ele>
        <time>2022-05-11T12:05:01Z</time>
      </trkpt>
      <trkpt lat="49.7694" lon="2.16429">
        <ele>49.9</ele>
        <time>2022-05-11T12:05:02Z</time>
      </trkpt>
      <trkpt lat="49.76939" lon="2.16429">
        <ele>49.9</ele>
        <time>2022-05-11T12:05:03Z</time>
      </trkpt>
      <trkpt lat="49.76938" lon="2.16428">
        <ele>49.9</ele>
        <time>2022-05-11T12:05:04Z</time>
      </trkpt>
      <trkpt lat="49.76938" lon="2.16428">
        <ele>49.9</ele>
        <time>2022-05-11T12:05:06Z</time>
      </trkpt>
      <trkpt lat="49.76937" lon="2.16427">
        <ele>49.9</ele>
        <time>2022-05-11T12:05:07Z</time>
      </trkpt>
      <trkpt lat="49.76935" lon="2.16427">
        <ele>49.9</ele>
        <time>2022-05-11T12:05:08Z</time>
      </trkpt>
      <trkpt lat="49.76935" lon="2.16426">
        <ele>49.9</ele>
        <time>2022-05-11T12:05:09Z</time>
      </trkpt>
      <trkpt lat="49.76934" lon="2.16425">
        <ele>49.9</ele>
        <time>2022-05-11T12:05:10Z</time>
      </trkpt>
      <trkpt lat="49.76933" lon="2.16425">
        <ele>49.9</ele>
        <time>2022-05-11T12:05:12Z</time>
      </trkpt>
      <trkpt lat="49.76932" lon="2.16424">
        <ele>49.9</ele>
        <time>2022-05-11T12:05:13Z</time>
      </trkpt>
      <trkpt lat="49.76931" lon="2.16423">
        <ele>49.9</ele>
        <time>2022-05-11T12:05:14Z</time>
      </trkpt>
      <trkpt lat="49.7693" lon="2.16422">
        <ele>49.9</ele>
        <time>2022-05-11T12:05:15Z</time>
      </trkpt>
      <trkpt lat="49.76929" lon="2.16421">
        <ele>49.9</ele>
        <time>2022-05-11T12:05:17Z</time>
      </trkpt>
      <trkpt lat="49.76928" lon="2.1642">
        <ele>49.9</ele>
        <time>2022-05-11T12:05:18Z</time>
      </trkpt>
      <trkpt lat="49.76927" lon="2.1642">
        <ele>49.9</ele>
        <time>2022-05-11T12:05:19Z</time>
      </trkpt>
      <trkpt lat="49.76926" lon="2.16419">
        <ele>49.9</ele>
        <time>2022-05-11T12:05:20Z</time>
      </trkpt>
      <trkpt lat="49.76925" lon="2.16419">
        <ele>49.9</ele>
        <time>2022-05-11T12:05:22Z</time>
      </trkpt>
      <trkpt lat="49.76925" lon="2.16418">
        <ele>49.9</ele>
        <time>2022-05-11T12:05:23Z</time>
      </trkpt>
      <trkpt lat="49.76924" lon="2.16418">
        <ele>49.9</ele>
        <time>2022-05-11T12:05:24Z</time>
      </trkpt>
      <trkpt lat="49.76923" lon="2.16418">
        <ele>49.9</ele>
        <time>2022-05-11T12:05:25Z</time>
      </trkpt>
      <trkpt lat="49.76922" lon="2.16418">
        <ele>49.9</ele>
        <time>2022-05-11T12:05:26Z</time>
      </trkpt>
      <trkpt lat="49.76921" lon="2.16418">
        <ele>49.9</ele>
        <time>2022-05-11T12:05:27Z</time>
      </trkpt>
      <trkpt lat="49.7692" lon="2.16418">
        <ele>49.9</ele>
        <time>2022-05-11T12:05:28Z</time>
      </trkpt>
      <trkpt lat="49.76919" lon="2.16418">
        <ele>49.9</ele>
        <time>2022-05-11T12:05:29Z</time>
      </trkpt>
      <trkpt lat="49.76918" lon="2.16417">
        <ele>49.9</ele>
        <time>2022-05-11T12:05:31Z</time>
      </trkpt>
      <trkpt lat="49.76917" lon="2.16417">
        <ele>49.9</ele>
        <time>2022-05-11T12:05:32Z</time>
      </trkpt>
      <trkpt lat="49.76916" lon="2.16417">
        <ele>49.9</ele>
        <time>2022-05-11T12:05:33Z</time>
      </trkpt>
      <trkpt lat="49.76916" lon="2.16417">
        <ele>49.9</ele>
        <time>2022-05-11T12:05:34Z</time>
      </trkpt>
      <trkpt lat="49.76914" lon="2.16416">
        <ele>49.9</ele>
        <time>2022-05-11T12:05:35Z</time>
      </trkpt>
      <trkpt lat="49.76914" lon="2.16416">
        <ele>49.9</ele>
        <time>2022-05-11T12:05:36Z</time>
      </trkpt>
      <trkpt lat="49.76913" lon="2.16416">
        <ele>49.9</ele>
        <time>2022-05-11T12:05:38Z</time>
      </trkpt>
      <trkpt lat="49.76913" lon="2.16416">
        <ele>49.9</ele>
        <time>2022-05-11T12:05:39Z</time>
      </trkpt>
      <trkpt lat="49.76912" lon="2.16416">
        <ele>49.9</ele>
        <time>2022-05-11T12:05:40Z</time>
      </trkpt>
      <trkpt lat="49.76911" lon="2.16415">
        <ele>49.9</ele>
        <time>2022-05-11T12:05:41Z</time>
      </trkpt>
      <trkpt lat="49.7691" lon="2.16415">
        <ele>49.9</ele>
        <time>2022-05-11T12:05:42Z</time>
      </trkpt>
      <trkpt lat="49.76909" lon="2.16415">
        <ele>49.9</ele>
        <time>2022-05-11T12:05:44Z</time>
      </trkpt>
      <trkpt lat="49.76908" lon="2.16414">
        <ele>49.9</ele>
        <time>2022-05-11T12:05:45Z</time>
      </trkpt>
      <trkpt lat="49.76908" lon="2.16413">
        <ele>49.9</ele>
        <time>2022-05-11T12:05:46Z</time>
      </trkpt>
      <trkpt lat="49.76907" lon="2.16413">
        <ele>49.9</ele>
        <time>2022-05-11T12:05:47Z</time>
      </trkpt>
      <trkpt lat="49.76907" lon="2.16414">
        <ele>49.9</ele>
        <time>2022-05-11T12:05:48Z</time>
      </trkpt>
      <trkpt lat="49.76906" lon="2.16414">
        <ele>49.9</ele>
        <time>2022-05-11T12:05:49Z</time>
      </trkpt>
      <trkpt lat="49.76906" lon="2.16415">
        <ele>49.9</ele>
        <time>2022-05-11T12:05:50Z</time>
      </trkpt>
      <trkpt lat="49.76905" lon="2.16415">
        <ele>49.9</ele>
        <time>2022-05-11T12:05:51Z</time>
      </trkpt>
      <trkpt lat="49.76904" lon="2.16415">
        <ele>49.9</ele>
        <time>2022-05-11T12:05:52Z</time>
      </trkpt>
      <trkpt lat="49.76903" lon="2.16414">
        <ele>49.9</ele>
        <time>2022-05-11T12:05:54Z</time>
      </trkpt>
      <trkpt lat="49.76902" lon="2.16414">
        <ele>49.9</ele>
        <time>2022-05-11T12:05:55Z</time>
      </trkpt>
      <trkpt lat="49.76901" lon="2.16414">
        <ele>49.9</ele>
        <time>2022-05-11T12:05:56Z</time>
      </trkpt>
      <trkpt lat="49.76901" lon="2.16413">
        <ele>49.9</ele>
        <time>2022-05-11T12:05:57Z</time>
      </trkpt>
      <trkpt lat="49.769" lon="2.16412">
        <ele>49.9</ele>
        <time>2022-05-11T12:05:58Z</time>
      </trkpt>
      <trkpt lat="49.76899" lon="2.16411">
        <ele>49.9</ele>
        <time>2022-05-11T12:06:00Z</time>
      </trkpt>
      <trkpt lat="49.76897" lon="2.1641">
        <ele>49.9</ele>
        <time>2022-05-11T12:06:01Z</time>
      </trkpt>
      <trkpt lat="49.76896" lon="2.16409">
        <ele>49.9</ele>
        <time>2022-05-11T12:06:02Z</time>
      </trkpt>
      <trkpt lat="49.76895" lon="2.16409">
        <ele>50</ele>
        <time>2022-05-11T12:06:03Z</time>
      </trkpt>
      <trkpt lat="49.76893" lon="2.16407">
        <ele>50</ele>
        <time>2022-05-11T12:06:05Z</time>
      </trkpt>
      <trkpt lat="49.76891" lon="2.16407">
        <ele>50</ele>
        <time>2022-05-11T12:06:06Z</time>
      </trkpt>
      <trkpt lat="49.7689" lon="2.16406">
        <ele>50</ele>
        <time>2022-05-11T12:06:07Z</time>
      </trkpt>
      <trkpt lat="49.76889" lon="2.16406">
        <ele>50</ele>
        <time>2022-05-11T12:06:08Z</time>
      </trkpt>
      <trkpt lat="49.76888" lon="2.16406">
        <ele>50</ele>
        <time>2022-05-11T12:06:09Z</time>
      </trkpt>
      <trkpt lat="49.76886" lon="2.16406">
        <ele>50</ele>
        <time>2022-05-11T12:06:10Z</time>
      </trkpt>
      <trkpt lat="49.76884" lon="2.16405">
        <ele>49.9</ele>
        <time>2022-05-11T12:06:11Z</time>
      </trkpt>
      <trkpt lat="49.76883" lon="2.16405">
        <ele>49.9</ele>
        <time>2022-05-11T12:06:12Z</time>
      </trkpt>
      <trkpt lat="49.76883" lon="2.16405">
        <ele>49.9</ele>
        <time>2022-05-11T12:06:13Z</time>
      </trkpt>
      <trkpt lat="49.76882" lon="2.16405">
        <ele>49.9</ele>
        <time>2022-05-11T12:06:14Z</time>
      </trkpt>
      <trkpt lat="49.76881" lon="2.16405">
        <ele>49.9</ele>
        <time>2022-05-11T12:06:15Z</time>
      </trkpt>
      <trkpt lat="49.76879" lon="2.16405">
        <ele>49.9</ele>
        <time>2022-05-11T12:06:16Z</time>
      </trkpt>
      <trkpt lat="49.76877" lon="2.16405">
        <ele>49.9</ele>
        <time>2022-05-11T12:06:17Z</time>
      </trkpt>
      <trkpt lat="49.76876" lon="2.16405">
        <ele>49.9</ele>
        <time>2022-05-11T12:06:18Z</time>
      </trkpt>
      <trkpt lat="49.76875" lon="2.16405">
        <ele>49.9</ele>
        <time>2022-05-11T12:06:19Z</time>
      </trkpt>
      <trkpt lat="49.76874" lon="2.16405">
        <ele>49.9</ele>
        <time>2022-05-11T12:06:20Z</time>
      </trkpt>
      <trkpt lat="49.76872" lon="2.16405">
        <ele>49.9</ele>
        <time>2022-05-11T12:06:21Z</time>
      </trkpt>
      <trkpt lat="49.76871" lon="2.16404">
        <ele>49.9</ele>
        <time>2022-05-11T12:06:22Z</time>
      </trkpt>
      <trkpt lat="49.76869" lon="2.16404">
        <ele>49.9</ele>
        <time>2022-05-11T12:06:24Z</time>
      </trkpt>
      <trkpt lat="49.76867" lon="2.16404">
        <ele>49.9</ele>
        <time>2022-05-11T12:06:25Z</time>
      </trkpt>
      <trkpt lat="49.76866" lon="2.16403">
        <ele>49.9</ele>
        <time>2022-05-11T12:06:26Z</time>
      </trkpt>
      <trkpt lat="49.76865" lon="2.16402">
        <ele>49.9</ele>
        <time>2022-05-11T12:06:27Z</time>
      </trkpt>
      <trkpt lat="49.76863" lon="2.16402">
        <ele>49.9</ele>
        <time>2022-05-11T12:06:28Z</time>
      </trkpt>
      <trkpt lat="49.76862" lon="2.16401">
        <ele>49.9</ele>
        <time>2022-05-11T12:06:29Z</time>
      </trkpt>
      <trkpt lat="49.76859" lon="2.164">
        <ele>49.9</ele>
        <time>2022-05-11T12:06:31Z</time>
      </trkpt>
      <trkpt lat="49.76857" lon="2.16399">
        <ele>49.9</ele>
        <time>2022-05-11T12:06:33Z</time>
      </trkpt>
      <trkpt lat="49.76856" lon="2.16399">
        <ele>49.9</ele>
        <time>2022-05-11T12:06:34Z</time>
      </trkpt>
      <trkpt lat="49.76855" lon="2.16398">
        <ele>49.9</ele>
        <time>2022-05-11T12:06:35Z</time>
      </trkpt>
      <trkpt lat="49.76852" lon="2.16398">
        <ele>49.9</ele>
        <time>2022-05-11T12:06:36Z</time>
      </trkpt>
      <trkpt lat="49.7685" lon="2.16398">
        <ele>49.9</ele>
        <time>2022-05-11T12:06:37Z</time>
      </trkpt>
      <trkpt lat="49.76849" lon="2.16398">
        <ele>49.9</ele>
        <time>2022-05-11T12:06:38Z</time>
      </trkpt>
      <trkpt lat="49.76848" lon="2.16398">
        <ele>49.9</ele>
        <time>2022-05-11T12:06:39Z</time>
      </trkpt>
      <trkpt lat="49.76846" lon="2.16398">
        <ele>49.9</ele>
        <time>2022-05-11T12:06:40Z</time>
      </trkpt>
      <trkpt lat="49.76844" lon="2.16397">
        <ele>49.9</ele>
        <time>2022-05-11T12:06:42Z</time>
      </trkpt>
      <trkpt lat="49.76843" lon="2.16397">
        <ele>49.9</ele>
        <time>2022-05-11T12:06:43Z</time>
      </trkpt>
      <trkpt lat="49.76841" lon="2.16397">
        <ele>49.9</ele>
        <time>2022-05-11T12:06:44Z</time>
      </trkpt>
      <trkpt lat="49.7684" lon="2.16397">
        <ele>50</ele>
        <time>2022-05-11T12:06:45Z</time>
      </trkpt>
      <trkpt lat="49.76838" lon="2.16397">
        <ele>50</ele>
        <time>2022-05-11T12:06:46Z</time>
      </trkpt>
      <trkpt lat="49.76836" lon="2.16397">
        <ele>50</ele>
        <time>2022-05-11T12:06:47Z</time>
      </trkpt>
      <trkpt lat="49.76835" lon="2.16396">
        <ele>50</ele>
        <time>2022-05-11T12:06:48Z</time>
      </trkpt>
      <trkpt lat="49.76833" lon="2.16396">
        <ele>50</ele>
        <time>2022-05-11T12:06:50Z</time>
      </trkpt>
      <trkpt lat="49.76832" lon="2.16396">
        <ele>50</ele>
        <time>2022-05-11T12:06:51Z</time>
      </trkpt>
      <trkpt lat="49.7683" lon="2.16396">
        <ele>50</ele>
        <time>2022-05-11T12:06:52Z</time>
      </trkpt>
      <trkpt lat="49.76828" lon="2.16396">
        <ele>50</ele>
        <time>2022-05-11T12:06:53Z</time>
      </trkpt>
      <trkpt lat="49.76826" lon="2.16395">
        <ele>50</ele>
        <time>2022-05-11T12:06:54Z</time>
      </trkpt>
      <trkpt lat="49.76823" lon="2.16395">
        <ele>50</ele>
        <time>2022-05-11T12:06:56Z</time>
      </trkpt>
      <trkpt lat="49.76821" lon="2.16394">
        <ele>50</ele>
        <time>2022-05-11T12:06:57Z</time>
      </trkpt>
      <trkpt lat="49.76819" lon="2.16394">
        <ele>50</ele>
        <time>2022-05-11T12:06:58Z</time>
      </trkpt>
      <trkpt lat="49.76818" lon="2.16393">
        <ele>50</ele>
        <time>2022-05-11T12:06:59Z</time>
      </trkpt>
      <trkpt lat="49.76816" lon="2.16392">
        <ele>50</ele>
        <time>2022-05-11T12:07:00Z</time>
      </trkpt>
      <trkpt lat="49.76813" lon="2.16391">
        <ele>50</ele>
        <time>2022-05-11T12:07:02Z</time>
      </trkpt>
      <trkpt lat="49.76812" lon="2.1639">
        <ele>50</ele>
        <time>2022-05-11T12:07:03Z</time>
      </trkpt>
      <trkpt lat="49.7681" lon="2.16389">
        <ele>50</ele>
        <time>2022-05-11T12:07:04Z</time>
      </trkpt>
      <trkpt lat="49.76809" lon="2.16388">
        <ele>50</ele>
        <time>2022-05-11T12:07:05Z</time>
      </trkpt>
      <trkpt lat="49.76806" lon="2.16385">
        <ele>50</ele>
        <time>2022-05-11T12:07:07Z</time>
      </trkpt>
      <trkpt lat="49.76805" lon="2.16385">
        <ele>50</ele>
        <time>2022-05-11T12:07:08Z</time>
      </trkpt>
      <trkpt lat="49.76804" lon="2.16384">
        <ele>50</ele>
        <time>2022-05-11T12:07:09Z</time>
      </trkpt>
      <trkpt lat="49.76803" lon="2.16383">
        <ele>50</ele>
        <time>2022-05-11T12:07:10Z</time>
      </trkpt>
      <trkpt lat="49.76802" lon="2.16382">
        <ele>50</ele>
        <time>2022-05-11T12:07:11Z</time>
      </trkpt>
      <trkpt lat="49.76801" lon="2.16381">
        <ele>50</ele>
        <time>2022-05-11T12:07:12Z</time>
      </trkpt>
      <trkpt lat="49.768" lon="2.1638">
        <ele>50</ele>
        <time>2022-05-11T12:07:13Z</time>
      </trkpt>
      <trkpt lat="49.76798" lon="2.16379">
        <ele>50</ele>
        <time>2022-05-11T12:07:14Z</time>
      </trkpt>
      <trkpt lat="49.76797" lon="2.16378">
        <ele>50</ele>
        <time>2022-05-11T12:07:15Z</time>
      </trkpt>
      <trkpt lat="49.76795" lon="2.16377">
        <ele>50</ele>
        <time>2022-05-11T12:07:16Z</time>
      </trkpt>
      <trkpt lat="49.76795" lon="2.16377">
        <ele>50</ele>
        <time>2022-05-11T12:07:18Z</time>
      </trkpt>
      <trkpt lat="49.76793" lon="2.16376">
        <ele>50</ele>
        <time>2022-05-11T12:07:19Z</time>
      </trkpt>
      <trkpt lat="49.76793" lon="2.16376">
        <ele>50</ele>
        <time>2022-05-11T12:07:20Z</time>
      </trkpt>
      <trkpt lat="49.76791" lon="2.16376">
        <ele>50</ele>
        <time>2022-05-11T12:07:21Z</time>
      </trkpt>
      <trkpt lat="49.76789" lon="2.16376">
        <ele>50</ele>
        <time>2022-05-11T12:07:23Z</time>
      </trkpt>
      <trkpt lat="49.76787" lon="2.16375">
        <ele>50</ele>
        <time>2022-05-11T12:07:24Z</time>
      </trkpt>
      <trkpt lat="49.76786" lon="2.16375">
        <ele>50</ele>
        <time>2022-05-11T12:07:25Z</time>
      </trkpt>
      <trkpt lat="49.76784" lon="2.16375">
        <ele>50.1</ele>
        <time>2022-05-11T12:07:26Z</time>
      </trkpt>
      <trkpt lat="49.76784" lon="2.16375">
        <ele>50.1</ele>
        <time>2022-05-11T12:07:27Z</time>
      </trkpt>
      <trkpt lat="49.76783" lon="2.16375">
        <ele>50.1</ele>
        <time>2022-05-11T12:07:28Z</time>
      </trkpt>
      <trkpt lat="49.76781" lon="2.16374">
        <ele>50.1</ele>
        <time>2022-05-11T12:07:29Z</time>
      </trkpt>
      <trkpt lat="49.76779" lon="2.16374">
        <ele>50.1</ele>
        <time>2022-05-11T12:07:31Z</time>
      </trkpt>
      <trkpt lat="49.76778" lon="2.16374">
        <ele>50.1</ele>
        <time>2022-05-11T12:07:33Z</time>
      </trkpt>
      <trkpt lat="49.76777" lon="2.16374">
        <ele>50.1</ele>
        <time>2022-05-11T12:07:34Z</time>
      </trkpt>
      <trkpt lat="49.76776" lon="2.16373">
        <ele>50.1</ele>
        <time>2022-05-11T12:07:35Z</time>
      </trkpt>
      <trkpt lat="49.76774" lon="2.16373">
        <ele>50.1</ele>
        <time>2022-05-11T12:07:36Z</time>
      </trkpt>
      <trkpt lat="49.76773" lon="2.16373">
        <ele>50.1</ele>
        <time>2022-05-11T12:07:37Z</time>
      </trkpt>
      <trkpt lat="49.76773" lon="2.16373">
        <ele>50.1</ele>
        <time>2022-05-11T12:07:38Z</time>
      </trkpt>
      <trkpt lat="49.76772" lon="2.16373">
        <ele>50.1</ele>
        <time>2022-05-11T12:07:39Z</time>
      </trkpt>
      <trkpt lat="49.76771" lon="2.16373">
        <ele>50.1</ele>
        <time>2022-05-11T12:07:40Z</time>
      </trkpt>
      <trkpt lat="49.76769" lon="2.16372">
        <ele>50.1</ele>
        <time>2022-05-11T12:07:41Z</time>
      </trkpt>
      <trkpt lat="49.76767" lon="2.16372">
        <ele>50.2</ele>
        <time>2022-05-11T12:07:42Z</time>
      </trkpt>
      <trkpt lat="49.76766" lon="2.16372">
        <ele>50.2</ele>
        <time>2022-05-11T12:07:44Z</time>
      </trkpt>
      <trkpt lat="49.76765" lon="2.16372">
        <ele>50.2</ele>
        <time>2022-05-11T12:07:45Z</time>
      </trkpt>
      <trkpt lat="49.76764" lon="2.16371">
        <ele>50.2</ele>
        <time>2022-05-11T12:07:46Z</time>
      </trkpt>
      <trkpt lat="49.76762" lon="2.16371">
        <ele>50.2</ele>
        <time>2022-05-11T12:07:47Z</time>
      </trkpt>
      <trkpt lat="49.7676" lon="2.1637">
        <ele>50.2</ele>
        <time>2022-05-11T12:07:48Z</time>
      </trkpt>
      <trkpt lat="49.76759" lon="2.1637">
        <ele>50.2</ele>
        <time>2022-05-11T12:07:49Z</time>
      </trkpt>
      <trkpt lat="49.76758" lon="2.1637">
        <ele>50.2</ele>
        <time>2022-05-11T12:07:50Z</time>
      </trkpt>
      <trkpt lat="49.76756" lon="2.1637">
        <ele>50.2</ele>
        <time>2022-05-11T12:07:52Z</time>
      </trkpt>
      <trkpt lat="49.76755" lon="2.1637">
        <ele>50.2</ele>
        <time>2022-05-11T12:07:53Z</time>
      </trkpt>
      <trkpt lat="49.76752" lon="2.16369">
        <ele>50.2</ele>
        <time>2022-05-11T12:07:55Z</time>
      </trkpt>
      <trkpt lat="49.76751" lon="2.16369">
        <ele>50.2</ele>
        <time>2022-05-11T12:07:56Z</time>
      </trkpt>
      <trkpt lat="49.76749" lon="2.16369">
        <ele>50.2</ele>
        <time>2022-05-11T12:07:57Z</time>
      </trkpt>
      <trkpt lat="49.76749" lon="2.16368">
        <ele>50.2</ele>
        <time>2022-05-11T12:07:58Z</time>
      </trkpt>
      <trkpt lat="49.76748" lon="2.16368">
        <ele>50.2</ele>
        <time>2022-05-11T12:07:59Z</time>
      </trkpt>
      <trkpt lat="49.76747" lon="2.16368">
        <ele>50.2</ele>
        <time>2022-05-11T12:08:00Z</time>
      </trkpt>
      <trkpt lat="49.76744" lon="2.16367">
        <ele>50.2</ele>
        <time>2022-05-11T12:08:02Z</time>
      </trkpt>
      <trkpt lat="49.76743" lon="2.16367">
        <ele>50.2</ele>
        <time>2022-05-11T12:08:03Z</time>
      </trkpt>
      <trkpt lat="49.76743" lon="2.16365">
        <ele>50.2</ele>
        <time>2022-05-11T12:08:04Z</time>
      </trkpt>
      <trkpt lat="49.76742" lon="2.16364">
        <ele>50.2</ele>
        <time>2022-05-11T12:08:05Z</time>
      </trkpt>
      <trkpt lat="49.7674" lon="2.16363">
        <ele>50.2</ele>
        <time>2022-05-11T12:08:06Z</time>
      </trkpt>
      <trkpt lat="49.76739" lon="2.16363">
        <ele>50.2</ele>
        <time>2022-05-11T12:08:07Z</time>
      </trkpt>
      <trkpt lat="49.76738" lon="2.16363">
        <ele>50.3</ele>
        <time>2022-05-11T12:08:08Z</time>
      </trkpt>
      <trkpt lat="49.76737" lon="2.16363">
        <ele>50.3</ele>
        <time>2022-05-11T12:08:09Z</time>
      </trkpt>
      <trkpt lat="49.76738" lon="2.16362">
        <ele>50.3</ele>
        <time>2022-05-11T12:08:10Z</time>
      </trkpt>
      <trkpt lat="49.76737" lon="2.16362">
        <ele>50.3</ele>
        <time>2022-05-11T12:08:12Z</time>
      </trkpt>
      <trkpt lat="49.76736" lon="2.16362">
        <ele>50.3</ele>
        <time>2022-05-11T12:08:13Z</time>
      </trkpt>
      <trkpt lat="49.76735" lon="2.16361">
        <ele>50.3</ele>
        <time>2022-05-11T12:08:14Z</time>
      </trkpt>
      <trkpt lat="49.76733" lon="2.16361">
        <ele>50.3</ele>
        <time>2022-05-11T12:08:15Z</time>
      </trkpt>
      <trkpt lat="49.7673" lon="2.1636">
        <ele>50.3</ele>
        <time>2022-05-11T12:08:17Z</time>
      </trkpt>
      <trkpt lat="49.7673" lon="2.1636">
        <ele>50.3</ele>
        <time>2022-05-11T12:08:18Z</time>
      </trkpt>
      <trkpt lat="49.7673" lon="2.16359">
        <ele>50.3</ele>
        <time>2022-05-11T12:08:19Z</time>
      </trkpt>
      <trkpt lat="49.76729" lon="2.16359">
        <ele>50.3</ele>
        <time>2022-05-11T12:08:20Z</time>
      </trkpt>
      <trkpt lat="49.76729" lon="2.16359">
        <ele>50.3</ele>
        <time>2022-05-11T12:08:21Z</time>
      </trkpt>
      <trkpt lat="49.76729" lon="2.16358">
        <ele>50.3</ele>
        <time>2022-05-11T12:08:22Z</time>
      </trkpt>
      <trkpt lat="49.76728" lon="2.16357">
        <ele>50.3</ele>
        <time>2022-05-11T12:08:24Z</time>
      </trkpt>
      <trkpt lat="49.76728" lon="2.16356">
        <ele>50.3</ele>
        <time>2022-05-11T12:08:25Z</time>
      </trkpt>
      <trkpt lat="49.76727" lon="2.16356">
        <ele>50.3</ele>
        <time>2022-05-11T12:08:26Z</time>
      </trkpt>
      <trkpt lat="49.76725" lon="2.16356">
        <ele>50.3</ele>
        <time>2022-05-11T12:08:27Z</time>
      </trkpt>
      <trkpt lat="49.76723" lon="2.16355">
        <ele>50.4</ele>
        <time>2022-05-11T12:08:29Z</time>
      </trkpt>
      <trkpt lat="49.76722" lon="2.16355">
        <ele>50.4</ele>
        <time>2022-05-11T12:08:30Z</time>
      </trkpt>
      <trkpt lat="49.76721" lon="2.16355">
        <ele>50.4</ele>
        <time>2022-05-11T12:08:32Z</time>
      </trkpt>
      <trkpt lat="49.7672" lon="2.16354">
        <ele>50.4</ele>
        <time>2022-05-11T12:08:33Z</time>
      </trkpt>
      <trkpt lat="49.76719" lon="2.16354">
        <ele>50.4</ele>
        <time>2022-05-11T12:08:34Z</time>
      </trkpt>
      <trkpt lat="49.76718" lon="2.16354">
        <ele>50.4</ele>
        <time>2022-05-11T12:08:35Z</time>
      </trkpt>
      <trkpt lat="49.76717" lon="2.16353">
        <ele>50.4</ele>
        <time>2022-05-11T12:08:36Z</time>
      </trkpt>
      <trkpt lat="49.76716" lon="2.16353">
        <ele>50.4</ele>
        <time>2022-05-11T12:08:37Z</time>
      </trkpt>
      <trkpt lat="49.76715" lon="2.16353">
        <ele>50.4</ele>
        <time>2022-05-11T12:08:38Z</time>
      </trkpt>
      <trkpt lat="49.76714" lon="2.16352">
        <ele>50.4</ele>
        <time>2022-05-11T12:08:39Z</time>
      </trkpt>
      <trkpt lat="49.76713" lon="2.16352">
        <ele>50.4</ele>
        <time>2022-05-11T12:08:40Z</time>
      </trkpt>
      <trkpt lat="49.76711" lon="2.16351">
        <ele>50.4</ele>
        <time>2022-05-11T12:08:42Z</time>
      </trkpt>
      <trkpt lat="49.7671" lon="2.1635">
        <ele>50.5</ele>
        <time>2022-05-11T12:08:43Z</time>
      </trkpt>
      <trkpt lat="49.76708" lon="2.1635">
        <ele>50.5</ele>
        <time>2022-05-11T12:08:45Z</time>
      </trkpt>
      <trkpt lat="49.76707" lon="2.16349">
        <ele>50.5</ele>
        <time>2022-05-11T12:08:46Z</time>
      </trkpt>
      <trkpt lat="49.76706" lon="2.16349">
        <ele>50.5</ele>
        <time>2022-05-11T12:08:47Z</time>
      </trkpt>
      <trkpt lat="49.76705" lon="2.16348">
        <ele>50.5</ele>
        <time>2022-05-11T12:08:48Z</time>
      </trkpt>
      <trkpt lat="49.76703" lon="2.16348">
        <ele>50.5</ele>
        <time>2022-05-11T12:08:49Z</time>
      </trkpt>
      <trkpt lat="49.76702" lon="2.16347">
        <ele>50.5</ele>
        <time>2022-05-11T12:08:50Z</time>
      </trkpt>
      <trkpt lat="49.767" lon="2.16346">
        <ele>50.6</ele>
        <time>2022-05-11T12:08:52Z</time>
      </trkpt>
      <trkpt lat="49.767" lon="2.16346">
        <ele>50.6</ele>
        <time>2022-05-11T12:08:53Z</time>
      </trkpt>
      <trkpt lat="49.76698" lon="2.16345">
        <ele>50.6</ele>
        <time>2022-05-11T12:08:55Z</time>
      </trkpt>
      <trkpt lat="49.76696" lon="2.16345">
        <ele>50.6</ele>
        <time>2022-05-11T12:08:56Z</time>
      </trkpt>
      <trkpt lat="49.76695" lon="2.16344">
        <ele>50.6</ele>
        <time>2022-05-11T12:08:57Z</time>
      </trkpt>
      <trkpt lat="49.76695" lon="2.16344">
        <ele>50.6</ele>
        <time>2022-05-11T12:08:58Z</time>
      </trkpt>
      <trkpt lat="49.76694" lon="2.16344">
        <ele>50.6</ele>
        <time>2022-05-11T12:08:59Z</time>
      </trkpt>
      <trkpt lat="49.7669" lon="2.16342">
        <ele>50.7</ele>
        <time>2022-05-11T12:09:00Z</time>
      </trkpt>
      <trkpt lat="49.76689" lon="2.16342">
        <ele>50.7</ele>
        <time>2022-05-11T12:09:02Z</time>
      </trkpt>
      <trkpt lat="49.76688" lon="2.16341">
        <ele>50.7</ele>
        <time>2022-05-11T12:09:03Z</time>
      </trkpt>
      <trkpt lat="49.76686" lon="2.16341">
        <ele>50.7</ele>
        <time>2022-05-11T12:09:04Z</time>
      </trkpt>
      <trkpt lat="49.76684" lon="2.1634">
        <ele>50.7</ele>
        <time>2022-05-11T12:09:05Z</time>
      </trkpt>
      <trkpt lat="49.76683" lon="2.16339">
        <ele>50.7</ele>
        <time>2022-05-11T12:09:06Z</time>
      </trkpt>
      <trkpt lat="49.76682" lon="2.16339">
        <ele>50.7</ele>
        <time>2022-05-11T12:09:07Z</time>
      </trkpt>
      <trkpt lat="49.7668" lon="2.16339">
        <ele>50.7</ele>
        <time>2022-05-11T12:09:08Z</time>
      </trkpt>
      <trkpt lat="49.76679" lon="2.16338">
        <ele>50.8</ele>
        <time>2022-05-11T12:09:09Z</time>
      </trkpt>
      <trkpt lat="49.76676" lon="2.16337">
        <ele>50.8</ele>
        <time>2022-05-11T12:09:11Z</time>
      </trkpt>
      <trkpt lat="49.76675" lon="2.16337">
        <ele>50.8</ele>
        <time>2022-05-11T12:09:12Z</time>
      </trkpt>
      <trkpt lat="49.76673" lon="2.16336">
        <ele>50.8</ele>
        <time>2022-05-11T12:09:13Z</time>
      </trkpt>
      <trkpt lat="49.76671" lon="2.16336">
        <ele>50.8</ele>
        <time>2022-05-11T12:09:14Z</time>
      </trkpt>
      <trkpt lat="49.76669" lon="2.16335">
        <ele>50.8</ele>
        <time>2022-05-11T12:09:16Z</time>
      </trkpt>
      <trkpt lat="49.76668" lon="2.16335">
        <ele>50.9</ele>
        <time>2022-05-11T12:09:17Z</time>
      </trkpt>
      <trkpt lat="49.76667" lon="2.16335">
        <ele>50.9</ele>
        <time>2022-05-11T12:09:18Z</time>
      </trkpt>
      <trkpt lat="49.76666" lon="2.16335">
        <ele>50.9</ele>
        <time>2022-05-11T12:09:19Z</time>
      </trkpt>
      <trkpt lat="49.76665" lon="2.16335">
        <ele>50.9</ele>
        <time>2022-05-11T12:09:20Z</time>
      </trkpt>
      <trkpt lat="49.76663" lon="2.16334">
        <ele>50.9</ele>
        <time>2022-05-11T12:09:22Z</time>
      </trkpt>
      <trkpt lat="49.7666" lon="2.16334">
        <ele>50.9</ele>
        <time>2022-05-11T12:09:23Z</time>
      </trkpt>
      <trkpt lat="49.76659" lon="2.16334">
        <ele>50.9</ele>
        <time>2022-05-11T12:09:24Z</time>
      </trkpt>
      <trkpt lat="49.76658" lon="2.16333">
        <ele>50.9</ele>
        <time>2022-05-11T12:09:25Z</time>
      </trkpt>
      <trkpt lat="49.76657" lon="2.16333">
        <ele>51</ele>
        <time>2022-05-11T12:09:26Z</time>
      </trkpt>
      <trkpt lat="49.76654" lon="2.16333">
        <ele>51</ele>
        <time>2022-05-11T12:09:27Z</time>
      </trkpt>
      <trkpt lat="49.76653" lon="2.16332">
        <ele>51</ele>
        <time>2022-05-11T12:09:29Z</time>
      </trkpt>
      <trkpt lat="49.76651" lon="2.16332">
        <ele>51</ele>
        <time>2022-05-11T12:09:31Z</time>
      </trkpt>
      <trkpt lat="49.7665" lon="2.16332">
        <ele>51</ele>
        <time>2022-05-11T12:09:32Z</time>
      </trkpt>
      <trkpt lat="49.76649" lon="2.16332">
        <ele>51</ele>
        <time>2022-05-11T12:09:33Z</time>
      </trkpt>
      <trkpt lat="49.76647" lon="2.16331">
        <ele>51.1</ele>
        <time>2022-05-11T12:09:34Z</time>
      </trkpt>
      <trkpt lat="49.76646" lon="2.16331">
        <ele>51.1</ele>
        <time>2022-05-11T12:09:35Z</time>
      </trkpt>
      <trkpt lat="49.76645" lon="2.16331">
        <ele>51.1</ele>
        <time>2022-05-11T12:09:36Z</time>
      </trkpt>
      <trkpt lat="49.76644" lon="2.16331">
        <ele>51.1</ele>
        <time>2022-05-11T12:09:37Z</time>
      </trkpt>
      <trkpt lat="49.76642" lon="2.16331">
        <ele>51.1</ele>
        <time>2022-05-11T12:09:39Z</time>
      </trkpt>
      <trkpt lat="49.76641" lon="2.16331">
        <ele>51.1</ele>
        <time>2022-05-11T12:09:40Z</time>
      </trkpt>
      <trkpt lat="49.7664" lon="2.1633">
        <ele>51.1</ele>
        <time>2022-05-11T12:09:41Z</time>
      </trkpt>
      <trkpt lat="49.76638" lon="2.1633">
        <ele>51.1</ele>
        <time>2022-05-11T12:09:42Z</time>
      </trkpt>
      <trkpt lat="49.76637" lon="2.1633">
        <ele>51.2</ele>
        <time>2022-05-11T12:09:43Z</time>
      </trkpt>
      <trkpt lat="49.76635" lon="2.16329">
        <ele>51.2</ele>
        <time>2022-05-11T12:09:44Z</time>
      </trkpt>
      <trkpt lat="49.76634" lon="2.16329">
        <ele>51.2</ele>
        <time>2022-05-11T12:09:45Z</time>
      </trkpt>
      <trkpt lat="49.76634" lon="2.16328">
        <ele>51.2</ele>
        <time>2022-05-11T12:09:46Z</time>
      </trkpt>
      <trkpt lat="49.76633" lon="2.16328">
        <ele>51.2</ele>
        <time>2022-05-11T12:09:47Z</time>
      </trkpt>
      <trkpt lat="49.76632" lon="2.16327">
        <ele>51.2</ele>
        <time>2022-05-11T12:09:48Z</time>
      </trkpt>
      <trkpt lat="49.76629" lon="2.16327">
        <ele>51.2</ele>
        <time>2022-05-11T12:09:49Z</time>
      </trkpt>
      <trkpt lat="49.76628" lon="2.16327">
        <ele>51.2</ele>
        <time>2022-05-11T12:09:51Z</time>
      </trkpt>
      <trkpt lat="49.76627" lon="2.16326">
        <ele>51.3</ele>
        <time>2022-05-11T12:09:52Z</time>
      </trkpt>
      <trkpt lat="49.76626" lon="2.16326">
        <ele>51.3</ele>
        <time>2022-05-11T12:09:53Z</time>
      </trkpt>
      <trkpt lat="49.76624" lon="2.16326">
        <ele>51.3</ele>
        <time>2022-05-11T12:09:54Z</time>
      </trkpt>
      <trkpt lat="49.76623" lon="2.16325">
        <ele>51.3</ele>
        <time>2022-05-11T12:09:56Z</time>
      </trkpt>
      <trkpt lat="49.76621" lon="2.16325">
        <ele>51.3</ele>
        <time>2022-05-11T12:09:57Z</time>
      </trkpt>
      <trkpt lat="49.7662" lon="2.16325">
        <ele>51.3</ele>
        <time>2022-05-11T12:09:58Z</time>
      </trkpt>
      <trkpt lat="49.76618" lon="2.16324">
        <ele>51.3</ele>
        <time>2022-05-11T12:09:59Z</time>
      </trkpt>
      <trkpt lat="49.76617" lon="2.16324">
        <ele>51.3</ele>
        <time>2022-05-11T12:10:00Z</time>
      </trkpt>
      <trkpt lat="49.76616" lon="2.16323">
        <ele>51.3</ele>
        <time>2022-05-11T12:10:01Z</time>
      </trkpt>
      <trkpt lat="49.76612" lon="2.16322">
        <ele>51.4</ele>
        <time>2022-05-11T12:10:03Z</time>
      </trkpt>
      <trkpt lat="49.76611" lon="2.16322">
        <ele>51.4</ele>
        <time>2022-05-11T12:10:04Z</time>
      </trkpt>
      <trkpt lat="49.7661" lon="2.16321">
        <ele>51.4</ele>
        <time>2022-05-11T12:10:06Z</time>
      </trkpt>
      <trkpt lat="49.76608" lon="2.16321">
        <ele>51.4</ele>
        <time>2022-05-11T12:10:07Z</time>
      </trkpt>
      <trkpt lat="49.76607" lon="2.16321">
        <ele>51.4</ele>
        <time>2022-05-11T12:10:09Z</time>
      </trkpt>
      <trkpt lat="49.76605" lon="2.1632">
        <ele>51.4</ele>
        <time>2022-05-11T12:10:10Z</time>
      </trkpt>
      <trkpt lat="49.76604" lon="2.1632">
        <ele>51.4</ele>
        <time>2022-05-11T12:10:11Z</time>
      </trkpt>
      <trkpt lat="49.76603" lon="2.1632">
        <ele>51.4</ele>
        <time>2022-05-11T12:10:12Z</time>
      </trkpt>
      <trkpt lat="49.76602" lon="2.16319">
        <ele>51.5</ele>
        <time>2022-05-11T12:10:13Z</time>
      </trkpt>
      <trkpt lat="49.766" lon="2.16319">
        <ele>51.5</ele>
        <time>2022-05-11T12:10:14Z</time>
      </trkpt>
      <trkpt lat="49.76599" lon="2.16319">
        <ele>51.5</ele>
        <time>2022-05-11T12:10:15Z</time>
      </trkpt>
      <trkpt lat="49.76599" lon="2.16318">
        <ele>51.5</ele>
        <time>2022-05-11T12:10:16Z</time>
      </trkpt>
      <trkpt lat="49.76596" lon="2.16318">
        <ele>51.5</ele>
        <time>2022-05-11T12:10:18Z</time>
      </trkpt>
      <trkpt lat="49.76596" lon="2.16318">
        <ele>51.5</ele>
        <time>2022-05-11T12:10:19Z</time>
      </trkpt>
      <trkpt lat="49.76595" lon="2.16318">
        <ele>51.5</ele>
        <time>2022-05-11T12:10:20Z</time>
      </trkpt>
      <trkpt lat="49.76594" lon="2.16318">
        <ele>51.6</ele>
        <time>2022-05-11T12:10:21Z</time>
      </trkpt>
      <trkpt lat="49.76593" lon="2.16318">
        <ele>51.6</ele>
        <time>2022-05-11T12:10:22Z</time>
      </trkpt>
      <trkpt lat="49.76591" lon="2.16318">
        <ele>51.6</ele>
        <time>2022-05-11T12:10:23Z</time>
      </trkpt>
      <trkpt lat="49.7659" lon="2.16318">
        <ele>51.6</ele>
        <time>2022-05-11T12:10:24Z</time>
      </trkpt>
      <trkpt lat="49.76589" lon="2.16318">
        <ele>51.6</ele>
        <time>2022-05-11T12:10:26Z</time>
      </trkpt>
      <trkpt lat="49.76589" lon="2.16318">
        <ele>51.6</ele>
        <time>2022-05-11T12:10:27Z</time>
      </trkpt>
      <trkpt lat="49.76588" lon="2.16317">
        <ele>51.6</ele>
        <time>2022-05-11T12:10:28Z</time>
      </trkpt>
      <trkpt lat="49.76587" lon="2.16317">
        <ele>51.6</ele>
        <time>2022-05-11T12:10:29Z</time>
      </trkpt>
      <trkpt lat="49.76586" lon="2.16317">
        <ele>51.6</ele>
        <time>2022-05-11T12:10:30Z</time>
      </trkpt>
      <trkpt lat="49.76585" lon="2.16317">
        <ele>51.7</ele>
        <time>2022-05-11T12:10:31Z</time>
      </trkpt>
      <trkpt lat="49.76584" lon="2.16316">
        <ele>51.7</ele>
        <time>2022-05-11T12:10:32Z</time>
      </trkpt>
      <trkpt lat="49.76582" lon="2.16316">
        <ele>51.7</ele>
        <time>2022-05-11T12:10:33Z</time>
      </trkpt>
      <trkpt lat="49.76579" lon="2.16315">
        <ele>51.8</ele>
        <time>2022-05-11T12:10:35Z</time>
      </trkpt>
      <trkpt lat="49.76578" lon="2.16315">
        <ele>51.8</ele>
        <time>2022-05-11T12:10:36Z</time>
      </trkpt>
      <trkpt lat="49.76578" lon="2.16315">
        <ele>51.8</ele>
        <time>2022-05-11T12:10:37Z</time>
      </trkpt>
      <trkpt lat="49.76576" lon="2.16315">
        <ele>51.8</ele>
        <time>2022-05-11T12:10:38Z</time>
      </trkpt>
      <trkpt lat="49.76575" lon="2.16314">
        <ele>51.8</ele>
        <time>2022-05-11T12:10:39Z</time>
      </trkpt>
      <trkpt lat="49.76574" lon="2.16314">
        <ele>51.8</ele>
        <time>2022-05-11T12:10:40Z</time>
      </trkpt>
      <trkpt lat="49.76572" lon="2.16314">
        <ele>51.9</ele>
        <time>2022-05-11T12:10:41Z</time>
      </trkpt>
      <trkpt lat="49.76571" lon="2.16314">
        <ele>51.9</ele>
        <time>2022-05-11T12:10:42Z</time>
      </trkpt>
      <trkpt lat="49.7657" lon="2.16314">
        <ele>51.9</ele>
        <time>2022-05-11T12:10:43Z</time>
      </trkpt>
      <trkpt lat="49.76568" lon="2.16314">
        <ele>51.9</ele>
        <time>2022-05-11T12:10:45Z</time>
      </trkpt>
      <trkpt lat="49.76567" lon="2.16313">
        <ele>51.9</ele>
        <time>2022-05-11T12:10:46Z</time>
      </trkpt>
      <trkpt lat="49.76566" lon="2.16312">
        <ele>51.9</ele>
        <time>2022-05-11T12:10:47Z</time>
      </trkpt>
      <trkpt lat="49.76565" lon="2.16312">
        <ele>51.9</ele>
        <time>2022-05-11T12:10:48Z</time>
      </trkpt>
      <trkpt lat="49.76564" lon="2.16311">
        <ele>52</ele>
        <time>2022-05-11T12:10:49Z</time>
      </trkpt>
      <trkpt lat="49.76562" lon="2.16309">
        <ele>52</ele>
        <time>2022-05-11T12:10:50Z</time>
      </trkpt>
      <trkpt lat="49.76561" lon="2.16308">
        <ele>52</ele>
        <time>2022-05-11T12:10:51Z</time>
      </trkpt>
      <trkpt lat="49.76559" lon="2.16308">
        <ele>52</ele>
        <time>2022-05-11T12:10:53Z</time>
      </trkpt>
      <trkpt lat="49.76558" lon="2.16307">
        <ele>52</ele>
        <time>2022-05-11T12:10:54Z</time>
      </trkpt>
      <trkpt lat="49.76556" lon="2.16307">
        <ele>52.1</ele>
        <time>2022-05-11T12:10:55Z</time>
      </trkpt>
      <trkpt lat="49.76555" lon="2.16306">
        <ele>52.1</ele>
        <time>2022-05-11T12:10:56Z</time>
      </trkpt>
      <trkpt lat="49.76553" lon="2.16306">
        <ele>52.1</ele>
        <time>2022-05-11T12:10:57Z</time>
      </trkpt>
      <trkpt lat="49.76552" lon="2.16306">
        <ele>52.1</ele>
        <time>2022-05-11T12:10:59Z</time>
      </trkpt>
      <trkpt lat="49.76551" lon="2.16306">
        <ele>52.1</ele>
        <time>2022-05-11T12:11:00Z</time>
      </trkpt>
      <trkpt lat="49.7655" lon="2.16306">
        <ele>52.1</ele>
        <time>2022-05-11T12:11:01Z</time>
      </trkpt>
      <trkpt lat="49.76549" lon="2.16306">
        <ele>52.1</ele>
        <time>2022-05-11T12:11:02Z</time>
      </trkpt>
      <trkpt lat="49.76546" lon="2.16306">
        <ele>52.2</ele>
        <time>2022-05-11T12:11:03Z</time>
      </trkpt>
      <trkpt lat="49.76545" lon="2.16307">
        <ele>52.2</ele>
        <time>2022-05-11T12:11:04Z</time>
      </trkpt>
      <trkpt lat="49.76544" lon="2.16307">
        <ele>52.2</ele>
        <time>2022-05-11T12:11:05Z</time>
      </trkpt>
      <trkpt lat="49.76544" lon="2.16308">
        <ele>52.2</ele>
        <time>2022-05-11T12:11:06Z</time>
      </trkpt>
      <trkpt lat="49.76542" lon="2.16309">
        <ele>52.2</ele>
        <time>2022-05-11T12:11:07Z</time>
      </trkpt>
      <trkpt lat="49.76541" lon="2.1631">
        <ele>52.2</ele>
        <time>2022-05-11T12:11:09Z</time>
      </trkpt>
      <trkpt lat="49.76539" lon="2.1631">
        <ele>52.2</ele>
        <time>2022-05-11T12:11:10Z</time>
      </trkpt>
      <trkpt lat="49.76538" lon="2.16311">
        <ele>52.2</ele>
        <time>2022-05-11T12:11:11Z</time>
      </trkpt>
      <trkpt lat="49.76535" lon="2.16312">
        <ele>52.2</ele>
        <time>2022-05-11T12:11:12Z</time>
      </trkpt>
      <trkpt lat="49.76534" lon="2.16312">
        <ele>52.2</ele>
        <time>2022-05-11T12:11:13Z</time>
      </trkpt>
      <trkpt lat="49.76533" lon="2.16312">
        <ele>52.2</ele>
        <time>2022-05-11T12:11:14Z</time>
      </trkpt>
      <trkpt lat="49.76532" lon="2.16312">
        <ele>52.2</ele>
        <time>2022-05-11T12:11:15Z</time>
      </trkpt>
      <trkpt lat="49.76531" lon="2.16312">
        <ele>52.2</ele>
        <time>2022-05-11T12:11:17Z</time>
      </trkpt>
      <trkpt lat="49.76531" lon="2.16311">
        <ele>52.2</ele>
        <time>2022-05-11T12:11:18Z</time>
      </trkpt>
      <trkpt lat="49.7653" lon="2.16311">
        <ele>52.2</ele>
        <time>2022-05-11T12:11:19Z</time>
      </trkpt>
      <trkpt lat="49.76529" lon="2.16311">
        <ele>52.2</ele>
        <time>2022-05-11T12:11:20Z</time>
      </trkpt>
      <trkpt lat="49.76528" lon="2.16311">
        <ele>52.2</ele>
        <time>2022-05-11T12:11:21Z</time>
      </trkpt>
      <trkpt lat="49.76526" lon="2.16311">
        <ele>52.2</ele>
        <time>2022-05-11T12:11:23Z</time>
      </trkpt>
      <trkpt lat="49.76525" lon="2.16311">
        <ele>52.2</ele>
        <time>2022-05-11T12:11:24Z</time>
      </trkpt>
      <trkpt lat="49.76524" lon="2.1631">
        <ele>52.2</ele>
        <time>2022-05-11T12:11:25Z</time>
      </trkpt>
      <trkpt lat="49.76523" lon="2.1631">
        <ele>52.2</ele>
        <time>2022-05-11T12:11:26Z</time>
      </trkpt>
      <trkpt lat="49.76522" lon="2.1631">
        <ele>52.2</ele>
        <time>2022-05-11T12:11:27Z</time>
      </trkpt>
      <trkpt lat="49.7652" lon="2.1631">
        <ele>52.2</ele>
        <time>2022-05-11T12:11:29Z</time>
      </trkpt>
      <trkpt lat="49.76518" lon="2.1631">
        <ele>52.2</ele>
        <time>2022-05-11T12:11:30Z</time>
      </trkpt>
      <trkpt lat="49.76516" lon="2.1631">
        <ele>52.2</ele>
        <time>2022-05-11T12:11:31Z</time>
      </trkpt>
      <trkpt lat="49.76515" lon="2.1631">
        <ele>52.2</ele>
        <time>2022-05-11T12:11:32Z</time>
      </trkpt>
      <trkpt lat="49.76514" lon="2.1631">
        <ele>52.2</ele>
        <time>2022-05-11T12:11:33Z</time>
      </trkpt>
      <trkpt lat="49.76513" lon="2.1631">
        <ele>52.2</ele>
        <time>2022-05-11T12:11:34Z</time>
      </trkpt>
      <trkpt lat="49.76511" lon="2.16309">
        <ele>52.1</ele>
        <time>2022-05-11T12:11:35Z</time>
      </trkpt>
      <trkpt lat="49.7651" lon="2.16309">
        <ele>52.1</ele>
        <time>2022-05-11T12:11:36Z</time>
      </trkpt>
      <trkpt lat="49.76509" lon="2.16309">
        <ele>52.1</ele>
        <time>2022-05-11T12:11:37Z</time>
      </trkpt>
      <trkpt lat="49.76507" lon="2.16309">
        <ele>52.1</ele>
        <time>2022-05-11T12:11:38Z</time>
      </trkpt>
      <trkpt lat="49.76506" lon="2.16309">
        <ele>52.1</ele>
        <time>2022-05-11T12:11:40Z</time>
      </trkpt>
      <trkpt lat="49.76506" lon="2.16309">
        <ele>52.1</ele>
        <time>2022-05-11T12:11:41Z</time>
      </trkpt>
      <trkpt lat="49.76505" lon="2.16308">
        <ele>52.1</ele>
        <time>2022-05-11T12:11:42Z</time>
      </trkpt>
      <trkpt lat="49.76504" lon="2.16309">
        <ele>52.1</ele>
        <time>2022-05-11T12:11:43Z</time>
      </trkpt>
      <trkpt lat="49.76503" lon="2.16309">
        <ele>52.1</ele>
        <time>2022-05-11T12:11:44Z</time>
      </trkpt>
      <trkpt lat="49.76501" lon="2.16309">
        <ele>52.1</ele>
        <time>2022-05-11T12:11:45Z</time>
      </trkpt>
      <trkpt lat="49.765" lon="2.16309">
        <ele>52.1</ele>
        <time>2022-05-11T12:11:46Z</time>
      </trkpt>
      <trkpt lat="49.76499" lon="2.16309">
        <ele>52.1</ele>
        <time>2022-05-11T12:11:47Z</time>
      </trkpt>
      <trkpt lat="49.76497" lon="2.16309">
        <ele>52</ele>
        <time>2022-05-11T12:11:49Z</time>
      </trkpt>
      <trkpt lat="49.76496" lon="2.16309">
        <ele>52</ele>
        <time>2022-05-11T12:11:50Z</time>
      </trkpt>
      <trkpt lat="49.76495" lon="2.16309">
        <ele>52</ele>
        <time>2022-05-11T12:11:51Z</time>
      </trkpt>
      <trkpt lat="49.76493" lon="2.16309">
        <ele>52</ele>
        <time>2022-05-11T12:11:52Z</time>
      </trkpt>
      <trkpt lat="49.76491" lon="2.16309">
        <ele>52</ele>
        <time>2022-05-11T12:11:53Z</time>
      </trkpt>
      <trkpt lat="49.7649" lon="2.16309">
        <ele>52</ele>
        <time>2022-05-11T12:11:54Z</time>
      </trkpt>
      <trkpt lat="49.7649" lon="2.16309">
        <ele>52</ele>
        <time>2022-05-11T12:11:55Z</time>
      </trkpt>
      <trkpt lat="49.76489" lon="2.16309">
        <ele>52</ele>
        <time>2022-05-11T12:11:56Z</time>
      </trkpt>
      <trkpt lat="49.76487" lon="2.16309">
        <ele>52</ele>
        <time>2022-05-11T12:11:57Z</time>
      </trkpt>
      <trkpt lat="49.76486" lon="2.16309">
        <ele>52</ele>
        <time>2022-05-11T12:11:59Z</time>
      </trkpt>
      <trkpt lat="49.76484" lon="2.16309">
        <ele>51.9</ele>
        <time>2022-05-11T12:12:00Z</time>
      </trkpt>
      <trkpt lat="49.76482" lon="2.1631">
        <ele>51.9</ele>
        <time>2022-05-11T12:12:01Z</time>
      </trkpt>
      <trkpt lat="49.76481" lon="2.1631">
        <ele>51.9</ele>
        <time>2022-05-11T12:12:02Z</time>
      </trkpt>
      <trkpt lat="49.76481" lon="2.16311">
        <ele>51.9</ele>
        <time>2022-05-11T12:12:03Z</time>
      </trkpt>
      <trkpt lat="49.7648" lon="2.16311">
        <ele>51.9</ele>
        <time>2022-05-11T12:12:04Z</time>
      </trkpt>
      <trkpt lat="49.76479" lon="2.16312">
        <ele>51.9</ele>
        <time>2022-05-11T12:12:05Z</time>
      </trkpt>
      <trkpt lat="49.76477" lon="2.16312">
        <ele>51.9</ele>
        <time>2022-05-11T12:12:07Z</time>
      </trkpt>
      <trkpt lat="49.76476" lon="2.16313">
        <ele>51.9</ele>
        <time>2022-05-11T12:12:08Z</time>
      </trkpt>
      <trkpt lat="49.76474" lon="2.16313">
        <ele>51.9</ele>
        <time>2022-05-11T12:12:09Z</time>
      </trkpt>
      <trkpt lat="49.76472" lon="2.16314">
        <ele>51.8</ele>
        <time>2022-05-11T12:12:10Z</time>
      </trkpt>
      <trkpt lat="49.76472" lon="2.16314">
        <ele>51.8</ele>
        <time>2022-05-11T12:12:11Z</time>
      </trkpt>
      <trkpt lat="49.76471" lon="2.16314">
        <ele>51.8</ele>
        <time>2022-05-11T12:12:12Z</time>
      </trkpt>
      <trkpt lat="49.7647" lon="2.16314">
        <ele>51.8</ele>
        <time>2022-05-11T12:12:13Z</time>
      </trkpt>
      <trkpt lat="49.76468" lon="2.16313">
        <ele>51.8</ele>
        <time>2022-05-11T12:12:14Z</time>
      </trkpt>
      <trkpt lat="49.76467" lon="2.16313">
        <ele>51.8</ele>
        <time>2022-05-11T12:12:15Z</time>
      </trkpt>
      <trkpt lat="49.76466" lon="2.16313">
        <ele>51.8</ele>
        <time>2022-05-11T12:12:16Z</time>
      </trkpt>
      <trkpt lat="49.76464" lon="2.16313">
        <ele>51.8</ele>
        <time>2022-05-11T12:12:17Z</time>
      </trkpt>
      <trkpt lat="49.76463" lon="2.16313">
        <ele>51.7</ele>
        <time>2022-05-11T12:12:18Z</time>
      </trkpt>
      <trkpt lat="49.7646" lon="2.16313">
        <ele>51.7</ele>
        <time>2022-05-11T12:12:20Z</time>
      </trkpt>
      <trkpt lat="49.76459" lon="2.16312">
        <ele>51.7</ele>
        <time>2022-05-11T12:12:21Z</time>
      </trkpt>
      <trkpt lat="49.76457" lon="2.16312">
        <ele>51.7</ele>
        <time>2022-05-11T12:12:22Z</time>
      </trkpt>
      <trkpt lat="49.76456" lon="2.16312">
        <ele>51.7</ele>
        <time>2022-05-11T12:12:23Z</time>
      </trkpt>
      <trkpt lat="49.76454" lon="2.16311">
        <ele>51.7</ele>
        <time>2022-05-11T12:12:24Z</time>
      </trkpt>
      <trkpt lat="49.76453" lon="2.16311">
        <ele>51.6</ele>
        <time>2022-05-11T12:12:25Z</time>
      </trkpt>
      <trkpt lat="49.76451" lon="2.1631">
        <ele>51.6</ele>
        <time>2022-05-11T12:12:26Z</time>
      </trkpt>
      <trkpt lat="49.76449" lon="2.1631">
        <ele>51.6</ele>
        <time>2022-05-11T12:12:27Z</time>
      </trkpt>
      <trkpt lat="49.76447" lon="2.16309">
        <ele>51.6</ele>
        <time>2022-05-11T12:12:28Z</time>
      </trkpt>
      <trkpt lat="49.76444" lon="2.16308">
        <ele>51.6</ele>
        <time>2022-05-11T12:12:30Z</time>
      </trkpt>
      <trkpt lat="49.76442" lon="2.16307">
        <ele>51.5</ele>
        <time>2022-05-11T12:12:31Z</time>
      </trkpt>
      <trkpt lat="49.76441" lon="2.16307">
        <ele>51.5</ele>
        <time>2022-05-11T12:12:32Z</time>
      </trkpt>
      <trkpt lat="49.76441" lon="2.16307">
        <ele>51.5</ele>
        <time>2022-05-11T12:12:33Z</time>
      </trkpt>
      <trkpt lat="49.7644" lon="2.16306">
        <ele>51.5</ele>
        <time>2022-05-11T12:12:34Z</time>
      </trkpt>
      <trkpt lat="49.76439" lon="2.16306">
        <ele>51.5</ele>
        <time>2022-05-11T12:12:35Z</time>
      </trkpt>
      <trkpt lat="49.76437" lon="2.16305">
        <ele>51.5</ele>
        <time>2022-05-11T12:12:36Z</time>
      </trkpt>
      <trkpt lat="49.76435" lon="2.16304">
        <ele>51.5</ele>
        <time>2022-05-11T12:12:37Z</time>
      </trkpt>
      <trkpt lat="49.76434" lon="2.16304">
        <ele>51.5</ele>
        <time>2022-05-11T12:12:38Z</time>
      </trkpt>
      <trkpt lat="49.76433" lon="2.16303">
        <ele>51.5</ele>
        <time>2022-05-11T12:12:39Z</time>
      </trkpt>
      <trkpt lat="49.76432" lon="2.16303">
        <ele>51.5</ele>
        <time>2022-05-11T12:12:41Z</time>
      </trkpt>
      <trkpt lat="49.76431" lon="2.16303">
        <ele>51.5</ele>
        <time>2022-05-11T12:12:42Z</time>
      </trkpt>
      <trkpt lat="49.7643" lon="2.16302">
        <ele>51.5</ele>
        <time>2022-05-11T12:12:43Z</time>
      </trkpt>
      <trkpt lat="49.76429" lon="2.16302">
        <ele>51.5</ele>
        <time>2022-05-11T12:12:44Z</time>
      </trkpt>
      <trkpt lat="49.76427" lon="2.16302">
        <ele>51.5</ele>
        <time>2022-05-11T12:12:45Z</time>
      </trkpt>
      <trkpt lat="49.76426" lon="2.16302">
        <ele>51.5</ele>
        <time>2022-05-11T12:12:47Z</time>
      </trkpt>
      <trkpt lat="49.76425" lon="2.16301">
        <ele>51.5</ele>
        <time>2022-05-11T12:12:48Z</time>
      </trkpt>
      <trkpt lat="49.76424" lon="2.16301">
        <ele>51.5</ele>
        <time>2022-05-11T12:12:49Z</time>
      </trkpt>
      <trkpt lat="49.76423" lon="2.163">
        <ele>51.5</ele>
        <time>2022-05-11T12:12:50Z</time>
      </trkpt>
      <trkpt lat="49.76422" lon="2.163">
        <ele>51.5</ele>
        <time>2022-05-11T12:12:51Z</time>
      </trkpt>
      <trkpt lat="49.76421" lon="2.163">
        <ele>51.5</ele>
        <time>2022-05-11T12:12:53Z</time>
      </trkpt>
      <trkpt lat="49.7642" lon="2.163">
        <ele>51.5</ele>
        <time>2022-05-11T12:12:54Z</time>
      </trkpt>
      <trkpt lat="49.7642" lon="2.163">
        <ele>51.5</ele>
        <time>2022-05-11T12:12:55Z</time>
      </trkpt>
      <trkpt lat="49.76419" lon="2.163">
        <ele>51.5</ele>
        <time>2022-05-11T12:12:56Z</time>
      </trkpt>
      <trkpt lat="49.76418" lon="2.163">
        <ele>51.5</ele>
        <time>2022-05-11T12:12:57Z</time>
      </trkpt>
      <trkpt lat="49.76417" lon="2.163">
        <ele>51.5</ele>
        <time>2022-05-11T12:12:58Z</time>
      </trkpt>
      <trkpt lat="49.76416" lon="2.163">
        <ele>51.5</ele>
        <time>2022-05-11T12:12:59Z</time>
      </trkpt>
      <trkpt lat="49.76415" lon="2.163">
        <ele>51.5</ele>
        <time>2022-05-11T12:13:00Z</time>
      </trkpt>
      <trkpt lat="49.76414" lon="2.163">
        <ele>51.5</ele>
        <time>2022-05-11T12:13:02Z</time>
      </trkpt>
      <trkpt lat="49.76412" lon="2.16301">
        <ele>51.5</ele>
        <time>2022-05-11T12:13:03Z</time>
      </trkpt>
      <trkpt lat="49.76411" lon="2.16301">
        <ele>51.5</ele>
        <time>2022-05-11T12:13:04Z</time>
      </trkpt>
      <trkpt lat="49.7641" lon="2.16301">
        <ele>51.5</ele>
        <time>2022-05-11T12:13:05Z</time>
      </trkpt>
      <trkpt lat="49.76408" lon="2.16302">
        <ele>51.5</ele>
        <time>2022-05-11T12:13:06Z</time>
      </trkpt>
      <trkpt lat="49.76407" lon="2.16302">
        <ele>51.4</ele>
        <time>2022-05-11T12:13:07Z</time>
      </trkpt>
      <trkpt lat="49.76405" lon="2.16303">
        <ele>51.4</ele>
        <time>2022-05-11T12:13:08Z</time>
      </trkpt>
      <trkpt lat="49.76404" lon="2.16304">
        <ele>51.4</ele>
        <time>2022-05-11T12:13:09Z</time>
      </trkpt>
      <trkpt lat="49.76403" lon="2.16305">
        <ele>51.4</ele>
        <time>2022-05-11T12:13:10Z</time>
      </trkpt>
      <trkpt lat="49.76401" lon="2.16305">
        <ele>51.4</ele>
        <time>2022-05-11T12:13:12Z</time>
      </trkpt>
      <trkpt lat="49.76399" lon="2.16306">
        <ele>51.4</ele>
        <time>2022-05-11T12:13:13Z</time>
      </trkpt>
      <trkpt lat="49.76398" lon="2.16306">
        <ele>51.4</ele>
        <time>2022-05-11T12:13:14Z</time>
      </trkpt>
      <trkpt lat="49.76397" lon="2.16307">
        <ele>51.4</ele>
        <time>2022-05-11T12:13:15Z</time>
      </trkpt>
      <trkpt lat="49.76396" lon="2.16307">
        <ele>51.4</ele>
        <time>2022-05-11T12:13:16Z</time>
      </trkpt>
      <trkpt lat="49.76395" lon="2.16308">
        <ele>51.4</ele>
        <time>2022-05-11T12:13:17Z</time>
      </trkpt>
      <trkpt lat="49.76393" lon="2.16308">
        <ele>51.4</ele>
        <time>2022-05-11T12:13:18Z</time>
      </trkpt>
      <trkpt lat="49.76392" lon="2.16308">
        <ele>51.4</ele>
        <time>2022-05-11T12:13:19Z</time>
      </trkpt>
      <trkpt lat="49.76391" lon="2.16308">
        <ele>51.4</ele>
        <time>2022-05-11T12:13:20Z</time>
      </trkpt>
      <trkpt lat="49.76391" lon="2.16308">
        <ele>51.4</ele>
        <time>2022-05-11T12:13:22Z</time>
      </trkpt>
      <trkpt lat="49.76391" lon="2.16308">
        <ele>51.4</ele>
        <time>2022-05-11T12:13:23Z</time>
      </trkpt>
      <trkpt lat="49.7639" lon="2.16308">
        <ele>51.4</ele>
        <time>2022-05-11T12:13:24Z</time>
      </trkpt>
      <trkpt lat="49.76389" lon="2.16308">
        <ele>51.4</ele>
        <time>2022-05-11T12:13:25Z</time>
      </trkpt>
      <trkpt lat="49.76386" lon="2.16309">
        <ele>51.4</ele>
        <time>2022-05-11T12:13:26Z</time>
      </trkpt>
      <trkpt lat="49.76385" lon="2.16309">
        <ele>51.4</ele>
        <time>2022-05-11T12:13:27Z</time>
      </trkpt>
      <trkpt lat="49.76383" lon="2.1631">
        <ele>51.4</ele>
        <time>2022-05-11T12:13:28Z</time>
      </trkpt>
      <trkpt lat="49.76382" lon="2.1631">
        <ele>51.4</ele>
        <time>2022-05-11T12:13:30Z</time>
      </trkpt>
      <trkpt lat="49.76381" lon="2.1631">
        <ele>51.4</ele>
        <time>2022-05-11T12:13:31Z</time>
      </trkpt>
      <trkpt lat="49.76379" lon="2.1631">
        <ele>51.4</ele>
        <time>2022-05-11T12:13:32Z</time>
      </trkpt>
      <trkpt lat="49.76378" lon="2.1631">
        <ele>51.4</ele>
        <time>2022-05-11T12:13:33Z</time>
      </trkpt>
      <trkpt lat="49.76377" lon="2.1631">
        <ele>51.4</ele>
        <time>2022-05-11T12:13:34Z</time>
      </trkpt>
      <trkpt lat="49.76376" lon="2.1631">
        <ele>51.4</ele>
        <time>2022-05-11T12:13:36Z</time>
      </trkpt>
      <trkpt lat="49.76375" lon="2.16309">
        <ele>51.4</ele>
        <time>2022-05-11T12:13:37Z</time>
      </trkpt>
      <trkpt lat="49.76374" lon="2.16309">
        <ele>51.4</ele>
        <time>2022-05-11T12:13:38Z</time>
      </trkpt>
      <trkpt lat="49.76372" lon="2.16309">
        <ele>51.4</ele>
        <time>2022-05-11T12:13:40Z</time>
      </trkpt>
      <trkpt lat="49.7637" lon="2.16309">
        <ele>51.4</ele>
        <time>2022-05-11T12:13:41Z</time>
      </trkpt>
      <trkpt lat="49.76369" lon="2.16309">
        <ele>51.4</ele>
        <time>2022-05-11T12:13:42Z</time>
      </trkpt>
      <trkpt lat="49.76367" lon="2.16309">
        <ele>51.4</ele>
        <time>2022-05-11T12:13:43Z</time>
      </trkpt>
      <trkpt lat="49.76366" lon="2.16309">
        <ele>51.4</ele>
        <time>2022-05-11T12:13:44Z</time>
      </trkpt>
      <trkpt lat="49.76365" lon="2.16309">
        <ele>51.4</ele>
        <time>2022-05-11T12:13:45Z</time>
      </trkpt>
      <trkpt lat="49.76363" lon="2.16309">
        <ele>51.4</ele>
        <time>2022-05-11T12:13:46Z</time>
      </trkpt>
      <trkpt lat="49.76362" lon="2.16309">
        <ele>51.4</ele>
        <time>2022-05-11T12:13:48Z</time>
      </trkpt>
      <trkpt lat="49.7636" lon="2.16308">
        <ele>51.4</ele>
        <time>2022-05-11T12:13:49Z</time>
      </trkpt>
      <trkpt lat="49.76359" lon="2.16308">
        <ele>51.4</ele>
        <time>2022-05-11T12:13:50Z</time>
      </trkpt>
      <trkpt lat="49.76358" lon="2.16307">
        <ele>51.4</ele>
        <time>2022-05-11T12:13:51Z</time>
      </trkpt>
      <trkpt lat="49.76357" lon="2.16307">
        <ele>51.4</ele>
        <time>2022-05-11T12:13:52Z</time>
      </trkpt>
      <trkpt lat="49.76355" lon="2.16306">
        <ele>51.5</ele>
        <time>2022-05-11T12:13:53Z</time>
      </trkpt>
      <trkpt lat="49.76354" lon="2.16306">
        <ele>51.5</ele>
        <time>2022-05-11T12:13:54Z</time>
      </trkpt>
      <trkpt lat="49.76352" lon="2.16305">
        <ele>51.5</ele>
        <time>2022-05-11T12:13:56Z</time>
      </trkpt>
      <trkpt lat="49.76351" lon="2.16305">
        <ele>51.5</ele>
        <time>2022-05-11T12:13:57Z</time>
      </trkpt>
      <trkpt lat="49.76347" lon="2.16305">
        <ele>51.5</ele>
        <time>2022-05-11T12:13:59Z</time>
      </trkpt>
      <trkpt lat="49.76346" lon="2.16305">
        <ele>51.5</ele>
        <time>2022-05-11T12:14:00Z</time>
      </trkpt>
      <trkpt lat="49.76345" lon="2.16305">
        <ele>51.5</ele>
        <time>2022-05-11T12:14:01Z</time>
      </trkpt>
      <trkpt lat="49.76344" lon="2.16305">
        <ele>51.5</ele>
        <time>2022-05-11T12:14:03Z</time>
      </trkpt>
      <trkpt lat="49.76343" lon="2.16305">
        <ele>51.5</ele>
        <time>2022-05-11T12:14:04Z</time>
      </trkpt>
      <trkpt lat="49.76342" lon="2.16305">
        <ele>51.5</ele>
        <time>2022-05-11T12:14:05Z</time>
      </trkpt>
      <trkpt lat="49.76343" lon="2.16305">
        <ele>51.5</ele>
        <time>2022-05-11T12:14:06Z</time>
      </trkpt>
      <trkpt lat="49.76341" lon="2.16306">
        <ele>51.5</ele>
        <time>2022-05-11T12:14:08Z</time>
      </trkpt>
      <trkpt lat="49.7634" lon="2.16306">
        <ele>51.5</ele>
        <time>2022-05-11T12:14:09Z</time>
      </trkpt>
      <trkpt lat="49.76338" lon="2.16305">
        <ele>51.5</ele>
        <time>2022-05-11T12:14:10Z</time>
      </trkpt>
      <trkpt lat="49.76337" lon="2.16305">
        <ele>51.5</ele>
        <time>2022-05-11T12:14:11Z</time>
      </trkpt>
      <trkpt lat="49.76336" lon="2.16305">
        <ele>51.5</ele>
        <time>2022-05-11T12:14:12Z</time>
      </trkpt>
      <trkpt lat="49.76334" lon="2.16305">
        <ele>51.5</ele>
        <time>2022-05-11T12:14:14Z</time>
      </trkpt>
      <trkpt lat="49.76333" lon="2.16305">
        <ele>51.5</ele>
        <time>2022-05-11T12:14:15Z</time>
      </trkpt>
      <trkpt lat="49.76332" lon="2.16305">
        <ele>51.5</ele>
        <time>2022-05-11T12:14:16Z</time>
      </trkpt>
      <trkpt lat="49.76332" lon="2.16305">
        <ele>51.5</ele>
        <time>2022-05-11T12:14:17Z</time>
      </trkpt>
      <trkpt lat="49.76331" lon="2.16305">
        <ele>51.6</ele>
        <time>2022-05-11T12:14:18Z</time>
      </trkpt>
      <trkpt lat="49.7633" lon="2.16305">
        <ele>51.6</ele>
        <time>2022-05-11T12:14:19Z</time>
      </trkpt>
      <trkpt lat="49.7633" lon="2.16305">
        <ele>51.6</ele>
        <time>2022-05-11T12:14:20Z</time>
      </trkpt>
      <trkpt lat="49.76328" lon="2.16305">
        <ele>51.6</ele>
        <time>2022-05-11T12:14:22Z</time>
      </trkpt>
      <trkpt lat="49.76327" lon="2.16305">
        <ele>51.6</ele>
        <time>2022-05-11T12:14:23Z</time>
      </trkpt>
      <trkpt lat="49.76326" lon="2.16305">
        <ele>51.6</ele>
        <time>2022-05-11T12:14:24Z</time>
      </trkpt>
      <trkpt lat="49.76325" lon="2.16305">
        <ele>51.6</ele>
        <time>2022-05-11T12:14:25Z</time>
      </trkpt>
      <trkpt lat="49.76324" lon="2.16305">
        <ele>51.6</ele>
        <time>2022-05-11T12:14:26Z</time>
      </trkpt>
      <trkpt lat="49.76324" lon="2.16305">
        <ele>51.6</ele>
        <time>2022-05-11T12:14:27Z</time>
      </trkpt>
      <trkpt lat="49.76323" lon="2.16304">
        <ele>51.6</ele>
        <time>2022-05-11T12:14:28Z</time>
      </trkpt>
      <trkpt lat="49.76322" lon="2.16304">
        <ele>51.6</ele>
        <time>2022-05-11T12:14:29Z</time>
      </trkpt>
      <trkpt lat="49.76321" lon="2.16303">
        <ele>51.6</ele>
        <time>2022-05-11T12:14:30Z</time>
      </trkpt>
      <trkpt lat="49.7632" lon="2.16303">
        <ele>51.6</ele>
        <time>2022-05-11T12:14:32Z</time>
      </trkpt>
      <trkpt lat="49.76319" lon="2.16303">
        <ele>51.6</ele>
        <time>2022-05-11T12:14:33Z</time>
      </trkpt>
      <trkpt lat="49.76318" lon="2.16302">
        <ele>51.6</ele>
        <time>2022-05-11T12:14:34Z</time>
      </trkpt>
      <trkpt lat="49.76317" lon="2.16301">
        <ele>51.6</ele>
        <time>2022-05-11T12:14:35Z</time>
      </trkpt>
      <trkpt lat="49.76315" lon="2.163">
        <ele>51.6</ele>
        <time>2022-05-11T12:14:36Z</time>
      </trkpt>
      <trkpt lat="49.76314" lon="2.163">
        <ele>51.6</ele>
        <time>2022-05-11T12:14:37Z</time>
      </trkpt>
      <trkpt lat="49.76313" lon="2.16299">
        <ele>51.6</ele>
        <time>2022-05-11T12:14:38Z</time>
      </trkpt>
      <trkpt lat="49.76312" lon="2.16298">
        <ele>51.6</ele>
        <time>2022-05-11T12:14:39Z</time>
      </trkpt>
      <trkpt lat="49.7631" lon="2.16298">
        <ele>51.6</ele>
        <time>2022-05-11T12:14:41Z</time>
      </trkpt>
      <trkpt lat="49.76309" lon="2.16297">
        <ele>51.6</ele>
        <time>2022-05-11T12:14:42Z</time>
      </trkpt>
      <trkpt lat="49.76308" lon="2.16297">
        <ele>51.6</ele>
        <time>2022-05-11T12:14:43Z</time>
      </trkpt>
      <trkpt lat="49.76307" lon="2.16296">
        <ele>51.6</ele>
        <time>2022-05-11T12:14:44Z</time>
      </trkpt>
      <trkpt lat="49.76306" lon="2.16296">
        <ele>51.6</ele>
        <time>2022-05-11T12:14:45Z</time>
      </trkpt>
      <trkpt lat="49.76305" lon="2.16296">
        <ele>51.6</ele>
        <time>2022-05-11T12:14:46Z</time>
      </trkpt>
      <trkpt lat="49.76303" lon="2.16295">
        <ele>51.6</ele>
        <time>2022-05-11T12:14:47Z</time>
      </trkpt>
      <trkpt lat="49.76302" lon="2.16295">
        <ele>51.6</ele>
        <time>2022-05-11T12:14:48Z</time>
      </trkpt>
      <trkpt lat="49.76301" lon="2.16295">
        <ele>51.6</ele>
        <time>2022-05-11T12:14:50Z</time>
      </trkpt>
      <trkpt lat="49.763" lon="2.16295">
        <ele>51.6</ele>
        <time>2022-05-11T12:14:51Z</time>
      </trkpt>
      <trkpt lat="49.763" lon="2.16295">
        <ele>51.6</ele>
        <time>2022-05-11T12:14:52Z</time>
      </trkpt>
      <trkpt lat="49.76299" lon="2.16295">
        <ele>51.6</ele>
        <time>2022-05-11T12:14:53Z</time>
      </trkpt>
      <trkpt lat="49.76298" lon="2.16294">
        <ele>51.6</ele>
        <time>2022-05-11T12:14:54Z</time>
      </trkpt>
      <trkpt lat="49.76296" lon="2.16294">
        <ele>51.6</ele>
        <time>2022-05-11T12:14:56Z</time>
      </trkpt>
      <trkpt lat="49.76295" lon="2.16294">
        <ele>51.6</ele>
        <time>2022-05-11T12:14:57Z</time>
      </trkpt>
      <trkpt lat="49.76294" lon="2.16294">
        <ele>51.6</ele>
        <time>2022-05-11T12:14:58Z</time>
      </trkpt>
      <trkpt lat="49.76293" lon="2.16294">
        <ele>51.6</ele>
        <time>2022-05-11T12:14:59Z</time>
      </trkpt>
      <trkpt lat="49.76292" lon="2.16293">
        <ele>51.6</ele>
        <time>2022-05-11T12:15:00Z</time>
      </trkpt>
      <trkpt lat="49.76291" lon="2.16293">
        <ele>51.6</ele>
        <time>2022-05-11T12:15:01Z</time>
      </trkpt>
      <trkpt lat="49.7629" lon="2.16293">
        <ele>51.6</ele>
        <time>2022-05-11T12:15:02Z</time>
      </trkpt>
      <trkpt lat="49.76289" lon="2.16292">
        <ele>51.6</ele>
        <time>2022-05-11T12:15:03Z</time>
      </trkpt>
      <trkpt lat="49.76288" lon="2.16292">
        <ele>51.6</ele>
        <time>2022-05-11T12:15:05Z</time>
      </trkpt>
      <trkpt lat="49.76287" lon="2.16292">
        <ele>51.6</ele>
        <time>2022-05-11T12:15:06Z</time>
      </trkpt>
      <trkpt lat="49.76287" lon="2.16292">
        <ele>51.6</ele>
        <time>2022-05-11T12:15:07Z</time>
      </trkpt>
      <trkpt lat="49.76286" lon="2.16292">
        <ele>51.6</ele>
        <time>2022-05-11T12:15:08Z</time>
      </trkpt>
      <trkpt lat="49.76284" lon="2.16292">
        <ele>51.6</ele>
        <time>2022-05-11T12:15:09Z</time>
      </trkpt>
      <trkpt lat="49.76282" lon="2.16292">
        <ele>51.6</ele>
        <time>2022-05-11T12:15:11Z</time>
      </trkpt>
      <trkpt lat="49.76281" lon="2.16292">
        <ele>51.6</ele>
        <time>2022-05-11T12:15:12Z</time>
      </trkpt>
      <trkpt lat="49.76279" lon="2.16292">
        <ele>51.6</ele>
        <time>2022-05-11T12:15:13Z</time>
      </trkpt>
      <trkpt lat="49.76278" lon="2.16292">
        <ele>51.6</ele>
        <time>2022-05-11T12:15:14Z</time>
      </trkpt>
      <trkpt lat="49.76276" lon="2.16292">
        <ele>51.6</ele>
        <time>2022-05-11T12:15:15Z</time>
      </trkpt>
      <trkpt lat="49.76273" lon="2.16292">
        <ele>51.6</ele>
        <time>2022-05-11T12:15:16Z</time>
      </trkpt>
      <trkpt lat="49.76272" lon="2.16291">
        <ele>51.6</ele>
        <time>2022-05-11T12:15:17Z</time>
      </trkpt>
      <trkpt lat="49.76271" lon="2.16291">
        <ele>51.6</ele>
        <time>2022-05-11T12:15:19Z</time>
      </trkpt>
      <trkpt lat="49.76269" lon="2.16291">
        <ele>51.6</ele>
        <time>2022-05-11T12:15:20Z</time>
      </trkpt>
      <trkpt lat="49.76267" lon="2.16291">
        <ele>51.6</ele>
        <time>2022-05-11T12:15:21Z</time>
      </trkpt>
      <trkpt lat="49.76265" lon="2.16291">
        <ele>51.6</ele>
        <time>2022-05-11T12:15:22Z</time>
      </trkpt>
      <trkpt lat="49.76264" lon="2.16291">
        <ele>51.6</ele>
        <time>2022-05-11T12:15:23Z</time>
      </trkpt>
      <trkpt lat="49.76262" lon="2.1629">
        <ele>51.6</ele>
        <time>2022-05-11T12:15:25Z</time>
      </trkpt>
      <trkpt lat="49.7626" lon="2.1629">
        <ele>51.6</ele>
        <time>2022-05-11T12:15:26Z</time>
      </trkpt>
      <trkpt lat="49.76258" lon="2.1629">
        <ele>51.6</ele>
        <time>2022-05-11T12:15:27Z</time>
      </trkpt>
      <trkpt lat="49.76257" lon="2.1629">
        <ele>51.6</ele>
        <time>2022-05-11T12:15:28Z</time>
      </trkpt>
      <trkpt lat="49.76257" lon="2.1629">
        <ele>51.6</ele>
        <time>2022-05-11T12:15:29Z</time>
      </trkpt>
      <trkpt lat="49.76254" lon="2.16289">
        <ele>51.6</ele>
        <time>2022-05-11T12:15:30Z</time>
      </trkpt>
      <trkpt lat="49.76254" lon="2.16289">
        <ele>51.6</ele>
        <time>2022-05-11T12:15:31Z</time>
      </trkpt>
      <trkpt lat="49.76253" lon="2.16289">
        <ele>51.6</ele>
        <time>2022-05-11T12:15:32Z</time>
      </trkpt>
      <trkpt lat="49.76251" lon="2.16289">
        <ele>51.6</ele>
        <time>2022-05-11T12:15:33Z</time>
      </trkpt>
      <trkpt lat="49.7625" lon="2.16289">
        <ele>51.6</ele>
        <time>2022-05-11T12:15:34Z</time>
      </trkpt>
      <trkpt lat="49.76247" lon="2.16288">
        <ele>51.6</ele>
        <time>2022-05-11T12:15:36Z</time>
      </trkpt>
      <trkpt lat="49.76245" lon="2.16288">
        <ele>51.6</ele>
        <time>2022-05-11T12:15:37Z</time>
      </trkpt>
      <trkpt lat="49.76243" lon="2.16287">
        <ele>51.6</ele>
        <time>2022-05-11T12:15:39Z</time>
      </trkpt>
      <trkpt lat="49.76243" lon="2.16287">
        <ele>51.6</ele>
        <time>2022-05-11T12:15:40Z</time>
      </trkpt>
      <trkpt lat="49.76242" lon="2.16287">
        <ele>51.6</ele>
        <time>2022-05-11T12:15:41Z</time>
      </trkpt>
      <trkpt lat="49.7624" lon="2.16287">
        <ele>51.6</ele>
        <time>2022-05-11T12:15:42Z</time>
      </trkpt>
      <trkpt lat="49.76239" lon="2.16286">
        <ele>51.6</ele>
        <time>2022-05-11T12:15:43Z</time>
      </trkpt>
      <trkpt lat="49.76238" lon="2.16286">
        <ele>51.6</ele>
        <time>2022-05-11T12:15:44Z</time>
      </trkpt>
      <trkpt lat="49.76235" lon="2.16285">
        <ele>51.6</ele>
        <time>2022-05-11T12:15:46Z</time>
      </trkpt>
      <trkpt lat="49.76235" lon="2.16285">
        <ele>51.6</ele>
        <time>2022-05-11T12:15:47Z</time>
      </trkpt>
      <trkpt lat="49.76232" lon="2.16285">
        <ele>51.6</ele>
        <time>2022-05-11T12:15:48Z</time>
      </trkpt>
      <trkpt lat="49.76231" lon="2.16285">
        <ele>51.6</ele>
        <time>2022-05-11T12:15:49Z</time>
      </trkpt>
      <trkpt lat="49.7623" lon="2.16285">
        <ele>51.6</ele>
        <time>2022-05-11T12:15:50Z</time>
      </trkpt>
      <trkpt lat="49.76229" lon="2.16285">
        <ele>51.6</ele>
        <time>2022-05-11T12:15:51Z</time>
      </trkpt>
      <trkpt lat="49.76228" lon="2.16285">
        <ele>51.6</ele>
        <time>2022-05-11T12:15:53Z</time>
      </trkpt>
      <trkpt lat="49.76226" lon="2.16285">
        <ele>51.6</ele>
        <time>2022-05-11T12:15:54Z</time>
      </trkpt>
      <trkpt lat="49.76225" lon="2.16285">
        <ele>51.6</ele>
        <time>2022-05-11T12:15:55Z</time>
      </trkpt>
      <trkpt lat="49.76223" lon="2.16285">
        <ele>51.6</ele>
        <time>2022-05-11T12:15:56Z</time>
      </trkpt>
      <trkpt lat="49.76222" lon="2.16287">
        <ele>51.6</ele>
        <time>2022-05-11T12:15:57Z</time>
      </trkpt>
      <trkpt lat="49.76221" lon="2.16287">
        <ele>51.6</ele>
        <time>2022-05-11T12:15:58Z</time>
      </trkpt>
      <trkpt lat="49.7622" lon="2.16288">
        <ele>51.6</ele>
        <time>2022-05-11T12:15:59Z</time>
      </trkpt>
      <trkpt lat="49.76217" lon="2.16288">
        <ele>51.6</ele>
        <time>2022-05-11T12:16:01Z</time>
      </trkpt>
      <trkpt lat="49.76215" lon="2.16288">
        <ele>51.6</ele>
        <time>2022-05-11T12:16:02Z</time>
      </trkpt>
      <trkpt lat="49.76213" lon="2.16288">
        <ele>51.6</ele>
        <time>2022-05-11T12:16:04Z</time>
      </trkpt>
      <trkpt lat="49.76212" lon="2.16288">
        <ele>51.6</ele>
        <time>2022-05-11T12:16:06Z</time>
      </trkpt>
      <trkpt lat="49.76211" lon="2.16288">
        <ele>51.6</ele>
        <time>2022-05-11T12:16:07Z</time>
      </trkpt>
      <trkpt lat="49.7621" lon="2.16289">
        <ele>51.6</ele>
        <time>2022-05-11T12:16:08Z</time>
      </trkpt>
      <trkpt lat="49.76209" lon="2.16289">
        <ele>51.6</ele>
        <time>2022-05-11T12:16:09Z</time>
      </trkpt>
      <trkpt lat="49.76208" lon="2.16289">
        <ele>51.6</ele>
        <time>2022-05-11T12:16:10Z</time>
      </trkpt>
      <trkpt lat="49.76207" lon="2.1629">
        <ele>51.6</ele>
        <time>2022-05-11T12:16:12Z</time>
      </trkpt>
      <trkpt lat="49.76206" lon="2.1629">
        <ele>51.6</ele>
        <time>2022-05-11T12:16:13Z</time>
      </trkpt>
      <trkpt lat="49.76204" lon="2.1629">
        <ele>51.6</ele>
        <time>2022-05-11T12:16:14Z</time>
      </trkpt>
      <trkpt lat="49.76203" lon="2.1629">
        <ele>51.6</ele>
        <time>2022-05-11T12:16:15Z</time>
      </trkpt>
      <trkpt lat="49.76201" lon="2.1629">
        <ele>51.6</ele>
        <time>2022-05-11T12:16:17Z</time>
      </trkpt>
      <trkpt lat="49.762" lon="2.1629">
        <ele>51.6</ele>
        <time>2022-05-11T12:16:18Z</time>
      </trkpt>
      <trkpt lat="49.76199" lon="2.1629">
        <ele>51.6</ele>
        <time>2022-05-11T12:16:19Z</time>
      </trkpt>
      <trkpt lat="49.76198" lon="2.16289">
        <ele>51.6</ele>
        <time>2022-05-11T12:16:20Z</time>
      </trkpt>
      <trkpt lat="49.76198" lon="2.16289">
        <ele>51.6</ele>
        <time>2022-05-11T12:16:21Z</time>
      </trkpt>
      <trkpt lat="49.76198" lon="2.16289">
        <ele>51.6</ele>
        <time>2022-05-11T12:16:23Z</time>
      </trkpt>
      <trkpt lat="49.76198" lon="2.16289">
        <ele>51.6</ele>
        <time>2022-05-11T12:16:24Z</time>
      </trkpt>
      <trkpt lat="49.76197" lon="2.16289">
        <ele>51.6</ele>
        <time>2022-05-11T12:16:25Z</time>
      </trkpt>
      <trkpt lat="49.76196" lon="2.1629">
        <ele>51.6</ele>
        <time>2022-05-11T12:16:26Z</time>
      </trkpt>
      <trkpt lat="49.76194" lon="2.1629">
        <ele>51.6</ele>
        <time>2022-05-11T12:16:27Z</time>
      </trkpt>
      <trkpt lat="49.76193" lon="2.1629">
        <ele>51.6</ele>
        <time>2022-05-11T12:16:28Z</time>
      </trkpt>
      <trkpt lat="49.76192" lon="2.1629">
        <ele>51.6</ele>
        <time>2022-05-11T12:16:29Z</time>
      </trkpt>
      <trkpt lat="49.7619" lon="2.1629">
        <ele>51.6</ele>
        <time>2022-05-11T12:16:30Z</time>
      </trkpt>
      <trkpt lat="49.76189" lon="2.1629">
        <ele>51.6</ele>
        <time>2022-05-11T12:16:31Z</time>
      </trkpt>
      <trkpt lat="49.76188" lon="2.1629">
        <ele>51.6</ele>
        <time>2022-05-11T12:16:32Z</time>
      </trkpt>
      <trkpt lat="49.76186" lon="2.1629">
        <ele>51.6</ele>
        <time>2022-05-11T12:16:34Z</time>
      </trkpt>
      <trkpt lat="49.76185" lon="2.1629">
        <ele>51.6</ele>
        <time>2022-05-11T12:16:35Z</time>
      </trkpt>
      <trkpt lat="49.76182" lon="2.16289">
        <ele>51.6</ele>
        <time>2022-05-11T12:16:36Z</time>
      </trkpt>
      <trkpt lat="49.76181" lon="2.16289">
        <ele>51.6</ele>
        <time>2022-05-11T12:16:37Z</time>
      </trkpt>
      <trkpt lat="49.7618" lon="2.16288">
        <ele>51.6</ele>
        <time>2022-05-11T12:16:38Z</time>
      </trkpt>
      <trkpt lat="49.76179" lon="2.16288">
        <ele>51.6</ele>
        <time>2022-05-11T12:16:39Z</time>
      </trkpt>
      <trkpt lat="49.76178" lon="2.16287">
        <ele>51.6</ele>
        <time>2022-05-11T12:16:40Z</time>
      </trkpt>
      <trkpt lat="49.76177" lon="2.16287">
        <ele>51.6</ele>
        <time>2022-05-11T12:16:41Z</time>
      </trkpt>
      <trkpt lat="49.76175" lon="2.16287">
        <ele>51.6</ele>
        <time>2022-05-11T12:16:42Z</time>
      </trkpt>
      <trkpt lat="49.76172" lon="2.16286">
        <ele>51.6</ele>
        <time>2022-05-11T12:16:44Z</time>
      </trkpt>
      <trkpt lat="49.7617" lon="2.16286">
        <ele>51.6</ele>
        <time>2022-05-11T12:16:46Z</time>
      </trkpt>
      <trkpt lat="49.76169" lon="2.16286">
        <ele>51.6</ele>
        <time>2022-05-11T12:16:47Z</time>
      </trkpt>
      <trkpt lat="49.76167" lon="2.16285">
        <ele>51.6</ele>
        <time>2022-05-11T12:16:48Z</time>
      </trkpt>
      <trkpt lat="49.76166" lon="2.16285">
        <ele>51.6</ele>
        <time>2022-05-11T12:16:49Z</time>
      </trkpt>
      <trkpt lat="49.76165" lon="2.16286">
        <ele>51.6</ele>
        <time>2022-05-11T12:16:50Z</time>
      </trkpt>
      <trkpt lat="49.76164" lon="2.16286">
        <ele>51.6</ele>
        <time>2022-05-11T12:16:51Z</time>
      </trkpt>
      <trkpt lat="49.76163" lon="2.16286">
        <ele>51.6</ele>
        <time>2022-05-11T12:16:52Z</time>
      </trkpt>
      <trkpt lat="49.76162" lon="2.16286">
        <ele>51.6</ele>
        <time>2022-05-11T12:16:53Z</time>
      </trkpt>
      <trkpt lat="49.76161" lon="2.16286">
        <ele>51.6</ele>
        <time>2022-05-11T12:16:55Z</time>
      </trkpt>
      <trkpt lat="49.7616" lon="2.16286">
        <ele>51.6</ele>
        <time>2022-05-11T12:16:56Z</time>
      </trkpt>
      <trkpt lat="49.76158" lon="2.16286">
        <ele>51.6</ele>
        <time>2022-05-11T12:16:57Z</time>
      </trkpt>
      <trkpt lat="49.76157" lon="2.16286">
        <ele>51.6</ele>
        <time>2022-05-11T12:16:58Z</time>
      </trkpt>
      <trkpt lat="49.76156" lon="2.16287">
        <ele>51.6</ele>
        <time>2022-05-11T12:16:59Z</time>
      </trkpt>
      <trkpt lat="49.76154" lon="2.16287">
        <ele>51.6</ele>
        <time>2022-05-11T12:17:00Z</time>
      </trkpt>
      <trkpt lat="49.76153" lon="2.16287">
        <ele>51.6</ele>
        <time>2022-05-11T12:17:02Z</time>
      </trkpt>
      <trkpt lat="49.76152" lon="2.16287">
        <ele>51.6</ele>
        <time>2022-05-11T12:17:03Z</time>
      </trkpt>
      <trkpt lat="49.76151" lon="2.16286">
        <ele>51.6</ele>
        <time>2022-05-11T12:17:04Z</time>
      </trkpt>
      <trkpt lat="49.7615" lon="2.16286">
        <ele>51.6</ele>
        <time>2022-05-11T12:17:05Z</time>
      </trkpt>
      <trkpt lat="49.76149" lon="2.16286">
        <ele>51.6</ele>
        <time>2022-05-11T12:17:06Z</time>
      </trkpt>
      <trkpt lat="49.76148" lon="2.16286">
        <ele>51.6</ele>
        <time>2022-05-11T12:17:07Z</time>
      </trkpt>
      <trkpt lat="49.76147" lon="2.16286">
        <ele>51.6</ele>
        <time>2022-05-11T12:17:09Z</time>
      </trkpt>
      <trkpt lat="49.76146" lon="2.16286">
        <ele>51.6</ele>
        <time>2022-05-11T12:17:10Z</time>
      </trkpt>
      <trkpt lat="49.76145" lon="2.16285">
        <ele>51.6</ele>
        <time>2022-05-11T12:17:11Z</time>
      </trkpt>
      <trkpt lat="49.76144" lon="2.16285">
        <ele>51.6</ele>
        <time>2022-05-11T12:17:12Z</time>
      </trkpt>
      <trkpt lat="49.76143" lon="2.16285">
        <ele>51.6</ele>
        <time>2022-05-11T12:17:13Z</time>
      </trkpt>
      <trkpt lat="49.76141" lon="2.16285">
        <ele>51.6</ele>
        <time>2022-05-11T12:17:14Z</time>
      </trkpt>
      <trkpt lat="49.7614" lon="2.16285">
        <ele>51.6</ele>
        <time>2022-05-11T12:17:15Z</time>
      </trkpt>
      <trkpt lat="49.76139" lon="2.16285">
        <ele>51.6</ele>
        <time>2022-05-11T12:17:16Z</time>
      </trkpt>
      <trkpt lat="49.76137" lon="2.16284">
        <ele>51.5</ele>
        <time>2022-05-11T12:17:17Z</time>
      </trkpt>
      <trkpt lat="49.76135" lon="2.16284">
        <ele>51.5</ele>
        <time>2022-05-11T12:17:18Z</time>
      </trkpt>
      <trkpt lat="49.76135" lon="2.16283">
        <ele>51.5</ele>
        <time>2022-05-11T12:17:19Z</time>
      </trkpt>
      <trkpt lat="49.76134" lon="2.16283">
        <ele>51.5</ele>
        <time>2022-05-11T12:17:20Z</time>
      </trkpt>
      <trkpt lat="49.76132" lon="2.16282">
        <ele>51.5</ele>
        <time>2022-05-11T12:17:22Z</time>
      </trkpt>
      <trkpt lat="49.76131" lon="2.16282">
        <ele>51.5</ele>
        <time>2022-05-11T12:17:23Z</time>
      </trkpt>
      <trkpt lat="49.76129" lon="2.16281">
        <ele>51.5</ele>
        <time>2022-05-11T12:17:24Z</time>
      </trkpt>
      <trkpt lat="49.76128" lon="2.16281">
        <ele>51.5</ele>
        <time>2022-05-11T12:17:25Z</time>
      </trkpt>
      <trkpt lat="49.76127" lon="2.16281">
        <ele>51.5</ele>
        <time>2022-05-11T12:17:26Z</time>
      </trkpt>
      <trkpt lat="49.76126" lon="2.16281">
        <ele>51.5</ele>
        <time>2022-05-11T12:17:27Z</time>
      </trkpt>
      <trkpt lat="49.76124" lon="2.16281">
        <ele>51.5</ele>
        <time>2022-05-11T12:17:29Z</time>
      </trkpt>
      <trkpt lat="49.76122" lon="2.16282">
        <ele>51.5</ele>
        <time>2022-05-11T12:17:30Z</time>
      </trkpt>
      <trkpt lat="49.76121" lon="2.16283">
        <ele>51.5</ele>
        <time>2022-05-11T12:17:31Z</time>
      </trkpt>
      <trkpt lat="49.76119" lon="2.16284">
        <ele>51.5</ele>
        <time>2022-05-11T12:17:33Z</time>
      </trkpt>
      <trkpt lat="49.76118" lon="2.16284">
        <ele>51.5</ele>
        <time>2022-05-11T12:17:34Z</time>
      </trkpt>
      <trkpt lat="49.76117" lon="2.16285">
        <ele>51.5</ele>
        <time>2022-05-11T12:17:35Z</time>
      </trkpt>
      <trkpt lat="49.76116" lon="2.16285">
        <ele>51.5</ele>
        <time>2022-05-11T12:17:36Z</time>
      </trkpt>
      <trkpt lat="49.76113" lon="2.16286">
        <ele>51.5</ele>
        <time>2022-05-11T12:17:37Z</time>
      </trkpt>
      <trkpt lat="49.76113" lon="2.16286">
        <ele>51.5</ele>
        <time>2022-05-11T12:17:38Z</time>
      </trkpt>
      <trkpt lat="49.76112" lon="2.16286">
        <ele>51.5</ele>
        <time>2022-05-11T12:17:39Z</time>
      </trkpt>
      <trkpt lat="49.76111" lon="2.16286">
        <ele>51.5</ele>
        <time>2022-05-11T12:17:40Z</time>
      </trkpt>
      <trkpt lat="49.7611" lon="2.16286">
        <ele>51.5</ele>
        <time>2022-05-11T12:17:41Z</time>
      </trkpt>
      <trkpt lat="49.76108" lon="2.16286">
        <ele>51.5</ele>
        <time>2022-05-11T12:17:43Z</time>
      </trkpt>
      <trkpt lat="49.76107" lon="2.16285">
        <ele>51.5</ele>
        <time>2022-05-11T12:17:44Z</time>
      </trkpt>
      <trkpt lat="49.76106" lon="2.16285">
        <ele>51.5</ele>
        <time>2022-05-11T12:17:45Z</time>
      </trkpt>
      <trkpt lat="49.76105" lon="2.16284">
        <ele>51.5</ele>
        <time>2022-05-11T12:17:46Z</time>
      </trkpt>
      <trkpt lat="49.76104" lon="2.16284">
        <ele>51.5</ele>
        <time>2022-05-11T12:17:47Z</time>
      </trkpt>
      <trkpt lat="49.76102" lon="2.16284">
        <ele>51.5</ele>
        <time>2022-05-11T12:17:48Z</time>
      </trkpt>
      <trkpt lat="49.76102" lon="2.16284">
        <ele>51.5</ele>
        <time>2022-05-11T12:17:49Z</time>
      </trkpt>
      <trkpt lat="49.76101" lon="2.16284">
        <ele>51.5</ele>
        <time>2022-05-11T12:17:50Z</time>
      </trkpt>
      <trkpt lat="49.76098" lon="2.16285">
        <ele>51.5</ele>
        <time>2022-05-11T12:17:52Z</time>
      </trkpt>
      <trkpt lat="49.76098" lon="2.16285">
        <ele>51.5</ele>
        <time>2022-05-11T12:17:53Z</time>
      </trkpt>
      <trkpt lat="49.76097" lon="2.16285">
        <ele>51.5</ele>
        <time>2022-05-11T12:17:54Z</time>
      </trkpt>
      <trkpt lat="49.76096" lon="2.16286">
        <ele>51.5</ele>
        <time>2022-05-11T12:17:55Z</time>
      </trkpt>
      <trkpt lat="49.76095" lon="2.16286">
        <ele>51.5</ele>
        <time>2022-05-11T12:17:56Z</time>
      </trkpt>
      <trkpt lat="49.76095" lon="2.16285">
        <ele>51.5</ele>
        <time>2022-05-11T12:17:57Z</time>
      </trkpt>
      <trkpt lat="49.76095" lon="2.16285">
        <ele>51.5</ele>
        <time>2022-05-11T12:17:58Z</time>
      </trkpt>
      <trkpt lat="49.76094" lon="2.16285">
        <ele>51.5</ele>
        <time>2022-05-11T12:17:59Z</time>
      </trkpt>
      <trkpt lat="49.76092" lon="2.16285">
        <ele>51.4</ele>
        <time>2022-05-11T12:18:00Z</time>
      </trkpt>
      <trkpt lat="49.76091" lon="2.16285">
        <ele>51.4</ele>
        <time>2022-05-11T12:18:02Z</time>
      </trkpt>
      <trkpt lat="49.7609" lon="2.16284">
        <ele>51.4</ele>
        <time>2022-05-11T12:18:03Z</time>
      </trkpt>
      <trkpt lat="49.76088" lon="2.16284">
        <ele>51.4</ele>
        <time>2022-05-11T12:18:04Z</time>
      </trkpt>
      <trkpt lat="49.76087" lon="2.16284">
        <ele>51.4</ele>
        <time>2022-05-11T12:18:05Z</time>
      </trkpt>
      <trkpt lat="49.76086" lon="2.16284">
        <ele>51.4</ele>
        <time>2022-05-11T12:18:06Z</time>
      </trkpt>
      <trkpt lat="49.76084" lon="2.16284">
        <ele>51.4</ele>
        <time>2022-05-11T12:18:07Z</time>
      </trkpt>
      <trkpt lat="49.76083" lon="2.16284">
        <ele>51.4</ele>
        <time>2022-05-11T12:18:09Z</time>
      </trkpt>
      <trkpt lat="49.76082" lon="2.16284">
        <ele>51.4</ele>
        <time>2022-05-11T12:18:10Z</time>
      </trkpt>
      <trkpt lat="49.76081" lon="2.16284">
        <ele>51.4</ele>
        <time>2022-05-11T12:18:11Z</time>
      </trkpt>
      <trkpt lat="49.76079" lon="2.16284">
        <ele>51.4</ele>
        <time>2022-05-11T12:18:13Z</time>
      </trkpt>
      <trkpt lat="49.76078" lon="2.16284">
        <ele>51.4</ele>
        <time>2022-05-11T12:18:14Z</time>
      </trkpt>
      <trkpt lat="49.76077" lon="2.16284">
        <ele>51.4</ele>
        <time>2022-05-11T12:18:15Z</time>
      </trkpt>
      <trkpt lat="49.76076" lon="2.16285">
        <ele>51.4</ele>
        <time>2022-05-11T12:18:16Z</time>
      </trkpt>
      <trkpt lat="49.76075" lon="2.16285">
        <ele>51.4</ele>
        <time>2022-05-11T12:18:17Z</time>
      </trkpt>
      <trkpt lat="49.76074" lon="2.16285">
        <ele>51.4</ele>
        <time>2022-05-11T12:18:18Z</time>
      </trkpt>
      <trkpt lat="49.76072" lon="2.16286">
        <ele>51.4</ele>
        <time>2022-05-11T12:18:20Z</time>
      </trkpt>
      <trkpt lat="49.76071" lon="2.16286">
        <ele>51.4</ele>
        <time>2022-05-11T12:18:22Z</time>
      </trkpt>
      <trkpt lat="49.7607" lon="2.16286">
        <ele>51.4</ele>
        <time>2022-05-11T12:18:23Z</time>
      </trkpt>
      <trkpt lat="49.76069" lon="2.16286">
        <ele>51.4</ele>
        <time>2022-05-11T12:18:24Z</time>
      </trkpt>
      <trkpt lat="49.76069" lon="2.16286">
        <ele>51.4</ele>
        <time>2022-05-11T12:18:25Z</time>
      </trkpt>
      <trkpt lat="49.76068" lon="2.16286">
        <ele>51.4</ele>
        <time>2022-05-11T12:18:26Z</time>
      </trkpt>
      <trkpt lat="49.76067" lon="2.16286">
        <ele>51.4</ele>
        <time>2022-05-11T12:18:27Z</time>
      </trkpt>
      <trkpt lat="49.76066" lon="2.16286">
        <ele>51.4</ele>
        <time>2022-05-11T12:18:28Z</time>
      </trkpt>
      <trkpt lat="49.76065" lon="2.16286">
        <ele>51.4</ele>
        <time>2022-05-11T12:18:29Z</time>
      </trkpt>
      <trkpt lat="49.76063" lon="2.16287">
        <ele>51.4</ele>
        <time>2022-05-11T12:18:31Z</time>
      </trkpt>
      <trkpt lat="49.76062" lon="2.16287">
        <ele>51.4</ele>
        <time>2022-05-11T12:18:32Z</time>
      </trkpt>
      <trkpt lat="49.76061" lon="2.16287">
        <ele>51.4</ele>
        <time>2022-05-11T12:18:33Z</time>
      </trkpt>
      <trkpt lat="49.7606" lon="2.16287">
        <ele>51.4</ele>
        <time>2022-05-11T12:18:34Z</time>
      </trkpt>
      <trkpt lat="49.76059" lon="2.16288">
        <ele>51.4</ele>
        <time>2022-05-11T12:18:35Z</time>
      </trkpt>
      <trkpt lat="49.76058" lon="2.16288">
        <ele>51.4</ele>
        <time>2022-05-11T12:18:36Z</time>
      </trkpt>
      <trkpt lat="49.76057" lon="2.16288">
        <ele>51.4</ele>
        <time>2022-05-11T12:18:37Z</time>
      </trkpt>
      <trkpt lat="49.76056" lon="2.16288">
        <ele>51.4</ele>
        <time>2022-05-11T12:18:38Z</time>
      </trkpt>
      <trkpt lat="49.76055" lon="2.16287">
        <ele>51.4</ele>
        <time>2022-05-11T12:18:39Z</time>
      </trkpt>
      <trkpt lat="49.76054" lon="2.16287">
        <ele>51.4</ele>
        <time>2022-05-11T12:18:40Z</time>
      </trkpt>
      <trkpt lat="49.76053" lon="2.16287">
        <ele>51.4</ele>
        <time>2022-05-11T12:18:42Z</time>
      </trkpt>
      <trkpt lat="49.76052" lon="2.16287">
        <ele>51.4</ele>
        <time>2022-05-11T12:18:43Z</time>
      </trkpt>
      <trkpt lat="49.76051" lon="2.16287">
        <ele>51.4</ele>
        <time>2022-05-11T12:18:44Z</time>
      </trkpt>
      <trkpt lat="49.7605" lon="2.16287">
        <ele>51.4</ele>
        <time>2022-05-11T12:18:45Z</time>
      </trkpt>
      <trkpt lat="49.76049" lon="2.16288">
        <ele>51.4</ele>
        <time>2022-05-11T12:18:46Z</time>
      </trkpt>
      <trkpt lat="49.76047" lon="2.16288">
        <ele>51.4</ele>
        <time>2022-05-11T12:18:47Z</time>
      </trkpt>
      <trkpt lat="49.76046" lon="2.16288">
        <ele>51.4</ele>
        <time>2022-05-11T12:18:48Z</time>
      </trkpt>
      <trkpt lat="49.76045" lon="2.16288">
        <ele>51.4</ele>
        <time>2022-05-11T12:18:49Z</time>
      </trkpt>
      <trkpt lat="49.76044" lon="2.16288">
        <ele>51.4</ele>
        <time>2022-05-11T12:18:50Z</time>
      </trkpt>
      <trkpt lat="49.76041" lon="2.16288">
        <ele>51.4</ele>
        <time>2022-05-11T12:18:52Z</time>
      </trkpt>
      <trkpt lat="49.7604" lon="2.16287">
        <ele>51.4</ele>
        <time>2022-05-11T12:18:53Z</time>
      </trkpt>
      <trkpt lat="49.76038" lon="2.16287">
        <ele>51.4</ele>
        <time>2022-05-11T12:18:54Z</time>
      </trkpt>
      <trkpt lat="49.76037" lon="2.16287">
        <ele>51.4</ele>
        <time>2022-05-11T12:18:55Z</time>
      </trkpt>
      <trkpt lat="49.76035" lon="2.16287">
        <ele>51.4</ele>
        <time>2022-05-11T12:18:56Z</time>
      </trkpt>
      <trkpt lat="49.76034" lon="2.16287">
        <ele>51.4</ele>
        <time>2022-05-11T12:18:57Z</time>
      </trkpt>
      <trkpt lat="49.76032" lon="2.16286">
        <ele>51.4</ele>
        <time>2022-05-11T12:18:58Z</time>
      </trkpt>
      <trkpt lat="49.7603" lon="2.16286">
        <ele>51.4</ele>
        <time>2022-05-11T12:18:59Z</time>
      </trkpt>
      <trkpt lat="49.76029" lon="2.16285">
        <ele>51.4</ele>
        <time>2022-05-11T12:19:01Z</time>
      </trkpt>
      <trkpt lat="49.76027" lon="2.16285">
        <ele>51.4</ele>
        <time>2022-05-11T12:19:02Z</time>
      </trkpt>
      <trkpt lat="49.76026" lon="2.16285">
        <ele>51.4</ele>
        <time>2022-05-11T12:19:03Z</time>
      </trkpt>
      <trkpt lat="49.76023" lon="2.16284">
        <ele>51.4</ele>
        <time>2022-05-11T12:19:04Z</time>
      </trkpt>
      <trkpt lat="49.76022" lon="2.16284">
        <ele>51.4</ele>
        <time>2022-05-11T12:19:06Z</time>
      </trkpt>
      <trkpt lat="49.7602" lon="2.16284">
        <ele>51.4</ele>
        <time>2022-05-11T12:19:07Z</time>
      </trkpt>
      <trkpt lat="49.76019" lon="2.16284">
        <ele>51.4</ele>
        <time>2022-05-11T12:19:08Z</time>
      </trkpt>
      <trkpt lat="49.76017" lon="2.16284">
        <ele>51.4</ele>
        <time>2022-05-11T12:19:09Z</time>
      </trkpt>
      <trkpt lat="49.76016" lon="2.16284">
        <ele>51.4</ele>
        <time>2022-05-11T12:19:11Z</time>
      </trkpt>
      <trkpt lat="49.76015" lon="2.16284">
        <ele>51.4</ele>
        <time>2022-05-11T12:19:12Z</time>
      </trkpt>
      <trkpt lat="49.76014" lon="2.16284">
        <ele>51.4</ele>
        <time>2022-05-11T12:19:13Z</time>
      </trkpt>
      <trkpt lat="49.76011" lon="2.16285">
        <ele>51.4</ele>
        <time>2022-05-11T12:19:15Z</time>
      </trkpt>
      <trkpt lat="49.7601" lon="2.16285">
        <ele>51.4</ele>
        <time>2022-05-11T12:19:16Z</time>
      </trkpt>
      <trkpt lat="49.76008" lon="2.16285">
        <ele>51.4</ele>
        <time>2022-05-11T12:19:17Z</time>
      </trkpt>
      <trkpt lat="49.76007" lon="2.16285">
        <ele>51.4</ele>
        <time>2022-05-11T12:19:18Z</time>
      </trkpt>
      <trkpt lat="49.76005" lon="2.16285">
        <ele>51.4</ele>
        <time>2022-05-11T12:19:19Z</time>
      </trkpt>
      <trkpt lat="49.76003" lon="2.16285">
        <ele>51.4</ele>
        <time>2022-05-11T12:19:20Z</time>
      </trkpt>
      <trkpt lat="49.76002" lon="2.16285">
        <ele>51.4</ele>
        <time>2022-05-11T12:19:21Z</time>
      </trkpt>
      <trkpt lat="49.76001" lon="2.16285">
        <ele>51.4</ele>
        <time>2022-05-11T12:19:22Z</time>
      </trkpt>
      <trkpt lat="49.75999" lon="2.16285">
        <ele>51.4</ele>
        <time>2022-05-11T12:19:23Z</time>
      </trkpt>
      <trkpt lat="49.75998" lon="2.16285">
        <ele>51.4</ele>
        <time>2022-05-11T12:19:25Z</time>
      </trkpt>
      <trkpt lat="49.75997" lon="2.16285">
        <ele>51.4</ele>
        <time>2022-05-11T12:19:26Z</time>
      </trkpt>
      <trkpt lat="49.75996" lon="2.16284">
        <ele>51.4</ele>
        <time>2022-05-11T12:19:27Z</time>
      </trkpt>
      <trkpt lat="49.75994" lon="2.16284">
        <ele>51.4</ele>
        <time>2022-05-11T12:19:28Z</time>
      </trkpt>
      <trkpt lat="49.75993" lon="2.16284">
        <ele>51.4</ele>
        <time>2022-05-11T12:19:29Z</time>
      </trkpt>
      <trkpt lat="49.75992" lon="2.16284">
        <ele>51.4</ele>
        <time>2022-05-11T12:19:30Z</time>
      </trkpt>
      <trkpt lat="49.75991" lon="2.16284">
        <ele>51.4</ele>
        <time>2022-05-11T12:19:31Z</time>
      </trkpt>
      <trkpt lat="49.7599" lon="2.16284">
        <ele>51.4</ele>
        <time>2022-05-11T12:19:32Z</time>
      </trkpt>
      <trkpt lat="49.75988" lon="2.16283">
        <ele>51.4</ele>
        <time>2022-05-11T12:19:33Z</time>
      </trkpt>
      <trkpt lat="49.75987" lon="2.16282">
        <ele>51.4</ele>
        <time>2022-05-11T12:19:35Z</time>
      </trkpt>
      <trkpt lat="49.75986" lon="2.16282">
        <ele>51.4</ele>
        <time>2022-05-11T12:19:36Z</time>
      </trkpt>
      <trkpt lat="49.75985" lon="2.16282">
        <ele>51.4</ele>
        <time>2022-05-11T12:19:37Z</time>
      </trkpt>
      <trkpt lat="49.75983" lon="2.16282">
        <ele>51.4</ele>
        <time>2022-05-11T12:19:38Z</time>
      </trkpt>
      <trkpt lat="49.75982" lon="2.16282">
        <ele>51.4</ele>
        <time>2022-05-11T12:19:39Z</time>
      </trkpt>
      <trkpt lat="49.7598" lon="2.16281">
        <ele>51.4</ele>
        <time>2022-05-11T12:19:40Z</time>
      </trkpt>
      <trkpt lat="49.75979" lon="2.16281">
        <ele>51.4</ele>
        <time>2022-05-11T12:19:41Z</time>
      </trkpt>
      <trkpt lat="49.75978" lon="2.16281">
        <ele>51.4</ele>
        <time>2022-05-11T12:19:43Z</time>
      </trkpt>
      <trkpt lat="49.75977" lon="2.16281">
        <ele>51.4</ele>
        <time>2022-05-11T12:19:44Z</time>
      </trkpt>
      <trkpt lat="49.75975" lon="2.16281">
        <ele>51.4</ele>
        <time>2022-05-11T12:19:45Z</time>
      </trkpt>
      <trkpt lat="49.75974" lon="2.16281">
        <ele>51.4</ele>
        <time>2022-05-11T12:19:46Z</time>
      </trkpt>
      <trkpt lat="49.75972" lon="2.1628">
        <ele>51.4</ele>
        <time>2022-05-11T12:19:48Z</time>
      </trkpt>
      <trkpt lat="49.75971" lon="2.1628">
        <ele>51.4</ele>
        <time>2022-05-11T12:19:49Z</time>
      </trkpt>
      <trkpt lat="49.7597" lon="2.1628">
        <ele>51.4</ele>
        <time>2022-05-11T12:19:50Z</time>
      </trkpt>
      <trkpt lat="49.75969" lon="2.1628">
        <ele>51.4</ele>
        <time>2022-05-11T12:19:51Z</time>
      </trkpt>
      <trkpt lat="49.75968" lon="2.16279">
        <ele>51.4</ele>
        <time>2022-05-11T12:19:52Z</time>
      </trkpt>
      <trkpt lat="49.75966" lon="2.16279">
        <ele>51.4</ele>
        <time>2022-05-11T12:19:53Z</time>
      </trkpt>
      <trkpt lat="49.75965" lon="2.16279">
        <ele>51.4</ele>
        <time>2022-05-11T12:19:54Z</time>
      </trkpt>
      <trkpt lat="49.75964" lon="2.16279">
        <ele>51.4</ele>
        <time>2022-05-11T12:19:55Z</time>
      </trkpt>
      <trkpt lat="49.75964" lon="2.16279">
        <ele>51.4</ele>
        <time>2022-05-11T12:19:57Z</time>
      </trkpt>
      <trkpt lat="49.75964" lon="2.16278">
        <ele>51.4</ele>
        <time>2022-05-11T12:19:58Z</time>
      </trkpt>
      <trkpt lat="49.75962" lon="2.16278">
        <ele>51.4</ele>
        <time>2022-05-11T12:19:59Z</time>
      </trkpt>
      <trkpt lat="49.75961" lon="2.16278">
        <ele>51.4</ele>
        <time>2022-05-11T12:20:00Z</time>
      </trkpt>
      <trkpt lat="49.7596" lon="2.16278">
        <ele>51.5</ele>
        <time>2022-05-11T12:20:01Z</time>
      </trkpt>
      <trkpt lat="49.75959" lon="2.16278">
        <ele>51.5</ele>
        <time>2022-05-11T12:20:02Z</time>
      </trkpt>
      <trkpt lat="49.75958" lon="2.16277">
        <ele>51.5</ele>
        <time>2022-05-11T12:20:03Z</time>
      </trkpt>
      <trkpt lat="49.75957" lon="2.16277">
        <ele>51.5</ele>
        <time>2022-05-11T12:20:04Z</time>
      </trkpt>
      <trkpt lat="49.75956" lon="2.16277">
        <ele>51.5</ele>
        <time>2022-05-11T12:20:05Z</time>
      </trkpt>
      <trkpt lat="49.75954" lon="2.16276">
        <ele>51.5</ele>
        <time>2022-05-11T12:20:06Z</time>
      </trkpt>
      <trkpt lat="49.75953" lon="2.16276">
        <ele>51.5</ele>
        <time>2022-05-11T12:20:07Z</time>
      </trkpt>
      <trkpt lat="49.75952" lon="2.16276">
        <ele>51.5</ele>
        <time>2022-05-11T12:20:08Z</time>
      </trkpt>
      <trkpt lat="49.75951" lon="2.16275">
        <ele>51.5</ele>
        <time>2022-05-11T12:20:09Z</time>
      </trkpt>
      <trkpt lat="49.75949" lon="2.16275">
        <ele>51.5</ele>
        <time>2022-05-11T12:20:10Z</time>
      </trkpt>
      <trkpt lat="49.75948" lon="2.16275">
        <ele>51.5</ele>
        <time>2022-05-11T12:20:11Z</time>
      </trkpt>
      <trkpt lat="49.75947" lon="2.16275">
        <ele>51.5</ele>
        <time>2022-05-11T12:20:12Z</time>
      </trkpt>
      <trkpt lat="49.75946" lon="2.16275">
        <ele>51.5</ele>
        <time>2022-05-11T12:20:13Z</time>
      </trkpt>
      <trkpt lat="49.75945" lon="2.16275">
        <ele>51.5</ele>
        <time>2022-05-11T12:20:14Z</time>
      </trkpt>
      <trkpt lat="49.75943" lon="2.16275">
        <ele>51.5</ele>
        <time>2022-05-11T12:20:15Z</time>
      </trkpt>
      <trkpt lat="49.75941" lon="2.16275">
        <ele>51.5</ele>
        <time>2022-05-11T12:20:16Z</time>
      </trkpt>
      <trkpt lat="49.7594" lon="2.16275">
        <ele>51.5</ele>
        <time>2022-05-11T12:20:18Z</time>
      </trkpt>
      <trkpt lat="49.75938" lon="2.16274">
        <ele>51.5</ele>
        <time>2022-05-11T12:20:19Z</time>
      </trkpt>
      <trkpt lat="49.75937" lon="2.16274">
        <ele>51.5</ele>
        <time>2022-05-11T12:20:20Z</time>
      </trkpt>
      <trkpt lat="49.75935" lon="2.16274">
        <ele>51.5</ele>
        <time>2022-05-11T12:20:21Z</time>
      </trkpt>
      <trkpt lat="49.75933" lon="2.16274">
        <ele>51.5</ele>
        <time>2022-05-11T12:20:22Z</time>
      </trkpt>
      <trkpt lat="49.75932" lon="2.16274">
        <ele>51.5</ele>
        <time>2022-05-11T12:20:23Z</time>
      </trkpt>
      <trkpt lat="49.75931" lon="2.16274">
        <ele>51.5</ele>
        <time>2022-05-11T12:20:24Z</time>
      </trkpt>
      <trkpt lat="49.75928" lon="2.16275">
        <ele>51.5</ele>
        <time>2022-05-11T12:20:26Z</time>
      </trkpt>
      <trkpt lat="49.75927" lon="2.16274">
        <ele>51.5</ele>
        <time>2022-05-11T12:20:27Z</time>
      </trkpt>
      <trkpt lat="49.75926" lon="2.16274">
        <ele>51.5</ele>
        <time>2022-05-11T12:20:28Z</time>
      </trkpt>
      <trkpt lat="49.75924" lon="2.16274">
        <ele>51.5</ele>
        <time>2022-05-11T12:20:30Z</time>
      </trkpt>
      <trkpt lat="49.75921" lon="2.16273">
        <ele>51.5</ele>
        <time>2022-05-11T12:20:31Z</time>
      </trkpt>
      <trkpt lat="49.75921" lon="2.16273">
        <ele>51.5</ele>
        <time>2022-05-11T12:20:32Z</time>
      </trkpt>
      <trkpt lat="49.7592" lon="2.16273">
        <ele>51.5</ele>
        <time>2022-05-11T12:20:33Z</time>
      </trkpt>
      <trkpt lat="49.75918" lon="2.16273">
        <ele>51.5</ele>
        <time>2022-05-11T12:20:34Z</time>
      </trkpt>
      <trkpt lat="49.75917" lon="2.16273">
        <ele>51.5</ele>
        <time>2022-05-11T12:20:35Z</time>
      </trkpt>
      <trkpt lat="49.75916" lon="2.16272">
        <ele>51.5</ele>
        <time>2022-05-11T12:20:36Z</time>
      </trkpt>
      <trkpt lat="49.75913" lon="2.16272">
        <ele>51.5</ele>
        <time>2022-05-11T12:20:38Z</time>
      </trkpt>
      <trkpt lat="49.75912" lon="2.16272">
        <ele>51.5</ele>
        <time>2022-05-11T12:20:40Z</time>
      </trkpt>
      <trkpt lat="49.75912" lon="2.16273">
        <ele>51.5</ele>
        <time>2022-05-11T12:20:41Z</time>
      </trkpt>
      <trkpt lat="49.75911" lon="2.16273">
        <ele>51.5</ele>
        <time>2022-05-11T12:20:42Z</time>
      </trkpt>
      <trkpt lat="49.7591" lon="2.16273">
        <ele>51.5</ele>
        <time>2022-05-11T12:20:43Z</time>
      </trkpt>
      <trkpt lat="49.75908" lon="2.16273">
        <ele>51.5</ele>
        <time>2022-05-11T12:20:44Z</time>
      </trkpt>
      <trkpt lat="49.75907" lon="2.16273">
        <ele>51.5</ele>
        <time>2022-05-11T12:20:45Z</time>
      </trkpt>
      <trkpt lat="49.75906" lon="2.16273">
        <ele>51.5</ele>
        <time>2022-05-11T12:20:46Z</time>
      </trkpt>
      <trkpt lat="49.75903" lon="2.16273">
        <ele>51.5</ele>
        <time>2022-05-11T12:20:48Z</time>
      </trkpt>
      <trkpt lat="49.75902" lon="2.16273">
        <ele>51.5</ele>
        <time>2022-05-11T12:20:49Z</time>
      </trkpt>
      <trkpt lat="49.75901" lon="2.16273">
        <ele>51.5</ele>
        <time>2022-05-11T12:20:50Z</time>
      </trkpt>
      <trkpt lat="49.759" lon="2.16273">
        <ele>51.5</ele>
        <time>2022-05-11T12:20:51Z</time>
      </trkpt>
      <trkpt lat="49.75898" lon="2.16273">
        <ele>51.5</ele>
        <time>2022-05-11T12:20:52Z</time>
      </trkpt>
      <trkpt lat="49.75896" lon="2.16272">
        <ele>51.5</ele>
        <time>2022-05-11T12:20:53Z</time>
      </trkpt>
      <trkpt lat="49.75895" lon="2.16272">
        <ele>51.5</ele>
        <time>2022-05-11T12:20:54Z</time>
      </trkpt>
      <trkpt lat="49.75894" lon="2.16272">
        <ele>51.5</ele>
        <time>2022-05-11T12:20:55Z</time>
      </trkpt>
      <trkpt lat="49.75891" lon="2.16271">
        <ele>51.5</ele>
        <time>2022-05-11T12:20:57Z</time>
      </trkpt>
      <trkpt lat="49.75891" lon="2.16271">
        <ele>51.5</ele>
        <time>2022-05-11T12:20:58Z</time>
      </trkpt>
      <trkpt lat="49.7589" lon="2.1627">
        <ele>51.5</ele>
        <time>2022-05-11T12:20:59Z</time>
      </trkpt>
      <trkpt lat="49.75889" lon="2.1627">
        <ele>51.5</ele>
        <time>2022-05-11T12:21:00Z</time>
      </trkpt>
      <trkpt lat="49.75888" lon="2.16269">
        <ele>51.5</ele>
        <time>2022-05-11T12:21:01Z</time>
      </trkpt>
      <trkpt lat="49.75886" lon="2.16269">
        <ele>51.5</ele>
        <time>2022-05-11T12:21:02Z</time>
      </trkpt>
      <trkpt lat="49.75885" lon="2.16268">
        <ele>51.5</ele>
        <time>2022-05-11T12:21:03Z</time>
      </trkpt>
      <trkpt lat="49.75884" lon="2.16268">
        <ele>51.5</ele>
        <time>2022-05-11T12:21:04Z</time>
      </trkpt>
      <trkpt lat="49.75882" lon="2.16267">
        <ele>51.5</ele>
        <time>2022-05-11T12:21:05Z</time>
      </trkpt>
      <trkpt lat="49.75881" lon="2.16266">
        <ele>51.5</ele>
        <time>2022-05-11T12:21:07Z</time>
      </trkpt>
      <trkpt lat="49.7588" lon="2.16266">
        <ele>51.5</ele>
        <time>2022-05-11T12:21:08Z</time>
      </trkpt>
      <trkpt lat="49.75879" lon="2.16266">
        <ele>51.5</ele>
        <time>2022-05-11T12:21:09Z</time>
      </trkpt>
      <trkpt lat="49.75877" lon="2.16266">
        <ele>51.5</ele>
        <time>2022-05-11T12:21:10Z</time>
      </trkpt>
      <trkpt lat="49.75875" lon="2.16266">
        <ele>51.5</ele>
        <time>2022-05-11T12:21:12Z</time>
      </trkpt>
      <trkpt lat="49.75874" lon="2.16266">
        <ele>51.5</ele>
        <time>2022-05-11T12:21:13Z</time>
      </trkpt>
      <trkpt lat="49.75873" lon="2.16266">
        <ele>51.5</ele>
        <time>2022-05-11T12:21:14Z</time>
      </trkpt>
      <trkpt lat="49.75872" lon="2.16266">
        <ele>51.5</ele>
        <time>2022-05-11T12:21:15Z</time>
      </trkpt>
      <trkpt lat="49.7587" lon="2.16266">
        <ele>51.5</ele>
        <time>2022-05-11T12:21:16Z</time>
      </trkpt>
      <trkpt lat="49.75869" lon="2.16266">
        <ele>51.5</ele>
        <time>2022-05-11T12:21:18Z</time>
      </trkpt>
      <trkpt lat="49.75867" lon="2.16266">
        <ele>51.5</ele>
        <time>2022-05-11T12:21:20Z</time>
      </trkpt>
      <trkpt lat="49.75865" lon="2.16266">
        <ele>51.5</ele>
        <time>2022-05-11T12:21:21Z</time>
      </trkpt>
      <trkpt lat="49.75864" lon="2.16266">
        <ele>51.5</ele>
        <time>2022-05-11T12:21:22Z</time>
      </trkpt>
      <trkpt lat="49.75863" lon="2.16266">
        <ele>51.5</ele>
        <time>2022-05-11T12:21:23Z</time>
      </trkpt>
      <trkpt lat="49.75861" lon="2.16266">
        <ele>51.5</ele>
        <time>2022-05-11T12:21:24Z</time>
      </trkpt>
      <trkpt lat="49.7586" lon="2.16265">
        <ele>51.5</ele>
        <time>2022-05-11T12:21:25Z</time>
      </trkpt>
      <trkpt lat="49.75859" lon="2.16265">
        <ele>51.5</ele>
        <time>2022-05-11T12:21:26Z</time>
      </trkpt>
      <trkpt lat="49.75858" lon="2.16265">
        <ele>51.5</ele>
        <time>2022-05-11T12:21:28Z</time>
      </trkpt>
      <trkpt lat="49.75856" lon="2.16265">
        <ele>51.5</ele>
        <time>2022-05-11T12:21:29Z</time>
      </trkpt>
      <trkpt lat="49.75855" lon="2.16264">
        <ele>51.5</ele>
        <time>2022-05-11T12:21:30Z</time>
      </trkpt>
      <trkpt lat="49.75854" lon="2.16264">
        <ele>51.5</ele>
        <time>2022-05-11T12:21:31Z</time>
      </trkpt>
      <trkpt lat="49.75853" lon="2.16264">
        <ele>51.5</ele>
        <time>2022-05-11T12:21:32Z</time>
      </trkpt>
      <trkpt lat="49.75852" lon="2.16264">
        <ele>51.5</ele>
        <time>2022-05-11T12:21:33Z</time>
      </trkpt>
      <trkpt lat="49.7585" lon="2.16264">
        <ele>51.5</ele>
        <time>2022-05-11T12:21:34Z</time>
      </trkpt>
      <trkpt lat="49.75849" lon="2.16265">
        <ele>51.5</ele>
        <time>2022-05-11T12:21:35Z</time>
      </trkpt>
      <trkpt lat="49.75847" lon="2.16265">
        <ele>51.5</ele>
        <time>2022-05-11T12:21:36Z</time>
      </trkpt>
      <trkpt lat="49.75846" lon="2.16265">
        <ele>51.5</ele>
        <time>2022-05-11T12:21:37Z</time>
      </trkpt>
      <trkpt lat="49.75846" lon="2.16265">
        <ele>51.5</ele>
        <time>2022-05-11T12:21:39Z</time>
      </trkpt>
      <trkpt lat="49.75845" lon="2.16266">
        <ele>51.5</ele>
        <time>2022-05-11T12:21:40Z</time>
      </trkpt>
      <trkpt lat="49.75844" lon="2.16266">
        <ele>51.5</ele>
        <time>2022-05-11T12:21:41Z</time>
      </trkpt>
      <trkpt lat="49.75843" lon="2.16266">
        <ele>51.5</ele>
        <time>2022-05-11T12:21:42Z</time>
      </trkpt>
      <trkpt lat="49.75842" lon="2.16266">
        <ele>51.5</ele>
        <time>2022-05-11T12:21:43Z</time>
      </trkpt>
      <trkpt lat="49.75841" lon="2.16266">
        <ele>51.5</ele>
        <time>2022-05-11T12:21:44Z</time>
      </trkpt>
      <trkpt lat="49.7584" lon="2.16266">
        <ele>51.5</ele>
        <time>2022-05-11T12:21:45Z</time>
      </trkpt>
      <trkpt lat="49.75838" lon="2.16267">
        <ele>51.5</ele>
        <time>2022-05-11T12:21:46Z</time>
      </trkpt>
      <trkpt lat="49.75837" lon="2.16267">
        <ele>51.5</ele>
        <time>2022-05-11T12:21:48Z</time>
      </trkpt>
      <trkpt lat="49.75835" lon="2.16268">
        <ele>51.5</ele>
        <time>2022-05-11T12:21:50Z</time>
      </trkpt>
      <trkpt lat="49.75835" lon="2.16268">
        <ele>51.5</ele>
        <time>2022-05-11T12:21:51Z</time>
      </trkpt>
      <trkpt lat="49.75834" lon="2.16268">
        <ele>51.5</ele>
        <time>2022-05-11T12:21:52Z</time>
      </trkpt>
      <trkpt lat="49.75833" lon="2.16268">
        <ele>51.5</ele>
        <time>2022-05-11T12:21:53Z</time>
      </trkpt>
      <trkpt lat="49.75832" lon="2.16268">
        <ele>51.5</ele>
        <time>2022-05-11T12:21:54Z</time>
      </trkpt>
      <trkpt lat="49.7583" lon="2.16268">
        <ele>51.5</ele>
        <time>2022-05-11T12:21:55Z</time>
      </trkpt>
      <trkpt lat="49.7583" lon="2.16268">
        <ele>51.5</ele>
        <time>2022-05-11T12:21:56Z</time>
      </trkpt>
      <trkpt lat="49.75829" lon="2.16268">
        <ele>51.5</ele>
        <time>2022-05-11T12:21:58Z</time>
      </trkpt>
      <trkpt lat="49.75828" lon="2.16268">
        <ele>51.5</ele>
        <time>2022-05-11T12:21:59Z</time>
      </trkpt>
      <trkpt lat="49.75827" lon="2.16268">
        <ele>51.5</ele>
        <time>2022-05-11T12:22:00Z</time>
      </trkpt>
      <trkpt lat="49.75826" lon="2.16268">
        <ele>51.5</ele>
        <time>2022-05-11T12:22:01Z</time>
      </trkpt>
      <trkpt lat="49.75825" lon="2.16268">
        <ele>51.5</ele>
        <time>2022-05-11T12:22:02Z</time>
      </trkpt>
      <trkpt lat="49.75824" lon="2.16269">
        <ele>51.6</ele>
        <time>2022-05-11T12:22:03Z</time>
      </trkpt>
      <trkpt lat="49.75823" lon="2.16269">
        <ele>51.6</ele>
        <time>2022-05-11T12:22:04Z</time>
      </trkpt>
      <trkpt lat="49.75822" lon="2.16269">
        <ele>51.6</ele>
        <time>2022-05-11T12:22:06Z</time>
      </trkpt>
      <trkpt lat="49.7582" lon="2.16269">
        <ele>51.6</ele>
        <time>2022-05-11T12:22:07Z</time>
      </trkpt>
      <trkpt lat="49.75819" lon="2.1627">
        <ele>51.6</ele>
        <time>2022-05-11T12:22:08Z</time>
      </trkpt>
      <trkpt lat="49.75818" lon="2.16269">
        <ele>51.6</ele>
        <time>2022-05-11T12:22:09Z</time>
      </trkpt>
      <trkpt lat="49.75817" lon="2.16269">
        <ele>51.6</ele>
        <time>2022-05-11T12:22:11Z</time>
      </trkpt>
      <trkpt lat="49.75817" lon="2.16269">
        <ele>51.6</ele>
        <time>2022-05-11T12:22:12Z</time>
      </trkpt>
      <trkpt lat="49.75816" lon="2.16268">
        <ele>51.6</ele>
        <time>2022-05-11T12:22:13Z</time>
      </trkpt>
      <trkpt lat="49.75815" lon="2.16268">
        <ele>51.7</ele>
        <time>2022-05-11T12:22:14Z</time>
      </trkpt>
      <trkpt lat="49.75814" lon="2.16268">
        <ele>51.7</ele>
        <time>2022-05-11T12:22:15Z</time>
      </trkpt>
      <trkpt lat="49.75813" lon="2.16269">
        <ele>51.7</ele>
        <time>2022-05-11T12:22:16Z</time>
      </trkpt>
      <trkpt lat="49.75813" lon="2.16268">
        <ele>51.7</ele>
        <time>2022-05-11T12:22:17Z</time>
      </trkpt>
      <trkpt lat="49.75811" lon="2.16268">
        <ele>51.7</ele>
        <time>2022-05-11T12:22:19Z</time>
      </trkpt>
      <trkpt lat="49.75811" lon="2.16268">
        <ele>51.7</ele>
        <time>2022-05-11T12:22:20Z</time>
      </trkpt>
      <trkpt lat="49.75811" lon="2.16267">
        <ele>51.7</ele>
        <time>2022-05-11T12:22:21Z</time>
      </trkpt>
      <trkpt lat="49.75811" lon="2.16266">
        <ele>51.7</ele>
        <time>2022-05-11T12:22:22Z</time>
      </trkpt>
      <trkpt lat="49.75811" lon="2.16266">
        <ele>51.7</ele>
        <time>2022-05-11T12:22:23Z</time>
      </trkpt>
      <trkpt lat="49.75812" lon="2.16265">
        <ele>51.7</ele>
        <time>2022-05-11T12:22:24Z</time>
      </trkpt>
      <trkpt lat="49.75812" lon="2.16265">
        <ele>51.7</ele>
        <time>2022-05-11T12:22:25Z</time>
      </trkpt>
      <trkpt lat="49.75812" lon="2.16264">
        <ele>51.8</ele>
        <time>2022-05-11T12:22:26Z</time>
      </trkpt>
      <trkpt lat="49.75812" lon="2.16264">
        <ele>51.8</ele>
        <time>2022-05-11T12:22:27Z</time>
      </trkpt>
      <trkpt lat="49.75812" lon="2.16263">
        <ele>51.8</ele>
        <time>2022-05-11T12:22:28Z</time>
      </trkpt>
      <trkpt lat="49.75813" lon="2.16263">
        <ele>51.8</ele>
        <time>2022-05-11T12:22:29Z</time>
      </trkpt>
      <trkpt lat="49.75813" lon="2.16263">
        <ele>51.8</ele>
        <time>2022-05-11T12:22:30Z</time>
      </trkpt>
      <trkpt lat="49.75813" lon="2.16263">
        <ele>51.8</ele>
        <time>2022-05-11T12:22:31Z</time>
      </trkpt>
      <trkpt lat="49.75813" lon="2.16263">
        <ele>51.8</ele>
        <time>2022-05-11T12:22:32Z</time>
      </trkpt>
      <trkpt lat="49.75813" lon="2.16263">
        <ele>51.8</ele>
        <time>2022-05-11T12:22:33Z</time>
      </trkpt>
      <trkpt lat="49.75813" lon="2.16263">
        <ele>51.8</ele>
        <time>2022-05-11T12:22:34Z</time>
      </trkpt>
      <trkpt lat="49.75813" lon="2.16263">
        <ele>51.8</ele>
        <time>2022-05-11T12:22:35Z</time>
      </trkpt>
      <trkpt lat="49.75813" lon="2.16263">
        <ele>51.8</ele>
        <time>2022-05-11T12:22:36Z</time>
      </trkpt>
      <trkpt lat="49.75813" lon="2.16263">
        <ele>51.8</ele>
        <time>2022-05-11T12:22:37Z</time>
      </trkpt>
      <trkpt lat="49.75812" lon="2.16263">
        <ele>51.8</ele>
        <time>2022-05-11T12:22:38Z</time>
      </trkpt>
      <trkpt lat="49.75812" lon="2.16263">
        <ele>51.8</ele>
        <time>2022-05-11T12:22:39Z</time>
      </trkpt>
      <trkpt lat="49.75812" lon="2.16263">
        <ele>51.8</ele>
        <time>2022-05-11T12:22:40Z</time>
      </trkpt>
      <trkpt lat="49.75812" lon="2.16263">
        <ele>51.8</ele>
        <time>2022-05-11T12:22:41Z</time>
      </trkpt>
      <trkpt lat="49.75812" lon="2.16263">
        <ele>51.8</ele>
        <time>2022-05-11T12:22:42Z</time>
      </trkpt>
      <trkpt lat="49.75812" lon="2.16263">
        <ele>51.8</ele>
        <time>2022-05-11T12:22:43Z</time>
      </trkpt>
      <trkpt lat="49.75812" lon="2.16263">
        <ele>51.8</ele>
        <time>2022-05-11T12:22:44Z</time>
      </trkpt>
      <trkpt lat="49.75812" lon="2.16263">
        <ele>51.8</ele>
        <time>2022-05-11T12:22:45Z</time>
      </trkpt>
      <trkpt lat="49.75812" lon="2.16263">
        <ele>51.8</ele>
        <time>2022-05-11T12:22:46Z</time>
      </trkpt>
      <trkpt lat="49.75812" lon="2.16263">
        <ele>51.8</ele>
        <time>2022-05-11T12:22:47Z</time>
      </trkpt>
      <trkpt lat="49.75812" lon="2.16263">
        <ele>51.8</ele>
        <time>2022-05-11T12:22:48Z</time>
      </trkpt>
      <trkpt lat="49.75812" lon="2.16263">
        <ele>51.8</ele>
        <time>2022-05-11T12:22:49Z</time>
      </trkpt>
      <trkpt lat="49.75812" lon="2.16263">
        <ele>51.8</ele>
        <time>2022-05-11T12:22:50Z</time>
      </trkpt>
      <trkpt lat="49.75812" lon="2.16263">
        <ele>51.8</ele>
        <time>2022-05-11T12:22:51Z</time>
      </trkpt>
      <trkpt lat="49.75812" lon="2.16263">
        <ele>51.8</ele>
        <time>2022-05-11T12:22:52Z</time>
      </trkpt>
      <trkpt lat="49.75812" lon="2.16263">
        <ele>51.8</ele>
        <time>2022-05-11T12:22:53Z</time>
      </trkpt>
      <trkpt lat="49.75812" lon="2.16263">
        <ele>51.8</ele>
        <time>2022-05-11T12:22:54Z</time>
      </trkpt>
      <trkpt lat="49.75812" lon="2.16263">
        <ele>51.8</ele>
        <time>2022-05-11T12:22:55Z</time>
      </trkpt>
      <trkpt lat="49.75812" lon="2.16263">
        <ele>51.8</ele>
        <time>2022-05-11T12:22:56Z</time>
      </trkpt>
      <trkpt lat="49.75812" lon="2.16263">
        <ele>51.8</ele>
        <time>2022-05-11T12:22:57Z</time>
      </trkpt>
      <trkpt lat="49.75812" lon="2.16263">
        <ele>51.8</ele>
        <time>2022-05-11T12:22:58Z</time>
      </trkpt>
      <trkpt lat="49.75812" lon="2.16263">
        <ele>51.8</ele>
        <time>2022-05-11T12:22:59Z</time>
      </trkpt>
      <trkpt lat="49.75812" lon="2.16263">
        <ele>51.8</ele>
        <time>2022-05-11T12:23:00Z</time>
      </trkpt>
      <trkpt lat="49.75812" lon="2.16263">
        <ele>51.8</ele>
        <time>2022-05-11T12:23:01Z</time>
      </trkpt>
      <trkpt lat="49.75812" lon="2.16263">
        <ele>51.8</ele>
        <time>2022-05-11T12:23:02Z</time>
      </trkpt>
      <trkpt lat="49.75812" lon="2.16263">
        <ele>51.8</ele>
        <time>2022-05-11T12:23:03Z</time>
      </trkpt>
      <trkpt lat="49.75812" lon="2.16263">
        <ele>51.8</ele>
        <time>2022-05-11T12:23:04Z</time>
      </trkpt>
      <trkpt lat="49.75812" lon="2.16263">
        <ele>51.8</ele>
        <time>2022-05-11T12:23:05Z</time>
      </trkpt>
      <trkpt lat="49.75812" lon="2.16263">
        <ele>51.8</ele>
        <time>2022-05-11T12:23:06Z</time>
      </trkpt>
      <trkpt lat="49.75812" lon="2.16263">
        <ele>51.8</ele>
        <time>2022-05-11T12:23:07Z</time>
      </trkpt>
      <trkpt lat="49.75812" lon="2.16263">
        <ele>51.8</ele>
        <time>2022-05-11T12:23:08Z</time>
      </trkpt>
      <trkpt lat="49.75812" lon="2.16263">
        <ele>51.8</ele>
        <time>2022-05-11T12:23:09Z</time>
      </trkpt>
      <trkpt lat="49.75812" lon="2.16263">
        <ele>51.8</ele>
        <time>2022-05-11T12:23:10Z</time>
      </trkpt>
      <trkpt lat="49.75812" lon="2.16263">
        <ele>51.8</ele>
        <time>2022-05-11T12:23:11Z</time>
      </trkpt>
      <trkpt lat="49.75812" lon="2.16263">
        <ele>51.8</ele>
        <time>2022-05-11T12:23:12Z</time>
      </trkpt>
      <trkpt lat="49.75812" lon="2.16263">
        <ele>51.8</ele>
        <time>2022-05-11T12:23:13Z</time>
      </trkpt>
      <trkpt lat="49.75812" lon="2.16263">
        <ele>51.8</ele>
        <time>2022-05-11T12:23:14Z</time>
      </trkpt>
      <trkpt lat="49.75812" lon="2.16263">
        <ele>51.8</ele>
        <time>2022-05-11T12:23:15Z</time>
      </trkpt>
      <trkpt lat="49.75812" lon="2.16263">
        <ele>51.8</ele>
        <time>2022-05-11T12:23:16Z</time>
      </trkpt>
      <trkpt lat="49.75812" lon="2.16263">
        <ele>51.8</ele>
        <time>2022-05-11T12:23:17Z</time>
      </trkpt>
      <trkpt lat="49.75812" lon="2.16263">
        <ele>51.8</ele>
        <time>2022-05-11T12:23:18Z</time>
      </trkpt>
      <trkpt lat="49.75812" lon="2.16263">
        <ele>51.8</ele>
        <time>2022-05-11T12:23:19Z</time>
      </trkpt>
      <trkpt lat="49.75812" lon="2.16263">
        <ele>51.8</ele>
        <time>2022-05-11T12:23:20Z</time>
      </trkpt>
      <trkpt lat="49.75812" lon="2.16263">
        <ele>51.8</ele>
        <time>2022-05-11T12:23:21Z</time>
      </trkpt>
      <trkpt lat="49.75812" lon="2.16263">
        <ele>51.8</ele>
        <time>2022-05-11T12:23:22Z</time>
      </trkpt>
      <trkpt lat="49.75812" lon="2.16263">
        <ele>51.8</ele>
        <time>2022-05-11T12:23:23Z</time>
      </trkpt>
      <trkpt lat="49.75812" lon="2.16263">
        <ele>51.8</ele>
        <time>2022-05-11T12:23:24Z</time>
      </trkpt>
      <trkpt lat="49.75812" lon="2.16263">
        <ele>51.8</ele>
        <time>2022-05-11T12:23:25Z</time>
      </trkpt>
      <trkpt lat="49.75812" lon="2.16263">
        <ele>51.8</ele>
        <time>2022-05-11T12:23:26Z</time>
      </trkpt>
      <trkpt lat="49.75812" lon="2.16263">
        <ele>51.8</ele>
        <time>2022-05-11T12:23:27Z</time>
      </trkpt>
      <trkpt lat="49.75812" lon="2.16263">
        <ele>51.8</ele>
        <time>2022-05-11T12:23:28Z</time>
      </trkpt>
      <trkpt lat="49.75812" lon="2.16263">
        <ele>51.8</ele>
        <time>2022-05-11T12:23:29Z</time>
      </trkpt>
      <trkpt lat="49.75812" lon="2.16263">
        <ele>51.8</ele>
        <time>2022-05-11T12:23:30Z</time>
      </trkpt>
      <trkpt lat="49.75812" lon="2.16263">
        <ele>51.8</ele>
        <time>2022-05-11T12:23:31Z</time>
      </trkpt>
      <trkpt lat="49.75812" lon="2.16263">
        <ele>51.8</ele>
        <time>2022-05-11T12:23:32Z</time>
      </trkpt>
      <trkpt lat="49.75812" lon="2.16263">
        <ele>51.8</ele>
        <time>2022-05-11T12:23:33Z</time>
      </trkpt>
      <trkpt lat="49.75812" lon="2.16263">
        <ele>51.8</ele>
        <time>2022-05-11T12:23:34Z</time>
      </trkpt>
      <trkpt lat="49.75812" lon="2.16263">
        <ele>51.8</ele>
        <time>2022-05-11T12:23:35Z</time>
      </trkpt>
      <trkpt lat="49.75812" lon="2.16263">
        <ele>51.8</ele>
        <time>2022-05-11T12:23:36Z</time>
      </trkpt>
      <trkpt lat="49.75812" lon="2.16263">
        <ele>51.8</ele>
        <time>2022-05-11T12:23:37Z</time>
      </trkpt>
      <trkpt lat="49.75812" lon="2.16263">
        <ele>51.8</ele>
        <time>2022-05-11T12:23:38Z</time>
      </trkpt>
      <trkpt lat="49.75812" lon="2.16263">
        <ele>51.8</ele>
        <time>2022-05-11T12:23:39Z</time>
      </trkpt>
      <trkpt lat="49.75812" lon="2.16263">
        <ele>51.8</ele>
        <time>2022-05-11T12:23:40Z</time>
      </trkpt>
      <trkpt lat="49.75812" lon="2.16263">
        <ele>51.8</ele>
        <time>2022-05-11T12:23:41Z</time>
      </trkpt>
      <trkpt lat="49.75812" lon="2.16263">
        <ele>51.8</ele>
        <time>2022-05-11T12:23:42Z</time>
      </trkpt>
      <trkpt lat="49.75812" lon="2.16263">
        <ele>51.8</ele>
        <time>2022-05-11T12:23:43Z</time>
      </trkpt>
      <trkpt lat="49.75812" lon="2.16263">
        <ele>51.8</ele>
        <time>2022-05-11T12:23:44Z</time>
      </trkpt>
      <trkpt lat="49.75812" lon="2.16263">
        <ele>51.8</ele>
        <time>2022-05-11T12:23:45Z</time>
      </trkpt>
      <trkpt lat="49.75812" lon="2.16263">
        <ele>51.8</ele>
        <time>2022-05-11T12:23:46Z</time>
      </trkpt>
      <trkpt lat="49.75812" lon="2.16263">
        <ele>51.8</ele>
        <time>2022-05-11T12:23:47Z</time>
      </trkpt>
      <trkpt lat="49.75812" lon="2.16263">
        <ele>51.8</ele>
        <time>2022-05-11T12:23:48Z</time>
      </trkpt>
      <trkpt lat="49.75812" lon="2.16263">
        <ele>51.8</ele>
        <time>2022-05-11T12:23:49Z</time>
      </trkpt>
      <trkpt lat="49.75812" lon="2.16263">
        <ele>51.8</ele>
        <time>2022-05-11T12:23:50Z</time>
      </trkpt>
      <trkpt lat="49.75812" lon="2.16263">
        <ele>51.8</ele>
        <time>2022-05-11T12:23:51Z</time>
      </trkpt>
      <trkpt lat="49.75812" lon="2.16263">
        <ele>51.8</ele>
        <time>2022-05-11T12:23:52Z</time>
      </trkpt>
      <trkpt lat="49.75812" lon="2.16263">
        <ele>51.8</ele>
        <time>2022-05-11T12:23:53Z</time>
      </trkpt>
      <trkpt lat="49.75812" lon="2.16263">
        <ele>51.8</ele>
        <time>2022-05-11T12:23:54Z</time>
      </trkpt>
      <trkpt lat="49.75812" lon="2.16263">
        <ele>51.8</ele>
        <time>2022-05-11T12:23:55Z</time>
      </trkpt>
      <trkpt lat="49.75812" lon="2.16263">
        <ele>51.8</ele>
        <time>2022-05-11T12:23:56Z</time>
      </trkpt>
      <trkpt lat="49.75812" lon="2.16263">
        <ele>51.8</ele>
        <time>2022-05-11T12:23:57Z</time>
      </trkpt>
      <trkpt lat="49.75812" lon="2.16263">
        <ele>51.8</ele>
        <time>2022-05-11T12:23:58Z</time>
      </trkpt>
      <trkpt lat="49.75812" lon="2.16263">
        <ele>51.8</ele>
        <time>2022-05-11T12:23:59Z</time>
      </trkpt>
      <trkpt lat="49.75812" lon="2.16263">
        <ele>51.8</ele>
        <time>2022-05-11T12:24:00Z</time>
      </trkpt>
      <trkpt lat="49.75812" lon="2.16263">
        <ele>51.8</ele>
        <time>2022-05-11T12:24:01Z</time>
      </trkpt>
      <trkpt lat="49.75812" lon="2.16263">
        <ele>51.8</ele>
        <time>2022-05-11T12:24:02Z</time>
      </trkpt>
      <trkpt lat="49.75812" lon="2.16263">
        <ele>51.8</ele>
        <time>2022-05-11T12:24:03Z</time>
      </trkpt>
      <trkpt lat="49.75812" lon="2.16263">
        <ele>51.8</ele>
        <time>2022-05-11T12:24:04Z</time>
      </trkpt>
      <trkpt lat="49.75812" lon="2.16263">
        <ele>51.8</ele>
        <time>2022-05-11T12:24:05Z</time>
      </trkpt>
      <trkpt lat="49.75812" lon="2.16263">
        <ele>51.8</ele>
        <time>2022-05-11T12:24:06Z</time>
      </trkpt>
      <trkpt lat="49.75812" lon="2.16263">
        <ele>51.8</ele>
        <time>2022-05-11T12:24:07Z</time>
      </trkpt>
      <trkpt lat="49.75812" lon="2.16263">
        <ele>51.8</ele>
        <time>2022-05-11T12:24:08Z</time>
      </trkpt>
      <trkpt lat="49.75812" lon="2.16263">
        <ele>51.8</ele>
        <time>2022-05-11T12:24:09Z</time>
      </trkpt>
      <trkpt lat="49.75812" lon="2.16263">
        <ele>51.8</ele>
        <time>2022-05-11T12:24:10Z</time>
      </trkpt>
      <trkpt lat="49.75812" lon="2.16263">
        <ele>51.8</ele>
        <time>2022-05-11T12:24:11Z</time>
      </trkpt>
      <trkpt lat="49.75812" lon="2.16263">
        <ele>51.8</ele>
        <time>2022-05-11T12:24:12Z</time>
      </trkpt>
      <trkpt lat="49.75812" lon="2.16263">
        <ele>51.8</ele>
        <time>2022-05-11T12:24:13Z</time>
      </trkpt>
      <trkpt lat="49.75812" lon="2.16263">
        <ele>51.8</ele>
        <time>2022-05-11T12:24:14Z</time>
      </trkpt>
      <trkpt lat="49.75812" lon="2.16263">
        <ele>51.8</ele>
        <time>2022-05-11T12:24:15Z</time>
      </trkpt>
      <trkpt lat="49.75812" lon="2.16263">
        <ele>51.8</ele>
        <time>2022-05-11T12:24:16Z</time>
      </trkpt>
      <trkpt lat="49.75812" lon="2.16263">
        <ele>51.8</ele>
        <time>2022-05-11T12:24:17Z</time>
      </trkpt>
      <trkpt lat="49.75812" lon="2.16263">
        <ele>51.8</ele>
        <time>2022-05-11T12:24:18Z</time>
      </trkpt>
      <trkpt lat="49.75812" lon="2.16263">
        <ele>51.8</ele>
        <time>2022-05-11T12:24:19Z</time>
      </trkpt>
      <trkpt lat="49.75812" lon="2.16263">
        <ele>51.8</ele>
        <time>2022-05-11T12:24:20Z</time>
      </trkpt>
      <trkpt lat="49.75812" lon="2.16263">
        <ele>51.8</ele>
        <time>2022-05-11T12:24:21Z</time>
      </trkpt>
      <trkpt lat="49.75812" lon="2.16263">
        <ele>51.8</ele>
        <time>2022-05-11T12:24:22Z</time>
      </trkpt>
      <trkpt lat="49.75812" lon="2.16263">
        <ele>51.8</ele>
        <time>2022-05-11T12:24:23Z</time>
      </trkpt>
      <trkpt lat="49.75812" lon="2.16263">
        <ele>51.8</ele>
        <time>2022-05-11T12:24:24Z</time>
      </trkpt>
      <trkpt lat="49.75812" lon="2.16263">
        <ele>51.8</ele>
        <time>2022-05-11T12:24:25Z</time>
      </trkpt>
      <trkpt lat="49.75812" lon="2.16263">
        <ele>51.8</ele>
        <time>2022-05-11T12:24:26Z</time>
      </trkpt>
      <trkpt lat="49.75812" lon="2.16263">
        <ele>51.8</ele>
        <time>2022-05-11T12:24:27Z</time>
      </trkpt>
      <trkpt lat="49.75812" lon="2.16263">
        <ele>51.8</ele>
        <time>2022-05-11T12:24:28Z</time>
      </trkpt>
      <trkpt lat="49.75812" lon="2.16263">
        <ele>51.8</ele>
        <time>2022-05-11T12:24:29Z</time>
      </trkpt>
      <trkpt lat="49.75812" lon="2.16263">
        <ele>51.8</ele>
        <time>2022-05-11T12:24:30Z</time>
      </trkpt>
      <trkpt lat="49.75812" lon="2.16263">
        <ele>51.8</ele>
        <time>2022-05-11T12:24:31Z</time>
      </trkpt>
      <trkpt lat="49.75812" lon="2.16263">
        <ele>51.8</ele>
        <time>2022-05-11T12:24:32Z</time>
      </trkpt>
      <trkpt lat="49.75812" lon="2.16263">
        <ele>51.8</ele>
        <time>2022-05-11T12:24:33Z</time>
      </trkpt>
      <trkpt lat="49.75812" lon="2.16263">
        <ele>51.8</ele>
        <time>2022-05-11T12:24:34Z</time>
      </trkpt>
      <trkpt lat="49.75812" lon="2.16263">
        <ele>51.8</ele>
        <time>2022-05-11T12:24:35Z</time>
      </trkpt>
      <trkpt lat="49.75812" lon="2.16263">
        <ele>51.8</ele>
        <time>2022-05-11T12:24:36Z</time>
      </trkpt>
      <trkpt lat="49.75812" lon="2.16263">
        <ele>51.8</ele>
        <time>2022-05-11T12:24:37Z</time>
      </trkpt>
      <trkpt lat="49.75812" lon="2.16263">
        <ele>51.8</ele>
        <time>2022-05-11T12:24:38Z</time>
      </trkpt>
      <trkpt lat="49.75812" lon="2.16263">
        <ele>51.8</ele>
        <time>2022-05-11T12:24:39Z</time>
      </trkpt>
      <trkpt lat="49.75812" lon="2.16263">
        <ele>51.8</ele>
        <time>2022-05-11T12:24:40Z</time>
      </trkpt>
      <trkpt lat="49.75812" lon="2.16263">
        <ele>51.8</ele>
        <time>2022-05-11T12:24:41Z</time>
      </trkpt>
      <trkpt lat="49.75812" lon="2.16263">
        <ele>51.8</ele>
        <time>2022-05-11T12:24:42Z</time>
      </trkpt>
      <trkpt lat="49.75812" lon="2.16263">
        <ele>51.8</ele>
        <time>2022-05-11T12:24:43Z</time>
      </trkpt>
      <trkpt lat="49.75812" lon="2.16263">
        <ele>51.8</ele>
        <time>2022-05-11T12:24:44Z</time>
      </trkpt>
      <trkpt lat="49.75812" lon="2.16263">
        <ele>51.8</ele>
        <time>2022-05-11T12:24:45Z</time>
      </trkpt>
      <trkpt lat="49.75812" lon="2.16263">
        <ele>51.8</ele>
        <time>2022-05-11T12:24:46Z</time>
      </trkpt>
      <trkpt lat="49.75812" lon="2.16263">
        <ele>51.8</ele>
        <time>2022-05-11T12:24:47Z</time>
      </trkpt>
      <trkpt lat="49.75812" lon="2.16263">
        <ele>51.8</ele>
        <time>2022-05-11T12:24:48Z</time>
      </trkpt>
      <trkpt lat="49.75812" lon="2.16263">
        <ele>51.8</ele>
        <time>2022-05-11T12:24:49Z</time>
      </trkpt>
      <trkpt lat="49.75812" lon="2.16263">
        <ele>51.8</ele>
        <time>2022-05-11T12:24:50Z</time>
      </trkpt>
      <trkpt lat="49.75812" lon="2.16263">
        <ele>51.8</ele>
        <time>2022-05-11T12:24:51Z</time>
      </trkpt>
      <trkpt lat="49.75812" lon="2.16262">
        <ele>51.8</ele>
        <time>2022-05-11T12:24:52Z</time>
      </trkpt>
      <trkpt lat="49.75812" lon="2.16262">
        <ele>51.8</ele>
        <time>2022-05-11T12:24:53Z</time>
      </trkpt>
      <trkpt lat="49.75812" lon="2.16262">
        <ele>51.8</ele>
        <time>2022-05-11T12:24:54Z</time>
      </trkpt>
      <trkpt lat="49.75812" lon="2.16262">
        <ele>51.8</ele>
        <time>2022-05-11T12:24:55Z</time>
      </trkpt>
      <trkpt lat="49.75812" lon="2.16263">
        <ele>51.8</ele>
        <time>2022-05-11T12:24:56Z</time>
      </trkpt>
      <trkpt lat="49.75812" lon="2.16263">
        <ele>51.8</ele>
        <time>2022-05-11T12:24:57Z</time>
      </trkpt>
      <trkpt lat="49.75812" lon="2.16263">
        <ele>51.8</ele>
        <time>2022-05-11T12:24:58Z</time>
      </trkpt>
      <trkpt lat="49.75812" lon="2.16263">
        <ele>51.8</ele>
        <time>2022-05-11T12:24:59Z</time>
      </trkpt>
      <trkpt lat="49.75812" lon="2.16263">
        <ele>51.8</ele>
        <time>2022-05-11T12:25:00Z</time>
      </trkpt>
      <trkpt lat="49.75812" lon="2.16263">
        <ele>51.8</ele>
        <time>2022-05-11T12:25:01Z</time>
      </trkpt>
      <trkpt lat="49.75812" lon="2.16263">
        <ele>51.8</ele>
        <time>2022-05-11T12:25:02Z</time>
      </trkpt>
      <trkpt lat="49.75812" lon="2.16263">
        <ele>51.8</ele>
        <time>2022-05-11T12:25:04Z</time>
      </trkpt>
      <trkpt lat="49.75812" lon="2.16262">
        <ele>51.8</ele>
        <time>2022-05-11T12:25:05Z</time>
      </trkpt>
      <trkpt lat="49.75812" lon="2.16262">
        <ele>51.8</ele>
        <time>2022-05-11T12:25:06Z</time>
      </trkpt>
      <trkpt lat="49.75811" lon="2.16262">
        <ele>51.8</ele>
        <time>2022-05-11T12:25:07Z</time>
      </trkpt>
      <trkpt lat="49.75811" lon="2.16261">
        <ele>51.8</ele>
        <time>2022-05-11T12:25:09Z</time>
      </trkpt>
      <trkpt lat="49.7581" lon="2.16261">
        <ele>51.8</ele>
        <time>2022-05-11T12:25:10Z</time>
      </trkpt>
      <trkpt lat="49.7581" lon="2.16261">
        <ele>51.8</ele>
        <time>2022-05-11T12:25:11Z</time>
      </trkpt>
      <trkpt lat="49.75809" lon="2.16259">
        <ele>51.9</ele>
        <time>2022-05-11T12:25:12Z</time>
      </trkpt>
      <trkpt lat="49.75807" lon="2.16258">
        <ele>51.9</ele>
        <time>2022-05-11T12:25:13Z</time>
      </trkpt>
      <trkpt lat="49.75806" lon="2.16254">
        <ele>51.9</ele>
        <time>2022-05-11T12:25:14Z</time>
      </trkpt>
      <trkpt lat="49.75805" lon="2.16252">
        <ele>51.9</ele>
        <time>2022-05-11T12:25:15Z</time>
      </trkpt>
      <trkpt lat="49.75805" lon="2.16249">
        <ele>51.9</ele>
        <time>2022-05-11T12:25:16Z</time>
      </trkpt>
      <trkpt lat="49.75805" lon="2.16248">
        <ele>51.9</ele>
        <time>2022-05-11T12:25:18Z</time>
      </trkpt>
      <trkpt lat="49.75805" lon="2.16246">
        <ele>51.9</ele>
        <time>2022-05-11T12:25:19Z</time>
      </trkpt>
      <trkpt lat="49.75805" lon="2.16243">
        <ele>51.9</ele>
        <time>2022-05-11T12:25:20Z</time>
      </trkpt>
      <trkpt lat="49.75805" lon="2.16242">
        <ele>51.9</ele>
        <time>2022-05-11T12:25:21Z</time>
      </trkpt>
      <trkpt lat="49.75806" lon="2.16241">
        <ele>51.9</ele>
        <time>2022-05-11T12:25:22Z</time>
      </trkpt>
      <trkpt lat="49.75806" lon="2.16237">
        <ele>51.9</ele>
        <time>2022-05-11T12:25:24Z</time>
      </trkpt>
      <trkpt lat="49.75807" lon="2.16236">
        <ele>51.8</ele>
        <time>2022-05-11T12:25:25Z</time>
      </trkpt>
      <trkpt lat="49.75807" lon="2.16233">
        <ele>51.8</ele>
        <time>2022-05-11T12:25:26Z</time>
      </trkpt>
      <trkpt lat="49.75807" lon="2.16232">
        <ele>51.8</ele>
        <time>2022-05-11T12:25:27Z</time>
      </trkpt>
      <trkpt lat="49.75808" lon="2.16227">
        <ele>51.8</ele>
        <time>2022-05-11T12:25:28Z</time>
      </trkpt>
      <trkpt lat="49.75809" lon="2.16225">
        <ele>51.8</ele>
        <time>2022-05-11T12:25:29Z</time>
      </trkpt>
      <trkpt lat="49.7581" lon="2.16222">
        <ele>51.8</ele>
        <time>2022-05-11T12:25:31Z</time>
      </trkpt>
      <trkpt lat="49.7581" lon="2.16221">
        <ele>51.8</ele>
        <time>2022-05-11T12:25:32Z</time>
      </trkpt>
      <trkpt lat="49.75811" lon="2.1622">
        <ele>51.8</ele>
        <time>2022-05-11T12:25:33Z</time>
      </trkpt>
      <trkpt lat="49.75812" lon="2.16217">
        <ele>51.8</ele>
        <time>2022-05-11T12:25:34Z</time>
      </trkpt>
      <trkpt lat="49.75812" lon="2.16216">
        <ele>51.8</ele>
        <time>2022-05-11T12:25:35Z</time>
      </trkpt>
      <trkpt lat="49.75812" lon="2.16215">
        <ele>51.8</ele>
        <time>2022-05-11T12:25:36Z</time>
      </trkpt>
      <trkpt lat="49.75814" lon="2.16211">
        <ele>51.8</ele>
        <time>2022-05-11T12:25:38Z</time>
      </trkpt>
      <trkpt lat="49.75814" lon="2.1621">
        <ele>51.8</ele>
        <time>2022-05-11T12:25:39Z</time>
      </trkpt>
      <trkpt lat="49.75814" lon="2.16208">
        <ele>51.8</ele>
        <time>2022-05-11T12:25:40Z</time>
      </trkpt>
      <trkpt lat="49.75814" lon="2.16206">
        <ele>51.8</ele>
        <time>2022-05-11T12:25:41Z</time>
      </trkpt>
      <trkpt lat="49.75814" lon="2.16204">
        <ele>51.8</ele>
        <time>2022-05-11T12:25:42Z</time>
      </trkpt>
      <trkpt lat="49.75814" lon="2.16201">
        <ele>51.8</ele>
        <time>2022-05-11T12:25:43Z</time>
      </trkpt>
      <trkpt lat="49.75813" lon="2.162">
        <ele>51.9</ele>
        <time>2022-05-11T12:25:44Z</time>
      </trkpt>
      <trkpt lat="49.75813" lon="2.16199">
        <ele>51.9</ele>
        <time>2022-05-11T12:25:45Z</time>
      </trkpt>
      <trkpt lat="49.75812" lon="2.16197">
        <ele>51.9</ele>
        <time>2022-05-11T12:25:47Z</time>
      </trkpt>
      <trkpt lat="49.75811" lon="2.16196">
        <ele>51.9</ele>
        <time>2022-05-11T12:25:48Z</time>
      </trkpt>
      <trkpt lat="49.7581" lon="2.16195">
        <ele>52</ele>
        <time>2022-05-11T12:25:49Z</time>
      </trkpt>
      <trkpt lat="49.75809" lon="2.16194">
        <ele>52</ele>
        <time>2022-05-11T12:25:50Z</time>
      </trkpt>
      <trkpt lat="49.75808" lon="2.16193">
        <ele>52</ele>
        <time>2022-05-11T12:25:51Z</time>
      </trkpt>
      <trkpt lat="49.75807" lon="2.16192">
        <ele>52</ele>
        <time>2022-05-11T12:25:52Z</time>
      </trkpt>
      <trkpt lat="49.75806" lon="2.16191">
        <ele>52</ele>
        <time>2022-05-11T12:25:53Z</time>
      </trkpt>
      <trkpt lat="49.75805" lon="2.1619">
        <ele>52</ele>
        <time>2022-05-11T12:25:54Z</time>
      </trkpt>
      <trkpt lat="49.75804" lon="2.1619">
        <ele>52</ele>
        <time>2022-05-11T12:25:55Z</time>
      </trkpt>
      <trkpt lat="49.75803" lon="2.1619">
        <ele>52</ele>
        <time>2022-05-11T12:25:56Z</time>
      </trkpt>
      <trkpt lat="49.75802" lon="2.16189">
        <ele>52</ele>
        <time>2022-05-11T12:25:58Z</time>
      </trkpt>
      <trkpt lat="49.75801" lon="2.16188">
        <ele>52</ele>
        <time>2022-05-11T12:25:59Z</time>
      </trkpt>
      <trkpt lat="49.758" lon="2.16188">
        <ele>52</ele>
        <time>2022-05-11T12:26:00Z</time>
      </trkpt>
      <trkpt lat="49.75799" lon="2.16188">
        <ele>52.1</ele>
        <time>2022-05-11T12:26:01Z</time>
      </trkpt>
      <trkpt lat="49.75798" lon="2.16188">
        <ele>52.1</ele>
        <time>2022-05-11T12:26:02Z</time>
      </trkpt>
      <trkpt lat="49.75796" lon="2.16187">
        <ele>52.1</ele>
        <time>2022-05-11T12:26:03Z</time>
      </trkpt>
      <trkpt lat="49.75795" lon="2.16186">
        <ele>52.1</ele>
        <time>2022-05-11T12:26:04Z</time>
      </trkpt>
      <trkpt lat="49.75793" lon="2.16185">
        <ele>52.1</ele>
        <time>2022-05-11T12:26:06Z</time>
      </trkpt>
      <trkpt lat="49.75792" lon="2.16184">
        <ele>52.1</ele>
        <time>2022-05-11T12:26:07Z</time>
      </trkpt>
      <trkpt lat="49.75791" lon="2.16184">
        <ele>52.1</ele>
        <time>2022-05-11T12:26:08Z</time>
      </trkpt>
      <trkpt lat="49.75789" lon="2.16183">
        <ele>52.1</ele>
        <time>2022-05-11T12:26:09Z</time>
      </trkpt>
      <trkpt lat="49.75788" lon="2.16183">
        <ele>52.1</ele>
        <time>2022-05-11T12:26:10Z</time>
      </trkpt>
      <trkpt lat="49.75786" lon="2.16183">
        <ele>52.2</ele>
        <time>2022-05-11T12:26:11Z</time>
      </trkpt>
      <trkpt lat="49.75784" lon="2.16182">
        <ele>52.2</ele>
        <time>2022-05-11T12:26:13Z</time>
      </trkpt>
      <trkpt lat="49.75782" lon="2.16183">
        <ele>52.2</ele>
        <time>2022-05-11T12:26:14Z</time>
      </trkpt>
      <trkpt lat="49.75782" lon="2.16183">
        <ele>52.2</ele>
        <time>2022-05-11T12:26:15Z</time>
      </trkpt>
      <trkpt lat="49.75781" lon="2.16184">
        <ele>52.2</ele>
        <time>2022-05-11T12:26:16Z</time>
      </trkpt>
      <trkpt lat="49.75779" lon="2.16184">
        <ele>52.2</ele>
        <time>2022-05-11T12:26:17Z</time>
      </trkpt>
      <trkpt lat="49.75778" lon="2.16185">
        <ele>52.2</ele>
        <time>2022-05-11T12:26:18Z</time>
      </trkpt>
      <trkpt lat="49.75778" lon="2.16185">
        <ele>52.2</ele>
        <time>2022-05-11T12:26:19Z</time>
      </trkpt>
      <trkpt lat="49.75776" lon="2.16186">
        <ele>52.2</ele>
        <time>2022-05-11T12:26:20Z</time>
      </trkpt>
      <trkpt lat="49.75775" lon="2.16186">
        <ele>52.2</ele>
        <time>2022-05-11T12:26:21Z</time>
      </trkpt>
      <trkpt lat="49.75773" lon="2.16188">
        <ele>52.2</ele>
        <time>2022-05-11T12:26:23Z</time>
      </trkpt>
      <trkpt lat="49.75772" lon="2.16188">
        <ele>52.2</ele>
        <time>2022-05-11T12:26:24Z</time>
      </trkpt>
      <trkpt lat="49.75771" lon="2.16188">
        <ele>52.2</ele>
        <time>2022-05-11T12:26:25Z</time>
      </trkpt>
      <trkpt lat="49.7577" lon="2.16189">
        <ele>52.2</ele>
        <time>2022-05-11T12:26:26Z</time>
      </trkpt>
      <trkpt lat="49.75769" lon="2.16189">
        <ele>52.2</ele>
        <time>2022-05-11T12:26:27Z</time>
      </trkpt>
      <trkpt lat="49.75767" lon="2.1619">
        <ele>52.2</ele>
        <time>2022-05-11T12:26:28Z</time>
      </trkpt>
      <trkpt lat="49.75766" lon="2.16191">
        <ele>52.2</ele>
        <time>2022-05-11T12:26:29Z</time>
      </trkpt>
      <trkpt lat="49.75764" lon="2.16192">
        <ele>52.2</ele>
        <time>2022-05-11T12:26:30Z</time>
      </trkpt>
      <trkpt lat="49.75763" lon="2.16193">
        <ele>52.2</ele>
        <time>2022-05-11T12:26:31Z</time>
      </trkpt>
      <trkpt lat="49.7576" lon="2.16194">
        <ele>52.3</ele>
        <time>2022-05-11T12:26:33Z</time>
      </trkpt>
      <trkpt lat="49.75759" lon="2.16194">
        <ele>52.3</ele>
        <time>2022-05-11T12:26:34Z</time>
      </trkpt>
      <trkpt lat="49.75757" lon="2.16195">
        <ele>52.3</ele>
        <time>2022-05-11T12:26:35Z</time>
      </trkpt>
      <trkpt lat="49.75756" lon="2.16196">
        <ele>52.3</ele>
        <time>2022-05-11T12:26:37Z</time>
      </trkpt>
      <trkpt lat="49.75754" lon="2.16196">
        <ele>52.3</ele>
        <time>2022-05-11T12:26:39Z</time>
      </trkpt>
      <trkpt lat="49.75753" lon="2.16197">
        <ele>52.3</ele>
        <time>2022-05-11T12:26:40Z</time>
      </trkpt>
      <trkpt lat="49.75752" lon="2.16197">
        <ele>52.3</ele>
        <time>2022-05-11T12:26:41Z</time>
      </trkpt>
      <trkpt lat="49.75751" lon="2.16196">
        <ele>52.3</ele>
        <time>2022-05-11T12:26:42Z</time>
      </trkpt>
      <trkpt lat="49.7575" lon="2.16194">
        <ele>52.3</ele>
        <time>2022-05-11T12:26:43Z</time>
      </trkpt>
      <trkpt lat="49.7575" lon="2.16192">
        <ele>52.3</ele>
        <time>2022-05-11T12:26:44Z</time>
      </trkpt>
      <trkpt lat="49.75748" lon="2.16191">
        <ele>52.4</ele>
        <time>2022-05-11T12:26:45Z</time>
      </trkpt>
      <trkpt lat="49.75745" lon="2.1619">
        <ele>52.4</ele>
        <time>2022-05-11T12:26:47Z</time>
      </trkpt>
      <trkpt lat="49.75745" lon="2.1619">
        <ele>52.4</ele>
        <time>2022-05-11T12:26:48Z</time>
      </trkpt>
      <trkpt lat="49.75744" lon="2.16189">
        <ele>52.4</ele>
        <time>2022-05-11T12:26:49Z</time>
      </trkpt>
      <trkpt lat="49.75742" lon="2.16187">
        <ele>52.4</ele>
        <time>2022-05-11T12:26:50Z</time>
      </trkpt>
      <trkpt lat="49.75741" lon="2.16186">
        <ele>52.4</ele>
        <time>2022-05-11T12:26:51Z</time>
      </trkpt>
      <trkpt lat="49.7574" lon="2.16186">
        <ele>52.4</ele>
        <time>2022-05-11T12:26:52Z</time>
      </trkpt>
      <trkpt lat="49.75738" lon="2.16182">
        <ele>52.4</ele>
        <time>2022-05-11T12:26:53Z</time>
      </trkpt>
      <trkpt lat="49.75738" lon="2.16181">
        <ele>52.5</ele>
        <time>2022-05-11T12:26:55Z</time>
      </trkpt>
      <trkpt lat="49.75737" lon="2.16179">
        <ele>52.5</ele>
        <time>2022-05-11T12:26:56Z</time>
      </trkpt>
      <trkpt lat="49.75736" lon="2.16177">
        <ele>52.5</ele>
        <time>2022-05-11T12:26:57Z</time>
      </trkpt>
      <trkpt lat="49.75736" lon="2.16175">
        <ele>52.5</ele>
        <time>2022-05-11T12:26:58Z</time>
      </trkpt>
      <trkpt lat="49.75736" lon="2.16173">
        <ele>52.5</ele>
        <time>2022-05-11T12:26:59Z</time>
      </trkpt>
      <trkpt lat="49.75735" lon="2.16172">
        <ele>52.5</ele>
        <time>2022-05-11T12:27:00Z</time>
      </trkpt>
      <trkpt lat="49.75734" lon="2.1617">
        <ele>52.5</ele>
        <time>2022-05-11T12:27:01Z</time>
      </trkpt>
      <trkpt lat="49.75734" lon="2.16169">
        <ele>52.5</ele>
        <time>2022-05-11T12:27:02Z</time>
      </trkpt>
      <trkpt lat="49.75732" lon="2.16167">
        <ele>52.5</ele>
        <time>2022-05-11T12:27:04Z</time>
      </trkpt>
      <trkpt lat="49.75732" lon="2.16165">
        <ele>52.5</ele>
        <time>2022-05-11T12:27:05Z</time>
      </trkpt>
      <trkpt lat="49.7573" lon="2.16163">
        <ele>52.6</ele>
        <time>2022-05-11T12:27:06Z</time>
      </trkpt>
      <trkpt lat="49.7573" lon="2.16162">
        <ele>52.6</ele>
        <time>2022-05-11T12:27:07Z</time>
      </trkpt>
      <trkpt lat="49.75729" lon="2.16161">
        <ele>52.6</ele>
        <time>2022-05-11T12:27:08Z</time>
      </trkpt>
      <trkpt lat="49.75729" lon="2.16159">
        <ele>52.6</ele>
        <time>2022-05-11T12:27:09Z</time>
      </trkpt>
      <trkpt lat="49.75728" lon="2.16158">
        <ele>52.6</ele>
        <time>2022-05-11T12:27:10Z</time>
      </trkpt>
      <trkpt lat="49.75728" lon="2.16156">
        <ele>52.6</ele>
        <time>2022-05-11T12:27:11Z</time>
      </trkpt>
      <trkpt lat="49.75729" lon="2.16155">
        <ele>52.6</ele>
        <time>2022-05-11T12:27:13Z</time>
      </trkpt>
      <trkpt lat="49.75729" lon="2.16154">
        <ele>52.6</ele>
        <time>2022-05-11T12:27:14Z</time>
      </trkpt>
      <trkpt lat="49.75729" lon="2.16153">
        <ele>52.6</ele>
        <time>2022-05-11T12:27:15Z</time>
      </trkpt>
      <trkpt lat="49.75729" lon="2.16151">
        <ele>52.6</ele>
        <time>2022-05-11T12:27:16Z</time>
      </trkpt>
      <trkpt lat="49.75728" lon="2.1615">
        <ele>52.6</ele>
        <time>2022-05-11T12:27:17Z</time>
      </trkpt>
      <trkpt lat="49.75728" lon="2.16148">
        <ele>52.7</ele>
        <time>2022-05-11T12:27:18Z</time>
      </trkpt>
      <trkpt lat="49.75727" lon="2.16147">
        <ele>52.7</ele>
        <time>2022-05-11T12:27:19Z</time>
      </trkpt>
      <trkpt lat="49.75727" lon="2.16145">
        <ele>52.7</ele>
        <time>2022-05-11T12:27:20Z</time>
      </trkpt>
      <trkpt lat="49.75727" lon="2.16144">
        <ele>52.7</ele>
        <time>2022-05-11T12:27:21Z</time>
      </trkpt>
      <trkpt lat="49.75726" lon="2.16143">
        <ele>52.7</ele>
        <time>2022-05-11T12:27:22Z</time>
      </trkpt>
      <trkpt lat="49.75725" lon="2.1614">
        <ele>52.7</ele>
        <time>2022-05-11T12:27:23Z</time>
      </trkpt>
      <trkpt lat="49.75725" lon="2.16139">
        <ele>52.7</ele>
        <time>2022-05-11T12:27:24Z</time>
      </trkpt>
      <trkpt lat="49.75724" lon="2.16138">
        <ele>52.7</ele>
        <time>2022-05-11T12:27:26Z</time>
      </trkpt>
      <trkpt lat="49.75723" lon="2.16136">
        <ele>52.7</ele>
        <time>2022-05-11T12:27:27Z</time>
      </trkpt>
      <trkpt lat="49.75723" lon="2.16135">
        <ele>52.7</ele>
        <time>2022-05-11T12:27:28Z</time>
      </trkpt>
      <trkpt lat="49.75722" lon="2.16134">
        <ele>52.7</ele>
        <time>2022-05-11T12:27:29Z</time>
      </trkpt>
      <trkpt lat="49.75722" lon="2.16133">
        <ele>52.7</ele>
        <time>2022-05-11T12:27:30Z</time>
      </trkpt>
      <trkpt lat="49.75722" lon="2.16132">
        <ele>52.7</ele>
        <time>2022-05-11T12:27:31Z</time>
      </trkpt>
      <trkpt lat="49.75721" lon="2.1613">
        <ele>52.7</ele>
        <time>2022-05-11T12:27:33Z</time>
      </trkpt>
      <trkpt lat="49.75721" lon="2.16129">
        <ele>52.7</ele>
        <time>2022-05-11T12:27:34Z</time>
      </trkpt>
      <trkpt lat="49.75721" lon="2.16128">
        <ele>52.7</ele>
        <time>2022-05-11T12:27:35Z</time>
      </trkpt>
      <trkpt lat="49.75721" lon="2.16127">
        <ele>52.7</ele>
        <time>2022-05-11T12:27:36Z</time>
      </trkpt>
      <trkpt lat="49.7572" lon="2.16125">
        <ele>52.7</ele>
        <time>2022-05-11T12:27:37Z</time>
      </trkpt>
      <trkpt lat="49.75719" lon="2.16123">
        <ele>52.7</ele>
        <time>2022-05-11T12:27:39Z</time>
      </trkpt>
      <trkpt lat="49.75719" lon="2.16123">
        <ele>52.7</ele>
        <time>2022-05-11T12:27:40Z</time>
      </trkpt>
      <trkpt lat="49.75718" lon="2.16123">
        <ele>52.7</ele>
        <time>2022-05-11T12:27:41Z</time>
      </trkpt>
      <trkpt lat="49.75718" lon="2.16123">
        <ele>52.7</ele>
        <time>2022-05-11T12:27:42Z</time>
      </trkpt>
      <trkpt lat="49.75717" lon="2.16124">
        <ele>52.7</ele>
        <time>2022-05-11T12:27:43Z</time>
      </trkpt>
      <trkpt lat="49.75718" lon="2.16124">
        <ele>52.7</ele>
        <time>2022-05-11T12:27:44Z</time>
      </trkpt>
      <trkpt lat="49.75718" lon="2.16124">
        <ele>52.7</ele>
        <time>2022-05-11T12:27:45Z</time>
      </trkpt>
      <trkpt lat="49.75719" lon="2.16123">
        <ele>52.7</ele>
        <time>2022-05-11T12:27:46Z</time>
      </trkpt>
      <trkpt lat="49.75719" lon="2.16122">
        <ele>52.7</ele>
        <time>2022-05-11T12:27:48Z</time>
      </trkpt>
      <trkpt lat="49.7572" lon="2.1612">
        <ele>52.7</ele>
        <time>2022-05-11T12:27:49Z</time>
      </trkpt>
      <trkpt lat="49.7572" lon="2.16118">
        <ele>52.7</ele>
        <time>2022-05-11T12:27:50Z</time>
      </trkpt>
      <trkpt lat="49.75721" lon="2.16116">
        <ele>52.7</ele>
        <time>2022-05-11T12:27:51Z</time>
      </trkpt>
      <trkpt lat="49.75721" lon="2.16114">
        <ele>52.6</ele>
        <time>2022-05-11T12:27:52Z</time>
      </trkpt>
      <trkpt lat="49.75722" lon="2.1611">
        <ele>52.6</ele>
        <time>2022-05-11T12:27:54Z</time>
      </trkpt>
      <trkpt lat="49.75722" lon="2.16109">
        <ele>52.6</ele>
        <time>2022-05-11T12:27:55Z</time>
      </trkpt>
      <trkpt lat="49.75721" lon="2.16107">
        <ele>52.6</ele>
        <time>2022-05-11T12:27:56Z</time>
      </trkpt>
      <trkpt lat="49.75721" lon="2.16106">
        <ele>52.6</ele>
        <time>2022-05-11T12:27:57Z</time>
      </trkpt>
      <trkpt lat="49.7572" lon="2.16103">
        <ele>52.6</ele>
        <time>2022-05-11T12:27:58Z</time>
      </trkpt>
      <trkpt lat="49.75719" lon="2.16102">
        <ele>52.6</ele>
        <time>2022-05-11T12:27:59Z</time>
      </trkpt>
      <trkpt lat="49.75719" lon="2.16101">
        <ele>52.6</ele>
        <time>2022-05-11T12:28:00Z</time>
      </trkpt>
      <trkpt lat="49.75718" lon="2.16099">
        <ele>52.6</ele>
        <time>2022-05-11T12:28:02Z</time>
      </trkpt>
      <trkpt lat="49.75718" lon="2.16097">
        <ele>52.5</ele>
        <time>2022-05-11T12:28:03Z</time>
      </trkpt>
      <trkpt lat="49.75717" lon="2.16094">
        <ele>52.5</ele>
        <time>2022-05-11T12:28:04Z</time>
      </trkpt>
      <trkpt lat="49.75717" lon="2.16093">
        <ele>52.5</ele>
        <time>2022-05-11T12:28:05Z</time>
      </trkpt>
      <trkpt lat="49.75716" lon="2.16092">
        <ele>52.5</ele>
        <time>2022-05-11T12:28:06Z</time>
      </trkpt>
      <trkpt lat="49.75715" lon="2.16089">
        <ele>52.5</ele>
        <time>2022-05-11T12:28:07Z</time>
      </trkpt>
      <trkpt lat="49.75715" lon="2.16088">
        <ele>52.5</ele>
        <time>2022-05-11T12:28:08Z</time>
      </trkpt>
      <trkpt lat="49.75714" lon="2.16087">
        <ele>52.5</ele>
        <time>2022-05-11T12:28:09Z</time>
      </trkpt>
      <trkpt lat="49.75713" lon="2.16085">
        <ele>52.4</ele>
        <time>2022-05-11T12:28:10Z</time>
      </trkpt>
      <trkpt lat="49.75712" lon="2.16083">
        <ele>52.4</ele>
        <time>2022-05-11T12:28:11Z</time>
      </trkpt>
      <trkpt lat="49.75711" lon="2.1608">
        <ele>52.4</ele>
        <time>2022-05-11T12:28:12Z</time>
      </trkpt>
      <trkpt lat="49.7571" lon="2.16078">
        <ele>52.4</ele>
        <time>2022-05-11T12:28:13Z</time>
      </trkpt>
      <trkpt lat="49.75709" lon="2.16074">
        <ele>52.4</ele>
        <time>2022-05-11T12:28:14Z</time>
      </trkpt>
      <trkpt lat="49.75708" lon="2.16073">
        <ele>52.4</ele>
        <time>2022-05-11T12:28:15Z</time>
      </trkpt>
      <trkpt lat="49.75707" lon="2.16069">
        <ele>52.4</ele>
        <time>2022-05-11T12:28:17Z</time>
      </trkpt>
      <trkpt lat="49.75706" lon="2.16067">
        <ele>52.4</ele>
        <time>2022-05-11T12:28:18Z</time>
      </trkpt>
      <trkpt lat="49.75706" lon="2.16065">
        <ele>52.4</ele>
        <time>2022-05-11T12:28:19Z</time>
      </trkpt>
      <trkpt lat="49.75705" lon="2.16063">
        <ele>52.4</ele>
        <time>2022-05-11T12:28:20Z</time>
      </trkpt>
      <trkpt lat="49.75705" lon="2.1606">
        <ele>52.4</ele>
        <time>2022-05-11T12:28:21Z</time>
      </trkpt>
      <trkpt lat="49.75704" lon="2.16059">
        <ele>52.4</ele>
        <time>2022-05-11T12:28:22Z</time>
      </trkpt>
      <trkpt lat="49.75704" lon="2.16057">
        <ele>52.4</ele>
        <time>2022-05-11T12:28:23Z</time>
      </trkpt>
      <trkpt lat="49.75703" lon="2.16054">
        <ele>52.4</ele>
        <time>2022-05-11T12:28:25Z</time>
      </trkpt>
      <trkpt lat="49.75703" lon="2.16052">
        <ele>52.4</ele>
        <time>2022-05-11T12:28:26Z</time>
      </trkpt>
      <trkpt lat="49.75703" lon="2.1605">
        <ele>52.4</ele>
        <time>2022-05-11T12:28:27Z</time>
      </trkpt>
      <trkpt lat="49.75703" lon="2.16049">
        <ele>52.3</ele>
        <time>2022-05-11T12:28:28Z</time>
      </trkpt>
      <trkpt lat="49.75704" lon="2.16049">
        <ele>52.3</ele>
        <time>2022-05-11T12:28:29Z</time>
      </trkpt>
      <trkpt lat="49.75704" lon="2.16049">
        <ele>52.3</ele>
        <time>2022-05-11T12:28:30Z</time>
      </trkpt>
      <trkpt lat="49.75705" lon="2.16049">
        <ele>52.3</ele>
        <time>2022-05-11T12:28:31Z</time>
      </trkpt>
      <trkpt lat="49.75705" lon="2.16048">
        <ele>52.3</ele>
        <time>2022-05-11T12:28:32Z</time>
      </trkpt>
      <trkpt lat="49.75705" lon="2.16045">
        <ele>52.3</ele>
        <time>2022-05-11T12:28:33Z</time>
      </trkpt>
      <trkpt lat="49.75705" lon="2.16044">
        <ele>52.3</ele>
        <time>2022-05-11T12:28:34Z</time>
      </trkpt>
      <trkpt lat="49.75705" lon="2.16043">
        <ele>52.3</ele>
        <time>2022-05-11T12:28:35Z</time>
      </trkpt>
      <trkpt lat="49.75705" lon="2.1604">
        <ele>52.3</ele>
        <time>2022-05-11T12:28:37Z</time>
      </trkpt>
      <trkpt lat="49.75706" lon="2.16037">
        <ele>52.2</ele>
        <time>2022-05-11T12:28:38Z</time>
      </trkpt>
      <trkpt lat="49.75706" lon="2.16033">
        <ele>52.2</ele>
        <time>2022-05-11T12:28:40Z</time>
      </trkpt>
      <trkpt lat="49.75706" lon="2.16032">
        <ele>52.2</ele>
        <time>2022-05-11T12:28:41Z</time>
      </trkpt>
      <trkpt lat="49.75707" lon="2.16029">
        <ele>52.2</ele>
        <time>2022-05-11T12:28:42Z</time>
      </trkpt>
      <trkpt lat="49.75708" lon="2.16027">
        <ele>52.2</ele>
        <time>2022-05-11T12:28:43Z</time>
      </trkpt>
      <trkpt lat="49.75708" lon="2.16026">
        <ele>52.1</ele>
        <time>2022-05-11T12:28:44Z</time>
      </trkpt>
      <trkpt lat="49.75708" lon="2.16024">
        <ele>52.1</ele>
        <time>2022-05-11T12:28:45Z</time>
      </trkpt>
      <trkpt lat="49.75709" lon="2.16021">
        <ele>52.1</ele>
        <time>2022-05-11T12:28:46Z</time>
      </trkpt>
      <trkpt lat="49.75709" lon="2.16018">
        <ele>52.1</ele>
        <time>2022-05-11T12:28:48Z</time>
      </trkpt>
      <trkpt lat="49.7571" lon="2.16017">
        <ele>52.1</ele>
        <time>2022-05-11T12:28:49Z</time>
      </trkpt>
      <trkpt lat="49.7571" lon="2.16016">
        <ele>52.1</ele>
        <time>2022-05-11T12:28:50Z</time>
      </trkpt>
      <trkpt lat="49.75711" lon="2.16013">
        <ele>52</ele>
        <time>2022-05-11T12:28:51Z</time>
      </trkpt>
      <trkpt lat="49.75711" lon="2.16011">
        <ele>52</ele>
        <time>2022-05-11T12:28:52Z</time>
      </trkpt>
      <trkpt lat="49.75711" lon="2.16008">
        <ele>52</ele>
        <time>2022-05-11T12:28:53Z</time>
      </trkpt>
      <trkpt lat="49.75711" lon="2.16007">
        <ele>52</ele>
        <time>2022-05-11T12:28:54Z</time>
      </trkpt>
      <trkpt lat="49.75712" lon="2.16006">
        <ele>52</ele>
        <time>2022-05-11T12:28:55Z</time>
      </trkpt>
      <trkpt lat="49.75712" lon="2.16004">
        <ele>52</ele>
        <time>2022-05-11T12:28:56Z</time>
      </trkpt>
      <trkpt lat="49.75712" lon="2.16003">
        <ele>52</ele>
        <time>2022-05-11T12:28:57Z</time>
      </trkpt>
      <trkpt lat="49.75711" lon="2.16003">
        <ele>52</ele>
        <time>2022-05-11T12:28:58Z</time>
      </trkpt>
      <trkpt lat="49.75711" lon="2.16001">
        <ele>51.9</ele>
        <time>2022-05-11T12:29:00Z</time>
      </trkpt>
      <trkpt lat="49.75711" lon="2.15999">
        <ele>51.9</ele>
        <time>2022-05-11T12:29:01Z</time>
      </trkpt>
      <trkpt lat="49.75711" lon="2.15997">
        <ele>51.9</ele>
        <time>2022-05-11T12:29:02Z</time>
      </trkpt>
      <trkpt lat="49.75711" lon="2.15996">
        <ele>51.9</ele>
        <time>2022-05-11T12:29:03Z</time>
      </trkpt>
      <trkpt lat="49.75712" lon="2.15993">
        <ele>51.9</ele>
        <time>2022-05-11T12:29:04Z</time>
      </trkpt>
      <trkpt lat="49.75712" lon="2.15991">
        <ele>51.9</ele>
        <time>2022-05-11T12:29:05Z</time>
      </trkpt>
      <trkpt lat="49.75712" lon="2.1599">
        <ele>51.9</ele>
        <time>2022-05-11T12:29:06Z</time>
      </trkpt>
      <trkpt lat="49.75713" lon="2.15987">
        <ele>51.9</ele>
        <time>2022-05-11T12:29:08Z</time>
      </trkpt>
      <trkpt lat="49.75714" lon="2.15985">
        <ele>51.8</ele>
        <time>2022-05-11T12:29:10Z</time>
      </trkpt>
      <trkpt lat="49.75714" lon="2.15984">
        <ele>51.8</ele>
        <time>2022-05-11T12:29:11Z</time>
      </trkpt>
      <trkpt lat="49.75714" lon="2.15982">
        <ele>51.8</ele>
        <time>2022-05-11T12:29:12Z</time>
      </trkpt>
      <trkpt lat="49.75715" lon="2.15981">
        <ele>51.8</ele>
        <time>2022-05-11T12:29:13Z</time>
      </trkpt>
      <trkpt lat="49.75715" lon="2.15979">
        <ele>51.8</ele>
        <time>2022-05-11T12:29:14Z</time>
      </trkpt>
      <trkpt lat="49.75715" lon="2.15976">
        <ele>51.8</ele>
        <time>2022-05-11T12:29:15Z</time>
      </trkpt>
      <trkpt lat="49.75715" lon="2.15973">
        <ele>51.8</ele>
        <time>2022-05-11T12:29:16Z</time>
      </trkpt>
      <trkpt lat="49.75716" lon="2.15971">
        <ele>51.8</ele>
        <time>2022-05-11T12:29:17Z</time>
      </trkpt>
      <trkpt lat="49.75716" lon="2.1597">
        <ele>51.8</ele>
        <time>2022-05-11T12:29:18Z</time>
      </trkpt>
      <trkpt lat="49.75716" lon="2.15966">
        <ele>51.8</ele>
        <time>2022-05-11T12:29:19Z</time>
      </trkpt>
      <trkpt lat="49.75716" lon="2.15964">
        <ele>51.8</ele>
        <time>2022-05-11T12:29:21Z</time>
      </trkpt>
      <trkpt lat="49.75716" lon="2.15963">
        <ele>51.7</ele>
        <time>2022-05-11T12:29:22Z</time>
      </trkpt>
      <trkpt lat="49.75716" lon="2.15961">
        <ele>51.7</ele>
        <time>2022-05-11T12:29:23Z</time>
      </trkpt>
      <trkpt lat="49.75716" lon="2.1596">
        <ele>51.7</ele>
        <time>2022-05-11T12:29:24Z</time>
      </trkpt>
      <trkpt lat="49.75716" lon="2.15958">
        <ele>51.7</ele>
        <time>2022-05-11T12:29:25Z</time>
      </trkpt>
      <trkpt lat="49.75715" lon="2.15955">
        <ele>51.7</ele>
        <time>2022-05-11T12:29:27Z</time>
      </trkpt>
      <trkpt lat="49.75715" lon="2.15954">
        <ele>51.7</ele>
        <time>2022-05-11T12:29:28Z</time>
      </trkpt>
      <trkpt lat="49.75715" lon="2.15951">
        <ele>51.8</ele>
        <time>2022-05-11T12:29:30Z</time>
      </trkpt>
      <trkpt lat="49.75715" lon="2.15949">
        <ele>51.8</ele>
        <time>2022-05-11T12:29:31Z</time>
      </trkpt>
      <trkpt lat="49.75716" lon="2.15947">
        <ele>51.8</ele>
        <time>2022-05-11T12:29:32Z</time>
      </trkpt>
      <trkpt lat="49.75716" lon="2.15946">
        <ele>51.8</ele>
        <time>2022-05-11T12:29:33Z</time>
      </trkpt>
      <trkpt lat="49.75717" lon="2.15945">
        <ele>51.8</ele>
        <time>2022-05-11T12:29:34Z</time>
      </trkpt>
      <trkpt lat="49.75717" lon="2.15943">
        <ele>51.8</ele>
        <time>2022-05-11T12:29:35Z</time>
      </trkpt>
      <trkpt lat="49.75718" lon="2.15941">
        <ele>51.8</ele>
        <time>2022-05-11T12:29:36Z</time>
      </trkpt>
      <trkpt lat="49.75718" lon="2.15939">
        <ele>51.8</ele>
        <time>2022-05-11T12:29:38Z</time>
      </trkpt>
      <trkpt lat="49.75718" lon="2.15937">
        <ele>51.8</ele>
        <time>2022-05-11T12:29:39Z</time>
      </trkpt>
      <trkpt lat="49.75718" lon="2.15934">
        <ele>51.8</ele>
        <time>2022-05-11T12:29:40Z</time>
      </trkpt>
      <trkpt lat="49.75718" lon="2.15932">
        <ele>51.8</ele>
        <time>2022-05-11T12:29:41Z</time>
      </trkpt>
      <trkpt lat="49.75719" lon="2.1593">
        <ele>51.8</ele>
        <time>2022-05-11T12:29:42Z</time>
      </trkpt>
      <trkpt lat="49.75719" lon="2.15928">
        <ele>51.8</ele>
        <time>2022-05-11T12:29:44Z</time>
      </trkpt>
      <trkpt lat="49.7572" lon="2.15926">
        <ele>51.8</ele>
        <time>2022-05-11T12:29:45Z</time>
      </trkpt>
      <trkpt lat="49.7572" lon="2.15925">
        <ele>51.8</ele>
        <time>2022-05-11T12:29:46Z</time>
      </trkpt>
      <trkpt lat="49.75721" lon="2.15923">
        <ele>51.8</ele>
        <time>2022-05-11T12:29:48Z</time>
      </trkpt>
      <trkpt lat="49.75722" lon="2.15921">
        <ele>51.8</ele>
        <time>2022-05-11T12:29:50Z</time>
      </trkpt>
      <trkpt lat="49.75722" lon="2.15919">
        <ele>51.8</ele>
        <time>2022-05-11T12:29:51Z</time>
      </trkpt>
      <trkpt lat="49.75722" lon="2.15918">
        <ele>51.8</ele>
        <time>2022-05-11T12:29:52Z</time>
      </trkpt>
      <trkpt lat="49.75722" lon="2.15916">
        <ele>51.8</ele>
        <time>2022-05-11T12:29:53Z</time>
      </trkpt>
      <trkpt lat="49.75723" lon="2.15914">
        <ele>51.8</ele>
        <time>2022-05-11T12:29:54Z</time>
      </trkpt>
      <trkpt lat="49.75724" lon="2.15911">
        <ele>51.8</ele>
        <time>2022-05-11T12:29:55Z</time>
      </trkpt>
      <trkpt lat="49.75724" lon="2.1591">
        <ele>51.8</ele>
        <time>2022-05-11T12:29:56Z</time>
      </trkpt>
      <trkpt lat="49.75724" lon="2.15909">
        <ele>51.8</ele>
        <time>2022-05-11T12:29:57Z</time>
      </trkpt>
      <trkpt lat="49.75725" lon="2.15907">
        <ele>51.8</ele>
        <time>2022-05-11T12:29:58Z</time>
      </trkpt>
      <trkpt lat="49.75725" lon="2.15904">
        <ele>51.9</ele>
        <time>2022-05-11T12:30:00Z</time>
      </trkpt>
      <trkpt lat="49.75726" lon="2.15902">
        <ele>51.9</ele>
        <time>2022-05-11T12:30:01Z</time>
      </trkpt>
      <trkpt lat="49.75727" lon="2.159">
        <ele>51.9</ele>
        <time>2022-05-11T12:30:02Z</time>
      </trkpt>
      <trkpt lat="49.75727" lon="2.15899">
        <ele>51.9</ele>
        <time>2022-05-11T12:30:03Z</time>
      </trkpt>
      <trkpt lat="49.75728" lon="2.15898">
        <ele>51.9</ele>
        <time>2022-05-11T12:30:04Z</time>
      </trkpt>
      <trkpt lat="49.75729" lon="2.15896">
        <ele>51.9</ele>
        <time>2022-05-11T12:30:06Z</time>
      </trkpt>
      <trkpt lat="49.7573" lon="2.15893">
        <ele>52</ele>
        <time>2022-05-11T12:30:07Z</time>
      </trkpt>
      <trkpt lat="49.75731" lon="2.15892">
        <ele>52</ele>
        <time>2022-05-11T12:30:08Z</time>
      </trkpt>
      <trkpt lat="49.75731" lon="2.15891">
        <ele>52</ele>
        <time>2022-05-11T12:30:09Z</time>
      </trkpt>
      <trkpt lat="49.75732" lon="2.15889">
        <ele>52</ele>
        <time>2022-05-11T12:30:10Z</time>
      </trkpt>
      <trkpt lat="49.75732" lon="2.15887">
        <ele>52</ele>
        <time>2022-05-11T12:30:11Z</time>
      </trkpt>
      <trkpt lat="49.75733" lon="2.15885">
        <ele>52</ele>
        <time>2022-05-11T12:30:13Z</time>
      </trkpt>
      <trkpt lat="49.75734" lon="2.15883">
        <ele>52</ele>
        <time>2022-05-11T12:30:14Z</time>
      </trkpt>
      <trkpt lat="49.75735" lon="2.15881">
        <ele>52.1</ele>
        <time>2022-05-11T12:30:15Z</time>
      </trkpt>
      <trkpt lat="49.75736" lon="2.1588">
        <ele>52.1</ele>
        <time>2022-05-11T12:30:16Z</time>
      </trkpt>
      <trkpt lat="49.75737" lon="2.15879">
        <ele>52.1</ele>
        <time>2022-05-11T12:30:17Z</time>
      </trkpt>
      <trkpt lat="49.75738" lon="2.15878">
        <ele>52.1</ele>
        <time>2022-05-11T12:30:18Z</time>
      </trkpt>
      <trkpt lat="49.75739" lon="2.15877">
        <ele>52.1</ele>
        <time>2022-05-11T12:30:20Z</time>
      </trkpt>
      <trkpt lat="49.75739" lon="2.15876">
        <ele>52.1</ele>
        <time>2022-05-11T12:30:21Z</time>
      </trkpt>
      <trkpt lat="49.7574" lon="2.15875">
        <ele>52.1</ele>
        <time>2022-05-11T12:30:22Z</time>
      </trkpt>
      <trkpt lat="49.75741" lon="2.15875">
        <ele>52.1</ele>
        <time>2022-05-11T12:30:23Z</time>
      </trkpt>
      <trkpt lat="49.75742" lon="2.15874">
        <ele>52.1</ele>
        <time>2022-05-11T12:30:24Z</time>
      </trkpt>
      <trkpt lat="49.75743" lon="2.15873">
        <ele>52.1</ele>
        <time>2022-05-11T12:30:25Z</time>
      </trkpt>
      <trkpt lat="49.75744" lon="2.15872">
        <ele>52.1</ele>
        <time>2022-05-11T12:30:26Z</time>
      </trkpt>
      <trkpt lat="49.75745" lon="2.15872">
        <ele>52.1</ele>
        <time>2022-05-11T12:30:28Z</time>
      </trkpt>
      <trkpt lat="49.75746" lon="2.15871">
        <ele>52.1</ele>
        <time>2022-05-11T12:30:29Z</time>
      </trkpt>
      <trkpt lat="49.75747" lon="2.15868">
        <ele>52.1</ele>
        <time>2022-05-11T12:30:30Z</time>
      </trkpt>
      <trkpt lat="49.75747" lon="2.15867">
        <ele>52.1</ele>
        <time>2022-05-11T12:30:31Z</time>
      </trkpt>
      <trkpt lat="49.75748" lon="2.15866">
        <ele>52.1</ele>
        <time>2022-05-11T12:30:32Z</time>
      </trkpt>
      <trkpt lat="49.75748" lon="2.15865">
        <ele>52.1</ele>
        <time>2022-05-11T12:30:33Z</time>
      </trkpt>
      <trkpt lat="49.75748" lon="2.15863">
        <ele>52.1</ele>
        <time>2022-05-11T12:30:34Z</time>
      </trkpt>
      <trkpt lat="49.75749" lon="2.15861">
        <ele>52.1</ele>
        <time>2022-05-11T12:30:36Z</time>
      </trkpt>
      <trkpt lat="49.75749" lon="2.15859">
        <ele>52.1</ele>
        <time>2022-05-11T12:30:37Z</time>
      </trkpt>
      <trkpt lat="49.75749" lon="2.15857">
        <ele>52.1</ele>
        <time>2022-05-11T12:30:38Z</time>
      </trkpt>
      <trkpt lat="49.75749" lon="2.15856">
        <ele>52.1</ele>
        <time>2022-05-11T12:30:39Z</time>
      </trkpt>
      <trkpt lat="49.7575" lon="2.15854">
        <ele>52.1</ele>
        <time>2022-05-11T12:30:40Z</time>
      </trkpt>
      <trkpt lat="49.7575" lon="2.15853">
        <ele>52.1</ele>
        <time>2022-05-11T12:30:41Z</time>
      </trkpt>
      <trkpt lat="49.7575" lon="2.15851">
        <ele>52.1</ele>
        <time>2022-05-11T12:30:42Z</time>
      </trkpt>
      <trkpt lat="49.75751" lon="2.15848">
        <ele>52.1</ele>
        <time>2022-05-11T12:30:44Z</time>
      </trkpt>
      <trkpt lat="49.75751" lon="2.15847">
        <ele>52.1</ele>
        <time>2022-05-11T12:30:45Z</time>
      </trkpt>
      <trkpt lat="49.75751" lon="2.15845">
        <ele>52.1</ele>
        <time>2022-05-11T12:30:46Z</time>
      </trkpt>
      <trkpt lat="49.75751" lon="2.15843">
        <ele>52.1</ele>
        <time>2022-05-11T12:30:47Z</time>
      </trkpt>
      <trkpt lat="49.75751" lon="2.15841">
        <ele>52.1</ele>
        <time>2022-05-11T12:30:48Z</time>
      </trkpt>
      <trkpt lat="49.75752" lon="2.15837">
        <ele>52.1</ele>
        <time>2022-05-11T12:30:49Z</time>
      </trkpt>
      <trkpt lat="49.75752" lon="2.15835">
        <ele>52.1</ele>
        <time>2022-05-11T12:30:51Z</time>
      </trkpt>
      <trkpt lat="49.75752" lon="2.15833">
        <ele>52.1</ele>
        <time>2022-05-11T12:30:52Z</time>
      </trkpt>
      <trkpt lat="49.75752" lon="2.15832">
        <ele>52.1</ele>
        <time>2022-05-11T12:30:53Z</time>
      </trkpt>
      <trkpt lat="49.75752" lon="2.1583">
        <ele>52.1</ele>
        <time>2022-05-11T12:30:54Z</time>
      </trkpt>
      <trkpt lat="49.75752" lon="2.15827">
        <ele>52.1</ele>
        <time>2022-05-11T12:30:55Z</time>
      </trkpt>
      <trkpt lat="49.75752" lon="2.15825">
        <ele>52.1</ele>
        <time>2022-05-11T12:30:56Z</time>
      </trkpt>
      <trkpt lat="49.75752" lon="2.15824">
        <ele>52.1</ele>
        <time>2022-05-11T12:30:57Z</time>
      </trkpt>
      <trkpt lat="49.75752" lon="2.15822">
        <ele>52.1</ele>
        <time>2022-05-11T12:30:58Z</time>
      </trkpt>
      <trkpt lat="49.75752" lon="2.15819">
        <ele>52.1</ele>
        <time>2022-05-11T12:31:00Z</time>
      </trkpt>
      <trkpt lat="49.75752" lon="2.15817">
        <ele>52.2</ele>
        <time>2022-05-11T12:31:01Z</time>
      </trkpt>
      <trkpt lat="49.75753" lon="2.15815">
        <ele>52.2</ele>
        <time>2022-05-11T12:31:02Z</time>
      </trkpt>
      <trkpt lat="49.75754" lon="2.15813">
        <ele>52.2</ele>
        <time>2022-05-11T12:31:03Z</time>
      </trkpt>
      <trkpt lat="49.75754" lon="2.15811">
        <ele>52.2</ele>
        <time>2022-05-11T12:31:04Z</time>
      </trkpt>
      <trkpt lat="49.75756" lon="2.15807">
        <ele>52.2</ele>
        <time>2022-05-11T12:31:06Z</time>
      </trkpt>
      <trkpt lat="49.75756" lon="2.15806">
        <ele>52.2</ele>
        <time>2022-05-11T12:31:07Z</time>
      </trkpt>
      <trkpt lat="49.75757" lon="2.15803">
        <ele>52.2</ele>
        <time>2022-05-11T12:31:08Z</time>
      </trkpt>
      <trkpt lat="49.75758" lon="2.15802">
        <ele>52.2</ele>
        <time>2022-05-11T12:31:09Z</time>
      </trkpt>
      <trkpt lat="49.75759" lon="2.158">
        <ele>52.2</ele>
        <time>2022-05-11T12:31:10Z</time>
      </trkpt>
      <trkpt lat="49.7576" lon="2.15799">
        <ele>52.2</ele>
        <time>2022-05-11T12:31:11Z</time>
      </trkpt>
      <trkpt lat="49.75763" lon="2.15796">
        <ele>52.2</ele>
        <time>2022-05-11T12:31:13Z</time>
      </trkpt>
      <trkpt lat="49.75764" lon="2.15794">
        <ele>52.2</ele>
        <time>2022-05-11T12:31:15Z</time>
      </trkpt>
      <trkpt lat="49.75765" lon="2.15793">
        <ele>52.2</ele>
        <time>2022-05-11T12:31:16Z</time>
      </trkpt>
      <trkpt lat="49.75766" lon="2.15792">
        <ele>52.2</ele>
        <time>2022-05-11T12:31:17Z</time>
      </trkpt>
      <trkpt lat="49.75767" lon="2.15791">
        <ele>52.2</ele>
        <time>2022-05-11T12:31:18Z</time>
      </trkpt>
      <trkpt lat="49.75768" lon="2.15789">
        <ele>52.2</ele>
        <time>2022-05-11T12:31:19Z</time>
      </trkpt>
      <trkpt lat="49.75769" lon="2.15788">
        <ele>52.2</ele>
        <time>2022-05-11T12:31:20Z</time>
      </trkpt>
      <trkpt lat="49.75769" lon="2.15787">
        <ele>52.2</ele>
        <time>2022-05-11T12:31:21Z</time>
      </trkpt>
      <trkpt lat="49.75771" lon="2.15783">
        <ele>52.2</ele>
        <time>2022-05-11T12:31:23Z</time>
      </trkpt>
      <trkpt lat="49.75771" lon="2.15782">
        <ele>52.2</ele>
        <time>2022-05-11T12:31:24Z</time>
      </trkpt>
      <trkpt lat="49.75772" lon="2.15781">
        <ele>52.2</ele>
        <time>2022-05-11T12:31:25Z</time>
      </trkpt>
      <trkpt lat="49.75772" lon="2.1578">
        <ele>52.2</ele>
        <time>2022-05-11T12:31:26Z</time>
      </trkpt>
      <trkpt lat="49.75773" lon="2.15778">
        <ele>52.2</ele>
        <time>2022-05-11T12:31:27Z</time>
      </trkpt>
      <trkpt lat="49.75772" lon="2.15778">
        <ele>52.2</ele>
        <time>2022-05-11T12:31:28Z</time>
      </trkpt>
      <trkpt lat="49.75772" lon="2.15777">
        <ele>52.2</ele>
        <time>2022-05-11T12:31:30Z</time>
      </trkpt>
      <trkpt lat="49.75772" lon="2.15775">
        <ele>52.1</ele>
        <time>2022-05-11T12:31:31Z</time>
      </trkpt>
      <trkpt lat="49.75773" lon="2.15774">
        <ele>52.1</ele>
        <time>2022-05-11T12:31:32Z</time>
      </trkpt>
      <trkpt lat="49.75774" lon="2.15772">
        <ele>52.1</ele>
        <time>2022-05-11T12:31:33Z</time>
      </trkpt>
      <trkpt lat="49.75775" lon="2.15768">
        <ele>52.1</ele>
        <time>2022-05-11T12:31:35Z</time>
      </trkpt>
      <trkpt lat="49.75776" lon="2.15767">
        <ele>52.1</ele>
        <time>2022-05-11T12:31:36Z</time>
      </trkpt>
      <trkpt lat="49.75776" lon="2.15766">
        <ele>52.1</ele>
        <time>2022-05-11T12:31:37Z</time>
      </trkpt>
      <trkpt lat="49.75776" lon="2.15765">
        <ele>52.1</ele>
        <time>2022-05-11T12:31:38Z</time>
      </trkpt>
      <trkpt lat="49.75776" lon="2.15763">
        <ele>52.1</ele>
        <time>2022-05-11T12:31:39Z</time>
      </trkpt>
      <trkpt lat="49.75776" lon="2.15762">
        <ele>52.1</ele>
        <time>2022-05-11T12:31:40Z</time>
      </trkpt>
      <trkpt lat="49.75777" lon="2.1576">
        <ele>52.1</ele>
        <time>2022-05-11T12:31:41Z</time>
      </trkpt>
      <trkpt lat="49.75777" lon="2.15758">
        <ele>52.1</ele>
        <time>2022-05-11T12:31:42Z</time>
      </trkpt>
      <trkpt lat="49.75777" lon="2.15757">
        <ele>52.1</ele>
        <time>2022-05-11T12:31:43Z</time>
      </trkpt>
      <trkpt lat="49.75778" lon="2.15755">
        <ele>52.1</ele>
        <time>2022-05-11T12:31:44Z</time>
      </trkpt>
      <trkpt lat="49.75778" lon="2.15754">
        <ele>52.1</ele>
        <time>2022-05-11T12:31:45Z</time>
      </trkpt>
      <trkpt lat="49.75777" lon="2.15753">
        <ele>52.1</ele>
        <time>2022-05-11T12:31:46Z</time>
      </trkpt>
      <trkpt lat="49.75777" lon="2.15751">
        <ele>52.1</ele>
        <time>2022-05-11T12:31:47Z</time>
      </trkpt>
      <trkpt lat="49.75778" lon="2.1575">
        <ele>52.1</ele>
        <time>2022-05-11T12:31:48Z</time>
      </trkpt>
      <trkpt lat="49.75778" lon="2.15747">
        <ele>52.1</ele>
        <time>2022-05-11T12:31:49Z</time>
      </trkpt>
      <trkpt lat="49.75779" lon="2.15744">
        <ele>52.1</ele>
        <time>2022-05-11T12:31:51Z</time>
      </trkpt>
      <trkpt lat="49.75779" lon="2.15742">
        <ele>52.1</ele>
        <time>2022-05-11T12:31:52Z</time>
      </trkpt>
      <trkpt lat="49.75779" lon="2.15741">
        <ele>52.1</ele>
        <time>2022-05-11T12:31:53Z</time>
      </trkpt>
      <trkpt lat="49.75779" lon="2.15739">
        <ele>52.1</ele>
        <time>2022-05-11T12:31:54Z</time>
      </trkpt>
      <trkpt lat="49.75779" lon="2.15737">
        <ele>52.1</ele>
        <time>2022-05-11T12:31:55Z</time>
      </trkpt>
      <trkpt lat="49.7578" lon="2.15734">
        <ele>52.1</ele>
        <time>2022-05-11T12:31:56Z</time>
      </trkpt>
      <trkpt lat="49.7578" lon="2.15732">
        <ele>52.1</ele>
        <time>2022-05-11T12:31:58Z</time>
      </trkpt>
      <trkpt lat="49.7578" lon="2.1573">
        <ele>52.1</ele>
        <time>2022-05-11T12:31:59Z</time>
      </trkpt>
      <trkpt lat="49.7578" lon="2.15728">
        <ele>52.1</ele>
        <time>2022-05-11T12:32:00Z</time>
      </trkpt>
      <trkpt lat="49.7578" lon="2.15726">
        <ele>52.1</ele>
        <time>2022-05-11T12:32:01Z</time>
      </trkpt>
      <trkpt lat="49.75781" lon="2.15723">
        <ele>52.1</ele>
        <time>2022-05-11T12:32:02Z</time>
      </trkpt>
      <trkpt lat="49.75781" lon="2.15721">
        <ele>52.1</ele>
        <time>2022-05-11T12:32:03Z</time>
      </trkpt>
      <trkpt lat="49.75781" lon="2.1572">
        <ele>52.1</ele>
        <time>2022-05-11T12:32:04Z</time>
      </trkpt>
      <trkpt lat="49.75781" lon="2.15719">
        <ele>52.1</ele>
        <time>2022-05-11T12:32:05Z</time>
      </trkpt>
      <trkpt lat="49.75781" lon="2.15716">
        <ele>52.1</ele>
        <time>2022-05-11T12:32:06Z</time>
      </trkpt>
      <trkpt lat="49.75782" lon="2.15714">
        <ele>52.1</ele>
        <time>2022-05-11T12:32:08Z</time>
      </trkpt>
      <trkpt lat="49.75782" lon="2.15713">
        <ele>52.1</ele>
        <time>2022-05-11T12:32:09Z</time>
      </trkpt>
      <trkpt lat="49.75782" lon="2.15711">
        <ele>52.1</ele>
        <time>2022-05-11T12:32:10Z</time>
      </trkpt>
      <trkpt lat="49.75783" lon="2.15709">
        <ele>52.1</ele>
        <time>2022-05-11T12:32:11Z</time>
      </trkpt>
      <trkpt lat="49.75783" lon="2.15707">
        <ele>52.1</ele>
        <time>2022-05-11T12:32:12Z</time>
      </trkpt>
      <trkpt lat="49.75783" lon="2.15706">
        <ele>52.1</ele>
        <time>2022-05-11T12:32:13Z</time>
      </trkpt>
      <trkpt lat="49.75784" lon="2.15702">
        <ele>52.2</ele>
        <time>2022-05-11T12:32:15Z</time>
      </trkpt>
      <trkpt lat="49.75784" lon="2.15701">
        <ele>52.2</ele>
        <time>2022-05-11T12:32:16Z</time>
      </trkpt>
      <trkpt lat="49.75784" lon="2.15699">
        <ele>52.2</ele>
        <time>2022-05-11T12:32:17Z</time>
      </trkpt>
      <trkpt lat="49.75785" lon="2.15697">
        <ele>52.2</ele>
        <time>2022-05-11T12:32:18Z</time>
      </trkpt>
      <trkpt lat="49.75784" lon="2.15694">
        <ele>52.1</ele>
        <time>2022-05-11T12:32:19Z</time>
      </trkpt>
      <trkpt lat="49.75784" lon="2.15693">
        <ele>52.1</ele>
        <time>2022-05-11T12:32:20Z</time>
      </trkpt>
      <trkpt lat="49.75784" lon="2.15692">
        <ele>52.1</ele>
        <time>2022-05-11T12:32:21Z</time>
      </trkpt>
      <trkpt lat="49.75783" lon="2.15687">
        <ele>52.1</ele>
        <time>2022-05-11T12:32:22Z</time>
      </trkpt>
      <trkpt lat="49.75782" lon="2.15686">
        <ele>52.1</ele>
        <time>2022-05-11T12:32:24Z</time>
      </trkpt>
      <trkpt lat="49.75782" lon="2.15685">
        <ele>52.1</ele>
        <time>2022-05-11T12:32:25Z</time>
      </trkpt>
      <trkpt lat="49.75781" lon="2.15684">
        <ele>52.1</ele>
        <time>2022-05-11T12:32:27Z</time>
      </trkpt>
      <trkpt lat="49.7578" lon="2.15682">
        <ele>52.1</ele>
        <time>2022-05-11T12:32:28Z</time>
      </trkpt>
      <trkpt lat="49.75778" lon="2.15681">
        <ele>52.1</ele>
        <time>2022-05-11T12:32:29Z</time>
      </trkpt>
      <trkpt lat="49.75777" lon="2.1568">
        <ele>52.1</ele>
        <time>2022-05-11T12:32:30Z</time>
      </trkpt>
      <trkpt lat="49.75777" lon="2.1568">
        <ele>52.1</ele>
        <time>2022-05-11T12:32:31Z</time>
      </trkpt>
      <trkpt lat="49.75776" lon="2.15679">
        <ele>52.2</ele>
        <time>2022-05-11T12:32:32Z</time>
      </trkpt>
      <trkpt lat="49.75775" lon="2.15678">
        <ele>52.2</ele>
        <time>2022-05-11T12:32:34Z</time>
      </trkpt>
      <trkpt lat="49.75774" lon="2.15678">
        <ele>52.2</ele>
        <time>2022-05-11T12:32:35Z</time>
      </trkpt>
      <trkpt lat="49.75773" lon="2.15678">
        <ele>52.2</ele>
        <time>2022-05-11T12:32:36Z</time>
      </trkpt>
      <trkpt lat="49.75771" lon="2.15678">
        <ele>52.2</ele>
        <time>2022-05-11T12:32:38Z</time>
      </trkpt>
      <trkpt lat="49.7577" lon="2.15677">
        <ele>52.2</ele>
        <time>2022-05-11T12:32:39Z</time>
      </trkpt>
      <trkpt lat="49.75768" lon="2.15677">
        <ele>52.2</ele>
        <time>2022-05-11T12:32:40Z</time>
      </trkpt>
      <trkpt lat="49.75766" lon="2.15676">
        <ele>52.2</ele>
        <time>2022-05-11T12:32:41Z</time>
      </trkpt>
      <trkpt lat="49.75765" lon="2.15676">
        <ele>52.2</ele>
        <time>2022-05-11T12:32:42Z</time>
      </trkpt>
      <trkpt lat="49.75763" lon="2.15675">
        <ele>52.2</ele>
        <time>2022-05-11T12:32:43Z</time>
      </trkpt>
      <trkpt lat="49.75762" lon="2.15675">
        <ele>52.2</ele>
        <time>2022-05-11T12:32:45Z</time>
      </trkpt>
      <trkpt lat="49.75761" lon="2.15674">
        <ele>52.2</ele>
        <time>2022-05-11T12:32:46Z</time>
      </trkpt>
      <trkpt lat="49.75759" lon="2.15674">
        <ele>52.2</ele>
        <time>2022-05-11T12:32:47Z</time>
      </trkpt>
      <trkpt lat="49.75758" lon="2.15673">
        <ele>52.2</ele>
        <time>2022-05-11T12:32:48Z</time>
      </trkpt>
      <trkpt lat="49.75757" lon="2.15673">
        <ele>52.2</ele>
        <time>2022-05-11T12:32:49Z</time>
      </trkpt>
      <trkpt lat="49.75756" lon="2.15673">
        <ele>52.2</ele>
        <time>2022-05-11T12:32:50Z</time>
      </trkpt>
      <trkpt lat="49.75754" lon="2.15672">
        <ele>52.2</ele>
        <time>2022-05-11T12:32:51Z</time>
      </trkpt>
      <trkpt lat="49.75752" lon="2.15671">
        <ele>52.2</ele>
        <time>2022-05-11T12:32:52Z</time>
      </trkpt>
      <trkpt lat="49.75751" lon="2.15671">
        <ele>52.2</ele>
        <time>2022-05-11T12:32:54Z</time>
      </trkpt>
      <trkpt lat="49.7575" lon="2.15671">
        <ele>52.2</ele>
        <time>2022-05-11T12:32:55Z</time>
      </trkpt>
      <trkpt lat="49.7575" lon="2.15671">
        <ele>52.2</ele>
        <time>2022-05-11T12:32:56Z</time>
      </trkpt>
      <trkpt lat="49.75748" lon="2.15671">
        <ele>52.2</ele>
        <time>2022-05-11T12:32:57Z</time>
      </trkpt>
      <trkpt lat="49.75747" lon="2.1567">
        <ele>52.2</ele>
        <time>2022-05-11T12:32:59Z</time>
      </trkpt>
      <trkpt lat="49.75745" lon="2.1567">
        <ele>52.2</ele>
        <time>2022-05-11T12:33:00Z</time>
      </trkpt>
      <trkpt lat="49.75744" lon="2.1567">
        <ele>52.2</ele>
        <time>2022-05-11T12:33:01Z</time>
      </trkpt>
      <trkpt lat="49.75742" lon="2.15669">
        <ele>52.2</ele>
        <time>2022-05-11T12:33:02Z</time>
      </trkpt>
      <trkpt lat="49.75741" lon="2.15668">
        <ele>52.2</ele>
        <time>2022-05-11T12:33:03Z</time>
      </trkpt>
      <trkpt lat="49.75739" lon="2.15668">
        <ele>52.3</ele>
        <time>2022-05-11T12:33:04Z</time>
      </trkpt>
      <trkpt lat="49.75738" lon="2.15667">
        <ele>52.3</ele>
        <time>2022-05-11T12:33:05Z</time>
      </trkpt>
      <trkpt lat="49.75737" lon="2.15666">
        <ele>52.3</ele>
        <time>2022-05-11T12:33:06Z</time>
      </trkpt>
      <trkpt lat="49.75735" lon="2.15665">
        <ele>52.3</ele>
        <time>2022-05-11T12:33:08Z</time>
      </trkpt>
      <trkpt lat="49.75734" lon="2.15664">
        <ele>52.3</ele>
        <time>2022-05-11T12:33:09Z</time>
      </trkpt>
      <trkpt lat="49.75732" lon="2.15663">
        <ele>52.3</ele>
        <time>2022-05-11T12:33:10Z</time>
      </trkpt>
      <trkpt lat="49.75731" lon="2.15662">
        <ele>52.3</ele>
        <time>2022-05-11T12:33:11Z</time>
      </trkpt>
      <trkpt lat="49.7573" lon="2.15661">
        <ele>52.3</ele>
        <time>2022-05-11T12:33:12Z</time>
      </trkpt>
      <trkpt lat="49.75728" lon="2.1566">
        <ele>52.3</ele>
        <time>2022-05-11T12:33:13Z</time>
      </trkpt>
      <trkpt lat="49.75727" lon="2.15659">
        <ele>52.3</ele>
        <time>2022-05-11T12:33:14Z</time>
      </trkpt>
      <trkpt lat="49.75726" lon="2.15658">
        <ele>52.2</ele>
        <time>2022-05-11T12:33:16Z</time>
      </trkpt>
      <trkpt lat="49.75725" lon="2.15657">
        <ele>52.2</ele>
        <time>2022-05-11T12:33:17Z</time>
      </trkpt>
      <trkpt lat="49.75723" lon="2.15657">
        <ele>52.2</ele>
        <time>2022-05-11T12:33:18Z</time>
      </trkpt>
      <trkpt lat="49.75722" lon="2.15656">
        <ele>52.2</ele>
        <time>2022-05-11T12:33:19Z</time>
      </trkpt>
      <trkpt lat="49.7572" lon="2.15654">
        <ele>52.2</ele>
        <time>2022-05-11T12:33:20Z</time>
      </trkpt>
      <trkpt lat="49.75719" lon="2.15653">
        <ele>52.2</ele>
        <time>2022-05-11T12:33:21Z</time>
      </trkpt>
      <trkpt lat="49.75718" lon="2.15652">
        <ele>52.2</ele>
        <time>2022-05-11T12:33:22Z</time>
      </trkpt>
      <trkpt lat="49.75716" lon="2.1565">
        <ele>52.2</ele>
        <time>2022-05-11T12:33:23Z</time>
      </trkpt>
      <trkpt lat="49.75715" lon="2.15648">
        <ele>52.2</ele>
        <time>2022-05-11T12:33:25Z</time>
      </trkpt>
      <trkpt lat="49.75714" lon="2.15647">
        <ele>52.2</ele>
        <time>2022-05-11T12:33:26Z</time>
      </trkpt>
      <trkpt lat="49.75713" lon="2.15646">
        <ele>52.2</ele>
        <time>2022-05-11T12:33:27Z</time>
      </trkpt>
      <trkpt lat="49.75712" lon="2.15645">
        <ele>52.2</ele>
        <time>2022-05-11T12:33:28Z</time>
      </trkpt>
      <trkpt lat="49.75712" lon="2.15644">
        <ele>52.2</ele>
        <time>2022-05-11T12:33:29Z</time>
      </trkpt>
      <trkpt lat="49.75711" lon="2.15642">
        <ele>52.2</ele>
        <time>2022-05-11T12:33:30Z</time>
      </trkpt>
      <trkpt lat="49.75712" lon="2.15641">
        <ele>52.2</ele>
        <time>2022-05-11T12:33:31Z</time>
      </trkpt>
      <trkpt lat="49.75711" lon="2.15638">
        <ele>52.2</ele>
        <time>2022-05-11T12:33:32Z</time>
      </trkpt>
      <trkpt lat="49.75711" lon="2.15637">
        <ele>52.1</ele>
        <time>2022-05-11T12:33:34Z</time>
      </trkpt>
      <trkpt lat="49.7571" lon="2.15636">
        <ele>52.1</ele>
        <time>2022-05-11T12:33:35Z</time>
      </trkpt>
      <trkpt lat="49.7571" lon="2.15634">
        <ele>52.1</ele>
        <time>2022-05-11T12:33:36Z</time>
      </trkpt>
      <trkpt lat="49.75709" lon="2.15632">
        <ele>52.1</ele>
        <time>2022-05-11T12:33:37Z</time>
      </trkpt>
      <trkpt lat="49.75708" lon="2.15631">
        <ele>52.1</ele>
        <time>2022-05-11T12:33:38Z</time>
      </trkpt>
      <trkpt lat="49.75708" lon="2.1563">
        <ele>52.1</ele>
        <time>2022-05-11T12:33:39Z</time>
      </trkpt>
      <trkpt lat="49.75707" lon="2.15629">
        <ele>52.1</ele>
        <time>2022-05-11T12:33:40Z</time>
      </trkpt>
      <trkpt lat="49.75706" lon="2.15628">
        <ele>52.1</ele>
        <time>2022-05-11T12:33:42Z</time>
      </trkpt>
      <trkpt lat="49.75705" lon="2.15627">
        <ele>52.1</ele>
        <time>2022-05-11T12:33:43Z</time>
      </trkpt>
      <trkpt lat="49.75704" lon="2.15627">
        <ele>52.1</ele>
        <time>2022-05-11T12:33:44Z</time>
      </trkpt>
      <trkpt lat="49.75703" lon="2.15626">
        <ele>52.1</ele>
        <time>2022-05-11T12:33:45Z</time>
      </trkpt>
      <trkpt lat="49.75702" lon="2.15625">
        <ele>52.1</ele>
        <time>2022-05-11T12:33:46Z</time>
      </trkpt>
      <trkpt lat="49.75701" lon="2.15624">
        <ele>52.1</ele>
        <time>2022-05-11T12:33:47Z</time>
      </trkpt>
      <trkpt lat="49.757" lon="2.15623">
        <ele>52.1</ele>
        <time>2022-05-11T12:33:48Z</time>
      </trkpt>
      <trkpt lat="49.75699" lon="2.15622">
        <ele>52.1</ele>
        <time>2022-05-11T12:33:49Z</time>
      </trkpt>
      <trkpt lat="49.75698" lon="2.15621">
        <ele>52.1</ele>
        <time>2022-05-11T12:33:50Z</time>
      </trkpt>
      <trkpt lat="49.75697" lon="2.1562">
        <ele>52.1</ele>
        <time>2022-05-11T12:33:51Z</time>
      </trkpt>
      <trkpt lat="49.75697" lon="2.1562">
        <ele>52.1</ele>
        <time>2022-05-11T12:33:52Z</time>
      </trkpt>
      <trkpt lat="49.75695" lon="2.15618">
        <ele>52.1</ele>
        <time>2022-05-11T12:33:54Z</time>
      </trkpt>
      <trkpt lat="49.75694" lon="2.15617">
        <ele>52.1</ele>
        <time>2022-05-11T12:33:55Z</time>
      </trkpt>
      <trkpt lat="49.75693" lon="2.15616">
        <ele>52.1</ele>
        <time>2022-05-11T12:33:56Z</time>
      </trkpt>
      <trkpt lat="49.75692" lon="2.15616">
        <ele>52.1</ele>
        <time>2022-05-11T12:33:57Z</time>
      </trkpt>
      <trkpt lat="49.75692" lon="2.15615">
        <ele>52.1</ele>
        <time>2022-05-11T12:33:58Z</time>
      </trkpt>
      <trkpt lat="49.75691" lon="2.15615">
        <ele>52.1</ele>
        <time>2022-05-11T12:33:59Z</time>
      </trkpt>
      <trkpt lat="49.7569" lon="2.15614">
        <ele>52.1</ele>
        <time>2022-05-11T12:34:00Z</time>
      </trkpt>
      <trkpt lat="49.75689" lon="2.15613">
        <ele>52.1</ele>
        <time>2022-05-11T12:34:02Z</time>
      </trkpt>
      <trkpt lat="49.75688" lon="2.15612">
        <ele>52.1</ele>
        <time>2022-05-11T12:34:03Z</time>
      </trkpt>
      <trkpt lat="49.75687" lon="2.15611">
        <ele>52.1</ele>
        <time>2022-05-11T12:34:04Z</time>
      </trkpt>
      <trkpt lat="49.75686" lon="2.1561">
        <ele>52.1</ele>
        <time>2022-05-11T12:34:05Z</time>
      </trkpt>
      <trkpt lat="49.75685" lon="2.15607">
        <ele>52.1</ele>
        <time>2022-05-11T12:34:06Z</time>
      </trkpt>
      <trkpt lat="49.75684" lon="2.15606">
        <ele>52.1</ele>
        <time>2022-05-11T12:34:07Z</time>
      </trkpt>
      <trkpt lat="49.75684" lon="2.15605">
        <ele>52.1</ele>
        <time>2022-05-11T12:34:08Z</time>
      </trkpt>
      <trkpt lat="49.75682" lon="2.15603">
        <ele>52.1</ele>
        <time>2022-05-11T12:34:10Z</time>
      </trkpt>
      <trkpt lat="49.75681" lon="2.15603">
        <ele>52.1</ele>
        <time>2022-05-11T12:34:11Z</time>
      </trkpt>
      <trkpt lat="49.7568" lon="2.15601">
        <ele>52.1</ele>
        <time>2022-05-11T12:34:12Z</time>
      </trkpt>
      <trkpt lat="49.75679" lon="2.156">
        <ele>52.1</ele>
        <time>2022-05-11T12:34:13Z</time>
      </trkpt>
      <trkpt lat="49.75678" lon="2.15599">
        <ele>52.1</ele>
        <time>2022-05-11T12:34:14Z</time>
      </trkpt>
      <trkpt lat="49.75678" lon="2.15598">
        <ele>52.1</ele>
        <time>2022-05-11T12:34:15Z</time>
      </trkpt>
      <trkpt lat="49.75677" lon="2.15597">
        <ele>52.1</ele>
        <time>2022-05-11T12:34:16Z</time>
      </trkpt>
      <trkpt lat="49.75675" lon="2.15595">
        <ele>52.1</ele>
        <time>2022-05-11T12:34:18Z</time>
      </trkpt>
      <trkpt lat="49.75675" lon="2.15594">
        <ele>52.1</ele>
        <time>2022-05-11T12:34:19Z</time>
      </trkpt>
      <trkpt lat="49.75674" lon="2.15593">
        <ele>52.1</ele>
        <time>2022-05-11T12:34:20Z</time>
      </trkpt>
      <trkpt lat="49.75673" lon="2.1559">
        <ele>52.1</ele>
        <time>2022-05-11T12:34:21Z</time>
      </trkpt>
      <trkpt lat="49.75672" lon="2.15589">
        <ele>52.1</ele>
        <time>2022-05-11T12:34:22Z</time>
      </trkpt>
      <trkpt lat="49.75672" lon="2.15588">
        <ele>52.1</ele>
        <time>2022-05-11T12:34:23Z</time>
      </trkpt>
      <trkpt lat="49.75671" lon="2.15587">
        <ele>52.1</ele>
        <time>2022-05-11T12:34:24Z</time>
      </trkpt>
      <trkpt lat="49.7567" lon="2.15585">
        <ele>52.1</ele>
        <time>2022-05-11T12:34:25Z</time>
      </trkpt>
      <trkpt lat="49.75669" lon="2.15584">
        <ele>52.1</ele>
        <time>2022-05-11T12:34:26Z</time>
      </trkpt>
      <trkpt lat="49.75668" lon="2.15582">
        <ele>52.1</ele>
        <time>2022-05-11T12:34:28Z</time>
      </trkpt>
      <trkpt lat="49.75667" lon="2.15581">
        <ele>52.2</ele>
        <time>2022-05-11T12:34:29Z</time>
      </trkpt>
      <trkpt lat="49.75666" lon="2.1558">
        <ele>52.2</ele>
        <time>2022-05-11T12:34:30Z</time>
      </trkpt>
      <trkpt lat="49.75666" lon="2.15579">
        <ele>52.2</ele>
        <time>2022-05-11T12:34:31Z</time>
      </trkpt>
      <trkpt lat="49.75665" lon="2.15577">
        <ele>52.2</ele>
        <time>2022-05-11T12:34:32Z</time>
      </trkpt>
      <trkpt lat="49.75664" lon="2.15576">
        <ele>52.2</ele>
        <time>2022-05-11T12:34:33Z</time>
      </trkpt>
      <trkpt lat="49.75663" lon="2.15574">
        <ele>52.2</ele>
        <time>2022-05-11T12:34:34Z</time>
      </trkpt>
      <trkpt lat="49.75663" lon="2.15573">
        <ele>52.2</ele>
        <time>2022-05-11T12:34:36Z</time>
      </trkpt>
      <trkpt lat="49.75662" lon="2.15572">
        <ele>52.2</ele>
        <time>2022-05-11T12:34:37Z</time>
      </trkpt>
      <trkpt lat="49.75661" lon="2.1557">
        <ele>52.2</ele>
        <time>2022-05-11T12:34:38Z</time>
      </trkpt>
      <trkpt lat="49.75661" lon="2.15569">
        <ele>52.2</ele>
        <time>2022-05-11T12:34:39Z</time>
      </trkpt>
      <trkpt lat="49.7566" lon="2.15568">
        <ele>52.2</ele>
        <time>2022-05-11T12:34:40Z</time>
      </trkpt>
      <trkpt lat="49.75659" lon="2.15567">
        <ele>52.2</ele>
        <time>2022-05-11T12:34:41Z</time>
      </trkpt>
      <trkpt lat="49.75658" lon="2.15565">
        <ele>52.2</ele>
        <time>2022-05-11T12:34:42Z</time>
      </trkpt>
      <trkpt lat="49.75657" lon="2.15563">
        <ele>52.2</ele>
        <time>2022-05-11T12:34:43Z</time>
      </trkpt>
      <trkpt lat="49.75656" lon="2.15562">
        <ele>52.3</ele>
        <time>2022-05-11T12:34:45Z</time>
      </trkpt>
      <trkpt lat="49.75656" lon="2.1556">
        <ele>52.3</ele>
        <time>2022-05-11T12:34:46Z</time>
      </trkpt>
      <trkpt lat="49.75654" lon="2.15558">
        <ele>52.3</ele>
        <time>2022-05-11T12:34:47Z</time>
      </trkpt>
      <trkpt lat="49.75653" lon="2.15558">
        <ele>52.3</ele>
        <time>2022-05-11T12:34:48Z</time>
      </trkpt>
      <trkpt lat="49.75653" lon="2.15557">
        <ele>52.3</ele>
        <time>2022-05-11T12:34:49Z</time>
      </trkpt>
      <trkpt lat="49.75651" lon="2.15555">
        <ele>52.3</ele>
        <time>2022-05-11T12:34:50Z</time>
      </trkpt>
      <trkpt lat="49.7565" lon="2.15554">
        <ele>52.3</ele>
        <time>2022-05-11T12:34:51Z</time>
      </trkpt>
      <trkpt lat="49.75649" lon="2.15553">
        <ele>52.3</ele>
        <time>2022-05-11T12:34:52Z</time>
      </trkpt>
      <trkpt lat="49.75648" lon="2.15552">
        <ele>52.3</ele>
        <time>2022-05-11T12:34:54Z</time>
      </trkpt>
      <trkpt lat="49.75646" lon="2.15551">
        <ele>52.4</ele>
        <time>2022-05-11T12:34:55Z</time>
      </trkpt>
      <trkpt lat="49.75645" lon="2.1555">
        <ele>52.4</ele>
        <time>2022-05-11T12:34:56Z</time>
      </trkpt>
      <trkpt lat="49.75644" lon="2.15548">
        <ele>52.4</ele>
        <time>2022-05-11T12:34:57Z</time>
      </trkpt>
      <trkpt lat="49.75642" lon="2.15547">
        <ele>52.4</ele>
        <time>2022-05-11T12:34:58Z</time>
      </trkpt>
      <trkpt lat="49.75641" lon="2.15546">
        <ele>52.4</ele>
        <time>2022-05-11T12:34:59Z</time>
      </trkpt>
      <trkpt lat="49.7564" lon="2.15545">
        <ele>52.4</ele>
        <time>2022-05-11T12:35:01Z</time>
      </trkpt>
      <trkpt lat="49.75638" lon="2.15544">
        <ele>52.5</ele>
        <time>2022-05-11T12:35:02Z</time>
      </trkpt>
      <trkpt lat="49.75637" lon="2.15543">
        <ele>52.5</ele>
        <time>2022-05-11T12:35:03Z</time>
      </trkpt>
      <trkpt lat="49.75636" lon="2.15543">
        <ele>52.5</ele>
        <time>2022-05-11T12:35:04Z</time>
      </trkpt>
      <trkpt lat="49.75635" lon="2.15542">
        <ele>52.5</ele>
        <time>2022-05-11T12:35:05Z</time>
      </trkpt>
      <trkpt lat="49.75634" lon="2.1554">
        <ele>52.5</ele>
        <time>2022-05-11T12:35:06Z</time>
      </trkpt>
      <trkpt lat="49.75633" lon="2.1554">
        <ele>52.5</ele>
        <time>2022-05-11T12:35:08Z</time>
      </trkpt>
      <trkpt lat="49.75632" lon="2.15539">
        <ele>52.5</ele>
        <time>2022-05-11T12:35:09Z</time>
      </trkpt>
      <trkpt lat="49.75631" lon="2.15538">
        <ele>52.5</ele>
        <time>2022-05-11T12:35:10Z</time>
      </trkpt>
      <trkpt lat="49.7563" lon="2.15537">
        <ele>52.6</ele>
        <time>2022-05-11T12:35:11Z</time>
      </trkpt>
      <trkpt lat="49.75628" lon="2.15535">
        <ele>52.6</ele>
        <time>2022-05-11T12:35:13Z</time>
      </trkpt>
      <trkpt lat="49.75627" lon="2.15534">
        <ele>52.6</ele>
        <time>2022-05-11T12:35:14Z</time>
      </trkpt>
      <trkpt lat="49.75626" lon="2.15532">
        <ele>52.6</ele>
        <time>2022-05-11T12:35:16Z</time>
      </trkpt>
      <trkpt lat="49.75625" lon="2.15532">
        <ele>52.6</ele>
        <time>2022-05-11T12:35:17Z</time>
      </trkpt>
      <trkpt lat="49.75623" lon="2.15531">
        <ele>52.6</ele>
        <time>2022-05-11T12:35:18Z</time>
      </trkpt>
      <trkpt lat="49.75622" lon="2.1553">
        <ele>52.6</ele>
        <time>2022-05-11T12:35:19Z</time>
      </trkpt>
      <trkpt lat="49.75621" lon="2.1553">
        <ele>52.6</ele>
        <time>2022-05-11T12:35:20Z</time>
      </trkpt>
      <trkpt lat="49.7562" lon="2.15529">
        <ele>52.6</ele>
        <time>2022-05-11T12:35:21Z</time>
      </trkpt>
      <trkpt lat="49.75618" lon="2.15529">
        <ele>52.6</ele>
        <time>2022-05-11T12:35:23Z</time>
      </trkpt>
      <trkpt lat="49.75618" lon="2.15528">
        <ele>52.7</ele>
        <time>2022-05-11T12:35:24Z</time>
      </trkpt>
      <trkpt lat="49.75617" lon="2.15527">
        <ele>52.7</ele>
        <time>2022-05-11T12:35:25Z</time>
      </trkpt>
      <trkpt lat="49.75616" lon="2.15526">
        <ele>52.7</ele>
        <time>2022-05-11T12:35:26Z</time>
      </trkpt>
      <trkpt lat="49.75616" lon="2.15524">
        <ele>52.7</ele>
        <time>2022-05-11T12:35:27Z</time>
      </trkpt>
      <trkpt lat="49.75616" lon="2.15523">
        <ele>52.7</ele>
        <time>2022-05-11T12:35:28Z</time>
      </trkpt>
      <trkpt lat="49.75615" lon="2.15522">
        <ele>52.7</ele>
        <time>2022-05-11T12:35:29Z</time>
      </trkpt>
      <trkpt lat="49.75614" lon="2.15522">
        <ele>52.7</ele>
        <time>2022-05-11T12:35:30Z</time>
      </trkpt>
      <trkpt lat="49.75614" lon="2.15521">
        <ele>52.7</ele>
        <time>2022-05-11T12:35:31Z</time>
      </trkpt>
      <trkpt lat="49.75615" lon="2.1552">
        <ele>52.7</ele>
        <time>2022-05-11T12:35:32Z</time>
      </trkpt>
      <trkpt lat="49.75615" lon="2.15519">
        <ele>52.7</ele>
        <time>2022-05-11T12:35:34Z</time>
      </trkpt>
      <trkpt lat="49.75615" lon="2.15519">
        <ele>52.7</ele>
        <time>2022-05-11T12:35:35Z</time>
      </trkpt>
      <trkpt lat="49.75614" lon="2.15518">
        <ele>52.7</ele>
        <time>2022-05-11T12:35:36Z</time>
      </trkpt>
      <trkpt lat="49.75613" lon="2.15517">
        <ele>52.7</ele>
        <time>2022-05-11T12:35:37Z</time>
      </trkpt>
      <trkpt lat="49.75613" lon="2.15517">
        <ele>52.7</ele>
        <time>2022-05-11T12:35:38Z</time>
      </trkpt>
      <trkpt lat="49.75613" lon="2.15517">
        <ele>52.7</ele>
        <time>2022-05-11T12:35:39Z</time>
      </trkpt>
      <trkpt lat="49.75613" lon="2.15517">
        <ele>52.7</ele>
        <time>2022-05-11T12:35:40Z</time>
      </trkpt>
      <trkpt lat="49.75612" lon="2.15516">
        <ele>52.7</ele>
        <time>2022-05-11T12:35:41Z</time>
      </trkpt>
      <trkpt lat="49.75612" lon="2.15516">
        <ele>52.7</ele>
        <time>2022-05-11T12:35:43Z</time>
      </trkpt>
      <trkpt lat="49.75611" lon="2.15516">
        <ele>52.7</ele>
        <time>2022-05-11T12:35:44Z</time>
      </trkpt>
      <trkpt lat="49.7561" lon="2.15515">
        <ele>52.7</ele>
        <time>2022-05-11T12:35:45Z</time>
      </trkpt>
      <trkpt lat="49.75609" lon="2.15514">
        <ele>52.7</ele>
        <time>2022-05-11T12:35:46Z</time>
      </trkpt>
      <trkpt lat="49.75609" lon="2.15514">
        <ele>52.7</ele>
        <time>2022-05-11T12:35:47Z</time>
      </trkpt>
      <trkpt lat="49.75611" lon="2.15514">
        <ele>52.7</ele>
        <time>2022-05-11T12:35:49Z</time>
      </trkpt>
      <trkpt lat="49.7561" lon="2.15512">
        <ele>52.7</ele>
        <time>2022-05-11T12:35:50Z</time>
      </trkpt>
      <trkpt lat="49.75609" lon="2.15511">
        <ele>52.7</ele>
        <time>2022-05-11T12:35:51Z</time>
      </trkpt>
      <trkpt lat="49.75608" lon="2.15509">
        <ele>52.7</ele>
        <time>2022-05-11T12:35:52Z</time>
      </trkpt>
      <trkpt lat="49.75606" lon="2.15508">
        <ele>52.7</ele>
        <time>2022-05-11T12:35:53Z</time>
      </trkpt>
      <trkpt lat="49.75605" lon="2.15508">
        <ele>52.7</ele>
        <time>2022-05-11T12:35:54Z</time>
      </trkpt>
      <trkpt lat="49.75604" lon="2.15507">
        <ele>52.7</ele>
        <time>2022-05-11T12:35:55Z</time>
      </trkpt>
      <trkpt lat="49.75602" lon="2.15505">
        <ele>52.7</ele>
        <time>2022-05-11T12:35:57Z</time>
      </trkpt>
      <trkpt lat="49.75601" lon="2.15505">
        <ele>52.7</ele>
        <time>2022-05-11T12:35:58Z</time>
      </trkpt>
      <trkpt lat="49.756" lon="2.15504">
        <ele>52.7</ele>
        <time>2022-05-11T12:35:59Z</time>
      </trkpt>
      <trkpt lat="49.75598" lon="2.15503">
        <ele>52.7</ele>
        <time>2022-05-11T12:36:00Z</time>
      </trkpt>
      <trkpt lat="49.75597" lon="2.15502">
        <ele>52.7</ele>
        <time>2022-05-11T12:36:01Z</time>
      </trkpt>
      <trkpt lat="49.75596" lon="2.155">
        <ele>52.7</ele>
        <time>2022-05-11T12:36:02Z</time>
      </trkpt>
      <trkpt lat="49.75595" lon="2.15499">
        <ele>52.7</ele>
        <time>2022-05-11T12:36:03Z</time>
      </trkpt>
      <trkpt lat="49.75594" lon="2.15498">
        <ele>52.7</ele>
        <time>2022-05-11T12:36:04Z</time>
      </trkpt>
      <trkpt lat="49.75592" lon="2.15496">
        <ele>52.7</ele>
        <time>2022-05-11T12:36:05Z</time>
      </trkpt>
      <trkpt lat="49.75591" lon="2.15494">
        <ele>52.7</ele>
        <time>2022-05-11T12:36:07Z</time>
      </trkpt>
      <trkpt lat="49.75589" lon="2.15492">
        <ele>52.7</ele>
        <time>2022-05-11T12:36:08Z</time>
      </trkpt>
      <trkpt lat="49.75588" lon="2.15491">
        <ele>52.7</ele>
        <time>2022-05-11T12:36:09Z</time>
      </trkpt>
      <trkpt lat="49.75587" lon="2.15491">
        <ele>52.7</ele>
        <time>2022-05-11T12:36:10Z</time>
      </trkpt>
      <trkpt lat="49.75585" lon="2.15489">
        <ele>52.8</ele>
        <time>2022-05-11T12:36:11Z</time>
      </trkpt>
      <trkpt lat="49.75584" lon="2.15488">
        <ele>52.8</ele>
        <time>2022-05-11T12:36:12Z</time>
      </trkpt>
      <trkpt lat="49.75583" lon="2.15487">
        <ele>52.8</ele>
        <time>2022-05-11T12:36:13Z</time>
      </trkpt>
      <trkpt lat="49.75582" lon="2.15485">
        <ele>52.8</ele>
        <time>2022-05-11T12:36:14Z</time>
      </trkpt>
      <trkpt lat="49.75581" lon="2.15484">
        <ele>52.8</ele>
        <time>2022-05-11T12:36:16Z</time>
      </trkpt>
      <trkpt lat="49.7558" lon="2.15483">
        <ele>52.8</ele>
        <time>2022-05-11T12:36:17Z</time>
      </trkpt>
      <trkpt lat="49.7558" lon="2.15482">
        <ele>52.8</ele>
        <time>2022-05-11T12:36:18Z</time>
      </trkpt>
      <trkpt lat="49.75579" lon="2.15481">
        <ele>52.8</ele>
        <time>2022-05-11T12:36:19Z</time>
      </trkpt>
      <trkpt lat="49.75578" lon="2.1548">
        <ele>52.8</ele>
        <time>2022-05-11T12:36:20Z</time>
      </trkpt>
      <trkpt lat="49.75576" lon="2.15479">
        <ele>52.8</ele>
        <time>2022-05-11T12:36:22Z</time>
      </trkpt>
      <trkpt lat="49.75575" lon="2.15478">
        <ele>52.8</ele>
        <time>2022-05-11T12:36:23Z</time>
      </trkpt>
      <trkpt lat="49.75574" lon="2.15477">
        <ele>52.8</ele>
        <time>2022-05-11T12:36:24Z</time>
      </trkpt>
      <trkpt lat="49.75571" lon="2.15476">
        <ele>52.8</ele>
        <time>2022-05-11T12:36:26Z</time>
      </trkpt>
      <trkpt lat="49.7557" lon="2.15475">
        <ele>52.8</ele>
        <time>2022-05-11T12:36:27Z</time>
      </trkpt>
      <trkpt lat="49.75568" lon="2.15474">
        <ele>52.8</ele>
        <time>2022-05-11T12:36:29Z</time>
      </trkpt>
      <trkpt lat="49.75567" lon="2.15473">
        <ele>52.8</ele>
        <time>2022-05-11T12:36:30Z</time>
      </trkpt>
      <trkpt lat="49.75566" lon="2.15472">
        <ele>52.8</ele>
        <time>2022-05-11T12:36:31Z</time>
      </trkpt>
      <trkpt lat="49.75564" lon="2.15472">
        <ele>52.7</ele>
        <time>2022-05-11T12:36:32Z</time>
      </trkpt>
      <trkpt lat="49.75562" lon="2.1547">
        <ele>52.7</ele>
        <time>2022-05-11T12:36:34Z</time>
      </trkpt>
      <trkpt lat="49.75561" lon="2.1547">
        <ele>52.7</ele>
        <time>2022-05-11T12:36:35Z</time>
      </trkpt>
      <trkpt lat="49.75559" lon="2.15469">
        <ele>52.7</ele>
        <time>2022-05-11T12:36:36Z</time>
      </trkpt>
      <trkpt lat="49.75558" lon="2.15468">
        <ele>52.7</ele>
        <time>2022-05-11T12:36:37Z</time>
      </trkpt>
      <trkpt lat="49.75557" lon="2.15467">
        <ele>52.7</ele>
        <time>2022-05-11T12:36:38Z</time>
      </trkpt>
      <trkpt lat="49.75555" lon="2.15466">
        <ele>52.7</ele>
        <time>2022-05-11T12:36:39Z</time>
      </trkpt>
      <trkpt lat="49.75554" lon="2.15465">
        <ele>52.7</ele>
        <time>2022-05-11T12:36:40Z</time>
      </trkpt>
      <trkpt lat="49.75553" lon="2.15465">
        <ele>52.7</ele>
        <time>2022-05-11T12:36:41Z</time>
      </trkpt>
      <trkpt lat="49.75551" lon="2.15464">
        <ele>52.7</ele>
        <time>2022-05-11T12:36:42Z</time>
      </trkpt>
      <trkpt lat="49.7555" lon="2.15463">
        <ele>52.7</ele>
        <time>2022-05-11T12:36:43Z</time>
      </trkpt>
      <trkpt lat="49.75548" lon="2.15463">
        <ele>52.7</ele>
        <time>2022-05-11T12:36:44Z</time>
      </trkpt>
      <trkpt lat="49.75546" lon="2.15462">
        <ele>52.7</ele>
        <time>2022-05-11T12:36:45Z</time>
      </trkpt>
      <trkpt lat="49.75544" lon="2.1546">
        <ele>52.7</ele>
        <time>2022-05-11T12:36:47Z</time>
      </trkpt>
      <trkpt lat="49.75543" lon="2.15459">
        <ele>52.6</ele>
        <time>2022-05-11T12:36:48Z</time>
      </trkpt>
      <trkpt lat="49.7554" lon="2.15457">
        <ele>52.6</ele>
        <time>2022-05-11T12:36:50Z</time>
      </trkpt>
      <trkpt lat="49.75539" lon="2.15456">
        <ele>52.6</ele>
        <time>2022-05-11T12:36:51Z</time>
      </trkpt>
      <trkpt lat="49.75537" lon="2.15454">
        <ele>52.6</ele>
        <time>2022-05-11T12:36:53Z</time>
      </trkpt>
      <trkpt lat="49.75535" lon="2.15452">
        <ele>52.6</ele>
        <time>2022-05-11T12:36:54Z</time>
      </trkpt>
      <trkpt lat="49.75534" lon="2.15451">
        <ele>52.6</ele>
        <time>2022-05-11T12:36:55Z</time>
      </trkpt>
      <trkpt lat="49.75533" lon="2.1545">
        <ele>52.6</ele>
        <time>2022-05-11T12:36:56Z</time>
      </trkpt>
      <trkpt lat="49.75532" lon="2.15449">
        <ele>52.6</ele>
        <time>2022-05-11T12:36:57Z</time>
      </trkpt>
      <trkpt lat="49.75531" lon="2.15447">
        <ele>52.6</ele>
        <time>2022-05-11T12:36:58Z</time>
      </trkpt>
      <trkpt lat="49.7553" lon="2.15446">
        <ele>52.6</ele>
        <time>2022-05-11T12:36:59Z</time>
      </trkpt>
      <trkpt lat="49.75529" lon="2.15444">
        <ele>52.6</ele>
        <time>2022-05-11T12:37:00Z</time>
      </trkpt>
      <trkpt lat="49.75527" lon="2.15443">
        <ele>52.7</ele>
        <time>2022-05-11T12:37:01Z</time>
      </trkpt>
      <trkpt lat="49.75526" lon="2.15442">
        <ele>52.7</ele>
        <time>2022-05-11T12:37:02Z</time>
      </trkpt>
      <trkpt lat="49.75525" lon="2.15439">
        <ele>52.7</ele>
        <time>2022-05-11T12:37:03Z</time>
      </trkpt>
      <trkpt lat="49.75524" lon="2.15438">
        <ele>52.7</ele>
        <time>2022-05-11T12:37:04Z</time>
      </trkpt>
      <trkpt lat="49.75523" lon="2.15436">
        <ele>52.7</ele>
        <time>2022-05-11T12:37:05Z</time>
      </trkpt>
      <trkpt lat="49.75522" lon="2.15435">
        <ele>52.7</ele>
        <time>2022-05-11T12:37:06Z</time>
      </trkpt>
      <trkpt lat="49.75521" lon="2.15433">
        <ele>52.7</ele>
        <time>2022-05-11T12:37:07Z</time>
      </trkpt>
      <trkpt lat="49.7552" lon="2.15429">
        <ele>52.7</ele>
        <time>2022-05-11T12:37:08Z</time>
      </trkpt>
      <trkpt lat="49.75519" lon="2.15428">
        <ele>52.7</ele>
        <time>2022-05-11T12:37:10Z</time>
      </trkpt>
      <trkpt lat="49.75518" lon="2.15427">
        <ele>52.7</ele>
        <time>2022-05-11T12:37:11Z</time>
      </trkpt>
      <trkpt lat="49.75518" lon="2.15426">
        <ele>52.7</ele>
        <time>2022-05-11T12:37:12Z</time>
      </trkpt>
      <trkpt lat="49.75517" lon="2.15425">
        <ele>52.7</ele>
        <time>2022-05-11T12:37:13Z</time>
      </trkpt>
      <trkpt lat="49.75515" lon="2.15422">
        <ele>52.7</ele>
        <time>2022-05-11T12:37:14Z</time>
      </trkpt>
      <trkpt lat="49.75515" lon="2.15421">
        <ele>52.7</ele>
        <time>2022-05-11T12:37:15Z</time>
      </trkpt>
      <trkpt lat="49.75514" lon="2.1542">
        <ele>52.8</ele>
        <time>2022-05-11T12:37:16Z</time>
      </trkpt>
      <trkpt lat="49.75514" lon="2.15418">
        <ele>52.8</ele>
        <time>2022-05-11T12:37:17Z</time>
      </trkpt>
      <trkpt lat="49.75513" lon="2.15417">
        <ele>52.8</ele>
        <time>2022-05-11T12:37:19Z</time>
      </trkpt>
      <trkpt lat="49.75512" lon="2.15415">
        <ele>52.8</ele>
        <time>2022-05-11T12:37:20Z</time>
      </trkpt>
      <trkpt lat="49.75511" lon="2.15413">
        <ele>52.8</ele>
        <time>2022-05-11T12:37:21Z</time>
      </trkpt>
      <trkpt lat="49.75511" lon="2.15412">
        <ele>52.8</ele>
        <time>2022-05-11T12:37:22Z</time>
      </trkpt>
      <trkpt lat="49.7551" lon="2.15411">
        <ele>52.8</ele>
        <time>2022-05-11T12:37:24Z</time>
      </trkpt>
      <trkpt lat="49.7551" lon="2.1541">
        <ele>52.8</ele>
        <time>2022-05-11T12:37:25Z</time>
      </trkpt>
      <trkpt lat="49.75509" lon="2.15409">
        <ele>52.8</ele>
        <time>2022-05-11T12:37:26Z</time>
      </trkpt>
      <trkpt lat="49.75509" lon="2.15408">
        <ele>52.8</ele>
        <time>2022-05-11T12:37:27Z</time>
      </trkpt>
      <trkpt lat="49.75509" lon="2.15407">
        <ele>52.8</ele>
        <time>2022-05-11T12:37:28Z</time>
      </trkpt>
      <trkpt lat="49.75508" lon="2.15406">
        <ele>52.8</ele>
        <time>2022-05-11T12:37:29Z</time>
      </trkpt>
      <trkpt lat="49.75507" lon="2.15405">
        <ele>52.8</ele>
        <time>2022-05-11T12:37:30Z</time>
      </trkpt>
      <trkpt lat="49.75506" lon="2.15404">
        <ele>52.8</ele>
        <time>2022-05-11T12:37:31Z</time>
      </trkpt>
      <trkpt lat="49.75505" lon="2.15403">
        <ele>52.8</ele>
        <time>2022-05-11T12:37:33Z</time>
      </trkpt>
      <trkpt lat="49.75504" lon="2.15402">
        <ele>52.8</ele>
        <time>2022-05-11T12:37:34Z</time>
      </trkpt>
      <trkpt lat="49.75504" lon="2.15402">
        <ele>52.8</ele>
        <time>2022-05-11T12:37:35Z</time>
      </trkpt>
      <trkpt lat="49.75503" lon="2.15401">
        <ele>52.8</ele>
        <time>2022-05-11T12:37:36Z</time>
      </trkpt>
      <trkpt lat="49.75502" lon="2.154">
        <ele>52.8</ele>
        <time>2022-05-11T12:37:38Z</time>
      </trkpt>
      <trkpt lat="49.75501" lon="2.15399">
        <ele>52.9</ele>
        <time>2022-05-11T12:37:39Z</time>
      </trkpt>
      <trkpt lat="49.755" lon="2.15398">
        <ele>52.9</ele>
        <time>2022-05-11T12:37:40Z</time>
      </trkpt>
      <trkpt lat="49.75499" lon="2.15397">
        <ele>52.9</ele>
        <time>2022-05-11T12:37:41Z</time>
      </trkpt>
      <trkpt lat="49.75498" lon="2.15397">
        <ele>52.9</ele>
        <time>2022-05-11T12:37:42Z</time>
      </trkpt>
      <trkpt lat="49.75497" lon="2.15396">
        <ele>52.9</ele>
        <time>2022-05-11T12:37:43Z</time>
      </trkpt>
      <trkpt lat="49.75496" lon="2.15396">
        <ele>52.9</ele>
        <time>2022-05-11T12:37:44Z</time>
      </trkpt>
      <trkpt lat="49.75495" lon="2.15395">
        <ele>52.9</ele>
        <time>2022-05-11T12:37:45Z</time>
      </trkpt>
      <trkpt lat="49.75493" lon="2.15394">
        <ele>52.9</ele>
        <time>2022-05-11T12:37:47Z</time>
      </trkpt>
      <trkpt lat="49.75492" lon="2.15394">
        <ele>52.9</ele>
        <time>2022-05-11T12:37:48Z</time>
      </trkpt>
      <trkpt lat="49.75491" lon="2.15393">
        <ele>52.9</ele>
        <time>2022-05-11T12:37:49Z</time>
      </trkpt>
      <trkpt lat="49.75489" lon="2.15392">
        <ele>52.9</ele>
        <time>2022-05-11T12:37:50Z</time>
      </trkpt>
      <trkpt lat="49.75488" lon="2.15391">
        <ele>52.9</ele>
        <time>2022-05-11T12:37:51Z</time>
      </trkpt>
      <trkpt lat="49.75486" lon="2.15391">
        <ele>52.9</ele>
        <time>2022-05-11T12:37:52Z</time>
      </trkpt>
      <trkpt lat="49.75485" lon="2.1539">
        <ele>52.8</ele>
        <time>2022-05-11T12:37:53Z</time>
      </trkpt>
      <trkpt lat="49.75483" lon="2.15389">
        <ele>52.8</ele>
        <time>2022-05-11T12:37:54Z</time>
      </trkpt>
      <trkpt lat="49.7548" lon="2.15387">
        <ele>52.8</ele>
        <time>2022-05-11T12:37:56Z</time>
      </trkpt>
      <trkpt lat="49.75479" lon="2.15387">
        <ele>52.8</ele>
        <time>2022-05-11T12:37:57Z</time>
      </trkpt>
      <trkpt lat="49.75476" lon="2.15385">
        <ele>52.8</ele>
        <time>2022-05-11T12:37:58Z</time>
      </trkpt>
      <trkpt lat="49.75475" lon="2.15385">
        <ele>52.8</ele>
        <time>2022-05-11T12:37:59Z</time>
      </trkpt>
      <trkpt lat="49.75472" lon="2.15384">
        <ele>52.8</ele>
        <time>2022-05-11T12:38:01Z</time>
      </trkpt>
      <trkpt lat="49.75471" lon="2.15384">
        <ele>52.8</ele>
        <time>2022-05-11T12:38:02Z</time>
      </trkpt>
      <trkpt lat="49.75468" lon="2.15383">
        <ele>52.8</ele>
        <time>2022-05-11T12:38:03Z</time>
      </trkpt>
      <trkpt lat="49.75465" lon="2.15383">
        <ele>52.7</ele>
        <time>2022-05-11T12:38:04Z</time>
      </trkpt>
      <trkpt lat="49.75464" lon="2.15382">
        <ele>52.7</ele>
        <time>2022-05-11T12:38:05Z</time>
      </trkpt>
      <trkpt lat="49.75461" lon="2.15382">
        <ele>52.7</ele>
        <time>2022-05-11T12:38:06Z</time>
      </trkpt>
      <trkpt lat="49.7546" lon="2.15382">
        <ele>52.7</ele>
        <time>2022-05-11T12:38:07Z</time>
      </trkpt>
      <trkpt lat="49.75458" lon="2.15382">
        <ele>52.7</ele>
        <time>2022-05-11T12:38:09Z</time>
      </trkpt>
      <trkpt lat="49.75457" lon="2.15382">
        <ele>52.7</ele>
        <time>2022-05-11T12:38:10Z</time>
      </trkpt>
      <trkpt lat="49.75454" lon="2.15382">
        <ele>52.7</ele>
        <time>2022-05-11T12:38:11Z</time>
      </trkpt>
      <trkpt lat="49.75453" lon="2.15382">
        <ele>52.7</ele>
        <time>2022-05-11T12:38:12Z</time>
      </trkpt>
      <trkpt lat="49.75452" lon="2.15382">
        <ele>52.7</ele>
        <time>2022-05-11T12:38:13Z</time>
      </trkpt>
      <trkpt lat="49.7545" lon="2.15382">
        <ele>52.7</ele>
        <time>2022-05-11T12:38:14Z</time>
      </trkpt>
      <trkpt lat="49.75449" lon="2.15382">
        <ele>52.7</ele>
        <time>2022-05-11T12:38:15Z</time>
      </trkpt>
      <trkpt lat="49.75447" lon="2.15382">
        <ele>52.7</ele>
        <time>2022-05-11T12:38:16Z</time>
      </trkpt>
      <trkpt lat="49.75446" lon="2.15382">
        <ele>52.7</ele>
        <time>2022-05-11T12:38:17Z</time>
      </trkpt>
      <trkpt lat="49.75445" lon="2.15382">
        <ele>52.7</ele>
        <time>2022-05-11T12:38:18Z</time>
      </trkpt>
      <trkpt lat="49.75443" lon="2.15382">
        <ele>52.7</ele>
        <time>2022-05-11T12:38:19Z</time>
      </trkpt>
      <trkpt lat="49.75441" lon="2.15383">
        <ele>52.7</ele>
        <time>2022-05-11T12:38:20Z</time>
      </trkpt>
      <trkpt lat="49.7544" lon="2.15382">
        <ele>52.7</ele>
        <time>2022-05-11T12:38:21Z</time>
      </trkpt>
      <trkpt lat="49.75438" lon="2.15382">
        <ele>52.7</ele>
        <time>2022-05-11T12:38:23Z</time>
      </trkpt>
      <trkpt lat="49.75437" lon="2.15382">
        <ele>52.8</ele>
        <time>2022-05-11T12:38:24Z</time>
      </trkpt>
      <trkpt lat="49.75435" lon="2.15381">
        <ele>52.8</ele>
        <time>2022-05-11T12:38:25Z</time>
      </trkpt>
      <trkpt lat="49.75434" lon="2.1538">
        <ele>52.8</ele>
        <time>2022-05-11T12:38:26Z</time>
      </trkpt>
      <trkpt lat="49.75431" lon="2.1538">
        <ele>52.8</ele>
        <time>2022-05-11T12:38:28Z</time>
      </trkpt>
      <trkpt lat="49.7543" lon="2.15379">
        <ele>52.8</ele>
        <time>2022-05-11T12:38:29Z</time>
      </trkpt>
      <trkpt lat="49.75428" lon="2.15379">
        <ele>52.8</ele>
        <time>2022-05-11T12:38:30Z</time>
      </trkpt>
      <trkpt lat="49.75427" lon="2.15379">
        <ele>52.8</ele>
        <time>2022-05-11T12:38:31Z</time>
      </trkpt>
      <trkpt lat="49.75426" lon="2.15378">
        <ele>52.8</ele>
        <time>2022-05-11T12:38:32Z</time>
      </trkpt>
      <trkpt lat="49.75424" lon="2.15378">
        <ele>52.8</ele>
        <time>2022-05-11T12:38:33Z</time>
      </trkpt>
      <trkpt lat="49.75423" lon="2.15378">
        <ele>52.8</ele>
        <time>2022-05-11T12:38:34Z</time>
      </trkpt>
      <trkpt lat="49.75422" lon="2.15378">
        <ele>52.8</ele>
        <time>2022-05-11T12:38:35Z</time>
      </trkpt>
      <trkpt lat="49.75421" lon="2.15378">
        <ele>52.8</ele>
        <time>2022-05-11T12:38:36Z</time>
      </trkpt>
      <trkpt lat="49.7542" lon="2.15378">
        <ele>52.8</ele>
        <time>2022-05-11T12:38:38Z</time>
      </trkpt>
      <trkpt lat="49.75419" lon="2.15378">
        <ele>52.8</ele>
        <time>2022-05-11T12:38:39Z</time>
      </trkpt>
      <trkpt lat="49.75418" lon="2.15379">
        <ele>52.8</ele>
        <time>2022-05-11T12:38:40Z</time>
      </trkpt>
      <trkpt lat="49.75417" lon="2.15379">
        <ele>52.8</ele>
        <time>2022-05-11T12:38:41Z</time>
      </trkpt>
      <trkpt lat="49.75416" lon="2.1538">
        <ele>52.8</ele>
        <time>2022-05-11T12:38:42Z</time>
      </trkpt>
      <trkpt lat="49.75416" lon="2.1538">
        <ele>52.8</ele>
        <time>2022-05-11T12:38:43Z</time>
      </trkpt>
      <trkpt lat="49.75415" lon="2.1538">
        <ele>52.8</ele>
        <time>2022-05-11T12:38:44Z</time>
      </trkpt>
      <trkpt lat="49.75415" lon="2.15381">
        <ele>52.8</ele>
        <time>2022-05-11T12:38:45Z</time>
      </trkpt>
      <trkpt lat="49.75414" lon="2.15381">
        <ele>52.8</ele>
        <time>2022-05-11T12:38:47Z</time>
      </trkpt>
      <trkpt lat="49.75413" lon="2.15381">
        <ele>52.8</ele>
        <time>2022-05-11T12:38:48Z</time>
      </trkpt>
      <trkpt lat="49.75412" lon="2.15382">
        <ele>52.8</ele>
        <time>2022-05-11T12:38:49Z</time>
      </trkpt>
      <trkpt lat="49.7541" lon="2.15382">
        <ele>52.8</ele>
        <time>2022-05-11T12:38:51Z</time>
      </trkpt>
      <trkpt lat="49.7541" lon="2.15382">
        <ele>52.8</ele>
        <time>2022-05-11T12:38:52Z</time>
      </trkpt>
      <trkpt lat="49.75409" lon="2.15382">
        <ele>52.8</ele>
        <time>2022-05-11T12:38:53Z</time>
      </trkpt>
      <trkpt lat="49.75408" lon="2.15382">
        <ele>52.8</ele>
        <time>2022-05-11T12:38:54Z</time>
      </trkpt>
      <trkpt lat="49.75407" lon="2.15381">
        <ele>52.8</ele>
        <time>2022-05-11T12:38:55Z</time>
      </trkpt>
      <trkpt lat="49.75406" lon="2.15381">
        <ele>52.8</ele>
        <time>2022-05-11T12:38:56Z</time>
      </trkpt>
      <trkpt lat="49.75405" lon="2.15381">
        <ele>52.8</ele>
        <time>2022-05-11T12:38:57Z</time>
      </trkpt>
      <trkpt lat="49.75404" lon="2.15381">
        <ele>52.8</ele>
        <time>2022-05-11T12:38:58Z</time>
      </trkpt>
      <trkpt lat="49.75403" lon="2.15381">
        <ele>52.8</ele>
        <time>2022-05-11T12:38:59Z</time>
      </trkpt>
      <trkpt lat="49.75402" lon="2.1538">
        <ele>52.8</ele>
        <time>2022-05-11T12:39:01Z</time>
      </trkpt>
      <trkpt lat="49.75401" lon="2.1538">
        <ele>52.8</ele>
        <time>2022-05-11T12:39:02Z</time>
      </trkpt>
      <trkpt lat="49.754" lon="2.1538">
        <ele>52.8</ele>
        <time>2022-05-11T12:39:03Z</time>
      </trkpt>
      <trkpt lat="49.75399" lon="2.1538">
        <ele>52.8</ele>
        <time>2022-05-11T12:39:04Z</time>
      </trkpt>
      <trkpt lat="49.75398" lon="2.1538">
        <ele>52.8</ele>
        <time>2022-05-11T12:39:05Z</time>
      </trkpt>
      <trkpt lat="49.75396" lon="2.15379">
        <ele>52.8</ele>
        <time>2022-05-11T12:39:06Z</time>
      </trkpt>
      <trkpt lat="49.75395" lon="2.15379">
        <ele>52.8</ele>
        <time>2022-05-11T12:39:07Z</time>
      </trkpt>
      <trkpt lat="49.75394" lon="2.15379">
        <ele>52.8</ele>
        <time>2022-05-11T12:39:08Z</time>
      </trkpt>
      <trkpt lat="49.75392" lon="2.15379">
        <ele>52.8</ele>
        <time>2022-05-11T12:39:10Z</time>
      </trkpt>
      <trkpt lat="49.75391" lon="2.15378">
        <ele>52.8</ele>
        <time>2022-05-11T12:39:11Z</time>
      </trkpt>
      <trkpt lat="49.75389" lon="2.15377">
        <ele>52.9</ele>
        <time>2022-05-11T12:39:13Z</time>
      </trkpt>
      <trkpt lat="49.75388" lon="2.15376">
        <ele>52.9</ele>
        <time>2022-05-11T12:39:14Z</time>
      </trkpt>
      <trkpt lat="49.75386" lon="2.15375">
        <ele>52.9</ele>
        <time>2022-05-11T12:39:15Z</time>
      </trkpt>
      <trkpt lat="49.75385" lon="2.15374">
        <ele>52.9</ele>
        <time>2022-05-11T12:39:16Z</time>
      </trkpt>
      <trkpt lat="49.75384" lon="2.15374">
        <ele>52.9</ele>
        <time>2022-05-11T12:39:17Z</time>
      </trkpt>
      <trkpt lat="49.75382" lon="2.15373">
        <ele>52.9</ele>
        <time>2022-05-11T12:39:18Z</time>
      </trkpt>
      <trkpt lat="49.75382" lon="2.15372">
        <ele>52.9</ele>
        <time>2022-05-11T12:39:19Z</time>
      </trkpt>
      <trkpt lat="49.75381" lon="2.15371">
        <ele>52.9</ele>
        <time>2022-05-11T12:39:20Z</time>
      </trkpt>
      <trkpt lat="49.7538" lon="2.1537">
        <ele>52.9</ele>
        <time>2022-05-11T12:39:21Z</time>
      </trkpt>
      <trkpt lat="49.75379" lon="2.15369">
        <ele>52.9</ele>
        <time>2022-05-11T12:39:22Z</time>
      </trkpt>
      <trkpt lat="49.75377" lon="2.15368">
        <ele>52.9</ele>
        <time>2022-05-11T12:39:23Z</time>
      </trkpt>
      <trkpt lat="49.75376" lon="2.15368">
        <ele>52.9</ele>
        <time>2022-05-11T12:39:24Z</time>
      </trkpt>
      <trkpt lat="49.75374" lon="2.15368">
        <ele>52.9</ele>
        <time>2022-05-11T12:39:25Z</time>
      </trkpt>
      <trkpt lat="49.75373" lon="2.15367">
        <ele>52.9</ele>
        <time>2022-05-11T12:39:26Z</time>
      </trkpt>
      <trkpt lat="49.75372" lon="2.15367">
        <ele>52.9</ele>
        <time>2022-05-11T12:39:27Z</time>
      </trkpt>
      <trkpt lat="49.75371" lon="2.15366">
        <ele>52.9</ele>
        <time>2022-05-11T12:39:28Z</time>
      </trkpt>
      <trkpt lat="49.75369" lon="2.15366">
        <ele>53</ele>
        <time>2022-05-11T12:39:29Z</time>
      </trkpt>
      <trkpt lat="49.75367" lon="2.15365">
        <ele>53</ele>
        <time>2022-05-11T12:39:31Z</time>
      </trkpt>
      <trkpt lat="49.75366" lon="2.15365">
        <ele>53</ele>
        <time>2022-05-11T12:39:32Z</time>
      </trkpt>
      <trkpt lat="49.75366" lon="2.15364">
        <ele>53</ele>
        <time>2022-05-11T12:39:33Z</time>
      </trkpt>
      <trkpt lat="49.75365" lon="2.15364">
        <ele>53</ele>
        <time>2022-05-11T12:39:34Z</time>
      </trkpt>
      <trkpt lat="49.75364" lon="2.15363">
        <ele>53</ele>
        <time>2022-05-11T12:39:35Z</time>
      </trkpt>
      <trkpt lat="49.75362" lon="2.15363">
        <ele>53</ele>
        <time>2022-05-11T12:39:36Z</time>
      </trkpt>
      <trkpt lat="49.75361" lon="2.15362">
        <ele>53</ele>
        <time>2022-05-11T12:39:37Z</time>
      </trkpt>
      <trkpt lat="49.7536" lon="2.15362">
        <ele>53</ele>
        <time>2022-05-11T12:39:38Z</time>
      </trkpt>
      <trkpt lat="49.75359" lon="2.15361">
        <ele>53</ele>
        <time>2022-05-11T12:39:40Z</time>
      </trkpt>
      <trkpt lat="49.75357" lon="2.1536">
        <ele>53</ele>
        <time>2022-05-11T12:39:41Z</time>
      </trkpt>
      <trkpt lat="49.75356" lon="2.15359">
        <ele>53</ele>
        <time>2022-05-11T12:39:42Z</time>
      </trkpt>
      <trkpt lat="49.75354" lon="2.15359">
        <ele>53</ele>
        <time>2022-05-11T12:39:44Z</time>
      </trkpt>
      <trkpt lat="49.75353" lon="2.15358">
        <ele>53</ele>
        <time>2022-05-11T12:39:45Z</time>
      </trkpt>
      <trkpt lat="49.75352" lon="2.15358">
        <ele>53</ele>
        <time>2022-05-11T12:39:46Z</time>
      </trkpt>
      <trkpt lat="49.75351" lon="2.15357">
        <ele>53</ele>
        <time>2022-05-11T12:39:47Z</time>
      </trkpt>
      <trkpt lat="49.7535" lon="2.15357">
        <ele>53</ele>
        <time>2022-05-11T12:39:48Z</time>
      </trkpt>
      <trkpt lat="49.75349" lon="2.15356">
        <ele>53</ele>
        <time>2022-05-11T12:39:49Z</time>
      </trkpt>
      <trkpt lat="49.75348" lon="2.15356">
        <ele>53</ele>
        <time>2022-05-11T12:39:50Z</time>
      </trkpt>
      <trkpt lat="49.75347" lon="2.15356">
        <ele>53</ele>
        <time>2022-05-11T12:39:52Z</time>
      </trkpt>
      <trkpt lat="49.75345" lon="2.15355">
        <ele>53</ele>
        <time>2022-05-11T12:39:53Z</time>
      </trkpt>
      <trkpt lat="49.75344" lon="2.15354">
        <ele>53</ele>
        <time>2022-05-11T12:39:54Z</time>
      </trkpt>
      <trkpt lat="49.75343" lon="2.15354">
        <ele>53</ele>
        <time>2022-05-11T12:39:55Z</time>
      </trkpt>
      <trkpt lat="49.7534" lon="2.15352">
        <ele>53</ele>
        <time>2022-05-11T12:39:57Z</time>
      </trkpt>
      <trkpt lat="49.7534" lon="2.15352">
        <ele>53</ele>
        <time>2022-05-11T12:39:58Z</time>
      </trkpt>
      <trkpt lat="49.75339" lon="2.15351">
        <ele>53</ele>
        <time>2022-05-11T12:39:59Z</time>
      </trkpt>
      <trkpt lat="49.75338" lon="2.1535">
        <ele>53</ele>
        <time>2022-05-11T12:40:01Z</time>
      </trkpt>
      <trkpt lat="49.75336" lon="2.1535">
        <ele>53</ele>
        <time>2022-05-11T12:40:02Z</time>
      </trkpt>
      <trkpt lat="49.75335" lon="2.15349">
        <ele>53</ele>
        <time>2022-05-11T12:40:03Z</time>
      </trkpt>
      <trkpt lat="49.75334" lon="2.15348">
        <ele>53</ele>
        <time>2022-05-11T12:40:04Z</time>
      </trkpt>
      <trkpt lat="49.75331" lon="2.15346">
        <ele>53</ele>
        <time>2022-05-11T12:40:06Z</time>
      </trkpt>
      <trkpt lat="49.7533" lon="2.15346">
        <ele>53</ele>
        <time>2022-05-11T12:40:07Z</time>
      </trkpt>
      <trkpt lat="49.75328" lon="2.15345">
        <ele>53</ele>
        <time>2022-05-11T12:40:08Z</time>
      </trkpt>
      <trkpt lat="49.75327" lon="2.15344">
        <ele>53</ele>
        <time>2022-05-11T12:40:09Z</time>
      </trkpt>
      <trkpt lat="49.75326" lon="2.15344">
        <ele>53</ele>
        <time>2022-05-11T12:40:10Z</time>
      </trkpt>
      <trkpt lat="49.75325" lon="2.15343">
        <ele>53</ele>
        <time>2022-05-11T12:40:11Z</time>
      </trkpt>
      <trkpt lat="49.75324" lon="2.15342">
        <ele>53</ele>
        <time>2022-05-11T12:40:12Z</time>
      </trkpt>
      <trkpt lat="49.75322" lon="2.15341">
        <ele>53</ele>
        <time>2022-05-11T12:40:13Z</time>
      </trkpt>
      <trkpt lat="49.75321" lon="2.1534">
        <ele>53</ele>
        <time>2022-05-11T12:40:15Z</time>
      </trkpt>
      <trkpt lat="49.7532" lon="2.1534">
        <ele>53</ele>
        <time>2022-05-11T12:40:16Z</time>
      </trkpt>
      <trkpt lat="49.75318" lon="2.15339">
        <ele>53</ele>
        <time>2022-05-11T12:40:17Z</time>
      </trkpt>
      <trkpt lat="49.75317" lon="2.15339">
        <ele>53</ele>
        <time>2022-05-11T12:40:18Z</time>
      </trkpt>
      <trkpt lat="49.75316" lon="2.15338">
        <ele>53</ele>
        <time>2022-05-11T12:40:19Z</time>
      </trkpt>
      <trkpt lat="49.75314" lon="2.15338">
        <ele>53</ele>
        <time>2022-05-11T12:40:20Z</time>
      </trkpt>
      <trkpt lat="49.75313" lon="2.15338">
        <ele>53</ele>
        <time>2022-05-11T12:40:21Z</time>
      </trkpt>
      <trkpt lat="49.75312" lon="2.15337">
        <ele>53</ele>
        <time>2022-05-11T12:40:22Z</time>
      </trkpt>
      <trkpt lat="49.75311" lon="2.15337">
        <ele>53</ele>
        <time>2022-05-11T12:40:23Z</time>
      </trkpt>
      <trkpt lat="49.75309" lon="2.15336">
        <ele>53</ele>
        <time>2022-05-11T12:40:25Z</time>
      </trkpt>
      <trkpt lat="49.75308" lon="2.15336">
        <ele>53</ele>
        <time>2022-05-11T12:40:26Z</time>
      </trkpt>
      <trkpt lat="49.75307" lon="2.15335">
        <ele>53</ele>
        <time>2022-05-11T12:40:27Z</time>
      </trkpt>
      <trkpt lat="49.75306" lon="2.15335">
        <ele>53</ele>
        <time>2022-05-11T12:40:28Z</time>
      </trkpt>
      <trkpt lat="49.75304" lon="2.15335">
        <ele>53</ele>
        <time>2022-05-11T12:40:29Z</time>
      </trkpt>
      <trkpt lat="49.75303" lon="2.15334">
        <ele>53</ele>
        <time>2022-05-11T12:40:30Z</time>
      </trkpt>
      <trkpt lat="49.75302" lon="2.15334">
        <ele>53</ele>
        <time>2022-05-11T12:40:31Z</time>
      </trkpt>
      <trkpt lat="49.75301" lon="2.15334">
        <ele>53</ele>
        <time>2022-05-11T12:40:32Z</time>
      </trkpt>
      <trkpt lat="49.753" lon="2.15334">
        <ele>53</ele>
        <time>2022-05-11T12:40:33Z</time>
      </trkpt>
      <trkpt lat="49.75299" lon="2.15335">
        <ele>53</ele>
        <time>2022-05-11T12:40:35Z</time>
      </trkpt>
      <trkpt lat="49.75298" lon="2.15335">
        <ele>53</ele>
        <time>2022-05-11T12:40:36Z</time>
      </trkpt>
      <trkpt lat="49.75297" lon="2.15335">
        <ele>53</ele>
        <time>2022-05-11T12:40:37Z</time>
      </trkpt>
      <trkpt lat="49.75295" lon="2.15334">
        <ele>53.1</ele>
        <time>2022-05-11T12:40:38Z</time>
      </trkpt>
      <trkpt lat="49.75293" lon="2.15334">
        <ele>53.1</ele>
        <time>2022-05-11T12:40:40Z</time>
      </trkpt>
      <trkpt lat="49.75292" lon="2.15334">
        <ele>53.1</ele>
        <time>2022-05-11T12:40:41Z</time>
      </trkpt>
      <trkpt lat="49.7529" lon="2.15333">
        <ele>53.1</ele>
        <time>2022-05-11T12:40:42Z</time>
      </trkpt>
      <trkpt lat="49.75289" lon="2.15333">
        <ele>53.1</ele>
        <time>2022-05-11T12:40:44Z</time>
      </trkpt>
      <trkpt lat="49.75288" lon="2.15333">
        <ele>53.1</ele>
        <time>2022-05-11T12:40:45Z</time>
      </trkpt>
      <trkpt lat="49.75286" lon="2.15333">
        <ele>53.1</ele>
        <time>2022-05-11T12:40:46Z</time>
      </trkpt>
      <trkpt lat="49.75285" lon="2.15333">
        <ele>53.1</ele>
        <time>2022-05-11T12:40:47Z</time>
      </trkpt>
      <trkpt lat="49.75285" lon="2.15333">
        <ele>53.1</ele>
        <time>2022-05-11T12:40:48Z</time>
      </trkpt>
      <trkpt lat="49.75284" lon="2.15333">
        <ele>53.1</ele>
        <time>2022-05-11T12:40:49Z</time>
      </trkpt>
      <trkpt lat="49.75283" lon="2.15333">
        <ele>53.1</ele>
        <time>2022-05-11T12:40:50Z</time>
      </trkpt>
      <trkpt lat="49.75282" lon="2.15333">
        <ele>53.1</ele>
        <time>2022-05-11T12:40:52Z</time>
      </trkpt>
      <trkpt lat="49.75282" lon="2.15334">
        <ele>53.1</ele>
        <time>2022-05-11T12:40:53Z</time>
      </trkpt>
      <trkpt lat="49.7528" lon="2.15334">
        <ele>53.1</ele>
        <time>2022-05-11T12:40:54Z</time>
      </trkpt>
      <trkpt lat="49.75279" lon="2.15334">
        <ele>53.1</ele>
        <time>2022-05-11T12:40:55Z</time>
      </trkpt>
      <trkpt lat="49.75278" lon="2.15334">
        <ele>53.1</ele>
        <time>2022-05-11T12:40:56Z</time>
      </trkpt>
      <trkpt lat="49.75276" lon="2.15335">
        <ele>53.1</ele>
        <time>2022-05-11T12:40:57Z</time>
      </trkpt>
      <trkpt lat="49.75275" lon="2.15335">
        <ele>53.1</ele>
        <time>2022-05-11T12:40:58Z</time>
      </trkpt>
      <trkpt lat="49.75274" lon="2.15335">
        <ele>53.1</ele>
        <time>2022-05-11T12:40:59Z</time>
      </trkpt>
      <trkpt lat="49.75273" lon="2.15335">
        <ele>53.1</ele>
        <time>2022-05-11T12:41:00Z</time>
      </trkpt>
      <trkpt lat="49.75273" lon="2.15335">
        <ele>53.1</ele>
        <time>2022-05-11T12:41:01Z</time>
      </trkpt>
      <trkpt lat="49.75272" lon="2.15336">
        <ele>53.1</ele>
        <time>2022-05-11T12:41:03Z</time>
      </trkpt>
      <trkpt lat="49.75272" lon="2.15336">
        <ele>53.1</ele>
        <time>2022-05-11T12:41:04Z</time>
      </trkpt>
      <trkpt lat="49.75271" lon="2.15336">
        <ele>53.1</ele>
        <time>2022-05-11T12:41:05Z</time>
      </trkpt>
      <trkpt lat="49.75269" lon="2.15337">
        <ele>53.1</ele>
        <time>2022-05-11T12:41:06Z</time>
      </trkpt>
      <trkpt lat="49.75268" lon="2.15337">
        <ele>53.1</ele>
        <time>2022-05-11T12:41:07Z</time>
      </trkpt>
      <trkpt lat="49.75267" lon="2.15337">
        <ele>53.1</ele>
        <time>2022-05-11T12:41:08Z</time>
      </trkpt>
      <trkpt lat="49.75265" lon="2.15337">
        <ele>53.1</ele>
        <time>2022-05-11T12:41:10Z</time>
      </trkpt>
      <trkpt lat="49.75264" lon="2.15337">
        <ele>53.1</ele>
        <time>2022-05-11T12:41:11Z</time>
      </trkpt>
      <trkpt lat="49.75264" lon="2.15337">
        <ele>53.1</ele>
        <time>2022-05-11T12:41:12Z</time>
      </trkpt>
      <trkpt lat="49.75262" lon="2.15337">
        <ele>53.1</ele>
        <time>2022-05-11T12:41:13Z</time>
      </trkpt>
      <trkpt lat="49.75261" lon="2.15337">
        <ele>53.1</ele>
        <time>2022-05-11T12:41:14Z</time>
      </trkpt>
      <trkpt lat="49.75259" lon="2.15338">
        <ele>53.1</ele>
        <time>2022-05-11T12:41:15Z</time>
      </trkpt>
      <trkpt lat="49.75259" lon="2.15338">
        <ele>53.1</ele>
        <time>2022-05-11T12:41:16Z</time>
      </trkpt>
      <trkpt lat="49.75258" lon="2.15339">
        <ele>53.1</ele>
        <time>2022-05-11T12:41:18Z</time>
      </trkpt>
      <trkpt lat="49.75257" lon="2.15339">
        <ele>53.1</ele>
        <time>2022-05-11T12:41:19Z</time>
      </trkpt>
      <trkpt lat="49.75256" lon="2.1534">
        <ele>53.1</ele>
        <time>2022-05-11T12:41:20Z</time>
      </trkpt>
      <trkpt lat="49.75256" lon="2.1534">
        <ele>53.1</ele>
        <time>2022-05-11T12:41:21Z</time>
      </trkpt>
      <trkpt lat="49.75257" lon="2.15342">
        <ele>53.1</ele>
        <time>2022-05-11T12:41:23Z</time>
      </trkpt>
      <trkpt lat="49.75258" lon="2.15342">
        <ele>53.1</ele>
        <time>2022-05-11T12:41:24Z</time>
      </trkpt>
      <trkpt lat="49.75259" lon="2.15342">
        <ele>53.1</ele>
        <time>2022-05-11T12:41:25Z</time>
      </trkpt>
      <trkpt lat="49.7526" lon="2.15341">
        <ele>53.1</ele>
        <time>2022-05-11T12:41:26Z</time>
      </trkpt>
      <trkpt lat="49.7526" lon="2.15341">
        <ele>53.1</ele>
        <time>2022-05-11T12:41:27Z</time>
      </trkpt>
      <trkpt lat="49.75261" lon="2.15341">
        <ele>53.1</ele>
        <time>2022-05-11T12:41:28Z</time>
      </trkpt>
      <trkpt lat="49.75261" lon="2.1534">
        <ele>53.1</ele>
        <time>2022-05-11T12:41:29Z</time>
      </trkpt>
      <trkpt lat="49.75262" lon="2.1534">
        <ele>53.1</ele>
        <time>2022-05-11T12:41:30Z</time>
      </trkpt>
      <trkpt lat="49.75262" lon="2.1534">
        <ele>53.1</ele>
        <time>2022-05-11T12:41:31Z</time>
      </trkpt>
      <trkpt lat="49.75262" lon="2.1534">
        <ele>53.1</ele>
        <time>2022-05-11T12:41:32Z</time>
      </trkpt>
      <trkpt lat="49.75262" lon="2.1534">
        <ele>53.1</ele>
        <time>2022-05-11T12:41:33Z</time>
      </trkpt>
      <trkpt lat="49.75263" lon="2.1534">
        <ele>53.1</ele>
        <time>2022-05-11T12:41:34Z</time>
      </trkpt>
      <trkpt lat="49.75263" lon="2.1534">
        <ele>53.1</ele>
        <time>2022-05-11T12:41:35Z</time>
      </trkpt>
      <trkpt lat="49.75263" lon="2.15339">
        <ele>53.1</ele>
        <time>2022-05-11T12:41:36Z</time>
      </trkpt>
      <trkpt lat="49.75263" lon="2.15339">
        <ele>53.1</ele>
        <time>2022-05-11T12:41:37Z</time>
      </trkpt>
      <trkpt lat="49.75263" lon="2.15339">
        <ele>53.1</ele>
        <time>2022-05-11T12:41:38Z</time>
      </trkpt>
      <trkpt lat="49.75263" lon="2.15339">
        <ele>53.1</ele>
        <time>2022-05-11T12:41:39Z</time>
      </trkpt>
      <trkpt lat="49.75264" lon="2.15338">
        <ele>53.1</ele>
        <time>2022-05-11T12:41:40Z</time>
      </trkpt>
      <trkpt lat="49.75264" lon="2.15337">
        <ele>53.1</ele>
        <time>2022-05-11T12:41:41Z</time>
      </trkpt>
      <trkpt lat="49.75264" lon="2.15337">
        <ele>53.1</ele>
        <time>2022-05-11T12:41:42Z</time>
      </trkpt>
      <trkpt lat="49.75264" lon="2.15336">
        <ele>53.1</ele>
        <time>2022-05-11T12:41:43Z</time>
      </trkpt>
      <trkpt lat="49.75264" lon="2.15336">
        <ele>53.1</ele>
        <time>2022-05-11T12:41:44Z</time>
      </trkpt>
      <trkpt lat="49.75264" lon="2.15336">
        <ele>53.1</ele>
        <time>2022-05-11T12:41:45Z</time>
      </trkpt>
      <trkpt lat="49.75265" lon="2.15336">
        <ele>53.1</ele>
        <time>2022-05-11T12:41:46Z</time>
      </trkpt>
      <trkpt lat="49.75265" lon="2.15336">
        <ele>53.1</ele>
        <time>2022-05-11T12:41:47Z</time>
      </trkpt>
      <trkpt lat="49.75265" lon="2.15336">
        <ele>53.1</ele>
        <time>2022-05-11T12:41:48Z</time>
      </trkpt>
      <trkpt lat="49.75265" lon="2.15336">
        <ele>53.1</ele>
        <time>2022-05-11T12:41:49Z</time>
      </trkpt>
      <trkpt lat="49.75264" lon="2.15336">
        <ele>53.1</ele>
        <time>2022-05-11T12:41:50Z</time>
      </trkpt>
      <trkpt lat="49.75264" lon="2.15336">
        <ele>53.1</ele>
        <time>2022-05-11T12:41:51Z</time>
      </trkpt>
      <trkpt lat="49.75264" lon="2.15336">
        <ele>53.1</ele>
        <time>2022-05-11T12:41:52Z</time>
      </trkpt>
      <trkpt lat="49.75264" lon="2.15336">
        <ele>53.1</ele>
        <time>2022-05-11T12:41:53Z</time>
      </trkpt>
      <trkpt lat="49.75264" lon="2.15336">
        <ele>53.1</ele>
        <time>2022-05-11T12:41:54Z</time>
      </trkpt>
      <trkpt lat="49.75264" lon="2.15336">
        <ele>53.1</ele>
        <time>2022-05-11T12:41:55Z</time>
      </trkpt>
      <trkpt lat="49.75264" lon="2.15336">
        <ele>53.1</ele>
        <time>2022-05-11T12:41:56Z</time>
      </trkpt>
      <trkpt lat="49.75264" lon="2.15336">
        <ele>53.1</ele>
        <time>2022-05-11T12:41:57Z</time>
      </trkpt>
      <trkpt lat="49.75264" lon="2.15336">
        <ele>53.1</ele>
        <time>2022-05-11T12:41:58Z</time>
      </trkpt>
      <trkpt lat="49.75264" lon="2.15336">
        <ele>53.1</ele>
        <time>2022-05-11T12:41:59Z</time>
      </trkpt>
      <trkpt lat="49.75264" lon="2.15336">
        <ele>53.1</ele>
        <time>2022-05-11T12:42:00Z</time>
      </trkpt>
      <trkpt lat="49.75264" lon="2.15336">
        <ele>53.1</ele>
        <time>2022-05-11T12:42:01Z</time>
      </trkpt>
      <trkpt lat="49.75264" lon="2.15336">
        <ele>53.1</ele>
        <time>2022-05-11T12:42:02Z</time>
      </trkpt>
      <trkpt lat="49.75264" lon="2.15336">
        <ele>53.1</ele>
        <time>2022-05-11T12:42:03Z</time>
      </trkpt>
      <trkpt lat="49.75264" lon="2.15336">
        <ele>53.1</ele>
        <time>2022-05-11T12:42:04Z</time>
      </trkpt>
      <trkpt lat="49.75264" lon="2.15336">
        <ele>53.1</ele>
        <time>2022-05-11T12:42:05Z</time>
      </trkpt>
      <trkpt lat="49.75264" lon="2.15336">
        <ele>53.1</ele>
        <time>2022-05-11T12:42:06Z</time>
      </trkpt>
      <trkpt lat="49.75264" lon="2.15336">
        <ele>53.1</ele>
        <time>2022-05-11T12:42:07Z</time>
      </trkpt>
      <trkpt lat="49.75264" lon="2.15336">
        <ele>53.1</ele>
        <time>2022-05-11T12:42:08Z</time>
      </trkpt>
      <trkpt lat="49.75264" lon="2.15336">
        <ele>53.1</ele>
        <time>2022-05-11T12:42:09Z</time>
      </trkpt>
      <trkpt lat="49.75264" lon="2.15336">
        <ele>53.1</ele>
        <time>2022-05-11T12:42:10Z</time>
      </trkpt>
      <trkpt lat="49.75264" lon="2.15336">
        <ele>53.1</ele>
        <time>2022-05-11T12:42:11Z</time>
      </trkpt>
      <trkpt lat="49.75264" lon="2.15336">
        <ele>53.1</ele>
        <time>2022-05-11T12:42:12Z</time>
      </trkpt>
      <trkpt lat="49.75264" lon="2.15336">
        <ele>53.1</ele>
        <time>2022-05-11T12:42:13Z</time>
      </trkpt>
      <trkpt lat="49.75264" lon="2.15336">
        <ele>53.1</ele>
        <time>2022-05-11T12:42:14Z</time>
      </trkpt>
      <trkpt lat="49.75264" lon="2.15336">
        <ele>53.1</ele>
        <time>2022-05-11T12:42:15Z</time>
      </trkpt>
      <trkpt lat="49.75264" lon="2.15336">
        <ele>53.1</ele>
        <time>2022-05-11T12:42:16Z</time>
      </trkpt>
      <trkpt lat="49.75264" lon="2.15336">
        <ele>53.1</ele>
        <time>2022-05-11T12:42:17Z</time>
      </trkpt>
      <trkpt lat="49.75264" lon="2.15336">
        <ele>53.1</ele>
        <time>2022-05-11T12:42:18Z</time>
      </trkpt>
      <trkpt lat="49.75264" lon="2.15336">
        <ele>53.1</ele>
        <time>2022-05-11T12:42:19Z</time>
      </trkpt>
      <trkpt lat="49.75264" lon="2.15336">
        <ele>53.1</ele>
        <time>2022-05-11T12:42:20Z</time>
      </trkpt>
      <trkpt lat="49.75264" lon="2.15336">
        <ele>53.1</ele>
        <time>2022-05-11T12:42:21Z</time>
      </trkpt>
      <trkpt lat="49.75264" lon="2.15336">
        <ele>53.1</ele>
        <time>2022-05-11T12:42:22Z</time>
      </trkpt>
      <trkpt lat="49.75264" lon="2.15336">
        <ele>53.1</ele>
        <time>2022-05-11T12:42:23Z</time>
      </trkpt>
      <trkpt lat="49.75264" lon="2.15336">
        <ele>53.1</ele>
        <time>2022-05-11T12:42:24Z</time>
      </trkpt>
      <trkpt lat="49.75264" lon="2.15336">
        <ele>53.1</ele>
        <time>2022-05-11T12:42:25Z</time>
      </trkpt>
      <trkpt lat="49.75264" lon="2.15336">
        <ele>53.1</ele>
        <time>2022-05-11T12:42:26Z</time>
      </trkpt>
      <trkpt lat="49.75264" lon="2.15336">
        <ele>53.1</ele>
        <time>2022-05-11T12:42:27Z</time>
      </trkpt>
      <trkpt lat="49.75264" lon="2.15336">
        <ele>53.1</ele>
        <time>2022-05-11T12:42:28Z</time>
      </trkpt>
      <trkpt lat="49.75264" lon="2.15336">
        <ele>53.1</ele>
        <time>2022-05-11T12:42:29Z</time>
      </trkpt>
      <trkpt lat="49.75264" lon="2.15336">
        <ele>53.1</ele>
        <time>2022-05-11T12:42:30Z</time>
      </trkpt>
      <trkpt lat="49.75264" lon="2.15336">
        <ele>53.1</ele>
        <time>2022-05-11T12:42:31Z</time>
      </trkpt>
      <trkpt lat="49.75264" lon="2.15336">
        <ele>53.1</ele>
        <time>2022-05-11T12:42:32Z</time>
      </trkpt>
      <trkpt lat="49.75264" lon="2.15336">
        <ele>53.1</ele>
        <time>2022-05-11T12:42:33Z</time>
      </trkpt>
      <trkpt lat="49.75264" lon="2.15336">
        <ele>53.1</ele>
        <time>2022-05-11T12:42:34Z</time>
      </trkpt>
      <trkpt lat="49.75264" lon="2.15336">
        <ele>53.1</ele>
        <time>2022-05-11T12:42:35Z</time>
      </trkpt>
      <trkpt lat="49.75264" lon="2.15336">
        <ele>53.1</ele>
        <time>2022-05-11T12:42:36Z</time>
      </trkpt>
      <trkpt lat="49.75264" lon="2.15336">
        <ele>53.1</ele>
        <time>2022-05-11T12:42:37Z</time>
      </trkpt>
      <trkpt lat="49.75264" lon="2.15336">
        <ele>53.1</ele>
        <time>2022-05-11T12:42:38Z</time>
      </trkpt>
      <trkpt lat="49.75264" lon="2.15336">
        <ele>53.1</ele>
        <time>2022-05-11T12:42:39Z</time>
      </trkpt>
      <trkpt lat="49.75264" lon="2.15336">
        <ele>53.1</ele>
        <time>2022-05-11T12:42:40Z</time>
      </trkpt>
      <trkpt lat="49.75264" lon="2.15336">
        <ele>53.1</ele>
        <time>2022-05-11T12:42:41Z</time>
      </trkpt>
      <trkpt lat="49.75264" lon="2.15336">
        <ele>53.1</ele>
        <time>2022-05-11T12:42:42Z</time>
      </trkpt>
      <trkpt lat="49.75264" lon="2.15336">
        <ele>53.1</ele>
        <time>2022-05-11T12:42:43Z</time>
      </trkpt>
      <trkpt lat="49.75264" lon="2.15336">
        <ele>53.1</ele>
        <time>2022-05-11T12:42:44Z</time>
      </trkpt>
      <trkpt lat="49.75264" lon="2.15336">
        <ele>53.1</ele>
        <time>2022-05-11T12:42:45Z</time>
      </trkpt>
      <trkpt lat="49.75264" lon="2.15336">
        <ele>53.1</ele>
        <time>2022-05-11T12:42:46Z</time>
      </trkpt>
      <trkpt lat="49.75264" lon="2.15336">
        <ele>53.1</ele>
        <time>2022-05-11T12:42:47Z</time>
      </trkpt>
      <trkpt lat="49.75264" lon="2.15336">
        <ele>53.1</ele>
        <time>2022-05-11T12:42:48Z</time>
      </trkpt>
      <trkpt lat="49.75264" lon="2.15336">
        <ele>53.1</ele>
        <time>2022-05-11T12:42:49Z</time>
      </trkpt>
      <trkpt lat="49.75264" lon="2.15336">
        <ele>53.1</ele>
        <time>2022-05-11T12:42:50Z</time>
      </trkpt>
      <trkpt lat="49.75264" lon="2.15336">
        <ele>53.1</ele>
        <time>2022-05-11T12:42:51Z</time>
      </trkpt>
      <trkpt lat="49.75264" lon="2.15336">
        <ele>53.1</ele>
        <time>2022-05-11T12:42:52Z</time>
      </trkpt>
      <trkpt lat="49.75264" lon="2.15336">
        <ele>53.1</ele>
        <time>2022-05-11T12:42:53Z</time>
      </trkpt>
      <trkpt lat="49.75264" lon="2.15336">
        <ele>53.1</ele>
        <time>2022-05-11T12:42:54Z</time>
      </trkpt>
      <trkpt lat="49.75264" lon="2.15336">
        <ele>53.1</ele>
        <time>2022-05-11T12:42:55Z</time>
      </trkpt>
      <trkpt lat="49.75264" lon="2.15336">
        <ele>53.1</ele>
        <time>2022-05-11T12:42:56Z</time>
      </trkpt>
      <trkpt lat="49.75264" lon="2.15336">
        <ele>53.1</ele>
        <time>2022-05-11T12:42:57Z</time>
      </trkpt>
      <trkpt lat="49.75264" lon="2.15336">
        <ele>53.1</ele>
        <time>2022-05-11T12:42:58Z</time>
      </trkpt>
      <trkpt lat="49.75264" lon="2.15336">
        <ele>53.1</ele>
        <time>2022-05-11T12:42:59Z</time>
      </trkpt>
      <trkpt lat="49.75264" lon="2.15336">
        <ele>53.1</ele>
        <time>2022-05-11T12:43:00Z</time>
      </trkpt>
      <trkpt lat="49.75264" lon="2.15336">
        <ele>53.1</ele>
        <time>2022-05-11T12:43:01Z</time>
      </trkpt>
      <trkpt lat="49.75264" lon="2.15336">
        <ele>53.1</ele>
        <time>2022-05-11T12:43:02Z</time>
      </trkpt>
      <trkpt lat="49.75264" lon="2.15336">
        <ele>53.1</ele>
        <time>2022-05-11T12:43:03Z</time>
      </trkpt>
      <trkpt lat="49.75264" lon="2.15336">
        <ele>53.1</ele>
        <time>2022-05-11T12:43:04Z</time>
      </trkpt>
      <trkpt lat="49.75264" lon="2.15336">
        <ele>53.1</ele>
        <time>2022-05-11T12:43:05Z</time>
      </trkpt>
      <trkpt lat="49.75264" lon="2.15336">
        <ele>53.1</ele>
        <time>2022-05-11T12:43:06Z</time>
      </trkpt>
      <trkpt lat="49.75264" lon="2.15336">
        <ele>53.1</ele>
        <time>2022-05-11T12:43:07Z</time>
      </trkpt>
      <trkpt lat="49.75264" lon="2.15336">
        <ele>53.1</ele>
        <time>2022-05-11T12:43:08Z</time>
      </trkpt>
      <trkpt lat="49.75264" lon="2.15336">
        <ele>53.1</ele>
        <time>2022-05-11T12:43:09Z</time>
      </trkpt>
      <trkpt lat="49.75264" lon="2.15336">
        <ele>53.1</ele>
        <time>2022-05-11T12:43:10Z</time>
      </trkpt>
      <trkpt lat="49.75264" lon="2.15336">
        <ele>53.1</ele>
        <time>2022-05-11T12:43:11Z</time>
      </trkpt>
      <trkpt lat="49.75264" lon="2.15336">
        <ele>53.1</ele>
        <time>2022-05-11T12:43:12Z</time>
      </trkpt>
      <trkpt lat="49.75264" lon="2.15336">
        <ele>53.1</ele>
        <time>2022-05-11T12:43:13Z</time>
      </trkpt>
      <trkpt lat="49.75264" lon="2.15336">
        <ele>53.1</ele>
        <time>2022-05-11T12:43:14Z</time>
      </trkpt>
      <trkpt lat="49.75264" lon="2.15336">
        <ele>53.1</ele>
        <time>2022-05-11T12:43:15Z</time>
      </trkpt>
      <trkpt lat="49.75264" lon="2.15336">
        <ele>53.1</ele>
        <time>2022-05-11T12:43:16Z</time>
      </trkpt>
      <trkpt lat="49.75264" lon="2.15336">
        <ele>53.1</ele>
        <time>2022-05-11T12:43:17Z</time>
      </trkpt>
      <trkpt lat="49.75264" lon="2.15336">
        <ele>53.1</ele>
        <time>2022-05-11T12:43:18Z</time>
      </trkpt>
      <trkpt lat="49.75264" lon="2.15336">
        <ele>53.1</ele>
        <time>2022-05-11T12:43:19Z</time>
      </trkpt>
      <trkpt lat="49.75264" lon="2.15336">
        <ele>53.1</ele>
        <time>2022-05-11T12:43:20Z</time>
      </trkpt>
      <trkpt lat="49.75264" lon="2.15336">
        <ele>53.1</ele>
        <time>2022-05-11T12:43:21Z</time>
      </trkpt>
      <trkpt lat="49.75264" lon="2.15336">
        <ele>53.1</ele>
        <time>2022-05-11T12:43:22Z</time>
      </trkpt>
      <trkpt lat="49.75264" lon="2.15336">
        <ele>53.1</ele>
        <time>2022-05-11T12:43:23Z</time>
      </trkpt>
      <trkpt lat="49.75264" lon="2.15336">
        <ele>53.1</ele>
        <time>2022-05-11T12:43:24Z</time>
      </trkpt>
      <trkpt lat="49.75264" lon="2.15336">
        <ele>53.1</ele>
        <time>2022-05-11T12:43:25Z</time>
      </trkpt>
      <trkpt lat="49.75264" lon="2.15336">
        <ele>53.1</ele>
        <time>2022-05-11T12:43:26Z</time>
      </trkpt>
      <trkpt lat="49.75264" lon="2.15336">
        <ele>53.1</ele>
        <time>2022-05-11T12:43:27Z</time>
      </trkpt>
      <trkpt lat="49.75264" lon="2.15336">
        <ele>53.1</ele>
        <time>2022-05-11T12:43:28Z</time>
      </trkpt>
      <trkpt lat="49.75264" lon="2.15336">
        <ele>53.1</ele>
        <time>2022-05-11T12:43:29Z</time>
      </trkpt>
      <trkpt lat="49.75264" lon="2.15336">
        <ele>53.1</ele>
        <time>2022-05-11T12:43:30Z</time>
      </trkpt>
      <trkpt lat="49.75264" lon="2.15336">
        <ele>53.1</ele>
        <time>2022-05-11T12:43:31Z</time>
      </trkpt>
      <trkpt lat="49.75264" lon="2.15336">
        <ele>53.1</ele>
        <time>2022-05-11T12:43:32Z</time>
      </trkpt>
      <trkpt lat="49.75264" lon="2.15336">
        <ele>53.1</ele>
        <time>2022-05-11T12:43:33Z</time>
      </trkpt>
      <trkpt lat="49.75264" lon="2.15336">
        <ele>53.1</ele>
        <time>2022-05-11T12:43:34Z</time>
      </trkpt>
      <trkpt lat="49.75264" lon="2.15336">
        <ele>53.1</ele>
        <time>2022-05-11T12:43:35Z</time>
      </trkpt>
      <trkpt lat="49.75264" lon="2.15336">
        <ele>53.1</ele>
        <time>2022-05-11T12:43:36Z</time>
      </trkpt>
      <trkpt lat="49.75264" lon="2.15336">
        <ele>53.1</ele>
        <time>2022-05-11T12:43:37Z</time>
      </trkpt>
      <trkpt lat="49.75264" lon="2.15336">
        <ele>53.1</ele>
        <time>2022-05-11T12:43:38Z</time>
      </trkpt>
      <trkpt lat="49.75264" lon="2.15336">
        <ele>53.1</ele>
        <time>2022-05-11T12:43:39Z</time>
      </trkpt>
      <trkpt lat="49.75264" lon="2.15336">
        <ele>53.1</ele>
        <time>2022-05-11T12:43:40Z</time>
      </trkpt>
      <trkpt lat="49.75264" lon="2.15336">
        <ele>53.1</ele>
        <time>2022-05-11T12:43:41Z</time>
      </trkpt>
      <trkpt lat="49.75264" lon="2.15336">
        <ele>53.1</ele>
        <time>2022-05-11T12:43:42Z</time>
      </trkpt>
      <trkpt lat="49.75264" lon="2.15336">
        <ele>53.1</ele>
        <time>2022-05-11T12:43:43Z</time>
      </trkpt>
      <trkpt lat="49.75264" lon="2.15336">
        <ele>53.1</ele>
        <time>2022-05-11T12:43:44Z</time>
      </trkpt>
      <trkpt lat="49.75264" lon="2.15336">
        <ele>53.1</ele>
        <time>2022-05-11T12:43:45Z</time>
      </trkpt>
      <trkpt lat="49.75264" lon="2.15336">
        <ele>53.1</ele>
        <time>2022-05-11T12:43:46Z</time>
      </trkpt>
      <trkpt lat="49.75264" lon="2.15336">
        <ele>53.1</ele>
        <time>2022-05-11T12:43:47Z</time>
      </trkpt>
      <trkpt lat="49.75264" lon="2.15336">
        <ele>53.1</ele>
        <time>2022-05-11T12:43:48Z</time>
      </trkpt>
      <trkpt lat="49.75264" lon="2.15336">
        <ele>53.1</ele>
        <time>2022-05-11T12:43:49Z</time>
      </trkpt>
      <trkpt lat="49.75264" lon="2.15336">
        <ele>53.1</ele>
        <time>2022-05-11T12:43:50Z</time>
      </trkpt>
      <trkpt lat="49.75264" lon="2.15336">
        <ele>53.1</ele>
        <time>2022-05-11T12:43:51Z</time>
      </trkpt>
      <trkpt lat="49.75264" lon="2.15336">
        <ele>53.1</ele>
        <time>2022-05-11T12:43:52Z</time>
      </trkpt>
      <trkpt lat="49.75264" lon="2.15336">
        <ele>53.1</ele>
        <time>2022-05-11T12:43:53Z</time>
      </trkpt>
      <trkpt lat="49.75264" lon="2.15336">
        <ele>53.1</ele>
        <time>2022-05-11T12:43:54Z</time>
      </trkpt>
      <trkpt lat="49.75264" lon="2.15336">
        <ele>53.1</ele>
        <time>2022-05-11T12:43:55Z</time>
      </trkpt>
      <trkpt lat="49.75264" lon="2.15336">
        <ele>53.1</ele>
        <time>2022-05-11T12:43:56Z</time>
      </trkpt>
      <trkpt lat="49.75264" lon="2.15336">
        <ele>53.1</ele>
        <time>2022-05-11T12:43:57Z</time>
      </trkpt>
      <trkpt lat="49.75264" lon="2.15336">
        <ele>53.1</ele>
        <time>2022-05-11T12:43:58Z</time>
      </trkpt>
      <trkpt lat="49.75264" lon="2.15336">
        <ele>53.1</ele>
        <time>2022-05-11T12:43:59Z</time>
      </trkpt>
      <trkpt lat="49.75263" lon="2.15335">
        <ele>53</ele>
        <time>2022-05-11T12:44:00Z</time>
      </trkpt>
      <trkpt lat="49.75262" lon="2.15333">
        <ele>53</ele>
        <time>2022-05-11T12:44:01Z</time>
      </trkpt>
      <trkpt lat="49.75262" lon="2.15333">
        <ele>53</ele>
        <time>2022-05-11T12:44:02Z</time>
      </trkpt>
      <trkpt lat="49.75261" lon="2.15332">
        <ele>53</ele>
        <time>2022-05-11T12:44:03Z</time>
      </trkpt>
      <trkpt lat="49.75261" lon="2.15332">
        <ele>53</ele>
        <time>2022-05-11T12:44:04Z</time>
      </trkpt>
      <trkpt lat="49.75261" lon="2.15331">
        <ele>53</ele>
        <time>2022-05-11T12:44:05Z</time>
      </trkpt>
      <trkpt lat="49.75261" lon="2.15331">
        <ele>53</ele>
        <time>2022-05-11T12:44:06Z</time>
      </trkpt>
      <trkpt lat="49.75261" lon="2.15331">
        <ele>53</ele>
        <time>2022-05-11T12:44:07Z</time>
      </trkpt>
      <trkpt lat="49.75261" lon="2.15331">
        <ele>53</ele>
        <time>2022-05-11T12:44:08Z</time>
      </trkpt>
      <trkpt lat="49.75261" lon="2.15332">
        <ele>53</ele>
        <time>2022-05-11T12:44:09Z</time>
      </trkpt>
      <trkpt lat="49.75261" lon="2.15332">
        <ele>53</ele>
        <time>2022-05-11T12:44:10Z</time>
      </trkpt>
      <trkpt lat="49.75261" lon="2.15332">
        <ele>53</ele>
        <time>2022-05-11T12:44:11Z</time>
      </trkpt>
      <trkpt lat="49.75261" lon="2.15332">
        <ele>53</ele>
        <time>2022-05-11T12:44:12Z</time>
      </trkpt>
      <trkpt lat="49.75261" lon="2.15332">
        <ele>53</ele>
        <time>2022-05-11T12:44:13Z</time>
      </trkpt>
      <trkpt lat="49.75261" lon="2.15332">
        <ele>53</ele>
        <time>2022-05-11T12:44:14Z</time>
      </trkpt>
      <trkpt lat="49.75261" lon="2.15332">
        <ele>53</ele>
        <time>2022-05-11T12:44:15Z</time>
      </trkpt>
      <trkpt lat="49.75261" lon="2.15332">
        <ele>53</ele>
        <time>2022-05-11T12:44:16Z</time>
      </trkpt>
      <trkpt lat="49.75261" lon="2.15332">
        <ele>53</ele>
        <time>2022-05-11T12:44:17Z</time>
      </trkpt>
      <trkpt lat="49.75261" lon="2.15332">
        <ele>53</ele>
        <time>2022-05-11T12:44:18Z</time>
      </trkpt>
      <trkpt lat="49.75261" lon="2.15332">
        <ele>53</ele>
        <time>2022-05-11T12:44:19Z</time>
      </trkpt>
      <trkpt lat="49.75261" lon="2.15332">
        <ele>53</ele>
        <time>2022-05-11T12:44:20Z</time>
      </trkpt>
      <trkpt lat="49.75261" lon="2.15332">
        <ele>53</ele>
        <time>2022-05-11T12:44:21Z</time>
      </trkpt>
      <trkpt lat="49.75261" lon="2.15332">
        <ele>53</ele>
        <time>2022-05-11T12:44:22Z</time>
      </trkpt>
      <trkpt lat="49.75261" lon="2.15332">
        <ele>53</ele>
        <time>2022-05-11T12:44:23Z</time>
      </trkpt>
      <trkpt lat="49.75261" lon="2.15332">
        <ele>53</ele>
        <time>2022-05-11T12:44:24Z</time>
      </trkpt>
      <trkpt lat="49.75261" lon="2.15332">
        <ele>53</ele>
        <time>2022-05-11T12:44:25Z</time>
      </trkpt>
      <trkpt lat="49.75261" lon="2.15332">
        <ele>53</ele>
        <time>2022-05-11T12:44:26Z</time>
      </trkpt>
      <trkpt lat="49.75261" lon="2.15332">
        <ele>53</ele>
        <time>2022-05-11T12:44:27Z</time>
      </trkpt>
      <trkpt lat="49.75261" lon="2.15332">
        <ele>53</ele>
        <time>2022-05-11T12:44:28Z</time>
      </trkpt>
      <trkpt lat="49.75261" lon="2.15332">
        <ele>53</ele>
        <time>2022-05-11T12:44:29Z</time>
      </trkpt>
      <trkpt lat="49.75261" lon="2.15332">
        <ele>53</ele>
        <time>2022-05-11T12:44:30Z</time>
      </trkpt>
      <trkpt lat="49.75261" lon="2.15332">
        <ele>53</ele>
        <time>2022-05-11T12:44:31Z</time>
      </trkpt>
      <trkpt lat="49.75261" lon="2.15332">
        <ele>53</ele>
        <time>2022-05-11T12:44:32Z</time>
      </trkpt>
      <trkpt lat="49.75261" lon="2.15332">
        <ele>53</ele>
        <time>2022-05-11T12:44:33Z</time>
      </trkpt>
      <trkpt lat="49.75261" lon="2.15332">
        <ele>53</ele>
        <time>2022-05-11T12:44:34Z</time>
      </trkpt>
      <trkpt lat="49.75261" lon="2.15332">
        <ele>53</ele>
        <time>2022-05-11T12:44:35Z</time>
      </trkpt>
      <trkpt lat="49.75261" lon="2.15332">
        <ele>53</ele>
        <time>2022-05-11T12:44:36Z</time>
      </trkpt>
      <trkpt lat="49.75261" lon="2.15332">
        <ele>53</ele>
        <time>2022-05-11T12:44:37Z</time>
      </trkpt>
      <trkpt lat="49.75261" lon="2.15332">
        <ele>53</ele>
        <time>2022-05-11T12:44:38Z</time>
      </trkpt>
      <trkpt lat="49.75261" lon="2.15332">
        <ele>53</ele>
        <time>2022-05-11T12:44:39Z</time>
      </trkpt>
      <trkpt lat="49.75261" lon="2.15332">
        <ele>53</ele>
        <time>2022-05-11T12:44:40Z</time>
      </trkpt>
      <trkpt lat="49.75261" lon="2.15332">
        <ele>53</ele>
        <time>2022-05-11T12:44:41Z</time>
      </trkpt>
      <trkpt lat="49.75261" lon="2.15332">
        <ele>53</ele>
        <time>2022-05-11T12:44:42Z</time>
      </trkpt>
      <trkpt lat="49.75261" lon="2.15332">
        <ele>53</ele>
        <time>2022-05-11T12:44:43Z</time>
      </trkpt>
      <trkpt lat="49.75261" lon="2.15332">
        <ele>53</ele>
        <time>2022-05-11T12:44:44Z</time>
      </trkpt>
      <trkpt lat="49.75261" lon="2.15332">
        <ele>53</ele>
        <time>2022-05-11T12:44:45Z</time>
      </trkpt>
      <trkpt lat="49.75261" lon="2.15332">
        <ele>53</ele>
        <time>2022-05-11T12:44:46Z</time>
      </trkpt>
      <trkpt lat="49.75261" lon="2.15332">
        <ele>53</ele>
        <time>2022-05-11T12:44:47Z</time>
      </trkpt>
      <trkpt lat="49.75261" lon="2.15332">
        <ele>53</ele>
        <time>2022-05-11T12:44:48Z</time>
      </trkpt>
      <trkpt lat="49.75261" lon="2.15332">
        <ele>53</ele>
        <time>2022-05-11T12:44:49Z</time>
      </trkpt>
      <trkpt lat="49.75261" lon="2.15332">
        <ele>53</ele>
        <time>2022-05-11T12:44:50Z</time>
      </trkpt>
      <trkpt lat="49.75261" lon="2.15332">
        <ele>53</ele>
        <time>2022-05-11T12:44:51Z</time>
      </trkpt>
      <trkpt lat="49.75261" lon="2.15332">
        <ele>53</ele>
        <time>2022-05-11T12:44:52Z</time>
      </trkpt>
      <trkpt lat="49.75261" lon="2.15332">
        <ele>53</ele>
        <time>2022-05-11T12:44:53Z</time>
      </trkpt>
      <trkpt lat="49.75261" lon="2.15332">
        <ele>53</ele>
        <time>2022-05-11T12:44:54Z</time>
      </trkpt>
      <trkpt lat="49.75261" lon="2.15332">
        <ele>53</ele>
        <time>2022-05-11T12:44:55Z</time>
      </trkpt>
      <trkpt lat="49.75261" lon="2.15332">
        <ele>53</ele>
        <time>2022-05-11T12:44:56Z</time>
      </trkpt>
      <trkpt lat="49.75261" lon="2.15332">
        <ele>53</ele>
        <time>2022-05-11T12:44:57Z</time>
      </trkpt>
      <trkpt lat="49.75261" lon="2.15332">
        <ele>53</ele>
        <time>2022-05-11T12:44:58Z</time>
      </trkpt>
      <trkpt lat="49.75261" lon="2.15332">
        <ele>53</ele>
        <time>2022-05-11T12:44:59Z</time>
      </trkpt>
      <trkpt lat="49.75261" lon="2.15332">
        <ele>53</ele>
        <time>2022-05-11T12:45:00Z</time>
      </trkpt>
      <trkpt lat="49.75261" lon="2.15332">
        <ele>53</ele>
        <time>2022-05-11T12:45:01Z</time>
      </trkpt>
      <trkpt lat="49.75261" lon="2.15332">
        <ele>53</ele>
        <time>2022-05-11T12:45:02Z</time>
      </trkpt>
      <trkpt lat="49.75261" lon="2.15332">
        <ele>53</ele>
        <time>2022-05-11T12:45:03Z</time>
      </trkpt>
      <trkpt lat="49.75261" lon="2.15332">
        <ele>53</ele>
        <time>2022-05-11T12:45:04Z</time>
      </trkpt>
      <trkpt lat="49.75261" lon="2.15332">
        <ele>53</ele>
        <time>2022-05-11T12:45:05Z</time>
      </trkpt>
      <trkpt lat="49.75261" lon="2.15332">
        <ele>53</ele>
        <time>2022-05-11T12:45:06Z</time>
      </trkpt>
      <trkpt lat="49.75261" lon="2.15332">
        <ele>53</ele>
        <time>2022-05-11T12:45:07Z</time>
      </trkpt>
      <trkpt lat="49.75261" lon="2.15332">
        <ele>53</ele>
        <time>2022-05-11T12:45:08Z</time>
      </trkpt>
      <trkpt lat="49.75261" lon="2.15332">
        <ele>53</ele>
        <time>2022-05-11T12:45:09Z</time>
      </trkpt>
      <trkpt lat="49.75261" lon="2.15332">
        <ele>53</ele>
        <time>2022-05-11T12:45:10Z</time>
      </trkpt>
      <trkpt lat="49.75261" lon="2.15332">
        <ele>53</ele>
        <time>2022-05-11T12:45:11Z</time>
      </trkpt>
      <trkpt lat="49.75261" lon="2.15332">
        <ele>53</ele>
        <time>2022-05-11T12:45:12Z</time>
      </trkpt>
      <trkpt lat="49.75261" lon="2.15332">
        <ele>53</ele>
        <time>2022-05-11T12:45:13Z</time>
      </trkpt>
      <trkpt lat="49.75261" lon="2.15332">
        <ele>53</ele>
        <time>2022-05-11T12:45:14Z</time>
      </trkpt>
      <trkpt lat="49.75261" lon="2.15332">
        <ele>53</ele>
        <time>2022-05-11T12:45:15Z</time>
      </trkpt>
      <trkpt lat="49.75261" lon="2.15332">
        <ele>53</ele>
        <time>2022-05-11T12:45:16Z</time>
      </trkpt>
      <trkpt lat="49.75261" lon="2.15332">
        <ele>53</ele>
        <time>2022-05-11T12:45:17Z</time>
      </trkpt>
      <trkpt lat="49.75261" lon="2.15332">
        <ele>53</ele>
        <time>2022-05-11T12:45:18Z</time>
      </trkpt>
      <trkpt lat="49.75261" lon="2.15332">
        <ele>53</ele>
        <time>2022-05-11T12:45:19Z</time>
      </trkpt>
      <trkpt lat="49.75261" lon="2.15332">
        <ele>53</ele>
        <time>2022-05-11T12:45:20Z</time>
      </trkpt>
      <trkpt lat="49.75261" lon="2.15332">
        <ele>53</ele>
        <time>2022-05-11T12:45:21Z</time>
      </trkpt>
      <trkpt lat="49.75261" lon="2.15332">
        <ele>53</ele>
        <time>2022-05-11T12:45:22Z</time>
      </trkpt>
      <trkpt lat="49.75261" lon="2.15332">
        <ele>53</ele>
        <time>2022-05-11T12:45:23Z</time>
      </trkpt>
      <trkpt lat="49.75261" lon="2.15332">
        <ele>53</ele>
        <time>2022-05-11T12:45:24Z</time>
      </trkpt>
      <trkpt lat="49.75261" lon="2.15332">
        <ele>53</ele>
        <time>2022-05-11T12:45:25Z</time>
      </trkpt>
      <trkpt lat="49.75261" lon="2.15332">
        <ele>53</ele>
        <time>2022-05-11T12:45:26Z</time>
      </trkpt>
      <trkpt lat="49.75261" lon="2.15332">
        <ele>53</ele>
        <time>2022-05-11T12:45:27Z</time>
      </trkpt>
      <trkpt lat="49.75261" lon="2.15332">
        <ele>53</ele>
        <time>2022-05-11T12:45:28Z</time>
      </trkpt>
      <trkpt lat="49.75261" lon="2.15332">
        <ele>53</ele>
        <time>2022-05-11T12:45:29Z</time>
      </trkpt>
      <trkpt lat="49.75261" lon="2.15332">
        <ele>53</ele>
        <time>2022-05-11T12:45:30Z</time>
      </trkpt>
      <trkpt lat="49.75261" lon="2.15332">
        <ele>53</ele>
        <time>2022-05-11T12:45:31Z</time>
      </trkpt>
      <trkpt lat="49.75261" lon="2.15332">
        <ele>53</ele>
        <time>2022-05-11T12:45:32Z</time>
      </trkpt>
      <trkpt lat="49.75261" lon="2.15334">
        <ele>53</ele>
        <time>2022-05-11T12:45:33Z</time>
      </trkpt>
      <trkpt lat="49.75261" lon="2.15336">
        <ele>53</ele>
        <time>2022-05-11T12:45:34Z</time>
      </trkpt>
      <trkpt lat="49.7526" lon="2.15337">
        <ele>53</ele>
        <time>2022-05-11T12:45:35Z</time>
      </trkpt>
      <trkpt lat="49.75259" lon="2.15337">
        <ele>53</ele>
        <time>2022-05-11T12:45:36Z</time>
      </trkpt>
      <trkpt lat="49.75259" lon="2.15338">
        <ele>53</ele>
        <time>2022-05-11T12:45:37Z</time>
      </trkpt>
      <trkpt lat="49.75258" lon="2.15338">
        <ele>53</ele>
        <time>2022-05-11T12:45:38Z</time>
      </trkpt>
      <trkpt lat="49.75257" lon="2.15338">
        <ele>53</ele>
        <time>2022-05-11T12:45:39Z</time>
      </trkpt>
      <trkpt lat="49.75257" lon="2.15338">
        <ele>53</ele>
        <time>2022-05-11T12:45:40Z</time>
      </trkpt>
      <trkpt lat="49.75257" lon="2.15338">
        <ele>53</ele>
        <time>2022-05-11T12:45:41Z</time>
      </trkpt>
      <trkpt lat="49.75256" lon="2.15337">
        <ele>53</ele>
        <time>2022-05-11T12:45:42Z</time>
      </trkpt>
      <trkpt lat="49.75255" lon="2.15337">
        <ele>53</ele>
        <time>2022-05-11T12:45:44Z</time>
      </trkpt>
      <trkpt lat="49.75254" lon="2.15337">
        <ele>53</ele>
        <time>2022-05-11T12:45:45Z</time>
      </trkpt>
      <trkpt lat="49.75253" lon="2.15336">
        <ele>53</ele>
        <time>2022-05-11T12:45:46Z</time>
      </trkpt>
      <trkpt lat="49.75251" lon="2.15336">
        <ele>53</ele>
        <time>2022-05-11T12:45:47Z</time>
      </trkpt>
      <trkpt lat="49.75248" lon="2.15335">
        <ele>53</ele>
        <time>2022-05-11T12:45:48Z</time>
      </trkpt>
      <trkpt lat="49.75245" lon="2.15335">
        <ele>53</ele>
        <time>2022-05-11T12:45:50Z</time>
      </trkpt>
      <trkpt lat="49.75244" lon="2.15334">
        <ele>53</ele>
        <time>2022-05-11T12:45:51Z</time>
      </trkpt>
      <trkpt lat="49.75242" lon="2.15333">
        <ele>53</ele>
        <time>2022-05-11T12:45:52Z</time>
      </trkpt>
      <trkpt lat="49.75241" lon="2.15331">
        <ele>53</ele>
        <time>2022-05-11T12:45:53Z</time>
      </trkpt>
      <trkpt lat="49.75239" lon="2.1533">
        <ele>53</ele>
        <time>2022-05-11T12:45:55Z</time>
      </trkpt>
      <trkpt lat="49.75238" lon="2.15329">
        <ele>53</ele>
        <time>2022-05-11T12:45:56Z</time>
      </trkpt>
      <trkpt lat="49.75237" lon="2.15329">
        <ele>53</ele>
        <time>2022-05-11T12:45:57Z</time>
      </trkpt>
      <trkpt lat="49.75237" lon="2.15329">
        <ele>53</ele>
        <time>2022-05-11T12:45:58Z</time>
      </trkpt>
      <trkpt lat="49.75235" lon="2.15329">
        <ele>53</ele>
        <time>2022-05-11T12:45:59Z</time>
      </trkpt>
      <trkpt lat="49.75234" lon="2.15328">
        <ele>53</ele>
        <time>2022-05-11T12:46:01Z</time>
      </trkpt>
      <trkpt lat="49.75233" lon="2.15328">
        <ele>53</ele>
        <time>2022-05-11T12:46:02Z</time>
      </trkpt>
      <trkpt lat="49.75232" lon="2.15328">
        <ele>53</ele>
        <time>2022-05-11T12:46:03Z</time>
      </trkpt>
      <trkpt lat="49.75231" lon="2.15328">
        <ele>53</ele>
        <time>2022-05-11T12:46:04Z</time>
      </trkpt>
      <trkpt lat="49.75229" lon="2.15329">
        <ele>53</ele>
        <time>2022-05-11T12:46:06Z</time>
      </trkpt>
      <trkpt lat="49.75228" lon="2.15329">
        <ele>53</ele>
        <time>2022-05-11T12:46:07Z</time>
      </trkpt>
      <trkpt lat="49.75227" lon="2.1533">
        <ele>53</ele>
        <time>2022-05-11T12:46:08Z</time>
      </trkpt>
      <trkpt lat="49.75228" lon="2.15329">
        <ele>53</ele>
        <time>2022-05-11T12:46:09Z</time>
      </trkpt>
      <trkpt lat="49.75228" lon="2.15328">
        <ele>53</ele>
        <time>2022-05-11T12:46:10Z</time>
      </trkpt>
      <trkpt lat="49.75227" lon="2.15328">
        <ele>53</ele>
        <time>2022-05-11T12:46:12Z</time>
      </trkpt>
      <trkpt lat="49.75226" lon="2.15329">
        <ele>53</ele>
        <time>2022-05-11T12:46:13Z</time>
      </trkpt>
      <trkpt lat="49.75225" lon="2.15329">
        <ele>53</ele>
        <time>2022-05-11T12:46:14Z</time>
      </trkpt>
      <trkpt lat="49.75224" lon="2.1533">
        <ele>53</ele>
        <time>2022-05-11T12:46:15Z</time>
      </trkpt>
      <trkpt lat="49.75223" lon="2.1533">
        <ele>53</ele>
        <time>2022-05-11T12:46:17Z</time>
      </trkpt>
      <trkpt lat="49.75222" lon="2.15331">
        <ele>53</ele>
        <time>2022-05-11T12:46:18Z</time>
      </trkpt>
      <trkpt lat="49.75221" lon="2.15331">
        <ele>53</ele>
        <time>2022-05-11T12:46:19Z</time>
      </trkpt>
      <trkpt lat="49.7522" lon="2.15331">
        <ele>53</ele>
        <time>2022-05-11T12:46:20Z</time>
      </trkpt>
      <trkpt lat="49.7522" lon="2.1533">
        <ele>53</ele>
        <time>2022-05-11T12:46:21Z</time>
      </trkpt>
      <trkpt lat="49.75219" lon="2.15329">
        <ele>53</ele>
        <time>2022-05-11T12:46:22Z</time>
      </trkpt>
      <trkpt lat="49.75218" lon="2.15328">
        <ele>53</ele>
        <time>2022-05-11T12:46:23Z</time>
      </trkpt>
      <trkpt lat="49.75217" lon="2.15326">
        <ele>53</ele>
        <time>2022-05-11T12:46:24Z</time>
      </trkpt>
      <trkpt lat="49.75216" lon="2.15325">
        <ele>53</ele>
        <time>2022-05-11T12:46:25Z</time>
      </trkpt>
      <trkpt lat="49.75215" lon="2.15325">
        <ele>53</ele>
        <time>2022-05-11T12:46:26Z</time>
      </trkpt>
      <trkpt lat="49.75213" lon="2.15323">
        <ele>53</ele>
        <time>2022-05-11T12:46:27Z</time>
      </trkpt>
      <trkpt lat="49.75212" lon="2.15323">
        <ele>53</ele>
        <time>2022-05-11T12:46:29Z</time>
      </trkpt>
      <trkpt lat="49.75211" lon="2.15322">
        <ele>53</ele>
        <time>2022-05-11T12:46:30Z</time>
      </trkpt>
      <trkpt lat="49.7521" lon="2.15322">
        <ele>53</ele>
        <time>2022-05-11T12:46:31Z</time>
      </trkpt>
      <trkpt lat="49.75209" lon="2.15321">
        <ele>53</ele>
        <time>2022-05-11T12:46:32Z</time>
      </trkpt>
      <trkpt lat="49.75207" lon="2.15321">
        <ele>53</ele>
        <time>2022-05-11T12:46:33Z</time>
      </trkpt>
      <trkpt lat="49.75206" lon="2.15321">
        <ele>53</ele>
        <time>2022-05-11T12:46:35Z</time>
      </trkpt>
      <trkpt lat="49.75204" lon="2.15321">
        <ele>53</ele>
        <time>2022-05-11T12:46:36Z</time>
      </trkpt>
      <trkpt lat="49.75203" lon="2.15321">
        <ele>53</ele>
        <time>2022-05-11T12:46:37Z</time>
      </trkpt>
      <trkpt lat="49.75201" lon="2.15321">
        <ele>53</ele>
        <time>2022-05-11T12:46:38Z</time>
      </trkpt>
      <trkpt lat="49.752" lon="2.15321">
        <ele>53</ele>
        <time>2022-05-11T12:46:39Z</time>
      </trkpt>
      <trkpt lat="49.75199" lon="2.15322">
        <ele>53</ele>
        <time>2022-05-11T12:46:40Z</time>
      </trkpt>
      <trkpt lat="49.75198" lon="2.15322">
        <ele>53</ele>
        <time>2022-05-11T12:46:41Z</time>
      </trkpt>
      <trkpt lat="49.75197" lon="2.15323">
        <ele>53</ele>
        <time>2022-05-11T12:46:42Z</time>
      </trkpt>
      <trkpt lat="49.75196" lon="2.15323">
        <ele>53</ele>
        <time>2022-05-11T12:46:43Z</time>
      </trkpt>
      <trkpt lat="49.75193" lon="2.15325">
        <ele>53</ele>
        <time>2022-05-11T12:46:45Z</time>
      </trkpt>
      <trkpt lat="49.75192" lon="2.15325">
        <ele>53</ele>
        <time>2022-05-11T12:46:46Z</time>
      </trkpt>
      <trkpt lat="49.75191" lon="2.15325">
        <ele>53</ele>
        <time>2022-05-11T12:46:47Z</time>
      </trkpt>
      <trkpt lat="49.75191" lon="2.15324">
        <ele>53</ele>
        <time>2022-05-11T12:46:48Z</time>
      </trkpt>
      <trkpt lat="49.7519" lon="2.15324">
        <ele>53</ele>
        <time>2022-05-11T12:46:49Z</time>
      </trkpt>
      <trkpt lat="49.75189" lon="2.15324">
        <ele>53</ele>
        <time>2022-05-11T12:46:50Z</time>
      </trkpt>
      <trkpt lat="49.75187" lon="2.15325">
        <ele>53</ele>
        <time>2022-05-11T12:46:51Z</time>
      </trkpt>
      <trkpt lat="49.75186" lon="2.15326">
        <ele>53</ele>
        <time>2022-05-11T12:46:53Z</time>
      </trkpt>
      <trkpt lat="49.75185" lon="2.15326">
        <ele>53</ele>
        <time>2022-05-11T12:46:54Z</time>
      </trkpt>
      <trkpt lat="49.75184" lon="2.15327">
        <ele>53</ele>
        <time>2022-05-11T12:46:55Z</time>
      </trkpt>
      <trkpt lat="49.75183" lon="2.15327">
        <ele>53</ele>
        <time>2022-05-11T12:46:56Z</time>
      </trkpt>
      <trkpt lat="49.75181" lon="2.15328">
        <ele>53</ele>
        <time>2022-05-11T12:46:57Z</time>
      </trkpt>
      <trkpt lat="49.7518" lon="2.15328">
        <ele>53</ele>
        <time>2022-05-11T12:46:58Z</time>
      </trkpt>
      <trkpt lat="49.75179" lon="2.15329">
        <ele>53</ele>
        <time>2022-05-11T12:46:59Z</time>
      </trkpt>
      <trkpt lat="49.75177" lon="2.15329">
        <ele>53</ele>
        <time>2022-05-11T12:47:00Z</time>
      </trkpt>
      <trkpt lat="49.75176" lon="2.15329">
        <ele>53</ele>
        <time>2022-05-11T12:47:01Z</time>
      </trkpt>
      <trkpt lat="49.75174" lon="2.1533">
        <ele>53.1</ele>
        <time>2022-05-11T12:47:02Z</time>
      </trkpt>
      <trkpt lat="49.75173" lon="2.1533">
        <ele>53.1</ele>
        <time>2022-05-11T12:47:03Z</time>
      </trkpt>
      <trkpt lat="49.75171" lon="2.1533">
        <ele>53.1</ele>
        <time>2022-05-11T12:47:05Z</time>
      </trkpt>
      <trkpt lat="49.7517" lon="2.1533">
        <ele>53.1</ele>
        <time>2022-05-11T12:47:06Z</time>
      </trkpt>
      <trkpt lat="49.75168" lon="2.1533">
        <ele>53.1</ele>
        <time>2022-05-11T12:47:07Z</time>
      </trkpt>
      <trkpt lat="49.75167" lon="2.15329">
        <ele>53.1</ele>
        <time>2022-05-11T12:47:08Z</time>
      </trkpt>
      <trkpt lat="49.75166" lon="2.15329">
        <ele>53.1</ele>
        <time>2022-05-11T12:47:09Z</time>
      </trkpt>
      <trkpt lat="49.75165" lon="2.15329">
        <ele>53</ele>
        <time>2022-05-11T12:47:11Z</time>
      </trkpt>
      <trkpt lat="49.75164" lon="2.15329">
        <ele>53</ele>
        <time>2022-05-11T12:47:12Z</time>
      </trkpt>
      <trkpt lat="49.75163" lon="2.15328">
        <ele>53</ele>
        <time>2022-05-11T12:47:13Z</time>
      </trkpt>
      <trkpt lat="49.75162" lon="2.15328">
        <ele>53</ele>
        <time>2022-05-11T12:47:14Z</time>
      </trkpt>
      <trkpt lat="49.75161" lon="2.15327">
        <ele>53</ele>
        <time>2022-05-11T12:47:15Z</time>
      </trkpt>
      <trkpt lat="49.7516" lon="2.15327">
        <ele>53</ele>
        <time>2022-05-11T12:47:16Z</time>
      </trkpt>
      <trkpt lat="49.7516" lon="2.15326">
        <ele>53</ele>
        <time>2022-05-11T12:47:17Z</time>
      </trkpt>
      <trkpt lat="49.75159" lon="2.15326">
        <ele>53</ele>
        <time>2022-05-11T12:47:18Z</time>
      </trkpt>
      <trkpt lat="49.75158" lon="2.15326">
        <ele>53</ele>
        <time>2022-05-11T12:47:19Z</time>
      </trkpt>
      <trkpt lat="49.75157" lon="2.15326">
        <ele>53</ele>
        <time>2022-05-11T12:47:20Z</time>
      </trkpt>
      <trkpt lat="49.75154" lon="2.15327">
        <ele>53</ele>
        <time>2022-05-11T12:47:21Z</time>
      </trkpt>
      <trkpt lat="49.75154" lon="2.15327">
        <ele>53</ele>
        <time>2022-05-11T12:47:22Z</time>
      </trkpt>
      <trkpt lat="49.75153" lon="2.15327">
        <ele>53</ele>
        <time>2022-05-11T12:47:23Z</time>
      </trkpt>
      <trkpt lat="49.75151" lon="2.15328">
        <ele>53</ele>
        <time>2022-05-11T12:47:25Z</time>
      </trkpt>
      <trkpt lat="49.7515" lon="2.15329">
        <ele>53</ele>
        <time>2022-05-11T12:47:26Z</time>
      </trkpt>
      <trkpt lat="49.75149" lon="2.15329">
        <ele>53</ele>
        <time>2022-05-11T12:47:27Z</time>
      </trkpt>
      <trkpt lat="49.75148" lon="2.15331">
        <ele>53</ele>
        <time>2022-05-11T12:47:28Z</time>
      </trkpt>
      <trkpt lat="49.75147" lon="2.15332">
        <ele>53</ele>
        <time>2022-05-11T12:47:29Z</time>
      </trkpt>
      <trkpt lat="49.75146" lon="2.15334">
        <ele>53</ele>
        <time>2022-05-11T12:47:30Z</time>
      </trkpt>
      <trkpt lat="49.75145" lon="2.15335">
        <ele>53</ele>
        <time>2022-05-11T12:47:31Z</time>
      </trkpt>
      <trkpt lat="49.75144" lon="2.15337">
        <ele>53</ele>
        <time>2022-05-11T12:47:32Z</time>
      </trkpt>
      <trkpt lat="49.75143" lon="2.15339">
        <ele>53</ele>
        <time>2022-05-11T12:47:33Z</time>
      </trkpt>
      <trkpt lat="49.75142" lon="2.1534">
        <ele>53</ele>
        <time>2022-05-11T12:47:34Z</time>
      </trkpt>
      <trkpt lat="49.7514" lon="2.15341">
        <ele>53</ele>
        <time>2022-05-11T12:47:36Z</time>
      </trkpt>
      <trkpt lat="49.75139" lon="2.15343">
        <ele>53</ele>
        <time>2022-05-11T12:47:37Z</time>
      </trkpt>
      <trkpt lat="49.75138" lon="2.15344">
        <ele>53</ele>
        <time>2022-05-11T12:47:38Z</time>
      </trkpt>
      <trkpt lat="49.75136" lon="2.15346">
        <ele>53</ele>
        <time>2022-05-11T12:47:39Z</time>
      </trkpt>
      <trkpt lat="49.75135" lon="2.15347">
        <ele>53</ele>
        <time>2022-05-11T12:47:40Z</time>
      </trkpt>
      <trkpt lat="49.75135" lon="2.15348">
        <ele>53</ele>
        <time>2022-05-11T12:47:41Z</time>
      </trkpt>
      <trkpt lat="49.75134" lon="2.15349">
        <ele>53</ele>
        <time>2022-05-11T12:47:42Z</time>
      </trkpt>
      <trkpt lat="49.75132" lon="2.1535">
        <ele>53</ele>
        <time>2022-05-11T12:47:43Z</time>
      </trkpt>
      <trkpt lat="49.75131" lon="2.15351">
        <ele>53</ele>
        <time>2022-05-11T12:47:44Z</time>
      </trkpt>
      <trkpt lat="49.75129" lon="2.15352">
        <ele>53</ele>
        <time>2022-05-11T12:47:45Z</time>
      </trkpt>
      <trkpt lat="49.75127" lon="2.15354">
        <ele>53</ele>
        <time>2022-05-11T12:47:46Z</time>
      </trkpt>
      <trkpt lat="49.75126" lon="2.15354">
        <ele>53</ele>
        <time>2022-05-11T12:47:48Z</time>
      </trkpt>
      <trkpt lat="49.75126" lon="2.15355">
        <ele>53</ele>
        <time>2022-05-11T12:47:49Z</time>
      </trkpt>
      <trkpt lat="49.75124" lon="2.15356">
        <ele>53</ele>
        <time>2022-05-11T12:47:50Z</time>
      </trkpt>
      <trkpt lat="49.75123" lon="2.15357">
        <ele>53</ele>
        <time>2022-05-11T12:47:51Z</time>
      </trkpt>
      <trkpt lat="49.75122" lon="2.15357">
        <ele>53</ele>
        <time>2022-05-11T12:47:52Z</time>
      </trkpt>
      <trkpt lat="49.75121" lon="2.15358">
        <ele>53</ele>
        <time>2022-05-11T12:47:53Z</time>
      </trkpt>
      <trkpt lat="49.7512" lon="2.15359">
        <ele>53</ele>
        <time>2022-05-11T12:47:54Z</time>
      </trkpt>
      <trkpt lat="49.75119" lon="2.1536">
        <ele>53</ele>
        <time>2022-05-11T12:47:55Z</time>
      </trkpt>
      <trkpt lat="49.75118" lon="2.15361">
        <ele>53</ele>
        <time>2022-05-11T12:47:56Z</time>
      </trkpt>
      <trkpt lat="49.75117" lon="2.15363">
        <ele>53</ele>
        <time>2022-05-11T12:47:58Z</time>
      </trkpt>
      <trkpt lat="49.75116" lon="2.15364">
        <ele>53</ele>
        <time>2022-05-11T12:47:59Z</time>
      </trkpt>
      <trkpt lat="49.75115" lon="2.15365">
        <ele>53</ele>
        <time>2022-05-11T12:48:00Z</time>
      </trkpt>
      <trkpt lat="49.75115" lon="2.15367">
        <ele>53</ele>
        <time>2022-05-11T12:48:01Z</time>
      </trkpt>
      <trkpt lat="49.75114" lon="2.15369">
        <ele>53</ele>
        <time>2022-05-11T12:48:02Z</time>
      </trkpt>
      <trkpt lat="49.75113" lon="2.15371">
        <ele>53</ele>
        <time>2022-05-11T12:48:03Z</time>
      </trkpt>
      <trkpt lat="49.75112" lon="2.15373">
        <ele>53</ele>
        <time>2022-05-11T12:48:05Z</time>
      </trkpt>
      <trkpt lat="49.75112" lon="2.15375">
        <ele>53</ele>
        <time>2022-05-11T12:48:06Z</time>
      </trkpt>
      <trkpt lat="49.7511" lon="2.15377">
        <ele>53</ele>
        <time>2022-05-11T12:48:07Z</time>
      </trkpt>
      <trkpt lat="49.7511" lon="2.15378">
        <ele>53</ele>
        <time>2022-05-11T12:48:08Z</time>
      </trkpt>
      <trkpt lat="49.75109" lon="2.15379">
        <ele>53</ele>
        <time>2022-05-11T12:48:09Z</time>
      </trkpt>
      <trkpt lat="49.75107" lon="2.15381">
        <ele>53</ele>
        <time>2022-05-11T12:48:11Z</time>
      </trkpt>
      <trkpt lat="49.75106" lon="2.15382">
        <ele>53</ele>
        <time>2022-05-11T12:48:12Z</time>
      </trkpt>
      <trkpt lat="49.75106" lon="2.15383">
        <ele>53</ele>
        <time>2022-05-11T12:48:13Z</time>
      </trkpt>
      <trkpt lat="49.75104" lon="2.15384">
        <ele>53</ele>
        <time>2022-05-11T12:48:14Z</time>
      </trkpt>
      <trkpt lat="49.75103" lon="2.15385">
        <ele>53</ele>
        <time>2022-05-11T12:48:15Z</time>
      </trkpt>
      <trkpt lat="49.75102" lon="2.15386">
        <ele>53</ele>
        <time>2022-05-11T12:48:16Z</time>
      </trkpt>
      <trkpt lat="49.75101" lon="2.15386">
        <ele>53</ele>
        <time>2022-05-11T12:48:17Z</time>
      </trkpt>
      <trkpt lat="49.751" lon="2.15386">
        <ele>53</ele>
        <time>2022-05-11T12:48:18Z</time>
      </trkpt>
      <trkpt lat="49.75099" lon="2.15387">
        <ele>53</ele>
        <time>2022-05-11T12:48:19Z</time>
      </trkpt>
      <trkpt lat="49.75097" lon="2.15388">
        <ele>53</ele>
        <time>2022-05-11T12:48:20Z</time>
      </trkpt>
      <trkpt lat="49.75097" lon="2.15388">
        <ele>52.9</ele>
        <time>2022-05-11T12:48:21Z</time>
      </trkpt>
      <trkpt lat="49.75096" lon="2.15388">
        <ele>52.9</ele>
        <time>2022-05-11T12:48:23Z</time>
      </trkpt>
      <trkpt lat="49.75095" lon="2.15389">
        <ele>52.9</ele>
        <time>2022-05-11T12:48:24Z</time>
      </trkpt>
      <trkpt lat="49.75094" lon="2.15389">
        <ele>52.9</ele>
        <time>2022-05-11T12:48:25Z</time>
      </trkpt>
      <trkpt lat="49.75092" lon="2.1539">
        <ele>52.9</ele>
        <time>2022-05-11T12:48:27Z</time>
      </trkpt>
      <trkpt lat="49.75092" lon="2.1539">
        <ele>52.9</ele>
        <time>2022-05-11T12:48:28Z</time>
      </trkpt>
      <trkpt lat="49.75091" lon="2.1539">
        <ele>52.9</ele>
        <time>2022-05-11T12:48:29Z</time>
      </trkpt>
      <trkpt lat="49.75091" lon="2.15389">
        <ele>52.9</ele>
        <time>2022-05-11T12:48:30Z</time>
      </trkpt>
      <trkpt lat="49.7509" lon="2.15389">
        <ele>52.9</ele>
        <time>2022-05-11T12:48:31Z</time>
      </trkpt>
      <trkpt lat="49.75089" lon="2.15389">
        <ele>52.9</ele>
        <time>2022-05-11T12:48:32Z</time>
      </trkpt>
      <trkpt lat="49.75087" lon="2.1539">
        <ele>52.9</ele>
        <time>2022-05-11T12:48:34Z</time>
      </trkpt>
      <trkpt lat="49.75085" lon="2.15391">
        <ele>52.9</ele>
        <time>2022-05-11T12:48:35Z</time>
      </trkpt>
      <trkpt lat="49.75084" lon="2.15391">
        <ele>52.9</ele>
        <time>2022-05-11T12:48:36Z</time>
      </trkpt>
      <trkpt lat="49.75083" lon="2.15392">
        <ele>52.9</ele>
        <time>2022-05-11T12:48:37Z</time>
      </trkpt>
      <trkpt lat="49.75081" lon="2.15393">
        <ele>52.9</ele>
        <time>2022-05-11T12:48:38Z</time>
      </trkpt>
      <trkpt lat="49.7508" lon="2.15393">
        <ele>52.9</ele>
        <time>2022-05-11T12:48:39Z</time>
      </trkpt>
      <trkpt lat="49.75077" lon="2.15394">
        <ele>52.9</ele>
        <time>2022-05-11T12:48:40Z</time>
      </trkpt>
      <trkpt lat="49.75077" lon="2.15394">
        <ele>52.9</ele>
        <time>2022-05-11T12:48:41Z</time>
      </trkpt>
      <trkpt lat="49.75076" lon="2.15394">
        <ele>52.9</ele>
        <time>2022-05-11T12:48:42Z</time>
      </trkpt>
      <trkpt lat="49.75075" lon="2.15394">
        <ele>52.9</ele>
        <time>2022-05-11T12:48:43Z</time>
      </trkpt>
      <trkpt lat="49.75075" lon="2.15393">
        <ele>52.9</ele>
        <time>2022-05-11T12:48:44Z</time>
      </trkpt>
      <trkpt lat="49.75074" lon="2.15393">
        <ele>52.9</ele>
        <time>2022-05-11T12:48:46Z</time>
      </trkpt>
      <trkpt lat="49.75072" lon="2.15393">
        <ele>52.9</ele>
        <time>2022-05-11T12:48:48Z</time>
      </trkpt>
      <trkpt lat="49.75071" lon="2.15393">
        <ele>52.9</ele>
        <time>2022-05-11T12:48:49Z</time>
      </trkpt>
      <trkpt lat="49.75069" lon="2.15394">
        <ele>52.9</ele>
        <time>2022-05-11T12:48:50Z</time>
      </trkpt>
      <trkpt lat="49.75068" lon="2.15394">
        <ele>52.9</ele>
        <time>2022-05-11T12:48:51Z</time>
      </trkpt>
      <trkpt lat="49.75067" lon="2.15394">
        <ele>53</ele>
        <time>2022-05-11T12:48:52Z</time>
      </trkpt>
      <trkpt lat="49.75066" lon="2.15394">
        <ele>53</ele>
        <time>2022-05-11T12:48:53Z</time>
      </trkpt>
      <trkpt lat="49.75065" lon="2.15394">
        <ele>53</ele>
        <time>2022-05-11T12:48:54Z</time>
      </trkpt>
      <trkpt lat="49.75064" lon="2.15393">
        <ele>53</ele>
        <time>2022-05-11T12:48:55Z</time>
      </trkpt>
      <trkpt lat="49.75062" lon="2.15393">
        <ele>53</ele>
        <time>2022-05-11T12:48:56Z</time>
      </trkpt>
      <trkpt lat="49.7506" lon="2.15391">
        <ele>53</ele>
        <time>2022-05-11T12:48:57Z</time>
      </trkpt>
      <trkpt lat="49.75059" lon="2.1539">
        <ele>53</ele>
        <time>2022-05-11T12:48:59Z</time>
      </trkpt>
      <trkpt lat="49.75058" lon="2.15389">
        <ele>53</ele>
        <time>2022-05-11T12:49:01Z</time>
      </trkpt>
      <trkpt lat="49.75056" lon="2.15388">
        <ele>53</ele>
        <time>2022-05-11T12:49:02Z</time>
      </trkpt>
      <trkpt lat="49.75055" lon="2.15386">
        <ele>53</ele>
        <time>2022-05-11T12:49:03Z</time>
      </trkpt>
      <trkpt lat="49.75054" lon="2.15386">
        <ele>53</ele>
        <time>2022-05-11T12:49:04Z</time>
      </trkpt>
      <trkpt lat="49.75053" lon="2.15386">
        <ele>53</ele>
        <time>2022-05-11T12:49:05Z</time>
      </trkpt>
      <trkpt lat="49.75051" lon="2.15385">
        <ele>53.1</ele>
        <time>2022-05-11T12:49:06Z</time>
      </trkpt>
      <trkpt lat="49.7505" lon="2.15384">
        <ele>53.1</ele>
        <time>2022-05-11T12:49:08Z</time>
      </trkpt>
      <trkpt lat="49.75048" lon="2.15383">
        <ele>53.1</ele>
        <time>2022-05-11T12:49:09Z</time>
      </trkpt>
      <trkpt lat="49.75047" lon="2.15382">
        <ele>53.1</ele>
        <time>2022-05-11T12:49:10Z</time>
      </trkpt>
      <trkpt lat="49.75045" lon="2.1538">
        <ele>53.1</ele>
        <time>2022-05-11T12:49:12Z</time>
      </trkpt>
      <trkpt lat="49.75043" lon="2.1538">
        <ele>53.1</ele>
        <time>2022-05-11T12:49:14Z</time>
      </trkpt>
      <trkpt lat="49.75042" lon="2.1538">
        <ele>53.1</ele>
        <time>2022-05-11T12:49:15Z</time>
      </trkpt>
      <trkpt lat="49.75041" lon="2.15381">
        <ele>53.1</ele>
        <time>2022-05-11T12:49:16Z</time>
      </trkpt>
      <trkpt lat="49.75039" lon="2.15382">
        <ele>53.1</ele>
        <time>2022-05-11T12:49:17Z</time>
      </trkpt>
      <trkpt lat="49.75038" lon="2.15383">
        <ele>53.1</ele>
        <time>2022-05-11T12:49:18Z</time>
      </trkpt>
      <trkpt lat="49.75038" lon="2.15386">
        <ele>53.1</ele>
        <time>2022-05-11T12:49:20Z</time>
      </trkpt>
      <trkpt lat="49.75037" lon="2.15388">
        <ele>53.1</ele>
        <time>2022-05-11T12:49:21Z</time>
      </trkpt>
      <trkpt lat="49.75037" lon="2.15391">
        <ele>53.1</ele>
        <time>2022-05-11T12:49:22Z</time>
      </trkpt>
      <trkpt lat="49.75034" lon="2.15396">
        <ele>53.1</ele>
        <time>2022-05-11T12:49:24Z</time>
      </trkpt>
      <trkpt lat="49.75033" lon="2.15397">
        <ele>53.1</ele>
        <time>2022-05-11T12:49:25Z</time>
      </trkpt>
      <trkpt lat="49.75033" lon="2.15398">
        <ele>53.1</ele>
        <time>2022-05-11T12:49:26Z</time>
      </trkpt>
      <trkpt lat="49.75032" lon="2.15399">
        <ele>53.1</ele>
        <time>2022-05-11T12:49:27Z</time>
      </trkpt>
      <trkpt lat="49.75031" lon="2.154">
        <ele>53.1</ele>
        <time>2022-05-11T12:49:28Z</time>
      </trkpt>
      <trkpt lat="49.7503" lon="2.15402">
        <ele>53.1</ele>
        <time>2022-05-11T12:49:29Z</time>
      </trkpt>
      <trkpt lat="49.75029" lon="2.15405">
        <ele>53.1</ele>
        <time>2022-05-11T12:49:30Z</time>
      </trkpt>
      <trkpt lat="49.75028" lon="2.15406">
        <ele>53.1</ele>
        <time>2022-05-11T12:49:31Z</time>
      </trkpt>
      <trkpt lat="49.75028" lon="2.15407">
        <ele>53.1</ele>
        <time>2022-05-11T12:49:32Z</time>
      </trkpt>
      <trkpt lat="49.75027" lon="2.15408">
        <ele>53.1</ele>
        <time>2022-05-11T12:49:33Z</time>
      </trkpt>
      <trkpt lat="49.75026" lon="2.1541">
        <ele>53.1</ele>
        <time>2022-05-11T12:49:34Z</time>
      </trkpt>
      <trkpt lat="49.75025" lon="2.15412">
        <ele>53.1</ele>
        <time>2022-05-11T12:49:35Z</time>
      </trkpt>
      <trkpt lat="49.75025" lon="2.15414">
        <ele>53.1</ele>
        <time>2022-05-11T12:49:37Z</time>
      </trkpt>
      <trkpt lat="49.75024" lon="2.15416">
        <ele>53.1</ele>
        <time>2022-05-11T12:49:38Z</time>
      </trkpt>
      <trkpt lat="49.75024" lon="2.1542">
        <ele>53</ele>
        <time>2022-05-11T12:49:40Z</time>
      </trkpt>
      <trkpt lat="49.75024" lon="2.15423">
        <ele>53</ele>
        <time>2022-05-11T12:49:41Z</time>
      </trkpt>
      <trkpt lat="49.75024" lon="2.15424">
        <ele>53</ele>
        <time>2022-05-11T12:49:42Z</time>
      </trkpt>
      <trkpt lat="49.75024" lon="2.15425">
        <ele>53</ele>
        <time>2022-05-11T12:49:43Z</time>
      </trkpt>
      <trkpt lat="49.75024" lon="2.15428">
        <ele>53</ele>
        <time>2022-05-11T12:49:44Z</time>
      </trkpt>
      <trkpt lat="49.75024" lon="2.1543">
        <ele>53</ele>
        <time>2022-05-11T12:49:45Z</time>
      </trkpt>
      <trkpt lat="49.75024" lon="2.15431">
        <ele>53</ele>
        <time>2022-05-11T12:49:46Z</time>
      </trkpt>
      <trkpt lat="49.75025" lon="2.15435">
        <ele>53</ele>
        <time>2022-05-11T12:49:47Z</time>
      </trkpt>
      <trkpt lat="49.75025" lon="2.15437">
        <ele>53</ele>
        <time>2022-05-11T12:49:48Z</time>
      </trkpt>
      <trkpt lat="49.75026" lon="2.15439">
        <ele>53</ele>
        <time>2022-05-11T12:49:49Z</time>
      </trkpt>
      <trkpt lat="49.75027" lon="2.15441">
        <ele>53</ele>
        <time>2022-05-11T12:49:51Z</time>
      </trkpt>
      <trkpt lat="49.75027" lon="2.15443">
        <ele>53</ele>
        <time>2022-05-11T12:49:52Z</time>
      </trkpt>
      <trkpt lat="49.75027" lon="2.15446">
        <ele>53</ele>
        <time>2022-05-11T12:49:53Z</time>
      </trkpt>
      <trkpt lat="49.75027" lon="2.15448">
        <ele>53</ele>
        <time>2022-05-11T12:49:54Z</time>
      </trkpt>
      <trkpt lat="49.75027" lon="2.1545">
        <ele>53</ele>
        <time>2022-05-11T12:49:55Z</time>
      </trkpt>
      <trkpt lat="49.75026" lon="2.15452">
        <ele>53</ele>
        <time>2022-05-11T12:49:56Z</time>
      </trkpt>
      <trkpt lat="49.75026" lon="2.15455">
        <ele>53</ele>
        <time>2022-05-11T12:49:57Z</time>
      </trkpt>
      <trkpt lat="49.75025" lon="2.15459">
        <ele>53</ele>
        <time>2022-05-11T12:49:58Z</time>
      </trkpt>
      <trkpt lat="49.75025" lon="2.15461">
        <ele>53</ele>
        <time>2022-05-11T12:49:59Z</time>
      </trkpt>
      <trkpt lat="49.75024" lon="2.15462">
        <ele>53.1</ele>
        <time>2022-05-11T12:50:00Z</time>
      </trkpt>
      <trkpt lat="49.75024" lon="2.15466">
        <ele>53.1</ele>
        <time>2022-05-11T12:50:02Z</time>
      </trkpt>
      <trkpt lat="49.75023" lon="2.15468">
        <ele>53.1</ele>
        <time>2022-05-11T12:50:03Z</time>
      </trkpt>
      <trkpt lat="49.75023" lon="2.1547">
        <ele>53.1</ele>
        <time>2022-05-11T12:50:04Z</time>
      </trkpt>
      <trkpt lat="49.75023" lon="2.15472">
        <ele>53.1</ele>
        <time>2022-05-11T12:50:05Z</time>
      </trkpt>
      <trkpt lat="49.75023" lon="2.15474">
        <ele>53.1</ele>
        <time>2022-05-11T12:50:06Z</time>
      </trkpt>
      <trkpt lat="49.75023" lon="2.15476">
        <ele>53.1</ele>
        <time>2022-05-11T12:50:07Z</time>
      </trkpt>
      <trkpt lat="49.75024" lon="2.15479">
        <ele>53.1</ele>
        <time>2022-05-11T12:50:09Z</time>
      </trkpt>
      <trkpt lat="49.75024" lon="2.1548">
        <ele>53.1</ele>
        <time>2022-05-11T12:50:10Z</time>
      </trkpt>
      <trkpt lat="49.75025" lon="2.15482">
        <ele>53.1</ele>
        <time>2022-05-11T12:50:11Z</time>
      </trkpt>
      <trkpt lat="49.75027" lon="2.15485">
        <ele>53.1</ele>
        <time>2022-05-11T12:50:12Z</time>
      </trkpt>
      <trkpt lat="49.75028" lon="2.15487">
        <ele>53.1</ele>
        <time>2022-05-11T12:50:14Z</time>
      </trkpt>
      <trkpt lat="49.75029" lon="2.1549">
        <ele>53.1</ele>
        <time>2022-05-11T12:50:15Z</time>
      </trkpt>
      <trkpt lat="49.75029" lon="2.15491">
        <ele>53.1</ele>
        <time>2022-05-11T12:50:16Z</time>
      </trkpt>
      <trkpt lat="49.75029" lon="2.15492">
        <ele>53.1</ele>
        <time>2022-05-11T12:50:17Z</time>
      </trkpt>
      <trkpt lat="49.7503" lon="2.15495">
        <ele>53.1</ele>
        <time>2022-05-11T12:50:18Z</time>
      </trkpt>
      <trkpt lat="49.75031" lon="2.15497">
        <ele>53.1</ele>
        <time>2022-05-11T12:50:19Z</time>
      </trkpt>
      <trkpt lat="49.75031" lon="2.15498">
        <ele>53.1</ele>
        <time>2022-05-11T12:50:20Z</time>
      </trkpt>
      <trkpt lat="49.75032" lon="2.15499">
        <ele>53.1</ele>
        <time>2022-05-11T12:50:21Z</time>
      </trkpt>
      <trkpt lat="49.75034" lon="2.15501">
        <ele>53.2</ele>
        <time>2022-05-11T12:50:22Z</time>
      </trkpt>
      <trkpt lat="49.75036" lon="2.15504">
        <ele>53.2</ele>
        <time>2022-05-11T12:50:23Z</time>
      </trkpt>
      <trkpt lat="49.75037" lon="2.15506">
        <ele>53.2</ele>
        <time>2022-05-11T12:50:25Z</time>
      </trkpt>
      <trkpt lat="49.75039" lon="2.15509">
        <ele>53.2</ele>
        <time>2022-05-11T12:50:26Z</time>
      </trkpt>
      <trkpt lat="49.7504" lon="2.15509">
        <ele>53.2</ele>
        <time>2022-05-11T12:50:27Z</time>
      </trkpt>
      <trkpt lat="49.75041" lon="2.15511">
        <ele>53.2</ele>
        <time>2022-05-11T12:50:28Z</time>
      </trkpt>
      <trkpt lat="49.75043" lon="2.15512">
        <ele>53.2</ele>
        <time>2022-05-11T12:50:29Z</time>
      </trkpt>
      <trkpt lat="49.75044" lon="2.15514">
        <ele>53.2</ele>
        <time>2022-05-11T12:50:30Z</time>
      </trkpt>
      <trkpt lat="49.75045" lon="2.15515">
        <ele>53.2</ele>
        <time>2022-05-11T12:50:31Z</time>
      </trkpt>
      <trkpt lat="49.75047" lon="2.15517">
        <ele>53.2</ele>
        <time>2022-05-11T12:50:33Z</time>
      </trkpt>
      <trkpt lat="49.75048" lon="2.15519">
        <ele>53.2</ele>
        <time>2022-05-11T12:50:34Z</time>
      </trkpt>
      <trkpt lat="49.75049" lon="2.1552">
        <ele>53.2</ele>
        <time>2022-05-11T12:50:35Z</time>
      </trkpt>
      <trkpt lat="49.7505" lon="2.15522">
        <ele>53.2</ele>
        <time>2022-05-11T12:50:36Z</time>
      </trkpt>
      <trkpt lat="49.75052" lon="2.15524">
        <ele>53.2</ele>
        <time>2022-05-11T12:50:37Z</time>
      </trkpt>
      <trkpt lat="49.75052" lon="2.15526">
        <ele>53.2</ele>
        <time>2022-05-11T12:50:38Z</time>
      </trkpt>
      <trkpt lat="49.75053" lon="2.15528">
        <ele>53.2</ele>
        <time>2022-05-11T12:50:40Z</time>
      </trkpt>
      <trkpt lat="49.75054" lon="2.1553">
        <ele>53.3</ele>
        <time>2022-05-11T12:50:41Z</time>
      </trkpt>
      <trkpt lat="49.75054" lon="2.15532">
        <ele>53.3</ele>
        <time>2022-05-11T12:50:42Z</time>
      </trkpt>
      <trkpt lat="49.75055" lon="2.15534">
        <ele>53.3</ele>
        <time>2022-05-11T12:50:43Z</time>
      </trkpt>
      <trkpt lat="49.75055" lon="2.15535">
        <ele>53.3</ele>
        <time>2022-05-11T12:50:44Z</time>
      </trkpt>
      <trkpt lat="49.75057" lon="2.15537">
        <ele>53.3</ele>
        <time>2022-05-11T12:50:45Z</time>
      </trkpt>
      <trkpt lat="49.75058" lon="2.15538">
        <ele>53.3</ele>
        <time>2022-05-11T12:50:46Z</time>
      </trkpt>
      <trkpt lat="49.75058" lon="2.15539">
        <ele>53.3</ele>
        <time>2022-05-11T12:50:47Z</time>
      </trkpt>
      <trkpt lat="49.75059" lon="2.1554">
        <ele>53.3</ele>
        <time>2022-05-11T12:50:48Z</time>
      </trkpt>
      <trkpt lat="49.75061" lon="2.15542">
        <ele>53.3</ele>
        <time>2022-05-11T12:50:49Z</time>
      </trkpt>
      <trkpt lat="49.75062" lon="2.15543">
        <ele>53.3</ele>
        <time>2022-05-11T12:50:50Z</time>
      </trkpt>
      <trkpt lat="49.75062" lon="2.15544">
        <ele>53.3</ele>
        <time>2022-05-11T12:50:51Z</time>
      </trkpt>
      <trkpt lat="49.75063" lon="2.15545">
        <ele>53.4</ele>
        <time>2022-05-11T12:50:53Z</time>
      </trkpt>
      <trkpt lat="49.75065" lon="2.15548">
        <ele>53.4</ele>
        <time>2022-05-11T12:50:54Z</time>
      </trkpt>
      <trkpt lat="49.75066" lon="2.15549">
        <ele>53.4</ele>
        <time>2022-05-11T12:50:55Z</time>
      </trkpt>
      <trkpt lat="49.75066" lon="2.1555">
        <ele>53.4</ele>
        <time>2022-05-11T12:50:56Z</time>
      </trkpt>
      <trkpt lat="49.75068" lon="2.15553">
        <ele>53.4</ele>
        <time>2022-05-11T12:50:57Z</time>
      </trkpt>
      <trkpt lat="49.75068" lon="2.15554">
        <ele>53.4</ele>
        <time>2022-05-11T12:50:58Z</time>
      </trkpt>
      <trkpt lat="49.75069" lon="2.15555">
        <ele>53.4</ele>
        <time>2022-05-11T12:50:59Z</time>
      </trkpt>
      <trkpt lat="49.75071" lon="2.15559">
        <ele>53.5</ele>
        <time>2022-05-11T12:51:01Z</time>
      </trkpt>
      <trkpt lat="49.75071" lon="2.1556">
        <ele>53.6</ele>
        <time>2022-05-11T12:51:02Z</time>
      </trkpt>
      <trkpt lat="49.75071" lon="2.15562">
        <ele>53.6</ele>
        <time>2022-05-11T12:51:03Z</time>
      </trkpt>
      <trkpt lat="49.75072" lon="2.15565">
        <ele>53.6</ele>
        <time>2022-05-11T12:51:04Z</time>
      </trkpt>
      <trkpt lat="49.75072" lon="2.1557">
        <ele>53.6</ele>
        <time>2022-05-11T12:51:06Z</time>
      </trkpt>
      <trkpt lat="49.75073" lon="2.15571">
        <ele>53.6</ele>
        <time>2022-05-11T12:51:07Z</time>
      </trkpt>
      <trkpt lat="49.75072" lon="2.15573">
        <ele>53.6</ele>
        <time>2022-05-11T12:51:08Z</time>
      </trkpt>
      <trkpt lat="49.75072" lon="2.15577">
        <ele>53.6</ele>
        <time>2022-05-11T12:51:10Z</time>
      </trkpt>
      <trkpt lat="49.75071" lon="2.15578">
        <ele>53.7</ele>
        <time>2022-05-11T12:51:11Z</time>
      </trkpt>
      <trkpt lat="49.7507" lon="2.1558">
        <ele>53.7</ele>
        <time>2022-05-11T12:51:12Z</time>
      </trkpt>
      <trkpt lat="49.75069" lon="2.15582">
        <ele>53.7</ele>
        <time>2022-05-11T12:51:13Z</time>
      </trkpt>
      <trkpt lat="49.75068" lon="2.15585">
        <ele>53.7</ele>
        <time>2022-05-11T12:51:15Z</time>
      </trkpt>
      <trkpt lat="49.75068" lon="2.15587">
        <ele>53.7</ele>
        <time>2022-05-11T12:51:16Z</time>
      </trkpt>
      <trkpt lat="49.75067" lon="2.15588">
        <ele>53.7</ele>
        <time>2022-05-11T12:51:17Z</time>
      </trkpt>
      <trkpt lat="49.75066" lon="2.15589">
        <ele>53.7</ele>
        <time>2022-05-11T12:51:18Z</time>
      </trkpt>
      <trkpt lat="49.75064" lon="2.15589">
        <ele>53.7</ele>
        <time>2022-05-11T12:51:19Z</time>
      </trkpt>
      <trkpt lat="49.75063" lon="2.15589">
        <ele>53.8</ele>
        <time>2022-05-11T12:51:20Z</time>
      </trkpt>
      <trkpt lat="49.7506" lon="2.15589">
        <ele>53.8</ele>
        <time>2022-05-11T12:51:21Z</time>
      </trkpt>
      <trkpt lat="49.75059" lon="2.1559">
        <ele>53.8</ele>
        <time>2022-05-11T12:51:23Z</time>
      </trkpt>
      <trkpt lat="49.75058" lon="2.1559">
        <ele>53.8</ele>
        <time>2022-05-11T12:51:24Z</time>
      </trkpt>
      <trkpt lat="49.75057" lon="2.1559">
        <ele>53.8</ele>
        <time>2022-05-11T12:51:25Z</time>
      </trkpt>
      <trkpt lat="49.75056" lon="2.15591">
        <ele>53.8</ele>
        <time>2022-05-11T12:51:26Z</time>
      </trkpt>
      <trkpt lat="49.75055" lon="2.15591">
        <ele>53.8</ele>
        <time>2022-05-11T12:51:27Z</time>
      </trkpt>
      <trkpt lat="49.75053" lon="2.15592">
        <ele>53.8</ele>
        <time>2022-05-11T12:51:28Z</time>
      </trkpt>
      <trkpt lat="49.75052" lon="2.15592">
        <ele>53.8</ele>
        <time>2022-05-11T12:51:29Z</time>
      </trkpt>
      <trkpt lat="49.75051" lon="2.15593">
        <ele>53.8</ele>
        <time>2022-05-11T12:51:30Z</time>
      </trkpt>
      <trkpt lat="49.7505" lon="2.15593">
        <ele>53.8</ele>
        <time>2022-05-11T12:51:31Z</time>
      </trkpt>
      <trkpt lat="49.75049" lon="2.15594">
        <ele>53.8</ele>
        <time>2022-05-11T12:51:32Z</time>
      </trkpt>
      <trkpt lat="49.75048" lon="2.15595">
        <ele>53.8</ele>
        <time>2022-05-11T12:51:33Z</time>
      </trkpt>
      <trkpt lat="49.75047" lon="2.15595">
        <ele>53.8</ele>
        <time>2022-05-11T12:51:34Z</time>
      </trkpt>
      <trkpt lat="49.75047" lon="2.15596">
        <ele>53.8</ele>
        <time>2022-05-11T12:51:36Z</time>
      </trkpt>
      <trkpt lat="49.75046" lon="2.15596">
        <ele>53.8</ele>
        <time>2022-05-11T12:51:37Z</time>
      </trkpt>
      <trkpt lat="49.75045" lon="2.15597">
        <ele>53.8</ele>
        <time>2022-05-11T12:51:38Z</time>
      </trkpt>
      <trkpt lat="49.75044" lon="2.15598">
        <ele>53.8</ele>
        <time>2022-05-11T12:51:39Z</time>
      </trkpt>
      <trkpt lat="49.75042" lon="2.15599">
        <ele>53.8</ele>
        <time>2022-05-11T12:51:40Z</time>
      </trkpt>
      <trkpt lat="49.75041" lon="2.15599">
        <ele>53.8</ele>
        <time>2022-05-11T12:51:41Z</time>
      </trkpt>
      <trkpt lat="49.7504" lon="2.156">
        <ele>53.8</ele>
        <time>2022-05-11T12:51:42Z</time>
      </trkpt>
      <trkpt lat="49.75038" lon="2.15601">
        <ele>53.8</ele>
        <time>2022-05-11T12:51:44Z</time>
      </trkpt>
      <trkpt lat="49.75038" lon="2.15601">
        <ele>53.8</ele>
        <time>2022-05-11T12:51:45Z</time>
      </trkpt>
      <trkpt lat="49.75037" lon="2.15602">
        <ele>53.8</ele>
        <time>2022-05-11T12:51:46Z</time>
      </trkpt>
      <trkpt lat="49.75034" lon="2.15604">
        <ele>53.8</ele>
        <time>2022-05-11T12:51:48Z</time>
      </trkpt>
      <trkpt lat="49.75034" lon="2.15604">
        <ele>53.8</ele>
        <time>2022-05-11T12:51:49Z</time>
      </trkpt>
      <trkpt lat="49.75033" lon="2.15605">
        <ele>53.8</ele>
        <time>2022-05-11T12:51:50Z</time>
      </trkpt>
      <trkpt lat="49.75032" lon="2.15606">
        <ele>53.8</ele>
        <time>2022-05-11T12:51:51Z</time>
      </trkpt>
      <trkpt lat="49.75031" lon="2.15606">
        <ele>53.8</ele>
        <time>2022-05-11T12:51:52Z</time>
      </trkpt>
      <trkpt lat="49.75029" lon="2.15608">
        <ele>53.8</ele>
        <time>2022-05-11T12:51:53Z</time>
      </trkpt>
      <trkpt lat="49.75028" lon="2.15609">
        <ele>53.8</ele>
        <time>2022-05-11T12:51:54Z</time>
      </trkpt>
      <trkpt lat="49.75027" lon="2.1561">
        <ele>53.8</ele>
        <time>2022-05-11T12:51:55Z</time>
      </trkpt>
      <trkpt lat="49.75026" lon="2.15612">
        <ele>53.8</ele>
        <time>2022-05-11T12:51:56Z</time>
      </trkpt>
      <trkpt lat="49.75025" lon="2.15614">
        <ele>53.8</ele>
        <time>2022-05-11T12:51:57Z</time>
      </trkpt>
      <trkpt lat="49.75024" lon="2.15615">
        <ele>53.8</ele>
        <time>2022-05-11T12:51:58Z</time>
      </trkpt>
      <trkpt lat="49.75023" lon="2.15616">
        <ele>53.8</ele>
        <time>2022-05-11T12:51:59Z</time>
      </trkpt>
      <trkpt lat="49.75022" lon="2.15618">
        <ele>53.8</ele>
        <time>2022-05-11T12:52:01Z</time>
      </trkpt>
      <trkpt lat="49.75021" lon="2.1562">
        <ele>53.8</ele>
        <time>2022-05-11T12:52:02Z</time>
      </trkpt>
      <trkpt lat="49.7502" lon="2.1562">
        <ele>53.8</ele>
        <time>2022-05-11T12:52:03Z</time>
      </trkpt>
      <trkpt lat="49.7502" lon="2.15621">
        <ele>53.8</ele>
        <time>2022-05-11T12:52:04Z</time>
      </trkpt>
      <trkpt lat="49.75019" lon="2.15622">
        <ele>53.8</ele>
        <time>2022-05-11T12:52:05Z</time>
      </trkpt>
      <trkpt lat="49.75017" lon="2.15623">
        <ele>53.8</ele>
        <time>2022-05-11T12:52:06Z</time>
      </trkpt>
      <trkpt lat="49.75016" lon="2.15625">
        <ele>53.8</ele>
        <time>2022-05-11T12:52:07Z</time>
      </trkpt>
      <trkpt lat="49.75015" lon="2.15626">
        <ele>53.8</ele>
        <time>2022-05-11T12:52:08Z</time>
      </trkpt>
      <trkpt lat="49.75013" lon="2.15629">
        <ele>53.8</ele>
        <time>2022-05-11T12:52:09Z</time>
      </trkpt>
      <trkpt lat="49.75012" lon="2.1563">
        <ele>53.8</ele>
        <time>2022-05-11T12:52:11Z</time>
      </trkpt>
      <trkpt lat="49.75011" lon="2.15631">
        <ele>53.8</ele>
        <time>2022-05-11T12:52:12Z</time>
      </trkpt>
      <trkpt lat="49.75011" lon="2.15632">
        <ele>53.8</ele>
        <time>2022-05-11T12:52:13Z</time>
      </trkpt>
      <trkpt lat="49.7501" lon="2.15634">
        <ele>53.8</ele>
        <time>2022-05-11T12:52:14Z</time>
      </trkpt>
      <trkpt lat="49.75009" lon="2.15635">
        <ele>53.8</ele>
        <time>2022-05-11T12:52:15Z</time>
      </trkpt>
      <trkpt lat="49.75009" lon="2.15637">
        <ele>53.8</ele>
        <time>2022-05-11T12:52:16Z</time>
      </trkpt>
      <trkpt lat="49.75008" lon="2.15638">
        <ele>53.8</ele>
        <time>2022-05-11T12:52:17Z</time>
      </trkpt>
      <trkpt lat="49.75007" lon="2.1564">
        <ele>53.8</ele>
        <time>2022-05-11T12:52:18Z</time>
      </trkpt>
      <trkpt lat="49.75006" lon="2.15641">
        <ele>53.8</ele>
        <time>2022-05-11T12:52:19Z</time>
      </trkpt>
      <trkpt lat="49.75006" lon="2.15642">
        <ele>53.8</ele>
        <time>2022-05-11T12:52:20Z</time>
      </trkpt>
      <trkpt lat="49.75003" lon="2.15646">
        <ele>53.8</ele>
        <time>2022-05-11T12:52:21Z</time>
      </trkpt>
      <trkpt lat="49.75003" lon="2.15648">
        <ele>53.8</ele>
        <time>2022-05-11T12:52:22Z</time>
      </trkpt>
      <trkpt lat="49.75001" lon="2.1565">
        <ele>53.8</ele>
        <time>2022-05-11T12:52:23Z</time>
      </trkpt>
      <trkpt lat="49.75001" lon="2.15651">
        <ele>53.8</ele>
        <time>2022-05-11T12:52:24Z</time>
      </trkpt>
      <trkpt lat="49.75" lon="2.15653">
        <ele>53.8</ele>
        <time>2022-05-11T12:52:26Z</time>
      </trkpt>
      <trkpt lat="49.74999" lon="2.15654">
        <ele>53.8</ele>
        <time>2022-05-11T12:52:27Z</time>
      </trkpt>
      <trkpt lat="49.74999" lon="2.15655">
        <ele>53.8</ele>
        <time>2022-05-11T12:52:28Z</time>
      </trkpt>
      <trkpt lat="49.74998" lon="2.15656">
        <ele>53.9</ele>
        <time>2022-05-11T12:52:29Z</time>
      </trkpt>
      <trkpt lat="49.74996" lon="2.15658">
        <ele>53.9</ele>
        <time>2022-05-11T12:52:30Z</time>
      </trkpt>
      <trkpt lat="49.74996" lon="2.15659">
        <ele>53.9</ele>
        <time>2022-05-11T12:52:31Z</time>
      </trkpt>
      <trkpt lat="49.74995" lon="2.1566">
        <ele>53.9</ele>
        <time>2022-05-11T12:52:32Z</time>
      </trkpt>
      <trkpt lat="49.74993" lon="2.15662">
        <ele>53.9</ele>
        <time>2022-05-11T12:52:33Z</time>
      </trkpt>
      <trkpt lat="49.74993" lon="2.15663">
        <ele>53.9</ele>
        <time>2022-05-11T12:52:34Z</time>
      </trkpt>
      <trkpt lat="49.74992" lon="2.15664">
        <ele>53.9</ele>
        <time>2022-05-11T12:52:35Z</time>
      </trkpt>
      <trkpt lat="49.74992" lon="2.15666">
        <ele>53.9</ele>
        <time>2022-05-11T12:52:37Z</time>
      </trkpt>
      <trkpt lat="49.7499" lon="2.15668">
        <ele>53.9</ele>
        <time>2022-05-11T12:52:38Z</time>
      </trkpt>
      <trkpt lat="49.7499" lon="2.1567">
        <ele>53.9</ele>
        <time>2022-05-11T12:52:40Z</time>
      </trkpt>
      <trkpt lat="49.74989" lon="2.15672">
        <ele>54</ele>
        <time>2022-05-11T12:52:41Z</time>
      </trkpt>
      <trkpt lat="49.74989" lon="2.15673">
        <ele>54</ele>
        <time>2022-05-11T12:52:42Z</time>
      </trkpt>
      <trkpt lat="49.74988" lon="2.15675">
        <ele>54</ele>
        <time>2022-05-11T12:52:43Z</time>
      </trkpt>
      <trkpt lat="49.74987" lon="2.15677">
        <ele>54</ele>
        <time>2022-05-11T12:52:44Z</time>
      </trkpt>
      <trkpt lat="49.74987" lon="2.15678">
        <ele>54</ele>
        <time>2022-05-11T12:52:45Z</time>
      </trkpt>
      <trkpt lat="49.74986" lon="2.1568">
        <ele>54</ele>
        <time>2022-05-11T12:52:46Z</time>
      </trkpt>
      <trkpt lat="49.74985" lon="2.15682">
        <ele>54.1</ele>
        <time>2022-05-11T12:52:48Z</time>
      </trkpt>
      <trkpt lat="49.74984" lon="2.15684">
        <ele>54.1</ele>
        <time>2022-05-11T12:52:49Z</time>
      </trkpt>
      <trkpt lat="49.74982" lon="2.15687">
        <ele>54.1</ele>
        <time>2022-05-11T12:52:50Z</time>
      </trkpt>
      <trkpt lat="49.74982" lon="2.15689">
        <ele>54.1</ele>
        <time>2022-05-11T12:52:52Z</time>
      </trkpt>
      <trkpt lat="49.74981" lon="2.1569">
        <ele>54.1</ele>
        <time>2022-05-11T12:52:53Z</time>
      </trkpt>
      <trkpt lat="49.74981" lon="2.15694">
        <ele>54.2</ele>
        <time>2022-05-11T12:52:54Z</time>
      </trkpt>
      <trkpt lat="49.74981" lon="2.15696">
        <ele>54.2</ele>
        <time>2022-05-11T12:52:55Z</time>
      </trkpt>
      <trkpt lat="49.7498" lon="2.15698">
        <ele>54.2</ele>
        <time>2022-05-11T12:52:56Z</time>
      </trkpt>
      <trkpt lat="49.7498" lon="2.157">
        <ele>54.2</ele>
        <time>2022-05-11T12:52:58Z</time>
      </trkpt>
      <trkpt lat="49.74979" lon="2.15702">
        <ele>54.3</ele>
        <time>2022-05-11T12:52:59Z</time>
      </trkpt>
      <trkpt lat="49.74978" lon="2.15704">
        <ele>54.3</ele>
        <time>2022-05-11T12:53:00Z</time>
      </trkpt>
      <trkpt lat="49.74978" lon="2.15706">
        <ele>54.3</ele>
        <time>2022-05-11T12:53:01Z</time>
      </trkpt>
      <trkpt lat="49.74977" lon="2.15709">
        <ele>54.3</ele>
        <time>2022-05-11T12:53:03Z</time>
      </trkpt>
      <trkpt lat="49.74976" lon="2.1571">
        <ele>54.3</ele>
        <time>2022-05-11T12:53:04Z</time>
      </trkpt>
      <trkpt lat="49.74975" lon="2.15713">
        <ele>54.3</ele>
        <time>2022-05-11T12:53:05Z</time>
      </trkpt>
      <trkpt lat="49.74975" lon="2.15714">
        <ele>54.3</ele>
        <time>2022-05-11T12:53:06Z</time>
      </trkpt>
      <trkpt lat="49.74975" lon="2.15716">
        <ele>54.3</ele>
        <time>2022-05-11T12:53:07Z</time>
      </trkpt>
      <trkpt lat="49.74974" lon="2.15717">
        <ele>54.4</ele>
        <time>2022-05-11T12:53:08Z</time>
      </trkpt>
      <trkpt lat="49.74974" lon="2.1572">
        <ele>54.4</ele>
        <time>2022-05-11T12:53:09Z</time>
      </trkpt>
      <trkpt lat="49.74974" lon="2.15724">
        <ele>54.4</ele>
        <time>2022-05-11T12:53:10Z</time>
      </trkpt>
      <trkpt lat="49.74973" lon="2.15725">
        <ele>54.4</ele>
        <time>2022-05-11T12:53:11Z</time>
      </trkpt>
      <trkpt lat="49.74973" lon="2.15727">
        <ele>54.4</ele>
        <time>2022-05-11T12:53:12Z</time>
      </trkpt>
      <trkpt lat="49.74972" lon="2.15729">
        <ele>54.4</ele>
        <time>2022-05-11T12:53:13Z</time>
      </trkpt>
      <trkpt lat="49.74972" lon="2.15731">
        <ele>54.4</ele>
        <time>2022-05-11T12:53:15Z</time>
      </trkpt>
      <trkpt lat="49.74972" lon="2.15734">
        <ele>54.5</ele>
        <time>2022-05-11T12:53:16Z</time>
      </trkpt>
      <trkpt lat="49.74971" lon="2.15736">
        <ele>54.5</ele>
        <time>2022-05-11T12:53:17Z</time>
      </trkpt>
      <trkpt lat="49.7497" lon="2.15738">
        <ele>54.5</ele>
        <time>2022-05-11T12:53:18Z</time>
      </trkpt>
      <trkpt lat="49.7497" lon="2.15739">
        <ele>54.5</ele>
        <time>2022-05-11T12:53:19Z</time>
      </trkpt>
      <trkpt lat="49.74969" lon="2.1574">
        <ele>54.5</ele>
        <time>2022-05-11T12:53:20Z</time>
      </trkpt>
      <trkpt lat="49.74969" lon="2.15741">
        <ele>54.5</ele>
        <time>2022-05-11T12:53:21Z</time>
      </trkpt>
      <trkpt lat="49.74968" lon="2.15743">
        <ele>54.5</ele>
        <time>2022-05-11T12:53:22Z</time>
      </trkpt>
      <trkpt lat="49.74968" lon="2.15746">
        <ele>54.5</ele>
        <time>2022-05-11T12:53:23Z</time>
      </trkpt>
      <trkpt lat="49.74967" lon="2.15747">
        <ele>54.5</ele>
        <time>2022-05-11T12:53:24Z</time>
      </trkpt>
      <trkpt lat="49.74966" lon="2.1575">
        <ele>54.5</ele>
        <time>2022-05-11T12:53:26Z</time>
      </trkpt>
      <trkpt lat="49.74966" lon="2.15752">
        <ele>54.5</ele>
        <time>2022-05-11T12:53:27Z</time>
      </trkpt>
      <trkpt lat="49.74965" lon="2.15754">
        <ele>54.5</ele>
        <time>2022-05-11T12:53:28Z</time>
      </trkpt>
      <trkpt lat="49.74965" lon="2.15756">
        <ele>54.5</ele>
        <time>2022-05-11T12:53:29Z</time>
      </trkpt>
      <trkpt lat="49.74964" lon="2.15758">
        <ele>54.5</ele>
        <time>2022-05-11T12:53:30Z</time>
      </trkpt>
      <trkpt lat="49.74964" lon="2.1576">
        <ele>54.5</ele>
        <time>2022-05-11T12:53:31Z</time>
      </trkpt>
      <trkpt lat="49.74963" lon="2.15762">
        <ele>54.5</ele>
        <time>2022-05-11T12:53:32Z</time>
      </trkpt>
      <trkpt lat="49.74963" lon="2.15764">
        <ele>54.5</ele>
        <time>2022-05-11T12:53:33Z</time>
      </trkpt>
      <trkpt lat="49.74962" lon="2.15767">
        <ele>54.5</ele>
        <time>2022-05-11T12:53:34Z</time>
      </trkpt>
      <trkpt lat="49.74961" lon="2.15769">
        <ele>54.5</ele>
        <time>2022-05-11T12:53:35Z</time>
      </trkpt>
      <trkpt lat="49.74961" lon="2.15771">
        <ele>54.5</ele>
        <time>2022-05-11T12:53:36Z</time>
      </trkpt>
      <trkpt lat="49.7496" lon="2.15773">
        <ele>54.5</ele>
        <time>2022-05-11T12:53:37Z</time>
      </trkpt>
      <trkpt lat="49.74959" lon="2.15776">
        <ele>54.5</ele>
        <time>2022-05-11T12:53:39Z</time>
      </trkpt>
      <trkpt lat="49.74959" lon="2.15778">
        <ele>54.5</ele>
        <time>2022-05-11T12:53:40Z</time>
      </trkpt>
      <trkpt lat="49.74958" lon="2.15781">
        <ele>54.5</ele>
        <time>2022-05-11T12:53:41Z</time>
      </trkpt>
      <trkpt lat="49.74957" lon="2.15782">
        <ele>54.5</ele>
        <time>2022-05-11T12:53:42Z</time>
      </trkpt>
      <trkpt lat="49.74957" lon="2.15784">
        <ele>54.5</ele>
        <time>2022-05-11T12:53:43Z</time>
      </trkpt>
      <trkpt lat="49.74956" lon="2.15786">
        <ele>54.5</ele>
        <time>2022-05-11T12:53:44Z</time>
      </trkpt>
      <trkpt lat="49.74955" lon="2.15788">
        <ele>54.5</ele>
        <time>2022-05-11T12:53:45Z</time>
      </trkpt>
      <trkpt lat="49.74954" lon="2.15789">
        <ele>54.5</ele>
        <time>2022-05-11T12:53:46Z</time>
      </trkpt>
      <trkpt lat="49.74953" lon="2.15791">
        <ele>54.5</ele>
        <time>2022-05-11T12:53:47Z</time>
      </trkpt>
      <trkpt lat="49.74951" lon="2.15793">
        <ele>54.5</ele>
        <time>2022-05-11T12:53:48Z</time>
      </trkpt>
      <trkpt lat="49.74951" lon="2.15794">
        <ele>54.5</ele>
        <time>2022-05-11T12:53:49Z</time>
      </trkpt>
      <trkpt lat="49.7495" lon="2.15795">
        <ele>54.5</ele>
        <time>2022-05-11T12:53:50Z</time>
      </trkpt>
      <trkpt lat="49.74949" lon="2.15796">
        <ele>54.5</ele>
        <time>2022-05-11T12:53:51Z</time>
      </trkpt>
      <trkpt lat="49.74948" lon="2.15797">
        <ele>54.5</ele>
        <time>2022-05-11T12:53:52Z</time>
      </trkpt>
      <trkpt lat="49.74947" lon="2.15797">
        <ele>54.5</ele>
        <time>2022-05-11T12:53:53Z</time>
      </trkpt>
      <trkpt lat="49.74946" lon="2.15799">
        <ele>54.5</ele>
        <time>2022-05-11T12:53:55Z</time>
      </trkpt>
      <trkpt lat="49.74945" lon="2.158">
        <ele>54.5</ele>
        <time>2022-05-11T12:53:56Z</time>
      </trkpt>
      <trkpt lat="49.74944" lon="2.158">
        <ele>54.5</ele>
        <time>2022-05-11T12:53:57Z</time>
      </trkpt>
      <trkpt lat="49.74943" lon="2.158">
        <ele>54.5</ele>
        <time>2022-05-11T12:53:58Z</time>
      </trkpt>
      <trkpt lat="49.74941" lon="2.158">
        <ele>54.5</ele>
        <time>2022-05-11T12:53:59Z</time>
      </trkpt>
      <trkpt lat="49.7494" lon="2.15801">
        <ele>54.5</ele>
        <time>2022-05-11T12:54:00Z</time>
      </trkpt>
      <trkpt lat="49.74939" lon="2.15802">
        <ele>54.5</ele>
        <time>2022-05-11T12:54:01Z</time>
      </trkpt>
      <trkpt lat="49.74938" lon="2.15802">
        <ele>54.5</ele>
        <time>2022-05-11T12:54:02Z</time>
      </trkpt>
      <trkpt lat="49.74937" lon="2.15802">
        <ele>54.5</ele>
        <time>2022-05-11T12:54:03Z</time>
      </trkpt>
      <trkpt lat="49.74936" lon="2.15803">
        <ele>54.6</ele>
        <time>2022-05-11T12:54:05Z</time>
      </trkpt>
      <trkpt lat="49.74933" lon="2.15804">
        <ele>54.6</ele>
        <time>2022-05-11T12:54:07Z</time>
      </trkpt>
      <trkpt lat="49.74932" lon="2.15805">
        <ele>54.6</ele>
        <time>2022-05-11T12:54:08Z</time>
      </trkpt>
      <trkpt lat="49.74931" lon="2.15805">
        <ele>54.6</ele>
        <time>2022-05-11T12:54:09Z</time>
      </trkpt>
      <trkpt lat="49.74929" lon="2.15806">
        <ele>54.6</ele>
        <time>2022-05-11T12:54:10Z</time>
      </trkpt>
      <trkpt lat="49.74928" lon="2.15806">
        <ele>54.6</ele>
        <time>2022-05-11T12:54:11Z</time>
      </trkpt>
      <trkpt lat="49.74927" lon="2.15806">
        <ele>54.6</ele>
        <time>2022-05-11T12:54:12Z</time>
      </trkpt>
      <trkpt lat="49.74926" lon="2.15805">
        <ele>54.6</ele>
        <time>2022-05-11T12:54:13Z</time>
      </trkpt>
      <trkpt lat="49.74925" lon="2.15805">
        <ele>54.6</ele>
        <time>2022-05-11T12:54:14Z</time>
      </trkpt>
      <trkpt lat="49.74924" lon="2.15805">
        <ele>54.6</ele>
        <time>2022-05-11T12:54:15Z</time>
      </trkpt>
      <trkpt lat="49.74923" lon="2.15804">
        <ele>54.6</ele>
        <time>2022-05-11T12:54:16Z</time>
      </trkpt>
      <trkpt lat="49.74922" lon="2.15803">
        <ele>54.6</ele>
        <time>2022-05-11T12:54:18Z</time>
      </trkpt>
      <trkpt lat="49.74921" lon="2.15802">
        <ele>54.6</ele>
        <time>2022-05-11T12:54:19Z</time>
      </trkpt>
      <trkpt lat="49.7492" lon="2.15801">
        <ele>54.6</ele>
        <time>2022-05-11T12:54:20Z</time>
      </trkpt>
      <trkpt lat="49.74919" lon="2.15801">
        <ele>54.6</ele>
        <time>2022-05-11T12:54:21Z</time>
      </trkpt>
      <trkpt lat="49.74918" lon="2.158">
        <ele>54.6</ele>
        <time>2022-05-11T12:54:22Z</time>
      </trkpt>
      <trkpt lat="49.74916" lon="2.158">
        <ele>54.7</ele>
        <time>2022-05-11T12:54:23Z</time>
      </trkpt>
      <trkpt lat="49.74915" lon="2.158">
        <ele>54.7</ele>
        <time>2022-05-11T12:54:24Z</time>
      </trkpt>
      <trkpt lat="49.74915" lon="2.158">
        <ele>54.7</ele>
        <time>2022-05-11T12:54:25Z</time>
      </trkpt>
      <trkpt lat="49.74913" lon="2.158">
        <ele>54.7</ele>
        <time>2022-05-11T12:54:26Z</time>
      </trkpt>
      <trkpt lat="49.74912" lon="2.15799">
        <ele>54.7</ele>
        <time>2022-05-11T12:54:27Z</time>
      </trkpt>
      <trkpt lat="49.74911" lon="2.15799">
        <ele>54.7</ele>
        <time>2022-05-11T12:54:29Z</time>
      </trkpt>
      <trkpt lat="49.7491" lon="2.158">
        <ele>54.7</ele>
        <time>2022-05-11T12:54:30Z</time>
      </trkpt>
      <trkpt lat="49.74908" lon="2.158">
        <ele>54.7</ele>
        <time>2022-05-11T12:54:31Z</time>
      </trkpt>
      <trkpt lat="49.74908" lon="2.158">
        <ele>54.7</ele>
        <time>2022-05-11T12:54:32Z</time>
      </trkpt>
      <trkpt lat="49.74907" lon="2.15801">
        <ele>54.7</ele>
        <time>2022-05-11T12:54:33Z</time>
      </trkpt>
      <trkpt lat="49.74906" lon="2.15801">
        <ele>54.7</ele>
        <time>2022-05-11T12:54:34Z</time>
      </trkpt>
      <trkpt lat="49.74905" lon="2.15802">
        <ele>54.7</ele>
        <time>2022-05-11T12:54:35Z</time>
      </trkpt>
      <trkpt lat="49.74903" lon="2.15802">
        <ele>54.7</ele>
        <time>2022-05-11T12:54:36Z</time>
      </trkpt>
      <trkpt lat="49.74902" lon="2.15802">
        <ele>54.7</ele>
        <time>2022-05-11T12:54:37Z</time>
      </trkpt>
      <trkpt lat="49.74901" lon="2.15802">
        <ele>54.7</ele>
        <time>2022-05-11T12:54:38Z</time>
      </trkpt>
      <trkpt lat="49.74899" lon="2.15802">
        <ele>54.7</ele>
        <time>2022-05-11T12:54:39Z</time>
      </trkpt>
      <trkpt lat="49.74898" lon="2.15802">
        <ele>54.7</ele>
        <time>2022-05-11T12:54:41Z</time>
      </trkpt>
      <trkpt lat="49.74897" lon="2.15802">
        <ele>54.7</ele>
        <time>2022-05-11T12:54:42Z</time>
      </trkpt>
      <trkpt lat="49.74896" lon="2.15802">
        <ele>54.7</ele>
        <time>2022-05-11T12:54:43Z</time>
      </trkpt>
      <trkpt lat="49.74894" lon="2.15803">
        <ele>54.7</ele>
        <time>2022-05-11T12:54:44Z</time>
      </trkpt>
      <trkpt lat="49.74894" lon="2.15803">
        <ele>54.7</ele>
        <time>2022-05-11T12:54:45Z</time>
      </trkpt>
      <trkpt lat="49.74892" lon="2.15804">
        <ele>54.7</ele>
        <time>2022-05-11T12:54:46Z</time>
      </trkpt>
      <trkpt lat="49.7489" lon="2.15804">
        <ele>54.7</ele>
        <time>2022-05-11T12:54:47Z</time>
      </trkpt>
      <trkpt lat="49.74889" lon="2.15805">
        <ele>54.7</ele>
        <time>2022-05-11T12:54:48Z</time>
      </trkpt>
      <trkpt lat="49.74888" lon="2.15805">
        <ele>54.7</ele>
        <time>2022-05-11T12:54:49Z</time>
      </trkpt>
      <trkpt lat="49.74887" lon="2.15805">
        <ele>54.7</ele>
        <time>2022-05-11T12:54:50Z</time>
      </trkpt>
      <trkpt lat="49.74887" lon="2.15806">
        <ele>54.7</ele>
        <time>2022-05-11T12:54:51Z</time>
      </trkpt>
      <trkpt lat="49.74886" lon="2.15807">
        <ele>54.7</ele>
        <time>2022-05-11T12:54:53Z</time>
      </trkpt>
      <trkpt lat="49.74885" lon="2.15807">
        <ele>54.7</ele>
        <time>2022-05-11T12:54:54Z</time>
      </trkpt>
      <trkpt lat="49.74883" lon="2.15808">
        <ele>54.7</ele>
        <time>2022-05-11T12:54:55Z</time>
      </trkpt>
      <trkpt lat="49.74882" lon="2.15809">
        <ele>54.7</ele>
        <time>2022-05-11T12:54:56Z</time>
      </trkpt>
      <trkpt lat="49.74881" lon="2.15809">
        <ele>54.7</ele>
        <time>2022-05-11T12:54:57Z</time>
      </trkpt>
      <trkpt lat="49.7488" lon="2.1581">
        <ele>54.7</ele>
        <time>2022-05-11T12:54:58Z</time>
      </trkpt>
      <trkpt lat="49.74878" lon="2.15811">
        <ele>54.7</ele>
        <time>2022-05-11T12:54:59Z</time>
      </trkpt>
      <trkpt lat="49.74877" lon="2.15812">
        <ele>54.7</ele>
        <time>2022-05-11T12:55:00Z</time>
      </trkpt>
      <trkpt lat="49.74877" lon="2.15813">
        <ele>54.7</ele>
        <time>2022-05-11T12:55:01Z</time>
      </trkpt>
      <trkpt lat="49.74876" lon="2.15815">
        <ele>54.7</ele>
        <time>2022-05-11T12:55:03Z</time>
      </trkpt>
      <trkpt lat="49.74874" lon="2.15817">
        <ele>54.7</ele>
        <time>2022-05-11T12:55:04Z</time>
      </trkpt>
      <trkpt lat="49.74873" lon="2.15818">
        <ele>54.7</ele>
        <time>2022-05-11T12:55:05Z</time>
      </trkpt>
      <trkpt lat="49.74872" lon="2.15818">
        <ele>54.7</ele>
        <time>2022-05-11T12:55:06Z</time>
      </trkpt>
      <trkpt lat="49.74871" lon="2.15819">
        <ele>54.7</ele>
        <time>2022-05-11T12:55:07Z</time>
      </trkpt>
      <trkpt lat="49.7487" lon="2.15821">
        <ele>54.7</ele>
        <time>2022-05-11T12:55:08Z</time>
      </trkpt>
      <trkpt lat="49.74868" lon="2.15822">
        <ele>54.7</ele>
        <time>2022-05-11T12:55:09Z</time>
      </trkpt>
      <trkpt lat="49.74867" lon="2.15824">
        <ele>54.7</ele>
        <time>2022-05-11T12:55:11Z</time>
      </trkpt>
      <trkpt lat="49.74866" lon="2.15826">
        <ele>54.7</ele>
        <time>2022-05-11T12:55:12Z</time>
      </trkpt>
      <trkpt lat="49.74865" lon="2.15828">
        <ele>54.7</ele>
        <time>2022-05-11T12:55:13Z</time>
      </trkpt>
      <trkpt lat="49.74864" lon="2.1583">
        <ele>54.7</ele>
        <time>2022-05-11T12:55:15Z</time>
      </trkpt>
      <trkpt lat="49.74863" lon="2.15831">
        <ele>54.7</ele>
        <time>2022-05-11T12:55:16Z</time>
      </trkpt>
      <trkpt lat="49.74863" lon="2.15832">
        <ele>54.7</ele>
        <time>2022-05-11T12:55:17Z</time>
      </trkpt>
      <trkpt lat="49.74862" lon="2.15834">
        <ele>54.7</ele>
        <time>2022-05-11T12:55:18Z</time>
      </trkpt>
      <trkpt lat="49.74861" lon="2.15835">
        <ele>54.7</ele>
        <time>2022-05-11T12:55:19Z</time>
      </trkpt>
      <trkpt lat="49.7486" lon="2.15837">
        <ele>54.7</ele>
        <time>2022-05-11T12:55:20Z</time>
      </trkpt>
      <trkpt lat="49.74859" lon="2.1584">
        <ele>54.7</ele>
        <time>2022-05-11T12:55:21Z</time>
      </trkpt>
      <trkpt lat="49.74859" lon="2.15843">
        <ele>54.8</ele>
        <time>2022-05-11T12:55:22Z</time>
      </trkpt>
      <trkpt lat="49.74858" lon="2.15844">
        <ele>54.8</ele>
        <time>2022-05-11T12:55:23Z</time>
      </trkpt>
      <trkpt lat="49.74858" lon="2.15845">
        <ele>54.8</ele>
        <time>2022-05-11T12:55:24Z</time>
      </trkpt>
      <trkpt lat="49.74857" lon="2.15847">
        <ele>54.8</ele>
        <time>2022-05-11T12:55:25Z</time>
      </trkpt>
      <trkpt lat="49.74856" lon="2.15852">
        <ele>54.8</ele>
        <time>2022-05-11T12:55:27Z</time>
      </trkpt>
      <trkpt lat="49.74855" lon="2.15854">
        <ele>54.8</ele>
        <time>2022-05-11T12:55:29Z</time>
      </trkpt>
      <trkpt lat="49.74854" lon="2.15855">
        <ele>54.8</ele>
        <time>2022-05-11T12:55:30Z</time>
      </trkpt>
      <trkpt lat="49.74853" lon="2.15857">
        <ele>54.8</ele>
        <time>2022-05-11T12:55:31Z</time>
      </trkpt>
      <trkpt lat="49.74852" lon="2.15858">
        <ele>54.8</ele>
        <time>2022-05-11T12:55:32Z</time>
      </trkpt>
      <trkpt lat="49.74851" lon="2.1586">
        <ele>54.8</ele>
        <time>2022-05-11T12:55:33Z</time>
      </trkpt>
      <trkpt lat="49.7485" lon="2.15862">
        <ele>54.9</ele>
        <time>2022-05-11T12:55:34Z</time>
      </trkpt>
      <trkpt lat="49.74849" lon="2.15864">
        <ele>54.9</ele>
        <time>2022-05-11T12:55:35Z</time>
      </trkpt>
      <trkpt lat="49.74848" lon="2.15867">
        <ele>54.9</ele>
        <time>2022-05-11T12:55:36Z</time>
      </trkpt>
      <trkpt lat="49.74847" lon="2.15868">
        <ele>54.9</ele>
        <time>2022-05-11T12:55:38Z</time>
      </trkpt>
      <trkpt lat="49.74847" lon="2.1587">
        <ele>54.9</ele>
        <time>2022-05-11T12:55:39Z</time>
      </trkpt>
      <trkpt lat="49.74846" lon="2.15871">
        <ele>54.9</ele>
        <time>2022-05-11T12:55:40Z</time>
      </trkpt>
      <trkpt lat="49.74846" lon="2.15873">
        <ele>55</ele>
        <time>2022-05-11T12:55:41Z</time>
      </trkpt>
      <trkpt lat="49.74846" lon="2.15875">
        <ele>55</ele>
        <time>2022-05-11T12:55:42Z</time>
      </trkpt>
      <trkpt lat="49.74846" lon="2.15876">
        <ele>55</ele>
        <time>2022-05-11T12:55:43Z</time>
      </trkpt>
      <trkpt lat="49.74846" lon="2.1588">
        <ele>55</ele>
        <time>2022-05-11T12:55:45Z</time>
      </trkpt>
      <trkpt lat="49.74845" lon="2.15882">
        <ele>55</ele>
        <time>2022-05-11T12:55:46Z</time>
      </trkpt>
      <trkpt lat="49.74845" lon="2.15884">
        <ele>55</ele>
        <time>2022-05-11T12:55:47Z</time>
      </trkpt>
      <trkpt lat="49.74844" lon="2.15886">
        <ele>55.1</ele>
        <time>2022-05-11T12:55:48Z</time>
      </trkpt>
      <trkpt lat="49.74843" lon="2.15888">
        <ele>55.1</ele>
        <time>2022-05-11T12:55:49Z</time>
      </trkpt>
      <trkpt lat="49.74841" lon="2.15893">
        <ele>55.1</ele>
        <time>2022-05-11T12:55:50Z</time>
      </trkpt>
      <trkpt lat="49.7484" lon="2.15895">
        <ele>55.1</ele>
        <time>2022-05-11T12:55:53Z</time>
      </trkpt>
      <trkpt lat="49.74839" lon="2.15897">
        <ele>55.2</ele>
        <time>2022-05-11T12:55:54Z</time>
      </trkpt>
      <trkpt lat="49.74838" lon="2.15899">
        <ele>55.2</ele>
        <time>2022-05-11T12:55:55Z</time>
      </trkpt>
      <trkpt lat="49.74838" lon="2.15901">
        <ele>55.2</ele>
        <time>2022-05-11T12:55:56Z</time>
      </trkpt>
      <trkpt lat="49.74837" lon="2.15903">
        <ele>55.2</ele>
        <time>2022-05-11T12:55:57Z</time>
      </trkpt>
      <trkpt lat="49.74836" lon="2.15906">
        <ele>55.2</ele>
        <time>2022-05-11T12:55:59Z</time>
      </trkpt>
      <trkpt lat="49.74836" lon="2.15905">
        <ele>55.2</ele>
        <time>2022-05-11T12:56:00Z</time>
      </trkpt>
      <trkpt lat="49.74836" lon="2.15905">
        <ele>55.2</ele>
        <time>2022-05-11T12:56:01Z</time>
      </trkpt>
      <trkpt lat="49.74836" lon="2.15905">
        <ele>55.2</ele>
        <time>2022-05-11T12:56:02Z</time>
      </trkpt>
      <trkpt lat="49.74836" lon="2.15905">
        <ele>55.3</ele>
        <time>2022-05-11T12:56:03Z</time>
      </trkpt>
      <trkpt lat="49.74837" lon="2.15904">
        <ele>55.3</ele>
        <time>2022-05-11T12:56:04Z</time>
      </trkpt>
      <trkpt lat="49.74837" lon="2.15904">
        <ele>55.3</ele>
        <time>2022-05-11T12:56:05Z</time>
      </trkpt>
      <trkpt lat="49.74837" lon="2.15903">
        <ele>55.3</ele>
        <time>2022-05-11T12:56:06Z</time>
      </trkpt>
      <trkpt lat="49.74837" lon="2.15903">
        <ele>55.3</ele>
        <time>2022-05-11T12:56:07Z</time>
      </trkpt>
      <trkpt lat="49.74838" lon="2.15903">
        <ele>55.3</ele>
        <time>2022-05-11T12:56:08Z</time>
      </trkpt>
      <trkpt lat="49.74838" lon="2.15903">
        <ele>55.3</ele>
        <time>2022-05-11T12:56:09Z</time>
      </trkpt>
      <trkpt lat="49.74838" lon="2.15903">
        <ele>55.3</ele>
        <time>2022-05-11T12:56:10Z</time>
      </trkpt>
      <trkpt lat="49.74838" lon="2.15903">
        <ele>55.3</ele>
        <time>2022-05-11T12:56:11Z</time>
      </trkpt>
      <trkpt lat="49.74838" lon="2.15902">
        <ele>55.3</ele>
        <time>2022-05-11T12:56:12Z</time>
      </trkpt>
      <trkpt lat="49.74838" lon="2.15902">
        <ele>55.3</ele>
        <time>2022-05-11T12:56:13Z</time>
      </trkpt>
      <trkpt lat="49.74838" lon="2.15902">
        <ele>55.3</ele>
        <time>2022-05-11T12:56:14Z</time>
      </trkpt>
      <trkpt lat="49.74838" lon="2.15902">
        <ele>55.3</ele>
        <time>2022-05-11T12:56:15Z</time>
      </trkpt>
      <trkpt lat="49.74838" lon="2.15902">
        <ele>55.3</ele>
        <time>2022-05-11T12:56:16Z</time>
      </trkpt>
      <trkpt lat="49.74838" lon="2.15901">
        <ele>55.3</ele>
        <time>2022-05-11T12:56:17Z</time>
      </trkpt>
      <trkpt lat="49.74838" lon="2.159">
        <ele>55.3</ele>
        <time>2022-05-11T12:56:18Z</time>
      </trkpt>
      <trkpt lat="49.74839" lon="2.159">
        <ele>55.3</ele>
        <time>2022-05-11T12:56:19Z</time>
      </trkpt>
      <trkpt lat="49.7484" lon="2.15899">
        <ele>55.3</ele>
        <time>2022-05-11T12:56:21Z</time>
      </trkpt>
      <trkpt lat="49.74841" lon="2.15898">
        <ele>55.3</ele>
        <time>2022-05-11T12:56:23Z</time>
      </trkpt>
      <trkpt lat="49.74842" lon="2.15898">
        <ele>55.3</ele>
        <time>2022-05-11T12:56:24Z</time>
      </trkpt>
      <trkpt lat="49.74842" lon="2.15898">
        <ele>55.3</ele>
        <time>2022-05-11T12:56:26Z</time>
      </trkpt>
      <trkpt lat="49.74842" lon="2.15898">
        <ele>55.4</ele>
        <time>2022-05-11T12:56:27Z</time>
      </trkpt>
      <trkpt lat="49.74842" lon="2.15898">
        <ele>55.4</ele>
        <time>2022-05-11T12:56:28Z</time>
      </trkpt>
      <trkpt lat="49.74842" lon="2.15898">
        <ele>55.4</ele>
        <time>2022-05-11T12:56:29Z</time>
      </trkpt>
      <trkpt lat="49.74842" lon="2.15898">
        <ele>55.4</ele>
        <time>2022-05-11T12:56:30Z</time>
      </trkpt>
      <trkpt lat="49.74842" lon="2.15899">
        <ele>55.4</ele>
        <time>2022-05-11T12:56:31Z</time>
      </trkpt>
      <trkpt lat="49.74842" lon="2.15899">
        <ele>55.4</ele>
        <time>2022-05-11T12:56:32Z</time>
      </trkpt>
      <trkpt lat="49.74842" lon="2.159">
        <ele>55.4</ele>
        <time>2022-05-11T12:56:33Z</time>
      </trkpt>
      <trkpt lat="49.74842" lon="2.15901">
        <ele>55.4</ele>
        <time>2022-05-11T12:56:34Z</time>
      </trkpt>
      <trkpt lat="49.74842" lon="2.15902">
        <ele>55.4</ele>
        <time>2022-05-11T12:56:35Z</time>
      </trkpt>
      <trkpt lat="49.74842" lon="2.15903">
        <ele>55.4</ele>
        <time>2022-05-11T12:56:36Z</time>
      </trkpt>
      <trkpt lat="49.74842" lon="2.15903">
        <ele>55.4</ele>
        <time>2022-05-11T12:56:37Z</time>
      </trkpt>
      <trkpt lat="49.74842" lon="2.15904">
        <ele>55.4</ele>
        <time>2022-05-11T12:56:38Z</time>
      </trkpt>
      <trkpt lat="49.74842" lon="2.15905">
        <ele>55.4</ele>
        <time>2022-05-11T12:56:39Z</time>
      </trkpt>
      <trkpt lat="49.74842" lon="2.15907">
        <ele>55.4</ele>
        <time>2022-05-11T12:56:40Z</time>
      </trkpt>
      <trkpt lat="49.74841" lon="2.15908">
        <ele>55.4</ele>
        <time>2022-05-11T12:56:41Z</time>
      </trkpt>
      <trkpt lat="49.74841" lon="2.1591">
        <ele>55.5</ele>
        <time>2022-05-11T12:56:42Z</time>
      </trkpt>
      <trkpt lat="49.74841" lon="2.15911">
        <ele>55.5</ele>
        <time>2022-05-11T12:56:43Z</time>
      </trkpt>
      <trkpt lat="49.7484" lon="2.15912">
        <ele>55.5</ele>
        <time>2022-05-11T12:56:44Z</time>
      </trkpt>
      <trkpt lat="49.7484" lon="2.15913">
        <ele>55.5</ele>
        <time>2022-05-11T12:56:45Z</time>
      </trkpt>
      <trkpt lat="49.7484" lon="2.15914">
        <ele>55.5</ele>
        <time>2022-05-11T12:56:46Z</time>
      </trkpt>
      <trkpt lat="49.7484" lon="2.15915">
        <ele>55.5</ele>
        <time>2022-05-11T12:56:47Z</time>
      </trkpt>
      <trkpt lat="49.74839" lon="2.15916">
        <ele>55.5</ele>
        <time>2022-05-11T12:56:48Z</time>
      </trkpt>
      <trkpt lat="49.74839" lon="2.15917">
        <ele>55.5</ele>
        <time>2022-05-11T12:56:49Z</time>
      </trkpt>
      <trkpt lat="49.74839" lon="2.15919">
        <ele>55.5</ele>
        <time>2022-05-11T12:56:51Z</time>
      </trkpt>
      <trkpt lat="49.74839" lon="2.15921">
        <ele>55.5</ele>
        <time>2022-05-11T12:56:52Z</time>
      </trkpt>
      <trkpt lat="49.74839" lon="2.15923">
        <ele>55.5</ele>
        <time>2022-05-11T12:56:54Z</time>
      </trkpt>
      <trkpt lat="49.74839" lon="2.15924">
        <ele>55.6</ele>
        <time>2022-05-11T12:56:55Z</time>
      </trkpt>
      <trkpt lat="49.74839" lon="2.15924">
        <ele>55.6</ele>
        <time>2022-05-11T12:56:56Z</time>
      </trkpt>
      <trkpt lat="49.74838" lon="2.15925">
        <ele>55.6</ele>
        <time>2022-05-11T12:56:57Z</time>
      </trkpt>
      <trkpt lat="49.74838" lon="2.15926">
        <ele>55.6</ele>
        <time>2022-05-11T12:56:58Z</time>
      </trkpt>
      <trkpt lat="49.74837" lon="2.15927">
        <ele>55.6</ele>
        <time>2022-05-11T12:56:59Z</time>
      </trkpt>
      <trkpt lat="49.74836" lon="2.15928">
        <ele>55.6</ele>
        <time>2022-05-11T12:57:00Z</time>
      </trkpt>
      <trkpt lat="49.74836" lon="2.15929">
        <ele>55.6</ele>
        <time>2022-05-11T12:57:01Z</time>
      </trkpt>
      <trkpt lat="49.74836" lon="2.15929">
        <ele>55.6</ele>
        <time>2022-05-11T12:57:02Z</time>
      </trkpt>
      <trkpt lat="49.74835" lon="2.15928">
        <ele>55.6</ele>
        <time>2022-05-11T12:57:03Z</time>
      </trkpt>
      <trkpt lat="49.74835" lon="2.15928">
        <ele>55.6</ele>
        <time>2022-05-11T12:57:04Z</time>
      </trkpt>
      <trkpt lat="49.74835" lon="2.15928">
        <ele>55.6</ele>
        <time>2022-05-11T12:57:05Z</time>
      </trkpt>
      <trkpt lat="49.74835" lon="2.15928">
        <ele>55.6</ele>
        <time>2022-05-11T12:57:06Z</time>
      </trkpt>
      <trkpt lat="49.74835" lon="2.15928">
        <ele>55.6</ele>
        <time>2022-05-11T12:57:07Z</time>
      </trkpt>
      <trkpt lat="49.74835" lon="2.15928">
        <ele>55.6</ele>
        <time>2022-05-11T12:57:08Z</time>
      </trkpt>
      <trkpt lat="49.74835" lon="2.15928">
        <ele>55.6</ele>
        <time>2022-05-11T12:57:09Z</time>
      </trkpt>
      <trkpt lat="49.74835" lon="2.15928">
        <ele>55.6</ele>
        <time>2022-05-11T12:57:10Z</time>
      </trkpt>
      <trkpt lat="49.74835" lon="2.15928">
        <ele>55.6</ele>
        <time>2022-05-11T12:57:11Z</time>
      </trkpt>
      <trkpt lat="49.74835" lon="2.15928">
        <ele>55.6</ele>
        <time>2022-05-11T12:57:12Z</time>
      </trkpt>
      <trkpt lat="49.74835" lon="2.15928">
        <ele>55.6</ele>
        <time>2022-05-11T12:57:13Z</time>
      </trkpt>
      <trkpt lat="49.74835" lon="2.15928">
        <ele>55.6</ele>
        <time>2022-05-11T12:57:14Z</time>
      </trkpt>
      <trkpt lat="49.74835" lon="2.15928">
        <ele>55.6</ele>
        <time>2022-05-11T12:57:15Z</time>
      </trkpt>
      <trkpt lat="49.74835" lon="2.15928">
        <ele>55.6</ele>
        <time>2022-05-11T12:57:16Z</time>
      </trkpt>
      <trkpt lat="49.74835" lon="2.15928">
        <ele>55.6</ele>
        <time>2022-05-11T12:57:17Z</time>
      </trkpt>
      <trkpt lat="49.74835" lon="2.15928">
        <ele>55.6</ele>
        <time>2022-05-11T12:57:18Z</time>
      </trkpt>
      <trkpt lat="49.74835" lon="2.15928">
        <ele>55.6</ele>
        <time>2022-05-11T12:57:19Z</time>
      </trkpt>
      <trkpt lat="49.74835" lon="2.15928">
        <ele>55.6</ele>
        <time>2022-05-11T12:57:20Z</time>
      </trkpt>
      <trkpt lat="49.74835" lon="2.15928">
        <ele>55.6</ele>
        <time>2022-05-11T12:57:21Z</time>
      </trkpt>
      <trkpt lat="49.74835" lon="2.15928">
        <ele>55.6</ele>
        <time>2022-05-11T12:57:22Z</time>
      </trkpt>
      <trkpt lat="49.74833" lon="2.15928">
        <ele>55.6</ele>
        <time>2022-05-11T12:57:23Z</time>
      </trkpt>
      <trkpt lat="49.74831" lon="2.15928">
        <ele>55.7</ele>
        <time>2022-05-11T12:57:24Z</time>
      </trkpt>
      <trkpt lat="49.7483" lon="2.15928">
        <ele>55.6</ele>
        <time>2022-05-11T12:57:25Z</time>
      </trkpt>
      <trkpt lat="49.7483" lon="2.15928">
        <ele>55.6</ele>
        <time>2022-05-11T12:57:26Z</time>
      </trkpt>
      <trkpt lat="49.74828" lon="2.15928">
        <ele>55.6</ele>
        <time>2022-05-11T12:57:27Z</time>
      </trkpt>
      <trkpt lat="49.74827" lon="2.15928">
        <ele>55.6</ele>
        <time>2022-05-11T12:57:28Z</time>
      </trkpt>
      <trkpt lat="49.74827" lon="2.15928">
        <ele>55.5</ele>
        <time>2022-05-11T12:57:29Z</time>
      </trkpt>
      <trkpt lat="49.74826" lon="2.15927">
        <ele>55.5</ele>
        <time>2022-05-11T12:57:30Z</time>
      </trkpt>
      <trkpt lat="49.74826" lon="2.15927">
        <ele>55.5</ele>
        <time>2022-05-11T12:57:31Z</time>
      </trkpt>
      <trkpt lat="49.74825" lon="2.15926">
        <ele>55.5</ele>
        <time>2022-05-11T12:57:32Z</time>
      </trkpt>
      <trkpt lat="49.74824" lon="2.15926">
        <ele>55.5</ele>
        <time>2022-05-11T12:57:33Z</time>
      </trkpt>
      <trkpt lat="49.74823" lon="2.15925">
        <ele>55.5</ele>
        <time>2022-05-11T12:57:34Z</time>
      </trkpt>
      <trkpt lat="49.74823" lon="2.15924">
        <ele>55.4</ele>
        <time>2022-05-11T12:57:35Z</time>
      </trkpt>
      <trkpt lat="49.74822" lon="2.15923">
        <ele>55.4</ele>
        <time>2022-05-11T12:57:36Z</time>
      </trkpt>
      <trkpt lat="49.74821" lon="2.15923">
        <ele>55.4</ele>
        <time>2022-05-11T12:57:37Z</time>
      </trkpt>
      <trkpt lat="49.74821" lon="2.15922">
        <ele>55.4</ele>
        <time>2022-05-11T12:57:38Z</time>
      </trkpt>
      <trkpt lat="49.7482" lon="2.15922">
        <ele>55.4</ele>
        <time>2022-05-11T12:57:39Z</time>
      </trkpt>
      <trkpt lat="49.74819" lon="2.15921">
        <ele>55.4</ele>
        <time>2022-05-11T12:57:40Z</time>
      </trkpt>
      <trkpt lat="49.74818" lon="2.15921">
        <ele>55.3</ele>
        <time>2022-05-11T12:57:41Z</time>
      </trkpt>
      <trkpt lat="49.74817" lon="2.1592">
        <ele>55.3</ele>
        <time>2022-05-11T12:57:42Z</time>
      </trkpt>
      <trkpt lat="49.74816" lon="2.15919">
        <ele>55.3</ele>
        <time>2022-05-11T12:57:43Z</time>
      </trkpt>
      <trkpt lat="49.74815" lon="2.15917">
        <ele>55.3</ele>
        <time>2022-05-11T12:57:45Z</time>
      </trkpt>
      <trkpt lat="49.74813" lon="2.15916">
        <ele>55.2</ele>
        <time>2022-05-11T12:57:46Z</time>
      </trkpt>
      <trkpt lat="49.74812" lon="2.15915">
        <ele>55.2</ele>
        <time>2022-05-11T12:57:47Z</time>
      </trkpt>
      <trkpt lat="49.74811" lon="2.15914">
        <ele>55.2</ele>
        <time>2022-05-11T12:57:48Z</time>
      </trkpt>
      <trkpt lat="49.74809" lon="2.15912">
        <ele>55.1</ele>
        <time>2022-05-11T12:57:50Z</time>
      </trkpt>
      <trkpt lat="49.74808" lon="2.15911">
        <ele>55.1</ele>
        <time>2022-05-11T12:57:51Z</time>
      </trkpt>
      <trkpt lat="49.74806" lon="2.1591">
        <ele>55.1</ele>
        <time>2022-05-11T12:57:52Z</time>
      </trkpt>
      <trkpt lat="49.74805" lon="2.15909">
        <ele>55.1</ele>
        <time>2022-05-11T12:57:53Z</time>
      </trkpt>
      <trkpt lat="49.74804" lon="2.15909">
        <ele>55.1</ele>
        <time>2022-05-11T12:57:54Z</time>
      </trkpt>
      <trkpt lat="49.74803" lon="2.15908">
        <ele>55.1</ele>
        <time>2022-05-11T12:57:55Z</time>
      </trkpt>
      <trkpt lat="49.74802" lon="2.15906">
        <ele>55.1</ele>
        <time>2022-05-11T12:57:56Z</time>
      </trkpt>
      <trkpt lat="49.74801" lon="2.15906">
        <ele>55.1</ele>
        <time>2022-05-11T12:57:57Z</time>
      </trkpt>
      <trkpt lat="49.748" lon="2.15905">
        <ele>55.1</ele>
        <time>2022-05-11T12:57:58Z</time>
      </trkpt>
      <trkpt lat="49.74798" lon="2.15903">
        <ele>55</ele>
        <time>2022-05-11T12:57:59Z</time>
      </trkpt>
      <trkpt lat="49.74797" lon="2.15902">
        <ele>55</ele>
        <time>2022-05-11T12:58:00Z</time>
      </trkpt>
      <trkpt lat="49.74796" lon="2.15901">
        <ele>55</ele>
        <time>2022-05-11T12:58:01Z</time>
      </trkpt>
      <trkpt lat="49.74795" lon="2.159">
        <ele>55</ele>
        <time>2022-05-11T12:58:03Z</time>
      </trkpt>
      <trkpt lat="49.74794" lon="2.159">
        <ele>55</ele>
        <time>2022-05-11T12:58:04Z</time>
      </trkpt>
      <trkpt lat="49.74793" lon="2.15899">
        <ele>55</ele>
        <time>2022-05-11T12:58:05Z</time>
      </trkpt>
      <trkpt lat="49.74791" lon="2.15898">
        <ele>55</ele>
        <time>2022-05-11T12:58:06Z</time>
      </trkpt>
      <trkpt lat="49.74791" lon="2.15898">
        <ele>55</ele>
        <time>2022-05-11T12:58:07Z</time>
      </trkpt>
      <trkpt lat="49.74789" lon="2.15896">
        <ele>55</ele>
        <time>2022-05-11T12:58:08Z</time>
      </trkpt>
      <trkpt lat="49.74788" lon="2.15895">
        <ele>55</ele>
        <time>2022-05-11T12:58:09Z</time>
      </trkpt>
      <trkpt lat="49.74787" lon="2.15895">
        <ele>55</ele>
        <time>2022-05-11T12:58:10Z</time>
      </trkpt>
      <trkpt lat="49.74786" lon="2.15894">
        <ele>55</ele>
        <time>2022-05-11T12:58:11Z</time>
      </trkpt>
      <trkpt lat="49.74784" lon="2.15893">
        <ele>55</ele>
        <time>2022-05-11T12:58:12Z</time>
      </trkpt>
      <trkpt lat="49.74782" lon="2.15892">
        <ele>55</ele>
        <time>2022-05-11T12:58:13Z</time>
      </trkpt>
      <trkpt lat="49.74781" lon="2.15891">
        <ele>55</ele>
        <time>2022-05-11T12:58:15Z</time>
      </trkpt>
      <trkpt lat="49.7478" lon="2.15891">
        <ele>55</ele>
        <time>2022-05-11T12:58:16Z</time>
      </trkpt>
      <trkpt lat="49.74779" lon="2.1589">
        <ele>55</ele>
        <time>2022-05-11T12:58:17Z</time>
      </trkpt>
      <trkpt lat="49.74778" lon="2.15888">
        <ele>55</ele>
        <time>2022-05-11T12:58:18Z</time>
      </trkpt>
      <trkpt lat="49.74776" lon="2.15887">
        <ele>55</ele>
        <time>2022-05-11T12:58:19Z</time>
      </trkpt>
      <trkpt lat="49.74775" lon="2.15886">
        <ele>55</ele>
        <time>2022-05-11T12:58:20Z</time>
      </trkpt>
      <trkpt lat="49.74774" lon="2.15885">
        <ele>55</ele>
        <time>2022-05-11T12:58:21Z</time>
      </trkpt>
      <trkpt lat="49.74772" lon="2.15884">
        <ele>55</ele>
        <time>2022-05-11T12:58:22Z</time>
      </trkpt>
      <trkpt lat="49.7477" lon="2.15882">
        <ele>55</ele>
        <time>2022-05-11T12:58:23Z</time>
      </trkpt>
      <trkpt lat="49.74769" lon="2.15881">
        <ele>55</ele>
        <time>2022-05-11T12:58:24Z</time>
      </trkpt>
      <trkpt lat="49.74766" lon="2.15879">
        <ele>55</ele>
        <time>2022-05-11T12:58:25Z</time>
      </trkpt>
      <trkpt lat="49.74765" lon="2.15878">
        <ele>55</ele>
        <time>2022-05-11T12:58:27Z</time>
      </trkpt>
      <trkpt lat="49.74764" lon="2.15877">
        <ele>55</ele>
        <time>2022-05-11T12:58:29Z</time>
      </trkpt>
      <trkpt lat="49.74763" lon="2.15875">
        <ele>55</ele>
        <time>2022-05-11T12:58:30Z</time>
      </trkpt>
      <trkpt lat="49.74762" lon="2.15874">
        <ele>55</ele>
        <time>2022-05-11T12:58:31Z</time>
      </trkpt>
      <trkpt lat="49.74761" lon="2.15873">
        <ele>55</ele>
        <time>2022-05-11T12:58:32Z</time>
      </trkpt>
      <trkpt lat="49.7476" lon="2.15872">
        <ele>55</ele>
        <time>2022-05-11T12:58:33Z</time>
      </trkpt>
      <trkpt lat="49.74758" lon="2.15871">
        <ele>55</ele>
        <time>2022-05-11T12:58:34Z</time>
      </trkpt>
      <trkpt lat="49.74757" lon="2.1587">
        <ele>55</ele>
        <time>2022-05-11T12:58:35Z</time>
      </trkpt>
      <trkpt lat="49.74755" lon="2.15869">
        <ele>55.1</ele>
        <time>2022-05-11T12:58:36Z</time>
      </trkpt>
      <trkpt lat="49.74754" lon="2.15868">
        <ele>55.1</ele>
        <time>2022-05-11T12:58:37Z</time>
      </trkpt>
      <trkpt lat="49.74754" lon="2.15868">
        <ele>55.1</ele>
        <time>2022-05-11T12:58:39Z</time>
      </trkpt>
      <trkpt lat="49.74753" lon="2.15868">
        <ele>55.1</ele>
        <time>2022-05-11T12:58:40Z</time>
      </trkpt>
      <trkpt lat="49.74752" lon="2.15867">
        <ele>55.1</ele>
        <time>2022-05-11T12:58:41Z</time>
      </trkpt>
      <trkpt lat="49.74751" lon="2.15865">
        <ele>55.1</ele>
        <time>2022-05-11T12:58:42Z</time>
      </trkpt>
      <trkpt lat="49.7475" lon="2.15864">
        <ele>55.1</ele>
        <time>2022-05-11T12:58:43Z</time>
      </trkpt>
      <trkpt lat="49.74749" lon="2.15863">
        <ele>55.1</ele>
        <time>2022-05-11T12:58:44Z</time>
      </trkpt>
      <trkpt lat="49.74747" lon="2.15861">
        <ele>55.1</ele>
        <time>2022-05-11T12:58:45Z</time>
      </trkpt>
      <trkpt lat="49.74746" lon="2.15861">
        <ele>55.1</ele>
        <time>2022-05-11T12:58:47Z</time>
      </trkpt>
      <trkpt lat="49.74745" lon="2.1586">
        <ele>55.1</ele>
        <time>2022-05-11T12:58:48Z</time>
      </trkpt>
      <trkpt lat="49.74744" lon="2.15859">
        <ele>55.1</ele>
        <time>2022-05-11T12:58:49Z</time>
      </trkpt>
      <trkpt lat="49.74743" lon="2.15858">
        <ele>55.2</ele>
        <time>2022-05-11T12:58:50Z</time>
      </trkpt>
      <trkpt lat="49.74742" lon="2.15856">
        <ele>55.2</ele>
        <time>2022-05-11T12:58:51Z</time>
      </trkpt>
      <trkpt lat="49.74741" lon="2.15855">
        <ele>55.2</ele>
        <time>2022-05-11T12:58:52Z</time>
      </trkpt>
      <trkpt lat="49.7474" lon="2.15853">
        <ele>55.2</ele>
        <time>2022-05-11T12:58:53Z</time>
      </trkpt>
      <trkpt lat="49.7474" lon="2.15852">
        <ele>55.2</ele>
        <time>2022-05-11T12:58:55Z</time>
      </trkpt>
      <trkpt lat="49.74739" lon="2.15852">
        <ele>55.2</ele>
        <time>2022-05-11T12:58:56Z</time>
      </trkpt>
      <trkpt lat="49.74738" lon="2.15851">
        <ele>55.2</ele>
        <time>2022-05-11T12:58:57Z</time>
      </trkpt>
      <trkpt lat="49.74738" lon="2.1585">
        <ele>55.2</ele>
        <time>2022-05-11T12:58:58Z</time>
      </trkpt>
      <trkpt lat="49.74737" lon="2.15849">
        <ele>55.2</ele>
        <time>2022-05-11T12:58:59Z</time>
      </trkpt>
      <trkpt lat="49.74736" lon="2.15848">
        <ele>55.2</ele>
        <time>2022-05-11T12:59:00Z</time>
      </trkpt>
      <trkpt lat="49.74734" lon="2.15847">
        <ele>55.2</ele>
        <time>2022-05-11T12:59:01Z</time>
      </trkpt>
      <trkpt lat="49.74733" lon="2.15846">
        <ele>55.2</ele>
        <time>2022-05-11T12:59:02Z</time>
      </trkpt>
      <trkpt lat="49.74732" lon="2.15845">
        <ele>55.2</ele>
        <time>2022-05-11T12:59:03Z</time>
      </trkpt>
      <trkpt lat="49.74731" lon="2.15844">
        <ele>55.3</ele>
        <time>2022-05-11T12:59:04Z</time>
      </trkpt>
      <trkpt lat="49.7473" lon="2.15843">
        <ele>55.3</ele>
        <time>2022-05-11T12:59:05Z</time>
      </trkpt>
      <trkpt lat="49.74729" lon="2.15843">
        <ele>55.3</ele>
        <time>2022-05-11T12:59:06Z</time>
      </trkpt>
      <trkpt lat="49.74728" lon="2.15842">
        <ele>55.3</ele>
        <time>2022-05-11T12:59:07Z</time>
      </trkpt>
      <trkpt lat="49.74726" lon="2.1584">
        <ele>55.3</ele>
        <time>2022-05-11T12:59:08Z</time>
      </trkpt>
      <trkpt lat="49.74725" lon="2.1584">
        <ele>55.3</ele>
        <time>2022-05-11T12:59:09Z</time>
      </trkpt>
      <trkpt lat="49.74723" lon="2.15838">
        <ele>55.3</ele>
        <time>2022-05-11T12:59:11Z</time>
      </trkpt>
      <trkpt lat="49.74722" lon="2.15837">
        <ele>55.3</ele>
        <time>2022-05-11T12:59:12Z</time>
      </trkpt>
      <trkpt lat="49.7472" lon="2.15836">
        <ele>55.3</ele>
        <time>2022-05-11T12:59:13Z</time>
      </trkpt>
      <trkpt lat="49.74719" lon="2.15834">
        <ele>55.3</ele>
        <time>2022-05-11T12:59:14Z</time>
      </trkpt>
      <trkpt lat="49.74718" lon="2.15834">
        <ele>55.3</ele>
        <time>2022-05-11T12:59:15Z</time>
      </trkpt>
      <trkpt lat="49.74717" lon="2.15833">
        <ele>55.3</ele>
        <time>2022-05-11T12:59:16Z</time>
      </trkpt>
      <trkpt lat="49.74716" lon="2.15832">
        <ele>55.3</ele>
        <time>2022-05-11T12:59:17Z</time>
      </trkpt>
      <trkpt lat="49.74715" lon="2.15832">
        <ele>55.3</ele>
        <time>2022-05-11T12:59:18Z</time>
      </trkpt>
      <trkpt lat="49.74715" lon="2.15832">
        <ele>55.3</ele>
        <time>2022-05-11T12:59:19Z</time>
      </trkpt>
      <trkpt lat="49.74714" lon="2.15832">
        <ele>55.3</ele>
        <time>2022-05-11T12:59:20Z</time>
      </trkpt>
      <trkpt lat="49.74712" lon="2.1583">
        <ele>55.3</ele>
        <time>2022-05-11T12:59:21Z</time>
      </trkpt>
      <trkpt lat="49.74711" lon="2.1583">
        <ele>55.3</ele>
        <time>2022-05-11T12:59:22Z</time>
      </trkpt>
      <trkpt lat="49.7471" lon="2.1583">
        <ele>55.3</ele>
        <time>2022-05-11T12:59:24Z</time>
      </trkpt>
      <trkpt lat="49.74709" lon="2.15829">
        <ele>55.3</ele>
        <time>2022-05-11T12:59:25Z</time>
      </trkpt>
      <trkpt lat="49.74708" lon="2.15829">
        <ele>55.3</ele>
        <time>2022-05-11T12:59:26Z</time>
      </trkpt>
      <trkpt lat="49.74707" lon="2.15828">
        <ele>55.3</ele>
        <time>2022-05-11T12:59:27Z</time>
      </trkpt>
      <trkpt lat="49.74706" lon="2.15827">
        <ele>55.3</ele>
        <time>2022-05-11T12:59:28Z</time>
      </trkpt>
      <trkpt lat="49.74705" lon="2.15826">
        <ele>55.3</ele>
        <time>2022-05-11T12:59:29Z</time>
      </trkpt>
      <trkpt lat="49.74704" lon="2.15825">
        <ele>55.3</ele>
        <time>2022-05-11T12:59:30Z</time>
      </trkpt>
      <trkpt lat="49.74703" lon="2.15824">
        <ele>55.3</ele>
        <time>2022-05-11T12:59:31Z</time>
      </trkpt>
      <trkpt lat="49.74702" lon="2.15824">
        <ele>55.3</ele>
        <time>2022-05-11T12:59:32Z</time>
      </trkpt>
      <trkpt lat="49.74701" lon="2.15822">
        <ele>55.3</ele>
        <time>2022-05-11T12:59:33Z</time>
      </trkpt>
      <trkpt lat="49.747" lon="2.15821">
        <ele>55.3</ele>
        <time>2022-05-11T12:59:34Z</time>
      </trkpt>
      <trkpt lat="49.747" lon="2.1582">
        <ele>55.3</ele>
        <time>2022-05-11T12:59:35Z</time>
      </trkpt>
      <trkpt lat="49.74698" lon="2.15818">
        <ele>55.3</ele>
        <time>2022-05-11T12:59:36Z</time>
      </trkpt>
      <trkpt lat="49.74697" lon="2.15818">
        <ele>55.3</ele>
        <time>2022-05-11T12:59:38Z</time>
      </trkpt>
      <trkpt lat="49.74697" lon="2.15817">
        <ele>55.3</ele>
        <time>2022-05-11T12:59:39Z</time>
      </trkpt>
      <trkpt lat="49.74696" lon="2.15816">
        <ele>55.3</ele>
        <time>2022-05-11T12:59:40Z</time>
      </trkpt>
      <trkpt lat="49.74695" lon="2.15816">
        <ele>55.3</ele>
        <time>2022-05-11T12:59:41Z</time>
      </trkpt>
      <trkpt lat="49.74694" lon="2.15815">
        <ele>55.3</ele>
        <time>2022-05-11T12:59:42Z</time>
      </trkpt>
      <trkpt lat="49.74692" lon="2.15813">
        <ele>55.3</ele>
        <time>2022-05-11T12:59:43Z</time>
      </trkpt>
      <trkpt lat="49.74692" lon="2.15813">
        <ele>55.3</ele>
        <time>2022-05-11T12:59:44Z</time>
      </trkpt>
      <trkpt lat="49.74691" lon="2.15812">
        <ele>55.3</ele>
        <time>2022-05-11T12:59:45Z</time>
      </trkpt>
      <trkpt lat="49.7469" lon="2.15811">
        <ele>55.3</ele>
        <time>2022-05-11T12:59:46Z</time>
      </trkpt>
      <trkpt lat="49.74689" lon="2.15811">
        <ele>55.3</ele>
        <time>2022-05-11T12:59:48Z</time>
      </trkpt>
      <trkpt lat="49.74688" lon="2.1581">
        <ele>55.3</ele>
        <time>2022-05-11T12:59:49Z</time>
      </trkpt>
      <trkpt lat="49.74686" lon="2.1581">
        <ele>55.3</ele>
        <time>2022-05-11T12:59:51Z</time>
      </trkpt>
      <trkpt lat="49.74685" lon="2.1581">
        <ele>55.3</ele>
        <time>2022-05-11T12:59:52Z</time>
      </trkpt>
      <trkpt lat="49.74684" lon="2.1581">
        <ele>55.3</ele>
        <time>2022-05-11T12:59:53Z</time>
      </trkpt>
      <trkpt lat="49.74682" lon="2.1581">
        <ele>55.3</ele>
        <time>2022-05-11T12:59:54Z</time>
      </trkpt>
      <trkpt lat="49.74681" lon="2.15809">
        <ele>55.3</ele>
        <time>2022-05-11T12:59:55Z</time>
      </trkpt>
      <trkpt lat="49.7468" lon="2.15809">
        <ele>55.4</ele>
        <time>2022-05-11T12:59:56Z</time>
      </trkpt>
      <trkpt lat="49.74679" lon="2.15809">
        <ele>55.4</ele>
        <time>2022-05-11T12:59:58Z</time>
      </trkpt>
      <trkpt lat="49.74678" lon="2.15808">
        <ele>55.4</ele>
        <time>2022-05-11T12:59:59Z</time>
      </trkpt>
      <trkpt lat="49.74677" lon="2.15808">
        <ele>55.4</ele>
        <time>2022-05-11T13:00:00Z</time>
      </trkpt>
      <trkpt lat="49.74676" lon="2.15807">
        <ele>55.4</ele>
        <time>2022-05-11T13:00:01Z</time>
      </trkpt>
      <trkpt lat="49.74674" lon="2.15806">
        <ele>55.4</ele>
        <time>2022-05-11T13:00:02Z</time>
      </trkpt>
      <trkpt lat="49.74674" lon="2.15805">
        <ele>55.4</ele>
        <time>2022-05-11T13:00:03Z</time>
      </trkpt>
      <trkpt lat="49.74673" lon="2.15805">
        <ele>55.4</ele>
        <time>2022-05-11T13:00:04Z</time>
      </trkpt>
      <trkpt lat="49.74671" lon="2.15803">
        <ele>55.4</ele>
        <time>2022-05-11T13:00:05Z</time>
      </trkpt>
      <trkpt lat="49.7467" lon="2.15802">
        <ele>55.4</ele>
        <time>2022-05-11T13:00:06Z</time>
      </trkpt>
      <trkpt lat="49.74669" lon="2.15802">
        <ele>55.4</ele>
        <time>2022-05-11T13:00:07Z</time>
      </trkpt>
      <trkpt lat="49.74668" lon="2.15801">
        <ele>55.4</ele>
        <time>2022-05-11T13:00:08Z</time>
      </trkpt>
      <trkpt lat="49.74667" lon="2.15799">
        <ele>55.4</ele>
        <time>2022-05-11T13:00:09Z</time>
      </trkpt>
      <trkpt lat="49.74665" lon="2.15798">
        <ele>55.4</ele>
        <time>2022-05-11T13:00:10Z</time>
      </trkpt>
      <trkpt lat="49.74664" lon="2.15797">
        <ele>55.5</ele>
        <time>2022-05-11T13:00:12Z</time>
      </trkpt>
      <trkpt lat="49.74662" lon="2.15796">
        <ele>55.5</ele>
        <time>2022-05-11T13:00:13Z</time>
      </trkpt>
      <trkpt lat="49.74661" lon="2.15795">
        <ele>55.5</ele>
        <time>2022-05-11T13:00:14Z</time>
      </trkpt>
      <trkpt lat="49.7466" lon="2.15793">
        <ele>55.5</ele>
        <time>2022-05-11T13:00:15Z</time>
      </trkpt>
      <trkpt lat="49.74658" lon="2.15791">
        <ele>55.5</ele>
        <time>2022-05-11T13:00:17Z</time>
      </trkpt>
      <trkpt lat="49.74656" lon="2.1579">
        <ele>55.5</ele>
        <time>2022-05-11T13:00:18Z</time>
      </trkpt>
      <trkpt lat="49.74655" lon="2.15789">
        <ele>55.5</ele>
        <time>2022-05-11T13:00:19Z</time>
      </trkpt>
      <trkpt lat="49.74654" lon="2.15788">
        <ele>55.5</ele>
        <time>2022-05-11T13:00:20Z</time>
      </trkpt>
      <trkpt lat="49.74653" lon="2.15788">
        <ele>55.5</ele>
        <time>2022-05-11T13:00:21Z</time>
      </trkpt>
      <trkpt lat="49.74652" lon="2.15787">
        <ele>55.5</ele>
        <time>2022-05-11T13:00:22Z</time>
      </trkpt>
      <trkpt lat="49.7465" lon="2.15785">
        <ele>55.5</ele>
        <time>2022-05-11T13:00:23Z</time>
      </trkpt>
      <trkpt lat="49.74649" lon="2.15784">
        <ele>55.5</ele>
        <time>2022-05-11T13:00:24Z</time>
      </trkpt>
      <trkpt lat="49.74647" lon="2.15783">
        <ele>55.5</ele>
        <time>2022-05-11T13:00:25Z</time>
      </trkpt>
      <trkpt lat="49.74646" lon="2.15783">
        <ele>55.5</ele>
        <time>2022-05-11T13:00:27Z</time>
      </trkpt>
      <trkpt lat="49.74646" lon="2.15782">
        <ele>55.5</ele>
        <time>2022-05-11T13:00:28Z</time>
      </trkpt>
      <trkpt lat="49.74644" lon="2.15781">
        <ele>55.5</ele>
        <time>2022-05-11T13:00:29Z</time>
      </trkpt>
      <trkpt lat="49.74643" lon="2.15781">
        <ele>55.5</ele>
        <time>2022-05-11T13:00:30Z</time>
      </trkpt>
      <trkpt lat="49.74642" lon="2.15781">
        <ele>55.5</ele>
        <time>2022-05-11T13:00:31Z</time>
      </trkpt>
      <trkpt lat="49.74641" lon="2.1578">
        <ele>55.5</ele>
        <time>2022-05-11T13:00:32Z</time>
      </trkpt>
      <trkpt lat="49.74639" lon="2.15779">
        <ele>55.5</ele>
        <time>2022-05-11T13:00:34Z</time>
      </trkpt>
      <trkpt lat="49.74638" lon="2.15779">
        <ele>55.5</ele>
        <time>2022-05-11T13:00:35Z</time>
      </trkpt>
      <trkpt lat="49.74636" lon="2.15778">
        <ele>55.5</ele>
        <time>2022-05-11T13:00:36Z</time>
      </trkpt>
      <trkpt lat="49.74634" lon="2.15777">
        <ele>55.5</ele>
        <time>2022-05-11T13:00:37Z</time>
      </trkpt>
      <trkpt lat="49.74633" lon="2.15776">
        <ele>55.5</ele>
        <time>2022-05-11T13:00:39Z</time>
      </trkpt>
      <trkpt lat="49.74632" lon="2.15776">
        <ele>55.5</ele>
        <time>2022-05-11T13:00:40Z</time>
      </trkpt>
      <trkpt lat="49.74631" lon="2.15775">
        <ele>55.5</ele>
        <time>2022-05-11T13:00:41Z</time>
      </trkpt>
      <trkpt lat="49.7463" lon="2.15775">
        <ele>55.5</ele>
        <time>2022-05-11T13:00:42Z</time>
      </trkpt>
      <trkpt lat="49.74629" lon="2.15774">
        <ele>55.5</ele>
        <time>2022-05-11T13:00:43Z</time>
      </trkpt>
      <trkpt lat="49.74628" lon="2.15773">
        <ele>55.5</ele>
        <time>2022-05-11T13:00:44Z</time>
      </trkpt>
      <trkpt lat="49.74627" lon="2.15772">
        <ele>55.5</ele>
        <time>2022-05-11T13:00:45Z</time>
      </trkpt>
      <trkpt lat="49.74625" lon="2.15771">
        <ele>55.5</ele>
        <time>2022-05-11T13:00:46Z</time>
      </trkpt>
      <trkpt lat="49.74624" lon="2.15771">
        <ele>55.5</ele>
        <time>2022-05-11T13:00:47Z</time>
      </trkpt>
      <trkpt lat="49.74623" lon="2.1577">
        <ele>55.5</ele>
        <time>2022-05-11T13:00:48Z</time>
      </trkpt>
      <trkpt lat="49.74622" lon="2.15769">
        <ele>55.5</ele>
        <time>2022-05-11T13:00:49Z</time>
      </trkpt>
      <trkpt lat="49.74621" lon="2.15769">
        <ele>55.5</ele>
        <time>2022-05-11T13:00:50Z</time>
      </trkpt>
      <trkpt lat="49.7462" lon="2.15768">
        <ele>55.5</ele>
        <time>2022-05-11T13:00:52Z</time>
      </trkpt>
      <trkpt lat="49.74619" lon="2.15767">
        <ele>55.5</ele>
        <time>2022-05-11T13:00:53Z</time>
      </trkpt>
      <trkpt lat="49.74616" lon="2.15766">
        <ele>55.5</ele>
        <time>2022-05-11T13:00:55Z</time>
      </trkpt>
      <trkpt lat="49.74615" lon="2.15765">
        <ele>55.5</ele>
        <time>2022-05-11T13:00:57Z</time>
      </trkpt>
      <trkpt lat="49.74614" lon="2.15764">
        <ele>55.5</ele>
        <time>2022-05-11T13:00:58Z</time>
      </trkpt>
      <trkpt lat="49.74613" lon="2.15763">
        <ele>55.5</ele>
        <time>2022-05-11T13:00:59Z</time>
      </trkpt>
      <trkpt lat="49.74612" lon="2.15762">
        <ele>55.5</ele>
        <time>2022-05-11T13:01:00Z</time>
      </trkpt>
      <trkpt lat="49.74611" lon="2.15762">
        <ele>55.5</ele>
        <time>2022-05-11T13:01:01Z</time>
      </trkpt>
      <trkpt lat="49.7461" lon="2.15761">
        <ele>55.5</ele>
        <time>2022-05-11T13:01:02Z</time>
      </trkpt>
      <trkpt lat="49.74609" lon="2.1576">
        <ele>55.5</ele>
        <time>2022-05-11T13:01:03Z</time>
      </trkpt>
      <trkpt lat="49.74608" lon="2.15759">
        <ele>55.5</ele>
        <time>2022-05-11T13:01:04Z</time>
      </trkpt>
      <trkpt lat="49.74607" lon="2.15758">
        <ele>55.5</ele>
        <time>2022-05-11T13:01:06Z</time>
      </trkpt>
      <trkpt lat="49.74606" lon="2.15758">
        <ele>55.5</ele>
        <time>2022-05-11T13:01:07Z</time>
      </trkpt>
      <trkpt lat="49.74605" lon="2.15757">
        <ele>55.5</ele>
        <time>2022-05-11T13:01:08Z</time>
      </trkpt>
      <trkpt lat="49.74604" lon="2.15756">
        <ele>55.5</ele>
        <time>2022-05-11T13:01:09Z</time>
      </trkpt>
      <trkpt lat="49.74603" lon="2.15755">
        <ele>55.5</ele>
        <time>2022-05-11T13:01:10Z</time>
      </trkpt>
      <trkpt lat="49.74602" lon="2.15755">
        <ele>55.5</ele>
        <time>2022-05-11T13:01:11Z</time>
      </trkpt>
      <trkpt lat="49.74601" lon="2.15754">
        <ele>55.5</ele>
        <time>2022-05-11T13:01:12Z</time>
      </trkpt>
      <trkpt lat="49.74601" lon="2.15754">
        <ele>55.5</ele>
        <time>2022-05-11T13:01:13Z</time>
      </trkpt>
      <trkpt lat="49.746" lon="2.15753">
        <ele>55.5</ele>
        <time>2022-05-11T13:01:14Z</time>
      </trkpt>
      <trkpt lat="49.74598" lon="2.15751">
        <ele>55.5</ele>
        <time>2022-05-11T13:01:15Z</time>
      </trkpt>
      <trkpt lat="49.74597" lon="2.15751">
        <ele>55.5</ele>
        <time>2022-05-11T13:01:16Z</time>
      </trkpt>
      <trkpt lat="49.74597" lon="2.1575">
        <ele>55.5</ele>
        <time>2022-05-11T13:01:17Z</time>
      </trkpt>
      <trkpt lat="49.74595" lon="2.15748">
        <ele>55.5</ele>
        <time>2022-05-11T13:01:18Z</time>
      </trkpt>
      <trkpt lat="49.74594" lon="2.15747">
        <ele>55.5</ele>
        <time>2022-05-11T13:01:20Z</time>
      </trkpt>
      <trkpt lat="49.74593" lon="2.15746">
        <ele>55.5</ele>
        <time>2022-05-11T13:01:21Z</time>
      </trkpt>
      <trkpt lat="49.74591" lon="2.15745">
        <ele>55.5</ele>
        <time>2022-05-11T13:01:23Z</time>
      </trkpt>
      <trkpt lat="49.74589" lon="2.15744">
        <ele>55.5</ele>
        <time>2022-05-11T13:01:25Z</time>
      </trkpt>
      <trkpt lat="49.74588" lon="2.15744">
        <ele>55.5</ele>
        <time>2022-05-11T13:01:26Z</time>
      </trkpt>
      <trkpt lat="49.74587" lon="2.15743">
        <ele>55.5</ele>
        <time>2022-05-11T13:01:27Z</time>
      </trkpt>
      <trkpt lat="49.74586" lon="2.15742">
        <ele>55.5</ele>
        <time>2022-05-11T13:01:28Z</time>
      </trkpt>
      <trkpt lat="49.74585" lon="2.15741">
        <ele>55.5</ele>
        <time>2022-05-11T13:01:29Z</time>
      </trkpt>
      <trkpt lat="49.74584" lon="2.1574">
        <ele>55.6</ele>
        <time>2022-05-11T13:01:30Z</time>
      </trkpt>
      <trkpt lat="49.74583" lon="2.15739">
        <ele>55.6</ele>
        <time>2022-05-11T13:01:31Z</time>
      </trkpt>
      <trkpt lat="49.74582" lon="2.15738">
        <ele>55.6</ele>
        <time>2022-05-11T13:01:32Z</time>
      </trkpt>
      <trkpt lat="49.7458" lon="2.15736">
        <ele>55.6</ele>
        <time>2022-05-11T13:01:33Z</time>
      </trkpt>
      <trkpt lat="49.74579" lon="2.15735">
        <ele>55.6</ele>
        <time>2022-05-11T13:01:35Z</time>
      </trkpt>
      <trkpt lat="49.74578" lon="2.15734">
        <ele>55.6</ele>
        <time>2022-05-11T13:01:36Z</time>
      </trkpt>
      <trkpt lat="49.74578" lon="2.15733">
        <ele>55.6</ele>
        <time>2022-05-11T13:01:37Z</time>
      </trkpt>
      <trkpt lat="49.74577" lon="2.15732">
        <ele>55.6</ele>
        <time>2022-05-11T13:01:38Z</time>
      </trkpt>
      <trkpt lat="49.74576" lon="2.15731">
        <ele>55.6</ele>
        <time>2022-05-11T13:01:39Z</time>
      </trkpt>
      <trkpt lat="49.74575" lon="2.15731">
        <ele>55.6</ele>
        <time>2022-05-11T13:01:40Z</time>
      </trkpt>
      <trkpt lat="49.74573" lon="2.15729">
        <ele>55.6</ele>
        <time>2022-05-11T13:01:42Z</time>
      </trkpt>
      <trkpt lat="49.74572" lon="2.15728">
        <ele>55.6</ele>
        <time>2022-05-11T13:01:43Z</time>
      </trkpt>
      <trkpt lat="49.74571" lon="2.15727">
        <ele>55.6</ele>
        <time>2022-05-11T13:01:44Z</time>
      </trkpt>
      <trkpt lat="49.74569" lon="2.15725">
        <ele>55.6</ele>
        <time>2022-05-11T13:01:46Z</time>
      </trkpt>
      <trkpt lat="49.74568" lon="2.15724">
        <ele>55.6</ele>
        <time>2022-05-11T13:01:47Z</time>
      </trkpt>
      <trkpt lat="49.74567" lon="2.15723">
        <ele>55.6</ele>
        <time>2022-05-11T13:01:48Z</time>
      </trkpt>
      <trkpt lat="49.74566" lon="2.15723">
        <ele>55.6</ele>
        <time>2022-05-11T13:01:49Z</time>
      </trkpt>
      <trkpt lat="49.74566" lon="2.15722">
        <ele>55.6</ele>
        <time>2022-05-11T13:01:50Z</time>
      </trkpt>
      <trkpt lat="49.74565" lon="2.15721">
        <ele>55.6</ele>
        <time>2022-05-11T13:01:51Z</time>
      </trkpt>
      <trkpt lat="49.74564" lon="2.1572">
        <ele>55.6</ele>
        <time>2022-05-11T13:01:52Z</time>
      </trkpt>
      <trkpt lat="49.74562" lon="2.15719">
        <ele>55.6</ele>
        <time>2022-05-11T13:01:53Z</time>
      </trkpt>
      <trkpt lat="49.74561" lon="2.15717">
        <ele>55.6</ele>
        <time>2022-05-11T13:01:55Z</time>
      </trkpt>
      <trkpt lat="49.74559" lon="2.15716">
        <ele>55.6</ele>
        <time>2022-05-11T13:01:56Z</time>
      </trkpt>
      <trkpt lat="49.74558" lon="2.15715">
        <ele>55.6</ele>
        <time>2022-05-11T13:01:57Z</time>
      </trkpt>
      <trkpt lat="49.74556" lon="2.15714">
        <ele>55.6</ele>
        <time>2022-05-11T13:01:58Z</time>
      </trkpt>
      <trkpt lat="49.74555" lon="2.15713">
        <ele>55.6</ele>
        <time>2022-05-11T13:02:00Z</time>
      </trkpt>
      <trkpt lat="49.74554" lon="2.15713">
        <ele>55.6</ele>
        <time>2022-05-11T13:02:01Z</time>
      </trkpt>
      <trkpt lat="49.74553" lon="2.15712">
        <ele>55.6</ele>
        <time>2022-05-11T13:02:02Z</time>
      </trkpt>
      <trkpt lat="49.74552" lon="2.15711">
        <ele>55.6</ele>
        <time>2022-05-11T13:02:03Z</time>
      </trkpt>
      <trkpt lat="49.7455" lon="2.1571">
        <ele>55.6</ele>
        <time>2022-05-11T13:02:04Z</time>
      </trkpt>
      <trkpt lat="49.74549" lon="2.15709">
        <ele>55.6</ele>
        <time>2022-05-11T13:02:05Z</time>
      </trkpt>
      <trkpt lat="49.74548" lon="2.15709">
        <ele>55.6</ele>
        <time>2022-05-11T13:02:06Z</time>
      </trkpt>
      <trkpt lat="49.74547" lon="2.15708">
        <ele>55.6</ele>
        <time>2022-05-11T13:02:07Z</time>
      </trkpt>
      <trkpt lat="49.74545" lon="2.15707">
        <ele>55.6</ele>
        <time>2022-05-11T13:02:08Z</time>
      </trkpt>
      <trkpt lat="49.74544" lon="2.15706">
        <ele>55.6</ele>
        <time>2022-05-11T13:02:10Z</time>
      </trkpt>
      <trkpt lat="49.74543" lon="2.15705">
        <ele>55.6</ele>
        <time>2022-05-11T13:02:11Z</time>
      </trkpt>
      <trkpt lat="49.74541" lon="2.15705">
        <ele>55.5</ele>
        <time>2022-05-11T13:02:12Z</time>
      </trkpt>
      <trkpt lat="49.7454" lon="2.15704">
        <ele>55.5</ele>
        <time>2022-05-11T13:02:13Z</time>
      </trkpt>
      <trkpt lat="49.74539" lon="2.15703">
        <ele>55.5</ele>
        <time>2022-05-11T13:02:14Z</time>
      </trkpt>
      <trkpt lat="49.74538" lon="2.15702">
        <ele>55.5</ele>
        <time>2022-05-11T13:02:15Z</time>
      </trkpt>
      <trkpt lat="49.74537" lon="2.15702">
        <ele>55.5</ele>
        <time>2022-05-11T13:02:16Z</time>
      </trkpt>
      <trkpt lat="49.74536" lon="2.15701">
        <ele>55.5</ele>
        <time>2022-05-11T13:02:17Z</time>
      </trkpt>
      <trkpt lat="49.74535" lon="2.157">
        <ele>55.5</ele>
        <time>2022-05-11T13:02:18Z</time>
      </trkpt>
      <trkpt lat="49.74534" lon="2.15699">
        <ele>55.5</ele>
        <time>2022-05-11T13:02:19Z</time>
      </trkpt>
      <trkpt lat="49.74532" lon="2.15698">
        <ele>55.5</ele>
        <time>2022-05-11T13:02:21Z</time>
      </trkpt>
      <trkpt lat="49.7453" lon="2.15697">
        <ele>55.5</ele>
        <time>2022-05-11T13:02:22Z</time>
      </trkpt>
      <trkpt lat="49.74529" lon="2.15696">
        <ele>55.5</ele>
        <time>2022-05-11T13:02:23Z</time>
      </trkpt>
      <trkpt lat="49.74528" lon="2.15695">
        <ele>55.5</ele>
        <time>2022-05-11T13:02:24Z</time>
      </trkpt>
      <trkpt lat="49.74526" lon="2.15695">
        <ele>55.5</ele>
        <time>2022-05-11T13:02:25Z</time>
      </trkpt>
      <trkpt lat="49.74525" lon="2.15693">
        <ele>55.5</ele>
        <time>2022-05-11T13:02:26Z</time>
      </trkpt>
      <trkpt lat="49.74524" lon="2.15691">
        <ele>55.5</ele>
        <time>2022-05-11T13:02:27Z</time>
      </trkpt>
      <trkpt lat="49.74523" lon="2.1569">
        <ele>55.5</ele>
        <time>2022-05-11T13:02:28Z</time>
      </trkpt>
      <trkpt lat="49.74522" lon="2.15688">
        <ele>55.4</ele>
        <time>2022-05-11T13:02:29Z</time>
      </trkpt>
      <trkpt lat="49.7452" lon="2.15687">
        <ele>55.4</ele>
        <time>2022-05-11T13:02:30Z</time>
      </trkpt>
      <trkpt lat="49.74518" lon="2.15684">
        <ele>55.4</ele>
        <time>2022-05-11T13:02:31Z</time>
      </trkpt>
      <trkpt lat="49.74518" lon="2.15682">
        <ele>55.4</ele>
        <time>2022-05-11T13:02:32Z</time>
      </trkpt>
      <trkpt lat="49.74516" lon="2.1568">
        <ele>55.4</ele>
        <time>2022-05-11T13:02:34Z</time>
      </trkpt>
      <trkpt lat="49.74516" lon="2.15679">
        <ele>55.4</ele>
        <time>2022-05-11T13:02:35Z</time>
      </trkpt>
      <trkpt lat="49.74515" lon="2.15678">
        <ele>55.4</ele>
        <time>2022-05-11T13:02:36Z</time>
      </trkpt>
      <trkpt lat="49.74512" lon="2.15674">
        <ele>55.4</ele>
        <time>2022-05-11T13:02:38Z</time>
      </trkpt>
      <trkpt lat="49.74512" lon="2.15674">
        <ele>55.4</ele>
        <time>2022-05-11T13:02:39Z</time>
      </trkpt>
      <trkpt lat="49.74511" lon="2.15672">
        <ele>55.4</ele>
        <time>2022-05-11T13:02:40Z</time>
      </trkpt>
      <trkpt lat="49.7451" lon="2.15671">
        <ele>55.4</ele>
        <time>2022-05-11T13:02:41Z</time>
      </trkpt>
      <trkpt lat="49.74509" lon="2.1567">
        <ele>55.4</ele>
        <time>2022-05-11T13:02:42Z</time>
      </trkpt>
      <trkpt lat="49.74508" lon="2.15669">
        <ele>55.4</ele>
        <time>2022-05-11T13:02:43Z</time>
      </trkpt>
      <trkpt lat="49.74507" lon="2.15668">
        <ele>55.4</ele>
        <time>2022-05-11T13:02:44Z</time>
      </trkpt>
      <trkpt lat="49.74505" lon="2.15667">
        <ele>55.4</ele>
        <time>2022-05-11T13:02:46Z</time>
      </trkpt>
      <trkpt lat="49.74504" lon="2.15666">
        <ele>55.4</ele>
        <time>2022-05-11T13:02:47Z</time>
      </trkpt>
      <trkpt lat="49.74504" lon="2.15665">
        <ele>55.4</ele>
        <time>2022-05-11T13:02:48Z</time>
      </trkpt>
      <trkpt lat="49.74503" lon="2.15664">
        <ele>55.4</ele>
        <time>2022-05-11T13:02:49Z</time>
      </trkpt>
      <trkpt lat="49.74501" lon="2.15663">
        <ele>55.4</ele>
        <time>2022-05-11T13:02:50Z</time>
      </trkpt>
      <trkpt lat="49.745" lon="2.15662">
        <ele>55.4</ele>
        <time>2022-05-11T13:02:51Z</time>
      </trkpt>
      <trkpt lat="49.745" lon="2.1566">
        <ele>55.4</ele>
        <time>2022-05-11T13:02:53Z</time>
      </trkpt>
      <trkpt lat="49.745" lon="2.1566">
        <ele>55.4</ele>
        <time>2022-05-11T13:02:54Z</time>
      </trkpt>
      <trkpt lat="49.74499" lon="2.1566">
        <ele>55.4</ele>
        <time>2022-05-11T13:02:55Z</time>
      </trkpt>
      <trkpt lat="49.74498" lon="2.15659">
        <ele>55.4</ele>
        <time>2022-05-11T13:02:56Z</time>
      </trkpt>
      <trkpt lat="49.74497" lon="2.15658">
        <ele>55.4</ele>
        <time>2022-05-11T13:02:57Z</time>
      </trkpt>
      <trkpt lat="49.74496" lon="2.15656">
        <ele>55.4</ele>
        <time>2022-05-11T13:02:58Z</time>
      </trkpt>
      <trkpt lat="49.74494" lon="2.15655">
        <ele>55.4</ele>
        <time>2022-05-11T13:03:00Z</time>
      </trkpt>
      <trkpt lat="49.74492" lon="2.15654">
        <ele>55.4</ele>
        <time>2022-05-11T13:03:01Z</time>
      </trkpt>
      <trkpt lat="49.74491" lon="2.15653">
        <ele>55.4</ele>
        <time>2022-05-11T13:03:02Z</time>
      </trkpt>
      <trkpt lat="49.7449" lon="2.15652">
        <ele>55.4</ele>
        <time>2022-05-11T13:03:03Z</time>
      </trkpt>
      <trkpt lat="49.74488" lon="2.15651">
        <ele>55.4</ele>
        <time>2022-05-11T13:03:04Z</time>
      </trkpt>
      <trkpt lat="49.74487" lon="2.1565">
        <ele>55.4</ele>
        <time>2022-05-11T13:03:05Z</time>
      </trkpt>
      <trkpt lat="49.74486" lon="2.15649">
        <ele>55.4</ele>
        <time>2022-05-11T13:03:06Z</time>
      </trkpt>
      <trkpt lat="49.74484" lon="2.15648">
        <ele>55.4</ele>
        <time>2022-05-11T13:03:07Z</time>
      </trkpt>
      <trkpt lat="49.74483" lon="2.15647">
        <ele>55.4</ele>
        <time>2022-05-11T13:03:08Z</time>
      </trkpt>
      <trkpt lat="49.74481" lon="2.15645">
        <ele>55.5</ele>
        <time>2022-05-11T13:03:09Z</time>
      </trkpt>
      <trkpt lat="49.7448" lon="2.15645">
        <ele>55.5</ele>
        <time>2022-05-11T13:03:10Z</time>
      </trkpt>
      <trkpt lat="49.74478" lon="2.15644">
        <ele>55.5</ele>
        <time>2022-05-11T13:03:12Z</time>
      </trkpt>
      <trkpt lat="49.74477" lon="2.15643">
        <ele>55.5</ele>
        <time>2022-05-11T13:03:13Z</time>
      </trkpt>
      <trkpt lat="49.74475" lon="2.15642">
        <ele>55.5</ele>
        <time>2022-05-11T13:03:14Z</time>
      </trkpt>
      <trkpt lat="49.74474" lon="2.15642">
        <ele>55.5</ele>
        <time>2022-05-11T13:03:15Z</time>
      </trkpt>
      <trkpt lat="49.74472" lon="2.15641">
        <ele>55.5</ele>
        <time>2022-05-11T13:03:16Z</time>
      </trkpt>
      <trkpt lat="49.74471" lon="2.1564">
        <ele>55.5</ele>
        <time>2022-05-11T13:03:17Z</time>
      </trkpt>
      <trkpt lat="49.74469" lon="2.15638">
        <ele>55.5</ele>
        <time>2022-05-11T13:03:18Z</time>
      </trkpt>
      <trkpt lat="49.74468" lon="2.15637">
        <ele>55.5</ele>
        <time>2022-05-11T13:03:19Z</time>
      </trkpt>
      <trkpt lat="49.74467" lon="2.15636">
        <ele>55.5</ele>
        <time>2022-05-11T13:03:20Z</time>
      </trkpt>
      <trkpt lat="49.74466" lon="2.15635">
        <ele>55.5</ele>
        <time>2022-05-11T13:03:21Z</time>
      </trkpt>
      <trkpt lat="49.74465" lon="2.15634">
        <ele>55.5</ele>
        <time>2022-05-11T13:03:22Z</time>
      </trkpt>
      <trkpt lat="49.74463" lon="2.15632">
        <ele>55.5</ele>
        <time>2022-05-11T13:03:24Z</time>
      </trkpt>
      <trkpt lat="49.74461" lon="2.15631">
        <ele>55.5</ele>
        <time>2022-05-11T13:03:25Z</time>
      </trkpt>
      <trkpt lat="49.7446" lon="2.1563">
        <ele>55.5</ele>
        <time>2022-05-11T13:03:26Z</time>
      </trkpt>
      <trkpt lat="49.74459" lon="2.15629">
        <ele>55.5</ele>
        <time>2022-05-11T13:03:27Z</time>
      </trkpt>
      <trkpt lat="49.74458" lon="2.15628">
        <ele>55.5</ele>
        <time>2022-05-11T13:03:28Z</time>
      </trkpt>
      <trkpt lat="49.74458" lon="2.15627">
        <ele>55.5</ele>
        <time>2022-05-11T13:03:29Z</time>
      </trkpt>
      <trkpt lat="49.74457" lon="2.15626">
        <ele>55.5</ele>
        <time>2022-05-11T13:03:31Z</time>
      </trkpt>
      <trkpt lat="49.74457" lon="2.15626">
        <ele>55.5</ele>
        <time>2022-05-11T13:03:32Z</time>
      </trkpt>
      <trkpt lat="49.74456" lon="2.15625">
        <ele>55.5</ele>
        <time>2022-05-11T13:03:33Z</time>
      </trkpt>
      <trkpt lat="49.74455" lon="2.15625">
        <ele>55.5</ele>
        <time>2022-05-11T13:03:34Z</time>
      </trkpt>
      <trkpt lat="49.74454" lon="2.15624">
        <ele>55.5</ele>
        <time>2022-05-11T13:03:35Z</time>
      </trkpt>
      <trkpt lat="49.74453" lon="2.15622">
        <ele>55.5</ele>
        <time>2022-05-11T13:03:36Z</time>
      </trkpt>
      <trkpt lat="49.74454" lon="2.15621">
        <ele>55.5</ele>
        <time>2022-05-11T13:03:37Z</time>
      </trkpt>
      <trkpt lat="49.74455" lon="2.15621">
        <ele>55.5</ele>
        <time>2022-05-11T13:03:38Z</time>
      </trkpt>
      <trkpt lat="49.74458" lon="2.15623">
        <ele>55.5</ele>
        <time>2022-05-11T13:03:40Z</time>
      </trkpt>
      <trkpt lat="49.74459" lon="2.15624">
        <ele>55.5</ele>
        <time>2022-05-11T13:03:41Z</time>
      </trkpt>
      <trkpt lat="49.74459" lon="2.15623">
        <ele>55.5</ele>
        <time>2022-05-11T13:03:42Z</time>
      </trkpt>
      <trkpt lat="49.74458" lon="2.15622">
        <ele>55.5</ele>
        <time>2022-05-11T13:03:43Z</time>
      </trkpt>
      <trkpt lat="49.74457" lon="2.15621">
        <ele>55.5</ele>
        <time>2022-05-11T13:03:44Z</time>
      </trkpt>
      <trkpt lat="49.74456" lon="2.1562">
        <ele>55.5</ele>
        <time>2022-05-11T13:03:45Z</time>
      </trkpt>
      <trkpt lat="49.74455" lon="2.1562">
        <ele>55.5</ele>
        <time>2022-05-11T13:03:46Z</time>
      </trkpt>
      <trkpt lat="49.74454" lon="2.15619">
        <ele>55.5</ele>
        <time>2022-05-11T13:03:47Z</time>
      </trkpt>
      <trkpt lat="49.74452" lon="2.15618">
        <ele>55.5</ele>
        <time>2022-05-11T13:03:48Z</time>
      </trkpt>
      <trkpt lat="49.7445" lon="2.15617">
        <ele>55.5</ele>
        <time>2022-05-11T13:03:49Z</time>
      </trkpt>
      <trkpt lat="49.74449" lon="2.15617">
        <ele>55.5</ele>
        <time>2022-05-11T13:03:50Z</time>
      </trkpt>
      <trkpt lat="49.74447" lon="2.15616">
        <ele>55.5</ele>
        <time>2022-05-11T13:03:52Z</time>
      </trkpt>
      <trkpt lat="49.74446" lon="2.15616">
        <ele>55.5</ele>
        <time>2022-05-11T13:03:53Z</time>
      </trkpt>
      <trkpt lat="49.74442" lon="2.15614">
        <ele>55.5</ele>
        <time>2022-05-11T13:03:55Z</time>
      </trkpt>
      <trkpt lat="49.7444" lon="2.15614">
        <ele>55.5</ele>
        <time>2022-05-11T13:03:56Z</time>
      </trkpt>
      <trkpt lat="49.74438" lon="2.15614">
        <ele>55.5</ele>
        <time>2022-05-11T13:03:57Z</time>
      </trkpt>
      <trkpt lat="49.74437" lon="2.15614">
        <ele>55.5</ele>
        <time>2022-05-11T13:03:58Z</time>
      </trkpt>
      <trkpt lat="49.74437" lon="2.15615">
        <ele>55.5</ele>
        <time>2022-05-11T13:03:59Z</time>
      </trkpt>
      <trkpt lat="49.74435" lon="2.15615">
        <ele>55.5</ele>
        <time>2022-05-11T13:04:00Z</time>
      </trkpt>
      <trkpt lat="49.74433" lon="2.15615">
        <ele>55.5</ele>
        <time>2022-05-11T13:04:02Z</time>
      </trkpt>
      <trkpt lat="49.74431" lon="2.15615">
        <ele>55.5</ele>
        <time>2022-05-11T13:04:03Z</time>
      </trkpt>
      <trkpt lat="49.7443" lon="2.15616">
        <ele>55.5</ele>
        <time>2022-05-11T13:04:04Z</time>
      </trkpt>
      <trkpt lat="49.74428" lon="2.15616">
        <ele>55.5</ele>
        <time>2022-05-11T13:04:05Z</time>
      </trkpt>
      <trkpt lat="49.74426" lon="2.15617">
        <ele>55.5</ele>
        <time>2022-05-11T13:04:06Z</time>
      </trkpt>
      <trkpt lat="49.74425" lon="2.15617">
        <ele>55.5</ele>
        <time>2022-05-11T13:04:07Z</time>
      </trkpt>
      <trkpt lat="49.74423" lon="2.15617">
        <ele>55.5</ele>
        <time>2022-05-11T13:04:08Z</time>
      </trkpt>
      <trkpt lat="49.74423" lon="2.15617">
        <ele>55.5</ele>
        <time>2022-05-11T13:04:09Z</time>
      </trkpt>
      <trkpt lat="49.74422" lon="2.15617">
        <ele>55.5</ele>
        <time>2022-05-11T13:04:10Z</time>
      </trkpt>
      <trkpt lat="49.7442" lon="2.15616">
        <ele>55.5</ele>
        <time>2022-05-11T13:04:12Z</time>
      </trkpt>
      <trkpt lat="49.74419" lon="2.15616">
        <ele>55.5</ele>
        <time>2022-05-11T13:04:13Z</time>
      </trkpt>
      <trkpt lat="49.74417" lon="2.15616">
        <ele>55.5</ele>
        <time>2022-05-11T13:04:14Z</time>
      </trkpt>
      <trkpt lat="49.74416" lon="2.15616">
        <ele>55.5</ele>
        <time>2022-05-11T13:04:15Z</time>
      </trkpt>
      <trkpt lat="49.74415" lon="2.15616">
        <ele>55.5</ele>
        <time>2022-05-11T13:04:16Z</time>
      </trkpt>
      <trkpt lat="49.74413" lon="2.15616">
        <ele>55.5</ele>
        <time>2022-05-11T13:04:17Z</time>
      </trkpt>
      <trkpt lat="49.74412" lon="2.15615">
        <ele>55.5</ele>
        <time>2022-05-11T13:04:18Z</time>
      </trkpt>
      <trkpt lat="49.7441" lon="2.15615">
        <ele>55.5</ele>
        <time>2022-05-11T13:04:19Z</time>
      </trkpt>
      <trkpt lat="49.74408" lon="2.15614">
        <ele>55.5</ele>
        <time>2022-05-11T13:04:21Z</time>
      </trkpt>
      <trkpt lat="49.74407" lon="2.15614">
        <ele>55.5</ele>
        <time>2022-05-11T13:04:22Z</time>
      </trkpt>
      <trkpt lat="49.74405" lon="2.15614">
        <ele>55.5</ele>
        <time>2022-05-11T13:04:23Z</time>
      </trkpt>
      <trkpt lat="49.74403" lon="2.15612">
        <ele>55.5</ele>
        <time>2022-05-11T13:04:24Z</time>
      </trkpt>
      <trkpt lat="49.74401" lon="2.15611">
        <ele>55.5</ele>
        <time>2022-05-11T13:04:26Z</time>
      </trkpt>
      <trkpt lat="49.744" lon="2.15611">
        <ele>55.5</ele>
        <time>2022-05-11T13:04:27Z</time>
      </trkpt>
      <trkpt lat="49.74398" lon="2.1561">
        <ele>55.5</ele>
        <time>2022-05-11T13:04:28Z</time>
      </trkpt>
      <trkpt lat="49.74395" lon="2.15609">
        <ele>55.6</ele>
        <time>2022-05-11T13:04:29Z</time>
      </trkpt>
      <trkpt lat="49.74394" lon="2.15608">
        <ele>55.6</ele>
        <time>2022-05-11T13:04:30Z</time>
      </trkpt>
      <trkpt lat="49.74394" lon="2.15608">
        <ele>55.6</ele>
        <time>2022-05-11T13:04:31Z</time>
      </trkpt>
      <trkpt lat="49.74393" lon="2.15607">
        <ele>55.6</ele>
        <time>2022-05-11T13:04:32Z</time>
      </trkpt>
      <trkpt lat="49.74392" lon="2.15607">
        <ele>55.6</ele>
        <time>2022-05-11T13:04:33Z</time>
      </trkpt>
      <trkpt lat="49.74391" lon="2.15606">
        <ele>55.6</ele>
        <time>2022-05-11T13:04:34Z</time>
      </trkpt>
      <trkpt lat="49.74388" lon="2.15606">
        <ele>55.6</ele>
        <time>2022-05-11T13:04:36Z</time>
      </trkpt>
      <trkpt lat="49.74387" lon="2.15605">
        <ele>55.6</ele>
        <time>2022-05-11T13:04:37Z</time>
      </trkpt>
      <trkpt lat="49.74384" lon="2.15604">
        <ele>55.6</ele>
        <time>2022-05-11T13:04:38Z</time>
      </trkpt>
      <trkpt lat="49.74383" lon="2.15604">
        <ele>55.6</ele>
        <time>2022-05-11T13:04:39Z</time>
      </trkpt>
      <trkpt lat="49.74382" lon="2.15603">
        <ele>55.6</ele>
        <time>2022-05-11T13:04:41Z</time>
      </trkpt>
      <trkpt lat="49.74381" lon="2.15603">
        <ele>55.6</ele>
        <time>2022-05-11T13:04:42Z</time>
      </trkpt>
      <trkpt lat="49.7438" lon="2.15603">
        <ele>55.6</ele>
        <time>2022-05-11T13:04:43Z</time>
      </trkpt>
      <trkpt lat="49.74378" lon="2.15602">
        <ele>55.6</ele>
        <time>2022-05-11T13:04:44Z</time>
      </trkpt>
      <trkpt lat="49.74377" lon="2.15602">
        <ele>55.6</ele>
        <time>2022-05-11T13:04:45Z</time>
      </trkpt>
      <trkpt lat="49.74377" lon="2.15601">
        <ele>55.6</ele>
        <time>2022-05-11T13:04:46Z</time>
      </trkpt>
      <trkpt lat="49.74375" lon="2.15601">
        <ele>55.6</ele>
        <time>2022-05-11T13:04:47Z</time>
      </trkpt>
      <trkpt lat="49.74375" lon="2.15601">
        <ele>55.6</ele>
        <time>2022-05-11T13:04:48Z</time>
      </trkpt>
      <trkpt lat="49.74374" lon="2.156">
        <ele>55.6</ele>
        <time>2022-05-11T13:04:49Z</time>
      </trkpt>
      <trkpt lat="49.74373" lon="2.156">
        <ele>55.6</ele>
        <time>2022-05-11T13:04:50Z</time>
      </trkpt>
      <trkpt lat="49.74373" lon="2.15599">
        <ele>55.6</ele>
        <time>2022-05-11T13:04:51Z</time>
      </trkpt>
      <trkpt lat="49.74372" lon="2.15599">
        <ele>55.6</ele>
        <time>2022-05-11T13:04:52Z</time>
      </trkpt>
      <trkpt lat="49.74371" lon="2.15599">
        <ele>55.6</ele>
        <time>2022-05-11T13:04:53Z</time>
      </trkpt>
      <trkpt lat="49.74368" lon="2.15597">
        <ele>55.7</ele>
        <time>2022-05-11T13:04:54Z</time>
      </trkpt>
      <trkpt lat="49.74367" lon="2.15597">
        <ele>55.7</ele>
        <time>2022-05-11T13:04:56Z</time>
      </trkpt>
      <trkpt lat="49.74366" lon="2.15597">
        <ele>55.7</ele>
        <time>2022-05-11T13:04:57Z</time>
      </trkpt>
      <trkpt lat="49.74364" lon="2.15597">
        <ele>55.7</ele>
        <time>2022-05-11T13:04:58Z</time>
      </trkpt>
      <trkpt lat="49.74363" lon="2.15597">
        <ele>55.7</ele>
        <time>2022-05-11T13:04:59Z</time>
      </trkpt>
      <trkpt lat="49.74361" lon="2.15596">
        <ele>55.7</ele>
        <time>2022-05-11T13:05:00Z</time>
      </trkpt>
      <trkpt lat="49.74359" lon="2.15597">
        <ele>55.7</ele>
        <time>2022-05-11T13:05:01Z</time>
      </trkpt>
      <trkpt lat="49.74358" lon="2.15597">
        <ele>55.7</ele>
        <time>2022-05-11T13:05:02Z</time>
      </trkpt>
      <trkpt lat="49.74356" lon="2.15597">
        <ele>55.7</ele>
        <time>2022-05-11T13:05:03Z</time>
      </trkpt>
      <trkpt lat="49.74355" lon="2.15597">
        <ele>55.7</ele>
        <time>2022-05-11T13:05:05Z</time>
      </trkpt>
      <trkpt lat="49.74354" lon="2.15597">
        <ele>55.7</ele>
        <time>2022-05-11T13:05:06Z</time>
      </trkpt>
      <trkpt lat="49.74353" lon="2.15597">
        <ele>55.7</ele>
        <time>2022-05-11T13:05:07Z</time>
      </trkpt>
      <trkpt lat="49.74352" lon="2.15597">
        <ele>55.7</ele>
        <time>2022-05-11T13:05:08Z</time>
      </trkpt>
      <trkpt lat="49.74349" lon="2.15598">
        <ele>55.7</ele>
        <time>2022-05-11T13:05:09Z</time>
      </trkpt>
      <trkpt lat="49.74348" lon="2.15598">
        <ele>55.7</ele>
        <time>2022-05-11T13:05:11Z</time>
      </trkpt>
      <trkpt lat="49.74346" lon="2.15599">
        <ele>55.7</ele>
        <time>2022-05-11T13:05:12Z</time>
      </trkpt>
      <trkpt lat="49.74345" lon="2.15599">
        <ele>55.6</ele>
        <time>2022-05-11T13:05:13Z</time>
      </trkpt>
      <trkpt lat="49.74344" lon="2.156">
        <ele>55.6</ele>
        <time>2022-05-11T13:05:14Z</time>
      </trkpt>
      <trkpt lat="49.74343" lon="2.156">
        <ele>55.6</ele>
        <time>2022-05-11T13:05:16Z</time>
      </trkpt>
      <trkpt lat="49.74343" lon="2.15601">
        <ele>55.5</ele>
        <time>2022-05-11T13:05:17Z</time>
      </trkpt>
      <trkpt lat="49.74343" lon="2.15602">
        <ele>55.5</ele>
        <time>2022-05-11T13:05:18Z</time>
      </trkpt>
      <trkpt lat="49.74342" lon="2.15603">
        <ele>55.5</ele>
        <time>2022-05-11T13:05:20Z</time>
      </trkpt>
      <trkpt lat="49.74342" lon="2.15604">
        <ele>55.5</ele>
        <time>2022-05-11T13:05:21Z</time>
      </trkpt>
      <trkpt lat="49.74342" lon="2.15606">
        <ele>55.5</ele>
        <time>2022-05-11T13:05:22Z</time>
      </trkpt>
      <trkpt lat="49.74341" lon="2.15607">
        <ele>55.5</ele>
        <time>2022-05-11T13:05:23Z</time>
      </trkpt>
      <trkpt lat="49.74342" lon="2.15613">
        <ele>55.4</ele>
        <time>2022-05-11T13:05:25Z</time>
      </trkpt>
      <trkpt lat="49.74342" lon="2.15613">
        <ele>55.4</ele>
        <time>2022-05-11T13:05:26Z</time>
      </trkpt>
      <trkpt lat="49.74341" lon="2.15615">
        <ele>55.4</ele>
        <time>2022-05-11T13:05:27Z</time>
      </trkpt>
      <trkpt lat="49.74341" lon="2.15616">
        <ele>55.4</ele>
        <time>2022-05-11T13:05:28Z</time>
      </trkpt>
      <trkpt lat="49.74341" lon="2.15618">
        <ele>55.4</ele>
        <time>2022-05-11T13:05:29Z</time>
      </trkpt>
      <trkpt lat="49.74336" lon="2.15622">
        <ele>55.3</ele>
        <time>2022-05-11T13:05:30Z</time>
      </trkpt>
      <trkpt lat="49.74336" lon="2.15624">
        <ele>55.3</ele>
        <time>2022-05-11T13:05:32Z</time>
      </trkpt>
      <trkpt lat="49.74336" lon="2.15627">
        <ele>55.3</ele>
        <time>2022-05-11T13:05:33Z</time>
      </trkpt>
      <trkpt lat="49.74338" lon="2.15631">
        <ele>55.3</ele>
        <time>2022-05-11T13:05:34Z</time>
      </trkpt>
      <trkpt lat="49.74339" lon="2.15632">
        <ele>55.3</ele>
        <time>2022-05-11T13:05:35Z</time>
      </trkpt>
      <trkpt lat="49.74341" lon="2.15637">
        <ele>55.2</ele>
        <time>2022-05-11T13:05:36Z</time>
      </trkpt>
      <trkpt lat="49.74341" lon="2.15638">
        <ele>55.2</ele>
        <time>2022-05-11T13:05:37Z</time>
      </trkpt>
      <trkpt lat="49.74341" lon="2.15641">
        <ele>55.2</ele>
        <time>2022-05-11T13:05:39Z</time>
      </trkpt>
      <trkpt lat="49.74341" lon="2.15643">
        <ele>55.2</ele>
        <time>2022-05-11T13:05:40Z</time>
      </trkpt>
      <trkpt lat="49.74342" lon="2.15646">
        <ele>55.3</ele>
        <time>2022-05-11T13:05:41Z</time>
      </trkpt>
      <trkpt lat="49.74343" lon="2.15647">
        <ele>55.4</ele>
        <time>2022-05-11T13:05:42Z</time>
      </trkpt>
      <trkpt lat="49.74343" lon="2.15649">
        <ele>55.4</ele>
        <time>2022-05-11T13:05:43Z</time>
      </trkpt>
      <trkpt lat="49.74344" lon="2.15651">
        <ele>55.5</ele>
        <time>2022-05-11T13:05:44Z</time>
      </trkpt>
      <trkpt lat="49.74344" lon="2.15653">
        <ele>55.5</ele>
        <time>2022-05-11T13:05:45Z</time>
      </trkpt>
      <trkpt lat="49.74345" lon="2.15656">
        <ele>55.6</ele>
        <time>2022-05-11T13:05:47Z</time>
      </trkpt>
      <trkpt lat="49.74345" lon="2.15658">
        <ele>55.7</ele>
        <time>2022-05-11T13:05:48Z</time>
      </trkpt>
      <trkpt lat="49.74345" lon="2.1566">
        <ele>55.7</ele>
        <time>2022-05-11T13:05:49Z</time>
      </trkpt>
      <trkpt lat="49.74345" lon="2.15661">
        <ele>55.7</ele>
        <time>2022-05-11T13:05:50Z</time>
      </trkpt>
      <trkpt lat="49.74346" lon="2.15661">
        <ele>55.8</ele>
        <time>2022-05-11T13:05:51Z</time>
      </trkpt>
      <trkpt lat="49.74346" lon="2.15662">
        <ele>55.8</ele>
        <time>2022-05-11T13:05:52Z</time>
      </trkpt>
      <trkpt lat="49.74346" lon="2.15663">
        <ele>55.8</ele>
        <time>2022-05-11T13:05:53Z</time>
      </trkpt>
      <trkpt lat="49.74346" lon="2.15664">
        <ele>55.9</ele>
        <time>2022-05-11T13:05:54Z</time>
      </trkpt>
      <trkpt lat="49.74346" lon="2.15666">
        <ele>55.9</ele>
        <time>2022-05-11T13:05:56Z</time>
      </trkpt>
      <trkpt lat="49.74346" lon="2.15668">
        <ele>56</ele>
        <time>2022-05-11T13:05:57Z</time>
      </trkpt>
      <trkpt lat="49.74345" lon="2.15671">
        <ele>56</ele>
        <time>2022-05-11T13:05:58Z</time>
      </trkpt>
      <trkpt lat="49.74345" lon="2.15672">
        <ele>56.1</ele>
        <time>2022-05-11T13:05:59Z</time>
      </trkpt>
      <trkpt lat="49.74345" lon="2.15674">
        <ele>56.1</ele>
        <time>2022-05-11T13:06:00Z</time>
      </trkpt>
      <trkpt lat="49.74344" lon="2.15677">
        <ele>56.2</ele>
        <time>2022-05-11T13:06:02Z</time>
      </trkpt>
      <trkpt lat="49.74344" lon="2.15678">
        <ele>56.2</ele>
        <time>2022-05-11T13:06:03Z</time>
      </trkpt>
      <trkpt lat="49.74344" lon="2.15679">
        <ele>56.3</ele>
        <time>2022-05-11T13:06:04Z</time>
      </trkpt>
      <trkpt lat="49.74344" lon="2.15681">
        <ele>56.3</ele>
        <time>2022-05-11T13:06:05Z</time>
      </trkpt>
      <trkpt lat="49.74344" lon="2.15682">
        <ele>56.3</ele>
        <time>2022-05-11T13:06:06Z</time>
      </trkpt>
      <trkpt lat="49.74344" lon="2.15685">
        <ele>56.4</ele>
        <time>2022-05-11T13:06:08Z</time>
      </trkpt>
      <trkpt lat="49.74344" lon="2.15686">
        <ele>56.5</ele>
        <time>2022-05-11T13:06:09Z</time>
      </trkpt>
      <trkpt lat="49.74344" lon="2.15688">
        <ele>56.5</ele>
        <time>2022-05-11T13:06:10Z</time>
      </trkpt>
      <trkpt lat="49.74345" lon="2.15689">
        <ele>56.5</ele>
        <time>2022-05-11T13:06:11Z</time>
      </trkpt>
      <trkpt lat="49.74345" lon="2.15691">
        <ele>56.6</ele>
        <time>2022-05-11T13:06:12Z</time>
      </trkpt>
      <trkpt lat="49.74345" lon="2.15694">
        <ele>56.7</ele>
        <time>2022-05-11T13:06:13Z</time>
      </trkpt>
      <trkpt lat="49.74345" lon="2.15694">
        <ele>56.7</ele>
        <time>2022-05-11T13:06:14Z</time>
      </trkpt>
      <trkpt lat="49.74345" lon="2.15695">
        <ele>56.7</ele>
        <time>2022-05-11T13:06:16Z</time>
      </trkpt>
      <trkpt lat="49.74346" lon="2.15697">
        <ele>56.8</ele>
        <time>2022-05-11T13:06:17Z</time>
      </trkpt>
      <trkpt lat="49.74346" lon="2.15699">
        <ele>56.8</ele>
        <time>2022-05-11T13:06:18Z</time>
      </trkpt>
      <trkpt lat="49.74346" lon="2.15702">
        <ele>56.9</ele>
        <time>2022-05-11T13:06:20Z</time>
      </trkpt>
      <trkpt lat="49.74346" lon="2.15704">
        <ele>57</ele>
        <time>2022-05-11T13:06:21Z</time>
      </trkpt>
      <trkpt lat="49.74347" lon="2.15707">
        <ele>57.1</ele>
        <time>2022-05-11T13:06:22Z</time>
      </trkpt>
      <trkpt lat="49.74347" lon="2.15708">
        <ele>57.1</ele>
        <time>2022-05-11T13:06:23Z</time>
      </trkpt>
      <trkpt lat="49.74347" lon="2.15709">
        <ele>57.1</ele>
        <time>2022-05-11T13:06:24Z</time>
      </trkpt>
      <trkpt lat="49.74348" lon="2.15712">
        <ele>57.2</ele>
        <time>2022-05-11T13:06:25Z</time>
      </trkpt>
      <trkpt lat="49.74348" lon="2.15714">
        <ele>57.2</ele>
        <time>2022-05-11T13:06:26Z</time>
      </trkpt>
      <trkpt lat="49.74349" lon="2.15715">
        <ele>57.3</ele>
        <time>2022-05-11T13:06:28Z</time>
      </trkpt>
      <trkpt lat="49.74349" lon="2.15717">
        <ele>57.3</ele>
        <time>2022-05-11T13:06:29Z</time>
      </trkpt>
      <trkpt lat="49.74349" lon="2.15718">
        <ele>57.4</ele>
        <time>2022-05-11T13:06:30Z</time>
      </trkpt>
      <trkpt lat="49.74349" lon="2.1572">
        <ele>57.4</ele>
        <time>2022-05-11T13:06:31Z</time>
      </trkpt>
      <trkpt lat="49.7435" lon="2.15722">
        <ele>57.5</ele>
        <time>2022-05-11T13:06:33Z</time>
      </trkpt>
      <trkpt lat="49.7435" lon="2.15725">
        <ele>57.5</ele>
        <time>2022-05-11T13:06:34Z</time>
      </trkpt>
      <trkpt lat="49.7435" lon="2.15727">
        <ele>57.6</ele>
        <time>2022-05-11T13:06:35Z</time>
      </trkpt>
      <trkpt lat="49.74351" lon="2.15733">
        <ele>57.7</ele>
        <time>2022-05-11T13:06:37Z</time>
      </trkpt>
      <trkpt lat="49.74351" lon="2.15733">
        <ele>57.7</ele>
        <time>2022-05-11T13:06:38Z</time>
      </trkpt>
      <trkpt lat="49.74351" lon="2.15734">
        <ele>57.8</ele>
        <time>2022-05-11T13:06:39Z</time>
      </trkpt>
      <trkpt lat="49.74351" lon="2.15736">
        <ele>57.8</ele>
        <time>2022-05-11T13:06:40Z</time>
      </trkpt>
      <trkpt lat="49.74351" lon="2.15738">
        <ele>57.8</ele>
        <time>2022-05-11T13:06:41Z</time>
      </trkpt>
      <trkpt lat="49.74351" lon="2.15741">
        <ele>57.9</ele>
        <time>2022-05-11T13:06:42Z</time>
      </trkpt>
      <trkpt lat="49.74352" lon="2.15743">
        <ele>58</ele>
        <time>2022-05-11T13:06:43Z</time>
      </trkpt>
      <trkpt lat="49.74352" lon="2.15745">
        <ele>58</ele>
        <time>2022-05-11T13:06:45Z</time>
      </trkpt>
      <trkpt lat="49.74352" lon="2.15747">
        <ele>58.1</ele>
        <time>2022-05-11T13:06:46Z</time>
      </trkpt>
      <trkpt lat="49.74353" lon="2.15749">
        <ele>58.1</ele>
        <time>2022-05-11T13:06:47Z</time>
      </trkpt>
      <trkpt lat="49.74353" lon="2.1575">
        <ele>58.1</ele>
        <time>2022-05-11T13:06:48Z</time>
      </trkpt>
      <trkpt lat="49.74354" lon="2.15752">
        <ele>58.2</ele>
        <time>2022-05-11T13:06:50Z</time>
      </trkpt>
      <trkpt lat="49.74355" lon="2.15754">
        <ele>58.2</ele>
        <time>2022-05-11T13:06:51Z</time>
      </trkpt>
      <trkpt lat="49.74355" lon="2.15757">
        <ele>58.3</ele>
        <time>2022-05-11T13:06:53Z</time>
      </trkpt>
      <trkpt lat="49.74356" lon="2.15758">
        <ele>58.3</ele>
        <time>2022-05-11T13:06:54Z</time>
      </trkpt>
      <trkpt lat="49.74356" lon="2.1576">
        <ele>58.3</ele>
        <time>2022-05-11T13:06:55Z</time>
      </trkpt>
      <trkpt lat="49.74356" lon="2.15762">
        <ele>58.4</ele>
        <time>2022-05-11T13:06:56Z</time>
      </trkpt>
      <trkpt lat="49.74357" lon="2.15763">
        <ele>58.4</ele>
        <time>2022-05-11T13:06:57Z</time>
      </trkpt>
      <trkpt lat="49.74357" lon="2.15764">
        <ele>58.4</ele>
        <time>2022-05-11T13:06:58Z</time>
      </trkpt>
      <trkpt lat="49.74358" lon="2.15765">
        <ele>58.5</ele>
        <time>2022-05-11T13:06:59Z</time>
      </trkpt>
      <trkpt lat="49.74359" lon="2.15767">
        <ele>58.5</ele>
        <time>2022-05-11T13:07:00Z</time>
      </trkpt>
      <trkpt lat="49.74359" lon="2.15769">
        <ele>58.5</ele>
        <time>2022-05-11T13:07:02Z</time>
      </trkpt>
      <trkpt lat="49.7436" lon="2.15771">
        <ele>58.6</ele>
        <time>2022-05-11T13:07:03Z</time>
      </trkpt>
      <trkpt lat="49.7436" lon="2.15772">
        <ele>58.6</ele>
        <time>2022-05-11T13:07:04Z</time>
      </trkpt>
      <trkpt lat="49.7436" lon="2.15774">
        <ele>58.6</ele>
        <time>2022-05-11T13:07:06Z</time>
      </trkpt>
      <trkpt lat="49.74361" lon="2.15775">
        <ele>58.7</ele>
        <time>2022-05-11T13:07:07Z</time>
      </trkpt>
      <trkpt lat="49.74361" lon="2.15777">
        <ele>58.7</ele>
        <time>2022-05-11T13:07:08Z</time>
      </trkpt>
      <trkpt lat="49.74361" lon="2.15779">
        <ele>58.7</ele>
        <time>2022-05-11T13:07:09Z</time>
      </trkpt>
      <trkpt lat="49.74363" lon="2.15782">
        <ele>58.8</ele>
        <time>2022-05-11T13:07:10Z</time>
      </trkpt>
      <trkpt lat="49.74365" lon="2.15786">
        <ele>59</ele>
        <time>2022-05-11T13:07:12Z</time>
      </trkpt>
      <trkpt lat="49.74366" lon="2.15788">
        <ele>59</ele>
        <time>2022-05-11T13:07:13Z</time>
      </trkpt>
      <trkpt lat="49.74367" lon="2.1579">
        <ele>59.1</ele>
        <time>2022-05-11T13:07:14Z</time>
      </trkpt>
      <trkpt lat="49.74367" lon="2.15792">
        <ele>59.2</ele>
        <time>2022-05-11T13:07:15Z</time>
      </trkpt>
      <trkpt lat="49.74367" lon="2.15793">
        <ele>59.2</ele>
        <time>2022-05-11T13:07:16Z</time>
      </trkpt>
      <trkpt lat="49.74367" lon="2.15795">
        <ele>59.2</ele>
        <time>2022-05-11T13:07:17Z</time>
      </trkpt>
      <trkpt lat="49.74368" lon="2.15796">
        <ele>59.2</ele>
        <time>2022-05-11T13:07:18Z</time>
      </trkpt>
      <trkpt lat="49.74368" lon="2.15797">
        <ele>59.2</ele>
        <time>2022-05-11T13:07:19Z</time>
      </trkpt>
      <trkpt lat="49.74368" lon="2.15798">
        <ele>59.2</ele>
        <time>2022-05-11T13:07:20Z</time>
      </trkpt>
      <trkpt lat="49.74369" lon="2.15798">
        <ele>59.2</ele>
        <time>2022-05-11T13:07:21Z</time>
      </trkpt>
      <trkpt lat="49.74366" lon="2.15797">
        <ele>59.2</ele>
        <time>2022-05-11T13:07:23Z</time>
      </trkpt>
      <trkpt lat="49.74362" lon="2.15796">
        <ele>59.2</ele>
        <time>2022-05-11T13:07:25Z</time>
      </trkpt>
      <trkpt lat="49.74361" lon="2.15796">
        <ele>59.2</ele>
        <time>2022-05-11T13:07:26Z</time>
      </trkpt>
      <trkpt lat="49.7436" lon="2.15795">
        <ele>59.2</ele>
        <time>2022-05-11T13:07:27Z</time>
      </trkpt>
      <trkpt lat="49.74359" lon="2.15795">
        <ele>59.1</ele>
        <time>2022-05-11T13:07:28Z</time>
      </trkpt>
      <trkpt lat="49.74359" lon="2.15795">
        <ele>59.1</ele>
        <time>2022-05-11T13:07:29Z</time>
      </trkpt>
      <trkpt lat="49.74359" lon="2.15794">
        <ele>59.1</ele>
        <time>2022-05-11T13:07:30Z</time>
      </trkpt>
      <trkpt lat="49.74359" lon="2.15794">
        <ele>59.1</ele>
        <time>2022-05-11T13:07:31Z</time>
      </trkpt>
      <trkpt lat="49.74359" lon="2.15794">
        <ele>59.1</ele>
        <time>2022-05-11T13:07:32Z</time>
      </trkpt>
      <trkpt lat="49.74359" lon="2.15795">
        <ele>59.1</ele>
        <time>2022-05-11T13:07:33Z</time>
      </trkpt>
      <trkpt lat="49.74359" lon="2.15795">
        <ele>59.1</ele>
        <time>2022-05-11T13:07:34Z</time>
      </trkpt>
      <trkpt lat="49.7436" lon="2.15795">
        <ele>59.1</ele>
        <time>2022-05-11T13:07:35Z</time>
      </trkpt>
      <trkpt lat="49.7436" lon="2.15796">
        <ele>59.1</ele>
        <time>2022-05-11T13:07:36Z</time>
      </trkpt>
      <trkpt lat="49.7436" lon="2.15796">
        <ele>59.1</ele>
        <time>2022-05-11T13:07:37Z</time>
      </trkpt>
      <trkpt lat="49.7436" lon="2.15797">
        <ele>59.1</ele>
        <time>2022-05-11T13:07:38Z</time>
      </trkpt>
      <trkpt lat="49.7436" lon="2.15797">
        <ele>59.1</ele>
        <time>2022-05-11T13:07:39Z</time>
      </trkpt>
      <trkpt lat="49.74361" lon="2.15797">
        <ele>59.1</ele>
        <time>2022-05-11T13:07:40Z</time>
      </trkpt>
      <trkpt lat="49.74362" lon="2.15799">
        <ele>59.1</ele>
        <time>2022-05-11T13:07:42Z</time>
      </trkpt>
      <trkpt lat="49.74362" lon="2.158">
        <ele>59.1</ele>
        <time>2022-05-11T13:07:43Z</time>
      </trkpt>
      <trkpt lat="49.74361" lon="2.15801">
        <ele>59.1</ele>
        <time>2022-05-11T13:07:44Z</time>
      </trkpt>
      <trkpt lat="49.74361" lon="2.15801">
        <ele>59.1</ele>
        <time>2022-05-11T13:07:45Z</time>
      </trkpt>
      <trkpt lat="49.74361" lon="2.15801">
        <ele>59.1</ele>
        <time>2022-05-11T13:07:46Z</time>
      </trkpt>
      <trkpt lat="49.74361" lon="2.15801">
        <ele>59.1</ele>
        <time>2022-05-11T13:07:47Z</time>
      </trkpt>
      <trkpt lat="49.74361" lon="2.15801">
        <ele>59.1</ele>
        <time>2022-05-11T13:07:49Z</time>
      </trkpt>
      <trkpt lat="49.74361" lon="2.15801">
        <ele>59.1</ele>
        <time>2022-05-11T13:07:50Z</time>
      </trkpt>
      <trkpt lat="49.74361" lon="2.15801">
        <ele>59.1</ele>
        <time>2022-05-11T13:07:51Z</time>
      </trkpt>
      <trkpt lat="49.74361" lon="2.15802">
        <ele>59.1</ele>
        <time>2022-05-11T13:07:52Z</time>
      </trkpt>
      <trkpt lat="49.74361" lon="2.15803">
        <ele>59.1</ele>
        <time>2022-05-11T13:07:54Z</time>
      </trkpt>
      <trkpt lat="49.74361" lon="2.15804">
        <ele>59.1</ele>
        <time>2022-05-11T13:07:55Z</time>
      </trkpt>
      <trkpt lat="49.7436" lon="2.15805">
        <ele>59.1</ele>
        <time>2022-05-11T13:07:56Z</time>
      </trkpt>
      <trkpt lat="49.7436" lon="2.15806">
        <ele>59.1</ele>
        <time>2022-05-11T13:07:57Z</time>
      </trkpt>
      <trkpt lat="49.74359" lon="2.15807">
        <ele>59.1</ele>
        <time>2022-05-11T13:07:58Z</time>
      </trkpt>
      <trkpt lat="49.74358" lon="2.15807">
        <ele>59.1</ele>
        <time>2022-05-11T13:07:59Z</time>
      </trkpt>
      <trkpt lat="49.74357" lon="2.15807">
        <ele>59.1</ele>
        <time>2022-05-11T13:08:00Z</time>
      </trkpt>
      <trkpt lat="49.74356" lon="2.15807">
        <ele>59.1</ele>
        <time>2022-05-11T13:08:01Z</time>
      </trkpt>
      <trkpt lat="49.74355" lon="2.15807">
        <ele>59.1</ele>
        <time>2022-05-11T13:08:02Z</time>
      </trkpt>
      <trkpt lat="49.74353" lon="2.15807">
        <ele>59.1</ele>
        <time>2022-05-11T13:08:03Z</time>
      </trkpt>
      <trkpt lat="49.74352" lon="2.15807">
        <ele>59.1</ele>
        <time>2022-05-11T13:08:04Z</time>
      </trkpt>
      <trkpt lat="49.74351" lon="2.15805">
        <ele>59.1</ele>
        <time>2022-05-11T13:08:06Z</time>
      </trkpt>
      <trkpt lat="49.74349" lon="2.15805">
        <ele>59.1</ele>
        <time>2022-05-11T13:08:07Z</time>
      </trkpt>
      <trkpt lat="49.74347" lon="2.15805">
        <ele>59</ele>
        <time>2022-05-11T13:08:08Z</time>
      </trkpt>
      <trkpt lat="49.74346" lon="2.15805">
        <ele>59</ele>
        <time>2022-05-11T13:08:09Z</time>
      </trkpt>
      <trkpt lat="49.74346" lon="2.15804">
        <ele>59</ele>
        <time>2022-05-11T13:08:10Z</time>
      </trkpt>
      <trkpt lat="49.74344" lon="2.15804">
        <ele>59</ele>
        <time>2022-05-11T13:08:11Z</time>
      </trkpt>
      <trkpt lat="49.74343" lon="2.15804">
        <ele>59</ele>
        <time>2022-05-11T13:08:12Z</time>
      </trkpt>
      <trkpt lat="49.74342" lon="2.15803">
        <ele>59</ele>
        <time>2022-05-11T13:08:13Z</time>
      </trkpt>
      <trkpt lat="49.74341" lon="2.15803">
        <ele>59</ele>
        <time>2022-05-11T13:08:14Z</time>
      </trkpt>
      <trkpt lat="49.7434" lon="2.15803">
        <ele>59</ele>
        <time>2022-05-11T13:08:15Z</time>
      </trkpt>
      <trkpt lat="49.74339" lon="2.15804">
        <ele>59</ele>
        <time>2022-05-11T13:08:16Z</time>
      </trkpt>
      <trkpt lat="49.74337" lon="2.15805">
        <ele>59</ele>
        <time>2022-05-11T13:08:17Z</time>
      </trkpt>
      <trkpt lat="49.74336" lon="2.15805">
        <ele>59</ele>
        <time>2022-05-11T13:08:18Z</time>
      </trkpt>
      <trkpt lat="49.74335" lon="2.15806">
        <ele>59</ele>
        <time>2022-05-11T13:08:19Z</time>
      </trkpt>
      <trkpt lat="49.74334" lon="2.15808">
        <ele>59</ele>
        <time>2022-05-11T13:08:20Z</time>
      </trkpt>
      <trkpt lat="49.74334" lon="2.1581">
        <ele>59.1</ele>
        <time>2022-05-11T13:08:21Z</time>
      </trkpt>
      <trkpt lat="49.74334" lon="2.15813">
        <ele>59.2</ele>
        <time>2022-05-11T13:08:23Z</time>
      </trkpt>
      <trkpt lat="49.74335" lon="2.15814">
        <ele>59.2</ele>
        <time>2022-05-11T13:08:24Z</time>
      </trkpt>
      <trkpt lat="49.74336" lon="2.15816">
        <ele>59.2</ele>
        <time>2022-05-11T13:08:25Z</time>
      </trkpt>
      <trkpt lat="49.74337" lon="2.15817">
        <ele>59.3</ele>
        <time>2022-05-11T13:08:26Z</time>
      </trkpt>
      <trkpt lat="49.74338" lon="2.15819">
        <ele>59.3</ele>
        <time>2022-05-11T13:08:27Z</time>
      </trkpt>
      <trkpt lat="49.74339" lon="2.15821">
        <ele>59.3</ele>
        <time>2022-05-11T13:08:29Z</time>
      </trkpt>
      <trkpt lat="49.7434" lon="2.15822">
        <ele>59.4</ele>
        <time>2022-05-11T13:08:30Z</time>
      </trkpt>
      <trkpt lat="49.74342" lon="2.15824">
        <ele>59.4</ele>
        <time>2022-05-11T13:08:31Z</time>
      </trkpt>
      <trkpt lat="49.74343" lon="2.15825">
        <ele>59.4</ele>
        <time>2022-05-11T13:08:33Z</time>
      </trkpt>
      <trkpt lat="49.74344" lon="2.15827">
        <ele>59.5</ele>
        <time>2022-05-11T13:08:34Z</time>
      </trkpt>
      <trkpt lat="49.74346" lon="2.15829">
        <ele>59.5</ele>
        <time>2022-05-11T13:08:36Z</time>
      </trkpt>
      <trkpt lat="49.74347" lon="2.1583">
        <ele>59.6</ele>
        <time>2022-05-11T13:08:37Z</time>
      </trkpt>
      <trkpt lat="49.74349" lon="2.15832">
        <ele>59.6</ele>
        <time>2022-05-11T13:08:39Z</time>
      </trkpt>
      <trkpt lat="49.74351" lon="2.15835">
        <ele>59.7</ele>
        <time>2022-05-11T13:08:40Z</time>
      </trkpt>
      <trkpt lat="49.74352" lon="2.15836">
        <ele>59.8</ele>
        <time>2022-05-11T13:08:41Z</time>
      </trkpt>
      <trkpt lat="49.74354" lon="2.1584">
        <ele>59.9</ele>
        <time>2022-05-11T13:08:42Z</time>
      </trkpt>
      <trkpt lat="49.74355" lon="2.15841">
        <ele>59.9</ele>
        <time>2022-05-11T13:08:43Z</time>
      </trkpt>
      <trkpt lat="49.74357" lon="2.15845">
        <ele>60</ele>
        <time>2022-05-11T13:08:45Z</time>
      </trkpt>
      <trkpt lat="49.74357" lon="2.15846">
        <ele>60</ele>
        <time>2022-05-11T13:08:46Z</time>
      </trkpt>
      <trkpt lat="49.74359" lon="2.15848">
        <ele>60.1</ele>
        <time>2022-05-11T13:08:48Z</time>
      </trkpt>
      <trkpt lat="49.7436" lon="2.15849">
        <ele>60.2</ele>
        <time>2022-05-11T13:08:49Z</time>
      </trkpt>
      <trkpt lat="49.74362" lon="2.15851">
        <ele>60.2</ele>
        <time>2022-05-11T13:08:50Z</time>
      </trkpt>
      <trkpt lat="49.74362" lon="2.15852">
        <ele>60.3</ele>
        <time>2022-05-11T13:08:51Z</time>
      </trkpt>
      <trkpt lat="49.74363" lon="2.15853">
        <ele>60.3</ele>
        <time>2022-05-11T13:08:52Z</time>
      </trkpt>
      <trkpt lat="49.74364" lon="2.15857">
        <ele>60.4</ele>
        <time>2022-05-11T13:08:54Z</time>
      </trkpt>
      <trkpt lat="49.74365" lon="2.15858">
        <ele>60.4</ele>
        <time>2022-05-11T13:08:55Z</time>
      </trkpt>
      <trkpt lat="49.74365" lon="2.15859">
        <ele>60.5</ele>
        <time>2022-05-11T13:08:56Z</time>
      </trkpt>
      <trkpt lat="49.74366" lon="2.15861">
        <ele>60.5</ele>
        <time>2022-05-11T13:08:57Z</time>
      </trkpt>
      <trkpt lat="49.74366" lon="2.15863">
        <ele>60.6</ele>
        <time>2022-05-11T13:08:58Z</time>
      </trkpt>
      <trkpt lat="49.74367" lon="2.15865">
        <ele>60.6</ele>
        <time>2022-05-11T13:08:59Z</time>
      </trkpt>
      <trkpt lat="49.74368" lon="2.15867">
        <ele>60.7</ele>
        <time>2022-05-11T13:09:00Z</time>
      </trkpt>
      <trkpt lat="49.74369" lon="2.15869">
        <ele>60.8</ele>
        <time>2022-05-11T13:09:01Z</time>
      </trkpt>
      <trkpt lat="49.7437" lon="2.15871">
        <ele>60.9</ele>
        <time>2022-05-11T13:09:03Z</time>
      </trkpt>
      <trkpt lat="49.74371" lon="2.15873">
        <ele>60.9</ele>
        <time>2022-05-11T13:09:04Z</time>
      </trkpt>
      <trkpt lat="49.74371" lon="2.15874">
        <ele>61</ele>
        <time>2022-05-11T13:09:05Z</time>
      </trkpt>
      <trkpt lat="49.74372" lon="2.15876">
        <ele>61</ele>
        <time>2022-05-11T13:09:06Z</time>
      </trkpt>
      <trkpt lat="49.74372" lon="2.15878">
        <ele>61.1</ele>
        <time>2022-05-11T13:09:07Z</time>
      </trkpt>
      <trkpt lat="49.74373" lon="2.1588">
        <ele>61.2</ele>
        <time>2022-05-11T13:09:08Z</time>
      </trkpt>
      <trkpt lat="49.74374" lon="2.15882">
        <ele>61.2</ele>
        <time>2022-05-11T13:09:10Z</time>
      </trkpt>
      <trkpt lat="49.74375" lon="2.15884">
        <ele>61.3</ele>
        <time>2022-05-11T13:09:11Z</time>
      </trkpt>
      <trkpt lat="49.74375" lon="2.15885">
        <ele>61.3</ele>
        <time>2022-05-11T13:09:12Z</time>
      </trkpt>
      <trkpt lat="49.74376" lon="2.15885">
        <ele>61.4</ele>
        <time>2022-05-11T13:09:13Z</time>
      </trkpt>
      <trkpt lat="49.74376" lon="2.15885">
        <ele>61.4</ele>
        <time>2022-05-11T13:09:14Z</time>
      </trkpt>
      <trkpt lat="49.74377" lon="2.15886">
        <ele>61.4</ele>
        <time>2022-05-11T13:09:16Z</time>
      </trkpt>
      <trkpt lat="49.74377" lon="2.15887">
        <ele>61.5</ele>
        <time>2022-05-11T13:09:17Z</time>
      </trkpt>
      <trkpt lat="49.74378" lon="2.15887">
        <ele>61.5</ele>
        <time>2022-05-11T13:09:18Z</time>
      </trkpt>
      <trkpt lat="49.74378" lon="2.15888">
        <ele>61.6</ele>
        <time>2022-05-11T13:09:19Z</time>
      </trkpt>
      <trkpt lat="49.74379" lon="2.15889">
        <ele>61.6</ele>
        <time>2022-05-11T13:09:20Z</time>
      </trkpt>
      <trkpt lat="49.7438" lon="2.15891">
        <ele>61.7</ele>
        <time>2022-05-11T13:09:22Z</time>
      </trkpt>
      <trkpt lat="49.7438" lon="2.15892">
        <ele>61.7</ele>
        <time>2022-05-11T13:09:23Z</time>
      </trkpt>
      <trkpt lat="49.74382" lon="2.15894">
        <ele>61.8</ele>
        <time>2022-05-11T13:09:24Z</time>
      </trkpt>
      <trkpt lat="49.74382" lon="2.15894">
        <ele>61.8</ele>
        <time>2022-05-11T13:09:25Z</time>
      </trkpt>
      <trkpt lat="49.74383" lon="2.15895">
        <ele>61.9</ele>
        <time>2022-05-11T13:09:26Z</time>
      </trkpt>
      <trkpt lat="49.74384" lon="2.15896">
        <ele>61.9</ele>
        <time>2022-05-11T13:09:27Z</time>
      </trkpt>
      <trkpt lat="49.74384" lon="2.15898">
        <ele>62</ele>
        <time>2022-05-11T13:09:28Z</time>
      </trkpt>
      <trkpt lat="49.74385" lon="2.159">
        <ele>62.1</ele>
        <time>2022-05-11T13:09:30Z</time>
      </trkpt>
      <trkpt lat="49.74385" lon="2.15901">
        <ele>62.1</ele>
        <time>2022-05-11T13:09:31Z</time>
      </trkpt>
      <trkpt lat="49.74386" lon="2.15902">
        <ele>62.2</ele>
        <time>2022-05-11T13:09:32Z</time>
      </trkpt>
      <trkpt lat="49.74386" lon="2.15902">
        <ele>62.2</ele>
        <time>2022-05-11T13:09:33Z</time>
      </trkpt>
      <trkpt lat="49.74387" lon="2.15903">
        <ele>62.3</ele>
        <time>2022-05-11T13:09:34Z</time>
      </trkpt>
      <trkpt lat="49.74388" lon="2.15905">
        <ele>62.3</ele>
        <time>2022-05-11T13:09:35Z</time>
      </trkpt>
      <trkpt lat="49.74388" lon="2.15907">
        <ele>62.4</ele>
        <time>2022-05-11T13:09:37Z</time>
      </trkpt>
      <trkpt lat="49.7439" lon="2.15909">
        <ele>62.6</ele>
        <time>2022-05-11T13:09:38Z</time>
      </trkpt>
      <trkpt lat="49.7439" lon="2.1591">
        <ele>62.6</ele>
        <time>2022-05-11T13:09:39Z</time>
      </trkpt>
      <trkpt lat="49.74391" lon="2.15912">
        <ele>62.7</ele>
        <time>2022-05-11T13:09:40Z</time>
      </trkpt>
      <trkpt lat="49.74391" lon="2.15913">
        <ele>62.8</ele>
        <time>2022-05-11T13:09:42Z</time>
      </trkpt>
      <trkpt lat="49.74392" lon="2.15915">
        <ele>62.8</ele>
        <time>2022-05-11T13:09:43Z</time>
      </trkpt>
      <trkpt lat="49.74392" lon="2.15916">
        <ele>62.9</ele>
        <time>2022-05-11T13:09:44Z</time>
      </trkpt>
      <trkpt lat="49.74393" lon="2.15917">
        <ele>63</ele>
        <time>2022-05-11T13:09:45Z</time>
      </trkpt>
      <trkpt lat="49.74393" lon="2.15919">
        <ele>63</ele>
        <time>2022-05-11T13:09:46Z</time>
      </trkpt>
      <trkpt lat="49.74394" lon="2.15922">
        <ele>63.1</ele>
        <time>2022-05-11T13:09:47Z</time>
      </trkpt>
      <trkpt lat="49.74394" lon="2.15923">
        <ele>63.2</ele>
        <time>2022-05-11T13:09:49Z</time>
      </trkpt>
      <trkpt lat="49.74394" lon="2.15925">
        <ele>63.3</ele>
        <time>2022-05-11T13:09:50Z</time>
      </trkpt>
      <trkpt lat="49.74395" lon="2.15926">
        <ele>63.3</ele>
        <time>2022-05-11T13:09:51Z</time>
      </trkpt>
      <trkpt lat="49.74395" lon="2.15929">
        <ele>63.5</ele>
        <time>2022-05-11T13:09:53Z</time>
      </trkpt>
      <trkpt lat="49.74395" lon="2.15931">
        <ele>63.5</ele>
        <time>2022-05-11T13:09:54Z</time>
      </trkpt>
      <trkpt lat="49.74395" lon="2.15932">
        <ele>63.6</ele>
        <time>2022-05-11T13:09:55Z</time>
      </trkpt>
      <trkpt lat="49.74396" lon="2.15933">
        <ele>63.6</ele>
        <time>2022-05-11T13:09:56Z</time>
      </trkpt>
      <trkpt lat="49.74396" lon="2.15934">
        <ele>63.7</ele>
        <time>2022-05-11T13:09:57Z</time>
      </trkpt>
      <trkpt lat="49.74397" lon="2.15935">
        <ele>63.8</ele>
        <time>2022-05-11T13:09:59Z</time>
      </trkpt>
      <trkpt lat="49.74398" lon="2.15934">
        <ele>63.8</ele>
        <time>2022-05-11T13:10:00Z</time>
      </trkpt>
      <trkpt lat="49.74398" lon="2.15935">
        <ele>63.8</ele>
        <time>2022-05-11T13:10:01Z</time>
      </trkpt>
      <trkpt lat="49.74398" lon="2.15936">
        <ele>63.9</ele>
        <time>2022-05-11T13:10:02Z</time>
      </trkpt>
      <trkpt lat="49.74398" lon="2.15937">
        <ele>63.9</ele>
        <time>2022-05-11T13:10:03Z</time>
      </trkpt>
      <trkpt lat="49.74398" lon="2.15937">
        <ele>63.9</ele>
        <time>2022-05-11T13:10:04Z</time>
      </trkpt>
      <trkpt lat="49.74399" lon="2.15938">
        <ele>64</ele>
        <time>2022-05-11T13:10:05Z</time>
      </trkpt>
      <trkpt lat="49.74399" lon="2.15938">
        <ele>64</ele>
        <time>2022-05-11T13:10:06Z</time>
      </trkpt>
      <trkpt lat="49.74399" lon="2.15938">
        <ele>64</ele>
        <time>2022-05-11T13:10:08Z</time>
      </trkpt>
      <trkpt lat="49.74399" lon="2.15939">
        <ele>64.1</ele>
        <time>2022-05-11T13:10:09Z</time>
      </trkpt>
      <trkpt lat="49.744" lon="2.1594">
        <ele>64.1</ele>
        <time>2022-05-11T13:10:10Z</time>
      </trkpt>
      <trkpt lat="49.744" lon="2.15941">
        <ele>64.2</ele>
        <time>2022-05-11T13:10:11Z</time>
      </trkpt>
      <trkpt lat="49.744" lon="2.15942">
        <ele>64.2</ele>
        <time>2022-05-11T13:10:12Z</time>
      </trkpt>
      <trkpt lat="49.744" lon="2.15944">
        <ele>64.3</ele>
        <time>2022-05-11T13:10:13Z</time>
      </trkpt>
      <trkpt lat="49.74401" lon="2.15945">
        <ele>64.4</ele>
        <time>2022-05-11T13:10:14Z</time>
      </trkpt>
      <trkpt lat="49.74402" lon="2.15949">
        <ele>64.5</ele>
        <time>2022-05-11T13:10:15Z</time>
      </trkpt>
      <trkpt lat="49.74402" lon="2.15952">
        <ele>64.7</ele>
        <time>2022-05-11T13:10:16Z</time>
      </trkpt>
      <trkpt lat="49.74403" lon="2.15955">
        <ele>64.8</ele>
        <time>2022-05-11T13:10:17Z</time>
      </trkpt>
      <trkpt lat="49.74404" lon="2.1596">
        <ele>65</ele>
        <time>2022-05-11T13:10:18Z</time>
      </trkpt>
      <trkpt lat="49.74405" lon="2.15962">
        <ele>65.1</ele>
        <time>2022-05-11T13:10:19Z</time>
      </trkpt>
      <trkpt lat="49.74406" lon="2.15964">
        <ele>65.3</ele>
        <time>2022-05-11T13:10:21Z</time>
      </trkpt>
      <trkpt lat="49.74407" lon="2.15965">
        <ele>65.3</ele>
        <time>2022-05-11T13:10:22Z</time>
      </trkpt>
      <trkpt lat="49.74407" lon="2.15967">
        <ele>65.4</ele>
        <time>2022-05-11T13:10:23Z</time>
      </trkpt>
      <trkpt lat="49.74408" lon="2.15967">
        <ele>65.5</ele>
        <time>2022-05-11T13:10:24Z</time>
      </trkpt>
      <trkpt lat="49.74408" lon="2.15968">
        <ele>65.6</ele>
        <time>2022-05-11T13:10:25Z</time>
      </trkpt>
      <trkpt lat="49.74409" lon="2.15971">
        <ele>65.7</ele>
        <time>2022-05-11T13:10:26Z</time>
      </trkpt>
      <trkpt lat="49.74409" lon="2.15973">
        <ele>65.8</ele>
        <time>2022-05-11T13:10:28Z</time>
      </trkpt>
      <trkpt lat="49.74409" lon="2.15978">
        <ele>66</ele>
        <time>2022-05-11T13:10:29Z</time>
      </trkpt>
      <trkpt lat="49.7441" lon="2.15981">
        <ele>66.2</ele>
        <time>2022-05-11T13:10:30Z</time>
      </trkpt>
      <trkpt lat="49.7441" lon="2.15982">
        <ele>66.2</ele>
        <time>2022-05-11T13:10:31Z</time>
      </trkpt>
      <trkpt lat="49.7441" lon="2.15983">
        <ele>66.3</ele>
        <time>2022-05-11T13:10:32Z</time>
      </trkpt>
      <trkpt lat="49.74411" lon="2.15985">
        <ele>66.4</ele>
        <time>2022-05-11T13:10:34Z</time>
      </trkpt>
      <trkpt lat="49.74411" lon="2.15986">
        <ele>66.4</ele>
        <time>2022-05-11T13:10:35Z</time>
      </trkpt>
      <trkpt lat="49.74412" lon="2.15987">
        <ele>66.5</ele>
        <time>2022-05-11T13:10:36Z</time>
      </trkpt>
      <trkpt lat="49.74412" lon="2.15988">
        <ele>66.5</ele>
        <time>2022-05-11T13:10:37Z</time>
      </trkpt>
      <trkpt lat="49.74413" lon="2.15991">
        <ele>66.7</ele>
        <time>2022-05-11T13:10:38Z</time>
      </trkpt>
      <trkpt lat="49.74413" lon="2.15991">
        <ele>66.7</ele>
        <time>2022-05-11T13:10:40Z</time>
      </trkpt>
      <trkpt lat="49.74413" lon="2.15991">
        <ele>66.7</ele>
        <time>2022-05-11T13:10:41Z</time>
      </trkpt>
      <trkpt lat="49.74413" lon="2.15992">
        <ele>66.7</ele>
        <time>2022-05-11T13:10:42Z</time>
      </trkpt>
      <trkpt lat="49.74413" lon="2.15992">
        <ele>66.8</ele>
        <time>2022-05-11T13:10:43Z</time>
      </trkpt>
      <trkpt lat="49.74414" lon="2.15994">
        <ele>66.8</ele>
        <time>2022-05-11T13:10:44Z</time>
      </trkpt>
      <trkpt lat="49.74414" lon="2.15995">
        <ele>66.9</ele>
        <time>2022-05-11T13:10:45Z</time>
      </trkpt>
      <trkpt lat="49.74415" lon="2.15998">
        <ele>67.1</ele>
        <time>2022-05-11T13:10:47Z</time>
      </trkpt>
      <trkpt lat="49.74415" lon="2.16001">
        <ele>67.2</ele>
        <time>2022-05-11T13:10:48Z</time>
      </trkpt>
      <trkpt lat="49.74416" lon="2.16003">
        <ele>67.3</ele>
        <time>2022-05-11T13:10:49Z</time>
      </trkpt>
      <trkpt lat="49.74416" lon="2.16005">
        <ele>67.4</ele>
        <time>2022-05-11T13:10:50Z</time>
      </trkpt>
      <trkpt lat="49.74417" lon="2.16007">
        <ele>67.5</ele>
        <time>2022-05-11T13:10:52Z</time>
      </trkpt>
      <trkpt lat="49.74418" lon="2.16009">
        <ele>67.6</ele>
        <time>2022-05-11T13:10:53Z</time>
      </trkpt>
      <trkpt lat="49.74418" lon="2.16011">
        <ele>67.7</ele>
        <time>2022-05-11T13:10:54Z</time>
      </trkpt>
      <trkpt lat="49.74418" lon="2.16011">
        <ele>67.8</ele>
        <time>2022-05-11T13:10:55Z</time>
      </trkpt>
      <trkpt lat="49.74419" lon="2.16013">
        <ele>67.8</ele>
        <time>2022-05-11T13:10:56Z</time>
      </trkpt>
      <trkpt lat="49.74419" lon="2.16014">
        <ele>67.9</ele>
        <time>2022-05-11T13:10:57Z</time>
      </trkpt>
      <trkpt lat="49.7442" lon="2.16015">
        <ele>68</ele>
        <time>2022-05-11T13:10:59Z</time>
      </trkpt>
      <trkpt lat="49.7442" lon="2.16016">
        <ele>68</ele>
        <time>2022-05-11T13:11:00Z</time>
      </trkpt>
      <trkpt lat="49.7442" lon="2.16017">
        <ele>68.1</ele>
        <time>2022-05-11T13:11:01Z</time>
      </trkpt>
      <trkpt lat="49.74421" lon="2.16018">
        <ele>68.1</ele>
        <time>2022-05-11T13:11:02Z</time>
      </trkpt>
      <trkpt lat="49.74421" lon="2.16019">
        <ele>68.2</ele>
        <time>2022-05-11T13:11:03Z</time>
      </trkpt>
      <trkpt lat="49.74422" lon="2.1602">
        <ele>68.3</ele>
        <time>2022-05-11T13:11:04Z</time>
      </trkpt>
      <trkpt lat="49.74422" lon="2.16022">
        <ele>68.3</ele>
        <time>2022-05-11T13:11:05Z</time>
      </trkpt>
      <trkpt lat="49.74423" lon="2.16023">
        <ele>68.4</ele>
        <time>2022-05-11T13:11:06Z</time>
      </trkpt>
      <trkpt lat="49.74424" lon="2.16024">
        <ele>68.5</ele>
        <time>2022-05-11T13:11:07Z</time>
      </trkpt>
      <trkpt lat="49.74425" lon="2.16026">
        <ele>68.6</ele>
        <time>2022-05-11T13:11:09Z</time>
      </trkpt>
      <trkpt lat="49.74425" lon="2.16027">
        <ele>68.7</ele>
        <time>2022-05-11T13:11:10Z</time>
      </trkpt>
      <trkpt lat="49.74426" lon="2.16028">
        <ele>68.8</ele>
        <time>2022-05-11T13:11:11Z</time>
      </trkpt>
      <trkpt lat="49.74426" lon="2.16029">
        <ele>68.8</ele>
        <time>2022-05-11T13:11:12Z</time>
      </trkpt>
      <trkpt lat="49.74426" lon="2.1603">
        <ele>68.9</ele>
        <time>2022-05-11T13:11:13Z</time>
      </trkpt>
      <trkpt lat="49.74426" lon="2.16031">
        <ele>68.9</ele>
        <time>2022-05-11T13:11:14Z</time>
      </trkpt>
      <trkpt lat="49.74427" lon="2.16032">
        <ele>69</ele>
        <time>2022-05-11T13:11:15Z</time>
      </trkpt>
      <trkpt lat="49.74427" lon="2.16033">
        <ele>69</ele>
        <time>2022-05-11T13:11:16Z</time>
      </trkpt>
      <trkpt lat="49.74428" lon="2.16035">
        <ele>69.1</ele>
        <time>2022-05-11T13:11:17Z</time>
      </trkpt>
      <trkpt lat="49.74428" lon="2.16036">
        <ele>69.2</ele>
        <time>2022-05-11T13:11:19Z</time>
      </trkpt>
      <trkpt lat="49.7443" lon="2.16038">
        <ele>69.3</ele>
        <time>2022-05-11T13:11:20Z</time>
      </trkpt>
      <trkpt lat="49.74431" lon="2.16039">
        <ele>69.4</ele>
        <time>2022-05-11T13:11:21Z</time>
      </trkpt>
      <trkpt lat="49.74431" lon="2.1604">
        <ele>69.5</ele>
        <time>2022-05-11T13:11:22Z</time>
      </trkpt>
      <trkpt lat="49.74432" lon="2.16041">
        <ele>69.6</ele>
        <time>2022-05-11T13:11:23Z</time>
      </trkpt>
      <trkpt lat="49.74432" lon="2.16042">
        <ele>69.6</ele>
        <time>2022-05-11T13:11:24Z</time>
      </trkpt>
      <trkpt lat="49.74433" lon="2.16043">
        <ele>69.7</ele>
        <time>2022-05-11T13:11:25Z</time>
      </trkpt>
      <trkpt lat="49.74433" lon="2.16044">
        <ele>69.7</ele>
        <time>2022-05-11T13:11:26Z</time>
      </trkpt>
      <trkpt lat="49.74433" lon="2.16044">
        <ele>69.8</ele>
        <time>2022-05-11T13:11:27Z</time>
      </trkpt>
      <trkpt lat="49.74434" lon="2.16046">
        <ele>69.9</ele>
        <time>2022-05-11T13:11:28Z</time>
      </trkpt>
      <trkpt lat="49.74435" lon="2.1605">
        <ele>70.1</ele>
        <time>2022-05-11T13:11:29Z</time>
      </trkpt>
      <trkpt lat="49.74435" lon="2.16051">
        <ele>70.2</ele>
        <time>2022-05-11T13:11:31Z</time>
      </trkpt>
      <trkpt lat="49.74435" lon="2.16052">
        <ele>70.2</ele>
        <time>2022-05-11T13:11:32Z</time>
      </trkpt>
      <trkpt lat="49.74436" lon="2.16054">
        <ele>70.3</ele>
        <time>2022-05-11T13:11:33Z</time>
      </trkpt>
      <trkpt lat="49.74436" lon="2.16055">
        <ele>70.4</ele>
        <time>2022-05-11T13:11:34Z</time>
      </trkpt>
      <trkpt lat="49.74438" lon="2.16058">
        <ele>70.6</ele>
        <time>2022-05-11T13:11:35Z</time>
      </trkpt>
      <trkpt lat="49.74438" lon="2.1606">
        <ele>70.7</ele>
        <time>2022-05-11T13:11:37Z</time>
      </trkpt>
      <trkpt lat="49.74439" lon="2.16061">
        <ele>70.8</ele>
        <time>2022-05-11T13:11:38Z</time>
      </trkpt>
      <trkpt lat="49.74439" lon="2.16063">
        <ele>70.9</ele>
        <time>2022-05-11T13:11:39Z</time>
      </trkpt>
      <trkpt lat="49.7444" lon="2.16064">
        <ele>70.9</ele>
        <time>2022-05-11T13:11:40Z</time>
      </trkpt>
      <trkpt lat="49.74441" lon="2.16066">
        <ele>71.1</ele>
        <time>2022-05-11T13:11:41Z</time>
      </trkpt>
      <trkpt lat="49.74442" lon="2.16068">
        <ele>71.2</ele>
        <time>2022-05-11T13:11:42Z</time>
      </trkpt>
      <trkpt lat="49.74444" lon="2.16072">
        <ele>71.5</ele>
        <time>2022-05-11T13:11:44Z</time>
      </trkpt>
      <trkpt lat="49.74445" lon="2.16072">
        <ele>71.5</ele>
        <time>2022-05-11T13:11:45Z</time>
      </trkpt>
      <trkpt lat="49.74446" lon="2.16074">
        <ele>71.6</ele>
        <time>2022-05-11T13:11:46Z</time>
      </trkpt>
      <trkpt lat="49.74446" lon="2.16075">
        <ele>71.7</ele>
        <time>2022-05-11T13:11:47Z</time>
      </trkpt>
      <trkpt lat="49.74447" lon="2.16075">
        <ele>71.7</ele>
        <time>2022-05-11T13:11:48Z</time>
      </trkpt>
      <trkpt lat="49.74447" lon="2.16075">
        <ele>71.8</ele>
        <time>2022-05-11T13:11:49Z</time>
      </trkpt>
      <trkpt lat="49.74448" lon="2.16076">
        <ele>71.8</ele>
        <time>2022-05-11T13:11:50Z</time>
      </trkpt>
      <trkpt lat="49.74449" lon="2.16078">
        <ele>72</ele>
        <time>2022-05-11T13:11:51Z</time>
      </trkpt>
      <trkpt lat="49.7445" lon="2.1608">
        <ele>72.1</ele>
        <time>2022-05-11T13:11:52Z</time>
      </trkpt>
      <trkpt lat="49.74451" lon="2.16081">
        <ele>72.2</ele>
        <time>2022-05-11T13:11:54Z</time>
      </trkpt>
      <trkpt lat="49.74451" lon="2.16082">
        <ele>72.2</ele>
        <time>2022-05-11T13:11:55Z</time>
      </trkpt>
      <trkpt lat="49.74451" lon="2.16083">
        <ele>72.3</ele>
        <time>2022-05-11T13:11:56Z</time>
      </trkpt>
      <trkpt lat="49.74452" lon="2.16083">
        <ele>72.3</ele>
        <time>2022-05-11T13:11:57Z</time>
      </trkpt>
      <trkpt lat="49.74452" lon="2.16084">
        <ele>72.4</ele>
        <time>2022-05-11T13:11:58Z</time>
      </trkpt>
      <trkpt lat="49.74453" lon="2.16085">
        <ele>72.4</ele>
        <time>2022-05-11T13:11:59Z</time>
      </trkpt>
      <trkpt lat="49.74454" lon="2.16086">
        <ele>72.5</ele>
        <time>2022-05-11T13:12:00Z</time>
      </trkpt>
      <trkpt lat="49.74455" lon="2.16089">
        <ele>72.6</ele>
        <time>2022-05-11T13:12:01Z</time>
      </trkpt>
      <trkpt lat="49.74455" lon="2.16089">
        <ele>72.7</ele>
        <time>2022-05-11T13:12:02Z</time>
      </trkpt>
      <trkpt lat="49.74455" lon="2.1609">
        <ele>72.7</ele>
        <time>2022-05-11T13:12:03Z</time>
      </trkpt>
      <trkpt lat="49.74456" lon="2.16091">
        <ele>72.8</ele>
        <time>2022-05-11T13:12:04Z</time>
      </trkpt>
      <trkpt lat="49.74456" lon="2.16093">
        <ele>72.9</ele>
        <time>2022-05-11T13:12:06Z</time>
      </trkpt>
      <trkpt lat="49.74457" lon="2.16094">
        <ele>72.9</ele>
        <time>2022-05-11T13:12:07Z</time>
      </trkpt>
      <trkpt lat="49.74458" lon="2.16096">
        <ele>73.1</ele>
        <time>2022-05-11T13:12:08Z</time>
      </trkpt>
      <trkpt lat="49.74459" lon="2.16097">
        <ele>73.1</ele>
        <time>2022-05-11T13:12:10Z</time>
      </trkpt>
      <trkpt lat="49.74459" lon="2.16098">
        <ele>73.2</ele>
        <time>2022-05-11T13:12:11Z</time>
      </trkpt>
      <trkpt lat="49.7446" lon="2.16099">
        <ele>73.3</ele>
        <time>2022-05-11T13:12:12Z</time>
      </trkpt>
      <trkpt lat="49.7446" lon="2.161">
        <ele>73.3</ele>
        <time>2022-05-11T13:12:13Z</time>
      </trkpt>
      <trkpt lat="49.74461" lon="2.16101">
        <ele>73.4</ele>
        <time>2022-05-11T13:12:14Z</time>
      </trkpt>
      <trkpt lat="49.74462" lon="2.16103">
        <ele>73.5</ele>
        <time>2022-05-11T13:12:16Z</time>
      </trkpt>
      <trkpt lat="49.74463" lon="2.16104">
        <ele>73.6</ele>
        <time>2022-05-11T13:12:17Z</time>
      </trkpt>
      <trkpt lat="49.74463" lon="2.16106">
        <ele>73.6</ele>
        <time>2022-05-11T13:12:18Z</time>
      </trkpt>
      <trkpt lat="49.74464" lon="2.16107">
        <ele>73.7</ele>
        <time>2022-05-11T13:12:19Z</time>
      </trkpt>
      <trkpt lat="49.74465" lon="2.1611">
        <ele>73.9</ele>
        <time>2022-05-11T13:12:21Z</time>
      </trkpt>
      <trkpt lat="49.74466" lon="2.16112">
        <ele>74</ele>
        <time>2022-05-11T13:12:22Z</time>
      </trkpt>
      <trkpt lat="49.74466" lon="2.16114">
        <ele>74</ele>
        <time>2022-05-11T13:12:23Z</time>
      </trkpt>
      <trkpt lat="49.74468" lon="2.16117">
        <ele>74.2</ele>
        <time>2022-05-11T13:12:25Z</time>
      </trkpt>
      <trkpt lat="49.74469" lon="2.16118">
        <ele>74.3</ele>
        <time>2022-05-11T13:12:26Z</time>
      </trkpt>
      <trkpt lat="49.74469" lon="2.1612">
        <ele>74.4</ele>
        <time>2022-05-11T13:12:27Z</time>
      </trkpt>
      <trkpt lat="49.7447" lon="2.1612">
        <ele>74.4</ele>
        <time>2022-05-11T13:12:28Z</time>
      </trkpt>
      <trkpt lat="49.74471" lon="2.1612">
        <ele>74.4</ele>
        <time>2022-05-11T13:12:29Z</time>
      </trkpt>
      <trkpt lat="49.74471" lon="2.16122">
        <ele>74.5</ele>
        <time>2022-05-11T13:12:31Z</time>
      </trkpt>
      <trkpt lat="49.74472" lon="2.16123">
        <ele>74.6</ele>
        <time>2022-05-11T13:12:32Z</time>
      </trkpt>
      <trkpt lat="49.74472" lon="2.16125">
        <ele>74.7</ele>
        <time>2022-05-11T13:12:34Z</time>
      </trkpt>
      <trkpt lat="49.74473" lon="2.16125">
        <ele>74.7</ele>
        <time>2022-05-11T13:12:35Z</time>
      </trkpt>
      <trkpt lat="49.74473" lon="2.16125">
        <ele>74.7</ele>
        <time>2022-05-11T13:12:36Z</time>
      </trkpt>
      <trkpt lat="49.74473" lon="2.16126">
        <ele>74.7</ele>
        <time>2022-05-11T13:12:37Z</time>
      </trkpt>
      <trkpt lat="49.74473" lon="2.16126">
        <ele>74.7</ele>
        <time>2022-05-11T13:12:38Z</time>
      </trkpt>
      <trkpt lat="49.74473" lon="2.16126">
        <ele>74.7</ele>
        <time>2022-05-11T13:12:39Z</time>
      </trkpt>
      <trkpt lat="49.74473" lon="2.16125">
        <ele>74.7</ele>
        <time>2022-05-11T13:12:40Z</time>
      </trkpt>
      <trkpt lat="49.74473" lon="2.16125">
        <ele>74.7</ele>
        <time>2022-05-11T13:12:41Z</time>
      </trkpt>
      <trkpt lat="49.74473" lon="2.16126">
        <ele>74.8</ele>
        <time>2022-05-11T13:12:43Z</time>
      </trkpt>
      <trkpt lat="49.74473" lon="2.16126">
        <ele>74.8</ele>
        <time>2022-05-11T13:12:44Z</time>
      </trkpt>
      <trkpt lat="49.74473" lon="2.16127">
        <ele>74.8</ele>
        <time>2022-05-11T13:12:45Z</time>
      </trkpt>
      <trkpt lat="49.74473" lon="2.16127">
        <ele>74.8</ele>
        <time>2022-05-11T13:12:46Z</time>
      </trkpt>
      <trkpt lat="49.74473" lon="2.16127">
        <ele>74.8</ele>
        <time>2022-05-11T13:12:47Z</time>
      </trkpt>
      <trkpt lat="49.74473" lon="2.16128">
        <ele>74.8</ele>
        <time>2022-05-11T13:12:48Z</time>
      </trkpt>
      <trkpt lat="49.74473" lon="2.16128">
        <ele>74.9</ele>
        <time>2022-05-11T13:12:49Z</time>
      </trkpt>
      <trkpt lat="49.74473" lon="2.16128">
        <ele>74.9</ele>
        <time>2022-05-11T13:12:51Z</time>
      </trkpt>
      <trkpt lat="49.74473" lon="2.1613">
        <ele>76</ele>
        <time>2022-05-11T13:12:52Z</time>
      </trkpt>
      <trkpt lat="49.74472" lon="2.1613">
        <ele>76.1</ele>
        <time>2022-05-11T13:12:54Z</time>
      </trkpt>
      <trkpt lat="49.74472" lon="2.1613">
        <ele>76.2</ele>
        <time>2022-05-11T13:12:55Z</time>
      </trkpt>
      <trkpt lat="49.74471" lon="2.1613">
        <ele>76.3</ele>
        <time>2022-05-11T13:12:56Z</time>
      </trkpt>
      <trkpt lat="49.7447" lon="2.16129">
        <ele>76.4</ele>
        <time>2022-05-11T13:12:57Z</time>
      </trkpt>
      <trkpt lat="49.74469" lon="2.16129">
        <ele>76.5</ele>
        <time>2022-05-11T13:12:58Z</time>
      </trkpt>
      <trkpt lat="49.74469" lon="2.16128">
        <ele>76.5</ele>
        <time>2022-05-11T13:12:59Z</time>
      </trkpt>
      <trkpt lat="49.74468" lon="2.16127">
        <ele>76.6</ele>
        <time>2022-05-11T13:13:00Z</time>
      </trkpt>
      <trkpt lat="49.74468" lon="2.16127">
        <ele>76.6</ele>
        <time>2022-05-11T13:13:01Z</time>
      </trkpt>
      <trkpt lat="49.74468" lon="2.16127">
        <ele>76.6</ele>
        <time>2022-05-11T13:13:02Z</time>
      </trkpt>
      <trkpt lat="49.74468" lon="2.16127">
        <ele>76.6</ele>
        <time>2022-05-11T13:13:03Z</time>
      </trkpt>
      <trkpt lat="49.74468" lon="2.16127">
        <ele>76.7</ele>
        <time>2022-05-11T13:13:04Z</time>
      </trkpt>
      <trkpt lat="49.74468" lon="2.16127">
        <ele>76.7</ele>
        <time>2022-05-11T13:13:05Z</time>
      </trkpt>
      <trkpt lat="49.74468" lon="2.16126">
        <ele>76.7</ele>
        <time>2022-05-11T13:13:07Z</time>
      </trkpt>
      <trkpt lat="49.74468" lon="2.16126">
        <ele>76.7</ele>
        <time>2022-05-11T13:13:08Z</time>
      </trkpt>
      <trkpt lat="49.74468" lon="2.16126">
        <ele>76.7</ele>
        <time>2022-05-11T13:13:09Z</time>
      </trkpt>
      <trkpt lat="49.74468" lon="2.16126">
        <ele>76.7</ele>
        <time>2022-05-11T13:13:10Z</time>
      </trkpt>
      <trkpt lat="49.74468" lon="2.16126">
        <ele>76.7</ele>
        <time>2022-05-11T13:13:11Z</time>
      </trkpt>
      <trkpt lat="49.74468" lon="2.16126">
        <ele>76.7</ele>
        <time>2022-05-11T13:13:12Z</time>
      </trkpt>
      <trkpt lat="49.74468" lon="2.16126">
        <ele>76.7</ele>
        <time>2022-05-11T13:13:13Z</time>
      </trkpt>
      <trkpt lat="49.74468" lon="2.16125">
        <ele>76.7</ele>
        <time>2022-05-11T13:13:14Z</time>
      </trkpt>
      <trkpt lat="49.74468" lon="2.16125">
        <ele>76.7</ele>
        <time>2022-05-11T13:13:15Z</time>
      </trkpt>
      <trkpt lat="49.74468" lon="2.16125">
        <ele>76.7</ele>
        <time>2022-05-11T13:13:16Z</time>
      </trkpt>
      <trkpt lat="49.74468" lon="2.16125">
        <ele>76.8</ele>
        <time>2022-05-11T13:13:17Z</time>
      </trkpt>
      <trkpt lat="49.74468" lon="2.16125">
        <ele>76.8</ele>
        <time>2022-05-11T13:13:18Z</time>
      </trkpt>
      <trkpt lat="49.74468" lon="2.16125">
        <ele>76.8</ele>
        <time>2022-05-11T13:13:19Z</time>
      </trkpt>
      <trkpt lat="49.74468" lon="2.16124">
        <ele>76.8</ele>
        <time>2022-05-11T13:13:20Z</time>
      </trkpt>
      <trkpt lat="49.74468" lon="2.16124">
        <ele>76.8</ele>
        <time>2022-05-11T13:13:21Z</time>
      </trkpt>
      <trkpt lat="49.74468" lon="2.16124">
        <ele>76.8</ele>
        <time>2022-05-11T13:13:22Z</time>
      </trkpt>
      <trkpt lat="49.74468" lon="2.16124">
        <ele>76.8</ele>
        <time>2022-05-11T13:13:23Z</time>
      </trkpt>
      <trkpt lat="49.74468" lon="2.16124">
        <ele>76.8</ele>
        <time>2022-05-11T13:13:24Z</time>
      </trkpt>
      <trkpt lat="49.74468" lon="2.16124">
        <ele>76.8</ele>
        <time>2022-05-11T13:13:25Z</time>
      </trkpt>
      <trkpt lat="49.74468" lon="2.16124">
        <ele>76.8</ele>
        <time>2022-05-11T13:13:26Z</time>
      </trkpt>
      <trkpt lat="49.74468" lon="2.16123">
        <ele>76.8</ele>
        <time>2022-05-11T13:13:27Z</time>
      </trkpt>
      <trkpt lat="49.74468" lon="2.16123">
        <ele>76.8</ele>
        <time>2022-05-11T13:13:28Z</time>
      </trkpt>
      <trkpt lat="49.74468" lon="2.16123">
        <ele>76.9</ele>
        <time>2022-05-11T13:13:29Z</time>
      </trkpt>
      <trkpt lat="49.74468" lon="2.16123">
        <ele>76.9</ele>
        <time>2022-05-11T13:13:30Z</time>
      </trkpt>
      <trkpt lat="49.74468" lon="2.16123">
        <ele>76.9</ele>
        <time>2022-05-11T13:13:31Z</time>
      </trkpt>
      <trkpt lat="49.74468" lon="2.16123">
        <ele>76.9</ele>
        <time>2022-05-11T13:13:32Z</time>
      </trkpt>
      <trkpt lat="49.74468" lon="2.16123">
        <ele>76.9</ele>
        <time>2022-05-11T13:13:33Z</time>
      </trkpt>
      <trkpt lat="49.74468" lon="2.16122">
        <ele>76.9</ele>
        <time>2022-05-11T13:13:34Z</time>
      </trkpt>
      <trkpt lat="49.74468" lon="2.16122">
        <ele>76.9</ele>
        <time>2022-05-11T13:13:35Z</time>
      </trkpt>
      <trkpt lat="49.74468" lon="2.16122">
        <ele>76.9</ele>
        <time>2022-05-11T13:13:36Z</time>
      </trkpt>
      <trkpt lat="49.74468" lon="2.16122">
        <ele>76.9</ele>
        <time>2022-05-11T13:13:37Z</time>
      </trkpt>
      <trkpt lat="49.74468" lon="2.16122">
        <ele>76.9</ele>
        <time>2022-05-11T13:13:38Z</time>
      </trkpt>
      <trkpt lat="49.74468" lon="2.16122">
        <ele>76.9</ele>
        <time>2022-05-11T13:13:39Z</time>
      </trkpt>
      <trkpt lat="49.74468" lon="2.16122">
        <ele>77</ele>
        <time>2022-05-11T13:13:40Z</time>
      </trkpt>
      <trkpt lat="49.74468" lon="2.16121">
        <ele>77</ele>
        <time>2022-05-11T13:13:41Z</time>
      </trkpt>
      <trkpt lat="49.74468" lon="2.16121">
        <ele>77</ele>
        <time>2022-05-11T13:13:42Z</time>
      </trkpt>
      <trkpt lat="49.74468" lon="2.16121">
        <ele>77</ele>
        <time>2022-05-11T13:13:43Z</time>
      </trkpt>
      <trkpt lat="49.74468" lon="2.16121">
        <ele>77</ele>
        <time>2022-05-11T13:13:44Z</time>
      </trkpt>
      <trkpt lat="49.74469" lon="2.16117">
        <ele>77.2</ele>
        <time>2022-05-11T13:13:45Z</time>
      </trkpt>
      <trkpt lat="49.74469" lon="2.16116">
        <ele>77.2</ele>
        <time>2022-05-11T13:13:46Z</time>
      </trkpt>
      <trkpt lat="49.7447" lon="2.16115">
        <ele>77.3</ele>
        <time>2022-05-11T13:13:47Z</time>
      </trkpt>
      <trkpt lat="49.74469" lon="2.16115">
        <ele>77.3</ele>
        <time>2022-05-11T13:13:48Z</time>
      </trkpt>
      <trkpt lat="49.74469" lon="2.16115">
        <ele>77.3</ele>
        <time>2022-05-11T13:13:49Z</time>
      </trkpt>
      <trkpt lat="49.74469" lon="2.16115">
        <ele>77.3</ele>
        <time>2022-05-11T13:13:50Z</time>
      </trkpt>
      <trkpt lat="49.74469" lon="2.16115">
        <ele>77.3</ele>
        <time>2022-05-11T13:13:51Z</time>
      </trkpt>
      <trkpt lat="49.74469" lon="2.16115">
        <ele>77.3</ele>
        <time>2022-05-11T13:13:52Z</time>
      </trkpt>
      <trkpt lat="49.74469" lon="2.16116">
        <ele>77.3</ele>
        <time>2022-05-11T13:13:53Z</time>
      </trkpt>
      <trkpt lat="49.74469" lon="2.16116">
        <ele>77.3</ele>
        <time>2022-05-11T13:13:54Z</time>
      </trkpt>
      <trkpt lat="49.74469" lon="2.16116">
        <ele>77.4</ele>
        <time>2022-05-11T13:13:55Z</time>
      </trkpt>
      <trkpt lat="49.74469" lon="2.16116">
        <ele>77.4</ele>
        <time>2022-05-11T13:13:56Z</time>
      </trkpt>
      <trkpt lat="49.74469" lon="2.16116">
        <ele>77.4</ele>
        <time>2022-05-11T13:13:57Z</time>
      </trkpt>
      <trkpt lat="49.74469" lon="2.16116">
        <ele>77.4</ele>
        <time>2022-05-11T13:13:58Z</time>
      </trkpt>
      <trkpt lat="49.74469" lon="2.16117">
        <ele>77.4</ele>
        <time>2022-05-11T13:13:59Z</time>
      </trkpt>
      <trkpt lat="49.74469" lon="2.16117">
        <ele>77.4</ele>
        <time>2022-05-11T13:14:00Z</time>
      </trkpt>
      <trkpt lat="49.74469" lon="2.16117">
        <ele>77.4</ele>
        <time>2022-05-11T13:14:01Z</time>
      </trkpt>
      <trkpt lat="49.74469" lon="2.16117">
        <ele>77.4</ele>
        <time>2022-05-11T13:14:02Z</time>
      </trkpt>
      <trkpt lat="49.74469" lon="2.16117">
        <ele>77.4</ele>
        <time>2022-05-11T13:14:03Z</time>
      </trkpt>
      <trkpt lat="49.74468" lon="2.16117">
        <ele>77.4</ele>
        <time>2022-05-11T13:14:04Z</time>
      </trkpt>
      <trkpt lat="49.74468" lon="2.16118">
        <ele>77.4</ele>
        <time>2022-05-11T13:14:05Z</time>
      </trkpt>
      <trkpt lat="49.74468" lon="2.16118">
        <ele>77.4</ele>
        <time>2022-05-11T13:14:06Z</time>
      </trkpt>
      <trkpt lat="49.74468" lon="2.16118">
        <ele>77.5</ele>
        <time>2022-05-11T13:14:07Z</time>
      </trkpt>
      <trkpt lat="49.74468" lon="2.16118">
        <ele>77.5</ele>
        <time>2022-05-11T13:14:08Z</time>
      </trkpt>
      <trkpt lat="49.74468" lon="2.16118">
        <ele>77.5</ele>
        <time>2022-05-11T13:14:09Z</time>
      </trkpt>
      <trkpt lat="49.74468" lon="2.16118">
        <ele>77.5</ele>
        <time>2022-05-11T13:14:10Z</time>
      </trkpt>
      <trkpt lat="49.74468" lon="2.16119">
        <ele>77.5</ele>
        <time>2022-05-11T13:14:11Z</time>
      </trkpt>
      <trkpt lat="49.74468" lon="2.16119">
        <ele>77.5</ele>
        <time>2022-05-11T13:14:12Z</time>
      </trkpt>
      <trkpt lat="49.74468" lon="2.16119">
        <ele>77.5</ele>
        <time>2022-05-11T13:14:13Z</time>
      </trkpt>
      <trkpt lat="49.74468" lon="2.16119">
        <ele>77.5</ele>
        <time>2022-05-11T13:14:14Z</time>
      </trkpt>
      <trkpt lat="49.74468" lon="2.16119">
        <ele>77.5</ele>
        <time>2022-05-11T13:14:15Z</time>
      </trkpt>
      <trkpt lat="49.74468" lon="2.16119">
        <ele>77.5</ele>
        <time>2022-05-11T13:14:16Z</time>
      </trkpt>
      <trkpt lat="49.74468" lon="2.1612">
        <ele>77.5</ele>
        <time>2022-05-11T13:14:17Z</time>
      </trkpt>
      <trkpt lat="49.74468" lon="2.1612">
        <ele>77.5</ele>
        <time>2022-05-11T13:14:18Z</time>
      </trkpt>
      <trkpt lat="49.74468" lon="2.1612">
        <ele>77.5</ele>
        <time>2022-05-11T13:14:19Z</time>
      </trkpt>
      <trkpt lat="49.74468" lon="2.1612">
        <ele>77.6</ele>
        <time>2022-05-11T13:14:20Z</time>
      </trkpt>
      <trkpt lat="49.74467" lon="2.1612">
        <ele>77.6</ele>
        <time>2022-05-11T13:14:21Z</time>
      </trkpt>
      <trkpt lat="49.74467" lon="2.16121">
        <ele>77.6</ele>
        <time>2022-05-11T13:14:22Z</time>
      </trkpt>
      <trkpt lat="49.74467" lon="2.16121">
        <ele>77.6</ele>
        <time>2022-05-11T13:14:23Z</time>
      </trkpt>
      <trkpt lat="49.74467" lon="2.16121">
        <ele>77.6</ele>
        <time>2022-05-11T13:14:24Z</time>
      </trkpt>
      <trkpt lat="49.74467" lon="2.16121">
        <ele>77.6</ele>
        <time>2022-05-11T13:14:25Z</time>
      </trkpt>
      <trkpt lat="49.74467" lon="2.16121">
        <ele>77.6</ele>
        <time>2022-05-11T13:14:26Z</time>
      </trkpt>
      <trkpt lat="49.74467" lon="2.16121">
        <ele>77.6</ele>
        <time>2022-05-11T13:14:27Z</time>
      </trkpt>
      <trkpt lat="49.74467" lon="2.16122">
        <ele>77.6</ele>
        <time>2022-05-11T13:14:28Z</time>
      </trkpt>
      <trkpt lat="49.74467" lon="2.16122">
        <ele>77.6</ele>
        <time>2022-05-11T13:14:29Z</time>
      </trkpt>
      <trkpt lat="49.74467" lon="2.16122">
        <ele>77.6</ele>
        <time>2022-05-11T13:14:31Z</time>
      </trkpt>
      <trkpt lat="49.74467" lon="2.16122">
        <ele>77.6</ele>
        <time>2022-05-11T13:14:32Z</time>
      </trkpt>
      <trkpt lat="49.74464" lon="2.16124">
        <ele>77.8</ele>
        <time>2022-05-11T13:14:34Z</time>
      </trkpt>
      <trkpt lat="49.74463" lon="2.16125">
        <ele>77.9</ele>
        <time>2022-05-11T13:14:35Z</time>
      </trkpt>
      <trkpt lat="49.74461" lon="2.16126">
        <ele>78</ele>
        <time>2022-05-11T13:14:36Z</time>
      </trkpt>
      <trkpt lat="49.7446" lon="2.16127">
        <ele>78.1</ele>
        <time>2022-05-11T13:14:38Z</time>
      </trkpt>
      <trkpt lat="49.74459" lon="2.16127">
        <ele>78.1</ele>
        <time>2022-05-11T13:14:39Z</time>
      </trkpt>
      <trkpt lat="49.74458" lon="2.16128">
        <ele>78.2</ele>
        <time>2022-05-11T13:14:40Z</time>
      </trkpt>
      <trkpt lat="49.74458" lon="2.16128">
        <ele>78.2</ele>
        <time>2022-05-11T13:14:42Z</time>
      </trkpt>
      <trkpt lat="49.74457" lon="2.16128">
        <ele>78.2</ele>
        <time>2022-05-11T13:14:43Z</time>
      </trkpt>
      <trkpt lat="49.74456" lon="2.16129">
        <ele>78.3</ele>
        <time>2022-05-11T13:14:44Z</time>
      </trkpt>
      <trkpt lat="49.74456" lon="2.16129">
        <ele>78.3</ele>
        <time>2022-05-11T13:14:45Z</time>
      </trkpt>
      <trkpt lat="49.74455" lon="2.16129">
        <ele>78.3</ele>
        <time>2022-05-11T13:14:47Z</time>
      </trkpt>
      <trkpt lat="49.74455" lon="2.16129">
        <ele>78.4</ele>
        <time>2022-05-11T13:14:48Z</time>
      </trkpt>
      <trkpt lat="49.74454" lon="2.16129">
        <ele>78.4</ele>
        <time>2022-05-11T13:14:49Z</time>
      </trkpt>
      <trkpt lat="49.74452" lon="2.16128">
        <ele>78.5</ele>
        <time>2022-05-11T13:14:50Z</time>
      </trkpt>
      <trkpt lat="49.74451" lon="2.16128">
        <ele>78.5</ele>
        <time>2022-05-11T13:14:51Z</time>
      </trkpt>
      <trkpt lat="49.7445" lon="2.16128">
        <ele>78.6</ele>
        <time>2022-05-11T13:14:53Z</time>
      </trkpt>
      <trkpt lat="49.74449" lon="2.16128">
        <ele>78.6</ele>
        <time>2022-05-11T13:14:54Z</time>
      </trkpt>
      <trkpt lat="49.74449" lon="2.16128">
        <ele>78.7</ele>
        <time>2022-05-11T13:14:55Z</time>
      </trkpt>
      <trkpt lat="49.74448" lon="2.16128">
        <ele>78.7</ele>
        <time>2022-05-11T13:14:56Z</time>
      </trkpt>
      <trkpt lat="49.74447" lon="2.16128">
        <ele>78.8</ele>
        <time>2022-05-11T13:14:57Z</time>
      </trkpt>
      <trkpt lat="49.74444" lon="2.16127">
        <ele>78.9</ele>
        <time>2022-05-11T13:14:59Z</time>
      </trkpt>
      <trkpt lat="49.74443" lon="2.16127">
        <ele>79</ele>
        <time>2022-05-11T13:15:00Z</time>
      </trkpt>
      <trkpt lat="49.74442" lon="2.16126">
        <ele>79</ele>
        <time>2022-05-11T13:15:01Z</time>
      </trkpt>
      <trkpt lat="49.74441" lon="2.16126">
        <ele>79.1</ele>
        <time>2022-05-11T13:15:02Z</time>
      </trkpt>
      <trkpt lat="49.7444" lon="2.16125">
        <ele>79.1</ele>
        <time>2022-05-11T13:15:03Z</time>
      </trkpt>
      <trkpt lat="49.74438" lon="2.16124">
        <ele>79.2</ele>
        <time>2022-05-11T13:15:04Z</time>
      </trkpt>
      <trkpt lat="49.74437" lon="2.16123">
        <ele>79.3</ele>
        <time>2022-05-11T13:15:05Z</time>
      </trkpt>
      <trkpt lat="49.74436" lon="2.16122">
        <ele>79.3</ele>
        <time>2022-05-11T13:15:07Z</time>
      </trkpt>
      <trkpt lat="49.74435" lon="2.16121">
        <ele>79.3</ele>
        <time>2022-05-11T13:15:08Z</time>
      </trkpt>
      <trkpt lat="49.74435" lon="2.16121">
        <ele>79.4</ele>
        <time>2022-05-11T13:15:09Z</time>
      </trkpt>
      <trkpt lat="49.74434" lon="2.1612">
        <ele>79.4</ele>
        <time>2022-05-11T13:15:10Z</time>
      </trkpt>
      <trkpt lat="49.74432" lon="2.1612">
        <ele>79.4</ele>
        <time>2022-05-11T13:15:11Z</time>
      </trkpt>
      <trkpt lat="49.74431" lon="2.16119">
        <ele>79.5</ele>
        <time>2022-05-11T13:15:12Z</time>
      </trkpt>
      <trkpt lat="49.7443" lon="2.16119">
        <ele>79.5</ele>
        <time>2022-05-11T13:15:13Z</time>
      </trkpt>
      <trkpt lat="49.74429" lon="2.16119">
        <ele>79.6</ele>
        <time>2022-05-11T13:15:15Z</time>
      </trkpt>
      <trkpt lat="49.74427" lon="2.1612">
        <ele>79.6</ele>
        <time>2022-05-11T13:15:16Z</time>
      </trkpt>
      <trkpt lat="49.74426" lon="2.1612">
        <ele>79.6</ele>
        <time>2022-05-11T13:15:17Z</time>
      </trkpt>
      <trkpt lat="49.74426" lon="2.1612">
        <ele>79.7</ele>
        <time>2022-05-11T13:15:18Z</time>
      </trkpt>
      <trkpt lat="49.74425" lon="2.1612">
        <ele>79.7</ele>
        <time>2022-05-11T13:15:19Z</time>
      </trkpt>
      <trkpt lat="49.74424" lon="2.1612">
        <ele>79.7</ele>
        <time>2022-05-11T13:15:20Z</time>
      </trkpt>
      <trkpt lat="49.74424" lon="2.1612">
        <ele>79.7</ele>
        <time>2022-05-11T13:15:21Z</time>
      </trkpt>
      <trkpt lat="49.74423" lon="2.1612">
        <ele>79.7</ele>
        <time>2022-05-11T13:15:22Z</time>
      </trkpt>
      <trkpt lat="49.74421" lon="2.1612">
        <ele>79.8</ele>
        <time>2022-05-11T13:15:24Z</time>
      </trkpt>
      <trkpt lat="49.7442" lon="2.16121">
        <ele>79.8</ele>
        <time>2022-05-11T13:15:25Z</time>
      </trkpt>
      <trkpt lat="49.74419" lon="2.16121">
        <ele>79.8</ele>
        <time>2022-05-11T13:15:26Z</time>
      </trkpt>
      <trkpt lat="49.74418" lon="2.16121">
        <ele>79.8</ele>
        <time>2022-05-11T13:15:27Z</time>
      </trkpt>
      <trkpt lat="49.74417" lon="2.16121">
        <ele>79.9</ele>
        <time>2022-05-11T13:15:28Z</time>
      </trkpt>
      <trkpt lat="49.74415" lon="2.16122">
        <ele>79.9</ele>
        <time>2022-05-11T13:15:30Z</time>
      </trkpt>
      <trkpt lat="49.74415" lon="2.16122">
        <ele>79.9</ele>
        <time>2022-05-11T13:15:31Z</time>
      </trkpt>
      <trkpt lat="49.74413" lon="2.16122">
        <ele>80</ele>
        <time>2022-05-11T13:15:32Z</time>
      </trkpt>
      <trkpt lat="49.74413" lon="2.16122">
        <ele>80</ele>
        <time>2022-05-11T13:15:33Z</time>
      </trkpt>
      <trkpt lat="49.74412" lon="2.16122">
        <ele>80</ele>
        <time>2022-05-11T13:15:34Z</time>
      </trkpt>
      <trkpt lat="49.74411" lon="2.16123">
        <ele>80</ele>
        <time>2022-05-11T13:15:35Z</time>
      </trkpt>
      <trkpt lat="49.7441" lon="2.16123">
        <ele>80.1</ele>
        <time>2022-05-11T13:15:36Z</time>
      </trkpt>
      <trkpt lat="49.74408" lon="2.16123">
        <ele>80.1</ele>
        <time>2022-05-11T13:15:37Z</time>
      </trkpt>
      <trkpt lat="49.74407" lon="2.16124">
        <ele>80.1</ele>
        <time>2022-05-11T13:15:38Z</time>
      </trkpt>
      <trkpt lat="49.74406" lon="2.16124">
        <ele>80.1</ele>
        <time>2022-05-11T13:15:39Z</time>
      </trkpt>
      <trkpt lat="49.74405" lon="2.16124">
        <ele>80.2</ele>
        <time>2022-05-11T13:15:41Z</time>
      </trkpt>
      <trkpt lat="49.74404" lon="2.16125">
        <ele>80.2</ele>
        <time>2022-05-11T13:15:42Z</time>
      </trkpt>
      <trkpt lat="49.74403" lon="2.16125">
        <ele>80.2</ele>
        <time>2022-05-11T13:15:43Z</time>
      </trkpt>
      <trkpt lat="49.74402" lon="2.16125">
        <ele>80.2</ele>
        <time>2022-05-11T13:15:44Z</time>
      </trkpt>
      <trkpt lat="49.74401" lon="2.16125">
        <ele>80.3</ele>
        <time>2022-05-11T13:15:45Z</time>
      </trkpt>
      <trkpt lat="49.744" lon="2.16125">
        <ele>80.3</ele>
        <time>2022-05-11T13:15:46Z</time>
      </trkpt>
      <trkpt lat="49.74399" lon="2.16126">
        <ele>80.3</ele>
        <time>2022-05-11T13:15:47Z</time>
      </trkpt>
      <trkpt lat="49.74397" lon="2.16126">
        <ele>80.3</ele>
        <time>2022-05-11T13:15:49Z</time>
      </trkpt>
      <trkpt lat="49.74397" lon="2.16127">
        <ele>80.3</ele>
        <time>2022-05-11T13:15:50Z</time>
      </trkpt>
      <trkpt lat="49.74396" lon="2.16127">
        <ele>80.4</ele>
        <time>2022-05-11T13:15:51Z</time>
      </trkpt>
      <trkpt lat="49.74394" lon="2.16127">
        <ele>80.4</ele>
        <time>2022-05-11T13:15:53Z</time>
      </trkpt>
      <trkpt lat="49.74392" lon="2.16127">
        <ele>80.4</ele>
        <time>2022-05-11T13:15:55Z</time>
      </trkpt>
      <trkpt lat="49.74391" lon="2.16127">
        <ele>80.4</ele>
        <time>2022-05-11T13:15:56Z</time>
      </trkpt>
      <trkpt lat="49.7439" lon="2.16127">
        <ele>80.5</ele>
        <time>2022-05-11T13:15:57Z</time>
      </trkpt>
      <trkpt lat="49.74389" lon="2.16128">
        <ele>80.5</ele>
        <time>2022-05-11T13:15:58Z</time>
      </trkpt>
      <trkpt lat="49.74388" lon="2.16128">
        <ele>80.5</ele>
        <time>2022-05-11T13:16:00Z</time>
      </trkpt>
      <trkpt lat="49.74387" lon="2.16128">
        <ele>80.5</ele>
        <time>2022-05-11T13:16:01Z</time>
      </trkpt>
      <trkpt lat="49.74385" lon="2.16128">
        <ele>80.5</ele>
        <time>2022-05-11T13:16:02Z</time>
      </trkpt>
      <trkpt lat="49.74384" lon="2.16127">
        <ele>80.5</ele>
        <time>2022-05-11T13:16:04Z</time>
      </trkpt>
      <trkpt lat="49.74383" lon="2.16127">
        <ele>80.6</ele>
        <time>2022-05-11T13:16:05Z</time>
      </trkpt>
      <trkpt lat="49.74382" lon="2.16127">
        <ele>80.6</ele>
        <time>2022-05-11T13:16:06Z</time>
      </trkpt>
      <trkpt lat="49.74381" lon="2.16127">
        <ele>80.6</ele>
        <time>2022-05-11T13:16:07Z</time>
      </trkpt>
      <trkpt lat="49.74379" lon="2.16127">
        <ele>80.6</ele>
        <time>2022-05-11T13:16:08Z</time>
      </trkpt>
      <trkpt lat="49.74378" lon="2.16127">
        <ele>80.6</ele>
        <time>2022-05-11T13:16:09Z</time>
      </trkpt>
      <trkpt lat="49.74377" lon="2.16127">
        <ele>80.6</ele>
        <time>2022-05-11T13:16:10Z</time>
      </trkpt>
      <trkpt lat="49.74375" lon="2.16126">
        <ele>80.7</ele>
        <time>2022-05-11T13:16:12Z</time>
      </trkpt>
      <trkpt lat="49.74374" lon="2.16126">
        <ele>80.7</ele>
        <time>2022-05-11T13:16:13Z</time>
      </trkpt>
      <trkpt lat="49.74373" lon="2.16126">
        <ele>80.7</ele>
        <time>2022-05-11T13:16:14Z</time>
      </trkpt>
      <trkpt lat="49.74373" lon="2.16126">
        <ele>80.7</ele>
        <time>2022-05-11T13:16:15Z</time>
      </trkpt>
      <trkpt lat="49.74372" lon="2.16126">
        <ele>80.7</ele>
        <time>2022-05-11T13:16:17Z</time>
      </trkpt>
      <trkpt lat="49.7437" lon="2.16126">
        <ele>80.7</ele>
        <time>2022-05-11T13:16:18Z</time>
      </trkpt>
      <trkpt lat="49.74368" lon="2.16127">
        <ele>80.7</ele>
        <time>2022-05-11T13:16:19Z</time>
      </trkpt>
      <trkpt lat="49.74367" lon="2.16127">
        <ele>80.7</ele>
        <time>2022-05-11T13:16:20Z</time>
      </trkpt>
      <trkpt lat="49.74367" lon="2.16127">
        <ele>80.7</ele>
        <time>2022-05-11T13:16:21Z</time>
      </trkpt>
      <trkpt lat="49.74365" lon="2.16127">
        <ele>80.8</ele>
        <time>2022-05-11T13:16:22Z</time>
      </trkpt>
      <trkpt lat="49.74364" lon="2.16127">
        <ele>80.8</ele>
        <time>2022-05-11T13:16:23Z</time>
      </trkpt>
      <trkpt lat="49.74363" lon="2.16127">
        <ele>80.8</ele>
        <time>2022-05-11T13:16:24Z</time>
      </trkpt>
      <trkpt lat="49.74362" lon="2.16127">
        <ele>80.8</ele>
        <time>2022-05-11T13:16:25Z</time>
      </trkpt>
      <trkpt lat="49.74361" lon="2.16127">
        <ele>80.8</ele>
        <time>2022-05-11T13:16:26Z</time>
      </trkpt>
      <trkpt lat="49.7436" lon="2.16128">
        <ele>80.8</ele>
        <time>2022-05-11T13:16:27Z</time>
      </trkpt>
      <trkpt lat="49.74359" lon="2.16128">
        <ele>80.8</ele>
        <time>2022-05-11T13:16:28Z</time>
      </trkpt>
      <trkpt lat="49.74358" lon="2.16128">
        <ele>80.8</ele>
        <time>2022-05-11T13:16:29Z</time>
      </trkpt>
      <trkpt lat="49.74357" lon="2.16128">
        <ele>80.8</ele>
        <time>2022-05-11T13:16:30Z</time>
      </trkpt>
      <trkpt lat="49.74356" lon="2.16128">
        <ele>80.8</ele>
        <time>2022-05-11T13:16:31Z</time>
      </trkpt>
      <trkpt lat="49.74355" lon="2.16129">
        <ele>80.8</ele>
        <time>2022-05-11T13:16:33Z</time>
      </trkpt>
      <trkpt lat="49.74354" lon="2.16129">
        <ele>80.8</ele>
        <time>2022-05-11T13:16:34Z</time>
      </trkpt>
      <trkpt lat="49.74353" lon="2.1613">
        <ele>80.8</ele>
        <time>2022-05-11T13:16:35Z</time>
      </trkpt>
      <trkpt lat="49.74352" lon="2.16131">
        <ele>80.8</ele>
        <time>2022-05-11T13:16:36Z</time>
      </trkpt>
      <trkpt lat="49.74351" lon="2.16131">
        <ele>80.8</ele>
        <time>2022-05-11T13:16:37Z</time>
      </trkpt>
      <trkpt lat="49.7435" lon="2.16132">
        <ele>80.8</ele>
        <time>2022-05-11T13:16:38Z</time>
      </trkpt>
      <trkpt lat="49.74349" lon="2.16132">
        <ele>80.8</ele>
        <time>2022-05-11T13:16:40Z</time>
      </trkpt>
      <trkpt lat="49.74348" lon="2.16133">
        <ele>80.8</ele>
        <time>2022-05-11T13:16:41Z</time>
      </trkpt>
      <trkpt lat="49.74346" lon="2.16134">
        <ele>80.8</ele>
        <time>2022-05-11T13:16:42Z</time>
      </trkpt>
      <trkpt lat="49.74345" lon="2.16135">
        <ele>80.8</ele>
        <time>2022-05-11T13:16:43Z</time>
      </trkpt>
      <trkpt lat="49.74344" lon="2.16135">
        <ele>80.8</ele>
        <time>2022-05-11T13:16:44Z</time>
      </trkpt>
      <trkpt lat="49.74342" lon="2.16135">
        <ele>80.8</ele>
        <time>2022-05-11T13:16:46Z</time>
      </trkpt>
      <trkpt lat="49.74341" lon="2.16136">
        <ele>80.8</ele>
        <time>2022-05-11T13:16:47Z</time>
      </trkpt>
      <trkpt lat="49.74341" lon="2.16136">
        <ele>80.8</ele>
        <time>2022-05-11T13:16:48Z</time>
      </trkpt>
      <trkpt lat="49.7434" lon="2.16136">
        <ele>80.8</ele>
        <time>2022-05-11T13:16:49Z</time>
      </trkpt>
      <trkpt lat="49.74337" lon="2.16138">
        <ele>80.8</ele>
        <time>2022-05-11T13:16:51Z</time>
      </trkpt>
      <trkpt lat="49.74336" lon="2.16139">
        <ele>80.9</ele>
        <time>2022-05-11T13:16:53Z</time>
      </trkpt>
      <trkpt lat="49.74335" lon="2.1614">
        <ele>80.9</ele>
        <time>2022-05-11T13:16:54Z</time>
      </trkpt>
      <trkpt lat="49.74333" lon="2.16141">
        <ele>80.9</ele>
        <time>2022-05-11T13:16:55Z</time>
      </trkpt>
      <trkpt lat="49.74332" lon="2.16142">
        <ele>80.9</ele>
        <time>2022-05-11T13:16:56Z</time>
      </trkpt>
      <trkpt lat="49.7433" lon="2.16144">
        <ele>80.9</ele>
        <time>2022-05-11T13:16:58Z</time>
      </trkpt>
      <trkpt lat="49.74329" lon="2.16144">
        <ele>80.9</ele>
        <time>2022-05-11T13:16:59Z</time>
      </trkpt>
      <trkpt lat="49.74329" lon="2.16145">
        <ele>81</ele>
        <time>2022-05-11T13:17:00Z</time>
      </trkpt>
      <trkpt lat="49.74327" lon="2.16146">
        <ele>81</ele>
        <time>2022-05-11T13:17:01Z</time>
      </trkpt>
      <trkpt lat="49.74325" lon="2.16147">
        <ele>81</ele>
        <time>2022-05-11T13:17:03Z</time>
      </trkpt>
      <trkpt lat="49.74324" lon="2.16148">
        <ele>81</ele>
        <time>2022-05-11T13:17:04Z</time>
      </trkpt>
      <trkpt lat="49.74323" lon="2.16149">
        <ele>81</ele>
        <time>2022-05-11T13:17:05Z</time>
      </trkpt>
      <trkpt lat="49.74323" lon="2.16149">
        <ele>81.1</ele>
        <time>2022-05-11T13:17:07Z</time>
      </trkpt>
      <trkpt lat="49.74322" lon="2.16149">
        <ele>81.1</ele>
        <time>2022-05-11T13:17:08Z</time>
      </trkpt>
      <trkpt lat="49.74322" lon="2.1615">
        <ele>81.1</ele>
        <time>2022-05-11T13:17:09Z</time>
      </trkpt>
      <trkpt lat="49.74321" lon="2.16151">
        <ele>81.1</ele>
        <time>2022-05-11T13:17:10Z</time>
      </trkpt>
      <trkpt lat="49.74321" lon="2.16152">
        <ele>81.1</ele>
        <time>2022-05-11T13:17:11Z</time>
      </trkpt>
      <trkpt lat="49.7432" lon="2.16153">
        <ele>81.1</ele>
        <time>2022-05-11T13:17:12Z</time>
      </trkpt>
      <trkpt lat="49.74319" lon="2.16154">
        <ele>81.1</ele>
        <time>2022-05-11T13:17:13Z</time>
      </trkpt>
      <trkpt lat="49.74318" lon="2.16155">
        <ele>81.1</ele>
        <time>2022-05-11T13:17:14Z</time>
      </trkpt>
      <trkpt lat="49.74317" lon="2.16157">
        <ele>81.2</ele>
        <time>2022-05-11T13:17:16Z</time>
      </trkpt>
      <trkpt lat="49.74316" lon="2.16158">
        <ele>81.2</ele>
        <time>2022-05-11T13:17:17Z</time>
      </trkpt>
      <trkpt lat="49.74316" lon="2.16159">
        <ele>81.2</ele>
        <time>2022-05-11T13:17:18Z</time>
      </trkpt>
      <trkpt lat="49.74315" lon="2.1616">
        <ele>81.2</ele>
        <time>2022-05-11T13:17:19Z</time>
      </trkpt>
      <trkpt lat="49.74315" lon="2.16162">
        <ele>81.2</ele>
        <time>2022-05-11T13:17:20Z</time>
      </trkpt>
      <trkpt lat="49.74315" lon="2.16163">
        <ele>81.2</ele>
        <time>2022-05-11T13:17:21Z</time>
      </trkpt>
      <trkpt lat="49.74314" lon="2.16166">
        <ele>81.3</ele>
        <time>2022-05-11T13:17:23Z</time>
      </trkpt>
      <trkpt lat="49.74314" lon="2.16167">
        <ele>81.3</ele>
        <time>2022-05-11T13:17:24Z</time>
      </trkpt>
      <trkpt lat="49.74313" lon="2.16169">
        <ele>81.3</ele>
        <time>2022-05-11T13:17:25Z</time>
      </trkpt>
      <trkpt lat="49.74313" lon="2.16171">
        <ele>81.3</ele>
        <time>2022-05-11T13:17:26Z</time>
      </trkpt>
      <trkpt lat="49.74312" lon="2.16173">
        <ele>81.3</ele>
        <time>2022-05-11T13:17:27Z</time>
      </trkpt>
      <trkpt lat="49.74312" lon="2.16175">
        <ele>81.4</ele>
        <time>2022-05-11T13:17:28Z</time>
      </trkpt>
      <trkpt lat="49.74311" lon="2.16178">
        <ele>81.4</ele>
        <time>2022-05-11T13:17:30Z</time>
      </trkpt>
      <trkpt lat="49.74311" lon="2.1618">
        <ele>81.4</ele>
        <time>2022-05-11T13:17:31Z</time>
      </trkpt>
      <trkpt lat="49.74311" lon="2.16181">
        <ele>81.5</ele>
        <time>2022-05-11T13:17:32Z</time>
      </trkpt>
      <trkpt lat="49.7431" lon="2.16183">
        <ele>81.5</ele>
        <time>2022-05-11T13:17:33Z</time>
      </trkpt>
      <trkpt lat="49.7431" lon="2.16184">
        <ele>81.5</ele>
        <time>2022-05-11T13:17:34Z</time>
      </trkpt>
      <trkpt lat="49.7431" lon="2.16185">
        <ele>81.5</ele>
        <time>2022-05-11T13:17:35Z</time>
      </trkpt>
      <trkpt lat="49.7431" lon="2.16187">
        <ele>81.6</ele>
        <time>2022-05-11T13:17:36Z</time>
      </trkpt>
      <trkpt lat="49.74309" lon="2.1619">
        <ele>81.6</ele>
        <time>2022-05-11T13:17:37Z</time>
      </trkpt>
      <trkpt lat="49.74309" lon="2.16191">
        <ele>81.6</ele>
        <time>2022-05-11T13:17:39Z</time>
      </trkpt>
      <trkpt lat="49.74308" lon="2.16192">
        <ele>81.6</ele>
        <time>2022-05-11T13:17:40Z</time>
      </trkpt>
      <trkpt lat="49.74307" lon="2.16196">
        <ele>81.7</ele>
        <time>2022-05-11T13:17:42Z</time>
      </trkpt>
      <trkpt lat="49.74307" lon="2.16198">
        <ele>81.7</ele>
        <time>2022-05-11T13:17:43Z</time>
      </trkpt>
      <trkpt lat="49.74306" lon="2.16199">
        <ele>81.7</ele>
        <time>2022-05-11T13:17:44Z</time>
      </trkpt>
      <trkpt lat="49.74306" lon="2.162">
        <ele>81.8</ele>
        <time>2022-05-11T13:17:45Z</time>
      </trkpt>
      <trkpt lat="49.74306" lon="2.16204">
        <ele>81.8</ele>
        <time>2022-05-11T13:17:46Z</time>
      </trkpt>
      <trkpt lat="49.74306" lon="2.16205">
        <ele>81.8</ele>
        <time>2022-05-11T13:17:47Z</time>
      </trkpt>
      <trkpt lat="49.74305" lon="2.16206">
        <ele>81.8</ele>
        <time>2022-05-11T13:17:48Z</time>
      </trkpt>
      <trkpt lat="49.74305" lon="2.16208">
        <ele>81.8</ele>
        <time>2022-05-11T13:17:49Z</time>
      </trkpt>
      <trkpt lat="49.74305" lon="2.1621">
        <ele>81.9</ele>
        <time>2022-05-11T13:17:50Z</time>
      </trkpt>
      <trkpt lat="49.74304" lon="2.16212">
        <ele>81.9</ele>
        <time>2022-05-11T13:17:52Z</time>
      </trkpt>
      <trkpt lat="49.74304" lon="2.16215">
        <ele>81.9</ele>
        <time>2022-05-11T13:17:54Z</time>
      </trkpt>
      <trkpt lat="49.74304" lon="2.16217">
        <ele>81.9</ele>
        <time>2022-05-11T13:17:55Z</time>
      </trkpt>
      <trkpt lat="49.74304" lon="2.16219">
        <ele>81.9</ele>
        <time>2022-05-11T13:17:56Z</time>
      </trkpt>
      <trkpt lat="49.74304" lon="2.1622">
        <ele>82</ele>
        <time>2022-05-11T13:17:57Z</time>
      </trkpt>
      <trkpt lat="49.74304" lon="2.16222">
        <ele>82</ele>
        <time>2022-05-11T13:17:58Z</time>
      </trkpt>
      <trkpt lat="49.74304" lon="2.16224">
        <ele>82</ele>
        <time>2022-05-11T13:18:00Z</time>
      </trkpt>
      <trkpt lat="49.74304" lon="2.16225">
        <ele>82</ele>
        <time>2022-05-11T13:18:01Z</time>
      </trkpt>
      <trkpt lat="49.74304" lon="2.16226">
        <ele>82</ele>
        <time>2022-05-11T13:18:02Z</time>
      </trkpt>
      <trkpt lat="49.74304" lon="2.16228">
        <ele>82</ele>
        <time>2022-05-11T13:18:03Z</time>
      </trkpt>
      <trkpt lat="49.74303" lon="2.16229">
        <ele>82.1</ele>
        <time>2022-05-11T13:18:04Z</time>
      </trkpt>
      <trkpt lat="49.74303" lon="2.1623">
        <ele>82.1</ele>
        <time>2022-05-11T13:18:05Z</time>
      </trkpt>
      <trkpt lat="49.74303" lon="2.16231">
        <ele>82.1</ele>
        <time>2022-05-11T13:18:06Z</time>
      </trkpt>
      <trkpt lat="49.74302" lon="2.16233">
        <ele>82.1</ele>
        <time>2022-05-11T13:18:07Z</time>
      </trkpt>
      <trkpt lat="49.74302" lon="2.16234">
        <ele>82.1</ele>
        <time>2022-05-11T13:18:08Z</time>
      </trkpt>
      <trkpt lat="49.74302" lon="2.16235">
        <ele>82.1</ele>
        <time>2022-05-11T13:18:09Z</time>
      </trkpt>
      <trkpt lat="49.74302" lon="2.16237">
        <ele>82.2</ele>
        <time>2022-05-11T13:18:11Z</time>
      </trkpt>
      <trkpt lat="49.74302" lon="2.16239">
        <ele>82.2</ele>
        <time>2022-05-11T13:18:12Z</time>
      </trkpt>
      <trkpt lat="49.74302" lon="2.1624">
        <ele>82.2</ele>
        <time>2022-05-11T13:18:13Z</time>
      </trkpt>
      <trkpt lat="49.74302" lon="2.16241">
        <ele>82.2</ele>
        <time>2022-05-11T13:18:14Z</time>
      </trkpt>
      <trkpt lat="49.74302" lon="2.16242">
        <ele>82.2</ele>
        <time>2022-05-11T13:18:15Z</time>
      </trkpt>
      <trkpt lat="49.74302" lon="2.16243">
        <ele>82.2</ele>
        <time>2022-05-11T13:18:16Z</time>
      </trkpt>
      <trkpt lat="49.74302" lon="2.16244">
        <ele>82.2</ele>
        <time>2022-05-11T13:18:17Z</time>
      </trkpt>
      <trkpt lat="49.74302" lon="2.16245">
        <ele>82.3</ele>
        <time>2022-05-11T13:18:18Z</time>
      </trkpt>
      <trkpt lat="49.74302" lon="2.16247">
        <ele>82.3</ele>
        <time>2022-05-11T13:18:19Z</time>
      </trkpt>
      <trkpt lat="49.74303" lon="2.16248">
        <ele>82.3</ele>
        <time>2022-05-11T13:18:20Z</time>
      </trkpt>
      <trkpt lat="49.74303" lon="2.1625">
        <ele>82.3</ele>
        <time>2022-05-11T13:18:21Z</time>
      </trkpt>
      <trkpt lat="49.74303" lon="2.16252">
        <ele>82.4</ele>
        <time>2022-05-11T13:18:22Z</time>
      </trkpt>
      <trkpt lat="49.74303" lon="2.16253">
        <ele>82.4</ele>
        <time>2022-05-11T13:18:23Z</time>
      </trkpt>
      <trkpt lat="49.74303" lon="2.16256">
        <ele>82.4</ele>
        <time>2022-05-11T13:18:24Z</time>
      </trkpt>
      <trkpt lat="49.74303" lon="2.16258">
        <ele>82.4</ele>
        <time>2022-05-11T13:18:25Z</time>
      </trkpt>
      <trkpt lat="49.74303" lon="2.16259">
        <ele>82.5</ele>
        <time>2022-05-11T13:18:27Z</time>
      </trkpt>
      <trkpt lat="49.74303" lon="2.16261">
        <ele>82.5</ele>
        <time>2022-05-11T13:18:28Z</time>
      </trkpt>
      <trkpt lat="49.74303" lon="2.16262">
        <ele>82.5</ele>
        <time>2022-05-11T13:18:29Z</time>
      </trkpt>
      <trkpt lat="49.74303" lon="2.16264">
        <ele>82.5</ele>
        <time>2022-05-11T13:18:30Z</time>
      </trkpt>
      <trkpt lat="49.74303" lon="2.16265">
        <ele>82.6</ele>
        <time>2022-05-11T13:18:31Z</time>
      </trkpt>
      <trkpt lat="49.74303" lon="2.16266">
        <ele>82.6</ele>
        <time>2022-05-11T13:18:32Z</time>
      </trkpt>
      <trkpt lat="49.74303" lon="2.16268">
        <ele>82.6</ele>
        <time>2022-05-11T13:18:33Z</time>
      </trkpt>
      <trkpt lat="49.74303" lon="2.16269">
        <ele>82.6</ele>
        <time>2022-05-11T13:18:34Z</time>
      </trkpt>
      <trkpt lat="49.74303" lon="2.16271">
        <ele>82.7</ele>
        <time>2022-05-11T13:18:35Z</time>
      </trkpt>
      <trkpt lat="49.74303" lon="2.16273">
        <ele>82.7</ele>
        <time>2022-05-11T13:18:36Z</time>
      </trkpt>
      <trkpt lat="49.74303" lon="2.16275">
        <ele>82.8</ele>
        <time>2022-05-11T13:18:37Z</time>
      </trkpt>
      <trkpt lat="49.74303" lon="2.16277">
        <ele>82.8</ele>
        <time>2022-05-11T13:18:39Z</time>
      </trkpt>
      <trkpt lat="49.74303" lon="2.16279">
        <ele>82.8</ele>
        <time>2022-05-11T13:18:40Z</time>
      </trkpt>
      <trkpt lat="49.74304" lon="2.1628">
        <ele>82.9</ele>
        <time>2022-05-11T13:18:41Z</time>
      </trkpt>
      <trkpt lat="49.74304" lon="2.16281">
        <ele>82.9</ele>
        <time>2022-05-11T13:18:42Z</time>
      </trkpt>
      <trkpt lat="49.74303" lon="2.16282">
        <ele>82.9</ele>
        <time>2022-05-11T13:18:43Z</time>
      </trkpt>
      <trkpt lat="49.74303" lon="2.16284">
        <ele>82.9</ele>
        <time>2022-05-11T13:18:44Z</time>
      </trkpt>
      <trkpt lat="49.74304" lon="2.16285">
        <ele>83</ele>
        <time>2022-05-11T13:18:45Z</time>
      </trkpt>
      <trkpt lat="49.74304" lon="2.16287">
        <ele>83</ele>
        <time>2022-05-11T13:18:46Z</time>
      </trkpt>
      <trkpt lat="49.74304" lon="2.16288">
        <ele>83.1</ele>
        <time>2022-05-11T13:18:47Z</time>
      </trkpt>
      <trkpt lat="49.74304" lon="2.1629">
        <ele>83.1</ele>
        <time>2022-05-11T13:18:48Z</time>
      </trkpt>
      <trkpt lat="49.74304" lon="2.16292">
        <ele>83.1</ele>
        <time>2022-05-11T13:18:50Z</time>
      </trkpt>
      <trkpt lat="49.74304" lon="2.16294">
        <ele>83.2</ele>
        <time>2022-05-11T13:18:51Z</time>
      </trkpt>
      <trkpt lat="49.74303" lon="2.16296">
        <ele>83.2</ele>
        <time>2022-05-11T13:18:52Z</time>
      </trkpt>
      <trkpt lat="49.74303" lon="2.16298">
        <ele>83.3</ele>
        <time>2022-05-11T13:18:53Z</time>
      </trkpt>
      <trkpt lat="49.74303" lon="2.16299">
        <ele>83.3</ele>
        <time>2022-05-11T13:18:54Z</time>
      </trkpt>
      <trkpt lat="49.74303" lon="2.163">
        <ele>83.3</ele>
        <time>2022-05-11T13:18:55Z</time>
      </trkpt>
      <trkpt lat="49.74303" lon="2.16302">
        <ele>83.3</ele>
        <time>2022-05-11T13:18:56Z</time>
      </trkpt>
      <trkpt lat="49.74303" lon="2.16303">
        <ele>83.4</ele>
        <time>2022-05-11T13:18:58Z</time>
      </trkpt>
      <trkpt lat="49.74303" lon="2.16305">
        <ele>83.4</ele>
        <time>2022-05-11T13:18:59Z</time>
      </trkpt>
      <trkpt lat="49.74303" lon="2.16308">
        <ele>83.5</ele>
        <time>2022-05-11T13:19:01Z</time>
      </trkpt>
      <trkpt lat="49.74303" lon="2.16309">
        <ele>83.5</ele>
        <time>2022-05-11T13:19:02Z</time>
      </trkpt>
      <trkpt lat="49.74303" lon="2.16311">
        <ele>83.5</ele>
        <time>2022-05-11T13:19:03Z</time>
      </trkpt>
      <trkpt lat="49.74303" lon="2.16312">
        <ele>83.5</ele>
        <time>2022-05-11T13:19:04Z</time>
      </trkpt>
      <trkpt lat="49.74303" lon="2.16314">
        <ele>83.6</ele>
        <time>2022-05-11T13:19:05Z</time>
      </trkpt>
      <trkpt lat="49.74303" lon="2.16316">
        <ele>83.6</ele>
        <time>2022-05-11T13:19:06Z</time>
      </trkpt>
      <trkpt lat="49.74303" lon="2.16319">
        <ele>83.7</ele>
        <time>2022-05-11T13:19:08Z</time>
      </trkpt>
      <trkpt lat="49.74303" lon="2.16321">
        <ele>83.7</ele>
        <time>2022-05-11T13:19:09Z</time>
      </trkpt>
      <trkpt lat="49.74303" lon="2.16322">
        <ele>83.7</ele>
        <time>2022-05-11T13:19:10Z</time>
      </trkpt>
      <trkpt lat="49.74303" lon="2.16324">
        <ele>83.8</ele>
        <time>2022-05-11T13:19:11Z</time>
      </trkpt>
      <trkpt lat="49.74303" lon="2.16326">
        <ele>83.8</ele>
        <time>2022-05-11T13:19:12Z</time>
      </trkpt>
      <trkpt lat="49.74303" lon="2.16327">
        <ele>83.8</ele>
        <time>2022-05-11T13:19:13Z</time>
      </trkpt>
      <trkpt lat="49.74304" lon="2.16328">
        <ele>83.9</ele>
        <time>2022-05-11T13:19:14Z</time>
      </trkpt>
      <trkpt lat="49.74304" lon="2.1633">
        <ele>83.9</ele>
        <time>2022-05-11T13:19:16Z</time>
      </trkpt>
      <trkpt lat="49.74304" lon="2.16332">
        <ele>83.9</ele>
        <time>2022-05-11T13:19:17Z</time>
      </trkpt>
      <trkpt lat="49.74305" lon="2.16333">
        <ele>84</ele>
        <time>2022-05-11T13:19:18Z</time>
      </trkpt>
      <trkpt lat="49.74305" lon="2.16335">
        <ele>84</ele>
        <time>2022-05-11T13:19:19Z</time>
      </trkpt>
      <trkpt lat="49.74306" lon="2.16336">
        <ele>84</ele>
        <time>2022-05-11T13:19:21Z</time>
      </trkpt>
      <trkpt lat="49.74306" lon="2.16337">
        <ele>84.1</ele>
        <time>2022-05-11T13:19:22Z</time>
      </trkpt>
      <trkpt lat="49.74306" lon="2.1634">
        <ele>84.1</ele>
        <time>2022-05-11T13:19:23Z</time>
      </trkpt>
      <trkpt lat="49.74306" lon="2.16341">
        <ele>84.1</ele>
        <time>2022-05-11T13:19:24Z</time>
      </trkpt>
      <trkpt lat="49.74307" lon="2.16342">
        <ele>84.2</ele>
        <time>2022-05-11T13:19:25Z</time>
      </trkpt>
      <trkpt lat="49.74307" lon="2.16343">
        <ele>84.2</ele>
        <time>2022-05-11T13:19:26Z</time>
      </trkpt>
      <trkpt lat="49.74307" lon="2.16346">
        <ele>84.2</ele>
        <time>2022-05-11T13:19:28Z</time>
      </trkpt>
      <trkpt lat="49.74308" lon="2.16347">
        <ele>84.3</ele>
        <time>2022-05-11T13:19:29Z</time>
      </trkpt>
      <trkpt lat="49.74308" lon="2.16348">
        <ele>84.3</ele>
        <time>2022-05-11T13:19:30Z</time>
      </trkpt>
      <trkpt lat="49.74308" lon="2.16351">
        <ele>84.3</ele>
        <time>2022-05-11T13:19:31Z</time>
      </trkpt>
      <trkpt lat="49.74308" lon="2.16352">
        <ele>84.3</ele>
        <time>2022-05-11T13:19:33Z</time>
      </trkpt>
      <trkpt lat="49.74309" lon="2.16354">
        <ele>84.4</ele>
        <time>2022-05-11T13:19:34Z</time>
      </trkpt>
      <trkpt lat="49.74309" lon="2.16356">
        <ele>84.4</ele>
        <time>2022-05-11T13:19:35Z</time>
      </trkpt>
      <trkpt lat="49.74309" lon="2.16357">
        <ele>84.4</ele>
        <time>2022-05-11T13:19:36Z</time>
      </trkpt>
      <trkpt lat="49.74309" lon="2.16359">
        <ele>84.4</ele>
        <time>2022-05-11T13:19:37Z</time>
      </trkpt>
      <trkpt lat="49.74309" lon="2.1636">
        <ele>84.5</ele>
        <time>2022-05-11T13:19:38Z</time>
      </trkpt>
      <trkpt lat="49.7431" lon="2.16362">
        <ele>84.5</ele>
        <time>2022-05-11T13:19:39Z</time>
      </trkpt>
      <trkpt lat="49.7431" lon="2.16363">
        <ele>84.5</ele>
        <time>2022-05-11T13:19:40Z</time>
      </trkpt>
      <trkpt lat="49.7431" lon="2.16365">
        <ele>84.5</ele>
        <time>2022-05-11T13:19:41Z</time>
      </trkpt>
      <trkpt lat="49.74311" lon="2.16367">
        <ele>84.5</ele>
        <time>2022-05-11T13:19:42Z</time>
      </trkpt>
      <trkpt lat="49.74311" lon="2.16368">
        <ele>84.6</ele>
        <time>2022-05-11T13:19:43Z</time>
      </trkpt>
      <trkpt lat="49.74311" lon="2.1637">
        <ele>84.6</ele>
        <time>2022-05-11T13:19:44Z</time>
      </trkpt>
      <trkpt lat="49.74312" lon="2.16372">
        <ele>84.6</ele>
        <time>2022-05-11T13:19:46Z</time>
      </trkpt>
      <trkpt lat="49.74312" lon="2.16373">
        <ele>84.6</ele>
        <time>2022-05-11T13:19:47Z</time>
      </trkpt>
      <trkpt lat="49.74312" lon="2.16375">
        <ele>84.6</ele>
        <time>2022-05-11T13:19:48Z</time>
      </trkpt>
      <trkpt lat="49.74312" lon="2.16376">
        <ele>84.7</ele>
        <time>2022-05-11T13:19:49Z</time>
      </trkpt>
      <trkpt lat="49.74312" lon="2.16378">
        <ele>84.7</ele>
        <time>2022-05-11T13:19:50Z</time>
      </trkpt>
      <trkpt lat="49.74312" lon="2.16379">
        <ele>84.7</ele>
        <time>2022-05-11T13:19:51Z</time>
      </trkpt>
      <trkpt lat="49.74312" lon="2.16381">
        <ele>84.7</ele>
        <time>2022-05-11T13:19:52Z</time>
      </trkpt>
      <trkpt lat="49.74313" lon="2.16383">
        <ele>84.7</ele>
        <time>2022-05-11T13:19:53Z</time>
      </trkpt>
      <trkpt lat="49.74313" lon="2.16384">
        <ele>84.8</ele>
        <time>2022-05-11T13:19:54Z</time>
      </trkpt>
      <trkpt lat="49.74313" lon="2.16386">
        <ele>84.8</ele>
        <time>2022-05-11T13:19:56Z</time>
      </trkpt>
      <trkpt lat="49.74313" lon="2.16388">
        <ele>84.8</ele>
        <time>2022-05-11T13:19:57Z</time>
      </trkpt>
      <trkpt lat="49.74313" lon="2.16388">
        <ele>84.8</ele>
        <time>2022-05-11T13:19:58Z</time>
      </trkpt>
      <trkpt lat="49.74313" lon="2.16388">
        <ele>84.8</ele>
        <time>2022-05-11T13:19:59Z</time>
      </trkpt>
      <trkpt lat="49.74313" lon="2.16389">
        <ele>84.8</ele>
        <time>2022-05-11T13:20:01Z</time>
      </trkpt>
      <trkpt lat="49.74313" lon="2.1639">
        <ele>84.8</ele>
        <time>2022-05-11T13:20:02Z</time>
      </trkpt>
      <trkpt lat="49.74314" lon="2.16391">
        <ele>84.8</ele>
        <time>2022-05-11T13:20:03Z</time>
      </trkpt>
      <trkpt lat="49.74314" lon="2.16393">
        <ele>84.9</ele>
        <time>2022-05-11T13:20:05Z</time>
      </trkpt>
      <trkpt lat="49.74314" lon="2.16395">
        <ele>84.9</ele>
        <time>2022-05-11T13:20:07Z</time>
      </trkpt>
      <trkpt lat="49.74315" lon="2.16396">
        <ele>84.9</ele>
        <time>2022-05-11T13:20:08Z</time>
      </trkpt>
      <trkpt lat="49.74315" lon="2.16399">
        <ele>84.9</ele>
        <time>2022-05-11T13:20:09Z</time>
      </trkpt>
      <trkpt lat="49.74316" lon="2.164">
        <ele>84.9</ele>
        <time>2022-05-11T13:20:10Z</time>
      </trkpt>
      <trkpt lat="49.74316" lon="2.16401">
        <ele>85</ele>
        <time>2022-05-11T13:20:11Z</time>
      </trkpt>
      <trkpt lat="49.74316" lon="2.16404">
        <ele>85</ele>
        <time>2022-05-11T13:20:12Z</time>
      </trkpt>
      <trkpt lat="49.74317" lon="2.16406">
        <ele>85</ele>
        <time>2022-05-11T13:20:13Z</time>
      </trkpt>
      <trkpt lat="49.74317" lon="2.16407">
        <ele>85</ele>
        <time>2022-05-11T13:20:14Z</time>
      </trkpt>
      <trkpt lat="49.74317" lon="2.16409">
        <ele>85</ele>
        <time>2022-05-11T13:20:16Z</time>
      </trkpt>
      <trkpt lat="49.74317" lon="2.1641">
        <ele>85.1</ele>
        <time>2022-05-11T13:20:17Z</time>
      </trkpt>
      <trkpt lat="49.74318" lon="2.16412">
        <ele>85.1</ele>
        <time>2022-05-11T13:20:18Z</time>
      </trkpt>
      <trkpt lat="49.74318" lon="2.16415">
        <ele>85.1</ele>
        <time>2022-05-11T13:20:19Z</time>
      </trkpt>
      <trkpt lat="49.74319" lon="2.16417">
        <ele>85.1</ele>
        <time>2022-05-11T13:20:21Z</time>
      </trkpt>
      <trkpt lat="49.74319" lon="2.16418">
        <ele>85.2</ele>
        <time>2022-05-11T13:20:23Z</time>
      </trkpt>
      <trkpt lat="49.7432" lon="2.1642">
        <ele>85.2</ele>
        <time>2022-05-11T13:20:24Z</time>
      </trkpt>
      <trkpt lat="49.7432" lon="2.16422">
        <ele>85.2</ele>
        <time>2022-05-11T13:20:25Z</time>
      </trkpt>
      <trkpt lat="49.74321" lon="2.16424">
        <ele>85.2</ele>
        <time>2022-05-11T13:20:26Z</time>
      </trkpt>
      <trkpt lat="49.74321" lon="2.16427">
        <ele>85.3</ele>
        <time>2022-05-11T13:20:28Z</time>
      </trkpt>
      <trkpt lat="49.74322" lon="2.16429">
        <ele>85.3</ele>
        <time>2022-05-11T13:20:29Z</time>
      </trkpt>
      <trkpt lat="49.74323" lon="2.1643">
        <ele>85.3</ele>
        <time>2022-05-11T13:20:30Z</time>
      </trkpt>
      <trkpt lat="49.74323" lon="2.16432">
        <ele>85.4</ele>
        <time>2022-05-11T13:20:31Z</time>
      </trkpt>
      <trkpt lat="49.74324" lon="2.16433">
        <ele>85.4</ele>
        <time>2022-05-11T13:20:32Z</time>
      </trkpt>
      <trkpt lat="49.74324" lon="2.16435">
        <ele>85.4</ele>
        <time>2022-05-11T13:20:33Z</time>
      </trkpt>
      <trkpt lat="49.74325" lon="2.16436">
        <ele>85.4</ele>
        <time>2022-05-11T13:20:34Z</time>
      </trkpt>
      <trkpt lat="49.74326" lon="2.16438">
        <ele>85.5</ele>
        <time>2022-05-11T13:20:36Z</time>
      </trkpt>
      <trkpt lat="49.74327" lon="2.1644">
        <ele>85.5</ele>
        <time>2022-05-11T13:20:37Z</time>
      </trkpt>
      <trkpt lat="49.74328" lon="2.16443">
        <ele>85.5</ele>
        <time>2022-05-11T13:20:39Z</time>
      </trkpt>
      <trkpt lat="49.74329" lon="2.16445">
        <ele>85.6</ele>
        <time>2022-05-11T13:20:41Z</time>
      </trkpt>
      <trkpt lat="49.7433" lon="2.16447">
        <ele>85.6</ele>
        <time>2022-05-11T13:20:42Z</time>
      </trkpt>
      <trkpt lat="49.7433" lon="2.16448">
        <ele>85.6</ele>
        <time>2022-05-11T13:20:43Z</time>
      </trkpt>
      <trkpt lat="49.74331" lon="2.16449">
        <ele>85.6</ele>
        <time>2022-05-11T13:20:44Z</time>
      </trkpt>
      <trkpt lat="49.74331" lon="2.1645">
        <ele>85.6</ele>
        <time>2022-05-11T13:20:45Z</time>
      </trkpt>
      <trkpt lat="49.74332" lon="2.16451">
        <ele>85.6</ele>
        <time>2022-05-11T13:20:46Z</time>
      </trkpt>
      <trkpt lat="49.74332" lon="2.16452">
        <ele>85.7</ele>
        <time>2022-05-11T13:20:48Z</time>
      </trkpt>
      <trkpt lat="49.74333" lon="2.16453">
        <ele>85.7</ele>
        <time>2022-05-11T13:20:49Z</time>
      </trkpt>
      <trkpt lat="49.74333" lon="2.16455">
        <ele>85.7</ele>
        <time>2022-05-11T13:20:50Z</time>
      </trkpt>
      <trkpt lat="49.74334" lon="2.16456">
        <ele>85.7</ele>
        <time>2022-05-11T13:20:51Z</time>
      </trkpt>
      <trkpt lat="49.74335" lon="2.16457">
        <ele>85.8</ele>
        <time>2022-05-11T13:20:52Z</time>
      </trkpt>
      <trkpt lat="49.74336" lon="2.16459">
        <ele>85.8</ele>
        <time>2022-05-11T13:20:54Z</time>
      </trkpt>
      <trkpt lat="49.74336" lon="2.1646">
        <ele>85.8</ele>
        <time>2022-05-11T13:20:55Z</time>
      </trkpt>
      <trkpt lat="49.74337" lon="2.16462">
        <ele>85.8</ele>
        <time>2022-05-11T13:20:56Z</time>
      </trkpt>
      <trkpt lat="49.74338" lon="2.16463">
        <ele>85.8</ele>
        <time>2022-05-11T13:20:58Z</time>
      </trkpt>
      <trkpt lat="49.74338" lon="2.16464">
        <ele>85.9</ele>
        <time>2022-05-11T13:20:59Z</time>
      </trkpt>
      <trkpt lat="49.74339" lon="2.16465">
        <ele>85.9</ele>
        <time>2022-05-11T13:21:00Z</time>
      </trkpt>
      <trkpt lat="49.74339" lon="2.16467">
        <ele>85.9</ele>
        <time>2022-05-11T13:21:01Z</time>
      </trkpt>
      <trkpt lat="49.7434" lon="2.16468">
        <ele>85.9</ele>
        <time>2022-05-11T13:21:03Z</time>
      </trkpt>
      <trkpt lat="49.7434" lon="2.1647">
        <ele>85.9</ele>
        <time>2022-05-11T13:21:04Z</time>
      </trkpt>
      <trkpt lat="49.7434" lon="2.16471">
        <ele>86</ele>
        <time>2022-05-11T13:21:05Z</time>
      </trkpt>
      <trkpt lat="49.7434" lon="2.16472">
        <ele>86</ele>
        <time>2022-05-11T13:21:06Z</time>
      </trkpt>
      <trkpt lat="49.74341" lon="2.16474">
        <ele>86</ele>
        <time>2022-05-11T13:21:07Z</time>
      </trkpt>
      <trkpt lat="49.74341" lon="2.16476">
        <ele>86</ele>
        <time>2022-05-11T13:21:08Z</time>
      </trkpt>
      <trkpt lat="49.74342" lon="2.16477">
        <ele>86</ele>
        <time>2022-05-11T13:21:09Z</time>
      </trkpt>
      <trkpt lat="49.74342" lon="2.16479">
        <ele>86</ele>
        <time>2022-05-11T13:21:11Z</time>
      </trkpt>
      <trkpt lat="49.74343" lon="2.1648">
        <ele>86.1</ele>
        <time>2022-05-11T13:21:12Z</time>
      </trkpt>
      <trkpt lat="49.74343" lon="2.16483">
        <ele>86.1</ele>
        <time>2022-05-11T13:21:13Z</time>
      </trkpt>
      <trkpt lat="49.74344" lon="2.16484">
        <ele>86.1</ele>
        <time>2022-05-11T13:21:15Z</time>
      </trkpt>
      <trkpt lat="49.74344" lon="2.16485">
        <ele>86.1</ele>
        <time>2022-05-11T13:21:16Z</time>
      </trkpt>
      <trkpt lat="49.74344" lon="2.16486">
        <ele>86.1</ele>
        <time>2022-05-11T13:21:17Z</time>
      </trkpt>
      <trkpt lat="49.74345" lon="2.16487">
        <ele>86.1</ele>
        <time>2022-05-11T13:21:18Z</time>
      </trkpt>
      <trkpt lat="49.74345" lon="2.16489">
        <ele>86.1</ele>
        <time>2022-05-11T13:21:19Z</time>
      </trkpt>
      <trkpt lat="49.74346" lon="2.1649">
        <ele>86.1</ele>
        <time>2022-05-11T13:21:20Z</time>
      </trkpt>
      <trkpt lat="49.74347" lon="2.16491">
        <ele>86.2</ele>
        <time>2022-05-11T13:21:21Z</time>
      </trkpt>
      <trkpt lat="49.74347" lon="2.16493">
        <ele>86.2</ele>
        <time>2022-05-11T13:21:22Z</time>
      </trkpt>
      <trkpt lat="49.74348" lon="2.16493">
        <ele>86.2</ele>
        <time>2022-05-11T13:21:23Z</time>
      </trkpt>
      <trkpt lat="49.7435" lon="2.16495">
        <ele>86.2</ele>
        <time>2022-05-11T13:21:25Z</time>
      </trkpt>
      <trkpt lat="49.74351" lon="2.16494">
        <ele>86.2</ele>
        <time>2022-05-11T13:21:26Z</time>
      </trkpt>
      <trkpt lat="49.74353" lon="2.16495">
        <ele>86.2</ele>
        <time>2022-05-11T13:21:27Z</time>
      </trkpt>
      <trkpt lat="49.74354" lon="2.16496">
        <ele>86.2</ele>
        <time>2022-05-11T13:21:28Z</time>
      </trkpt>
      <trkpt lat="49.74355" lon="2.16498">
        <ele>86.3</ele>
        <time>2022-05-11T13:21:30Z</time>
      </trkpt>
      <trkpt lat="49.74355" lon="2.16499">
        <ele>86.3</ele>
        <time>2022-05-11T13:21:31Z</time>
      </trkpt>
      <trkpt lat="49.74356" lon="2.165">
        <ele>86.3</ele>
        <time>2022-05-11T13:21:32Z</time>
      </trkpt>
      <trkpt lat="49.74357" lon="2.16502">
        <ele>86.3</ele>
        <time>2022-05-11T13:21:34Z</time>
      </trkpt>
      <trkpt lat="49.74357" lon="2.16502">
        <ele>86.3</ele>
        <time>2022-05-11T13:21:35Z</time>
      </trkpt>
      <trkpt lat="49.74358" lon="2.16503">
        <ele>86.3</ele>
        <time>2022-05-11T13:21:36Z</time>
      </trkpt>
      <trkpt lat="49.74359" lon="2.16504">
        <ele>86.3</ele>
        <time>2022-05-11T13:21:37Z</time>
      </trkpt>
      <trkpt lat="49.7436" lon="2.16505">
        <ele>86.3</ele>
        <time>2022-05-11T13:21:39Z</time>
      </trkpt>
      <trkpt lat="49.74361" lon="2.16507">
        <ele>86.4</ele>
        <time>2022-05-11T13:21:40Z</time>
      </trkpt>
      <trkpt lat="49.74361" lon="2.16507">
        <ele>86.4</ele>
        <time>2022-05-11T13:21:41Z</time>
      </trkpt>
      <trkpt lat="49.74362" lon="2.16508">
        <ele>86.4</ele>
        <time>2022-05-11T13:21:42Z</time>
      </trkpt>
      <trkpt lat="49.74363" lon="2.16509">
        <ele>86.4</ele>
        <time>2022-05-11T13:21:43Z</time>
      </trkpt>
      <trkpt lat="49.74364" lon="2.1651">
        <ele>86.4</ele>
        <time>2022-05-11T13:21:44Z</time>
      </trkpt>
      <trkpt lat="49.74365" lon="2.16511">
        <ele>86.4</ele>
        <time>2022-05-11T13:21:46Z</time>
      </trkpt>
      <trkpt lat="49.74367" lon="2.16514">
        <ele>86.4</ele>
        <time>2022-05-11T13:21:47Z</time>
      </trkpt>
      <trkpt lat="49.74368" lon="2.16515">
        <ele>86.4</ele>
        <time>2022-05-11T13:21:48Z</time>
      </trkpt>
      <trkpt lat="49.74368" lon="2.16517">
        <ele>86.5</ele>
        <time>2022-05-11T13:21:49Z</time>
      </trkpt>
      <trkpt lat="49.74369" lon="2.16518">
        <ele>86.5</ele>
        <time>2022-05-11T13:21:51Z</time>
      </trkpt>
      <trkpt lat="49.74369" lon="2.16519">
        <ele>86.5</ele>
        <time>2022-05-11T13:21:52Z</time>
      </trkpt>
      <trkpt lat="49.7437" lon="2.16521">
        <ele>86.5</ele>
        <time>2022-05-11T13:21:53Z</time>
      </trkpt>
      <trkpt lat="49.74371" lon="2.16522">
        <ele>86.5</ele>
        <time>2022-05-11T13:21:54Z</time>
      </trkpt>
      <trkpt lat="49.74371" lon="2.16524">
        <ele>86.5</ele>
        <time>2022-05-11T13:21:55Z</time>
      </trkpt>
      <trkpt lat="49.74372" lon="2.16525">
        <ele>86.5</ele>
        <time>2022-05-11T13:21:56Z</time>
      </trkpt>
      <trkpt lat="49.74372" lon="2.16527">
        <ele>86.5</ele>
        <time>2022-05-11T13:21:57Z</time>
      </trkpt>
      <trkpt lat="49.74372" lon="2.16529">
        <ele>86.5</ele>
        <time>2022-05-11T13:21:58Z</time>
      </trkpt>
      <trkpt lat="49.74372" lon="2.16531">
        <ele>86.5</ele>
        <time>2022-05-11T13:22:00Z</time>
      </trkpt>
      <trkpt lat="49.74373" lon="2.16532">
        <ele>86.5</ele>
        <time>2022-05-11T13:22:01Z</time>
      </trkpt>
      <trkpt lat="49.74373" lon="2.16533">
        <ele>86.5</ele>
        <time>2022-05-11T13:22:02Z</time>
      </trkpt>
      <trkpt lat="49.74374" lon="2.16534">
        <ele>86.5</ele>
        <time>2022-05-11T13:22:03Z</time>
      </trkpt>
      <trkpt lat="49.74374" lon="2.16535">
        <ele>86.5</ele>
        <time>2022-05-11T13:22:04Z</time>
      </trkpt>
      <trkpt lat="49.74375" lon="2.16536">
        <ele>86.5</ele>
        <time>2022-05-11T13:22:05Z</time>
      </trkpt>
      <trkpt lat="49.74375" lon="2.16537">
        <ele>86.5</ele>
        <time>2022-05-11T13:22:07Z</time>
      </trkpt>
      <trkpt lat="49.74376" lon="2.16538">
        <ele>86.5</ele>
        <time>2022-05-11T13:22:08Z</time>
      </trkpt>
      <trkpt lat="49.74377" lon="2.16539">
        <ele>86.5</ele>
        <time>2022-05-11T13:22:09Z</time>
      </trkpt>
      <trkpt lat="49.74378" lon="2.1654">
        <ele>86.5</ele>
        <time>2022-05-11T13:22:10Z</time>
      </trkpt>
      <trkpt lat="49.74379" lon="2.16542">
        <ele>86.5</ele>
        <time>2022-05-11T13:22:12Z</time>
      </trkpt>
      <trkpt lat="49.7438" lon="2.16543">
        <ele>86.5</ele>
        <time>2022-05-11T13:22:13Z</time>
      </trkpt>
      <trkpt lat="49.74381" lon="2.16544">
        <ele>86.5</ele>
        <time>2022-05-11T13:22:14Z</time>
      </trkpt>
      <trkpt lat="49.74381" lon="2.16545">
        <ele>86.5</ele>
        <time>2022-05-11T13:22:15Z</time>
      </trkpt>
      <trkpt lat="49.74382" lon="2.16547">
        <ele>86.5</ele>
        <time>2022-05-11T13:22:16Z</time>
      </trkpt>
      <trkpt lat="49.74383" lon="2.16548">
        <ele>86.5</ele>
        <time>2022-05-11T13:22:17Z</time>
      </trkpt>
      <trkpt lat="49.74384" lon="2.16549">
        <ele>86.5</ele>
        <time>2022-05-11T13:22:18Z</time>
      </trkpt>
      <trkpt lat="49.74384" lon="2.1655">
        <ele>86.5</ele>
        <time>2022-05-11T13:22:19Z</time>
      </trkpt>
      <trkpt lat="49.74385" lon="2.16551">
        <ele>86.5</ele>
        <time>2022-05-11T13:22:20Z</time>
      </trkpt>
      <trkpt lat="49.74386" lon="2.16552">
        <ele>86.5</ele>
        <time>2022-05-11T13:22:21Z</time>
      </trkpt>
      <trkpt lat="49.74387" lon="2.16554">
        <ele>86.5</ele>
        <time>2022-05-11T13:22:22Z</time>
      </trkpt>
      <trkpt lat="49.74388" lon="2.16554">
        <ele>86.5</ele>
        <time>2022-05-11T13:22:23Z</time>
      </trkpt>
      <trkpt lat="49.74388" lon="2.16555">
        <ele>86.5</ele>
        <time>2022-05-11T13:22:24Z</time>
      </trkpt>
      <trkpt lat="49.74389" lon="2.16555">
        <ele>86.5</ele>
        <time>2022-05-11T13:22:25Z</time>
      </trkpt>
      <trkpt lat="49.7439" lon="2.16557">
        <ele>86.5</ele>
        <time>2022-05-11T13:22:26Z</time>
      </trkpt>
      <trkpt lat="49.74391" lon="2.16558">
        <ele>86.5</ele>
        <time>2022-05-11T13:22:27Z</time>
      </trkpt>
      <trkpt lat="49.74393" lon="2.1656">
        <ele>86.5</ele>
        <time>2022-05-11T13:22:29Z</time>
      </trkpt>
      <trkpt lat="49.74393" lon="2.1656">
        <ele>86.5</ele>
        <time>2022-05-11T13:22:30Z</time>
      </trkpt>
      <trkpt lat="49.74394" lon="2.16561">
        <ele>86.5</ele>
        <time>2022-05-11T13:22:31Z</time>
      </trkpt>
      <trkpt lat="49.74394" lon="2.16561">
        <ele>86.5</ele>
        <time>2022-05-11T13:22:32Z</time>
      </trkpt>
      <trkpt lat="49.74396" lon="2.16563">
        <ele>86.5</ele>
        <time>2022-05-11T13:22:33Z</time>
      </trkpt>
      <trkpt lat="49.74396" lon="2.16564">
        <ele>86.4</ele>
        <time>2022-05-11T13:22:34Z</time>
      </trkpt>
      <trkpt lat="49.74397" lon="2.16565">
        <ele>86.4</ele>
        <time>2022-05-11T13:22:35Z</time>
      </trkpt>
      <trkpt lat="49.74398" lon="2.16566">
        <ele>86.4</ele>
        <time>2022-05-11T13:22:37Z</time>
      </trkpt>
      <trkpt lat="49.74399" lon="2.16567">
        <ele>86.4</ele>
        <time>2022-05-11T13:22:38Z</time>
      </trkpt>
      <trkpt lat="49.74401" lon="2.16569">
        <ele>86.4</ele>
        <time>2022-05-11T13:22:40Z</time>
      </trkpt>
      <trkpt lat="49.74401" lon="2.16569">
        <ele>86.4</ele>
        <time>2022-05-11T13:22:41Z</time>
      </trkpt>
      <trkpt lat="49.74402" lon="2.1657">
        <ele>86.4</ele>
        <time>2022-05-11T13:22:42Z</time>
      </trkpt>
      <trkpt lat="49.74402" lon="2.16572">
        <ele>86.4</ele>
        <time>2022-05-11T13:22:44Z</time>
      </trkpt>
      <trkpt lat="49.74403" lon="2.16572">
        <ele>86.4</ele>
        <time>2022-05-11T13:22:45Z</time>
      </trkpt>
      <trkpt lat="49.74403" lon="2.16573">
        <ele>86.4</ele>
        <time>2022-05-11T13:22:46Z</time>
      </trkpt>
      <trkpt lat="49.74404" lon="2.16575">
        <ele>86.4</ele>
        <time>2022-05-11T13:22:48Z</time>
      </trkpt>
      <trkpt lat="49.74405" lon="2.16576">
        <ele>86.4</ele>
        <time>2022-05-11T13:22:49Z</time>
      </trkpt>
      <trkpt lat="49.74405" lon="2.16578">
        <ele>86.4</ele>
        <time>2022-05-11T13:22:50Z</time>
      </trkpt>
      <trkpt lat="49.74406" lon="2.16579">
        <ele>86.4</ele>
        <time>2022-05-11T13:22:51Z</time>
      </trkpt>
      <trkpt lat="49.74406" lon="2.1658">
        <ele>86.4</ele>
        <time>2022-05-11T13:22:52Z</time>
      </trkpt>
      <trkpt lat="49.74408" lon="2.16583">
        <ele>86.4</ele>
        <time>2022-05-11T13:22:53Z</time>
      </trkpt>
      <trkpt lat="49.74408" lon="2.16584">
        <ele>86.4</ele>
        <time>2022-05-11T13:22:55Z</time>
      </trkpt>
      <trkpt lat="49.74409" lon="2.16586">
        <ele>86.4</ele>
        <time>2022-05-11T13:22:56Z</time>
      </trkpt>
      <trkpt lat="49.74409" lon="2.16587">
        <ele>86.4</ele>
        <time>2022-05-11T13:22:57Z</time>
      </trkpt>
      <trkpt lat="49.7441" lon="2.16588">
        <ele>86.4</ele>
        <time>2022-05-11T13:22:58Z</time>
      </trkpt>
      <trkpt lat="49.7441" lon="2.1659">
        <ele>86.4</ele>
        <time>2022-05-11T13:22:59Z</time>
      </trkpt>
      <trkpt lat="49.74411" lon="2.16591">
        <ele>86.4</ele>
        <time>2022-05-11T13:23:01Z</time>
      </trkpt>
      <trkpt lat="49.74411" lon="2.16592">
        <ele>86.4</ele>
        <time>2022-05-11T13:23:02Z</time>
      </trkpt>
      <trkpt lat="49.74412" lon="2.16593">
        <ele>86.4</ele>
        <time>2022-05-11T13:23:03Z</time>
      </trkpt>
      <trkpt lat="49.74412" lon="2.16594">
        <ele>86.5</ele>
        <time>2022-05-11T13:23:04Z</time>
      </trkpt>
      <trkpt lat="49.74413" lon="2.16595">
        <ele>86.5</ele>
        <time>2022-05-11T13:23:05Z</time>
      </trkpt>
      <trkpt lat="49.74413" lon="2.16596">
        <ele>86.5</ele>
        <time>2022-05-11T13:23:06Z</time>
      </trkpt>
      <trkpt lat="49.74414" lon="2.16598">
        <ele>86.5</ele>
        <time>2022-05-11T13:23:07Z</time>
      </trkpt>
      <trkpt lat="49.74415" lon="2.16599">
        <ele>86.5</ele>
        <time>2022-05-11T13:23:08Z</time>
      </trkpt>
      <trkpt lat="49.74415" lon="2.16601">
        <ele>86.5</ele>
        <time>2022-05-11T13:23:10Z</time>
      </trkpt>
      <trkpt lat="49.74416" lon="2.16602">
        <ele>86.5</ele>
        <time>2022-05-11T13:23:11Z</time>
      </trkpt>
      <trkpt lat="49.74417" lon="2.16604">
        <ele>86.5</ele>
        <time>2022-05-11T13:23:13Z</time>
      </trkpt>
      <trkpt lat="49.74417" lon="2.16605">
        <ele>86.5</ele>
        <time>2022-05-11T13:23:14Z</time>
      </trkpt>
      <trkpt lat="49.74418" lon="2.16606">
        <ele>86.5</ele>
        <time>2022-05-11T13:23:15Z</time>
      </trkpt>
      <trkpt lat="49.74419" lon="2.16608">
        <ele>86.5</ele>
        <time>2022-05-11T13:23:17Z</time>
      </trkpt>
      <trkpt lat="49.7442" lon="2.1661">
        <ele>86.5</ele>
        <time>2022-05-11T13:23:18Z</time>
      </trkpt>
      <trkpt lat="49.74421" lon="2.16611">
        <ele>86.6</ele>
        <time>2022-05-11T13:23:19Z</time>
      </trkpt>
      <trkpt lat="49.74421" lon="2.16612">
        <ele>86.6</ele>
        <time>2022-05-11T13:23:20Z</time>
      </trkpt>
      <trkpt lat="49.74422" lon="2.16613">
        <ele>86.6</ele>
        <time>2022-05-11T13:23:21Z</time>
      </trkpt>
      <trkpt lat="49.74423" lon="2.16614">
        <ele>86.6</ele>
        <time>2022-05-11T13:23:22Z</time>
      </trkpt>
      <trkpt lat="49.74424" lon="2.16616">
        <ele>86.6</ele>
        <time>2022-05-11T13:23:23Z</time>
      </trkpt>
      <trkpt lat="49.74425" lon="2.16617">
        <ele>86.6</ele>
        <time>2022-05-11T13:23:24Z</time>
      </trkpt>
      <trkpt lat="49.74426" lon="2.16618">
        <ele>86.6</ele>
        <time>2022-05-11T13:23:26Z</time>
      </trkpt>
      <trkpt lat="49.74426" lon="2.16619">
        <ele>86.6</ele>
        <time>2022-05-11T13:23:27Z</time>
      </trkpt>
      <trkpt lat="49.74427" lon="2.1662">
        <ele>86.5</ele>
        <time>2022-05-11T13:23:28Z</time>
      </trkpt>
      <trkpt lat="49.74428" lon="2.16622">
        <ele>86.5</ele>
        <time>2022-05-11T13:23:29Z</time>
      </trkpt>
      <trkpt lat="49.74429" lon="2.16623">
        <ele>86.5</ele>
        <time>2022-05-11T13:23:30Z</time>
      </trkpt>
      <trkpt lat="49.7443" lon="2.16625">
        <ele>86.5</ele>
        <time>2022-05-11T13:23:32Z</time>
      </trkpt>
      <trkpt lat="49.74431" lon="2.16626">
        <ele>86.5</ele>
        <time>2022-05-11T13:23:34Z</time>
      </trkpt>
      <trkpt lat="49.74431" lon="2.16628">
        <ele>86.5</ele>
        <time>2022-05-11T13:23:35Z</time>
      </trkpt>
      <trkpt lat="49.74432" lon="2.16629">
        <ele>86.5</ele>
        <time>2022-05-11T13:23:36Z</time>
      </trkpt>
      <trkpt lat="49.74431" lon="2.16629">
        <ele>86.5</ele>
        <time>2022-05-11T13:23:37Z</time>
      </trkpt>
      <trkpt lat="49.74432" lon="2.1663">
        <ele>86.5</ele>
        <time>2022-05-11T13:23:38Z</time>
      </trkpt>
      <trkpt lat="49.74433" lon="2.16632">
        <ele>86.5</ele>
        <time>2022-05-11T13:23:40Z</time>
      </trkpt>
      <trkpt lat="49.74434" lon="2.16635">
        <ele>86.5</ele>
        <time>2022-05-11T13:23:41Z</time>
      </trkpt>
      <trkpt lat="49.74434" lon="2.16637">
        <ele>86.5</ele>
        <time>2022-05-11T13:23:42Z</time>
      </trkpt>
      <trkpt lat="49.74435" lon="2.16638">
        <ele>86.5</ele>
        <time>2022-05-11T13:23:44Z</time>
      </trkpt>
      <trkpt lat="49.74435" lon="2.1664">
        <ele>86.5</ele>
        <time>2022-05-11T13:23:45Z</time>
      </trkpt>
      <trkpt lat="49.74436" lon="2.16642">
        <ele>86.5</ele>
        <time>2022-05-11T13:23:47Z</time>
      </trkpt>
      <trkpt lat="49.74436" lon="2.16643">
        <ele>86.5</ele>
        <time>2022-05-11T13:23:48Z</time>
      </trkpt>
      <trkpt lat="49.74437" lon="2.16645">
        <ele>86.4</ele>
        <time>2022-05-11T13:23:49Z</time>
      </trkpt>
      <trkpt lat="49.74438" lon="2.16646">
        <ele>86.4</ele>
        <time>2022-05-11T13:23:50Z</time>
      </trkpt>
      <trkpt lat="49.74439" lon="2.16648">
        <ele>86.4</ele>
        <time>2022-05-11T13:23:51Z</time>
      </trkpt>
      <trkpt lat="49.74439" lon="2.16651">
        <ele>86.4</ele>
        <time>2022-05-11T13:23:52Z</time>
      </trkpt>
      <trkpt lat="49.74441" lon="2.16655">
        <ele>86.4</ele>
        <time>2022-05-11T13:23:54Z</time>
      </trkpt>
      <trkpt lat="49.74443" lon="2.16657">
        <ele>86.4</ele>
        <time>2022-05-11T13:23:55Z</time>
      </trkpt>
      <trkpt lat="49.74443" lon="2.16659">
        <ele>86.4</ele>
        <time>2022-05-11T13:23:56Z</time>
      </trkpt>
      <trkpt lat="49.74444" lon="2.16661">
        <ele>86.4</ele>
        <time>2022-05-11T13:23:57Z</time>
      </trkpt>
      <trkpt lat="49.74445" lon="2.16663">
        <ele>86.4</ele>
        <time>2022-05-11T13:23:58Z</time>
      </trkpt>
      <trkpt lat="49.74446" lon="2.16665">
        <ele>86.4</ele>
        <time>2022-05-11T13:23:59Z</time>
      </trkpt>
      <trkpt lat="49.74446" lon="2.16666">
        <ele>86.4</ele>
        <time>2022-05-11T13:24:00Z</time>
      </trkpt>
      <trkpt lat="49.74447" lon="2.16667">
        <ele>86.4</ele>
        <time>2022-05-11T13:24:01Z</time>
      </trkpt>
      <trkpt lat="49.74448" lon="2.16668">
        <ele>86.4</ele>
        <time>2022-05-11T13:24:02Z</time>
      </trkpt>
      <trkpt lat="49.74448" lon="2.16669">
        <ele>86.4</ele>
        <time>2022-05-11T13:24:03Z</time>
      </trkpt>
      <trkpt lat="49.74449" lon="2.16671">
        <ele>86.4</ele>
        <time>2022-05-11T13:24:04Z</time>
      </trkpt>
      <trkpt lat="49.7445" lon="2.16672">
        <ele>86.4</ele>
        <time>2022-05-11T13:24:06Z</time>
      </trkpt>
      <trkpt lat="49.7445" lon="2.16671">
        <ele>86.4</ele>
        <time>2022-05-11T13:24:07Z</time>
      </trkpt>
      <trkpt lat="49.7445" lon="2.16673">
        <ele>86.4</ele>
        <time>2022-05-11T13:24:08Z</time>
      </trkpt>
      <trkpt lat="49.74451" lon="2.16674">
        <ele>86.4</ele>
        <time>2022-05-11T13:24:09Z</time>
      </trkpt>
      <trkpt lat="49.74452" lon="2.16676">
        <ele>86.3</ele>
        <time>2022-05-11T13:24:10Z</time>
      </trkpt>
      <trkpt lat="49.74453" lon="2.16678">
        <ele>86.3</ele>
        <time>2022-05-11T13:24:11Z</time>
      </trkpt>
      <trkpt lat="49.74454" lon="2.1668">
        <ele>86.3</ele>
        <time>2022-05-11T13:24:12Z</time>
      </trkpt>
      <trkpt lat="49.74455" lon="2.16682">
        <ele>86.3</ele>
        <time>2022-05-11T13:24:13Z</time>
      </trkpt>
      <trkpt lat="49.74456" lon="2.16684">
        <ele>86.3</ele>
        <time>2022-05-11T13:24:14Z</time>
      </trkpt>
      <trkpt lat="49.74456" lon="2.16685">
        <ele>86.3</ele>
        <time>2022-05-11T13:24:16Z</time>
      </trkpt>
      <trkpt lat="49.74456" lon="2.16685">
        <ele>86.3</ele>
        <time>2022-05-11T13:24:17Z</time>
      </trkpt>
      <trkpt lat="49.74457" lon="2.16686">
        <ele>86.3</ele>
        <time>2022-05-11T13:24:18Z</time>
      </trkpt>
      <trkpt lat="49.74458" lon="2.16688">
        <ele>86.3</ele>
        <time>2022-05-11T13:24:19Z</time>
      </trkpt>
      <trkpt lat="49.74458" lon="2.1669">
        <ele>86.3</ele>
        <time>2022-05-11T13:24:20Z</time>
      </trkpt>
      <trkpt lat="49.74459" lon="2.16692">
        <ele>86.3</ele>
        <time>2022-05-11T13:24:22Z</time>
      </trkpt>
      <trkpt lat="49.7446" lon="2.16693">
        <ele>86.3</ele>
        <time>2022-05-11T13:24:23Z</time>
      </trkpt>
      <trkpt lat="49.7446" lon="2.16694">
        <ele>86.3</ele>
        <time>2022-05-11T13:24:24Z</time>
      </trkpt>
      <trkpt lat="49.7446" lon="2.16694">
        <ele>86.3</ele>
        <time>2022-05-11T13:24:25Z</time>
      </trkpt>
      <trkpt lat="49.74461" lon="2.16695">
        <ele>86.3</ele>
        <time>2022-05-11T13:24:26Z</time>
      </trkpt>
      <trkpt lat="49.74461" lon="2.16697">
        <ele>86.3</ele>
        <time>2022-05-11T13:24:27Z</time>
      </trkpt>
      <trkpt lat="49.74462" lon="2.16698">
        <ele>86.3</ele>
        <time>2022-05-11T13:24:29Z</time>
      </trkpt>
      <trkpt lat="49.74463" lon="2.167">
        <ele>86.3</ele>
        <time>2022-05-11T13:24:30Z</time>
      </trkpt>
      <trkpt lat="49.74463" lon="2.16701">
        <ele>86.3</ele>
        <time>2022-05-11T13:24:31Z</time>
      </trkpt>
      <trkpt lat="49.74464" lon="2.16703">
        <ele>86.3</ele>
        <time>2022-05-11T13:24:32Z</time>
      </trkpt>
      <trkpt lat="49.74465" lon="2.16705">
        <ele>86.3</ele>
        <time>2022-05-11T13:24:33Z</time>
      </trkpt>
      <trkpt lat="49.74465" lon="2.16707">
        <ele>86.3</ele>
        <time>2022-05-11T13:24:35Z</time>
      </trkpt>
      <trkpt lat="49.74466" lon="2.16708">
        <ele>86.3</ele>
        <time>2022-05-11T13:24:36Z</time>
      </trkpt>
      <trkpt lat="49.74467" lon="2.1671">
        <ele>86.3</ele>
        <time>2022-05-11T13:24:38Z</time>
      </trkpt>
      <trkpt lat="49.74467" lon="2.16711">
        <ele>86.3</ele>
        <time>2022-05-11T13:24:39Z</time>
      </trkpt>
      <trkpt lat="49.74468" lon="2.16713">
        <ele>86.3</ele>
        <time>2022-05-11T13:24:40Z</time>
      </trkpt>
      <trkpt lat="49.74469" lon="2.16714">
        <ele>86.3</ele>
        <time>2022-05-11T13:24:41Z</time>
      </trkpt>
      <trkpt lat="49.74469" lon="2.16715">
        <ele>86.3</ele>
        <time>2022-05-11T13:24:42Z</time>
      </trkpt>
      <trkpt lat="49.7447" lon="2.16716">
        <ele>86.3</ele>
        <time>2022-05-11T13:24:44Z</time>
      </trkpt>
      <trkpt lat="49.7447" lon="2.16717">
        <ele>86.2</ele>
        <time>2022-05-11T13:24:45Z</time>
      </trkpt>
      <trkpt lat="49.7447" lon="2.16718">
        <ele>86.2</ele>
        <time>2022-05-11T13:24:46Z</time>
      </trkpt>
      <trkpt lat="49.74471" lon="2.16719">
        <ele>86.2</ele>
        <time>2022-05-11T13:24:47Z</time>
      </trkpt>
      <trkpt lat="49.74471" lon="2.1672">
        <ele>86.2</ele>
        <time>2022-05-11T13:24:48Z</time>
      </trkpt>
      <trkpt lat="49.74472" lon="2.16722">
        <ele>86.2</ele>
        <time>2022-05-11T13:24:49Z</time>
      </trkpt>
      <trkpt lat="49.74472" lon="2.16723">
        <ele>86.2</ele>
        <time>2022-05-11T13:24:50Z</time>
      </trkpt>
      <trkpt lat="49.74473" lon="2.16725">
        <ele>86.2</ele>
        <time>2022-05-11T13:24:51Z</time>
      </trkpt>
      <trkpt lat="49.74473" lon="2.16726">
        <ele>86.2</ele>
        <time>2022-05-11T13:24:52Z</time>
      </trkpt>
      <trkpt lat="49.74475" lon="2.1673">
        <ele>86.2</ele>
        <time>2022-05-11T13:24:54Z</time>
      </trkpt>
      <trkpt lat="49.74476" lon="2.16732">
        <ele>86.2</ele>
        <time>2022-05-11T13:24:55Z</time>
      </trkpt>
      <trkpt lat="49.74476" lon="2.16733">
        <ele>86.2</ele>
        <time>2022-05-11T13:24:56Z</time>
      </trkpt>
      <trkpt lat="49.74476" lon="2.16734">
        <ele>86.2</ele>
        <time>2022-05-11T13:24:57Z</time>
      </trkpt>
      <trkpt lat="49.74477" lon="2.16735">
        <ele>86.2</ele>
        <time>2022-05-11T13:24:58Z</time>
      </trkpt>
      <trkpt lat="49.74477" lon="2.16736">
        <ele>86.2</ele>
        <time>2022-05-11T13:24:59Z</time>
      </trkpt>
      <trkpt lat="49.74478" lon="2.16737">
        <ele>86.2</ele>
        <time>2022-05-11T13:25:01Z</time>
      </trkpt>
      <trkpt lat="49.74478" lon="2.16739">
        <ele>86.2</ele>
        <time>2022-05-11T13:25:02Z</time>
      </trkpt>
      <trkpt lat="49.74479" lon="2.1674">
        <ele>86.2</ele>
        <time>2022-05-11T13:25:04Z</time>
      </trkpt>
      <trkpt lat="49.74479" lon="2.16741">
        <ele>86.2</ele>
        <time>2022-05-11T13:25:05Z</time>
      </trkpt>
      <trkpt lat="49.7448" lon="2.16742">
        <ele>86.2</ele>
        <time>2022-05-11T13:25:06Z</time>
      </trkpt>
      <trkpt lat="49.7448" lon="2.16743">
        <ele>86.2</ele>
        <time>2022-05-11T13:25:07Z</time>
      </trkpt>
      <trkpt lat="49.74481" lon="2.16744">
        <ele>86.2</ele>
        <time>2022-05-11T13:25:08Z</time>
      </trkpt>
      <trkpt lat="49.74482" lon="2.16746">
        <ele>86.2</ele>
        <time>2022-05-11T13:25:09Z</time>
      </trkpt>
      <trkpt lat="49.74482" lon="2.16746">
        <ele>86.2</ele>
        <time>2022-05-11T13:25:10Z</time>
      </trkpt>
      <trkpt lat="49.74483" lon="2.16746">
        <ele>86.2</ele>
        <time>2022-05-11T13:25:11Z</time>
      </trkpt>
      <trkpt lat="49.74483" lon="2.16747">
        <ele>86.2</ele>
        <time>2022-05-11T13:25:12Z</time>
      </trkpt>
      <trkpt lat="49.74484" lon="2.16748">
        <ele>86.2</ele>
        <time>2022-05-11T13:25:13Z</time>
      </trkpt>
      <trkpt lat="49.74484" lon="2.16749">
        <ele>86.2</ele>
        <time>2022-05-11T13:25:14Z</time>
      </trkpt>
      <trkpt lat="49.74485" lon="2.16749">
        <ele>86.2</ele>
        <time>2022-05-11T13:25:15Z</time>
      </trkpt>
      <trkpt lat="49.74485" lon="2.1675">
        <ele>86.2</ele>
        <time>2022-05-11T13:25:16Z</time>
      </trkpt>
      <trkpt lat="49.74486" lon="2.1675">
        <ele>86.2</ele>
        <time>2022-05-11T13:25:17Z</time>
      </trkpt>
      <trkpt lat="49.74486" lon="2.16751">
        <ele>86.2</ele>
        <time>2022-05-11T13:25:18Z</time>
      </trkpt>
      <trkpt lat="49.74487" lon="2.16752">
        <ele>86.2</ele>
        <time>2022-05-11T13:25:19Z</time>
      </trkpt>
      <trkpt lat="49.74488" lon="2.16754">
        <ele>86.2</ele>
        <time>2022-05-11T13:25:21Z</time>
      </trkpt>
      <trkpt lat="49.74488" lon="2.16755">
        <ele>86.2</ele>
        <time>2022-05-11T13:25:22Z</time>
      </trkpt>
      <trkpt lat="49.74488" lon="2.16757">
        <ele>86.2</ele>
        <time>2022-05-11T13:25:23Z</time>
      </trkpt>
      <trkpt lat="49.74489" lon="2.16759">
        <ele>86.2</ele>
        <time>2022-05-11T13:25:24Z</time>
      </trkpt>
      <trkpt lat="49.7449" lon="2.1676">
        <ele>86.2</ele>
        <time>2022-05-11T13:25:25Z</time>
      </trkpt>
      <trkpt lat="49.74491" lon="2.16762">
        <ele>86.2</ele>
        <time>2022-05-11T13:25:27Z</time>
      </trkpt>
      <trkpt lat="49.74491" lon="2.16763">
        <ele>86.2</ele>
        <time>2022-05-11T13:25:28Z</time>
      </trkpt>
      <trkpt lat="49.74492" lon="2.16764">
        <ele>86.2</ele>
        <time>2022-05-11T13:25:29Z</time>
      </trkpt>
      <trkpt lat="49.74492" lon="2.16765">
        <ele>86.2</ele>
        <time>2022-05-11T13:25:30Z</time>
      </trkpt>
      <trkpt lat="49.74492" lon="2.16766">
        <ele>86.1</ele>
        <time>2022-05-11T13:25:31Z</time>
      </trkpt>
      <trkpt lat="49.74492" lon="2.16767">
        <ele>86.1</ele>
        <time>2022-05-11T13:25:32Z</time>
      </trkpt>
      <trkpt lat="49.74492" lon="2.16767">
        <ele>86.1</ele>
        <time>2022-05-11T13:25:33Z</time>
      </trkpt>
      <trkpt lat="49.74492" lon="2.16767">
        <ele>86.1</ele>
        <time>2022-05-11T13:25:34Z</time>
      </trkpt>
      <trkpt lat="49.74492" lon="2.16767">
        <ele>86.1</ele>
        <time>2022-05-11T13:25:35Z</time>
      </trkpt>
      <trkpt lat="49.74492" lon="2.16766">
        <ele>86.1</ele>
        <time>2022-05-11T13:25:36Z</time>
      </trkpt>
      <trkpt lat="49.74492" lon="2.16766">
        <ele>86.2</ele>
        <time>2022-05-11T13:25:37Z</time>
      </trkpt>
      <trkpt lat="49.74492" lon="2.16766">
        <ele>86.2</ele>
        <time>2022-05-11T13:25:38Z</time>
      </trkpt>
      <trkpt lat="49.74492" lon="2.16766">
        <ele>86.2</ele>
        <time>2022-05-11T13:25:39Z</time>
      </trkpt>
      <trkpt lat="49.74492" lon="2.16766">
        <ele>86.2</ele>
        <time>2022-05-11T13:25:40Z</time>
      </trkpt>
      <trkpt lat="49.74492" lon="2.16766">
        <ele>86.2</ele>
        <time>2022-05-11T13:25:41Z</time>
      </trkpt>
      <trkpt lat="49.74492" lon="2.16766">
        <ele>86.2</ele>
        <time>2022-05-11T13:25:42Z</time>
      </trkpt>
      <trkpt lat="49.74492" lon="2.16766">
        <ele>86.2</ele>
        <time>2022-05-11T13:25:43Z</time>
      </trkpt>
      <trkpt lat="49.74492" lon="2.16766">
        <ele>86.2</ele>
        <time>2022-05-11T13:25:45Z</time>
      </trkpt>
      <trkpt lat="49.74492" lon="2.16766">
        <ele>86.2</ele>
        <time>2022-05-11T13:25:46Z</time>
      </trkpt>
      <trkpt lat="49.74492" lon="2.16765">
        <ele>86.2</ele>
        <time>2022-05-11T13:25:47Z</time>
      </trkpt>
      <trkpt lat="49.74492" lon="2.16765">
        <ele>86.2</ele>
        <time>2022-05-11T13:25:48Z</time>
      </trkpt>
      <trkpt lat="49.74491" lon="2.16765">
        <ele>86.2</ele>
        <time>2022-05-11T13:25:49Z</time>
      </trkpt>
      <trkpt lat="49.74491" lon="2.16765">
        <ele>86.2</ele>
        <time>2022-05-11T13:25:50Z</time>
      </trkpt>
      <trkpt lat="49.74491" lon="2.16765">
        <ele>86.2</ele>
        <time>2022-05-11T13:25:51Z</time>
      </trkpt>
      <trkpt lat="49.74491" lon="2.16765">
        <ele>86.2</ele>
        <time>2022-05-11T13:25:52Z</time>
      </trkpt>
      <trkpt lat="49.74491" lon="2.16765">
        <ele>86.2</ele>
        <time>2022-05-11T13:25:53Z</time>
      </trkpt>
      <trkpt lat="49.74491" lon="2.16765">
        <ele>86.2</ele>
        <time>2022-05-11T13:25:54Z</time>
      </trkpt>
      <trkpt lat="49.74491" lon="2.16765">
        <ele>86.2</ele>
        <time>2022-05-11T13:25:55Z</time>
      </trkpt>
      <trkpt lat="49.74491" lon="2.16765">
        <ele>86.2</ele>
        <time>2022-05-11T13:25:56Z</time>
      </trkpt>
      <trkpt lat="49.74491" lon="2.16765">
        <ele>86.2</ele>
        <time>2022-05-11T13:25:57Z</time>
      </trkpt>
      <trkpt lat="49.74491" lon="2.16765">
        <ele>86.2</ele>
        <time>2022-05-11T13:25:58Z</time>
      </trkpt>
      <trkpt lat="49.74491" lon="2.16765">
        <ele>86.2</ele>
        <time>2022-05-11T13:25:59Z</time>
      </trkpt>
      <trkpt lat="49.74491" lon="2.16765">
        <ele>86.2</ele>
        <time>2022-05-11T13:26:00Z</time>
      </trkpt>
      <trkpt lat="49.74491" lon="2.16765">
        <ele>86.2</ele>
        <time>2022-05-11T13:26:01Z</time>
      </trkpt>
      <trkpt lat="49.74491" lon="2.16765">
        <ele>86.2</ele>
        <time>2022-05-11T13:26:02Z</time>
      </trkpt>
      <trkpt lat="49.74491" lon="2.16765">
        <ele>86.2</ele>
        <time>2022-05-11T13:26:03Z</time>
      </trkpt>
      <trkpt lat="49.74491" lon="2.16765">
        <ele>86.2</ele>
        <time>2022-05-11T13:26:04Z</time>
      </trkpt>
      <trkpt lat="49.74491" lon="2.16765">
        <ele>86.2</ele>
        <time>2022-05-11T13:26:05Z</time>
      </trkpt>
      <trkpt lat="49.74491" lon="2.16765">
        <ele>86.2</ele>
        <time>2022-05-11T13:26:06Z</time>
      </trkpt>
      <trkpt lat="49.74491" lon="2.16765">
        <ele>86.2</ele>
        <time>2022-05-11T13:26:07Z</time>
      </trkpt>
      <trkpt lat="49.74491" lon="2.16765">
        <ele>86.2</ele>
        <time>2022-05-11T13:26:08Z</time>
      </trkpt>
      <trkpt lat="49.74491" lon="2.16765">
        <ele>86.2</ele>
        <time>2022-05-11T13:26:09Z</time>
      </trkpt>
      <trkpt lat="49.74491" lon="2.16765">
        <ele>86.2</ele>
        <time>2022-05-11T13:26:10Z</time>
      </trkpt>
      <trkpt lat="49.74491" lon="2.16765">
        <ele>86.2</ele>
        <time>2022-05-11T13:26:11Z</time>
      </trkpt>
      <trkpt lat="49.74491" lon="2.16765">
        <ele>86.2</ele>
        <time>2022-05-11T13:26:12Z</time>
      </trkpt>
      <trkpt lat="49.74491" lon="2.16765">
        <ele>86.2</ele>
        <time>2022-05-11T13:26:13Z</time>
      </trkpt>
      <trkpt lat="49.74491" lon="2.16765">
        <ele>86.2</ele>
        <time>2022-05-11T13:26:14Z</time>
      </trkpt>
      <trkpt lat="49.74491" lon="2.16765">
        <ele>86.2</ele>
        <time>2022-05-11T13:26:15Z</time>
      </trkpt>
      <trkpt lat="49.74491" lon="2.16765">
        <ele>86.2</ele>
        <time>2022-05-11T13:26:16Z</time>
      </trkpt>
      <trkpt lat="49.74491" lon="2.16765">
        <ele>86.2</ele>
        <time>2022-05-11T13:26:17Z</time>
      </trkpt>
      <trkpt lat="49.74491" lon="2.16765">
        <ele>86.2</ele>
        <time>2022-05-11T13:26:18Z</time>
      </trkpt>
      <trkpt lat="49.74491" lon="2.16765">
        <ele>86.2</ele>
        <time>2022-05-11T13:26:19Z</time>
      </trkpt>
      <trkpt lat="49.74491" lon="2.16765">
        <ele>86.2</ele>
        <time>2022-05-11T13:26:20Z</time>
      </trkpt>
      <trkpt lat="49.74491" lon="2.16765">
        <ele>86.2</ele>
        <time>2022-05-11T13:26:21Z</time>
      </trkpt>
      <trkpt lat="49.74491" lon="2.16765">
        <ele>86.2</ele>
        <time>2022-05-11T13:26:22Z</time>
      </trkpt>
      <trkpt lat="49.74491" lon="2.16765">
        <ele>86.2</ele>
        <time>2022-05-11T13:26:23Z</time>
      </trkpt>
      <trkpt lat="49.74491" lon="2.16765">
        <ele>86.2</ele>
        <time>2022-05-11T13:26:24Z</time>
      </trkpt>
      <trkpt lat="49.74491" lon="2.16765">
        <ele>86.2</ele>
        <time>2022-05-11T13:26:25Z</time>
      </trkpt>
      <trkpt lat="49.74491" lon="2.16765">
        <ele>86.2</ele>
        <time>2022-05-11T13:26:26Z</time>
      </trkpt>
      <trkpt lat="49.74491" lon="2.16765">
        <ele>86.2</ele>
        <time>2022-05-11T13:26:27Z</time>
      </trkpt>
      <trkpt lat="49.74491" lon="2.16765">
        <ele>86.2</ele>
        <time>2022-05-11T13:26:28Z</time>
      </trkpt>
      <trkpt lat="49.74491" lon="2.16765">
        <ele>86.2</ele>
        <time>2022-05-11T13:26:29Z</time>
      </trkpt>
      <trkpt lat="49.74491" lon="2.16765">
        <ele>86.2</ele>
        <time>2022-05-11T13:26:30Z</time>
      </trkpt>
      <trkpt lat="49.74491" lon="2.16765">
        <ele>86.2</ele>
        <time>2022-05-11T13:26:31Z</time>
      </trkpt>
      <trkpt lat="49.74491" lon="2.16765">
        <ele>86.2</ele>
        <time>2022-05-11T13:26:32Z</time>
      </trkpt>
      <trkpt lat="49.74491" lon="2.16765">
        <ele>86.2</ele>
        <time>2022-05-11T13:26:33Z</time>
      </trkpt>
      <trkpt lat="49.74491" lon="2.16765">
        <ele>86.2</ele>
        <time>2022-05-11T13:26:34Z</time>
      </trkpt>
      <trkpt lat="49.74491" lon="2.16765">
        <ele>86.2</ele>
        <time>2022-05-11T13:26:35Z</time>
      </trkpt>
      <trkpt lat="49.74491" lon="2.16765">
        <ele>86.2</ele>
        <time>2022-05-11T13:26:36Z</time>
      </trkpt>
      <trkpt lat="49.74491" lon="2.16765">
        <ele>86.2</ele>
        <time>2022-05-11T13:26:37Z</time>
      </trkpt>
      <trkpt lat="49.74491" lon="2.16765">
        <ele>86.2</ele>
        <time>2022-05-11T13:26:38Z</time>
      </trkpt>
      <trkpt lat="49.74491" lon="2.16765">
        <ele>86.2</ele>
        <time>2022-05-11T13:26:39Z</time>
      </trkpt>
      <trkpt lat="49.74491" lon="2.16765">
        <ele>86.2</ele>
        <time>2022-05-11T13:26:40Z</time>
      </trkpt>
      <trkpt lat="49.74491" lon="2.16765">
        <ele>86.2</ele>
        <time>2022-05-11T13:26:41Z</time>
      </trkpt>
      <trkpt lat="49.74491" lon="2.16765">
        <ele>86.2</ele>
        <time>2022-05-11T13:26:42Z</time>
      </trkpt>
      <trkpt lat="49.74491" lon="2.16765">
        <ele>86.2</ele>
        <time>2022-05-11T13:26:43Z</time>
      </trkpt>
      <trkpt lat="49.74491" lon="2.16765">
        <ele>86.2</ele>
        <time>2022-05-11T13:26:44Z</time>
      </trkpt>
      <trkpt lat="49.74491" lon="2.16765">
        <ele>86.2</ele>
        <time>2022-05-11T13:26:45Z</time>
      </trkpt>
      <trkpt lat="49.74491" lon="2.16765">
        <ele>86.2</ele>
        <time>2022-05-11T13:26:46Z</time>
      </trkpt>
      <trkpt lat="49.74491" lon="2.16765">
        <ele>86.2</ele>
        <time>2022-05-11T13:26:47Z</time>
      </trkpt>
      <trkpt lat="49.74491" lon="2.16765">
        <ele>86.2</ele>
        <time>2022-05-11T13:26:48Z</time>
      </trkpt>
      <trkpt lat="49.7449" lon="2.1676">
        <ele>86.2</ele>
        <time>2022-05-11T13:26:49Z</time>
      </trkpt>
      <trkpt lat="49.74489" lon="2.16757">
        <ele>86.2</ele>
        <time>2022-05-11T13:26:50Z</time>
      </trkpt>
      <trkpt lat="49.74489" lon="2.16756">
        <ele>86.2</ele>
        <time>2022-05-11T13:26:51Z</time>
      </trkpt>
      <trkpt lat="49.74489" lon="2.16756">
        <ele>86.2</ele>
        <time>2022-05-11T13:26:52Z</time>
      </trkpt>
      <trkpt lat="49.74489" lon="2.16756">
        <ele>86.2</ele>
        <time>2022-05-11T13:26:53Z</time>
      </trkpt>
      <trkpt lat="49.74489" lon="2.16756">
        <ele>86.2</ele>
        <time>2022-05-11T13:26:54Z</time>
      </trkpt>
      <trkpt lat="49.74489" lon="2.16757">
        <ele>86.2</ele>
        <time>2022-05-11T13:26:55Z</time>
      </trkpt>
      <trkpt lat="49.74489" lon="2.16757">
        <ele>86.2</ele>
        <time>2022-05-11T13:26:56Z</time>
      </trkpt>
      <trkpt lat="49.74489" lon="2.16757">
        <ele>86.2</ele>
        <time>2022-05-11T13:26:57Z</time>
      </trkpt>
      <trkpt lat="49.74489" lon="2.16757">
        <ele>86.2</ele>
        <time>2022-05-11T13:26:58Z</time>
      </trkpt>
      <trkpt lat="49.74489" lon="2.16757">
        <ele>86.2</ele>
        <time>2022-05-11T13:26:59Z</time>
      </trkpt>
      <trkpt lat="49.74489" lon="2.16758">
        <ele>86.2</ele>
        <time>2022-05-11T13:27:00Z</time>
      </trkpt>
      <trkpt lat="49.74489" lon="2.16758">
        <ele>86.2</ele>
        <time>2022-05-11T13:27:01Z</time>
      </trkpt>
      <trkpt lat="49.74489" lon="2.16758">
        <ele>86.2</ele>
        <time>2022-05-11T13:27:02Z</time>
      </trkpt>
      <trkpt lat="49.74489" lon="2.16758">
        <ele>86.2</ele>
        <time>2022-05-11T13:27:03Z</time>
      </trkpt>
      <trkpt lat="49.74489" lon="2.16758">
        <ele>86.2</ele>
        <time>2022-05-11T13:27:04Z</time>
      </trkpt>
      <trkpt lat="49.74489" lon="2.16758">
        <ele>86.2</ele>
        <time>2022-05-11T13:27:05Z</time>
      </trkpt>
      <trkpt lat="49.74489" lon="2.16759">
        <ele>86.2</ele>
        <time>2022-05-11T13:27:06Z</time>
      </trkpt>
      <trkpt lat="49.74489" lon="2.16759">
        <ele>86.2</ele>
        <time>2022-05-11T13:27:07Z</time>
      </trkpt>
      <trkpt lat="49.74489" lon="2.16759">
        <ele>86.2</ele>
        <time>2022-05-11T13:27:08Z</time>
      </trkpt>
      <trkpt lat="49.74489" lon="2.16759">
        <ele>86.2</ele>
        <time>2022-05-11T13:27:09Z</time>
      </trkpt>
      <trkpt lat="49.7449" lon="2.16759">
        <ele>86.2</ele>
        <time>2022-05-11T13:27:10Z</time>
      </trkpt>
      <trkpt lat="49.7449" lon="2.1676">
        <ele>86.2</ele>
        <time>2022-05-11T13:27:11Z</time>
      </trkpt>
      <trkpt lat="49.7449" lon="2.1676">
        <ele>86.2</ele>
        <time>2022-05-11T13:27:12Z</time>
      </trkpt>
      <trkpt lat="49.7449" lon="2.1676">
        <ele>86.2</ele>
        <time>2022-05-11T13:27:13Z</time>
      </trkpt>
      <trkpt lat="49.7449" lon="2.1676">
        <ele>86.2</ele>
        <time>2022-05-11T13:27:14Z</time>
      </trkpt>
      <trkpt lat="49.7449" lon="2.1676">
        <ele>86.2</ele>
        <time>2022-05-11T13:27:15Z</time>
      </trkpt>
      <trkpt lat="49.7449" lon="2.1676">
        <ele>86.2</ele>
        <time>2022-05-11T13:27:16Z</time>
      </trkpt>
      <trkpt lat="49.7449" lon="2.16761">
        <ele>86.2</ele>
        <time>2022-05-11T13:27:17Z</time>
      </trkpt>
      <trkpt lat="49.7449" lon="2.16761">
        <ele>86.2</ele>
        <time>2022-05-11T13:27:18Z</time>
      </trkpt>
      <trkpt lat="49.7449" lon="2.16761">
        <ele>86.2</ele>
        <time>2022-05-11T13:27:19Z</time>
      </trkpt>
      <trkpt lat="49.7449" lon="2.16761">
        <ele>86.2</ele>
        <time>2022-05-11T13:27:20Z</time>
      </trkpt>
      <trkpt lat="49.7449" lon="2.16761">
        <ele>86.2</ele>
        <time>2022-05-11T13:27:21Z</time>
      </trkpt>
      <trkpt lat="49.7449" lon="2.16762">
        <ele>86.2</ele>
        <time>2022-05-11T13:27:22Z</time>
      </trkpt>
      <trkpt lat="49.7449" lon="2.16762">
        <ele>86.2</ele>
        <time>2022-05-11T13:27:24Z</time>
      </trkpt>
      <trkpt lat="49.7449" lon="2.16762">
        <ele>86.2</ele>
        <time>2022-05-11T13:27:25Z</time>
      </trkpt>
      <trkpt lat="49.7449" lon="2.16762">
        <ele>86.2</ele>
        <time>2022-05-11T13:27:26Z</time>
      </trkpt>
      <trkpt lat="49.7449" lon="2.16765">
        <ele>86.2</ele>
        <time>2022-05-11T13:27:27Z</time>
      </trkpt>
      <trkpt lat="49.7449" lon="2.16767">
        <ele>86.2</ele>
        <time>2022-05-11T13:27:29Z</time>
      </trkpt>
      <trkpt lat="49.7449" lon="2.16768">
        <ele>86.2</ele>
        <time>2022-05-11T13:27:30Z</time>
      </trkpt>
      <trkpt lat="49.74491" lon="2.1677">
        <ele>86.2</ele>
        <time>2022-05-11T13:27:31Z</time>
      </trkpt>
      <trkpt lat="49.74491" lon="2.16771">
        <ele>86.2</ele>
        <time>2022-05-11T13:27:32Z</time>
      </trkpt>
      <trkpt lat="49.74491" lon="2.16772">
        <ele>86.2</ele>
        <time>2022-05-11T13:27:33Z</time>
      </trkpt>
      <trkpt lat="49.74492" lon="2.16773">
        <ele>86.2</ele>
        <time>2022-05-11T13:27:34Z</time>
      </trkpt>
      <trkpt lat="49.74494" lon="2.16774">
        <ele>86.1</ele>
        <time>2022-05-11T13:27:35Z</time>
      </trkpt>
      <trkpt lat="49.74495" lon="2.16773">
        <ele>86.1</ele>
        <time>2022-05-11T13:27:37Z</time>
      </trkpt>
      <trkpt lat="49.74496" lon="2.16773">
        <ele>86.1</ele>
        <time>2022-05-11T13:27:38Z</time>
      </trkpt>
      <trkpt lat="49.74497" lon="2.16772">
        <ele>86.1</ele>
        <time>2022-05-11T13:27:39Z</time>
      </trkpt>
      <trkpt lat="49.74499" lon="2.16774">
        <ele>86.1</ele>
        <time>2022-05-11T13:27:41Z</time>
      </trkpt>
      <trkpt lat="49.74499" lon="2.16775">
        <ele>86.1</ele>
        <time>2022-05-11T13:27:42Z</time>
      </trkpt>
      <trkpt lat="49.745" lon="2.16776">
        <ele>86.1</ele>
        <time>2022-05-11T13:27:43Z</time>
      </trkpt>
      <trkpt lat="49.745" lon="2.16776">
        <ele>86.1</ele>
        <time>2022-05-11T13:27:44Z</time>
      </trkpt>
      <trkpt lat="49.74501" lon="2.16779">
        <ele>86.1</ele>
        <time>2022-05-11T13:27:46Z</time>
      </trkpt>
      <trkpt lat="49.74502" lon="2.16781">
        <ele>86.1</ele>
        <time>2022-05-11T13:27:47Z</time>
      </trkpt>
      <trkpt lat="49.74503" lon="2.16784">
        <ele>86.1</ele>
        <time>2022-05-11T13:27:48Z</time>
      </trkpt>
      <trkpt lat="49.74504" lon="2.16785">
        <ele>86</ele>
        <time>2022-05-11T13:27:49Z</time>
      </trkpt>
      <trkpt lat="49.74504" lon="2.16786">
        <ele>86</ele>
        <time>2022-05-11T13:27:50Z</time>
      </trkpt>
      <trkpt lat="49.74505" lon="2.16786">
        <ele>86</ele>
        <time>2022-05-11T13:27:52Z</time>
      </trkpt>
      <trkpt lat="49.74506" lon="2.16788">
        <ele>86</ele>
        <time>2022-05-11T13:27:53Z</time>
      </trkpt>
      <trkpt lat="49.74507" lon="2.16789">
        <ele>86</ele>
        <time>2022-05-11T13:27:54Z</time>
      </trkpt>
      <trkpt lat="49.74508" lon="2.16792">
        <ele>86</ele>
        <time>2022-05-11T13:27:55Z</time>
      </trkpt>
      <trkpt lat="49.74508" lon="2.16793">
        <ele>86</ele>
        <time>2022-05-11T13:27:56Z</time>
      </trkpt>
      <trkpt lat="49.74509" lon="2.16794">
        <ele>86</ele>
        <time>2022-05-11T13:27:57Z</time>
      </trkpt>
      <trkpt lat="49.7451" lon="2.16797">
        <ele>86</ele>
        <time>2022-05-11T13:27:58Z</time>
      </trkpt>
      <trkpt lat="49.74511" lon="2.16799">
        <ele>86</ele>
        <time>2022-05-11T13:27:59Z</time>
      </trkpt>
      <trkpt lat="49.74512" lon="2.16801">
        <ele>86</ele>
        <time>2022-05-11T13:28:00Z</time>
      </trkpt>
      <trkpt lat="49.74513" lon="2.16803">
        <ele>86</ele>
        <time>2022-05-11T13:28:01Z</time>
      </trkpt>
      <trkpt lat="49.74514" lon="2.16805">
        <ele>86</ele>
        <time>2022-05-11T13:28:03Z</time>
      </trkpt>
      <trkpt lat="49.74515" lon="2.16807">
        <ele>85.9</ele>
        <time>2022-05-11T13:28:04Z</time>
      </trkpt>
      <trkpt lat="49.74516" lon="2.16809">
        <ele>85.9</ele>
        <time>2022-05-11T13:28:05Z</time>
      </trkpt>
      <trkpt lat="49.74516" lon="2.16811">
        <ele>85.9</ele>
        <time>2022-05-11T13:28:06Z</time>
      </trkpt>
      <trkpt lat="49.74517" lon="2.16813">
        <ele>85.9</ele>
        <time>2022-05-11T13:28:07Z</time>
      </trkpt>
      <trkpt lat="49.74518" lon="2.16815">
        <ele>85.9</ele>
        <time>2022-05-11T13:28:08Z</time>
      </trkpt>
      <trkpt lat="49.74518" lon="2.16817">
        <ele>85.9</ele>
        <time>2022-05-11T13:28:09Z</time>
      </trkpt>
      <trkpt lat="49.74519" lon="2.16819">
        <ele>85.9</ele>
        <time>2022-05-11T13:28:10Z</time>
      </trkpt>
      <trkpt lat="49.74519" lon="2.16822">
        <ele>85.9</ele>
        <time>2022-05-11T13:28:11Z</time>
      </trkpt>
      <trkpt lat="49.74519" lon="2.16824">
        <ele>85.9</ele>
        <time>2022-05-11T13:28:12Z</time>
      </trkpt>
      <trkpt lat="49.7452" lon="2.16827">
        <ele>85.9</ele>
        <time>2022-05-11T13:28:14Z</time>
      </trkpt>
      <trkpt lat="49.74521" lon="2.16828">
        <ele>85.9</ele>
        <time>2022-05-11T13:28:15Z</time>
      </trkpt>
      <trkpt lat="49.74521" lon="2.16829">
        <ele>85.9</ele>
        <time>2022-05-11T13:28:16Z</time>
      </trkpt>
      <trkpt lat="49.74522" lon="2.16831">
        <ele>85.9</ele>
        <time>2022-05-11T13:28:17Z</time>
      </trkpt>
      <trkpt lat="49.74522" lon="2.16832">
        <ele>85.9</ele>
        <time>2022-05-11T13:28:18Z</time>
      </trkpt>
      <trkpt lat="49.74523" lon="2.16834">
        <ele>85.8</ele>
        <time>2022-05-11T13:28:19Z</time>
      </trkpt>
      <trkpt lat="49.74524" lon="2.16835">
        <ele>85.8</ele>
        <time>2022-05-11T13:28:20Z</time>
      </trkpt>
      <trkpt lat="49.74525" lon="2.16837">
        <ele>85.8</ele>
        <time>2022-05-11T13:28:22Z</time>
      </trkpt>
      <trkpt lat="49.74525" lon="2.16839">
        <ele>85.9</ele>
        <time>2022-05-11T13:28:23Z</time>
      </trkpt>
      <trkpt lat="49.74526" lon="2.1684">
        <ele>85.8</ele>
        <time>2022-05-11T13:28:24Z</time>
      </trkpt>
      <trkpt lat="49.74526" lon="2.1684">
        <ele>85.8</ele>
        <time>2022-05-11T13:28:25Z</time>
      </trkpt>
      <trkpt lat="49.74526" lon="2.16841">
        <ele>85.8</ele>
        <time>2022-05-11T13:28:26Z</time>
      </trkpt>
      <trkpt lat="49.74527" lon="2.16843">
        <ele>85.8</ele>
        <time>2022-05-11T13:28:27Z</time>
      </trkpt>
      <trkpt lat="49.74528" lon="2.16845">
        <ele>85.8</ele>
        <time>2022-05-11T13:28:28Z</time>
      </trkpt>
      <trkpt lat="49.74528" lon="2.16848">
        <ele>85.8</ele>
        <time>2022-05-11T13:28:30Z</time>
      </trkpt>
      <trkpt lat="49.74529" lon="2.16849">
        <ele>85.8</ele>
        <time>2022-05-11T13:28:31Z</time>
      </trkpt>
      <trkpt lat="49.74529" lon="2.1685">
        <ele>85.8</ele>
        <time>2022-05-11T13:28:32Z</time>
      </trkpt>
      <trkpt lat="49.7453" lon="2.16851">
        <ele>85.8</ele>
        <time>2022-05-11T13:28:33Z</time>
      </trkpt>
      <trkpt lat="49.7453" lon="2.16853">
        <ele>85.8</ele>
        <time>2022-05-11T13:28:34Z</time>
      </trkpt>
      <trkpt lat="49.74531" lon="2.16853">
        <ele>85.8</ele>
        <time>2022-05-11T13:28:36Z</time>
      </trkpt>
      <trkpt lat="49.74531" lon="2.16854">
        <ele>85.8</ele>
        <time>2022-05-11T13:28:37Z</time>
      </trkpt>
      <trkpt lat="49.74532" lon="2.16855">
        <ele>85.8</ele>
        <time>2022-05-11T13:28:38Z</time>
      </trkpt>
      <trkpt lat="49.74532" lon="2.16856">
        <ele>85.8</ele>
        <time>2022-05-11T13:28:39Z</time>
      </trkpt>
      <trkpt lat="49.74533" lon="2.16858">
        <ele>85.8</ele>
        <time>2022-05-11T13:28:41Z</time>
      </trkpt>
      <trkpt lat="49.74533" lon="2.1686">
        <ele>85.8</ele>
        <time>2022-05-11T13:28:42Z</time>
      </trkpt>
      <trkpt lat="49.74534" lon="2.16861">
        <ele>85.8</ele>
        <time>2022-05-11T13:28:43Z</time>
      </trkpt>
      <trkpt lat="49.74535" lon="2.16862">
        <ele>85.8</ele>
        <time>2022-05-11T13:28:44Z</time>
      </trkpt>
      <trkpt lat="49.74537" lon="2.16863">
        <ele>85.8</ele>
        <time>2022-05-11T13:28:45Z</time>
      </trkpt>
      <trkpt lat="49.74538" lon="2.16864">
        <ele>85.8</ele>
        <time>2022-05-11T13:28:46Z</time>
      </trkpt>
      <trkpt lat="49.74539" lon="2.16865">
        <ele>85.8</ele>
        <time>2022-05-11T13:28:47Z</time>
      </trkpt>
      <trkpt lat="49.7454" lon="2.16867">
        <ele>85.8</ele>
        <time>2022-05-11T13:28:49Z</time>
      </trkpt>
      <trkpt lat="49.74541" lon="2.16869">
        <ele>85.8</ele>
        <time>2022-05-11T13:28:50Z</time>
      </trkpt>
      <trkpt lat="49.74541" lon="2.1687">
        <ele>85.8</ele>
        <time>2022-05-11T13:28:51Z</time>
      </trkpt>
      <trkpt lat="49.74541" lon="2.16872">
        <ele>85.8</ele>
        <time>2022-05-11T13:28:52Z</time>
      </trkpt>
      <trkpt lat="49.74542" lon="2.16873">
        <ele>85.8</ele>
        <time>2022-05-11T13:28:53Z</time>
      </trkpt>
      <trkpt lat="49.74543" lon="2.16875">
        <ele>85.8</ele>
        <time>2022-05-11T13:28:54Z</time>
      </trkpt>
      <trkpt lat="49.74544" lon="2.1688">
        <ele>85.9</ele>
        <time>2022-05-11T13:28:55Z</time>
      </trkpt>
      <trkpt lat="49.74544" lon="2.16881">
        <ele>85.9</ele>
        <time>2022-05-11T13:28:57Z</time>
      </trkpt>
      <trkpt lat="49.74545" lon="2.16883">
        <ele>85.9</ele>
        <time>2022-05-11T13:28:58Z</time>
      </trkpt>
      <trkpt lat="49.74545" lon="2.16884">
        <ele>85.9</ele>
        <time>2022-05-11T13:28:59Z</time>
      </trkpt>
      <trkpt lat="49.74546" lon="2.16886">
        <ele>85.9</ele>
        <time>2022-05-11T13:29:00Z</time>
      </trkpt>
      <trkpt lat="49.74546" lon="2.16888">
        <ele>85.9</ele>
        <time>2022-05-11T13:29:01Z</time>
      </trkpt>
      <trkpt lat="49.74546" lon="2.1689">
        <ele>85.9</ele>
        <time>2022-05-11T13:29:02Z</time>
      </trkpt>
      <trkpt lat="49.74547" lon="2.16891">
        <ele>85.9</ele>
        <time>2022-05-11T13:29:03Z</time>
      </trkpt>
      <trkpt lat="49.74546" lon="2.16892">
        <ele>85.9</ele>
        <time>2022-05-11T13:29:04Z</time>
      </trkpt>
      <trkpt lat="49.74547" lon="2.16894">
        <ele>86</ele>
        <time>2022-05-11T13:29:05Z</time>
      </trkpt>
      <trkpt lat="49.74548" lon="2.16896">
        <ele>86</ele>
        <time>2022-05-11T13:29:07Z</time>
      </trkpt>
      <trkpt lat="49.7455" lon="2.16901">
        <ele>86</ele>
        <time>2022-05-11T13:29:09Z</time>
      </trkpt>
      <trkpt lat="49.74551" lon="2.16902">
        <ele>86</ele>
        <time>2022-05-11T13:29:10Z</time>
      </trkpt>
      <trkpt lat="49.74551" lon="2.16903">
        <ele>86</ele>
        <time>2022-05-11T13:29:11Z</time>
      </trkpt>
      <trkpt lat="49.74552" lon="2.16904">
        <ele>86</ele>
        <time>2022-05-11T13:29:12Z</time>
      </trkpt>
      <trkpt lat="49.74553" lon="2.16906">
        <ele>86</ele>
        <time>2022-05-11T13:29:14Z</time>
      </trkpt>
      <trkpt lat="49.74553" lon="2.16906">
        <ele>86</ele>
        <time>2022-05-11T13:29:15Z</time>
      </trkpt>
      <trkpt lat="49.74553" lon="2.16906">
        <ele>86</ele>
        <time>2022-05-11T13:29:16Z</time>
      </trkpt>
      <trkpt lat="49.74553" lon="2.16907">
        <ele>86.1</ele>
        <time>2022-05-11T13:29:17Z</time>
      </trkpt>
      <trkpt lat="49.74554" lon="2.16909">
        <ele>86</ele>
        <time>2022-05-11T13:29:18Z</time>
      </trkpt>
      <trkpt lat="49.74555" lon="2.16911">
        <ele>86</ele>
        <time>2022-05-11T13:29:19Z</time>
      </trkpt>
      <trkpt lat="49.74556" lon="2.16912">
        <ele>86.1</ele>
        <time>2022-05-11T13:29:20Z</time>
      </trkpt>
      <trkpt lat="49.74556" lon="2.16913">
        <ele>86.1</ele>
        <time>2022-05-11T13:29:21Z</time>
      </trkpt>
      <trkpt lat="49.74557" lon="2.16916">
        <ele>86.1</ele>
        <time>2022-05-11T13:29:23Z</time>
      </trkpt>
      <trkpt lat="49.74558" lon="2.16917">
        <ele>86.1</ele>
        <time>2022-05-11T13:29:24Z</time>
      </trkpt>
      <trkpt lat="49.74559" lon="2.16917">
        <ele>86.1</ele>
        <time>2022-05-11T13:29:25Z</time>
      </trkpt>
      <trkpt lat="49.74559" lon="2.16918">
        <ele>86.1</ele>
        <time>2022-05-11T13:29:26Z</time>
      </trkpt>
      <trkpt lat="49.7456" lon="2.16919">
        <ele>86.1</ele>
        <time>2022-05-11T13:29:27Z</time>
      </trkpt>
      <trkpt lat="49.74561" lon="2.1692">
        <ele>86.1</ele>
        <time>2022-05-11T13:29:28Z</time>
      </trkpt>
      <trkpt lat="49.74562" lon="2.16923">
        <ele>86.1</ele>
        <time>2022-05-11T13:29:29Z</time>
      </trkpt>
      <trkpt lat="49.74563" lon="2.16924">
        <ele>86.1</ele>
        <time>2022-05-11T13:29:31Z</time>
      </trkpt>
      <trkpt lat="49.74564" lon="2.16925">
        <ele>86.1</ele>
        <time>2022-05-11T13:29:32Z</time>
      </trkpt>
      <trkpt lat="49.74564" lon="2.16925">
        <ele>86.1</ele>
        <time>2022-05-11T13:29:33Z</time>
      </trkpt>
      <trkpt lat="49.74565" lon="2.16926">
        <ele>86.1</ele>
        <time>2022-05-11T13:29:34Z</time>
      </trkpt>
      <trkpt lat="49.74565" lon="2.16927">
        <ele>86.1</ele>
        <time>2022-05-11T13:29:35Z</time>
      </trkpt>
      <trkpt lat="49.74566" lon="2.16928">
        <ele>86.1</ele>
        <time>2022-05-11T13:29:36Z</time>
      </trkpt>
      <trkpt lat="49.74567" lon="2.1693">
        <ele>86.1</ele>
        <time>2022-05-11T13:29:37Z</time>
      </trkpt>
      <trkpt lat="49.74567" lon="2.16931">
        <ele>86.1</ele>
        <time>2022-05-11T13:29:38Z</time>
      </trkpt>
      <trkpt lat="49.74568" lon="2.16932">
        <ele>86.1</ele>
        <time>2022-05-11T13:29:39Z</time>
      </trkpt>
      <trkpt lat="49.74569" lon="2.16934">
        <ele>86.1</ele>
        <time>2022-05-11T13:29:40Z</time>
      </trkpt>
      <trkpt lat="49.7457" lon="2.16935">
        <ele>86.1</ele>
        <time>2022-05-11T13:29:41Z</time>
      </trkpt>
      <trkpt lat="49.7457" lon="2.16937">
        <ele>86.1</ele>
        <time>2022-05-11T13:29:42Z</time>
      </trkpt>
      <trkpt lat="49.74571" lon="2.16938">
        <ele>86.2</ele>
        <time>2022-05-11T13:29:43Z</time>
      </trkpt>
      <trkpt lat="49.74572" lon="2.1694">
        <ele>86.2</ele>
        <time>2022-05-11T13:29:45Z</time>
      </trkpt>
      <trkpt lat="49.74573" lon="2.16942">
        <ele>86.1</ele>
        <time>2022-05-11T13:29:46Z</time>
      </trkpt>
      <trkpt lat="49.74573" lon="2.16943">
        <ele>86.1</ele>
        <time>2022-05-11T13:29:47Z</time>
      </trkpt>
      <trkpt lat="49.74574" lon="2.16945">
        <ele>86.1</ele>
        <time>2022-05-11T13:29:48Z</time>
      </trkpt>
      <trkpt lat="49.74574" lon="2.16946">
        <ele>86.2</ele>
        <time>2022-05-11T13:29:49Z</time>
      </trkpt>
      <trkpt lat="49.74575" lon="2.16947">
        <ele>86.2</ele>
        <time>2022-05-11T13:29:50Z</time>
      </trkpt>
      <trkpt lat="49.74576" lon="2.16949">
        <ele>86.1</ele>
        <time>2022-05-11T13:29:51Z</time>
      </trkpt>
      <trkpt lat="49.74576" lon="2.1695">
        <ele>86.1</ele>
        <time>2022-05-11T13:29:52Z</time>
      </trkpt>
      <trkpt lat="49.74577" lon="2.16951">
        <ele>86.2</ele>
        <time>2022-05-11T13:29:53Z</time>
      </trkpt>
      <trkpt lat="49.74578" lon="2.16953">
        <ele>86.2</ele>
        <time>2022-05-11T13:29:54Z</time>
      </trkpt>
      <trkpt lat="49.74578" lon="2.16954">
        <ele>86.2</ele>
        <time>2022-05-11T13:29:55Z</time>
      </trkpt>
      <trkpt lat="49.74578" lon="2.16956">
        <ele>86.1</ele>
        <time>2022-05-11T13:29:56Z</time>
      </trkpt>
      <trkpt lat="49.74579" lon="2.16957">
        <ele>86.1</ele>
        <time>2022-05-11T13:29:57Z</time>
      </trkpt>
      <trkpt lat="49.74579" lon="2.16959">
        <ele>86.1</ele>
        <time>2022-05-11T13:29:58Z</time>
      </trkpt>
      <trkpt lat="49.7458" lon="2.1696">
        <ele>86.1</ele>
        <time>2022-05-11T13:29:59Z</time>
      </trkpt>
      <trkpt lat="49.74581" lon="2.16963">
        <ele>86.1</ele>
        <time>2022-05-11T13:30:01Z</time>
      </trkpt>
      <trkpt lat="49.74581" lon="2.16965">
        <ele>86.1</ele>
        <time>2022-05-11T13:30:02Z</time>
      </trkpt>
      <trkpt lat="49.74582" lon="2.16967">
        <ele>86.1</ele>
        <time>2022-05-11T13:30:03Z</time>
      </trkpt>
      <trkpt lat="49.74583" lon="2.16968">
        <ele>86.1</ele>
        <time>2022-05-11T13:30:04Z</time>
      </trkpt>
      <trkpt lat="49.74583" lon="2.16969">
        <ele>86.1</ele>
        <time>2022-05-11T13:30:05Z</time>
      </trkpt>
      <trkpt lat="49.74583" lon="2.16971">
        <ele>86.1</ele>
        <time>2022-05-11T13:30:06Z</time>
      </trkpt>
      <trkpt lat="49.74584" lon="2.16974">
        <ele>86.1</ele>
        <time>2022-05-11T13:30:08Z</time>
      </trkpt>
      <trkpt lat="49.74585" lon="2.16976">
        <ele>86.1</ele>
        <time>2022-05-11T13:30:09Z</time>
      </trkpt>
      <trkpt lat="49.74586" lon="2.16979">
        <ele>86.1</ele>
        <time>2022-05-11T13:30:10Z</time>
      </trkpt>
      <trkpt lat="49.74587" lon="2.1698">
        <ele>86</ele>
        <time>2022-05-11T13:30:11Z</time>
      </trkpt>
      <trkpt lat="49.74587" lon="2.16981">
        <ele>86</ele>
        <time>2022-05-11T13:30:12Z</time>
      </trkpt>
      <trkpt lat="49.74588" lon="2.16982">
        <ele>86</ele>
        <time>2022-05-11T13:30:13Z</time>
      </trkpt>
      <trkpt lat="49.74588" lon="2.16984">
        <ele>86</ele>
        <time>2022-05-11T13:30:14Z</time>
      </trkpt>
      <trkpt lat="49.74589" lon="2.16986">
        <ele>86</ele>
        <time>2022-05-11T13:30:16Z</time>
      </trkpt>
      <trkpt lat="49.7459" lon="2.16987">
        <ele>86</ele>
        <time>2022-05-11T13:30:17Z</time>
      </trkpt>
      <trkpt lat="49.74589" lon="2.16989">
        <ele>86</ele>
        <time>2022-05-11T13:30:18Z</time>
      </trkpt>
      <trkpt lat="49.7459" lon="2.1699">
        <ele>86</ele>
        <time>2022-05-11T13:30:19Z</time>
      </trkpt>
      <trkpt lat="49.74591" lon="2.16992">
        <ele>86</ele>
        <time>2022-05-11T13:30:20Z</time>
      </trkpt>
      <trkpt lat="49.74592" lon="2.16994">
        <ele>86</ele>
        <time>2022-05-11T13:30:21Z</time>
      </trkpt>
      <trkpt lat="49.74592" lon="2.16995">
        <ele>86</ele>
        <time>2022-05-11T13:30:22Z</time>
      </trkpt>
      <trkpt lat="49.74593" lon="2.16997">
        <ele>86</ele>
        <time>2022-05-11T13:30:23Z</time>
      </trkpt>
      <trkpt lat="49.74594" lon="2.16999">
        <ele>86</ele>
        <time>2022-05-11T13:30:25Z</time>
      </trkpt>
      <trkpt lat="49.74595" lon="2.17001">
        <ele>86</ele>
        <time>2022-05-11T13:30:26Z</time>
      </trkpt>
      <trkpt lat="49.74595" lon="2.17001">
        <ele>85.9</ele>
        <time>2022-05-11T13:30:27Z</time>
      </trkpt>
      <trkpt lat="49.74595" lon="2.17002">
        <ele>85.9</ele>
        <time>2022-05-11T13:30:28Z</time>
      </trkpt>
      <trkpt lat="49.74596" lon="2.17003">
        <ele>85.9</ele>
        <time>2022-05-11T13:30:29Z</time>
      </trkpt>
      <trkpt lat="49.74596" lon="2.17004">
        <ele>85.9</ele>
        <time>2022-05-11T13:30:30Z</time>
      </trkpt>
      <trkpt lat="49.74597" lon="2.17006">
        <ele>85.9</ele>
        <time>2022-05-11T13:30:31Z</time>
      </trkpt>
      <trkpt lat="49.74598" lon="2.17007">
        <ele>85.9</ele>
        <time>2022-05-11T13:30:32Z</time>
      </trkpt>
      <trkpt lat="49.74599" lon="2.17009">
        <ele>85.9</ele>
        <time>2022-05-11T13:30:34Z</time>
      </trkpt>
      <trkpt lat="49.746" lon="2.1701">
        <ele>85.9</ele>
        <time>2022-05-11T13:30:35Z</time>
      </trkpt>
      <trkpt lat="49.746" lon="2.17011">
        <ele>85.9</ele>
        <time>2022-05-11T13:30:36Z</time>
      </trkpt>
      <trkpt lat="49.74601" lon="2.17012">
        <ele>85.9</ele>
        <time>2022-05-11T13:30:37Z</time>
      </trkpt>
      <trkpt lat="49.74602" lon="2.17014">
        <ele>85.9</ele>
        <time>2022-05-11T13:30:38Z</time>
      </trkpt>
      <trkpt lat="49.74603" lon="2.17015">
        <ele>85.9</ele>
        <time>2022-05-11T13:30:40Z</time>
      </trkpt>
      <trkpt lat="49.74604" lon="2.17017">
        <ele>85.9</ele>
        <time>2022-05-11T13:30:41Z</time>
      </trkpt>
      <trkpt lat="49.74604" lon="2.17018">
        <ele>85.9</ele>
        <time>2022-05-11T13:30:42Z</time>
      </trkpt>
      <trkpt lat="49.74605" lon="2.1702">
        <ele>85.9</ele>
        <time>2022-05-11T13:30:43Z</time>
      </trkpt>
      <trkpt lat="49.74605" lon="2.17021">
        <ele>85.9</ele>
        <time>2022-05-11T13:30:44Z</time>
      </trkpt>
      <trkpt lat="49.74606" lon="2.17023">
        <ele>85.9</ele>
        <time>2022-05-11T13:30:45Z</time>
      </trkpt>
      <trkpt lat="49.74607" lon="2.17025">
        <ele>85.9</ele>
        <time>2022-05-11T13:30:47Z</time>
      </trkpt>
      <trkpt lat="49.74608" lon="2.17026">
        <ele>85.9</ele>
        <time>2022-05-11T13:30:48Z</time>
      </trkpt>
      <trkpt lat="49.74608" lon="2.17027">
        <ele>85.9</ele>
        <time>2022-05-11T13:30:49Z</time>
      </trkpt>
      <trkpt lat="49.74608" lon="2.17028">
        <ele>85.9</ele>
        <time>2022-05-11T13:30:50Z</time>
      </trkpt>
      <trkpt lat="49.74609" lon="2.17031">
        <ele>85.9</ele>
        <time>2022-05-11T13:30:51Z</time>
      </trkpt>
      <trkpt lat="49.7461" lon="2.17034">
        <ele>85.9</ele>
        <time>2022-05-11T13:30:52Z</time>
      </trkpt>
      <trkpt lat="49.74611" lon="2.17036">
        <ele>85.9</ele>
        <time>2022-05-11T13:30:54Z</time>
      </trkpt>
      <trkpt lat="49.74611" lon="2.17037">
        <ele>85.9</ele>
        <time>2022-05-11T13:30:55Z</time>
      </trkpt>
      <trkpt lat="49.74611" lon="2.17038">
        <ele>85.9</ele>
        <time>2022-05-11T13:30:56Z</time>
      </trkpt>
      <trkpt lat="49.74612" lon="2.1704">
        <ele>85.9</ele>
        <time>2022-05-11T13:30:57Z</time>
      </trkpt>
      <trkpt lat="49.74612" lon="2.17042">
        <ele>85.9</ele>
        <time>2022-05-11T13:30:58Z</time>
      </trkpt>
      <trkpt lat="49.74613" lon="2.17045">
        <ele>85.9</ele>
        <time>2022-05-11T13:31:00Z</time>
      </trkpt>
      <trkpt lat="49.74613" lon="2.17047">
        <ele>85.9</ele>
        <time>2022-05-11T13:31:01Z</time>
      </trkpt>
      <trkpt lat="49.74613" lon="2.17048">
        <ele>85.9</ele>
        <time>2022-05-11T13:31:02Z</time>
      </trkpt>
      <trkpt lat="49.74614" lon="2.1705">
        <ele>86</ele>
        <time>2022-05-11T13:31:03Z</time>
      </trkpt>
      <trkpt lat="49.74614" lon="2.17052">
        <ele>86</ele>
        <time>2022-05-11T13:31:05Z</time>
      </trkpt>
      <trkpt lat="49.74615" lon="2.17053">
        <ele>86</ele>
        <time>2022-05-11T13:31:06Z</time>
      </trkpt>
      <trkpt lat="49.74615" lon="2.17055">
        <ele>86</ele>
        <time>2022-05-11T13:31:07Z</time>
      </trkpt>
      <trkpt lat="49.74615" lon="2.17056">
        <ele>86</ele>
        <time>2022-05-11T13:31:08Z</time>
      </trkpt>
      <trkpt lat="49.74616" lon="2.17058">
        <ele>86</ele>
        <time>2022-05-11T13:31:09Z</time>
      </trkpt>
      <trkpt lat="49.74616" lon="2.17059">
        <ele>86</ele>
        <time>2022-05-11T13:31:10Z</time>
      </trkpt>
      <trkpt lat="49.74617" lon="2.17061">
        <ele>86</ele>
        <time>2022-05-11T13:31:12Z</time>
      </trkpt>
      <trkpt lat="49.74617" lon="2.17063">
        <ele>86</ele>
        <time>2022-05-11T13:31:13Z</time>
      </trkpt>
      <trkpt lat="49.74617" lon="2.17063">
        <ele>86</ele>
        <time>2022-05-11T13:31:14Z</time>
      </trkpt>
      <trkpt lat="49.74618" lon="2.17066">
        <ele>86</ele>
        <time>2022-05-11T13:31:15Z</time>
      </trkpt>
      <trkpt lat="49.74618" lon="2.17067">
        <ele>86.1</ele>
        <time>2022-05-11T13:31:16Z</time>
      </trkpt>
      <trkpt lat="49.74619" lon="2.17068">
        <ele>86.1</ele>
        <time>2022-05-11T13:31:17Z</time>
      </trkpt>
      <trkpt lat="49.74619" lon="2.17069">
        <ele>86.1</ele>
        <time>2022-05-11T13:31:18Z</time>
      </trkpt>
      <trkpt lat="49.7462" lon="2.17071">
        <ele>86.1</ele>
        <time>2022-05-11T13:31:20Z</time>
      </trkpt>
      <trkpt lat="49.7462" lon="2.17072">
        <ele>86.1</ele>
        <time>2022-05-11T13:31:21Z</time>
      </trkpt>
      <trkpt lat="49.74621" lon="2.17073">
        <ele>86.1</ele>
        <time>2022-05-11T13:31:22Z</time>
      </trkpt>
      <trkpt lat="49.74622" lon="2.17074">
        <ele>86.1</ele>
        <time>2022-05-11T13:31:23Z</time>
      </trkpt>
      <trkpt lat="49.74623" lon="2.17075">
        <ele>86.1</ele>
        <time>2022-05-11T13:31:24Z</time>
      </trkpt>
      <trkpt lat="49.74624" lon="2.17075">
        <ele>86.1</ele>
        <time>2022-05-11T13:31:25Z</time>
      </trkpt>
      <trkpt lat="49.74625" lon="2.17076">
        <ele>86.1</ele>
        <time>2022-05-11T13:31:26Z</time>
      </trkpt>
      <trkpt lat="49.74626" lon="2.17077">
        <ele>86.1</ele>
        <time>2022-05-11T13:31:27Z</time>
      </trkpt>
      <trkpt lat="49.74627" lon="2.17078">
        <ele>86.2</ele>
        <time>2022-05-11T13:31:29Z</time>
      </trkpt>
      <trkpt lat="49.74628" lon="2.17079">
        <ele>86.2</ele>
        <time>2022-05-11T13:31:30Z</time>
      </trkpt>
      <trkpt lat="49.74629" lon="2.1708">
        <ele>86.2</ele>
        <time>2022-05-11T13:31:31Z</time>
      </trkpt>
      <trkpt lat="49.7463" lon="2.17081">
        <ele>86.2</ele>
        <time>2022-05-11T13:31:32Z</time>
      </trkpt>
      <trkpt lat="49.74631" lon="2.17083">
        <ele>86.2</ele>
        <time>2022-05-11T13:31:34Z</time>
      </trkpt>
      <trkpt lat="49.74632" lon="2.17084">
        <ele>86.2</ele>
        <time>2022-05-11T13:31:35Z</time>
      </trkpt>
      <trkpt lat="49.74633" lon="2.17087">
        <ele>86.2</ele>
        <time>2022-05-11T13:31:36Z</time>
      </trkpt>
      <trkpt lat="49.74634" lon="2.17087">
        <ele>86.3</ele>
        <time>2022-05-11T13:31:37Z</time>
      </trkpt>
      <trkpt lat="49.74634" lon="2.17088">
        <ele>86.3</ele>
        <time>2022-05-11T13:31:38Z</time>
      </trkpt>
      <trkpt lat="49.74635" lon="2.1709">
        <ele>86.3</ele>
        <time>2022-05-11T13:31:39Z</time>
      </trkpt>
      <trkpt lat="49.74636" lon="2.17092">
        <ele>86.3</ele>
        <time>2022-05-11T13:31:40Z</time>
      </trkpt>
      <trkpt lat="49.74637" lon="2.17093">
        <ele>86.3</ele>
        <time>2022-05-11T13:31:41Z</time>
      </trkpt>
      <trkpt lat="49.74637" lon="2.17095">
        <ele>86.3</ele>
        <time>2022-05-11T13:31:42Z</time>
      </trkpt>
      <trkpt lat="49.74638" lon="2.17097">
        <ele>86.3</ele>
        <time>2022-05-11T13:31:44Z</time>
      </trkpt>
      <trkpt lat="49.7464" lon="2.17099">
        <ele>86.3</ele>
        <time>2022-05-11T13:31:45Z</time>
      </trkpt>
      <trkpt lat="49.7464" lon="2.171">
        <ele>86.3</ele>
        <time>2022-05-11T13:31:46Z</time>
      </trkpt>
      <trkpt lat="49.74641" lon="2.17102">
        <ele>86.3</ele>
        <time>2022-05-11T13:31:47Z</time>
      </trkpt>
      <trkpt lat="49.74641" lon="2.17103">
        <ele>86.3</ele>
        <time>2022-05-11T13:31:48Z</time>
      </trkpt>
      <trkpt lat="49.74642" lon="2.17105">
        <ele>86.3</ele>
        <time>2022-05-11T13:31:49Z</time>
      </trkpt>
      <trkpt lat="49.74643" lon="2.17108">
        <ele>86.3</ele>
        <time>2022-05-11T13:31:51Z</time>
      </trkpt>
      <trkpt lat="49.74644" lon="2.17109">
        <ele>86.3</ele>
        <time>2022-05-11T13:31:52Z</time>
      </trkpt>
      <trkpt lat="49.74645" lon="2.1711">
        <ele>86.3</ele>
        <time>2022-05-11T13:31:53Z</time>
      </trkpt>
      <trkpt lat="49.74645" lon="2.17112">
        <ele>86.3</ele>
        <time>2022-05-11T13:31:54Z</time>
      </trkpt>
      <trkpt lat="49.74646" lon="2.17113">
        <ele>86.3</ele>
        <time>2022-05-11T13:31:55Z</time>
      </trkpt>
      <trkpt lat="49.74647" lon="2.17116">
        <ele>86.3</ele>
        <time>2022-05-11T13:31:56Z</time>
      </trkpt>
      <trkpt lat="49.74648" lon="2.17117">
        <ele>86.3</ele>
        <time>2022-05-11T13:31:58Z</time>
      </trkpt>
      <trkpt lat="49.74649" lon="2.17118">
        <ele>86.3</ele>
        <time>2022-05-11T13:31:59Z</time>
      </trkpt>
      <trkpt lat="49.74649" lon="2.17119">
        <ele>86.3</ele>
        <time>2022-05-11T13:32:00Z</time>
      </trkpt>
      <trkpt lat="49.7465" lon="2.1712">
        <ele>86.3</ele>
        <time>2022-05-11T13:32:01Z</time>
      </trkpt>
      <trkpt lat="49.7465" lon="2.17121">
        <ele>86.3</ele>
        <time>2022-05-11T13:32:02Z</time>
      </trkpt>
      <trkpt lat="49.74651" lon="2.17122">
        <ele>86.3</ele>
        <time>2022-05-11T13:32:03Z</time>
      </trkpt>
      <trkpt lat="49.74652" lon="2.17124">
        <ele>86.3</ele>
        <time>2022-05-11T13:32:04Z</time>
      </trkpt>
      <trkpt lat="49.74653" lon="2.17126">
        <ele>86.3</ele>
        <time>2022-05-11T13:32:06Z</time>
      </trkpt>
      <trkpt lat="49.74655" lon="2.1713">
        <ele>86.3</ele>
        <time>2022-05-11T13:32:08Z</time>
      </trkpt>
      <trkpt lat="49.74656" lon="2.17132">
        <ele>86.3</ele>
        <time>2022-05-11T13:32:09Z</time>
      </trkpt>
      <trkpt lat="49.74656" lon="2.17134">
        <ele>86.3</ele>
        <time>2022-05-11T13:32:11Z</time>
      </trkpt>
      <trkpt lat="49.74657" lon="2.17136">
        <ele>86.3</ele>
        <time>2022-05-11T13:32:12Z</time>
      </trkpt>
      <trkpt lat="49.74658" lon="2.17137">
        <ele>86.3</ele>
        <time>2022-05-11T13:32:13Z</time>
      </trkpt>
      <trkpt lat="49.74658" lon="2.17139">
        <ele>86.3</ele>
        <time>2022-05-11T13:32:14Z</time>
      </trkpt>
      <trkpt lat="49.74659" lon="2.17141">
        <ele>86.3</ele>
        <time>2022-05-11T13:32:15Z</time>
      </trkpt>
      <trkpt lat="49.7466" lon="2.17143">
        <ele>86.3</ele>
        <time>2022-05-11T13:32:16Z</time>
      </trkpt>
      <trkpt lat="49.74661" lon="2.17146">
        <ele>86.3</ele>
        <time>2022-05-11T13:32:17Z</time>
      </trkpt>
      <trkpt lat="49.74662" lon="2.17148">
        <ele>86.2</ele>
        <time>2022-05-11T13:32:19Z</time>
      </trkpt>
      <trkpt lat="49.74662" lon="2.17149">
        <ele>86.2</ele>
        <time>2022-05-11T13:32:20Z</time>
      </trkpt>
      <trkpt lat="49.74663" lon="2.17152">
        <ele>86.2</ele>
        <time>2022-05-11T13:32:21Z</time>
      </trkpt>
      <trkpt lat="49.74663" lon="2.17153">
        <ele>86.2</ele>
        <time>2022-05-11T13:32:22Z</time>
      </trkpt>
      <trkpt lat="49.74664" lon="2.17155">
        <ele>86.2</ele>
        <time>2022-05-11T13:32:23Z</time>
      </trkpt>
      <trkpt lat="49.74665" lon="2.17156">
        <ele>86.2</ele>
        <time>2022-05-11T13:32:24Z</time>
      </trkpt>
      <trkpt lat="49.74665" lon="2.17158">
        <ele>86.2</ele>
        <time>2022-05-11T13:32:25Z</time>
      </trkpt>
      <trkpt lat="49.74667" lon="2.17161">
        <ele>86.2</ele>
        <time>2022-05-11T13:32:27Z</time>
      </trkpt>
      <trkpt lat="49.74667" lon="2.17162">
        <ele>86.2</ele>
        <time>2022-05-11T13:32:28Z</time>
      </trkpt>
      <trkpt lat="49.74668" lon="2.17163">
        <ele>86.2</ele>
        <time>2022-05-11T13:32:29Z</time>
      </trkpt>
      <trkpt lat="49.74669" lon="2.17165">
        <ele>86.2</ele>
        <time>2022-05-11T13:32:30Z</time>
      </trkpt>
      <trkpt lat="49.7467" lon="2.17167">
        <ele>86.2</ele>
        <time>2022-05-11T13:32:31Z</time>
      </trkpt>
      <trkpt lat="49.74671" lon="2.1717">
        <ele>86.2</ele>
        <time>2022-05-11T13:32:32Z</time>
      </trkpt>
      <trkpt lat="49.74672" lon="2.17171">
        <ele>86.2</ele>
        <time>2022-05-11T13:32:33Z</time>
      </trkpt>
      <trkpt lat="49.74672" lon="2.17172">
        <ele>86.2</ele>
        <time>2022-05-11T13:32:34Z</time>
      </trkpt>
      <trkpt lat="49.74673" lon="2.17174">
        <ele>86.2</ele>
        <time>2022-05-11T13:32:35Z</time>
      </trkpt>
      <trkpt lat="49.74674" lon="2.17175">
        <ele>86.2</ele>
        <time>2022-05-11T13:32:36Z</time>
      </trkpt>
      <trkpt lat="49.74674" lon="2.17176">
        <ele>86.2</ele>
        <time>2022-05-11T13:32:38Z</time>
      </trkpt>
      <trkpt lat="49.74674" lon="2.17177">
        <ele>86.2</ele>
        <time>2022-05-11T13:32:39Z</time>
      </trkpt>
      <trkpt lat="49.74675" lon="2.17178">
        <ele>86.2</ele>
        <time>2022-05-11T13:32:40Z</time>
      </trkpt>
      <trkpt lat="49.74675" lon="2.17179">
        <ele>86.2</ele>
        <time>2022-05-11T13:32:41Z</time>
      </trkpt>
      <trkpt lat="49.74676" lon="2.17181">
        <ele>86.1</ele>
        <time>2022-05-11T13:32:42Z</time>
      </trkpt>
      <trkpt lat="49.74676" lon="2.17182">
        <ele>86.2</ele>
        <time>2022-05-11T13:32:43Z</time>
      </trkpt>
      <trkpt lat="49.74677" lon="2.17184">
        <ele>86.2</ele>
        <time>2022-05-11T13:32:44Z</time>
      </trkpt>
      <trkpt lat="49.74678" lon="2.17186">
        <ele>86.2</ele>
        <time>2022-05-11T13:32:46Z</time>
      </trkpt>
      <trkpt lat="49.74678" lon="2.17187">
        <ele>86.2</ele>
        <time>2022-05-11T13:32:47Z</time>
      </trkpt>
      <trkpt lat="49.74678" lon="2.17188">
        <ele>86.1</ele>
        <time>2022-05-11T13:32:48Z</time>
      </trkpt>
      <trkpt lat="49.74679" lon="2.1719">
        <ele>86.1</ele>
        <time>2022-05-11T13:32:49Z</time>
      </trkpt>
      <trkpt lat="49.7468" lon="2.17191">
        <ele>86.2</ele>
        <time>2022-05-11T13:32:50Z</time>
      </trkpt>
      <trkpt lat="49.74681" lon="2.17194">
        <ele>86.1</ele>
        <time>2022-05-11T13:32:51Z</time>
      </trkpt>
      <trkpt lat="49.74681" lon="2.17195">
        <ele>86.2</ele>
        <time>2022-05-11T13:32:52Z</time>
      </trkpt>
      <trkpt lat="49.74682" lon="2.17196">
        <ele>86.2</ele>
        <time>2022-05-11T13:32:53Z</time>
      </trkpt>
      <trkpt lat="49.74683" lon="2.17197">
        <ele>86.2</ele>
        <time>2022-05-11T13:32:55Z</time>
      </trkpt>
      <trkpt lat="49.74684" lon="2.172">
        <ele>86.1</ele>
        <time>2022-05-11T13:32:56Z</time>
      </trkpt>
      <trkpt lat="49.74684" lon="2.17201">
        <ele>86.1</ele>
        <time>2022-05-11T13:32:57Z</time>
      </trkpt>
      <trkpt lat="49.74685" lon="2.17203">
        <ele>86.2</ele>
        <time>2022-05-11T13:32:58Z</time>
      </trkpt>
      <trkpt lat="49.74685" lon="2.17205">
        <ele>86.2</ele>
        <time>2022-05-11T13:32:59Z</time>
      </trkpt>
      <trkpt lat="49.74686" lon="2.17208">
        <ele>86.2</ele>
        <time>2022-05-11T13:33:00Z</time>
      </trkpt>
      <trkpt lat="49.74687" lon="2.17209">
        <ele>86.2</ele>
        <time>2022-05-11T13:33:01Z</time>
      </trkpt>
      <trkpt lat="49.74687" lon="2.1721">
        <ele>86.2</ele>
        <time>2022-05-11T13:33:02Z</time>
      </trkpt>
      <trkpt lat="49.74688" lon="2.17212">
        <ele>86.2</ele>
        <time>2022-05-11T13:33:03Z</time>
      </trkpt>
      <trkpt lat="49.74688" lon="2.17214">
        <ele>86.2</ele>
        <time>2022-05-11T13:33:04Z</time>
      </trkpt>
      <trkpt lat="49.74689" lon="2.17216">
        <ele>86.2</ele>
        <time>2022-05-11T13:33:06Z</time>
      </trkpt>
      <trkpt lat="49.74689" lon="2.17218">
        <ele>86.2</ele>
        <time>2022-05-11T13:33:07Z</time>
      </trkpt>
      <trkpt lat="49.7469" lon="2.17221">
        <ele>86.2</ele>
        <time>2022-05-11T13:33:08Z</time>
      </trkpt>
      <trkpt lat="49.74691" lon="2.17223">
        <ele>86.2</ele>
        <time>2022-05-11T13:33:09Z</time>
      </trkpt>
      <trkpt lat="49.74691" lon="2.17225">
        <ele>86.2</ele>
        <time>2022-05-11T13:33:10Z</time>
      </trkpt>
      <trkpt lat="49.74692" lon="2.17226">
        <ele>86.2</ele>
        <time>2022-05-11T13:33:11Z</time>
      </trkpt>
      <trkpt lat="49.74693" lon="2.17229">
        <ele>86.2</ele>
        <time>2022-05-11T13:33:12Z</time>
      </trkpt>
      <trkpt lat="49.74694" lon="2.17231">
        <ele>86.2</ele>
        <time>2022-05-11T13:33:14Z</time>
      </trkpt>
      <trkpt lat="49.74694" lon="2.17232">
        <ele>86.2</ele>
        <time>2022-05-11T13:33:15Z</time>
      </trkpt>
      <trkpt lat="49.74695" lon="2.17233">
        <ele>86.2</ele>
        <time>2022-05-11T13:33:16Z</time>
      </trkpt>
      <trkpt lat="49.74695" lon="2.17235">
        <ele>86.2</ele>
        <time>2022-05-11T13:33:17Z</time>
      </trkpt>
      <trkpt lat="49.74697" lon="2.17238">
        <ele>86.2</ele>
        <time>2022-05-11T13:33:18Z</time>
      </trkpt>
      <trkpt lat="49.74697" lon="2.17239">
        <ele>86.2</ele>
        <time>2022-05-11T13:33:19Z</time>
      </trkpt>
      <trkpt lat="49.74698" lon="2.1724">
        <ele>86.1</ele>
        <time>2022-05-11T13:33:20Z</time>
      </trkpt>
      <trkpt lat="49.74699" lon="2.17243">
        <ele>86.2</ele>
        <time>2022-05-11T13:33:21Z</time>
      </trkpt>
      <trkpt lat="49.74699" lon="2.17244">
        <ele>86.2</ele>
        <time>2022-05-11T13:33:22Z</time>
      </trkpt>
      <trkpt lat="49.747" lon="2.17245">
        <ele>86.2</ele>
        <time>2022-05-11T13:33:23Z</time>
      </trkpt>
      <trkpt lat="49.74701" lon="2.17248">
        <ele>86.1</ele>
        <time>2022-05-11T13:33:25Z</time>
      </trkpt>
      <trkpt lat="49.74701" lon="2.17249">
        <ele>86.1</ele>
        <time>2022-05-11T13:33:26Z</time>
      </trkpt>
      <trkpt lat="49.74702" lon="2.1725">
        <ele>86.1</ele>
        <time>2022-05-11T13:33:27Z</time>
      </trkpt>
      <trkpt lat="49.74702" lon="2.17251">
        <ele>86.1</ele>
        <time>2022-05-11T13:33:28Z</time>
      </trkpt>
      <trkpt lat="49.74703" lon="2.17253">
        <ele>86.1</ele>
        <time>2022-05-11T13:33:29Z</time>
      </trkpt>
      <trkpt lat="49.74703" lon="2.17254">
        <ele>86.1</ele>
        <time>2022-05-11T13:33:30Z</time>
      </trkpt>
      <trkpt lat="49.74704" lon="2.17255">
        <ele>86.1</ele>
        <time>2022-05-11T13:33:31Z</time>
      </trkpt>
      <trkpt lat="49.74705" lon="2.17257">
        <ele>86.1</ele>
        <time>2022-05-11T13:33:33Z</time>
      </trkpt>
      <trkpt lat="49.74705" lon="2.17259">
        <ele>86.1</ele>
        <time>2022-05-11T13:33:34Z</time>
      </trkpt>
      <trkpt lat="49.74706" lon="2.17261">
        <ele>86.1</ele>
        <time>2022-05-11T13:33:35Z</time>
      </trkpt>
      <trkpt lat="49.74707" lon="2.17262">
        <ele>86.1</ele>
        <time>2022-05-11T13:33:36Z</time>
      </trkpt>
      <trkpt lat="49.74707" lon="2.17264">
        <ele>86.1</ele>
        <time>2022-05-11T13:33:37Z</time>
      </trkpt>
      <trkpt lat="49.74708" lon="2.17266">
        <ele>86.1</ele>
        <time>2022-05-11T13:33:38Z</time>
      </trkpt>
      <trkpt lat="49.74709" lon="2.17267">
        <ele>86</ele>
        <time>2022-05-11T13:33:39Z</time>
      </trkpt>
      <trkpt lat="49.7471" lon="2.17268">
        <ele>86.1</ele>
        <time>2022-05-11T13:33:40Z</time>
      </trkpt>
      <trkpt lat="49.74711" lon="2.1727">
        <ele>86.1</ele>
        <time>2022-05-11T13:33:41Z</time>
      </trkpt>
      <trkpt lat="49.74711" lon="2.17272">
        <ele>86</ele>
        <time>2022-05-11T13:33:43Z</time>
      </trkpt>
      <trkpt lat="49.74712" lon="2.17273">
        <ele>86</ele>
        <time>2022-05-11T13:33:44Z</time>
      </trkpt>
      <trkpt lat="49.74713" lon="2.17274">
        <ele>86</ele>
        <time>2022-05-11T13:33:45Z</time>
      </trkpt>
      <trkpt lat="49.74713" lon="2.17275">
        <ele>86</ele>
        <time>2022-05-11T13:33:46Z</time>
      </trkpt>
      <trkpt lat="49.74714" lon="2.17276">
        <ele>86</ele>
        <time>2022-05-11T13:33:47Z</time>
      </trkpt>
      <trkpt lat="49.74714" lon="2.17276">
        <ele>86</ele>
        <time>2022-05-11T13:33:48Z</time>
      </trkpt>
      <trkpt lat="49.74716" lon="2.17279">
        <ele>86</ele>
        <time>2022-05-11T13:33:49Z</time>
      </trkpt>
      <trkpt lat="49.74716" lon="2.1728">
        <ele>86</ele>
        <time>2022-05-11T13:33:51Z</time>
      </trkpt>
      <trkpt lat="49.74717" lon="2.17282">
        <ele>86</ele>
        <time>2022-05-11T13:33:52Z</time>
      </trkpt>
      <trkpt lat="49.74719" lon="2.17285">
        <ele>86</ele>
        <time>2022-05-11T13:33:53Z</time>
      </trkpt>
      <trkpt lat="49.74719" lon="2.17286">
        <ele>86</ele>
        <time>2022-05-11T13:33:54Z</time>
      </trkpt>
      <trkpt lat="49.74719" lon="2.17287">
        <ele>86</ele>
        <time>2022-05-11T13:33:55Z</time>
      </trkpt>
      <trkpt lat="49.7472" lon="2.17288">
        <ele>86</ele>
        <time>2022-05-11T13:33:56Z</time>
      </trkpt>
      <trkpt lat="49.74721" lon="2.17289">
        <ele>86</ele>
        <time>2022-05-11T13:33:57Z</time>
      </trkpt>
      <trkpt lat="49.74722" lon="2.17291">
        <ele>86</ele>
        <time>2022-05-11T13:33:58Z</time>
      </trkpt>
      <trkpt lat="49.74723" lon="2.17293">
        <ele>86</ele>
        <time>2022-05-11T13:34:00Z</time>
      </trkpt>
      <trkpt lat="49.74723" lon="2.17294">
        <ele>86</ele>
        <time>2022-05-11T13:34:01Z</time>
      </trkpt>
      <trkpt lat="49.74723" lon="2.17295">
        <ele>86</ele>
        <time>2022-05-11T13:34:02Z</time>
      </trkpt>
      <trkpt lat="49.74724" lon="2.17295">
        <ele>86</ele>
        <time>2022-05-11T13:34:03Z</time>
      </trkpt>
      <trkpt lat="49.74725" lon="2.17297">
        <ele>86</ele>
        <time>2022-05-11T13:34:04Z</time>
      </trkpt>
      <trkpt lat="49.74725" lon="2.17299">
        <ele>86</ele>
        <time>2022-05-11T13:34:05Z</time>
      </trkpt>
      <trkpt lat="49.74726" lon="2.17301">
        <ele>86</ele>
        <time>2022-05-11T13:34:06Z</time>
      </trkpt>
      <trkpt lat="49.74727" lon="2.17304">
        <ele>86.1</ele>
        <time>2022-05-11T13:34:08Z</time>
      </trkpt>
      <trkpt lat="49.74728" lon="2.17306">
        <ele>86</ele>
        <time>2022-05-11T13:34:09Z</time>
      </trkpt>
      <trkpt lat="49.74729" lon="2.17307">
        <ele>86.1</ele>
        <time>2022-05-11T13:34:10Z</time>
      </trkpt>
      <trkpt lat="49.7473" lon="2.17309">
        <ele>86.1</ele>
        <time>2022-05-11T13:34:11Z</time>
      </trkpt>
      <trkpt lat="49.74731" lon="2.17311">
        <ele>86.1</ele>
        <time>2022-05-11T13:34:12Z</time>
      </trkpt>
      <trkpt lat="49.74732" lon="2.17313">
        <ele>86.1</ele>
        <time>2022-05-11T13:34:13Z</time>
      </trkpt>
      <trkpt lat="49.74732" lon="2.17314">
        <ele>86.1</ele>
        <time>2022-05-11T13:34:14Z</time>
      </trkpt>
      <trkpt lat="49.74733" lon="2.17315">
        <ele>86.1</ele>
        <time>2022-05-11T13:34:15Z</time>
      </trkpt>
      <trkpt lat="49.74733" lon="2.17317">
        <ele>86.1</ele>
        <time>2022-05-11T13:34:16Z</time>
      </trkpt>
      <trkpt lat="49.74734" lon="2.17318">
        <ele>86.1</ele>
        <time>2022-05-11T13:34:18Z</time>
      </trkpt>
      <trkpt lat="49.74734" lon="2.1732">
        <ele>86.2</ele>
        <time>2022-05-11T13:34:19Z</time>
      </trkpt>
      <trkpt lat="49.74735" lon="2.17322">
        <ele>86.2</ele>
        <time>2022-05-11T13:34:20Z</time>
      </trkpt>
      <trkpt lat="49.74736" lon="2.17323">
        <ele>86.2</ele>
        <time>2022-05-11T13:34:21Z</time>
      </trkpt>
      <trkpt lat="49.74736" lon="2.17325">
        <ele>86.2</ele>
        <time>2022-05-11T13:34:22Z</time>
      </trkpt>
      <trkpt lat="49.74737" lon="2.17328">
        <ele>86.2</ele>
        <time>2022-05-11T13:34:23Z</time>
      </trkpt>
      <trkpt lat="49.74738" lon="2.17329">
        <ele>86.2</ele>
        <time>2022-05-11T13:34:24Z</time>
      </trkpt>
      <trkpt lat="49.74738" lon="2.17331">
        <ele>86.2</ele>
        <time>2022-05-11T13:34:26Z</time>
      </trkpt>
      <trkpt lat="49.74738" lon="2.17333">
        <ele>86.3</ele>
        <time>2022-05-11T13:34:27Z</time>
      </trkpt>
      <trkpt lat="49.74738" lon="2.17332">
        <ele>86.3</ele>
        <time>2022-05-11T13:34:28Z</time>
      </trkpt>
      <trkpt lat="49.74738" lon="2.17333">
        <ele>86.3</ele>
        <time>2022-05-11T13:34:29Z</time>
      </trkpt>
      <trkpt lat="49.74739" lon="2.17335">
        <ele>86.3</ele>
        <time>2022-05-11T13:34:30Z</time>
      </trkpt>
      <trkpt lat="49.7474" lon="2.17337">
        <ele>86.3</ele>
        <time>2022-05-11T13:34:32Z</time>
      </trkpt>
      <trkpt lat="49.7474" lon="2.17339">
        <ele>86.3</ele>
        <time>2022-05-11T13:34:33Z</time>
      </trkpt>
      <trkpt lat="49.74741" lon="2.17341">
        <ele>86.3</ele>
        <time>2022-05-11T13:34:34Z</time>
      </trkpt>
      <trkpt lat="49.74741" lon="2.17343">
        <ele>86.3</ele>
        <time>2022-05-11T13:34:35Z</time>
      </trkpt>
      <trkpt lat="49.74742" lon="2.17344">
        <ele>86.3</ele>
        <time>2022-05-11T13:34:36Z</time>
      </trkpt>
      <trkpt lat="49.74742" lon="2.17345">
        <ele>86.3</ele>
        <time>2022-05-11T13:34:37Z</time>
      </trkpt>
      <trkpt lat="49.74743" lon="2.17348">
        <ele>86.3</ele>
        <time>2022-05-11T13:34:38Z</time>
      </trkpt>
      <trkpt lat="49.74744" lon="2.17349">
        <ele>86.4</ele>
        <time>2022-05-11T13:34:39Z</time>
      </trkpt>
      <trkpt lat="49.74744" lon="2.1735">
        <ele>86.4</ele>
        <time>2022-05-11T13:34:40Z</time>
      </trkpt>
      <trkpt lat="49.74745" lon="2.17352">
        <ele>86.3</ele>
        <time>2022-05-11T13:34:41Z</time>
      </trkpt>
      <trkpt lat="49.74745" lon="2.17354">
        <ele>86.4</ele>
        <time>2022-05-11T13:34:42Z</time>
      </trkpt>
      <trkpt lat="49.74746" lon="2.17355">
        <ele>86.4</ele>
        <time>2022-05-11T13:34:43Z</time>
      </trkpt>
      <trkpt lat="49.74746" lon="2.17356">
        <ele>86.4</ele>
        <time>2022-05-11T13:34:44Z</time>
      </trkpt>
      <trkpt lat="49.74747" lon="2.17358">
        <ele>86.4</ele>
        <time>2022-05-11T13:34:45Z</time>
      </trkpt>
      <trkpt lat="49.74747" lon="2.1736">
        <ele>86.4</ele>
        <time>2022-05-11T13:34:46Z</time>
      </trkpt>
      <trkpt lat="49.74748" lon="2.17361">
        <ele>86.4</ele>
        <time>2022-05-11T13:34:47Z</time>
      </trkpt>
      <trkpt lat="49.74748" lon="2.17363">
        <ele>86.4</ele>
        <time>2022-05-11T13:34:48Z</time>
      </trkpt>
      <trkpt lat="49.74748" lon="2.17362">
        <ele>86.4</ele>
        <time>2022-05-11T13:34:49Z</time>
      </trkpt>
      <trkpt lat="49.74748" lon="2.17362">
        <ele>86.4</ele>
        <time>2022-05-11T13:34:50Z</time>
      </trkpt>
      <trkpt lat="49.74747" lon="2.17362">
        <ele>86.4</ele>
        <time>2022-05-11T13:34:51Z</time>
      </trkpt>
      <trkpt lat="49.74748" lon="2.17362">
        <ele>86.4</ele>
        <time>2022-05-11T13:34:52Z</time>
      </trkpt>
      <trkpt lat="49.74748" lon="2.17363">
        <ele>86.4</ele>
        <time>2022-05-11T13:34:53Z</time>
      </trkpt>
      <trkpt lat="49.74748" lon="2.17363">
        <ele>86.4</ele>
        <time>2022-05-11T13:34:54Z</time>
      </trkpt>
      <trkpt lat="49.74749" lon="2.17365">
        <ele>86.4</ele>
        <time>2022-05-11T13:34:55Z</time>
      </trkpt>
      <trkpt lat="49.74749" lon="2.17366">
        <ele>86.4</ele>
        <time>2022-05-11T13:34:56Z</time>
      </trkpt>
      <trkpt lat="49.74749" lon="2.17367">
        <ele>86.4</ele>
        <time>2022-05-11T13:34:57Z</time>
      </trkpt>
      <trkpt lat="49.74749" lon="2.17368">
        <ele>86.4</ele>
        <time>2022-05-11T13:34:58Z</time>
      </trkpt>
      <trkpt lat="49.7475" lon="2.17369">
        <ele>86.4</ele>
        <time>2022-05-11T13:34:59Z</time>
      </trkpt>
      <trkpt lat="49.7475" lon="2.17369">
        <ele>86.4</ele>
        <time>2022-05-11T13:35:00Z</time>
      </trkpt>
      <trkpt lat="49.7475" lon="2.17369">
        <ele>86.4</ele>
        <time>2022-05-11T13:35:01Z</time>
      </trkpt>
      <trkpt lat="49.7475" lon="2.17368">
        <ele>86.4</ele>
        <time>2022-05-11T13:35:02Z</time>
      </trkpt>
      <trkpt lat="49.7475" lon="2.17368">
        <ele>86.4</ele>
        <time>2022-05-11T13:35:03Z</time>
      </trkpt>
      <trkpt lat="49.74749" lon="2.17367">
        <ele>86.4</ele>
        <time>2022-05-11T13:35:04Z</time>
      </trkpt>
      <trkpt lat="49.74749" lon="2.17367">
        <ele>86.4</ele>
        <time>2022-05-11T13:35:05Z</time>
      </trkpt>
      <trkpt lat="49.74749" lon="2.17367">
        <ele>86.4</ele>
        <time>2022-05-11T13:35:06Z</time>
      </trkpt>
      <trkpt lat="49.74749" lon="2.17366">
        <ele>86.4</ele>
        <time>2022-05-11T13:35:07Z</time>
      </trkpt>
      <trkpt lat="49.74749" lon="2.17366">
        <ele>86.4</ele>
        <time>2022-05-11T13:35:08Z</time>
      </trkpt>
      <trkpt lat="49.74749" lon="2.17365">
        <ele>86.4</ele>
        <time>2022-05-11T13:35:09Z</time>
      </trkpt>
      <trkpt lat="49.74748" lon="2.17364">
        <ele>86.4</ele>
        <time>2022-05-11T13:35:10Z</time>
      </trkpt>
      <trkpt lat="49.74748" lon="2.17364">
        <ele>86.4</ele>
        <time>2022-05-11T13:35:11Z</time>
      </trkpt>
      <trkpt lat="49.74748" lon="2.17364">
        <ele>86.4</ele>
        <time>2022-05-11T13:35:12Z</time>
      </trkpt>
      <trkpt lat="49.74748" lon="2.17364">
        <ele>86.4</ele>
        <time>2022-05-11T13:35:13Z</time>
      </trkpt>
      <trkpt lat="49.74748" lon="2.17364">
        <ele>86.4</ele>
        <time>2022-05-11T13:35:14Z</time>
      </trkpt>
      <trkpt lat="49.74748" lon="2.17364">
        <ele>86.4</ele>
        <time>2022-05-11T13:35:15Z</time>
      </trkpt>
      <trkpt lat="49.74748" lon="2.17364">
        <ele>86.4</ele>
        <time>2022-05-11T13:35:16Z</time>
      </trkpt>
      <trkpt lat="49.74748" lon="2.17364">
        <ele>86.4</ele>
        <time>2022-05-11T13:35:17Z</time>
      </trkpt>
      <trkpt lat="49.74748" lon="2.17364">
        <ele>86.4</ele>
        <time>2022-05-11T13:35:18Z</time>
      </trkpt>
      <trkpt lat="49.74748" lon="2.17364">
        <ele>86.4</ele>
        <time>2022-05-11T13:35:19Z</time>
      </trkpt>
      <trkpt lat="49.74748" lon="2.17364">
        <ele>86.4</ele>
        <time>2022-05-11T13:35:20Z</time>
      </trkpt>
      <trkpt lat="49.74748" lon="2.17364">
        <ele>86.4</ele>
        <time>2022-05-11T13:35:21Z</time>
      </trkpt>
      <trkpt lat="49.74748" lon="2.17364">
        <ele>86.4</ele>
        <time>2022-05-11T13:35:22Z</time>
      </trkpt>
      <trkpt lat="49.74748" lon="2.17364">
        <ele>86.4</ele>
        <time>2022-05-11T13:35:23Z</time>
      </trkpt>
      <trkpt lat="49.74748" lon="2.17364">
        <ele>86.4</ele>
        <time>2022-05-11T13:35:24Z</time>
      </trkpt>
      <trkpt lat="49.74748" lon="2.17363">
        <ele>86.4</ele>
        <time>2022-05-11T13:35:25Z</time>
      </trkpt>
      <trkpt lat="49.74748" lon="2.17363">
        <ele>86.4</ele>
        <time>2022-05-11T13:35:26Z</time>
      </trkpt>
      <trkpt lat="49.74748" lon="2.17363">
        <ele>86.4</ele>
        <time>2022-05-11T13:35:27Z</time>
      </trkpt>
      <trkpt lat="49.74748" lon="2.17363">
        <ele>86.4</ele>
        <time>2022-05-11T13:35:28Z</time>
      </trkpt>
      <trkpt lat="49.74748" lon="2.17363">
        <ele>86.4</ele>
        <time>2022-05-11T13:35:29Z</time>
      </trkpt>
      <trkpt lat="49.74748" lon="2.17363">
        <ele>86.4</ele>
        <time>2022-05-11T13:35:30Z</time>
      </trkpt>
      <trkpt lat="49.74748" lon="2.17363">
        <ele>86.4</ele>
        <time>2022-05-11T13:35:31Z</time>
      </trkpt>
      <trkpt lat="49.74748" lon="2.17363">
        <ele>86.4</ele>
        <time>2022-05-11T13:35:32Z</time>
      </trkpt>
      <trkpt lat="49.74748" lon="2.17363">
        <ele>86.4</ele>
        <time>2022-05-11T13:35:33Z</time>
      </trkpt>
      <trkpt lat="49.74748" lon="2.17363">
        <ele>86.4</ele>
        <time>2022-05-11T13:35:34Z</time>
      </trkpt>
      <trkpt lat="49.74748" lon="2.17363">
        <ele>86.4</ele>
        <time>2022-05-11T13:35:35Z</time>
      </trkpt>
      <trkpt lat="49.74748" lon="2.17363">
        <ele>86.4</ele>
        <time>2022-05-11T13:35:36Z</time>
      </trkpt>
      <trkpt lat="49.74748" lon="2.17363">
        <ele>86.4</ele>
        <time>2022-05-11T13:35:37Z</time>
      </trkpt>
      <trkpt lat="49.74748" lon="2.17363">
        <ele>86.4</ele>
        <time>2022-05-11T13:35:38Z</time>
      </trkpt>
      <trkpt lat="49.74748" lon="2.17363">
        <ele>86.4</ele>
        <time>2022-05-11T13:35:39Z</time>
      </trkpt>
      <trkpt lat="49.74748" lon="2.17363">
        <ele>86.4</ele>
        <time>2022-05-11T13:35:40Z</time>
      </trkpt>
      <trkpt lat="49.74748" lon="2.17362">
        <ele>86.4</ele>
        <time>2022-05-11T13:35:41Z</time>
      </trkpt>
      <trkpt lat="49.74748" lon="2.17362">
        <ele>86.4</ele>
        <time>2022-05-11T13:35:42Z</time>
      </trkpt>
      <trkpt lat="49.74748" lon="2.17362">
        <ele>86.4</ele>
        <time>2022-05-11T13:35:43Z</time>
      </trkpt>
      <trkpt lat="49.74748" lon="2.17362">
        <ele>86.4</ele>
        <time>2022-05-11T13:35:44Z</time>
      </trkpt>
      <trkpt lat="49.74748" lon="2.17362">
        <ele>86.4</ele>
        <time>2022-05-11T13:35:45Z</time>
      </trkpt>
      <trkpt lat="49.74748" lon="2.17362">
        <ele>86.4</ele>
        <time>2022-05-11T13:35:46Z</time>
      </trkpt>
      <trkpt lat="49.74748" lon="2.17362">
        <ele>86.4</ele>
        <time>2022-05-11T13:35:47Z</time>
      </trkpt>
      <trkpt lat="49.74748" lon="2.17362">
        <ele>86.4</ele>
        <time>2022-05-11T13:35:48Z</time>
      </trkpt>
      <trkpt lat="49.74748" lon="2.17362">
        <ele>86.4</ele>
        <time>2022-05-11T13:35:49Z</time>
      </trkpt>
      <trkpt lat="49.74748" lon="2.17362">
        <ele>86.4</ele>
        <time>2022-05-11T13:35:50Z</time>
      </trkpt>
      <trkpt lat="49.74748" lon="2.17362">
        <ele>86.4</ele>
        <time>2022-05-11T13:35:51Z</time>
      </trkpt>
      <trkpt lat="49.74748" lon="2.17362">
        <ele>86.4</ele>
        <time>2022-05-11T13:35:52Z</time>
      </trkpt>
      <trkpt lat="49.74748" lon="2.17362">
        <ele>86.4</ele>
        <time>2022-05-11T13:35:53Z</time>
      </trkpt>
      <trkpt lat="49.74748" lon="2.17362">
        <ele>86.4</ele>
        <time>2022-05-11T13:35:54Z</time>
      </trkpt>
      <trkpt lat="49.74748" lon="2.17362">
        <ele>86.4</ele>
        <time>2022-05-11T13:35:55Z</time>
      </trkpt>
      <trkpt lat="49.74748" lon="2.17361">
        <ele>86.4</ele>
        <time>2022-05-11T13:35:56Z</time>
      </trkpt>
      <trkpt lat="49.74748" lon="2.17361">
        <ele>86.4</ele>
        <time>2022-05-11T13:35:57Z</time>
      </trkpt>
      <trkpt lat="49.74748" lon="2.17361">
        <ele>86.4</ele>
        <time>2022-05-11T13:35:58Z</time>
      </trkpt>
      <trkpt lat="49.74748" lon="2.17361">
        <ele>86.4</ele>
        <time>2022-05-11T13:35:59Z</time>
      </trkpt>
      <trkpt lat="49.74748" lon="2.17361">
        <ele>86.4</ele>
        <time>2022-05-11T13:36:00Z</time>
      </trkpt>
      <trkpt lat="49.74748" lon="2.17361">
        <ele>86.4</ele>
        <time>2022-05-11T13:36:01Z</time>
      </trkpt>
      <trkpt lat="49.74747" lon="2.17361">
        <ele>86.4</ele>
        <time>2022-05-11T13:36:02Z</time>
      </trkpt>
      <trkpt lat="49.74747" lon="2.17361">
        <ele>86.4</ele>
        <time>2022-05-11T13:36:03Z</time>
      </trkpt>
      <trkpt lat="49.74747" lon="2.17361">
        <ele>86.4</ele>
        <time>2022-05-11T13:36:04Z</time>
      </trkpt>
      <trkpt lat="49.74747" lon="2.17361">
        <ele>86.4</ele>
        <time>2022-05-11T13:36:05Z</time>
      </trkpt>
      <trkpt lat="49.74747" lon="2.17361">
        <ele>86.4</ele>
        <time>2022-05-11T13:36:06Z</time>
      </trkpt>
      <trkpt lat="49.74747" lon="2.17361">
        <ele>86.4</ele>
        <time>2022-05-11T13:36:07Z</time>
      </trkpt>
      <trkpt lat="49.74747" lon="2.17361">
        <ele>86.4</ele>
        <time>2022-05-11T13:36:08Z</time>
      </trkpt>
      <trkpt lat="49.74747" lon="2.17361">
        <ele>86.4</ele>
        <time>2022-05-11T13:36:09Z</time>
      </trkpt>
      <trkpt lat="49.74747" lon="2.17361">
        <ele>86.4</ele>
        <time>2022-05-11T13:36:10Z</time>
      </trkpt>
      <trkpt lat="49.74747" lon="2.17361">
        <ele>86.4</ele>
        <time>2022-05-11T13:36:11Z</time>
      </trkpt>
      <trkpt lat="49.74747" lon="2.1736">
        <ele>86.4</ele>
        <time>2022-05-11T13:36:12Z</time>
      </trkpt>
      <trkpt lat="49.74747" lon="2.1736">
        <ele>86.4</ele>
        <time>2022-05-11T13:36:13Z</time>
      </trkpt>
      <trkpt lat="49.74747" lon="2.1736">
        <ele>86.4</ele>
        <time>2022-05-11T13:36:14Z</time>
      </trkpt>
      <trkpt lat="49.74747" lon="2.1736">
        <ele>86.4</ele>
        <time>2022-05-11T13:36:15Z</time>
      </trkpt>
      <trkpt lat="49.74747" lon="2.1736">
        <ele>86.4</ele>
        <time>2022-05-11T13:36:16Z</time>
      </trkpt>
      <trkpt lat="49.74747" lon="2.1736">
        <ele>86.4</ele>
        <time>2022-05-11T13:36:17Z</time>
      </trkpt>
      <trkpt lat="49.74747" lon="2.1736">
        <ele>86.4</ele>
        <time>2022-05-11T13:36:18Z</time>
      </trkpt>
      <trkpt lat="49.74747" lon="2.1736">
        <ele>86.4</ele>
        <time>2022-05-11T13:36:19Z</time>
      </trkpt>
      <trkpt lat="49.74747" lon="2.1736">
        <ele>86.4</ele>
        <time>2022-05-11T13:36:20Z</time>
      </trkpt>
      <trkpt lat="49.74747" lon="2.1736">
        <ele>86.4</ele>
        <time>2022-05-11T13:36:21Z</time>
      </trkpt>
      <trkpt lat="49.74747" lon="2.1736">
        <ele>86.4</ele>
        <time>2022-05-11T13:36:22Z</time>
      </trkpt>
      <trkpt lat="49.74747" lon="2.1736">
        <ele>86.4</ele>
        <time>2022-05-11T13:36:23Z</time>
      </trkpt>
      <trkpt lat="49.74747" lon="2.1736">
        <ele>86.4</ele>
        <time>2022-05-11T13:36:24Z</time>
      </trkpt>
      <trkpt lat="49.74747" lon="2.1736">
        <ele>86.4</ele>
        <time>2022-05-11T13:36:25Z</time>
      </trkpt>
      <trkpt lat="49.74747" lon="2.1736">
        <ele>86.4</ele>
        <time>2022-05-11T13:36:26Z</time>
      </trkpt>
      <trkpt lat="49.74747" lon="2.17359">
        <ele>86.4</ele>
        <time>2022-05-11T13:36:27Z</time>
      </trkpt>
      <trkpt lat="49.74747" lon="2.17359">
        <ele>86.4</ele>
        <time>2022-05-11T13:36:28Z</time>
      </trkpt>
      <trkpt lat="49.74747" lon="2.17359">
        <ele>86.4</ele>
        <time>2022-05-11T13:36:29Z</time>
      </trkpt>
      <trkpt lat="49.74747" lon="2.17359">
        <ele>86.4</ele>
        <time>2022-05-11T13:36:30Z</time>
      </trkpt>
      <trkpt lat="49.74747" lon="2.17359">
        <ele>86.4</ele>
        <time>2022-05-11T13:36:31Z</time>
      </trkpt>
      <trkpt lat="49.74747" lon="2.17359">
        <ele>86.4</ele>
        <time>2022-05-11T13:36:32Z</time>
      </trkpt>
      <trkpt lat="49.74747" lon="2.17359">
        <ele>86.4</ele>
        <time>2022-05-11T13:36:33Z</time>
      </trkpt>
      <trkpt lat="49.74747" lon="2.17359">
        <ele>86.4</ele>
        <time>2022-05-11T13:36:34Z</time>
      </trkpt>
      <trkpt lat="49.74747" lon="2.17359">
        <ele>86.4</ele>
        <time>2022-05-11T13:36:35Z</time>
      </trkpt>
      <trkpt lat="49.74747" lon="2.17359">
        <ele>86.4</ele>
        <time>2022-05-11T13:36:36Z</time>
      </trkpt>
      <trkpt lat="49.74747" lon="2.17359">
        <ele>86.4</ele>
        <time>2022-05-11T13:36:37Z</time>
      </trkpt>
      <trkpt lat="49.74747" lon="2.17359">
        <ele>86.4</ele>
        <time>2022-05-11T13:36:38Z</time>
      </trkpt>
      <trkpt lat="49.74747" lon="2.17359">
        <ele>86.4</ele>
        <time>2022-05-11T13:36:39Z</time>
      </trkpt>
      <trkpt lat="49.74747" lon="2.17359">
        <ele>86.4</ele>
        <time>2022-05-11T13:36:40Z</time>
      </trkpt>
      <trkpt lat="49.74747" lon="2.17359">
        <ele>86.4</ele>
        <time>2022-05-11T13:36:41Z</time>
      </trkpt>
      <trkpt lat="49.74747" lon="2.17358">
        <ele>86.4</ele>
        <time>2022-05-11T13:36:42Z</time>
      </trkpt>
      <trkpt lat="49.74747" lon="2.17358">
        <ele>86.4</ele>
        <time>2022-05-11T13:36:43Z</time>
      </trkpt>
      <trkpt lat="49.74747" lon="2.17358">
        <ele>86.4</ele>
        <time>2022-05-11T13:36:44Z</time>
      </trkpt>
      <trkpt lat="49.74747" lon="2.17358">
        <ele>86.4</ele>
        <time>2022-05-11T13:36:45Z</time>
      </trkpt>
      <trkpt lat="49.74747" lon="2.17358">
        <ele>86.4</ele>
        <time>2022-05-11T13:36:46Z</time>
      </trkpt>
      <trkpt lat="49.74747" lon="2.17358">
        <ele>86.4</ele>
        <time>2022-05-11T13:36:47Z</time>
      </trkpt>
      <trkpt lat="49.74747" lon="2.17358">
        <ele>86.4</ele>
        <time>2022-05-11T13:36:48Z</time>
      </trkpt>
      <trkpt lat="49.74747" lon="2.17358">
        <ele>86.4</ele>
        <time>2022-05-11T13:36:49Z</time>
      </trkpt>
      <trkpt lat="49.74747" lon="2.17358">
        <ele>86.4</ele>
        <time>2022-05-11T13:36:50Z</time>
      </trkpt>
      <trkpt lat="49.74747" lon="2.17358">
        <ele>86.4</ele>
        <time>2022-05-11T13:36:51Z</time>
      </trkpt>
      <trkpt lat="49.74747" lon="2.17358">
        <ele>86.4</ele>
        <time>2022-05-11T13:36:52Z</time>
      </trkpt>
      <trkpt lat="49.74747" lon="2.17358">
        <ele>86.4</ele>
        <time>2022-05-11T13:36:53Z</time>
      </trkpt>
      <trkpt lat="49.74747" lon="2.17358">
        <ele>86.4</ele>
        <time>2022-05-11T13:36:54Z</time>
      </trkpt>
      <trkpt lat="49.74747" lon="2.17358">
        <ele>86.4</ele>
        <time>2022-05-11T13:36:55Z</time>
      </trkpt>
      <trkpt lat="49.74747" lon="2.17358">
        <ele>86.4</ele>
        <time>2022-05-11T13:36:56Z</time>
      </trkpt>
      <trkpt lat="49.74747" lon="2.17358">
        <ele>86.4</ele>
        <time>2022-05-11T13:36:57Z</time>
      </trkpt>
      <trkpt lat="49.74747" lon="2.17357">
        <ele>86.4</ele>
        <time>2022-05-11T13:36:58Z</time>
      </trkpt>
      <trkpt lat="49.74747" lon="2.17357">
        <ele>86.4</ele>
        <time>2022-05-11T13:36:59Z</time>
      </trkpt>
      <trkpt lat="49.74746" lon="2.17357">
        <ele>86.4</ele>
        <time>2022-05-11T13:37:00Z</time>
      </trkpt>
      <trkpt lat="49.74746" lon="2.17357">
        <ele>86.4</ele>
        <time>2022-05-11T13:37:01Z</time>
      </trkpt>
      <trkpt lat="49.74746" lon="2.17357">
        <ele>86.4</ele>
        <time>2022-05-11T13:37:02Z</time>
      </trkpt>
      <trkpt lat="49.74746" lon="2.17357">
        <ele>86.4</ele>
        <time>2022-05-11T13:37:03Z</time>
      </trkpt>
      <trkpt lat="49.74746" lon="2.17357">
        <ele>86.4</ele>
        <time>2022-05-11T13:37:04Z</time>
      </trkpt>
      <trkpt lat="49.74746" lon="2.17357">
        <ele>86.4</ele>
        <time>2022-05-11T13:37:05Z</time>
      </trkpt>
      <trkpt lat="49.74746" lon="2.17357">
        <ele>86.4</ele>
        <time>2022-05-11T13:37:06Z</time>
      </trkpt>
      <trkpt lat="49.74746" lon="2.17357">
        <ele>86.4</ele>
        <time>2022-05-11T13:37:07Z</time>
      </trkpt>
      <trkpt lat="49.74746" lon="2.17357">
        <ele>86.4</ele>
        <time>2022-05-11T13:37:08Z</time>
      </trkpt>
      <trkpt lat="49.74746" lon="2.17357">
        <ele>86.4</ele>
        <time>2022-05-11T13:37:09Z</time>
      </trkpt>
      <trkpt lat="49.74746" lon="2.17357">
        <ele>86.4</ele>
        <time>2022-05-11T13:37:10Z</time>
      </trkpt>
      <trkpt lat="49.74746" lon="2.17357">
        <ele>86.4</ele>
        <time>2022-05-11T13:37:11Z</time>
      </trkpt>
      <trkpt lat="49.74746" lon="2.17357">
        <ele>86.4</ele>
        <time>2022-05-11T13:37:12Z</time>
      </trkpt>
      <trkpt lat="49.74746" lon="2.17356">
        <ele>86.4</ele>
        <time>2022-05-11T13:37:13Z</time>
      </trkpt>
      <trkpt lat="49.74746" lon="2.17356">
        <ele>86.4</ele>
        <time>2022-05-11T13:37:14Z</time>
      </trkpt>
      <trkpt lat="49.74746" lon="2.17356">
        <ele>86.4</ele>
        <time>2022-05-11T13:37:15Z</time>
      </trkpt>
      <trkpt lat="49.74745" lon="2.17351">
        <ele>86.3</ele>
        <time>2022-05-11T13:37:16Z</time>
      </trkpt>
      <trkpt lat="49.74744" lon="2.17349">
        <ele>86.3</ele>
        <time>2022-05-11T13:37:17Z</time>
      </trkpt>
      <trkpt lat="49.74744" lon="2.17347">
        <ele>86.3</ele>
        <time>2022-05-11T13:37:18Z</time>
      </trkpt>
      <trkpt lat="49.74744" lon="2.17346">
        <ele>86.3</ele>
        <time>2022-05-11T13:37:19Z</time>
      </trkpt>
      <trkpt lat="49.74744" lon="2.17346">
        <ele>86.3</ele>
        <time>2022-05-11T13:37:20Z</time>
      </trkpt>
      <trkpt lat="49.74744" lon="2.17346">
        <ele>86.3</ele>
        <time>2022-05-11T13:37:21Z</time>
      </trkpt>
      <trkpt lat="49.74744" lon="2.17347">
        <ele>86.3</ele>
        <time>2022-05-11T13:37:22Z</time>
      </trkpt>
      <trkpt lat="49.74745" lon="2.17347">
        <ele>86.3</ele>
        <time>2022-05-11T13:37:23Z</time>
      </trkpt>
      <trkpt lat="49.74745" lon="2.17347">
        <ele>86.3</ele>
        <time>2022-05-11T13:37:24Z</time>
      </trkpt>
      <trkpt lat="49.74745" lon="2.17347">
        <ele>86.3</ele>
        <time>2022-05-11T13:37:25Z</time>
      </trkpt>
      <trkpt lat="49.74745" lon="2.17347">
        <ele>86.3</ele>
        <time>2022-05-11T13:37:26Z</time>
      </trkpt>
      <trkpt lat="49.74745" lon="2.17347">
        <ele>86.3</ele>
        <time>2022-05-11T13:37:27Z</time>
      </trkpt>
      <trkpt lat="49.74745" lon="2.17347">
        <ele>86.3</ele>
        <time>2022-05-11T13:37:28Z</time>
      </trkpt>
      <trkpt lat="49.74746" lon="2.17347">
        <ele>86.3</ele>
        <time>2022-05-11T13:37:29Z</time>
      </trkpt>
      <trkpt lat="49.74746" lon="2.17347">
        <ele>86.3</ele>
        <time>2022-05-11T13:37:30Z</time>
      </trkpt>
      <trkpt lat="49.74746" lon="2.17347">
        <ele>86.3</ele>
        <time>2022-05-11T13:37:31Z</time>
      </trkpt>
      <trkpt lat="49.74746" lon="2.17347">
        <ele>86.3</ele>
        <time>2022-05-11T13:37:32Z</time>
      </trkpt>
      <trkpt lat="49.74746" lon="2.17347">
        <ele>86.3</ele>
        <time>2022-05-11T13:37:33Z</time>
      </trkpt>
      <trkpt lat="49.74746" lon="2.17347">
        <ele>86.3</ele>
        <time>2022-05-11T13:37:34Z</time>
      </trkpt>
      <trkpt lat="49.74747" lon="2.17347">
        <ele>86.3</ele>
        <time>2022-05-11T13:37:35Z</time>
      </trkpt>
      <trkpt lat="49.74747" lon="2.17347">
        <ele>86.3</ele>
        <time>2022-05-11T13:37:36Z</time>
      </trkpt>
      <trkpt lat="49.74747" lon="2.17347">
        <ele>86.3</ele>
        <time>2022-05-11T13:37:37Z</time>
      </trkpt>
      <trkpt lat="49.74747" lon="2.17347">
        <ele>86.3</ele>
        <time>2022-05-11T13:37:38Z</time>
      </trkpt>
      <trkpt lat="49.74747" lon="2.17347">
        <ele>86.3</ele>
        <time>2022-05-11T13:37:39Z</time>
      </trkpt>
      <trkpt lat="49.74747" lon="2.17347">
        <ele>86.3</ele>
        <time>2022-05-11T13:37:40Z</time>
      </trkpt>
      <trkpt lat="49.74747" lon="2.17347">
        <ele>86.3</ele>
        <time>2022-05-11T13:37:41Z</time>
      </trkpt>
      <trkpt lat="49.74748" lon="2.17347">
        <ele>86.3</ele>
        <time>2022-05-11T13:37:42Z</time>
      </trkpt>
      <trkpt lat="49.74748" lon="2.17347">
        <ele>86.3</ele>
        <time>2022-05-11T13:37:44Z</time>
      </trkpt>
      <trkpt lat="49.74748" lon="2.17347">
        <ele>86.3</ele>
        <time>2022-05-11T13:37:45Z</time>
      </trkpt>
      <trkpt lat="49.74748" lon="2.17347">
        <ele>86.3</ele>
        <time>2022-05-11T13:37:46Z</time>
      </trkpt>
      <trkpt lat="49.74748" lon="2.17347">
        <ele>86.3</ele>
        <time>2022-05-11T13:37:47Z</time>
      </trkpt>
      <trkpt lat="49.74748" lon="2.17347">
        <ele>86.3</ele>
        <time>2022-05-11T13:37:49Z</time>
      </trkpt>
      <trkpt lat="49.74749" lon="2.17347">
        <ele>86.3</ele>
        <time>2022-05-11T13:37:50Z</time>
      </trkpt>
      <trkpt lat="49.74752" lon="2.17349">
        <ele>86.3</ele>
        <time>2022-05-11T13:37:51Z</time>
      </trkpt>
      <trkpt lat="49.74752" lon="2.1735">
        <ele>86.3</ele>
        <time>2022-05-11T13:37:52Z</time>
      </trkpt>
      <trkpt lat="49.74753" lon="2.17351">
        <ele>86.3</ele>
        <time>2022-05-11T13:37:53Z</time>
      </trkpt>
      <trkpt lat="49.74754" lon="2.17352">
        <ele>86.3</ele>
        <time>2022-05-11T13:37:54Z</time>
      </trkpt>
      <trkpt lat="49.74755" lon="2.17353">
        <ele>86.2</ele>
        <time>2022-05-11T13:37:55Z</time>
      </trkpt>
      <trkpt lat="49.74756" lon="2.17353">
        <ele>86.2</ele>
        <time>2022-05-11T13:37:56Z</time>
      </trkpt>
      <trkpt lat="49.74757" lon="2.17354">
        <ele>86.2</ele>
        <time>2022-05-11T13:37:57Z</time>
      </trkpt>
      <trkpt lat="49.74759" lon="2.17354">
        <ele>86.2</ele>
        <time>2022-05-11T13:37:59Z</time>
      </trkpt>
      <trkpt lat="49.7476" lon="2.17354">
        <ele>86.2</ele>
        <time>2022-05-11T13:38:00Z</time>
      </trkpt>
      <trkpt lat="49.74761" lon="2.17354">
        <ele>86.2</ele>
        <time>2022-05-11T13:38:01Z</time>
      </trkpt>
      <trkpt lat="49.74762" lon="2.17354">
        <ele>86.2</ele>
        <time>2022-05-11T13:38:02Z</time>
      </trkpt>
      <trkpt lat="49.74763" lon="2.17354">
        <ele>86.2</ele>
        <time>2022-05-11T13:38:04Z</time>
      </trkpt>
      <trkpt lat="49.74764" lon="2.17354">
        <ele>86.2</ele>
        <time>2022-05-11T13:38:05Z</time>
      </trkpt>
      <trkpt lat="49.74764" lon="2.17354">
        <ele>86.2</ele>
        <time>2022-05-11T13:38:06Z</time>
      </trkpt>
      <trkpt lat="49.74765" lon="2.17353">
        <ele>86.2</ele>
        <time>2022-05-11T13:38:07Z</time>
      </trkpt>
      <trkpt lat="49.74768" lon="2.17353">
        <ele>86.2</ele>
        <time>2022-05-11T13:38:09Z</time>
      </trkpt>
      <trkpt lat="49.74769" lon="2.17353">
        <ele>86.2</ele>
        <time>2022-05-11T13:38:10Z</time>
      </trkpt>
      <trkpt lat="49.7477" lon="2.17352">
        <ele>86.3</ele>
        <time>2022-05-11T13:38:11Z</time>
      </trkpt>
      <trkpt lat="49.74771" lon="2.17352">
        <ele>86.3</ele>
        <time>2022-05-11T13:38:12Z</time>
      </trkpt>
      <trkpt lat="49.74772" lon="2.17352">
        <ele>86.3</ele>
        <time>2022-05-11T13:38:13Z</time>
      </trkpt>
      <trkpt lat="49.74773" lon="2.17352">
        <ele>86.3</ele>
        <time>2022-05-11T13:38:14Z</time>
      </trkpt>
      <trkpt lat="49.74774" lon="2.17351">
        <ele>86.3</ele>
        <time>2022-05-11T13:38:15Z</time>
      </trkpt>
      <trkpt lat="49.74776" lon="2.17351">
        <ele>86.3</ele>
        <time>2022-05-11T13:38:16Z</time>
      </trkpt>
      <trkpt lat="49.74777" lon="2.1735">
        <ele>86.3</ele>
        <time>2022-05-11T13:38:17Z</time>
      </trkpt>
      <trkpt lat="49.74779" lon="2.17349">
        <ele>86.4</ele>
        <time>2022-05-11T13:38:18Z</time>
      </trkpt>
      <trkpt lat="49.7478" lon="2.17349">
        <ele>86.4</ele>
        <time>2022-05-11T13:38:20Z</time>
      </trkpt>
      <trkpt lat="49.74781" lon="2.17349">
        <ele>86.4</ele>
        <time>2022-05-11T13:38:21Z</time>
      </trkpt>
      <trkpt lat="49.74783" lon="2.17348">
        <ele>86.4</ele>
        <time>2022-05-11T13:38:22Z</time>
      </trkpt>
      <trkpt lat="49.74784" lon="2.17348">
        <ele>86.4</ele>
        <time>2022-05-11T13:38:23Z</time>
      </trkpt>
      <trkpt lat="49.74785" lon="2.17348">
        <ele>86.4</ele>
        <time>2022-05-11T13:38:24Z</time>
      </trkpt>
      <trkpt lat="49.74787" lon="2.17348">
        <ele>86.5</ele>
        <time>2022-05-11T13:38:25Z</time>
      </trkpt>
      <trkpt lat="49.74788" lon="2.17347">
        <ele>86.5</ele>
        <time>2022-05-11T13:38:26Z</time>
      </trkpt>
      <trkpt lat="49.74788" lon="2.17347">
        <ele>86.5</ele>
        <time>2022-05-11T13:38:27Z</time>
      </trkpt>
      <trkpt lat="49.7479" lon="2.17346">
        <ele>86.5</ele>
        <time>2022-05-11T13:38:29Z</time>
      </trkpt>
      <trkpt lat="49.74791" lon="2.17345">
        <ele>86.5</ele>
        <time>2022-05-11T13:38:30Z</time>
      </trkpt>
      <trkpt lat="49.74791" lon="2.17345">
        <ele>86.5</ele>
        <time>2022-05-11T13:38:31Z</time>
      </trkpt>
      <trkpt lat="49.74792" lon="2.17345">
        <ele>86.6</ele>
        <time>2022-05-11T13:38:32Z</time>
      </trkpt>
      <trkpt lat="49.74791" lon="2.17346">
        <ele>86.6</ele>
        <time>2022-05-11T13:38:33Z</time>
      </trkpt>
      <trkpt lat="49.74791" lon="2.17346">
        <ele>86.6</ele>
        <time>2022-05-11T13:38:34Z</time>
      </trkpt>
      <trkpt lat="49.74792" lon="2.17346">
        <ele>86.6</ele>
        <time>2022-05-11T13:38:35Z</time>
      </trkpt>
      <trkpt lat="49.74793" lon="2.17345">
        <ele>86.6</ele>
        <time>2022-05-11T13:38:36Z</time>
      </trkpt>
      <trkpt lat="49.74794" lon="2.17345">
        <ele>86.6</ele>
        <time>2022-05-11T13:38:37Z</time>
      </trkpt>
      <trkpt lat="49.74796" lon="2.17343">
        <ele>86.6</ele>
        <time>2022-05-11T13:38:38Z</time>
      </trkpt>
      <trkpt lat="49.74797" lon="2.17343">
        <ele>86.6</ele>
        <time>2022-05-11T13:38:39Z</time>
      </trkpt>
      <trkpt lat="49.74798" lon="2.17342">
        <ele>86.7</ele>
        <time>2022-05-11T13:38:40Z</time>
      </trkpt>
      <trkpt lat="49.74799" lon="2.17342">
        <ele>86.7</ele>
        <time>2022-05-11T13:38:41Z</time>
      </trkpt>
      <trkpt lat="49.748" lon="2.17341">
        <ele>86.7</ele>
        <time>2022-05-11T13:38:42Z</time>
      </trkpt>
      <trkpt lat="49.74801" lon="2.1734">
        <ele>86.7</ele>
        <time>2022-05-11T13:38:43Z</time>
      </trkpt>
      <trkpt lat="49.74801" lon="2.1734">
        <ele>86.7</ele>
        <time>2022-05-11T13:38:44Z</time>
      </trkpt>
      <trkpt lat="49.74802" lon="2.17339">
        <ele>86.7</ele>
        <time>2022-05-11T13:38:45Z</time>
      </trkpt>
      <trkpt lat="49.74803" lon="2.17339">
        <ele>86.7</ele>
        <time>2022-05-11T13:38:46Z</time>
      </trkpt>
      <trkpt lat="49.74804" lon="2.17339">
        <ele>86.7</ele>
        <time>2022-05-11T13:38:47Z</time>
      </trkpt>
      <trkpt lat="49.74805" lon="2.17338">
        <ele>86.7</ele>
        <time>2022-05-11T13:38:48Z</time>
      </trkpt>
      <trkpt lat="49.74806" lon="2.17337">
        <ele>86.7</ele>
        <time>2022-05-11T13:38:49Z</time>
      </trkpt>
      <trkpt lat="49.74807" lon="2.17337">
        <ele>86.7</ele>
        <time>2022-05-11T13:38:50Z</time>
      </trkpt>
      <trkpt lat="49.74808" lon="2.17337">
        <ele>86.7</ele>
        <time>2022-05-11T13:38:51Z</time>
      </trkpt>
      <trkpt lat="49.74809" lon="2.17336">
        <ele>86.7</ele>
        <time>2022-05-11T13:38:52Z</time>
      </trkpt>
      <trkpt lat="49.7481" lon="2.17336">
        <ele>86.7</ele>
        <time>2022-05-11T13:38:54Z</time>
      </trkpt>
      <trkpt lat="49.74811" lon="2.17335">
        <ele>86.7</ele>
        <time>2022-05-11T13:38:55Z</time>
      </trkpt>
      <trkpt lat="49.74813" lon="2.17334">
        <ele>86.7</ele>
        <time>2022-05-11T13:38:56Z</time>
      </trkpt>
      <trkpt lat="49.74814" lon="2.17334">
        <ele>86.7</ele>
        <time>2022-05-11T13:38:57Z</time>
      </trkpt>
      <trkpt lat="49.74815" lon="2.17333">
        <ele>86.7</ele>
        <time>2022-05-11T13:38:58Z</time>
      </trkpt>
      <trkpt lat="49.74816" lon="2.17332">
        <ele>86.6</ele>
        <time>2022-05-11T13:38:59Z</time>
      </trkpt>
      <trkpt lat="49.74817" lon="2.17332">
        <ele>86.6</ele>
        <time>2022-05-11T13:39:01Z</time>
      </trkpt>
      <trkpt lat="49.74818" lon="2.17331">
        <ele>86.6</ele>
        <time>2022-05-11T13:39:02Z</time>
      </trkpt>
      <trkpt lat="49.74818" lon="2.17331">
        <ele>86.6</ele>
        <time>2022-05-11T13:39:03Z</time>
      </trkpt>
      <trkpt lat="49.74819" lon="2.1733">
        <ele>86.6</ele>
        <time>2022-05-11T13:39:04Z</time>
      </trkpt>
      <trkpt lat="49.74821" lon="2.1733">
        <ele>86.6</ele>
        <time>2022-05-11T13:39:05Z</time>
      </trkpt>
      <trkpt lat="49.74822" lon="2.17329">
        <ele>86.6</ele>
        <time>2022-05-11T13:39:06Z</time>
      </trkpt>
      <trkpt lat="49.74823" lon="2.17328">
        <ele>86.6</ele>
        <time>2022-05-11T13:39:07Z</time>
      </trkpt>
      <trkpt lat="49.74824" lon="2.17328">
        <ele>86.6</ele>
        <time>2022-05-11T13:39:08Z</time>
      </trkpt>
      <trkpt lat="49.74825" lon="2.17327">
        <ele>86.5</ele>
        <time>2022-05-11T13:39:10Z</time>
      </trkpt>
      <trkpt lat="49.74826" lon="2.17326">
        <ele>86.5</ele>
        <time>2022-05-11T13:39:11Z</time>
      </trkpt>
      <trkpt lat="49.74827" lon="2.17326">
        <ele>86.5</ele>
        <time>2022-05-11T13:39:12Z</time>
      </trkpt>
      <trkpt lat="49.74828" lon="2.17326">
        <ele>86.5</ele>
        <time>2022-05-11T13:39:13Z</time>
      </trkpt>
      <trkpt lat="49.74829" lon="2.17326">
        <ele>86.5</ele>
        <time>2022-05-11T13:39:14Z</time>
      </trkpt>
      <trkpt lat="49.74831" lon="2.17325">
        <ele>86.5</ele>
        <time>2022-05-11T13:39:16Z</time>
      </trkpt>
      <trkpt lat="49.74832" lon="2.17324">
        <ele>86.4</ele>
        <time>2022-05-11T13:39:17Z</time>
      </trkpt>
      <trkpt lat="49.74834" lon="2.17324">
        <ele>86.4</ele>
        <time>2022-05-11T13:39:18Z</time>
      </trkpt>
      <trkpt lat="49.74835" lon="2.17323">
        <ele>86.4</ele>
        <time>2022-05-11T13:39:19Z</time>
      </trkpt>
      <trkpt lat="49.74836" lon="2.17323">
        <ele>86.4</ele>
        <time>2022-05-11T13:39:20Z</time>
      </trkpt>
      <trkpt lat="49.74838" lon="2.17322">
        <ele>86.4</ele>
        <time>2022-05-11T13:39:22Z</time>
      </trkpt>
      <trkpt lat="49.7484" lon="2.17321">
        <ele>86.3</ele>
        <time>2022-05-11T13:39:23Z</time>
      </trkpt>
      <trkpt lat="49.74841" lon="2.1732">
        <ele>86.3</ele>
        <time>2022-05-11T13:39:24Z</time>
      </trkpt>
      <trkpt lat="49.74841" lon="2.1732">
        <ele>86.3</ele>
        <time>2022-05-11T13:39:25Z</time>
      </trkpt>
      <trkpt lat="49.74843" lon="2.17319">
        <ele>86.3</ele>
        <time>2022-05-11T13:39:26Z</time>
      </trkpt>
      <trkpt lat="49.74844" lon="2.17318">
        <ele>86.3</ele>
        <time>2022-05-11T13:39:27Z</time>
      </trkpt>
      <trkpt lat="49.74845" lon="2.17318">
        <ele>86.3</ele>
        <time>2022-05-11T13:39:28Z</time>
      </trkpt>
      <trkpt lat="49.74845" lon="2.17317">
        <ele>86.3</ele>
        <time>2022-05-11T13:39:29Z</time>
      </trkpt>
      <trkpt lat="49.74846" lon="2.17317">
        <ele>86.2</ele>
        <time>2022-05-11T13:39:31Z</time>
      </trkpt>
      <trkpt lat="49.74847" lon="2.17316">
        <ele>86.2</ele>
        <time>2022-05-11T13:39:32Z</time>
      </trkpt>
      <trkpt lat="49.74848" lon="2.17316">
        <ele>86.2</ele>
        <time>2022-05-11T13:39:33Z</time>
      </trkpt>
      <trkpt lat="49.74849" lon="2.17315">
        <ele>86.2</ele>
        <time>2022-05-11T13:39:34Z</time>
      </trkpt>
      <trkpt lat="49.7485" lon="2.17314">
        <ele>86.2</ele>
        <time>2022-05-11T13:39:35Z</time>
      </trkpt>
      <trkpt lat="49.74851" lon="2.17313">
        <ele>86.2</ele>
        <time>2022-05-11T13:39:37Z</time>
      </trkpt>
      <trkpt lat="49.74852" lon="2.17313">
        <ele>86.1</ele>
        <time>2022-05-11T13:39:38Z</time>
      </trkpt>
      <trkpt lat="49.74854" lon="2.17312">
        <ele>86.1</ele>
        <time>2022-05-11T13:39:39Z</time>
      </trkpt>
      <trkpt lat="49.74855" lon="2.17312">
        <ele>86.1</ele>
        <time>2022-05-11T13:39:40Z</time>
      </trkpt>
      <trkpt lat="49.74856" lon="2.17311">
        <ele>86.1</ele>
        <time>2022-05-11T13:39:41Z</time>
      </trkpt>
      <trkpt lat="49.74857" lon="2.17311">
        <ele>86.1</ele>
        <time>2022-05-11T13:39:42Z</time>
      </trkpt>
      <trkpt lat="49.74858" lon="2.1731">
        <ele>86.1</ele>
        <time>2022-05-11T13:39:44Z</time>
      </trkpt>
      <trkpt lat="49.74859" lon="2.1731">
        <ele>86.1</ele>
        <time>2022-05-11T13:39:45Z</time>
      </trkpt>
      <trkpt lat="49.74861" lon="2.17309">
        <ele>86.1</ele>
        <time>2022-05-11T13:39:46Z</time>
      </trkpt>
      <trkpt lat="49.74862" lon="2.17308">
        <ele>86</ele>
        <time>2022-05-11T13:39:47Z</time>
      </trkpt>
      <trkpt lat="49.74863" lon="2.17308">
        <ele>86</ele>
        <time>2022-05-11T13:39:48Z</time>
      </trkpt>
      <trkpt lat="49.74864" lon="2.17307">
        <ele>86</ele>
        <time>2022-05-11T13:39:49Z</time>
      </trkpt>
      <trkpt lat="49.74866" lon="2.17307">
        <ele>86</ele>
        <time>2022-05-11T13:39:50Z</time>
      </trkpt>
      <trkpt lat="49.74867" lon="2.17307">
        <ele>86</ele>
        <time>2022-05-11T13:39:52Z</time>
      </trkpt>
      <trkpt lat="49.74868" lon="2.17307">
        <ele>86</ele>
        <time>2022-05-11T13:39:53Z</time>
      </trkpt>
      <trkpt lat="49.74869" lon="2.17307">
        <ele>86</ele>
        <time>2022-05-11T13:39:54Z</time>
      </trkpt>
      <trkpt lat="49.74871" lon="2.17306">
        <ele>85.9</ele>
        <time>2022-05-11T13:39:55Z</time>
      </trkpt>
      <trkpt lat="49.74872" lon="2.17305">
        <ele>85.9</ele>
        <time>2022-05-11T13:39:56Z</time>
      </trkpt>
      <trkpt lat="49.74873" lon="2.17305">
        <ele>85.9</ele>
        <time>2022-05-11T13:39:57Z</time>
      </trkpt>
      <trkpt lat="49.74875" lon="2.17304">
        <ele>85.9</ele>
        <time>2022-05-11T13:39:58Z</time>
      </trkpt>
      <trkpt lat="49.74876" lon="2.17303">
        <ele>85.9</ele>
        <time>2022-05-11T13:39:59Z</time>
      </trkpt>
      <trkpt lat="49.74878" lon="2.17302">
        <ele>85.8</ele>
        <time>2022-05-11T13:40:00Z</time>
      </trkpt>
      <trkpt lat="49.74879" lon="2.17302">
        <ele>85.8</ele>
        <time>2022-05-11T13:40:02Z</time>
      </trkpt>
      <trkpt lat="49.7488" lon="2.17301">
        <ele>85.8</ele>
        <time>2022-05-11T13:40:03Z</time>
      </trkpt>
      <trkpt lat="49.74881" lon="2.173">
        <ele>85.8</ele>
        <time>2022-05-11T13:40:04Z</time>
      </trkpt>
      <trkpt lat="49.74882" lon="2.17299">
        <ele>85.7</ele>
        <time>2022-05-11T13:40:05Z</time>
      </trkpt>
      <trkpt lat="49.74883" lon="2.17298">
        <ele>85.7</ele>
        <time>2022-05-11T13:40:06Z</time>
      </trkpt>
      <trkpt lat="49.74884" lon="2.17297">
        <ele>85.7</ele>
        <time>2022-05-11T13:40:07Z</time>
      </trkpt>
      <trkpt lat="49.74886" lon="2.17297">
        <ele>85.6</ele>
        <time>2022-05-11T13:40:08Z</time>
      </trkpt>
      <trkpt lat="49.74887" lon="2.17296">
        <ele>85.6</ele>
        <time>2022-05-11T13:40:10Z</time>
      </trkpt>
      <trkpt lat="49.74888" lon="2.17296">
        <ele>85.6</ele>
        <time>2022-05-11T13:40:11Z</time>
      </trkpt>
      <trkpt lat="49.74889" lon="2.17295">
        <ele>85.6</ele>
        <time>2022-05-11T13:40:12Z</time>
      </trkpt>
      <trkpt lat="49.74889" lon="2.17294">
        <ele>85.5</ele>
        <time>2022-05-11T13:40:13Z</time>
      </trkpt>
      <trkpt lat="49.74891" lon="2.17293">
        <ele>85.5</ele>
        <time>2022-05-11T13:40:14Z</time>
      </trkpt>
      <trkpt lat="49.74893" lon="2.17292">
        <ele>85.5</ele>
        <time>2022-05-11T13:40:16Z</time>
      </trkpt>
      <trkpt lat="49.74893" lon="2.17291">
        <ele>85.4</ele>
        <time>2022-05-11T13:40:17Z</time>
      </trkpt>
      <trkpt lat="49.74894" lon="2.17291">
        <ele>85.4</ele>
        <time>2022-05-11T13:40:18Z</time>
      </trkpt>
      <trkpt lat="49.74895" lon="2.17291">
        <ele>85.4</ele>
        <time>2022-05-11T13:40:19Z</time>
      </trkpt>
      <trkpt lat="49.74896" lon="2.1729">
        <ele>85.4</ele>
        <time>2022-05-11T13:40:20Z</time>
      </trkpt>
      <trkpt lat="49.74898" lon="2.1729">
        <ele>85.3</ele>
        <time>2022-05-11T13:40:22Z</time>
      </trkpt>
      <trkpt lat="49.74899" lon="2.17289">
        <ele>85.3</ele>
        <time>2022-05-11T13:40:23Z</time>
      </trkpt>
      <trkpt lat="49.74899" lon="2.17289">
        <ele>85.3</ele>
        <time>2022-05-11T13:40:24Z</time>
      </trkpt>
      <trkpt lat="49.74899" lon="2.17289">
        <ele>85.3</ele>
        <time>2022-05-11T13:40:25Z</time>
      </trkpt>
      <trkpt lat="49.749" lon="2.17289">
        <ele>85.3</ele>
        <time>2022-05-11T13:40:26Z</time>
      </trkpt>
      <trkpt lat="49.74901" lon="2.17288">
        <ele>85.3</ele>
        <time>2022-05-11T13:40:27Z</time>
      </trkpt>
      <trkpt lat="49.74903" lon="2.17287">
        <ele>85.3</ele>
        <time>2022-05-11T13:40:28Z</time>
      </trkpt>
      <trkpt lat="49.74904" lon="2.17287">
        <ele>85.2</ele>
        <time>2022-05-11T13:40:29Z</time>
      </trkpt>
      <trkpt lat="49.74905" lon="2.17286">
        <ele>85.2</ele>
        <time>2022-05-11T13:40:30Z</time>
      </trkpt>
      <trkpt lat="49.74907" lon="2.17285">
        <ele>85.2</ele>
        <time>2022-05-11T13:40:32Z</time>
      </trkpt>
      <trkpt lat="49.74908" lon="2.17284">
        <ele>85.2</ele>
        <time>2022-05-11T13:40:33Z</time>
      </trkpt>
      <trkpt lat="49.74909" lon="2.17284">
        <ele>85.2</ele>
        <time>2022-05-11T13:40:34Z</time>
      </trkpt>
      <trkpt lat="49.7491" lon="2.17284">
        <ele>85.1</ele>
        <time>2022-05-11T13:40:35Z</time>
      </trkpt>
      <trkpt lat="49.74911" lon="2.17284">
        <ele>85.1</ele>
        <time>2022-05-11T13:40:36Z</time>
      </trkpt>
      <trkpt lat="49.74912" lon="2.17284">
        <ele>85.1</ele>
        <time>2022-05-11T13:40:37Z</time>
      </trkpt>
      <trkpt lat="49.74914" lon="2.17283">
        <ele>85.1</ele>
        <time>2022-05-11T13:40:39Z</time>
      </trkpt>
      <trkpt lat="49.74915" lon="2.17282">
        <ele>85.1</ele>
        <time>2022-05-11T13:40:40Z</time>
      </trkpt>
      <trkpt lat="49.74916" lon="2.17282">
        <ele>85.1</ele>
        <time>2022-05-11T13:40:41Z</time>
      </trkpt>
      <trkpt lat="49.74918" lon="2.17281">
        <ele>85</ele>
        <time>2022-05-11T13:40:42Z</time>
      </trkpt>
      <trkpt lat="49.74919" lon="2.17281">
        <ele>85</ele>
        <time>2022-05-11T13:40:43Z</time>
      </trkpt>
      <trkpt lat="49.7492" lon="2.1728">
        <ele>85</ele>
        <time>2022-05-11T13:40:44Z</time>
      </trkpt>
      <trkpt lat="49.74921" lon="2.17279">
        <ele>85</ele>
        <time>2022-05-11T13:40:45Z</time>
      </trkpt>
      <trkpt lat="49.74922" lon="2.17279">
        <ele>85</ele>
        <time>2022-05-11T13:40:46Z</time>
      </trkpt>
      <trkpt lat="49.74924" lon="2.17278">
        <ele>85</ele>
        <time>2022-05-11T13:40:47Z</time>
      </trkpt>
      <trkpt lat="49.74925" lon="2.17277">
        <ele>85</ele>
        <time>2022-05-11T13:40:49Z</time>
      </trkpt>
      <trkpt lat="49.74926" lon="2.17276">
        <ele>84.9</ele>
        <time>2022-05-11T13:40:50Z</time>
      </trkpt>
      <trkpt lat="49.74927" lon="2.17276">
        <ele>84.9</ele>
        <time>2022-05-11T13:40:51Z</time>
      </trkpt>
      <trkpt lat="49.74927" lon="2.17275">
        <ele>84.9</ele>
        <time>2022-05-11T13:40:52Z</time>
      </trkpt>
      <trkpt lat="49.74928" lon="2.17275">
        <ele>84.9</ele>
        <time>2022-05-11T13:40:53Z</time>
      </trkpt>
      <trkpt lat="49.7493" lon="2.17275">
        <ele>84.9</ele>
        <time>2022-05-11T13:40:54Z</time>
      </trkpt>
      <trkpt lat="49.74931" lon="2.17273">
        <ele>84.9</ele>
        <time>2022-05-11T13:40:55Z</time>
      </trkpt>
      <trkpt lat="49.74933" lon="2.17272">
        <ele>84.9</ele>
        <time>2022-05-11T13:40:57Z</time>
      </trkpt>
      <trkpt lat="49.74934" lon="2.17272">
        <ele>84.8</ele>
        <time>2022-05-11T13:40:58Z</time>
      </trkpt>
      <trkpt lat="49.74935" lon="2.17271">
        <ele>84.8</ele>
        <time>2022-05-11T13:40:59Z</time>
      </trkpt>
      <trkpt lat="49.74936" lon="2.1727">
        <ele>84.8</ele>
        <time>2022-05-11T13:41:00Z</time>
      </trkpt>
      <trkpt lat="49.74937" lon="2.17269">
        <ele>84.8</ele>
        <time>2022-05-11T13:41:01Z</time>
      </trkpt>
      <trkpt lat="49.74939" lon="2.17268">
        <ele>84.8</ele>
        <time>2022-05-11T13:41:02Z</time>
      </trkpt>
      <trkpt lat="49.7494" lon="2.17268">
        <ele>84.7</ele>
        <time>2022-05-11T13:41:03Z</time>
      </trkpt>
      <trkpt lat="49.74941" lon="2.17267">
        <ele>84.7</ele>
        <time>2022-05-11T13:41:05Z</time>
      </trkpt>
      <trkpt lat="49.74942" lon="2.17267">
        <ele>84.7</ele>
        <time>2022-05-11T13:41:06Z</time>
      </trkpt>
      <trkpt lat="49.74943" lon="2.17267">
        <ele>84.7</ele>
        <time>2022-05-11T13:41:07Z</time>
      </trkpt>
      <trkpt lat="49.74944" lon="2.17266">
        <ele>84.7</ele>
        <time>2022-05-11T13:41:08Z</time>
      </trkpt>
      <trkpt lat="49.74945" lon="2.17266">
        <ele>84.7</ele>
        <time>2022-05-11T13:41:09Z</time>
      </trkpt>
      <trkpt lat="49.74946" lon="2.17265">
        <ele>84.6</ele>
        <time>2022-05-11T13:41:10Z</time>
      </trkpt>
      <trkpt lat="49.74948" lon="2.17265">
        <ele>84.6</ele>
        <time>2022-05-11T13:41:11Z</time>
      </trkpt>
      <trkpt lat="49.74949" lon="2.17264">
        <ele>84.6</ele>
        <time>2022-05-11T13:41:13Z</time>
      </trkpt>
      <trkpt lat="49.7495" lon="2.17263">
        <ele>84.5</ele>
        <time>2022-05-11T13:41:14Z</time>
      </trkpt>
      <trkpt lat="49.74952" lon="2.17262">
        <ele>84.5</ele>
        <time>2022-05-11T13:41:15Z</time>
      </trkpt>
      <trkpt lat="49.74953" lon="2.17262">
        <ele>84.5</ele>
        <time>2022-05-11T13:41:16Z</time>
      </trkpt>
      <trkpt lat="49.74954" lon="2.17261">
        <ele>84.5</ele>
        <time>2022-05-11T13:41:17Z</time>
      </trkpt>
      <trkpt lat="49.74955" lon="2.1726">
        <ele>84.4</ele>
        <time>2022-05-11T13:41:18Z</time>
      </trkpt>
      <trkpt lat="49.74956" lon="2.1726">
        <ele>84.4</ele>
        <time>2022-05-11T13:41:19Z</time>
      </trkpt>
      <trkpt lat="49.74957" lon="2.17259">
        <ele>84.4</ele>
        <time>2022-05-11T13:41:20Z</time>
      </trkpt>
      <trkpt lat="49.74959" lon="2.17258">
        <ele>84.3</ele>
        <time>2022-05-11T13:41:22Z</time>
      </trkpt>
      <trkpt lat="49.7496" lon="2.17257">
        <ele>84.3</ele>
        <time>2022-05-11T13:41:23Z</time>
      </trkpt>
      <trkpt lat="49.74961" lon="2.17257">
        <ele>84.3</ele>
        <time>2022-05-11T13:41:24Z</time>
      </trkpt>
      <trkpt lat="49.74962" lon="2.17256">
        <ele>84.3</ele>
        <time>2022-05-11T13:41:25Z</time>
      </trkpt>
      <trkpt lat="49.74963" lon="2.17254">
        <ele>84.2</ele>
        <time>2022-05-11T13:41:26Z</time>
      </trkpt>
      <trkpt lat="49.74965" lon="2.17253">
        <ele>84.2</ele>
        <time>2022-05-11T13:41:27Z</time>
      </trkpt>
      <trkpt lat="49.74966" lon="2.17252">
        <ele>84.2</ele>
        <time>2022-05-11T13:41:29Z</time>
      </trkpt>
      <trkpt lat="49.74967" lon="2.17252">
        <ele>84.1</ele>
        <time>2022-05-11T13:41:30Z</time>
      </trkpt>
      <trkpt lat="49.74968" lon="2.17251">
        <ele>84.1</ele>
        <time>2022-05-11T13:41:31Z</time>
      </trkpt>
      <trkpt lat="49.74969" lon="2.1725">
        <ele>84.1</ele>
        <time>2022-05-11T13:41:32Z</time>
      </trkpt>
      <trkpt lat="49.7497" lon="2.17249">
        <ele>84</ele>
        <time>2022-05-11T13:41:33Z</time>
      </trkpt>
      <trkpt lat="49.74971" lon="2.17249">
        <ele>84</ele>
        <time>2022-05-11T13:41:34Z</time>
      </trkpt>
      <trkpt lat="49.74972" lon="2.17248">
        <ele>84</ele>
        <time>2022-05-11T13:41:35Z</time>
      </trkpt>
      <trkpt lat="49.74974" lon="2.17247">
        <ele>84</ele>
        <time>2022-05-11T13:41:37Z</time>
      </trkpt>
      <trkpt lat="49.74975" lon="2.17246">
        <ele>83.9</ele>
        <time>2022-05-11T13:41:38Z</time>
      </trkpt>
      <trkpt lat="49.74976" lon="2.17245">
        <ele>83.9</ele>
        <time>2022-05-11T13:41:39Z</time>
      </trkpt>
      <trkpt lat="49.74978" lon="2.17245">
        <ele>83.9</ele>
        <time>2022-05-11T13:41:40Z</time>
      </trkpt>
      <trkpt lat="49.74979" lon="2.17245">
        <ele>83.8</ele>
        <time>2022-05-11T13:41:41Z</time>
      </trkpt>
      <trkpt lat="49.7498" lon="2.17244">
        <ele>83.8</ele>
        <time>2022-05-11T13:41:42Z</time>
      </trkpt>
      <trkpt lat="49.74981" lon="2.17244">
        <ele>83.8</ele>
        <time>2022-05-11T13:41:44Z</time>
      </trkpt>
      <trkpt lat="49.74983" lon="2.17244">
        <ele>83.7</ele>
        <time>2022-05-11T13:41:45Z</time>
      </trkpt>
      <trkpt lat="49.74983" lon="2.17243">
        <ele>83.7</ele>
        <time>2022-05-11T13:41:46Z</time>
      </trkpt>
      <trkpt lat="49.74985" lon="2.17243">
        <ele>83.7</ele>
        <time>2022-05-11T13:41:47Z</time>
      </trkpt>
      <trkpt lat="49.74986" lon="2.17242">
        <ele>83.7</ele>
        <time>2022-05-11T13:41:48Z</time>
      </trkpt>
      <trkpt lat="49.74987" lon="2.17242">
        <ele>83.6</ele>
        <time>2022-05-11T13:41:49Z</time>
      </trkpt>
      <trkpt lat="49.74988" lon="2.17241">
        <ele>83.6</ele>
        <time>2022-05-11T13:41:50Z</time>
      </trkpt>
      <trkpt lat="49.74988" lon="2.17241">
        <ele>83.6</ele>
        <time>2022-05-11T13:41:51Z</time>
      </trkpt>
      <trkpt lat="49.7499" lon="2.1724">
        <ele>83.6</ele>
        <time>2022-05-11T13:41:53Z</time>
      </trkpt>
      <trkpt lat="49.74991" lon="2.17239">
        <ele>83.5</ele>
        <time>2022-05-11T13:41:54Z</time>
      </trkpt>
      <trkpt lat="49.74992" lon="2.17239">
        <ele>83.5</ele>
        <time>2022-05-11T13:41:55Z</time>
      </trkpt>
      <trkpt lat="49.74993" lon="2.17238">
        <ele>83.5</ele>
        <time>2022-05-11T13:41:56Z</time>
      </trkpt>
      <trkpt lat="49.74994" lon="2.17238">
        <ele>83.4</ele>
        <time>2022-05-11T13:41:57Z</time>
      </trkpt>
      <trkpt lat="49.74995" lon="2.17237">
        <ele>83.4</ele>
        <time>2022-05-11T13:41:58Z</time>
      </trkpt>
      <trkpt lat="49.74996" lon="2.17237">
        <ele>83.4</ele>
        <time>2022-05-11T13:41:59Z</time>
      </trkpt>
      <trkpt lat="49.74998" lon="2.17236">
        <ele>83.3</ele>
        <time>2022-05-11T13:42:00Z</time>
      </trkpt>
      <trkpt lat="49.74999" lon="2.17235">
        <ele>83.3</ele>
        <time>2022-05-11T13:42:02Z</time>
      </trkpt>
      <trkpt lat="49.75" lon="2.17234">
        <ele>83.3</ele>
        <time>2022-05-11T13:42:03Z</time>
      </trkpt>
      <trkpt lat="49.75002" lon="2.17233">
        <ele>83.2</ele>
        <time>2022-05-11T13:42:04Z</time>
      </trkpt>
      <trkpt lat="49.75002" lon="2.17232">
        <ele>83.2</ele>
        <time>2022-05-11T13:42:05Z</time>
      </trkpt>
      <trkpt lat="49.75003" lon="2.17232">
        <ele>83.2</ele>
        <time>2022-05-11T13:42:06Z</time>
      </trkpt>
      <trkpt lat="49.75004" lon="2.17232">
        <ele>83.1</ele>
        <time>2022-05-11T13:42:07Z</time>
      </trkpt>
      <trkpt lat="49.75005" lon="2.17232">
        <ele>83.1</ele>
        <time>2022-05-11T13:42:08Z</time>
      </trkpt>
      <trkpt lat="49.75007" lon="2.1723">
        <ele>83.1</ele>
        <time>2022-05-11T13:42:10Z</time>
      </trkpt>
      <trkpt lat="49.75009" lon="2.17229">
        <ele>83</ele>
        <time>2022-05-11T13:42:11Z</time>
      </trkpt>
      <trkpt lat="49.75009" lon="2.17228">
        <ele>83</ele>
        <time>2022-05-11T13:42:12Z</time>
      </trkpt>
      <trkpt lat="49.7501" lon="2.17228">
        <ele>83</ele>
        <time>2022-05-11T13:42:13Z</time>
      </trkpt>
      <trkpt lat="49.75011" lon="2.17227">
        <ele>83</ele>
        <time>2022-05-11T13:42:14Z</time>
      </trkpt>
      <trkpt lat="49.75012" lon="2.17226">
        <ele>82.9</ele>
        <time>2022-05-11T13:42:16Z</time>
      </trkpt>
      <trkpt lat="49.75013" lon="2.17226">
        <ele>82.9</ele>
        <time>2022-05-11T13:42:17Z</time>
      </trkpt>
      <trkpt lat="49.75015" lon="2.17225">
        <ele>82.9</ele>
        <time>2022-05-11T13:42:18Z</time>
      </trkpt>
      <trkpt lat="49.75016" lon="2.17225">
        <ele>82.9</ele>
        <time>2022-05-11T13:42:19Z</time>
      </trkpt>
      <trkpt lat="49.75016" lon="2.17225">
        <ele>82.9</ele>
        <time>2022-05-11T13:42:20Z</time>
      </trkpt>
      <trkpt lat="49.75017" lon="2.17225">
        <ele>82.9</ele>
        <time>2022-05-11T13:42:21Z</time>
      </trkpt>
      <trkpt lat="49.75018" lon="2.17225">
        <ele>82.8</ele>
        <time>2022-05-11T13:42:22Z</time>
      </trkpt>
      <trkpt lat="49.7502" lon="2.17224">
        <ele>82.8</ele>
        <time>2022-05-11T13:42:23Z</time>
      </trkpt>
      <trkpt lat="49.75021" lon="2.17224">
        <ele>82.8</ele>
        <time>2022-05-11T13:42:25Z</time>
      </trkpt>
      <trkpt lat="49.75023" lon="2.17223">
        <ele>82.8</ele>
        <time>2022-05-11T13:42:26Z</time>
      </trkpt>
      <trkpt lat="49.75024" lon="2.17223">
        <ele>82.8</ele>
        <time>2022-05-11T13:42:27Z</time>
      </trkpt>
      <trkpt lat="49.75025" lon="2.17222">
        <ele>82.7</ele>
        <time>2022-05-11T13:42:28Z</time>
      </trkpt>
      <trkpt lat="49.75026" lon="2.17222">
        <ele>82.7</ele>
        <time>2022-05-11T13:42:29Z</time>
      </trkpt>
      <trkpt lat="49.75028" lon="2.17221">
        <ele>82.7</ele>
        <time>2022-05-11T13:42:30Z</time>
      </trkpt>
      <trkpt lat="49.75029" lon="2.17221">
        <ele>82.7</ele>
        <time>2022-05-11T13:42:31Z</time>
      </trkpt>
      <trkpt lat="49.75031" lon="2.1722">
        <ele>82.7</ele>
        <time>2022-05-11T13:42:33Z</time>
      </trkpt>
      <trkpt lat="49.75032" lon="2.1722">
        <ele>82.6</ele>
        <time>2022-05-11T13:42:34Z</time>
      </trkpt>
      <trkpt lat="49.75034" lon="2.17219">
        <ele>82.6</ele>
        <time>2022-05-11T13:42:35Z</time>
      </trkpt>
      <trkpt lat="49.75036" lon="2.17218">
        <ele>82.6</ele>
        <time>2022-05-11T13:42:36Z</time>
      </trkpt>
      <trkpt lat="49.75037" lon="2.17218">
        <ele>82.6</ele>
        <time>2022-05-11T13:42:37Z</time>
      </trkpt>
      <trkpt lat="49.75037" lon="2.17217">
        <ele>82.6</ele>
        <time>2022-05-11T13:42:38Z</time>
      </trkpt>
      <trkpt lat="49.75038" lon="2.17217">
        <ele>82.6</ele>
        <time>2022-05-11T13:42:39Z</time>
      </trkpt>
      <trkpt lat="49.75039" lon="2.17217">
        <ele>82.6</ele>
        <time>2022-05-11T13:42:40Z</time>
      </trkpt>
      <trkpt lat="49.7504" lon="2.17216">
        <ele>82.5</ele>
        <time>2022-05-11T13:42:42Z</time>
      </trkpt>
      <trkpt lat="49.75041" lon="2.17216">
        <ele>82.5</ele>
        <time>2022-05-11T13:42:43Z</time>
      </trkpt>
      <trkpt lat="49.75043" lon="2.17215">
        <ele>82.5</ele>
        <time>2022-05-11T13:42:44Z</time>
      </trkpt>
      <trkpt lat="49.75044" lon="2.17215">
        <ele>82.5</ele>
        <time>2022-05-11T13:42:45Z</time>
      </trkpt>
      <trkpt lat="49.75044" lon="2.17215">
        <ele>82.5</ele>
        <time>2022-05-11T13:42:46Z</time>
      </trkpt>
      <trkpt lat="49.75045" lon="2.17214">
        <ele>82.5</ele>
        <time>2022-05-11T13:42:47Z</time>
      </trkpt>
      <trkpt lat="49.75046" lon="2.17214">
        <ele>82.5</ele>
        <time>2022-05-11T13:42:48Z</time>
      </trkpt>
      <trkpt lat="49.75046" lon="2.17215">
        <ele>82.5</ele>
        <time>2022-05-11T13:42:49Z</time>
      </trkpt>
      <trkpt lat="49.75048" lon="2.17214">
        <ele>82.5</ele>
        <time>2022-05-11T13:42:51Z</time>
      </trkpt>
      <trkpt lat="49.75049" lon="2.17214">
        <ele>82.4</ele>
        <time>2022-05-11T13:42:52Z</time>
      </trkpt>
      <trkpt lat="49.7505" lon="2.17213">
        <ele>82.4</ele>
        <time>2022-05-11T13:42:53Z</time>
      </trkpt>
      <trkpt lat="49.75051" lon="2.17213">
        <ele>82.4</ele>
        <time>2022-05-11T13:42:54Z</time>
      </trkpt>
      <trkpt lat="49.75053" lon="2.17212">
        <ele>82.4</ele>
        <time>2022-05-11T13:42:55Z</time>
      </trkpt>
      <trkpt lat="49.75054" lon="2.17211">
        <ele>82.4</ele>
        <time>2022-05-11T13:42:56Z</time>
      </trkpt>
      <trkpt lat="49.75056" lon="2.1721">
        <ele>82.4</ele>
        <time>2022-05-11T13:42:57Z</time>
      </trkpt>
      <trkpt lat="49.75057" lon="2.1721">
        <ele>82.4</ele>
        <time>2022-05-11T13:42:58Z</time>
      </trkpt>
      <trkpt lat="49.75058" lon="2.17209">
        <ele>82.4</ele>
        <time>2022-05-11T13:43:00Z</time>
      </trkpt>
      <trkpt lat="49.7506" lon="2.17209">
        <ele>82.4</ele>
        <time>2022-05-11T13:43:01Z</time>
      </trkpt>
      <trkpt lat="49.7506" lon="2.17209">
        <ele>82.4</ele>
        <time>2022-05-11T13:43:02Z</time>
      </trkpt>
      <trkpt lat="49.75061" lon="2.17209">
        <ele>82.4</ele>
        <time>2022-05-11T13:43:03Z</time>
      </trkpt>
      <trkpt lat="49.75063" lon="2.17208">
        <ele>82.4</ele>
        <time>2022-05-11T13:43:05Z</time>
      </trkpt>
      <trkpt lat="49.75064" lon="2.17207">
        <ele>82.4</ele>
        <time>2022-05-11T13:43:06Z</time>
      </trkpt>
      <trkpt lat="49.75065" lon="2.17206">
        <ele>82.4</ele>
        <time>2022-05-11T13:43:07Z</time>
      </trkpt>
      <trkpt lat="49.75066" lon="2.17206">
        <ele>82.4</ele>
        <time>2022-05-11T13:43:08Z</time>
      </trkpt>
      <trkpt lat="49.75067" lon="2.17206">
        <ele>82.4</ele>
        <time>2022-05-11T13:43:09Z</time>
      </trkpt>
      <trkpt lat="49.75068" lon="2.17205">
        <ele>82.4</ele>
        <time>2022-05-11T13:43:10Z</time>
      </trkpt>
      <trkpt lat="49.75069" lon="2.17204">
        <ele>82.4</ele>
        <time>2022-05-11T13:43:11Z</time>
      </trkpt>
      <trkpt lat="49.75072" lon="2.17202">
        <ele>82.5</ele>
        <time>2022-05-11T13:43:13Z</time>
      </trkpt>
      <trkpt lat="49.75073" lon="2.17201">
        <ele>82.5</ele>
        <time>2022-05-11T13:43:14Z</time>
      </trkpt>
      <trkpt lat="49.75075" lon="2.17201">
        <ele>82.5</ele>
        <time>2022-05-11T13:43:15Z</time>
      </trkpt>
      <trkpt lat="49.75076" lon="2.172">
        <ele>82.6</ele>
        <time>2022-05-11T13:43:16Z</time>
      </trkpt>
      <trkpt lat="49.75078" lon="2.17199">
        <ele>82.6</ele>
        <time>2022-05-11T13:43:17Z</time>
      </trkpt>
      <trkpt lat="49.75078" lon="2.172">
        <ele>82.6</ele>
        <time>2022-05-11T13:43:19Z</time>
      </trkpt>
      <trkpt lat="49.75078" lon="2.172">
        <ele>82.6</ele>
        <time>2022-05-11T13:43:20Z</time>
      </trkpt>
      <trkpt lat="49.75079" lon="2.17199">
        <ele>82.6</ele>
        <time>2022-05-11T13:43:21Z</time>
      </trkpt>
      <trkpt lat="49.75081" lon="2.17198">
        <ele>82.7</ele>
        <time>2022-05-11T13:43:22Z</time>
      </trkpt>
      <trkpt lat="49.75082" lon="2.17198">
        <ele>82.7</ele>
        <time>2022-05-11T13:43:23Z</time>
      </trkpt>
      <trkpt lat="49.75083" lon="2.17197">
        <ele>82.8</ele>
        <time>2022-05-11T13:43:25Z</time>
      </trkpt>
      <trkpt lat="49.75084" lon="2.17196">
        <ele>82.8</ele>
        <time>2022-05-11T13:43:26Z</time>
      </trkpt>
      <trkpt lat="49.75085" lon="2.17196">
        <ele>82.9</ele>
        <time>2022-05-11T13:43:27Z</time>
      </trkpt>
      <trkpt lat="49.75086" lon="2.17195">
        <ele>82.9</ele>
        <time>2022-05-11T13:43:28Z</time>
      </trkpt>
      <trkpt lat="49.75087" lon="2.17195">
        <ele>82.9</ele>
        <time>2022-05-11T13:43:29Z</time>
      </trkpt>
      <trkpt lat="49.75088" lon="2.17195">
        <ele>83</ele>
        <time>2022-05-11T13:43:30Z</time>
      </trkpt>
      <trkpt lat="49.75088" lon="2.17195">
        <ele>83</ele>
        <time>2022-05-11T13:43:31Z</time>
      </trkpt>
      <trkpt lat="49.75089" lon="2.17195">
        <ele>83</ele>
        <time>2022-05-11T13:43:32Z</time>
      </trkpt>
      <trkpt lat="49.75091" lon="2.17193">
        <ele>83.1</ele>
        <time>2022-05-11T13:43:33Z</time>
      </trkpt>
      <trkpt lat="49.75092" lon="2.17193">
        <ele>83.1</ele>
        <time>2022-05-11T13:43:34Z</time>
      </trkpt>
      <trkpt lat="49.75093" lon="2.17192">
        <ele>83.1</ele>
        <time>2022-05-11T13:43:35Z</time>
      </trkpt>
      <trkpt lat="49.75094" lon="2.17191">
        <ele>83.2</ele>
        <time>2022-05-11T13:43:36Z</time>
      </trkpt>
      <trkpt lat="49.75095" lon="2.17191">
        <ele>83.2</ele>
        <time>2022-05-11T13:43:38Z</time>
      </trkpt>
      <trkpt lat="49.75096" lon="2.1719">
        <ele>83.3</ele>
        <time>2022-05-11T13:43:39Z</time>
      </trkpt>
      <trkpt lat="49.75097" lon="2.1719">
        <ele>83.3</ele>
        <time>2022-05-11T13:43:40Z</time>
      </trkpt>
      <trkpt lat="49.75098" lon="2.17189">
        <ele>83.3</ele>
        <time>2022-05-11T13:43:41Z</time>
      </trkpt>
      <trkpt lat="49.75101" lon="2.17188">
        <ele>83.4</ele>
        <time>2022-05-11T13:43:42Z</time>
      </trkpt>
      <trkpt lat="49.75101" lon="2.17188">
        <ele>83.5</ele>
        <time>2022-05-11T13:43:43Z</time>
      </trkpt>
      <trkpt lat="49.75102" lon="2.17188">
        <ele>83.5</ele>
        <time>2022-05-11T13:43:44Z</time>
      </trkpt>
      <trkpt lat="49.75103" lon="2.17187">
        <ele>83.5</ele>
        <time>2022-05-11T13:43:45Z</time>
      </trkpt>
      <trkpt lat="49.75104" lon="2.17187">
        <ele>83.6</ele>
        <time>2022-05-11T13:43:46Z</time>
      </trkpt>
      <trkpt lat="49.75104" lon="2.17187">
        <ele>83.6</ele>
        <time>2022-05-11T13:43:47Z</time>
      </trkpt>
      <trkpt lat="49.75106" lon="2.17186">
        <ele>83.6</ele>
        <time>2022-05-11T13:43:49Z</time>
      </trkpt>
      <trkpt lat="49.75107" lon="2.17185">
        <ele>83.7</ele>
        <time>2022-05-11T13:43:50Z</time>
      </trkpt>
      <trkpt lat="49.75108" lon="2.17184">
        <ele>83.7</ele>
        <time>2022-05-11T13:43:51Z</time>
      </trkpt>
      <trkpt lat="49.7511" lon="2.17183">
        <ele>83.8</ele>
        <time>2022-05-11T13:43:53Z</time>
      </trkpt>
      <trkpt lat="49.7511" lon="2.17183">
        <ele>83.8</ele>
        <time>2022-05-11T13:43:54Z</time>
      </trkpt>
      <trkpt lat="49.75111" lon="2.17182">
        <ele>83.9</ele>
        <time>2022-05-11T13:43:55Z</time>
      </trkpt>
      <trkpt lat="49.75112" lon="2.17182">
        <ele>83.9</ele>
        <time>2022-05-11T13:43:56Z</time>
      </trkpt>
      <trkpt lat="49.75113" lon="2.17182">
        <ele>83.9</ele>
        <time>2022-05-11T13:43:57Z</time>
      </trkpt>
      <trkpt lat="49.75114" lon="2.17181">
        <ele>84</ele>
        <time>2022-05-11T13:43:58Z</time>
      </trkpt>
      <trkpt lat="49.75115" lon="2.17181">
        <ele>84</ele>
        <time>2022-05-11T13:43:59Z</time>
      </trkpt>
      <trkpt lat="49.75115" lon="2.17181">
        <ele>84</ele>
        <time>2022-05-11T13:44:00Z</time>
      </trkpt>
      <trkpt lat="49.75116" lon="2.17181">
        <ele>84</ele>
        <time>2022-05-11T13:44:01Z</time>
      </trkpt>
      <trkpt lat="49.75117" lon="2.1718">
        <ele>84.1</ele>
        <time>2022-05-11T13:44:02Z</time>
      </trkpt>
      <trkpt lat="49.75118" lon="2.1718">
        <ele>84.1</ele>
        <time>2022-05-11T13:44:03Z</time>
      </trkpt>
      <trkpt lat="49.75119" lon="2.17179">
        <ele>84.1</ele>
        <time>2022-05-11T13:44:04Z</time>
      </trkpt>
      <trkpt lat="49.7512" lon="2.17178">
        <ele>84.2</ele>
        <time>2022-05-11T13:44:05Z</time>
      </trkpt>
      <trkpt lat="49.75121" lon="2.17177">
        <ele>84.2</ele>
        <time>2022-05-11T13:44:06Z</time>
      </trkpt>
      <trkpt lat="49.75122" lon="2.17176">
        <ele>84.2</ele>
        <time>2022-05-11T13:44:07Z</time>
      </trkpt>
      <trkpt lat="49.75122" lon="2.17175">
        <ele>84.2</ele>
        <time>2022-05-11T13:44:08Z</time>
      </trkpt>
      <trkpt lat="49.75122" lon="2.17175">
        <ele>84.2</ele>
        <time>2022-05-11T13:44:09Z</time>
      </trkpt>
      <trkpt lat="49.75123" lon="2.17174">
        <ele>84.3</ele>
        <time>2022-05-11T13:44:10Z</time>
      </trkpt>
      <trkpt lat="49.75123" lon="2.17173">
        <ele>84.3</ele>
        <time>2022-05-11T13:44:11Z</time>
      </trkpt>
      <trkpt lat="49.75124" lon="2.17172">
        <ele>84.3</ele>
        <time>2022-05-11T13:44:12Z</time>
      </trkpt>
      <trkpt lat="49.75124" lon="2.17171">
        <ele>84.3</ele>
        <time>2022-05-11T13:44:13Z</time>
      </trkpt>
      <trkpt lat="49.75125" lon="2.17171">
        <ele>84.3</ele>
        <time>2022-05-11T13:44:14Z</time>
      </trkpt>
      <trkpt lat="49.75126" lon="2.17171">
        <ele>84.3</ele>
        <time>2022-05-11T13:44:15Z</time>
      </trkpt>
      <trkpt lat="49.75126" lon="2.17172">
        <ele>84.3</ele>
        <time>2022-05-11T13:44:17Z</time>
      </trkpt>
      <trkpt lat="49.75126" lon="2.17172">
        <ele>84.3</ele>
        <time>2022-05-11T13:44:18Z</time>
      </trkpt>
      <trkpt lat="49.75127" lon="2.17172">
        <ele>84.4</ele>
        <time>2022-05-11T13:44:19Z</time>
      </trkpt>
      <trkpt lat="49.75128" lon="2.17171">
        <ele>84.4</ele>
        <time>2022-05-11T13:44:21Z</time>
      </trkpt>
      <trkpt lat="49.75129" lon="2.17172">
        <ele>84.4</ele>
        <time>2022-05-11T13:44:22Z</time>
      </trkpt>
      <trkpt lat="49.7513" lon="2.17172">
        <ele>84.4</ele>
        <time>2022-05-11T13:44:23Z</time>
      </trkpt>
      <trkpt lat="49.7513" lon="2.17173">
        <ele>84.4</ele>
        <time>2022-05-11T13:44:24Z</time>
      </trkpt>
      <trkpt lat="49.7513" lon="2.17173">
        <ele>84.4</ele>
        <time>2022-05-11T13:44:25Z</time>
      </trkpt>
      <trkpt lat="49.7513" lon="2.17174">
        <ele>84.4</ele>
        <time>2022-05-11T13:44:26Z</time>
      </trkpt>
      <trkpt lat="49.7513" lon="2.17174">
        <ele>84.5</ele>
        <time>2022-05-11T13:44:27Z</time>
      </trkpt>
      <trkpt lat="49.7513" lon="2.17174">
        <ele>84.5</ele>
        <time>2022-05-11T13:44:28Z</time>
      </trkpt>
      <trkpt lat="49.75129" lon="2.17174">
        <ele>84.5</ele>
        <time>2022-05-11T13:44:29Z</time>
      </trkpt>
      <trkpt lat="49.75129" lon="2.17174">
        <ele>84.5</ele>
        <time>2022-05-11T13:44:30Z</time>
      </trkpt>
      <trkpt lat="49.75129" lon="2.17174">
        <ele>84.5</ele>
        <time>2022-05-11T13:44:31Z</time>
      </trkpt>
      <trkpt lat="49.75129" lon="2.17175">
        <ele>84.5</ele>
        <time>2022-05-11T13:44:32Z</time>
      </trkpt>
      <trkpt lat="49.75129" lon="2.17175">
        <ele>84.5</ele>
        <time>2022-05-11T13:44:33Z</time>
      </trkpt>
      <trkpt lat="49.75129" lon="2.17175">
        <ele>84.5</ele>
        <time>2022-05-11T13:44:34Z</time>
      </trkpt>
      <trkpt lat="49.75129" lon="2.17175">
        <ele>84.5</ele>
        <time>2022-05-11T13:44:35Z</time>
      </trkpt>
      <trkpt lat="49.75128" lon="2.17175">
        <ele>84.5</ele>
        <time>2022-05-11T13:44:36Z</time>
      </trkpt>
      <trkpt lat="49.75128" lon="2.17176">
        <ele>84.5</ele>
        <time>2022-05-11T13:44:37Z</time>
      </trkpt>
      <trkpt lat="49.75127" lon="2.17177">
        <ele>84.5</ele>
        <time>2022-05-11T13:44:38Z</time>
      </trkpt>
      <trkpt lat="49.75127" lon="2.17178">
        <ele>84.6</ele>
        <time>2022-05-11T13:44:39Z</time>
      </trkpt>
      <trkpt lat="49.75127" lon="2.1718">
        <ele>84.6</ele>
        <time>2022-05-11T13:44:40Z</time>
      </trkpt>
      <trkpt lat="49.75127" lon="2.17181">
        <ele>84.6</ele>
        <time>2022-05-11T13:44:41Z</time>
      </trkpt>
      <trkpt lat="49.75128" lon="2.17182">
        <ele>84.6</ele>
        <time>2022-05-11T13:44:42Z</time>
      </trkpt>
      <trkpt lat="49.75128" lon="2.17183">
        <ele>84.6</ele>
        <time>2022-05-11T13:44:43Z</time>
      </trkpt>
      <trkpt lat="49.75127" lon="2.17183">
        <ele>84.7</ele>
        <time>2022-05-11T13:44:44Z</time>
      </trkpt>
      <trkpt lat="49.75127" lon="2.17183">
        <ele>84.7</ele>
        <time>2022-05-11T13:44:45Z</time>
      </trkpt>
      <trkpt lat="49.75127" lon="2.17183">
        <ele>84.7</ele>
        <time>2022-05-11T13:44:46Z</time>
      </trkpt>
      <trkpt lat="49.75127" lon="2.17183">
        <ele>84.7</ele>
        <time>2022-05-11T13:44:47Z</time>
      </trkpt>
      <trkpt lat="49.75127" lon="2.17183">
        <ele>84.7</ele>
        <time>2022-05-11T13:44:48Z</time>
      </trkpt>
      <trkpt lat="49.75127" lon="2.17184">
        <ele>84.7</ele>
        <time>2022-05-11T13:44:49Z</time>
      </trkpt>
      <trkpt lat="49.75128" lon="2.17183">
        <ele>84.7</ele>
        <time>2022-05-11T13:44:50Z</time>
      </trkpt>
      <trkpt lat="49.75129" lon="2.17184">
        <ele>84.7</ele>
        <time>2022-05-11T13:44:51Z</time>
      </trkpt>
      <trkpt lat="49.75129" lon="2.17183">
        <ele>84.7</ele>
        <time>2022-05-11T13:44:52Z</time>
      </trkpt>
      <trkpt lat="49.75131" lon="2.17183">
        <ele>84.8</ele>
        <time>2022-05-11T13:44:54Z</time>
      </trkpt>
      <trkpt lat="49.75131" lon="2.17182">
        <ele>84.8</ele>
        <time>2022-05-11T13:44:55Z</time>
      </trkpt>
      <trkpt lat="49.75132" lon="2.17181">
        <ele>84.8</ele>
        <time>2022-05-11T13:44:56Z</time>
      </trkpt>
      <trkpt lat="49.75132" lon="2.1718">
        <ele>84.8</ele>
        <time>2022-05-11T13:44:57Z</time>
      </trkpt>
      <trkpt lat="49.75133" lon="2.17178">
        <ele>84.8</ele>
        <time>2022-05-11T13:44:58Z</time>
      </trkpt>
      <trkpt lat="49.75134" lon="2.17178">
        <ele>84.9</ele>
        <time>2022-05-11T13:44:59Z</time>
      </trkpt>
      <trkpt lat="49.75134" lon="2.17178">
        <ele>84.9</ele>
        <time>2022-05-11T13:45:00Z</time>
      </trkpt>
      <trkpt lat="49.75135" lon="2.17179">
        <ele>84.9</ele>
        <time>2022-05-11T13:45:01Z</time>
      </trkpt>
      <trkpt lat="49.75135" lon="2.17181">
        <ele>84.9</ele>
        <time>2022-05-11T13:45:02Z</time>
      </trkpt>
      <trkpt lat="49.75136" lon="2.17183">
        <ele>85</ele>
        <time>2022-05-11T13:45:03Z</time>
      </trkpt>
      <trkpt lat="49.75137" lon="2.17185">
        <ele>85</ele>
        <time>2022-05-11T13:45:05Z</time>
      </trkpt>
      <trkpt lat="49.75137" lon="2.17187">
        <ele>85</ele>
        <time>2022-05-11T13:45:06Z</time>
      </trkpt>
      <trkpt lat="49.75138" lon="2.17188">
        <ele>85</ele>
        <time>2022-05-11T13:45:07Z</time>
      </trkpt>
      <trkpt lat="49.75138" lon="2.17189">
        <ele>85.1</ele>
        <time>2022-05-11T13:45:08Z</time>
      </trkpt>
      <trkpt lat="49.75139" lon="2.17191">
        <ele>85.1</ele>
        <time>2022-05-11T13:45:09Z</time>
      </trkpt>
      <trkpt lat="49.7514" lon="2.17192">
        <ele>85.1</ele>
        <time>2022-05-11T13:45:10Z</time>
      </trkpt>
      <trkpt lat="49.7514" lon="2.17194">
        <ele>85.1</ele>
        <time>2022-05-11T13:45:11Z</time>
      </trkpt>
      <trkpt lat="49.7514" lon="2.17195">
        <ele>85.2</ele>
        <time>2022-05-11T13:45:12Z</time>
      </trkpt>
      <trkpt lat="49.75141" lon="2.17197">
        <ele>85.2</ele>
        <time>2022-05-11T13:45:13Z</time>
      </trkpt>
      <trkpt lat="49.75142" lon="2.17198">
        <ele>85.2</ele>
        <time>2022-05-11T13:45:15Z</time>
      </trkpt>
      <trkpt lat="49.75143" lon="2.172">
        <ele>85.3</ele>
        <time>2022-05-11T13:45:16Z</time>
      </trkpt>
      <trkpt lat="49.75143" lon="2.17201">
        <ele>85.3</ele>
        <time>2022-05-11T13:45:17Z</time>
      </trkpt>
      <trkpt lat="49.75144" lon="2.17202">
        <ele>85.3</ele>
        <time>2022-05-11T13:45:18Z</time>
      </trkpt>
      <trkpt lat="49.75144" lon="2.17203">
        <ele>85.3</ele>
        <time>2022-05-11T13:45:19Z</time>
      </trkpt>
      <trkpt lat="49.75145" lon="2.17204">
        <ele>85.3</ele>
        <time>2022-05-11T13:45:20Z</time>
      </trkpt>
      <trkpt lat="49.75146" lon="2.17206">
        <ele>85.4</ele>
        <time>2022-05-11T13:45:22Z</time>
      </trkpt>
      <trkpt lat="49.75147" lon="2.17207">
        <ele>85.4</ele>
        <time>2022-05-11T13:45:23Z</time>
      </trkpt>
      <trkpt lat="49.75148" lon="2.17208">
        <ele>85.4</ele>
        <time>2022-05-11T13:45:24Z</time>
      </trkpt>
      <trkpt lat="49.75149" lon="2.17209">
        <ele>85.5</ele>
        <time>2022-05-11T13:45:25Z</time>
      </trkpt>
      <trkpt lat="49.75148" lon="2.17209">
        <ele>85.5</ele>
        <time>2022-05-11T13:45:26Z</time>
      </trkpt>
      <trkpt lat="49.75149" lon="2.1721">
        <ele>85.5</ele>
        <time>2022-05-11T13:45:27Z</time>
      </trkpt>
      <trkpt lat="49.7515" lon="2.17211">
        <ele>85.5</ele>
        <time>2022-05-11T13:45:28Z</time>
      </trkpt>
      <trkpt lat="49.75151" lon="2.17213">
        <ele>85.6</ele>
        <time>2022-05-11T13:45:30Z</time>
      </trkpt>
      <trkpt lat="49.75153" lon="2.17215">
        <ele>85.6</ele>
        <time>2022-05-11T13:45:31Z</time>
      </trkpt>
      <trkpt lat="49.75154" lon="2.17216">
        <ele>85.6</ele>
        <time>2022-05-11T13:45:32Z</time>
      </trkpt>
      <trkpt lat="49.75154" lon="2.17216">
        <ele>85.7</ele>
        <time>2022-05-11T13:45:33Z</time>
      </trkpt>
      <trkpt lat="49.75156" lon="2.17218">
        <ele>85.7</ele>
        <time>2022-05-11T13:45:34Z</time>
      </trkpt>
      <trkpt lat="49.75157" lon="2.17219">
        <ele>85.7</ele>
        <time>2022-05-11T13:45:35Z</time>
      </trkpt>
      <trkpt lat="49.75158" lon="2.1722">
        <ele>85.7</ele>
        <time>2022-05-11T13:45:36Z</time>
      </trkpt>
      <trkpt lat="49.7516" lon="2.17222">
        <ele>85.8</ele>
        <time>2022-05-11T13:45:38Z</time>
      </trkpt>
      <trkpt lat="49.75161" lon="2.17223">
        <ele>85.8</ele>
        <time>2022-05-11T13:45:39Z</time>
      </trkpt>
      <trkpt lat="49.75162" lon="2.17225">
        <ele>85.9</ele>
        <time>2022-05-11T13:45:40Z</time>
      </trkpt>
      <trkpt lat="49.75163" lon="2.17227">
        <ele>85.9</ele>
        <time>2022-05-11T13:45:42Z</time>
      </trkpt>
      <trkpt lat="49.75164" lon="2.17229">
        <ele>86</ele>
        <time>2022-05-11T13:45:43Z</time>
      </trkpt>
      <trkpt lat="49.75165" lon="2.17231">
        <ele>86</ele>
        <time>2022-05-11T13:45:44Z</time>
      </trkpt>
      <trkpt lat="49.75167" lon="2.17235">
        <ele>86.1</ele>
        <time>2022-05-11T13:45:46Z</time>
      </trkpt>
      <trkpt lat="49.75167" lon="2.17237">
        <ele>86.1</ele>
        <time>2022-05-11T13:45:47Z</time>
      </trkpt>
      <trkpt lat="49.75168" lon="2.17239">
        <ele>86.2</ele>
        <time>2022-05-11T13:45:49Z</time>
      </trkpt>
      <trkpt lat="49.75169" lon="2.1724">
        <ele>86.2</ele>
        <time>2022-05-11T13:45:50Z</time>
      </trkpt>
      <trkpt lat="49.75169" lon="2.17242">
        <ele>86.2</ele>
        <time>2022-05-11T13:45:51Z</time>
      </trkpt>
      <trkpt lat="49.75168" lon="2.17243">
        <ele>86.2</ele>
        <time>2022-05-11T13:45:52Z</time>
      </trkpt>
      <trkpt lat="49.75168" lon="2.17244">
        <ele>86.3</ele>
        <time>2022-05-11T13:45:53Z</time>
      </trkpt>
      <trkpt lat="49.75169" lon="2.17246">
        <ele>86.3</ele>
        <time>2022-05-11T13:45:54Z</time>
      </trkpt>
      <trkpt lat="49.75169" lon="2.17247">
        <ele>86.3</ele>
        <time>2022-05-11T13:45:56Z</time>
      </trkpt>
      <trkpt lat="49.7517" lon="2.17248">
        <ele>86.3</ele>
        <time>2022-05-11T13:45:57Z</time>
      </trkpt>
      <trkpt lat="49.75171" lon="2.17249">
        <ele>86.4</ele>
        <time>2022-05-11T13:45:58Z</time>
      </trkpt>
      <trkpt lat="49.75171" lon="2.1725">
        <ele>86.4</ele>
        <time>2022-05-11T13:45:59Z</time>
      </trkpt>
      <trkpt lat="49.75172" lon="2.17252">
        <ele>86.4</ele>
        <time>2022-05-11T13:46:00Z</time>
      </trkpt>
      <trkpt lat="49.75174" lon="2.17254">
        <ele>86.5</ele>
        <time>2022-05-11T13:46:02Z</time>
      </trkpt>
      <trkpt lat="49.75175" lon="2.17255">
        <ele>86.5</ele>
        <time>2022-05-11T13:46:03Z</time>
      </trkpt>
      <trkpt lat="49.75174" lon="2.17256">
        <ele>86.5</ele>
        <time>2022-05-11T13:46:04Z</time>
      </trkpt>
      <trkpt lat="49.75174" lon="2.17257">
        <ele>86.5</ele>
        <time>2022-05-11T13:46:05Z</time>
      </trkpt>
      <trkpt lat="49.75175" lon="2.17258">
        <ele>86.5</ele>
        <time>2022-05-11T13:46:06Z</time>
      </trkpt>
      <trkpt lat="49.75176" lon="2.17259">
        <ele>86.6</ele>
        <time>2022-05-11T13:46:07Z</time>
      </trkpt>
      <trkpt lat="49.75177" lon="2.17261">
        <ele>86.6</ele>
        <time>2022-05-11T13:46:08Z</time>
      </trkpt>
      <trkpt lat="49.75178" lon="2.17264">
        <ele>86.7</ele>
        <time>2022-05-11T13:46:09Z</time>
      </trkpt>
      <trkpt lat="49.75179" lon="2.17265">
        <ele>86.7</ele>
        <time>2022-05-11T13:46:10Z</time>
      </trkpt>
      <trkpt lat="49.75179" lon="2.17266">
        <ele>86.7</ele>
        <time>2022-05-11T13:46:11Z</time>
      </trkpt>
      <trkpt lat="49.75181" lon="2.17269">
        <ele>86.8</ele>
        <time>2022-05-11T13:46:12Z</time>
      </trkpt>
      <trkpt lat="49.75181" lon="2.1727">
        <ele>86.8</ele>
        <time>2022-05-11T13:46:13Z</time>
      </trkpt>
      <trkpt lat="49.75182" lon="2.17271">
        <ele>86.8</ele>
        <time>2022-05-11T13:46:14Z</time>
      </trkpt>
      <trkpt lat="49.75182" lon="2.17272">
        <ele>86.8</ele>
        <time>2022-05-11T13:46:15Z</time>
      </trkpt>
      <trkpt lat="49.75182" lon="2.17275">
        <ele>86.9</ele>
        <time>2022-05-11T13:46:17Z</time>
      </trkpt>
      <trkpt lat="49.75182" lon="2.17276">
        <ele>86.9</ele>
        <time>2022-05-11T13:46:18Z</time>
      </trkpt>
      <trkpt lat="49.75183" lon="2.17278">
        <ele>86.9</ele>
        <time>2022-05-11T13:46:19Z</time>
      </trkpt>
      <trkpt lat="49.75184" lon="2.1728">
        <ele>87</ele>
        <time>2022-05-11T13:46:20Z</time>
      </trkpt>
      <trkpt lat="49.75185" lon="2.17282">
        <ele>87.1</ele>
        <time>2022-05-11T13:46:21Z</time>
      </trkpt>
      <trkpt lat="49.75185" lon="2.17284">
        <ele>87.1</ele>
        <time>2022-05-11T13:46:22Z</time>
      </trkpt>
      <trkpt lat="49.75186" lon="2.17285">
        <ele>87.1</ele>
        <time>2022-05-11T13:46:23Z</time>
      </trkpt>
      <trkpt lat="49.75186" lon="2.17286">
        <ele>87.1</ele>
        <time>2022-05-11T13:46:25Z</time>
      </trkpt>
      <trkpt lat="49.75187" lon="2.17288">
        <ele>87.2</ele>
        <time>2022-05-11T13:46:26Z</time>
      </trkpt>
      <trkpt lat="49.75187" lon="2.17289">
        <ele>87.2</ele>
        <time>2022-05-11T13:46:27Z</time>
      </trkpt>
      <trkpt lat="49.75188" lon="2.1729">
        <ele>87.2</ele>
        <time>2022-05-11T13:46:28Z</time>
      </trkpt>
      <trkpt lat="49.75188" lon="2.17292">
        <ele>87.2</ele>
        <time>2022-05-11T13:46:29Z</time>
      </trkpt>
      <trkpt lat="49.75189" lon="2.17294">
        <ele>87.3</ele>
        <time>2022-05-11T13:46:31Z</time>
      </trkpt>
      <trkpt lat="49.7519" lon="2.17297">
        <ele>87.3</ele>
        <time>2022-05-11T13:46:32Z</time>
      </trkpt>
      <trkpt lat="49.75191" lon="2.17298">
        <ele>87.4</ele>
        <time>2022-05-11T13:46:33Z</time>
      </trkpt>
      <trkpt lat="49.75191" lon="2.17299">
        <ele>87.4</ele>
        <time>2022-05-11T13:46:34Z</time>
      </trkpt>
      <trkpt lat="49.75192" lon="2.173">
        <ele>87.4</ele>
        <time>2022-05-11T13:46:35Z</time>
      </trkpt>
      <trkpt lat="49.75193" lon="2.17301">
        <ele>87.5</ele>
        <time>2022-05-11T13:46:36Z</time>
      </trkpt>
      <trkpt lat="49.75193" lon="2.17302">
        <ele>87.5</ele>
        <time>2022-05-11T13:46:37Z</time>
      </trkpt>
      <trkpt lat="49.75194" lon="2.17304">
        <ele>87.5</ele>
        <time>2022-05-11T13:46:38Z</time>
      </trkpt>
      <trkpt lat="49.75195" lon="2.17304">
        <ele>87.5</ele>
        <time>2022-05-11T13:46:39Z</time>
      </trkpt>
      <trkpt lat="49.75196" lon="2.17306">
        <ele>87.6</ele>
        <time>2022-05-11T13:46:41Z</time>
      </trkpt>
      <trkpt lat="49.75196" lon="2.17307">
        <ele>87.6</ele>
        <time>2022-05-11T13:46:42Z</time>
      </trkpt>
      <trkpt lat="49.75197" lon="2.17308">
        <ele>87.6</ele>
        <time>2022-05-11T13:46:43Z</time>
      </trkpt>
      <trkpt lat="49.75198" lon="2.1731">
        <ele>87.7</ele>
        <time>2022-05-11T13:46:44Z</time>
      </trkpt>
      <trkpt lat="49.75199" lon="2.17311">
        <ele>87.7</ele>
        <time>2022-05-11T13:46:45Z</time>
      </trkpt>
      <trkpt lat="49.75199" lon="2.17313">
        <ele>87.7</ele>
        <time>2022-05-11T13:46:46Z</time>
      </trkpt>
      <trkpt lat="49.752" lon="2.17314">
        <ele>87.8</ele>
        <time>2022-05-11T13:46:48Z</time>
      </trkpt>
      <trkpt lat="49.75202" lon="2.17317">
        <ele>87.8</ele>
        <time>2022-05-11T13:46:49Z</time>
      </trkpt>
      <trkpt lat="49.75202" lon="2.17318">
        <ele>87.8</ele>
        <time>2022-05-11T13:46:50Z</time>
      </trkpt>
      <trkpt lat="49.75203" lon="2.17319">
        <ele>87.9</ele>
        <time>2022-05-11T13:46:51Z</time>
      </trkpt>
      <trkpt lat="49.75204" lon="2.17321">
        <ele>87.9</ele>
        <time>2022-05-11T13:46:52Z</time>
      </trkpt>
      <trkpt lat="49.75205" lon="2.17322">
        <ele>87.9</ele>
        <time>2022-05-11T13:46:53Z</time>
      </trkpt>
      <trkpt lat="49.75206" lon="2.17324">
        <ele>88</ele>
        <time>2022-05-11T13:46:54Z</time>
      </trkpt>
      <trkpt lat="49.75206" lon="2.17325">
        <ele>88</ele>
        <time>2022-05-11T13:46:55Z</time>
      </trkpt>
      <trkpt lat="49.75207" lon="2.17327">
        <ele>88</ele>
        <time>2022-05-11T13:46:57Z</time>
      </trkpt>
      <trkpt lat="49.75208" lon="2.17328">
        <ele>88.1</ele>
        <time>2022-05-11T13:46:58Z</time>
      </trkpt>
      <trkpt lat="49.75209" lon="2.1733">
        <ele>88.1</ele>
        <time>2022-05-11T13:46:59Z</time>
      </trkpt>
      <trkpt lat="49.75209" lon="2.17331">
        <ele>88.1</ele>
        <time>2022-05-11T13:47:00Z</time>
      </trkpt>
      <trkpt lat="49.7521" lon="2.17332">
        <ele>88.1</ele>
        <time>2022-05-11T13:47:01Z</time>
      </trkpt>
      <trkpt lat="49.75211" lon="2.17333">
        <ele>88.2</ele>
        <time>2022-05-11T13:47:02Z</time>
      </trkpt>
      <trkpt lat="49.75212" lon="2.17335">
        <ele>88.2</ele>
        <time>2022-05-11T13:47:04Z</time>
      </trkpt>
      <trkpt lat="49.75213" lon="2.17336">
        <ele>88.2</ele>
        <time>2022-05-11T13:47:05Z</time>
      </trkpt>
      <trkpt lat="49.75213" lon="2.17337">
        <ele>88.3</ele>
        <time>2022-05-11T13:47:06Z</time>
      </trkpt>
      <trkpt lat="49.75214" lon="2.17338">
        <ele>88.3</ele>
        <time>2022-05-11T13:47:07Z</time>
      </trkpt>
      <trkpt lat="49.75214" lon="2.17339">
        <ele>88.3</ele>
        <time>2022-05-11T13:47:08Z</time>
      </trkpt>
      <trkpt lat="49.75215" lon="2.1734">
        <ele>88.3</ele>
        <time>2022-05-11T13:47:09Z</time>
      </trkpt>
      <trkpt lat="49.75216" lon="2.17341">
        <ele>88.4</ele>
        <time>2022-05-11T13:47:10Z</time>
      </trkpt>
      <trkpt lat="49.75217" lon="2.17343">
        <ele>88.4</ele>
        <time>2022-05-11T13:47:11Z</time>
      </trkpt>
      <trkpt lat="49.75218" lon="2.17345">
        <ele>88.4</ele>
        <time>2022-05-11T13:47:12Z</time>
      </trkpt>
      <trkpt lat="49.75218" lon="2.17346">
        <ele>88.5</ele>
        <time>2022-05-11T13:47:13Z</time>
      </trkpt>
      <trkpt lat="49.75218" lon="2.17348">
        <ele>88.5</ele>
        <time>2022-05-11T13:47:15Z</time>
      </trkpt>
      <trkpt lat="49.75219" lon="2.17351">
        <ele>88.5</ele>
        <time>2022-05-11T13:47:16Z</time>
      </trkpt>
      <trkpt lat="49.7522" lon="2.17352">
        <ele>88.6</ele>
        <time>2022-05-11T13:47:17Z</time>
      </trkpt>
      <trkpt lat="49.7522" lon="2.17353">
        <ele>88.6</ele>
        <time>2022-05-11T13:47:18Z</time>
      </trkpt>
      <trkpt lat="49.75221" lon="2.17354">
        <ele>88.6</ele>
        <time>2022-05-11T13:47:19Z</time>
      </trkpt>
      <trkpt lat="49.75222" lon="2.17356">
        <ele>88.7</ele>
        <time>2022-05-11T13:47:20Z</time>
      </trkpt>
      <trkpt lat="49.75223" lon="2.17357">
        <ele>88.7</ele>
        <time>2022-05-11T13:47:21Z</time>
      </trkpt>
      <trkpt lat="49.75224" lon="2.17358">
        <ele>88.8</ele>
        <time>2022-05-11T13:47:22Z</time>
      </trkpt>
      <trkpt lat="49.75226" lon="2.1736">
        <ele>88.8</ele>
        <time>2022-05-11T13:47:23Z</time>
      </trkpt>
      <trkpt lat="49.75227" lon="2.17361">
        <ele>88.8</ele>
        <time>2022-05-11T13:47:24Z</time>
      </trkpt>
      <trkpt lat="49.75229" lon="2.17364">
        <ele>88.9</ele>
        <time>2022-05-11T13:47:26Z</time>
      </trkpt>
      <trkpt lat="49.75229" lon="2.17365">
        <ele>88.9</ele>
        <time>2022-05-11T13:47:27Z</time>
      </trkpt>
      <trkpt lat="49.75229" lon="2.17366">
        <ele>89</ele>
        <time>2022-05-11T13:47:28Z</time>
      </trkpt>
      <trkpt lat="49.75231" lon="2.17367">
        <ele>89</ele>
        <time>2022-05-11T13:47:29Z</time>
      </trkpt>
      <trkpt lat="49.75231" lon="2.17369">
        <ele>89</ele>
        <time>2022-05-11T13:47:30Z</time>
      </trkpt>
      <trkpt lat="49.75232" lon="2.17371">
        <ele>89.1</ele>
        <time>2022-05-11T13:47:32Z</time>
      </trkpt>
      <trkpt lat="49.75233" lon="2.17372">
        <ele>89.1</ele>
        <time>2022-05-11T13:47:33Z</time>
      </trkpt>
      <trkpt lat="49.75234" lon="2.17375">
        <ele>89.2</ele>
        <time>2022-05-11T13:47:34Z</time>
      </trkpt>
      <trkpt lat="49.75235" lon="2.17376">
        <ele>89.2</ele>
        <time>2022-05-11T13:47:35Z</time>
      </trkpt>
      <trkpt lat="49.75235" lon="2.17377">
        <ele>89.2</ele>
        <time>2022-05-11T13:47:36Z</time>
      </trkpt>
      <trkpt lat="49.75237" lon="2.17379">
        <ele>89.3</ele>
        <time>2022-05-11T13:47:37Z</time>
      </trkpt>
      <trkpt lat="49.75237" lon="2.1738">
        <ele>89.3</ele>
        <time>2022-05-11T13:47:38Z</time>
      </trkpt>
      <trkpt lat="49.75238" lon="2.17381">
        <ele>89.4</ele>
        <time>2022-05-11T13:47:39Z</time>
      </trkpt>
      <trkpt lat="49.75239" lon="2.17383">
        <ele>89.4</ele>
        <time>2022-05-11T13:47:41Z</time>
      </trkpt>
      <trkpt lat="49.75239" lon="2.17384">
        <ele>89.5</ele>
        <time>2022-05-11T13:47:42Z</time>
      </trkpt>
      <trkpt lat="49.7524" lon="2.17385">
        <ele>89.5</ele>
        <time>2022-05-11T13:47:43Z</time>
      </trkpt>
      <trkpt lat="49.75241" lon="2.17386">
        <ele>89.5</ele>
        <time>2022-05-11T13:47:44Z</time>
      </trkpt>
      <trkpt lat="49.75241" lon="2.17386">
        <ele>89.6</ele>
        <time>2022-05-11T13:47:45Z</time>
      </trkpt>
      <trkpt lat="49.75243" lon="2.17388">
        <ele>89.6</ele>
        <time>2022-05-11T13:47:46Z</time>
      </trkpt>
      <trkpt lat="49.75244" lon="2.17389">
        <ele>89.7</ele>
        <time>2022-05-11T13:47:47Z</time>
      </trkpt>
      <trkpt lat="49.75245" lon="2.17391">
        <ele>89.7</ele>
        <time>2022-05-11T13:47:48Z</time>
      </trkpt>
      <trkpt lat="49.75246" lon="2.17392">
        <ele>89.7</ele>
        <time>2022-05-11T13:47:50Z</time>
      </trkpt>
      <trkpt lat="49.75247" lon="2.17393">
        <ele>89.8</ele>
        <time>2022-05-11T13:47:51Z</time>
      </trkpt>
      <trkpt lat="49.75249" lon="2.17396">
        <ele>89.8</ele>
        <time>2022-05-11T13:47:52Z</time>
      </trkpt>
      <trkpt lat="49.75249" lon="2.17397">
        <ele>89.9</ele>
        <time>2022-05-11T13:47:53Z</time>
      </trkpt>
      <trkpt lat="49.7525" lon="2.17398">
        <ele>89.9</ele>
        <time>2022-05-11T13:47:54Z</time>
      </trkpt>
      <trkpt lat="49.75251" lon="2.17399">
        <ele>89.9</ele>
        <time>2022-05-11T13:47:56Z</time>
      </trkpt>
      <trkpt lat="49.75252" lon="2.17401">
        <ele>90</ele>
        <time>2022-05-11T13:47:57Z</time>
      </trkpt>
      <trkpt lat="49.75253" lon="2.17404">
        <ele>90</ele>
        <time>2022-05-11T13:47:58Z</time>
      </trkpt>
      <trkpt lat="49.75254" lon="2.17405">
        <ele>90.1</ele>
        <time>2022-05-11T13:47:59Z</time>
      </trkpt>
      <trkpt lat="49.75254" lon="2.17406">
        <ele>90.1</ele>
        <time>2022-05-11T13:48:00Z</time>
      </trkpt>
      <trkpt lat="49.75255" lon="2.17407">
        <ele>90.1</ele>
        <time>2022-05-11T13:48:01Z</time>
      </trkpt>
      <trkpt lat="49.75256" lon="2.17409">
        <ele>90.1</ele>
        <time>2022-05-11T13:48:02Z</time>
      </trkpt>
      <trkpt lat="49.75257" lon="2.1741">
        <ele>90.2</ele>
        <time>2022-05-11T13:48:04Z</time>
      </trkpt>
      <trkpt lat="49.75256" lon="2.1741">
        <ele>90.2</ele>
        <time>2022-05-11T13:48:05Z</time>
      </trkpt>
      <trkpt lat="49.75257" lon="2.17411">
        <ele>90.2</ele>
        <time>2022-05-11T13:48:06Z</time>
      </trkpt>
      <trkpt lat="49.75258" lon="2.17413">
        <ele>90.3</ele>
        <time>2022-05-11T13:48:07Z</time>
      </trkpt>
      <trkpt lat="49.75259" lon="2.17414">
        <ele>90.3</ele>
        <time>2022-05-11T13:48:09Z</time>
      </trkpt>
      <trkpt lat="49.7526" lon="2.17417">
        <ele>90.4</ele>
        <time>2022-05-11T13:48:10Z</time>
      </trkpt>
      <trkpt lat="49.75261" lon="2.17418">
        <ele>90.4</ele>
        <time>2022-05-11T13:48:12Z</time>
      </trkpt>
      <trkpt lat="49.75263" lon="2.17421">
        <ele>90.5</ele>
        <time>2022-05-11T13:48:13Z</time>
      </trkpt>
      <trkpt lat="49.75263" lon="2.17421">
        <ele>90.5</ele>
        <time>2022-05-11T13:48:14Z</time>
      </trkpt>
      <trkpt lat="49.75264" lon="2.17422">
        <ele>90.5</ele>
        <time>2022-05-11T13:48:15Z</time>
      </trkpt>
      <trkpt lat="49.75265" lon="2.17424">
        <ele>90.6</ele>
        <time>2022-05-11T13:48:16Z</time>
      </trkpt>
      <trkpt lat="49.75266" lon="2.17426">
        <ele>90.6</ele>
        <time>2022-05-11T13:48:17Z</time>
      </trkpt>
      <trkpt lat="49.75267" lon="2.17428">
        <ele>90.7</ele>
        <time>2022-05-11T13:48:18Z</time>
      </trkpt>
      <trkpt lat="49.75268" lon="2.17429">
        <ele>90.7</ele>
        <time>2022-05-11T13:48:20Z</time>
      </trkpt>
      <trkpt lat="49.75268" lon="2.1743">
        <ele>90.7</ele>
        <time>2022-05-11T13:48:21Z</time>
      </trkpt>
      <trkpt lat="49.75269" lon="2.17431">
        <ele>90.8</ele>
        <time>2022-05-11T13:48:22Z</time>
      </trkpt>
      <trkpt lat="49.7527" lon="2.17433">
        <ele>90.8</ele>
        <time>2022-05-11T13:48:23Z</time>
      </trkpt>
      <trkpt lat="49.7527" lon="2.17434">
        <ele>90.8</ele>
        <time>2022-05-11T13:48:24Z</time>
      </trkpt>
      <trkpt lat="49.75271" lon="2.17437">
        <ele>90.9</ele>
        <time>2022-05-11T13:48:25Z</time>
      </trkpt>
      <trkpt lat="49.75272" lon="2.17438">
        <ele>90.9</ele>
        <time>2022-05-11T13:48:27Z</time>
      </trkpt>
      <trkpt lat="49.75272" lon="2.17439">
        <ele>91</ele>
        <time>2022-05-11T13:48:28Z</time>
      </trkpt>
      <trkpt lat="49.75273" lon="2.17441">
        <ele>91</ele>
        <time>2022-05-11T13:48:29Z</time>
      </trkpt>
      <trkpt lat="49.75273" lon="2.17443">
        <ele>91.1</ele>
        <time>2022-05-11T13:48:30Z</time>
      </trkpt>
      <trkpt lat="49.75273" lon="2.17445">
        <ele>91.1</ele>
        <time>2022-05-11T13:48:31Z</time>
      </trkpt>
      <trkpt lat="49.75274" lon="2.17448">
        <ele>91.2</ele>
        <time>2022-05-11T13:48:32Z</time>
      </trkpt>
      <trkpt lat="49.75275" lon="2.1745">
        <ele>91.2</ele>
        <time>2022-05-11T13:48:33Z</time>
      </trkpt>
      <trkpt lat="49.75276" lon="2.17451">
        <ele>91.2</ele>
        <time>2022-05-11T13:48:35Z</time>
      </trkpt>
      <trkpt lat="49.75276" lon="2.17452">
        <ele>91.3</ele>
        <time>2022-05-11T13:48:36Z</time>
      </trkpt>
      <trkpt lat="49.75277" lon="2.17453">
        <ele>91.3</ele>
        <time>2022-05-11T13:48:37Z</time>
      </trkpt>
      <trkpt lat="49.75277" lon="2.17454">
        <ele>91.3</ele>
        <time>2022-05-11T13:48:38Z</time>
      </trkpt>
      <trkpt lat="49.75278" lon="2.17456">
        <ele>91.4</ele>
        <time>2022-05-11T13:48:39Z</time>
      </trkpt>
      <trkpt lat="49.75279" lon="2.17458">
        <ele>91.4</ele>
        <time>2022-05-11T13:48:40Z</time>
      </trkpt>
      <trkpt lat="49.7528" lon="2.17459">
        <ele>91.5</ele>
        <time>2022-05-11T13:48:41Z</time>
      </trkpt>
      <trkpt lat="49.75281" lon="2.17461">
        <ele>91.5</ele>
        <time>2022-05-11T13:48:43Z</time>
      </trkpt>
      <trkpt lat="49.75282" lon="2.17463">
        <ele>91.6</ele>
        <time>2022-05-11T13:48:44Z</time>
      </trkpt>
      <trkpt lat="49.75283" lon="2.17464">
        <ele>91.6</ele>
        <time>2022-05-11T13:48:45Z</time>
      </trkpt>
      <trkpt lat="49.75285" lon="2.17466">
        <ele>91.7</ele>
        <time>2022-05-11T13:48:46Z</time>
      </trkpt>
      <trkpt lat="49.75286" lon="2.17468">
        <ele>91.8</ele>
        <time>2022-05-11T13:48:48Z</time>
      </trkpt>
      <trkpt lat="49.75286" lon="2.17469">
        <ele>91.8</ele>
        <time>2022-05-11T13:48:49Z</time>
      </trkpt>
      <trkpt lat="49.75287" lon="2.1747">
        <ele>91.8</ele>
        <time>2022-05-11T13:48:50Z</time>
      </trkpt>
      <trkpt lat="49.75288" lon="2.17471">
        <ele>91.9</ele>
        <time>2022-05-11T13:48:51Z</time>
      </trkpt>
      <trkpt lat="49.7529" lon="2.17473">
        <ele>92</ele>
        <time>2022-05-11T13:48:52Z</time>
      </trkpt>
      <trkpt lat="49.7529" lon="2.17474">
        <ele>92</ele>
        <time>2022-05-11T13:48:53Z</time>
      </trkpt>
      <trkpt lat="49.75291" lon="2.17475">
        <ele>92</ele>
        <time>2022-05-11T13:48:54Z</time>
      </trkpt>
      <trkpt lat="49.75292" lon="2.17477">
        <ele>92.1</ele>
        <time>2022-05-11T13:48:55Z</time>
      </trkpt>
      <trkpt lat="49.75293" lon="2.17478">
        <ele>92.1</ele>
        <time>2022-05-11T13:48:56Z</time>
      </trkpt>
      <trkpt lat="49.75293" lon="2.17479">
        <ele>92.1</ele>
        <time>2022-05-11T13:48:57Z</time>
      </trkpt>
      <trkpt lat="49.75294" lon="2.1748">
        <ele>92.2</ele>
        <time>2022-05-11T13:48:58Z</time>
      </trkpt>
      <trkpt lat="49.75295" lon="2.17481">
        <ele>92.2</ele>
        <time>2022-05-11T13:48:59Z</time>
      </trkpt>
      <trkpt lat="49.75296" lon="2.17482">
        <ele>92.2</ele>
        <time>2022-05-11T13:49:00Z</time>
      </trkpt>
      <trkpt lat="49.75296" lon="2.17483">
        <ele>92.3</ele>
        <time>2022-05-11T13:49:01Z</time>
      </trkpt>
      <trkpt lat="49.75296" lon="2.17483">
        <ele>92.3</ele>
        <time>2022-05-11T13:49:02Z</time>
      </trkpt>
      <trkpt lat="49.75296" lon="2.17483">
        <ele>92.3</ele>
        <time>2022-05-11T13:49:04Z</time>
      </trkpt>
      <trkpt lat="49.75297" lon="2.17484">
        <ele>92.3</ele>
        <time>2022-05-11T13:49:05Z</time>
      </trkpt>
      <trkpt lat="49.75297" lon="2.17485">
        <ele>92.4</ele>
        <time>2022-05-11T13:49:06Z</time>
      </trkpt>
      <trkpt lat="49.75298" lon="2.17486">
        <ele>92.4</ele>
        <time>2022-05-11T13:49:07Z</time>
      </trkpt>
      <trkpt lat="49.75299" lon="2.17487">
        <ele>92.4</ele>
        <time>2022-05-11T13:49:08Z</time>
      </trkpt>
      <trkpt lat="49.753" lon="2.17488">
        <ele>92.5</ele>
        <time>2022-05-11T13:49:09Z</time>
      </trkpt>
      <trkpt lat="49.75301" lon="2.1749">
        <ele>92.5</ele>
        <time>2022-05-11T13:49:11Z</time>
      </trkpt>
      <trkpt lat="49.75303" lon="2.17492">
        <ele>92.6</ele>
        <time>2022-05-11T13:49:12Z</time>
      </trkpt>
      <trkpt lat="49.75303" lon="2.17493">
        <ele>92.6</ele>
        <time>2022-05-11T13:49:13Z</time>
      </trkpt>
      <trkpt lat="49.75304" lon="2.17494">
        <ele>92.6</ele>
        <time>2022-05-11T13:49:14Z</time>
      </trkpt>
      <trkpt lat="49.75305" lon="2.17495">
        <ele>92.7</ele>
        <time>2022-05-11T13:49:15Z</time>
      </trkpt>
      <trkpt lat="49.75306" lon="2.17496">
        <ele>92.7</ele>
        <time>2022-05-11T13:49:16Z</time>
      </trkpt>
      <trkpt lat="49.75307" lon="2.17499">
        <ele>92.8</ele>
        <time>2022-05-11T13:49:18Z</time>
      </trkpt>
      <trkpt lat="49.75308" lon="2.175">
        <ele>92.9</ele>
        <time>2022-05-11T13:49:19Z</time>
      </trkpt>
      <trkpt lat="49.75309" lon="2.17501">
        <ele>92.9</ele>
        <time>2022-05-11T13:49:20Z</time>
      </trkpt>
      <trkpt lat="49.7531" lon="2.17502">
        <ele>92.9</ele>
        <time>2022-05-11T13:49:21Z</time>
      </trkpt>
      <trkpt lat="49.75311" lon="2.17504">
        <ele>93</ele>
        <time>2022-05-11T13:49:22Z</time>
      </trkpt>
      <trkpt lat="49.75311" lon="2.17505">
        <ele>93</ele>
        <time>2022-05-11T13:49:23Z</time>
      </trkpt>
      <trkpt lat="49.75312" lon="2.17506">
        <ele>93.1</ele>
        <time>2022-05-11T13:49:24Z</time>
      </trkpt>
      <trkpt lat="49.75312" lon="2.17507">
        <ele>93.1</ele>
        <time>2022-05-11T13:49:25Z</time>
      </trkpt>
      <trkpt lat="49.75314" lon="2.17509">
        <ele>93.2</ele>
        <time>2022-05-11T13:49:27Z</time>
      </trkpt>
      <trkpt lat="49.75315" lon="2.1751">
        <ele>93.2</ele>
        <time>2022-05-11T13:49:28Z</time>
      </trkpt>
      <trkpt lat="49.75316" lon="2.17511">
        <ele>93.3</ele>
        <time>2022-05-11T13:49:29Z</time>
      </trkpt>
      <trkpt lat="49.75317" lon="2.17512">
        <ele>93.3</ele>
        <time>2022-05-11T13:49:31Z</time>
      </trkpt>
      <trkpt lat="49.75318" lon="2.17513">
        <ele>93.4</ele>
        <time>2022-05-11T13:49:32Z</time>
      </trkpt>
      <trkpt lat="49.75319" lon="2.17514">
        <ele>93.4</ele>
        <time>2022-05-11T13:49:33Z</time>
      </trkpt>
      <trkpt lat="49.7532" lon="2.17515">
        <ele>93.4</ele>
        <time>2022-05-11T13:49:34Z</time>
      </trkpt>
      <trkpt lat="49.75321" lon="2.17517">
        <ele>93.5</ele>
        <time>2022-05-11T13:49:35Z</time>
      </trkpt>
      <trkpt lat="49.75322" lon="2.17517">
        <ele>93.5</ele>
        <time>2022-05-11T13:49:36Z</time>
      </trkpt>
      <trkpt lat="49.75323" lon="2.17518">
        <ele>93.6</ele>
        <time>2022-05-11T13:49:38Z</time>
      </trkpt>
      <trkpt lat="49.75323" lon="2.17519">
        <ele>93.6</ele>
        <time>2022-05-11T13:49:39Z</time>
      </trkpt>
      <trkpt lat="49.75325" lon="2.17521">
        <ele>93.7</ele>
        <time>2022-05-11T13:49:40Z</time>
      </trkpt>
      <trkpt lat="49.75325" lon="2.17522">
        <ele>93.7</ele>
        <time>2022-05-11T13:49:41Z</time>
      </trkpt>
      <trkpt lat="49.75326" lon="2.17523">
        <ele>93.8</ele>
        <time>2022-05-11T13:49:42Z</time>
      </trkpt>
      <trkpt lat="49.75327" lon="2.17524">
        <ele>93.8</ele>
        <time>2022-05-11T13:49:44Z</time>
      </trkpt>
      <trkpt lat="49.75328" lon="2.17526">
        <ele>93.9</ele>
        <time>2022-05-11T13:49:46Z</time>
      </trkpt>
      <trkpt lat="49.75329" lon="2.17527">
        <ele>93.9</ele>
        <time>2022-05-11T13:49:47Z</time>
      </trkpt>
      <trkpt lat="49.7533" lon="2.17528">
        <ele>93.9</ele>
        <time>2022-05-11T13:49:48Z</time>
      </trkpt>
      <trkpt lat="49.75332" lon="2.17529">
        <ele>94</ele>
        <time>2022-05-11T13:49:49Z</time>
      </trkpt>
      <trkpt lat="49.75333" lon="2.1753">
        <ele>94.1</ele>
        <time>2022-05-11T13:49:50Z</time>
      </trkpt>
      <trkpt lat="49.75334" lon="2.17531">
        <ele>94.1</ele>
        <time>2022-05-11T13:49:52Z</time>
      </trkpt>
      <trkpt lat="49.75335" lon="2.17532">
        <ele>94.2</ele>
        <time>2022-05-11T13:49:53Z</time>
      </trkpt>
      <trkpt lat="49.75336" lon="2.17533">
        <ele>94.2</ele>
        <time>2022-05-11T13:49:54Z</time>
      </trkpt>
      <trkpt lat="49.75336" lon="2.17534">
        <ele>94.2</ele>
        <time>2022-05-11T13:49:55Z</time>
      </trkpt>
      <trkpt lat="49.75337" lon="2.17535">
        <ele>94.3</ele>
        <time>2022-05-11T13:49:56Z</time>
      </trkpt>
      <trkpt lat="49.75339" lon="2.17537">
        <ele>94.4</ele>
        <time>2022-05-11T13:49:57Z</time>
      </trkpt>
      <trkpt lat="49.7534" lon="2.17539">
        <ele>94.4</ele>
        <time>2022-05-11T13:49:59Z</time>
      </trkpt>
      <trkpt lat="49.75341" lon="2.1754">
        <ele>94.5</ele>
        <time>2022-05-11T13:50:00Z</time>
      </trkpt>
      <trkpt lat="49.75342" lon="2.17542">
        <ele>94.6</ele>
        <time>2022-05-11T13:50:01Z</time>
      </trkpt>
      <trkpt lat="49.75343" lon="2.17543">
        <ele>94.6</ele>
        <time>2022-05-11T13:50:02Z</time>
      </trkpt>
      <trkpt lat="49.75343" lon="2.17544">
        <ele>94.6</ele>
        <time>2022-05-11T13:50:03Z</time>
      </trkpt>
      <trkpt lat="49.75344" lon="2.17545">
        <ele>94.7</ele>
        <time>2022-05-11T13:50:04Z</time>
      </trkpt>
      <trkpt lat="49.75345" lon="2.17546">
        <ele>94.7</ele>
        <time>2022-05-11T13:50:05Z</time>
      </trkpt>
      <trkpt lat="49.75346" lon="2.17547">
        <ele>94.7</ele>
        <time>2022-05-11T13:50:06Z</time>
      </trkpt>
      <trkpt lat="49.75347" lon="2.17548">
        <ele>94.8</ele>
        <time>2022-05-11T13:50:07Z</time>
      </trkpt>
      <trkpt lat="49.75347" lon="2.17548">
        <ele>94.8</ele>
        <time>2022-05-11T13:50:08Z</time>
      </trkpt>
      <trkpt lat="49.75347" lon="2.17548">
        <ele>94.8</ele>
        <time>2022-05-11T13:50:09Z</time>
      </trkpt>
      <trkpt lat="49.75347" lon="2.17549">
        <ele>94.8</ele>
        <time>2022-05-11T13:50:10Z</time>
      </trkpt>
      <trkpt lat="49.75348" lon="2.17549">
        <ele>94.9</ele>
        <time>2022-05-11T13:50:11Z</time>
      </trkpt>
      <trkpt lat="49.75348" lon="2.1755">
        <ele>94.9</ele>
        <time>2022-05-11T13:50:12Z</time>
      </trkpt>
      <trkpt lat="49.7535" lon="2.17552">
        <ele>95</ele>
        <time>2022-05-11T13:50:13Z</time>
      </trkpt>
      <trkpt lat="49.75351" lon="2.17553">
        <ele>95</ele>
        <time>2022-05-11T13:50:14Z</time>
      </trkpt>
      <trkpt lat="49.75351" lon="2.17554">
        <ele>95</ele>
        <time>2022-05-11T13:50:15Z</time>
      </trkpt>
      <trkpt lat="49.75352" lon="2.17555">
        <ele>95.1</ele>
        <time>2022-05-11T13:50:16Z</time>
      </trkpt>
      <trkpt lat="49.75353" lon="2.17557">
        <ele>95.1</ele>
        <time>2022-05-11T13:50:17Z</time>
      </trkpt>
      <trkpt lat="49.75354" lon="2.17558">
        <ele>95.2</ele>
        <time>2022-05-11T13:50:19Z</time>
      </trkpt>
      <trkpt lat="49.75355" lon="2.17559">
        <ele>95.2</ele>
        <time>2022-05-11T13:50:20Z</time>
      </trkpt>
      <trkpt lat="49.75355" lon="2.1756">
        <ele>95.3</ele>
        <time>2022-05-11T13:50:21Z</time>
      </trkpt>
      <trkpt lat="49.75356" lon="2.17561">
        <ele>95.3</ele>
        <time>2022-05-11T13:50:22Z</time>
      </trkpt>
      <trkpt lat="49.75358" lon="2.17563">
        <ele>95.4</ele>
        <time>2022-05-11T13:50:23Z</time>
      </trkpt>
      <trkpt lat="49.75358" lon="2.17564">
        <ele>95.4</ele>
        <time>2022-05-11T13:50:24Z</time>
      </trkpt>
      <trkpt lat="49.75359" lon="2.17564">
        <ele>95.5</ele>
        <time>2022-05-11T13:50:25Z</time>
      </trkpt>
      <trkpt lat="49.7536" lon="2.17566">
        <ele>95.5</ele>
        <time>2022-05-11T13:50:27Z</time>
      </trkpt>
      <trkpt lat="49.75361" lon="2.17568">
        <ele>95.6</ele>
        <time>2022-05-11T13:50:28Z</time>
      </trkpt>
      <trkpt lat="49.75362" lon="2.17569">
        <ele>95.6</ele>
        <time>2022-05-11T13:50:29Z</time>
      </trkpt>
      <trkpt lat="49.75363" lon="2.17571">
        <ele>95.7</ele>
        <time>2022-05-11T13:50:30Z</time>
      </trkpt>
      <trkpt lat="49.75364" lon="2.17572">
        <ele>95.8</ele>
        <time>2022-05-11T13:50:31Z</time>
      </trkpt>
      <trkpt lat="49.75364" lon="2.17574">
        <ele>95.8</ele>
        <time>2022-05-11T13:50:32Z</time>
      </trkpt>
      <trkpt lat="49.75363" lon="2.17575">
        <ele>95.8</ele>
        <time>2022-05-11T13:50:33Z</time>
      </trkpt>
      <trkpt lat="49.75364" lon="2.17577">
        <ele>95.9</ele>
        <time>2022-05-11T13:50:35Z</time>
      </trkpt>
      <trkpt lat="49.75365" lon="2.1758">
        <ele>96</ele>
        <time>2022-05-11T13:50:36Z</time>
      </trkpt>
      <trkpt lat="49.75365" lon="2.17581">
        <ele>96</ele>
        <time>2022-05-11T13:50:37Z</time>
      </trkpt>
      <trkpt lat="49.75366" lon="2.17582">
        <ele>96.1</ele>
        <time>2022-05-11T13:50:38Z</time>
      </trkpt>
      <trkpt lat="49.75367" lon="2.17583">
        <ele>96.1</ele>
        <time>2022-05-11T13:50:39Z</time>
      </trkpt>
      <trkpt lat="49.75367" lon="2.17584">
        <ele>96.2</ele>
        <time>2022-05-11T13:50:40Z</time>
      </trkpt>
      <trkpt lat="49.75368" lon="2.17586">
        <ele>96.2</ele>
        <time>2022-05-11T13:50:42Z</time>
      </trkpt>
      <trkpt lat="49.75369" lon="2.17587">
        <ele>96.3</ele>
        <time>2022-05-11T13:50:43Z</time>
      </trkpt>
      <trkpt lat="49.7537" lon="2.17588">
        <ele>96.3</ele>
        <time>2022-05-11T13:50:44Z</time>
      </trkpt>
      <trkpt lat="49.7537" lon="2.17589">
        <ele>96.3</ele>
        <time>2022-05-11T13:50:45Z</time>
      </trkpt>
      <trkpt lat="49.75371" lon="2.1759">
        <ele>96.4</ele>
        <time>2022-05-11T13:50:46Z</time>
      </trkpt>
      <trkpt lat="49.75371" lon="2.17591">
        <ele>96.4</ele>
        <time>2022-05-11T13:50:47Z</time>
      </trkpt>
      <trkpt lat="49.75372" lon="2.17592">
        <ele>96.5</ele>
        <time>2022-05-11T13:50:49Z</time>
      </trkpt>
      <trkpt lat="49.75373" lon="2.17593">
        <ele>96.5</ele>
        <time>2022-05-11T13:50:50Z</time>
      </trkpt>
      <trkpt lat="49.75374" lon="2.17594">
        <ele>96.6</ele>
        <time>2022-05-11T13:50:51Z</time>
      </trkpt>
      <trkpt lat="49.75375" lon="2.17596">
        <ele>96.7</ele>
        <time>2022-05-11T13:50:52Z</time>
      </trkpt>
      <trkpt lat="49.75376" lon="2.17598">
        <ele>96.8</ele>
        <time>2022-05-11T13:50:53Z</time>
      </trkpt>
      <trkpt lat="49.75377" lon="2.17599">
        <ele>96.8</ele>
        <time>2022-05-11T13:50:54Z</time>
      </trkpt>
      <trkpt lat="49.75378" lon="2.176">
        <ele>96.9</ele>
        <time>2022-05-11T13:50:55Z</time>
      </trkpt>
      <trkpt lat="49.75379" lon="2.17601">
        <ele>96.9</ele>
        <time>2022-05-11T13:50:56Z</time>
      </trkpt>
      <trkpt lat="49.75379" lon="2.17602">
        <ele>97</ele>
        <time>2022-05-11T13:50:58Z</time>
      </trkpt>
      <trkpt lat="49.7538" lon="2.17603">
        <ele>97</ele>
        <time>2022-05-11T13:50:59Z</time>
      </trkpt>
      <trkpt lat="49.75381" lon="2.17604">
        <ele>97.1</ele>
        <time>2022-05-11T13:51:00Z</time>
      </trkpt>
      <trkpt lat="49.75382" lon="2.17605">
        <ele>97.1</ele>
        <time>2022-05-11T13:51:01Z</time>
      </trkpt>
      <trkpt lat="49.75382" lon="2.17606">
        <ele>97.2</ele>
        <time>2022-05-11T13:51:02Z</time>
      </trkpt>
      <trkpt lat="49.75383" lon="2.17609">
        <ele>97.3</ele>
        <time>2022-05-11T13:51:04Z</time>
      </trkpt>
      <trkpt lat="49.75384" lon="2.1761">
        <ele>97.3</ele>
        <time>2022-05-11T13:51:05Z</time>
      </trkpt>
      <trkpt lat="49.75384" lon="2.17611">
        <ele>97.4</ele>
        <time>2022-05-11T13:51:06Z</time>
      </trkpt>
      <trkpt lat="49.75386" lon="2.17613">
        <ele>97.5</ele>
        <time>2022-05-11T13:51:08Z</time>
      </trkpt>
      <trkpt lat="49.75387" lon="2.17615">
        <ele>97.6</ele>
        <time>2022-05-11T13:51:09Z</time>
      </trkpt>
      <trkpt lat="49.75389" lon="2.17616">
        <ele>97.7</ele>
        <time>2022-05-11T13:51:11Z</time>
      </trkpt>
      <trkpt lat="49.7539" lon="2.17617">
        <ele>97.7</ele>
        <time>2022-05-11T13:51:12Z</time>
      </trkpt>
      <trkpt lat="49.75391" lon="2.17617">
        <ele>97.8</ele>
        <time>2022-05-11T13:51:13Z</time>
      </trkpt>
      <trkpt lat="49.7539" lon="2.17616">
        <ele>97.9</ele>
        <time>2022-05-11T13:51:15Z</time>
      </trkpt>
      <trkpt lat="49.7539" lon="2.17616">
        <ele>97.9</ele>
        <time>2022-05-11T13:51:16Z</time>
      </trkpt>
      <trkpt lat="49.7539" lon="2.17617">
        <ele>98</ele>
        <time>2022-05-11T13:51:17Z</time>
      </trkpt>
      <trkpt lat="49.75391" lon="2.17619">
        <ele>98</ele>
        <time>2022-05-11T13:51:19Z</time>
      </trkpt>
      <trkpt lat="49.75391" lon="2.17621">
        <ele>98.1</ele>
        <time>2022-05-11T13:51:20Z</time>
      </trkpt>
      <trkpt lat="49.75392" lon="2.17623">
        <ele>98.2</ele>
        <time>2022-05-11T13:51:21Z</time>
      </trkpt>
      <trkpt lat="49.75393" lon="2.17624">
        <ele>98.3</ele>
        <time>2022-05-11T13:51:22Z</time>
      </trkpt>
      <trkpt lat="49.75394" lon="2.17625">
        <ele>98.3</ele>
        <time>2022-05-11T13:51:23Z</time>
      </trkpt>
      <trkpt lat="49.75395" lon="2.17628">
        <ele>98.3</ele>
        <time>2022-05-11T13:51:24Z</time>
      </trkpt>
      <trkpt lat="49.75395" lon="2.17629">
        <ele>98.3</ele>
        <time>2022-05-11T13:51:26Z</time>
      </trkpt>
      <trkpt lat="49.75395" lon="2.1763">
        <ele>98.3</ele>
        <time>2022-05-11T13:51:27Z</time>
      </trkpt>
      <trkpt lat="49.75395" lon="2.17632">
        <ele>98.3</ele>
        <time>2022-05-11T13:51:29Z</time>
      </trkpt>
      <trkpt lat="49.75394" lon="2.17631">
        <ele>98.3</ele>
        <time>2022-05-11T13:51:30Z</time>
      </trkpt>
      <trkpt lat="49.75393" lon="2.17632">
        <ele>98.3</ele>
        <time>2022-05-11T13:51:31Z</time>
      </trkpt>
      <trkpt lat="49.75393" lon="2.17633">
        <ele>98.3</ele>
        <time>2022-05-11T13:51:32Z</time>
      </trkpt>
      <trkpt lat="49.75393" lon="2.17633">
        <ele>98.3</ele>
        <time>2022-05-11T13:51:33Z</time>
      </trkpt>
      <trkpt lat="49.75393" lon="2.17634">
        <ele>98.3</ele>
        <time>2022-05-11T13:51:34Z</time>
      </trkpt>
      <trkpt lat="49.75393" lon="2.17634">
        <ele>98.3</ele>
        <time>2022-05-11T13:51:35Z</time>
      </trkpt>
      <trkpt lat="49.75393" lon="2.17635">
        <ele>98.3</ele>
        <time>2022-05-11T13:51:36Z</time>
      </trkpt>
      <trkpt lat="49.75394" lon="2.17634">
        <ele>98.3</ele>
        <time>2022-05-11T13:51:37Z</time>
      </trkpt>
      <trkpt lat="49.75394" lon="2.17634">
        <ele>98.3</ele>
        <time>2022-05-11T13:51:38Z</time>
      </trkpt>
      <trkpt lat="49.75394" lon="2.17633">
        <ele>98.3</ele>
        <time>2022-05-11T13:51:39Z</time>
      </trkpt>
      <trkpt lat="49.75394" lon="2.17633">
        <ele>98.3</ele>
        <time>2022-05-11T13:51:40Z</time>
      </trkpt>
      <trkpt lat="49.75394" lon="2.17632">
        <ele>98.3</ele>
        <time>2022-05-11T13:51:41Z</time>
      </trkpt>
      <trkpt lat="49.75393" lon="2.17632">
        <ele>98.3</ele>
        <time>2022-05-11T13:51:42Z</time>
      </trkpt>
      <trkpt lat="49.75393" lon="2.17631">
        <ele>98.4</ele>
        <time>2022-05-11T13:51:43Z</time>
      </trkpt>
      <trkpt lat="49.75393" lon="2.17631">
        <ele>98.4</ele>
        <time>2022-05-11T13:51:44Z</time>
      </trkpt>
      <trkpt lat="49.75393" lon="2.1763">
        <ele>98.4</ele>
        <time>2022-05-11T13:51:45Z</time>
      </trkpt>
      <trkpt lat="49.75393" lon="2.17629">
        <ele>98.4</ele>
        <time>2022-05-11T13:51:46Z</time>
      </trkpt>
      <trkpt lat="49.75393" lon="2.17628">
        <ele>98.4</ele>
        <time>2022-05-11T13:51:47Z</time>
      </trkpt>
      <trkpt lat="49.75394" lon="2.17627">
        <ele>98.4</ele>
        <time>2022-05-11T13:51:48Z</time>
      </trkpt>
      <trkpt lat="49.75394" lon="2.17626">
        <ele>98.4</ele>
        <time>2022-05-11T13:51:50Z</time>
      </trkpt>
      <trkpt lat="49.75395" lon="2.17625">
        <ele>98.4</ele>
        <time>2022-05-11T13:51:51Z</time>
      </trkpt>
      <trkpt lat="49.75396" lon="2.17625">
        <ele>98.4</ele>
        <time>2022-05-11T13:51:52Z</time>
      </trkpt>
      <trkpt lat="49.75397" lon="2.17625">
        <ele>98.4</ele>
        <time>2022-05-11T13:51:53Z</time>
      </trkpt>
      <trkpt lat="49.75398" lon="2.17625">
        <ele>98.4</ele>
        <time>2022-05-11T13:51:54Z</time>
      </trkpt>
      <trkpt lat="49.75399" lon="2.17624">
        <ele>98.4</ele>
        <time>2022-05-11T13:51:55Z</time>
      </trkpt>
      <trkpt lat="49.754" lon="2.17622">
        <ele>98.4</ele>
        <time>2022-05-11T13:51:56Z</time>
      </trkpt>
      <trkpt lat="49.75401" lon="2.1762">
        <ele>98.4</ele>
        <time>2022-05-11T13:51:57Z</time>
      </trkpt>
      <trkpt lat="49.75402" lon="2.17619">
        <ele>98.4</ele>
        <time>2022-05-11T13:51:58Z</time>
      </trkpt>
      <trkpt lat="49.75406" lon="2.17614">
        <ele>98.4</ele>
        <time>2022-05-11T13:52:00Z</time>
      </trkpt>
      <trkpt lat="49.75407" lon="2.17612">
        <ele>98.4</ele>
        <time>2022-05-11T13:52:01Z</time>
      </trkpt>
      <trkpt lat="49.75408" lon="2.17611">
        <ele>98.5</ele>
        <time>2022-05-11T13:52:02Z</time>
      </trkpt>
      <trkpt lat="49.75408" lon="2.1761">
        <ele>98.5</ele>
        <time>2022-05-11T13:52:03Z</time>
      </trkpt>
      <trkpt lat="49.75409" lon="2.1761">
        <ele>98.5</ele>
        <time>2022-05-11T13:52:04Z</time>
      </trkpt>
      <trkpt lat="49.75409" lon="2.17609">
        <ele>98.5</ele>
        <time>2022-05-11T13:52:05Z</time>
      </trkpt>
      <trkpt lat="49.7541" lon="2.17608">
        <ele>98.5</ele>
        <time>2022-05-11T13:52:06Z</time>
      </trkpt>
      <trkpt lat="49.7541" lon="2.17608">
        <ele>98.5</ele>
        <time>2022-05-11T13:52:08Z</time>
      </trkpt>
      <trkpt lat="49.75411" lon="2.17609">
        <ele>98.5</ele>
        <time>2022-05-11T13:52:09Z</time>
      </trkpt>
      <trkpt lat="49.75413" lon="2.17607">
        <ele>98.5</ele>
        <time>2022-05-11T13:52:11Z</time>
      </trkpt>
      <trkpt lat="49.75414" lon="2.17606">
        <ele>98.5</ele>
        <time>2022-05-11T13:52:12Z</time>
      </trkpt>
      <trkpt lat="49.75415" lon="2.17604">
        <ele>98.5</ele>
        <time>2022-05-11T13:52:13Z</time>
      </trkpt>
      <trkpt lat="49.75415" lon="2.17603">
        <ele>98.5</ele>
        <time>2022-05-11T13:52:14Z</time>
      </trkpt>
      <trkpt lat="49.75416" lon="2.17602">
        <ele>98.5</ele>
        <time>2022-05-11T13:52:15Z</time>
      </trkpt>
      <trkpt lat="49.75417" lon="2.176">
        <ele>98.5</ele>
        <time>2022-05-11T13:52:16Z</time>
      </trkpt>
      <trkpt lat="49.75418" lon="2.17598">
        <ele>98.5</ele>
        <time>2022-05-11T13:52:18Z</time>
      </trkpt>
      <trkpt lat="49.75419" lon="2.17596">
        <ele>98.5</ele>
        <time>2022-05-11T13:52:19Z</time>
      </trkpt>
      <trkpt lat="49.7542" lon="2.17594">
        <ele>98.5</ele>
        <time>2022-05-11T13:52:20Z</time>
      </trkpt>
      <trkpt lat="49.7542" lon="2.17592">
        <ele>98.5</ele>
        <time>2022-05-11T13:52:21Z</time>
      </trkpt>
      <trkpt lat="49.75421" lon="2.17591">
        <ele>98.5</ele>
        <time>2022-05-11T13:52:22Z</time>
      </trkpt>
      <trkpt lat="49.75422" lon="2.17589">
        <ele>98.5</ele>
        <time>2022-05-11T13:52:23Z</time>
      </trkpt>
      <trkpt lat="49.75424" lon="2.17587">
        <ele>98.6</ele>
        <time>2022-05-11T13:52:24Z</time>
      </trkpt>
      <trkpt lat="49.75426" lon="2.17585">
        <ele>98.6</ele>
        <time>2022-05-11T13:52:26Z</time>
      </trkpt>
      <trkpt lat="49.75428" lon="2.17581">
        <ele>98.6</ele>
        <time>2022-05-11T13:52:27Z</time>
      </trkpt>
      <trkpt lat="49.75428" lon="2.1758">
        <ele>98.6</ele>
        <time>2022-05-11T13:52:28Z</time>
      </trkpt>
      <trkpt lat="49.7543" lon="2.17576">
        <ele>98.6</ele>
        <time>2022-05-11T13:52:29Z</time>
      </trkpt>
      <trkpt lat="49.7543" lon="2.17574">
        <ele>98.6</ele>
        <time>2022-05-11T13:52:30Z</time>
      </trkpt>
      <trkpt lat="49.75433" lon="2.1757">
        <ele>98.6</ele>
        <time>2022-05-11T13:52:32Z</time>
      </trkpt>
      <trkpt lat="49.75434" lon="2.17568">
        <ele>98.6</ele>
        <time>2022-05-11T13:52:33Z</time>
      </trkpt>
      <trkpt lat="49.75435" lon="2.17567">
        <ele>98.6</ele>
        <time>2022-05-11T13:52:34Z</time>
      </trkpt>
      <trkpt lat="49.75436" lon="2.17564">
        <ele>98.6</ele>
        <time>2022-05-11T13:52:35Z</time>
      </trkpt>
      <trkpt lat="49.75437" lon="2.17563">
        <ele>98.5</ele>
        <time>2022-05-11T13:52:36Z</time>
      </trkpt>
      <trkpt lat="49.75438" lon="2.17561">
        <ele>98.5</ele>
        <time>2022-05-11T13:52:38Z</time>
      </trkpt>
      <trkpt lat="49.75439" lon="2.17559">
        <ele>98.5</ele>
        <time>2022-05-11T13:52:39Z</time>
      </trkpt>
      <trkpt lat="49.7544" lon="2.17558">
        <ele>98.5</ele>
        <time>2022-05-11T13:52:40Z</time>
      </trkpt>
      <trkpt lat="49.75441" lon="2.17556">
        <ele>98.5</ele>
        <time>2022-05-11T13:52:41Z</time>
      </trkpt>
      <trkpt lat="49.75442" lon="2.17554">
        <ele>98.5</ele>
        <time>2022-05-11T13:52:42Z</time>
      </trkpt>
      <trkpt lat="49.75443" lon="2.17553">
        <ele>98.5</ele>
        <time>2022-05-11T13:52:43Z</time>
      </trkpt>
      <trkpt lat="49.75444" lon="2.17551">
        <ele>98.5</ele>
        <time>2022-05-11T13:52:44Z</time>
      </trkpt>
      <trkpt lat="49.75445" lon="2.17549">
        <ele>98.5</ele>
        <time>2022-05-11T13:52:45Z</time>
      </trkpt>
      <trkpt lat="49.75445" lon="2.17548">
        <ele>98.5</ele>
        <time>2022-05-11T13:52:46Z</time>
      </trkpt>
      <trkpt lat="49.75446" lon="2.17545">
        <ele>98.5</ele>
        <time>2022-05-11T13:52:47Z</time>
      </trkpt>
      <trkpt lat="49.75448" lon="2.17542">
        <ele>98.5</ele>
        <time>2022-05-11T13:52:48Z</time>
      </trkpt>
      <trkpt lat="49.75449" lon="2.1754">
        <ele>98.5</ele>
        <time>2022-05-11T13:52:50Z</time>
      </trkpt>
      <trkpt lat="49.75449" lon="2.17538">
        <ele>98.5</ele>
        <time>2022-05-11T13:52:51Z</time>
      </trkpt>
      <trkpt lat="49.7545" lon="2.17537">
        <ele>98.5</ele>
        <time>2022-05-11T13:52:52Z</time>
      </trkpt>
      <trkpt lat="49.75451" lon="2.17535">
        <ele>98.5</ele>
        <time>2022-05-11T13:52:53Z</time>
      </trkpt>
      <trkpt lat="49.75452" lon="2.17533">
        <ele>98.5</ele>
        <time>2022-05-11T13:52:54Z</time>
      </trkpt>
      <trkpt lat="49.75453" lon="2.17531">
        <ele>98.5</ele>
        <time>2022-05-11T13:52:55Z</time>
      </trkpt>
      <trkpt lat="49.75454" lon="2.1753">
        <ele>98.5</ele>
        <time>2022-05-11T13:52:56Z</time>
      </trkpt>
      <trkpt lat="49.75454" lon="2.17529">
        <ele>98.5</ele>
        <time>2022-05-11T13:52:57Z</time>
      </trkpt>
      <trkpt lat="49.75454" lon="2.17528">
        <ele>98.5</ele>
        <time>2022-05-11T13:52:58Z</time>
      </trkpt>
      <trkpt lat="49.75455" lon="2.17527">
        <ele>98.4</ele>
        <time>2022-05-11T13:53:00Z</time>
      </trkpt>
      <trkpt lat="49.75456" lon="2.17526">
        <ele>98.4</ele>
        <time>2022-05-11T13:53:01Z</time>
      </trkpt>
      <trkpt lat="49.75456" lon="2.17524">
        <ele>98.4</ele>
        <time>2022-05-11T13:53:02Z</time>
      </trkpt>
      <trkpt lat="49.75457" lon="2.17523">
        <ele>98.4</ele>
        <time>2022-05-11T13:53:03Z</time>
      </trkpt>
      <trkpt lat="49.75458" lon="2.17521">
        <ele>98.4</ele>
        <time>2022-05-11T13:53:04Z</time>
      </trkpt>
      <trkpt lat="49.75458" lon="2.1752">
        <ele>98.4</ele>
        <time>2022-05-11T13:53:05Z</time>
      </trkpt>
      <trkpt lat="49.75458" lon="2.17519">
        <ele>98.4</ele>
        <time>2022-05-11T13:53:06Z</time>
      </trkpt>
      <trkpt lat="49.75459" lon="2.17518">
        <ele>98.4</ele>
        <time>2022-05-11T13:53:07Z</time>
      </trkpt>
      <trkpt lat="49.75458" lon="2.17517">
        <ele>98.4</ele>
        <time>2022-05-11T13:53:08Z</time>
      </trkpt>
      <trkpt lat="49.75459" lon="2.17514">
        <ele>98.4</ele>
        <time>2022-05-11T13:53:10Z</time>
      </trkpt>
      <trkpt lat="49.7546" lon="2.17513">
        <ele>98.4</ele>
        <time>2022-05-11T13:53:11Z</time>
      </trkpt>
      <trkpt lat="49.7546" lon="2.17511">
        <ele>98.4</ele>
        <time>2022-05-11T13:53:12Z</time>
      </trkpt>
      <trkpt lat="49.75461" lon="2.17507">
        <ele>98.4</ele>
        <time>2022-05-11T13:53:13Z</time>
      </trkpt>
      <trkpt lat="49.75461" lon="2.17506">
        <ele>98.3</ele>
        <time>2022-05-11T13:53:14Z</time>
      </trkpt>
      <trkpt lat="49.75462" lon="2.17505">
        <ele>98.3</ele>
        <time>2022-05-11T13:53:15Z</time>
      </trkpt>
      <trkpt lat="49.75462" lon="2.17504">
        <ele>98.3</ele>
        <time>2022-05-11T13:53:16Z</time>
      </trkpt>
      <trkpt lat="49.75463" lon="2.17502">
        <ele>98.3</ele>
        <time>2022-05-11T13:53:17Z</time>
      </trkpt>
      <trkpt lat="49.75463" lon="2.17501">
        <ele>98.3</ele>
        <time>2022-05-11T13:53:19Z</time>
      </trkpt>
      <trkpt lat="49.75464" lon="2.17499">
        <ele>98.3</ele>
        <time>2022-05-11T13:53:20Z</time>
      </trkpt>
      <trkpt lat="49.75464" lon="2.17497">
        <ele>98.3</ele>
        <time>2022-05-11T13:53:21Z</time>
      </trkpt>
      <trkpt lat="49.75464" lon="2.17496">
        <ele>98.3</ele>
        <time>2022-05-11T13:53:22Z</time>
      </trkpt>
      <trkpt lat="49.75465" lon="2.17494">
        <ele>98.3</ele>
        <time>2022-05-11T13:53:23Z</time>
      </trkpt>
      <trkpt lat="49.75466" lon="2.17493">
        <ele>98.2</ele>
        <time>2022-05-11T13:53:24Z</time>
      </trkpt>
      <trkpt lat="49.75466" lon="2.17492">
        <ele>98.2</ele>
        <time>2022-05-11T13:53:25Z</time>
      </trkpt>
      <trkpt lat="49.75467" lon="2.1749">
        <ele>98.2</ele>
        <time>2022-05-11T13:53:26Z</time>
      </trkpt>
      <trkpt lat="49.75468" lon="2.17488">
        <ele>98.2</ele>
        <time>2022-05-11T13:53:28Z</time>
      </trkpt>
      <trkpt lat="49.75469" lon="2.17485">
        <ele>98.2</ele>
        <time>2022-05-11T13:53:29Z</time>
      </trkpt>
      <trkpt lat="49.75469" lon="2.17483">
        <ele>98.1</ele>
        <time>2022-05-11T13:53:30Z</time>
      </trkpt>
      <trkpt lat="49.75469" lon="2.17481">
        <ele>98.1</ele>
        <time>2022-05-11T13:53:31Z</time>
      </trkpt>
      <trkpt lat="49.7547" lon="2.17479">
        <ele>98.1</ele>
        <time>2022-05-11T13:53:32Z</time>
      </trkpt>
      <trkpt lat="49.75471" lon="2.17478">
        <ele>98.1</ele>
        <time>2022-05-11T13:53:33Z</time>
      </trkpt>
      <trkpt lat="49.75471" lon="2.17476">
        <ele>98</ele>
        <time>2022-05-11T13:53:34Z</time>
      </trkpt>
      <trkpt lat="49.75472" lon="2.17475">
        <ele>98</ele>
        <time>2022-05-11T13:53:35Z</time>
      </trkpt>
      <trkpt lat="49.75473" lon="2.17474">
        <ele>98</ele>
        <time>2022-05-11T13:53:36Z</time>
      </trkpt>
      <trkpt lat="49.75473" lon="2.17473">
        <ele>98</ele>
        <time>2022-05-11T13:53:38Z</time>
      </trkpt>
      <trkpt lat="49.75474" lon="2.17472">
        <ele>98</ele>
        <time>2022-05-11T13:53:39Z</time>
      </trkpt>
      <trkpt lat="49.75475" lon="2.1747">
        <ele>97.9</ele>
        <time>2022-05-11T13:53:40Z</time>
      </trkpt>
      <trkpt lat="49.75475" lon="2.1747">
        <ele>97.9</ele>
        <time>2022-05-11T13:53:41Z</time>
      </trkpt>
      <trkpt lat="49.75476" lon="2.17469">
        <ele>97.9</ele>
        <time>2022-05-11T13:53:42Z</time>
      </trkpt>
      <trkpt lat="49.75476" lon="2.17469">
        <ele>97.9</ele>
        <time>2022-05-11T13:53:43Z</time>
      </trkpt>
      <trkpt lat="49.75477" lon="2.17468">
        <ele>97.9</ele>
        <time>2022-05-11T13:53:44Z</time>
      </trkpt>
      <trkpt lat="49.75478" lon="2.17468">
        <ele>97.9</ele>
        <time>2022-05-11T13:53:45Z</time>
      </trkpt>
      <trkpt lat="49.75479" lon="2.17466">
        <ele>97.8</ele>
        <time>2022-05-11T13:53:47Z</time>
      </trkpt>
      <trkpt lat="49.7548" lon="2.17465">
        <ele>97.8</ele>
        <time>2022-05-11T13:53:48Z</time>
      </trkpt>
      <trkpt lat="49.75482" lon="2.17465">
        <ele>97.8</ele>
        <time>2022-05-11T13:53:49Z</time>
      </trkpt>
      <trkpt lat="49.75484" lon="2.17465">
        <ele>97.7</ele>
        <time>2022-05-11T13:53:50Z</time>
      </trkpt>
      <trkpt lat="49.75485" lon="2.17465">
        <ele>97.7</ele>
        <time>2022-05-11T13:53:51Z</time>
      </trkpt>
      <trkpt lat="49.75487" lon="2.17465">
        <ele>97.6</ele>
        <time>2022-05-11T13:53:52Z</time>
      </trkpt>
      <trkpt lat="49.75489" lon="2.17465">
        <ele>97.6</ele>
        <time>2022-05-11T13:53:54Z</time>
      </trkpt>
      <trkpt lat="49.7549" lon="2.17465">
        <ele>97.6</ele>
        <time>2022-05-11T13:53:55Z</time>
      </trkpt>
      <trkpt lat="49.75491" lon="2.17465">
        <ele>97.6</ele>
        <time>2022-05-11T13:53:56Z</time>
      </trkpt>
      <trkpt lat="49.75492" lon="2.17464">
        <ele>97.5</ele>
        <time>2022-05-11T13:53:57Z</time>
      </trkpt>
      <trkpt lat="49.75493" lon="2.17465">
        <ele>97.5</ele>
        <time>2022-05-11T13:53:58Z</time>
      </trkpt>
      <trkpt lat="49.75495" lon="2.17465">
        <ele>97.5</ele>
        <time>2022-05-11T13:54:00Z</time>
      </trkpt>
      <trkpt lat="49.75497" lon="2.17464">
        <ele>97.4</ele>
        <time>2022-05-11T13:54:01Z</time>
      </trkpt>
      <trkpt lat="49.75498" lon="2.17463">
        <ele>97.4</ele>
        <time>2022-05-11T13:54:02Z</time>
      </trkpt>
      <trkpt lat="49.75499" lon="2.17463">
        <ele>97.4</ele>
        <time>2022-05-11T13:54:03Z</time>
      </trkpt>
      <trkpt lat="49.75501" lon="2.17462">
        <ele>97.4</ele>
        <time>2022-05-11T13:54:04Z</time>
      </trkpt>
      <trkpt lat="49.75503" lon="2.17462">
        <ele>97.3</ele>
        <time>2022-05-11T13:54:05Z</time>
      </trkpt>
      <trkpt lat="49.75505" lon="2.17462">
        <ele>97.3</ele>
        <time>2022-05-11T13:54:07Z</time>
      </trkpt>
      <trkpt lat="49.75508" lon="2.17461">
        <ele>97.2</ele>
        <time>2022-05-11T13:54:08Z</time>
      </trkpt>
      <trkpt lat="49.75509" lon="2.17461">
        <ele>97.2</ele>
        <time>2022-05-11T13:54:09Z</time>
      </trkpt>
      <trkpt lat="49.75512" lon="2.17461">
        <ele>97.2</ele>
        <time>2022-05-11T13:54:10Z</time>
      </trkpt>
      <trkpt lat="49.75513" lon="2.17461">
        <ele>97.1</ele>
        <time>2022-05-11T13:54:11Z</time>
      </trkpt>
      <trkpt lat="49.75514" lon="2.17461">
        <ele>97.1</ele>
        <time>2022-05-11T13:54:12Z</time>
      </trkpt>
      <trkpt lat="49.75516" lon="2.17461">
        <ele>97.1</ele>
        <time>2022-05-11T13:54:13Z</time>
      </trkpt>
      <trkpt lat="49.75517" lon="2.17461">
        <ele>97.1</ele>
        <time>2022-05-11T13:54:14Z</time>
      </trkpt>
      <trkpt lat="49.75518" lon="2.1746">
        <ele>97</ele>
        <time>2022-05-11T13:54:15Z</time>
      </trkpt>
      <trkpt lat="49.7552" lon="2.1746">
        <ele>97</ele>
        <time>2022-05-11T13:54:16Z</time>
      </trkpt>
      <trkpt lat="49.75522" lon="2.1746">
        <ele>97</ele>
        <time>2022-05-11T13:54:17Z</time>
      </trkpt>
      <trkpt lat="49.75525" lon="2.17459">
        <ele>96.9</ele>
        <time>2022-05-11T13:54:19Z</time>
      </trkpt>
      <trkpt lat="49.75526" lon="2.17459">
        <ele>96.9</ele>
        <time>2022-05-11T13:54:20Z</time>
      </trkpt>
      <trkpt lat="49.75527" lon="2.17458">
        <ele>96.9</ele>
        <time>2022-05-11T13:54:21Z</time>
      </trkpt>
      <trkpt lat="49.75528" lon="2.17457">
        <ele>96.9</ele>
        <time>2022-05-11T13:54:22Z</time>
      </trkpt>
      <trkpt lat="49.75529" lon="2.17457">
        <ele>96.9</ele>
        <time>2022-05-11T13:54:23Z</time>
      </trkpt>
      <trkpt lat="49.7553" lon="2.17456">
        <ele>96.8</ele>
        <time>2022-05-11T13:54:24Z</time>
      </trkpt>
      <trkpt lat="49.75531" lon="2.17455">
        <ele>96.8</ele>
        <time>2022-05-11T13:54:25Z</time>
      </trkpt>
      <trkpt lat="49.75532" lon="2.17455">
        <ele>96.8</ele>
        <time>2022-05-11T13:54:26Z</time>
      </trkpt>
      <trkpt lat="49.75533" lon="2.17454">
        <ele>96.8</ele>
        <time>2022-05-11T13:54:27Z</time>
      </trkpt>
      <trkpt lat="49.75534" lon="2.17453">
        <ele>96.8</ele>
        <time>2022-05-11T13:54:28Z</time>
      </trkpt>
      <trkpt lat="49.75535" lon="2.17453">
        <ele>96.8</ele>
        <time>2022-05-11T13:54:29Z</time>
      </trkpt>
      <trkpt lat="49.75535" lon="2.17451">
        <ele>96.7</ele>
        <time>2022-05-11T13:54:31Z</time>
      </trkpt>
      <trkpt lat="49.75535" lon="2.1745">
        <ele>96.7</ele>
        <time>2022-05-11T13:54:32Z</time>
      </trkpt>
      <trkpt lat="49.75536" lon="2.1745">
        <ele>96.7</ele>
        <time>2022-05-11T13:54:33Z</time>
      </trkpt>
      <trkpt lat="49.75537" lon="2.1745">
        <ele>96.7</ele>
        <time>2022-05-11T13:54:34Z</time>
      </trkpt>
      <trkpt lat="49.75539" lon="2.17449">
        <ele>96.7</ele>
        <time>2022-05-11T13:54:35Z</time>
      </trkpt>
      <trkpt lat="49.7554" lon="2.17449">
        <ele>96.7</ele>
        <time>2022-05-11T13:54:36Z</time>
      </trkpt>
      <trkpt lat="49.75541" lon="2.17448">
        <ele>96.7</ele>
        <time>2022-05-11T13:54:37Z</time>
      </trkpt>
      <trkpt lat="49.75542" lon="2.17447">
        <ele>96.6</ele>
        <time>2022-05-11T13:54:39Z</time>
      </trkpt>
      <trkpt lat="49.75543" lon="2.17446">
        <ele>96.6</ele>
        <time>2022-05-11T13:54:40Z</time>
      </trkpt>
      <trkpt lat="49.75545" lon="2.17446">
        <ele>96.6</ele>
        <time>2022-05-11T13:54:41Z</time>
      </trkpt>
      <trkpt lat="49.75546" lon="2.17444">
        <ele>96.6</ele>
        <time>2022-05-11T13:54:42Z</time>
      </trkpt>
      <trkpt lat="49.75548" lon="2.17443">
        <ele>96.6</ele>
        <time>2022-05-11T13:54:43Z</time>
      </trkpt>
      <trkpt lat="49.75549" lon="2.17443">
        <ele>96.6</ele>
        <time>2022-05-11T13:54:44Z</time>
      </trkpt>
      <trkpt lat="49.7555" lon="2.17443">
        <ele>96.6</ele>
        <time>2022-05-11T13:54:45Z</time>
      </trkpt>
      <trkpt lat="49.75551" lon="2.17443">
        <ele>96.5</ele>
        <time>2022-05-11T13:54:46Z</time>
      </trkpt>
      <trkpt lat="49.75553" lon="2.17443">
        <ele>96.5</ele>
        <time>2022-05-11T13:54:47Z</time>
      </trkpt>
      <trkpt lat="49.75554" lon="2.17442">
        <ele>96.5</ele>
        <time>2022-05-11T13:54:48Z</time>
      </trkpt>
      <trkpt lat="49.75555" lon="2.17442">
        <ele>96.5</ele>
        <time>2022-05-11T13:54:50Z</time>
      </trkpt>
      <trkpt lat="49.75555" lon="2.17442">
        <ele>96.5</ele>
        <time>2022-05-11T13:54:51Z</time>
      </trkpt>
      <trkpt lat="49.75556" lon="2.17442">
        <ele>96.5</ele>
        <time>2022-05-11T13:54:52Z</time>
      </trkpt>
      <trkpt lat="49.75557" lon="2.17442">
        <ele>96.5</ele>
        <time>2022-05-11T13:54:53Z</time>
      </trkpt>
      <trkpt lat="49.75557" lon="2.17442">
        <ele>96.5</ele>
        <time>2022-05-11T13:54:54Z</time>
      </trkpt>
      <trkpt lat="49.75558" lon="2.17441">
        <ele>96.5</ele>
        <time>2022-05-11T13:54:55Z</time>
      </trkpt>
      <trkpt lat="49.75559" lon="2.17441">
        <ele>96.5</ele>
        <time>2022-05-11T13:54:56Z</time>
      </trkpt>
      <trkpt lat="49.7556" lon="2.17441">
        <ele>96.5</ele>
        <time>2022-05-11T13:54:57Z</time>
      </trkpt>
      <trkpt lat="49.75561" lon="2.17441">
        <ele>96.5</ele>
        <time>2022-05-11T13:54:58Z</time>
      </trkpt>
      <trkpt lat="49.75562" lon="2.1744">
        <ele>96.5</ele>
        <time>2022-05-11T13:55:00Z</time>
      </trkpt>
      <trkpt lat="49.75563" lon="2.1744">
        <ele>96.4</ele>
        <time>2022-05-11T13:55:01Z</time>
      </trkpt>
      <trkpt lat="49.75565" lon="2.17439">
        <ele>96.4</ele>
        <time>2022-05-11T13:55:02Z</time>
      </trkpt>
      <trkpt lat="49.75566" lon="2.17437">
        <ele>96.4</ele>
        <time>2022-05-11T13:55:03Z</time>
      </trkpt>
      <trkpt lat="49.75568" lon="2.17437">
        <ele>96.4</ele>
        <time>2022-05-11T13:55:04Z</time>
      </trkpt>
      <trkpt lat="49.75569" lon="2.17436">
        <ele>96.4</ele>
        <time>2022-05-11T13:55:05Z</time>
      </trkpt>
      <trkpt lat="49.75571" lon="2.17435">
        <ele>96.4</ele>
        <time>2022-05-11T13:55:06Z</time>
      </trkpt>
      <trkpt lat="49.75572" lon="2.17434">
        <ele>96.4</ele>
        <time>2022-05-11T13:55:07Z</time>
      </trkpt>
      <trkpt lat="49.75573" lon="2.17434">
        <ele>96.4</ele>
        <time>2022-05-11T13:55:08Z</time>
      </trkpt>
      <trkpt lat="49.75574" lon="2.17433">
        <ele>96.4</ele>
        <time>2022-05-11T13:55:10Z</time>
      </trkpt>
      <trkpt lat="49.75574" lon="2.17434">
        <ele>96.4</ele>
        <time>2022-05-11T13:55:11Z</time>
      </trkpt>
      <trkpt lat="49.75574" lon="2.17434">
        <ele>96.4</ele>
        <time>2022-05-11T13:55:12Z</time>
      </trkpt>
      <trkpt lat="49.75572" lon="2.17433">
        <ele>96.4</ele>
        <time>2022-05-11T13:55:13Z</time>
      </trkpt>
      <trkpt lat="49.75571" lon="2.17432">
        <ele>96.4</ele>
        <time>2022-05-11T13:55:14Z</time>
      </trkpt>
      <trkpt lat="49.7557" lon="2.17431">
        <ele>96.4</ele>
        <time>2022-05-11T13:55:15Z</time>
      </trkpt>
      <trkpt lat="49.7557" lon="2.17431">
        <ele>96.4</ele>
        <time>2022-05-11T13:55:16Z</time>
      </trkpt>
      <trkpt lat="49.7557" lon="2.17431">
        <ele>96.4</ele>
        <time>2022-05-11T13:55:17Z</time>
      </trkpt>
      <trkpt lat="49.75569" lon="2.17431">
        <ele>96.4</ele>
        <time>2022-05-11T13:55:18Z</time>
      </trkpt>
      <trkpt lat="49.75569" lon="2.17431">
        <ele>96.4</ele>
        <time>2022-05-11T13:55:19Z</time>
      </trkpt>
      <trkpt lat="49.75569" lon="2.17431">
        <ele>96.4</ele>
        <time>2022-05-11T13:55:20Z</time>
      </trkpt>
      <trkpt lat="49.75569" lon="2.17431">
        <ele>96.4</ele>
        <time>2022-05-11T13:55:21Z</time>
      </trkpt>
      <trkpt lat="49.75568" lon="2.17431">
        <ele>96.4</ele>
        <time>2022-05-11T13:55:22Z</time>
      </trkpt>
      <trkpt lat="49.75568" lon="2.17431">
        <ele>96.4</ele>
        <time>2022-05-11T13:55:23Z</time>
      </trkpt>
      <trkpt lat="49.75568" lon="2.17431">
        <ele>96.4</ele>
        <time>2022-05-11T13:55:24Z</time>
      </trkpt>
      <trkpt lat="49.75568" lon="2.17431">
        <ele>96.4</ele>
        <time>2022-05-11T13:55:25Z</time>
      </trkpt>
      <trkpt lat="49.75568" lon="2.17431">
        <ele>96.4</ele>
        <time>2022-05-11T13:55:26Z</time>
      </trkpt>
      <trkpt lat="49.75568" lon="2.17431">
        <ele>96.4</ele>
        <time>2022-05-11T13:55:27Z</time>
      </trkpt>
      <trkpt lat="49.75568" lon="2.1743">
        <ele>96.4</ele>
        <time>2022-05-11T13:55:28Z</time>
      </trkpt>
      <trkpt lat="49.75568" lon="2.1743">
        <ele>96.4</ele>
        <time>2022-05-11T13:55:29Z</time>
      </trkpt>
      <trkpt lat="49.75568" lon="2.1743">
        <ele>96.4</ele>
        <time>2022-05-11T13:55:30Z</time>
      </trkpt>
      <trkpt lat="49.75568" lon="2.17431">
        <ele>96.4</ele>
        <time>2022-05-11T13:55:31Z</time>
      </trkpt>
      <trkpt lat="49.75568" lon="2.17431">
        <ele>96.4</ele>
        <time>2022-05-11T13:55:32Z</time>
      </trkpt>
      <trkpt lat="49.75568" lon="2.17431">
        <ele>96.4</ele>
        <time>2022-05-11T13:55:33Z</time>
      </trkpt>
      <trkpt lat="49.75568" lon="2.17431">
        <ele>96.4</ele>
        <time>2022-05-11T13:55:34Z</time>
      </trkpt>
      <trkpt lat="49.75568" lon="2.17431">
        <ele>96.4</ele>
        <time>2022-05-11T13:55:35Z</time>
      </trkpt>
      <trkpt lat="49.75568" lon="2.17431">
        <ele>96.4</ele>
        <time>2022-05-11T13:55:36Z</time>
      </trkpt>
      <trkpt lat="49.75568" lon="2.17431">
        <ele>96.4</ele>
        <time>2022-05-11T13:55:37Z</time>
      </trkpt>
      <trkpt lat="49.75568" lon="2.17431">
        <ele>96.4</ele>
        <time>2022-05-11T13:55:38Z</time>
      </trkpt>
      <trkpt lat="49.75568" lon="2.17431">
        <ele>96.4</ele>
        <time>2022-05-11T13:55:39Z</time>
      </trkpt>
      <trkpt lat="49.75568" lon="2.17431">
        <ele>96.4</ele>
        <time>2022-05-11T13:55:40Z</time>
      </trkpt>
      <trkpt lat="49.75568" lon="2.17431">
        <ele>96.4</ele>
        <time>2022-05-11T13:55:41Z</time>
      </trkpt>
      <trkpt lat="49.75568" lon="2.17431">
        <ele>96.4</ele>
        <time>2022-05-11T13:55:42Z</time>
      </trkpt>
      <trkpt lat="49.75568" lon="2.17431">
        <ele>96.4</ele>
        <time>2022-05-11T13:55:43Z</time>
      </trkpt>
      <trkpt lat="49.75568" lon="2.17431">
        <ele>96.4</ele>
        <time>2022-05-11T13:55:44Z</time>
      </trkpt>
      <trkpt lat="49.75568" lon="2.17431">
        <ele>96.4</ele>
        <time>2022-05-11T13:55:45Z</time>
      </trkpt>
      <trkpt lat="49.75568" lon="2.17431">
        <ele>96.4</ele>
        <time>2022-05-11T13:55:46Z</time>
      </trkpt>
      <trkpt lat="49.75568" lon="2.17431">
        <ele>96.4</ele>
        <time>2022-05-11T13:55:47Z</time>
      </trkpt>
      <trkpt lat="49.75568" lon="2.17431">
        <ele>96.4</ele>
        <time>2022-05-11T13:55:48Z</time>
      </trkpt>
      <trkpt lat="49.75568" lon="2.17431">
        <ele>96.4</ele>
        <time>2022-05-11T13:55:49Z</time>
      </trkpt>
      <trkpt lat="49.75568" lon="2.17431">
        <ele>96.4</ele>
        <time>2022-05-11T13:55:50Z</time>
      </trkpt>
      <trkpt lat="49.75568" lon="2.17431">
        <ele>96.4</ele>
        <time>2022-05-11T13:55:51Z</time>
      </trkpt>
      <trkpt lat="49.75568" lon="2.17431">
        <ele>96.4</ele>
        <time>2022-05-11T13:55:52Z</time>
      </trkpt>
      <trkpt lat="49.75568" lon="2.17431">
        <ele>96.4</ele>
        <time>2022-05-11T13:55:53Z</time>
      </trkpt>
      <trkpt lat="49.75568" lon="2.17431">
        <ele>96.4</ele>
        <time>2022-05-11T13:55:54Z</time>
      </trkpt>
      <trkpt lat="49.75568" lon="2.17431">
        <ele>96.4</ele>
        <time>2022-05-11T13:55:55Z</time>
      </trkpt>
      <trkpt lat="49.75568" lon="2.17431">
        <ele>96.4</ele>
        <time>2022-05-11T13:55:56Z</time>
      </trkpt>
      <trkpt lat="49.75568" lon="2.17431">
        <ele>96.4</ele>
        <time>2022-05-11T13:55:57Z</time>
      </trkpt>
      <trkpt lat="49.75568" lon="2.17431">
        <ele>96.4</ele>
        <time>2022-05-11T13:55:58Z</time>
      </trkpt>
      <trkpt lat="49.75568" lon="2.17431">
        <ele>96.4</ele>
        <time>2022-05-11T13:55:59Z</time>
      </trkpt>
      <trkpt lat="49.75568" lon="2.17431">
        <ele>96.4</ele>
        <time>2022-05-11T13:56:00Z</time>
      </trkpt>
      <trkpt lat="49.75568" lon="2.17431">
        <ele>96.4</ele>
        <time>2022-05-11T13:56:01Z</time>
      </trkpt>
      <trkpt lat="49.75568" lon="2.17431">
        <ele>96.4</ele>
        <time>2022-05-11T13:56:02Z</time>
      </trkpt>
      <trkpt lat="49.75568" lon="2.17431">
        <ele>96.4</ele>
        <time>2022-05-11T13:56:03Z</time>
      </trkpt>
      <trkpt lat="49.75568" lon="2.17431">
        <ele>96.4</ele>
        <time>2022-05-11T13:56:04Z</time>
      </trkpt>
      <trkpt lat="49.75568" lon="2.17431">
        <ele>96.4</ele>
        <time>2022-05-11T13:56:05Z</time>
      </trkpt>
      <trkpt lat="49.75568" lon="2.17431">
        <ele>96.4</ele>
        <time>2022-05-11T13:56:06Z</time>
      </trkpt>
      <trkpt lat="49.75568" lon="2.17431">
        <ele>96.4</ele>
        <time>2022-05-11T13:56:07Z</time>
      </trkpt>
      <trkpt lat="49.75568" lon="2.17431">
        <ele>96.4</ele>
        <time>2022-05-11T13:56:08Z</time>
      </trkpt>
      <trkpt lat="49.75568" lon="2.17431">
        <ele>96.4</ele>
        <time>2022-05-11T13:56:09Z</time>
      </trkpt>
      <trkpt lat="49.75568" lon="2.17431">
        <ele>96.4</ele>
        <time>2022-05-11T13:56:10Z</time>
      </trkpt>
      <trkpt lat="49.75568" lon="2.17431">
        <ele>96.4</ele>
        <time>2022-05-11T13:56:11Z</time>
      </trkpt>
      <trkpt lat="49.75568" lon="2.17431">
        <ele>96.4</ele>
        <time>2022-05-11T13:56:12Z</time>
      </trkpt>
      <trkpt lat="49.75568" lon="2.17431">
        <ele>96.4</ele>
        <time>2022-05-11T13:56:13Z</time>
      </trkpt>
      <trkpt lat="49.75568" lon="2.17431">
        <ele>96.4</ele>
        <time>2022-05-11T13:56:14Z</time>
      </trkpt>
      <trkpt lat="49.75568" lon="2.17431">
        <ele>96.4</ele>
        <time>2022-05-11T13:56:15Z</time>
      </trkpt>
      <trkpt lat="49.75568" lon="2.17431">
        <ele>96.4</ele>
        <time>2022-05-11T13:56:16Z</time>
      </trkpt>
      <trkpt lat="49.75568" lon="2.17431">
        <ele>96.4</ele>
        <time>2022-05-11T13:56:17Z</time>
      </trkpt>
      <trkpt lat="49.75568" lon="2.17431">
        <ele>96.4</ele>
        <time>2022-05-11T13:56:18Z</time>
      </trkpt>
      <trkpt lat="49.75568" lon="2.17431">
        <ele>96.4</ele>
        <time>2022-05-11T13:56:19Z</time>
      </trkpt>
      <trkpt lat="49.75568" lon="2.17431">
        <ele>96.4</ele>
        <time>2022-05-11T13:56:20Z</time>
      </trkpt>
      <trkpt lat="49.75568" lon="2.17431">
        <ele>96.4</ele>
        <time>2022-05-11T13:56:21Z</time>
      </trkpt>
      <trkpt lat="49.75568" lon="2.17431">
        <ele>96.4</ele>
        <time>2022-05-11T13:56:22Z</time>
      </trkpt>
      <trkpt lat="49.75568" lon="2.17431">
        <ele>96.4</ele>
        <time>2022-05-11T13:56:23Z</time>
      </trkpt>
      <trkpt lat="49.75568" lon="2.17431">
        <ele>96.4</ele>
        <time>2022-05-11T13:56:24Z</time>
      </trkpt>
      <trkpt lat="49.75568" lon="2.17431">
        <ele>96.4</ele>
        <time>2022-05-11T13:56:25Z</time>
      </trkpt>
      <trkpt lat="49.75568" lon="2.17431">
        <ele>96.4</ele>
        <time>2022-05-11T13:56:26Z</time>
      </trkpt>
      <trkpt lat="49.75568" lon="2.17431">
        <ele>96.4</ele>
        <time>2022-05-11T13:56:27Z</time>
      </trkpt>
      <trkpt lat="49.75568" lon="2.17434">
        <ele>96.4</ele>
        <time>2022-05-11T13:56:28Z</time>
      </trkpt>
      <trkpt lat="49.75567" lon="2.17436">
        <ele>96.4</ele>
        <time>2022-05-11T13:56:29Z</time>
      </trkpt>
      <trkpt lat="49.75567" lon="2.17437">
        <ele>96.4</ele>
        <time>2022-05-11T13:56:30Z</time>
      </trkpt>
      <trkpt lat="49.75566" lon="2.17438">
        <ele>96.4</ele>
        <time>2022-05-11T13:56:31Z</time>
      </trkpt>
      <trkpt lat="49.75566" lon="2.17438">
        <ele>96.4</ele>
        <time>2022-05-11T13:56:32Z</time>
      </trkpt>
      <trkpt lat="49.75566" lon="2.17438">
        <ele>96.4</ele>
        <time>2022-05-11T13:56:33Z</time>
      </trkpt>
      <trkpt lat="49.75566" lon="2.17439">
        <ele>96.4</ele>
        <time>2022-05-11T13:56:34Z</time>
      </trkpt>
      <trkpt lat="49.75566" lon="2.17439">
        <ele>96.4</ele>
        <time>2022-05-11T13:56:35Z</time>
      </trkpt>
      <trkpt lat="49.75566" lon="2.17439">
        <ele>96.4</ele>
        <time>2022-05-11T13:56:36Z</time>
      </trkpt>
      <trkpt lat="49.75566" lon="2.17439">
        <ele>96.4</ele>
        <time>2022-05-11T13:56:37Z</time>
      </trkpt>
      <trkpt lat="49.75566" lon="2.17439">
        <ele>96.4</ele>
        <time>2022-05-11T13:56:38Z</time>
      </trkpt>
      <trkpt lat="49.75566" lon="2.17439">
        <ele>96.4</ele>
        <time>2022-05-11T13:56:39Z</time>
      </trkpt>
      <trkpt lat="49.75566" lon="2.17439">
        <ele>96.4</ele>
        <time>2022-05-11T13:56:40Z</time>
      </trkpt>
      <trkpt lat="49.75566" lon="2.17439">
        <ele>96.4</ele>
        <time>2022-05-11T13:56:41Z</time>
      </trkpt>
      <trkpt lat="49.75566" lon="2.17439">
        <ele>96.4</ele>
        <time>2022-05-11T13:56:42Z</time>
      </trkpt>
      <trkpt lat="49.75566" lon="2.17439">
        <ele>96.4</ele>
        <time>2022-05-11T13:56:43Z</time>
      </trkpt>
      <trkpt lat="49.75566" lon="2.17439">
        <ele>96.4</ele>
        <time>2022-05-11T13:56:44Z</time>
      </trkpt>
      <trkpt lat="49.75566" lon="2.17439">
        <ele>96.4</ele>
        <time>2022-05-11T13:56:45Z</time>
      </trkpt>
      <trkpt lat="49.75566" lon="2.17439">
        <ele>96.4</ele>
        <time>2022-05-11T13:56:46Z</time>
      </trkpt>
      <trkpt lat="49.75566" lon="2.17439">
        <ele>96.4</ele>
        <time>2022-05-11T13:56:47Z</time>
      </trkpt>
      <trkpt lat="49.75566" lon="2.17439">
        <ele>96.4</ele>
        <time>2022-05-11T13:56:48Z</time>
      </trkpt>
      <trkpt lat="49.75566" lon="2.17439">
        <ele>96.4</ele>
        <time>2022-05-11T13:56:49Z</time>
      </trkpt>
      <trkpt lat="49.75566" lon="2.17439">
        <ele>96.4</ele>
        <time>2022-05-11T13:56:50Z</time>
      </trkpt>
      <trkpt lat="49.75566" lon="2.17439">
        <ele>96.4</ele>
        <time>2022-05-11T13:56:51Z</time>
      </trkpt>
      <trkpt lat="49.75566" lon="2.17439">
        <ele>96.4</ele>
        <time>2022-05-11T13:56:52Z</time>
      </trkpt>
      <trkpt lat="49.75566" lon="2.17439">
        <ele>96.4</ele>
        <time>2022-05-11T13:56:53Z</time>
      </trkpt>
      <trkpt lat="49.75566" lon="2.17439">
        <ele>96.4</ele>
        <time>2022-05-11T13:56:54Z</time>
      </trkpt>
      <trkpt lat="49.75566" lon="2.17439">
        <ele>96.4</ele>
        <time>2022-05-11T13:56:55Z</time>
      </trkpt>
      <trkpt lat="49.75566" lon="2.17439">
        <ele>96.4</ele>
        <time>2022-05-11T13:56:56Z</time>
      </trkpt>
      <trkpt lat="49.75566" lon="2.17439">
        <ele>96.4</ele>
        <time>2022-05-11T13:56:57Z</time>
      </trkpt>
      <trkpt lat="49.75566" lon="2.17439">
        <ele>96.4</ele>
        <time>2022-05-11T13:56:58Z</time>
      </trkpt>
      <trkpt lat="49.75566" lon="2.17439">
        <ele>96.4</ele>
        <time>2022-05-11T13:56:59Z</time>
      </trkpt>
      <trkpt lat="49.75566" lon="2.17439">
        <ele>96.4</ele>
        <time>2022-05-11T13:57:00Z</time>
      </trkpt>
      <trkpt lat="49.75566" lon="2.17439">
        <ele>96.4</ele>
        <time>2022-05-11T13:57:01Z</time>
      </trkpt>
      <trkpt lat="49.75567" lon="2.17438">
        <ele>96.4</ele>
        <time>2022-05-11T13:57:02Z</time>
      </trkpt>
      <trkpt lat="49.75567" lon="2.17438">
        <ele>96.4</ele>
        <time>2022-05-11T13:57:03Z</time>
      </trkpt>
      <trkpt lat="49.75567" lon="2.17437">
        <ele>96.4</ele>
        <time>2022-05-11T13:57:04Z</time>
      </trkpt>
      <trkpt lat="49.75567" lon="2.17437">
        <ele>96.4</ele>
        <time>2022-05-11T13:57:05Z</time>
      </trkpt>
      <trkpt lat="49.75567" lon="2.17437">
        <ele>96.4</ele>
        <time>2022-05-11T13:57:06Z</time>
      </trkpt>
      <trkpt lat="49.75567" lon="2.17437">
        <ele>96.5</ele>
        <time>2022-05-11T13:57:07Z</time>
      </trkpt>
      <trkpt lat="49.75567" lon="2.17437">
        <ele>96.5</ele>
        <time>2022-05-11T13:57:08Z</time>
      </trkpt>
      <trkpt lat="49.75567" lon="2.17437">
        <ele>96.5</ele>
        <time>2022-05-11T13:57:09Z</time>
      </trkpt>
      <trkpt lat="49.75567" lon="2.17437">
        <ele>96.5</ele>
        <time>2022-05-11T13:57:10Z</time>
      </trkpt>
      <trkpt lat="49.75567" lon="2.17437">
        <ele>96.5</ele>
        <time>2022-05-11T13:57:11Z</time>
      </trkpt>
      <trkpt lat="49.75567" lon="2.17437">
        <ele>96.5</ele>
        <time>2022-05-11T13:57:12Z</time>
      </trkpt>
      <trkpt lat="49.75567" lon="2.17437">
        <ele>96.5</ele>
        <time>2022-05-11T13:57:13Z</time>
      </trkpt>
      <trkpt lat="49.75567" lon="2.17437">
        <ele>96.5</ele>
        <time>2022-05-11T13:57:14Z</time>
      </trkpt>
      <trkpt lat="49.75567" lon="2.17437">
        <ele>96.5</ele>
        <time>2022-05-11T13:57:15Z</time>
      </trkpt>
      <trkpt lat="49.75567" lon="2.17437">
        <ele>96.5</ele>
        <time>2022-05-11T13:57:16Z</time>
      </trkpt>
      <trkpt lat="49.75567" lon="2.17437">
        <ele>96.5</ele>
        <time>2022-05-11T13:57:17Z</time>
      </trkpt>
      <trkpt lat="49.75567" lon="2.17437">
        <ele>96.5</ele>
        <time>2022-05-11T13:57:18Z</time>
      </trkpt>
      <trkpt lat="49.75567" lon="2.17437">
        <ele>96.5</ele>
        <time>2022-05-11T13:57:19Z</time>
      </trkpt>
      <trkpt lat="49.75567" lon="2.17437">
        <ele>96.5</ele>
        <time>2022-05-11T13:57:20Z</time>
      </trkpt>
      <trkpt lat="49.75567" lon="2.17437">
        <ele>96.5</ele>
        <time>2022-05-11T13:57:21Z</time>
      </trkpt>
      <trkpt lat="49.75567" lon="2.17437">
        <ele>96.5</ele>
        <time>2022-05-11T13:57:22Z</time>
      </trkpt>
      <trkpt lat="49.75567" lon="2.17437">
        <ele>96.5</ele>
        <time>2022-05-11T13:57:23Z</time>
      </trkpt>
      <trkpt lat="49.75567" lon="2.17437">
        <ele>96.5</ele>
        <time>2022-05-11T13:57:24Z</time>
      </trkpt>
      <trkpt lat="49.75567" lon="2.17437">
        <ele>96.5</ele>
        <time>2022-05-11T13:57:25Z</time>
      </trkpt>
      <trkpt lat="49.75567" lon="2.17437">
        <ele>96.5</ele>
        <time>2022-05-11T13:57:26Z</time>
      </trkpt>
      <trkpt lat="49.75567" lon="2.17439">
        <ele>96.5</ele>
        <time>2022-05-11T13:57:27Z</time>
      </trkpt>
      <trkpt lat="49.75568" lon="2.17439">
        <ele>96.5</ele>
        <time>2022-05-11T13:57:28Z</time>
      </trkpt>
      <trkpt lat="49.75568" lon="2.1744">
        <ele>96.5</ele>
        <time>2022-05-11T13:57:29Z</time>
      </trkpt>
      <trkpt lat="49.75569" lon="2.1744">
        <ele>96.5</ele>
        <time>2022-05-11T13:57:30Z</time>
      </trkpt>
      <trkpt lat="49.7557" lon="2.1744">
        <ele>96.5</ele>
        <time>2022-05-11T13:57:31Z</time>
      </trkpt>
      <trkpt lat="49.75568" lon="2.17439">
        <ele>96.5</ele>
        <time>2022-05-11T13:57:32Z</time>
      </trkpt>
      <trkpt lat="49.75569" lon="2.1744">
        <ele>96.5</ele>
        <time>2022-05-11T13:57:34Z</time>
      </trkpt>
      <trkpt lat="49.75569" lon="2.17441">
        <ele>96.5</ele>
        <time>2022-05-11T13:57:35Z</time>
      </trkpt>
      <trkpt lat="49.7557" lon="2.17444">
        <ele>96.5</ele>
        <time>2022-05-11T13:57:36Z</time>
      </trkpt>
      <trkpt lat="49.75571" lon="2.17445">
        <ele>96.5</ele>
        <time>2022-05-11T13:57:37Z</time>
      </trkpt>
      <trkpt lat="49.7557" lon="2.17446">
        <ele>96.5</ele>
        <time>2022-05-11T13:57:38Z</time>
      </trkpt>
      <trkpt lat="49.7557" lon="2.17446">
        <ele>96.5</ele>
        <time>2022-05-11T13:57:39Z</time>
      </trkpt>
      <trkpt lat="49.75571" lon="2.17447">
        <ele>96.5</ele>
        <time>2022-05-11T13:57:40Z</time>
      </trkpt>
      <trkpt lat="49.75571" lon="2.17447">
        <ele>96.5</ele>
        <time>2022-05-11T13:57:41Z</time>
      </trkpt>
      <trkpt lat="49.75571" lon="2.17447">
        <ele>96.5</ele>
        <time>2022-05-11T13:57:42Z</time>
      </trkpt>
      <trkpt lat="49.75571" lon="2.17447">
        <ele>96.5</ele>
        <time>2022-05-11T13:57:43Z</time>
      </trkpt>
      <trkpt lat="49.75571" lon="2.17447">
        <ele>96.5</ele>
        <time>2022-05-11T13:57:44Z</time>
      </trkpt>
      <trkpt lat="49.75571" lon="2.17447">
        <ele>96.5</ele>
        <time>2022-05-11T13:57:45Z</time>
      </trkpt>
      <trkpt lat="49.75571" lon="2.17448">
        <ele>96.5</ele>
        <time>2022-05-11T13:57:46Z</time>
      </trkpt>
      <trkpt lat="49.75571" lon="2.17448">
        <ele>96.5</ele>
        <time>2022-05-11T13:57:47Z</time>
      </trkpt>
      <trkpt lat="49.75571" lon="2.17448">
        <ele>96.5</ele>
        <time>2022-05-11T13:57:48Z</time>
      </trkpt>
      <trkpt lat="49.75571" lon="2.17448">
        <ele>96.5</ele>
        <time>2022-05-11T13:57:49Z</time>
      </trkpt>
      <trkpt lat="49.75571" lon="2.17449">
        <ele>96.5</ele>
        <time>2022-05-11T13:57:51Z</time>
      </trkpt>
      <trkpt lat="49.75571" lon="2.17449">
        <ele>96.5</ele>
        <time>2022-05-11T13:57:52Z</time>
      </trkpt>
      <trkpt lat="49.75571" lon="2.17449">
        <ele>96.5</ele>
        <time>2022-05-11T13:57:53Z</time>
      </trkpt>
      <trkpt lat="49.75572" lon="2.17449">
        <ele>96.5</ele>
        <time>2022-05-11T13:57:54Z</time>
      </trkpt>
      <trkpt lat="49.75572" lon="2.17449">
        <ele>96.5</ele>
        <time>2022-05-11T13:57:55Z</time>
      </trkpt>
      <trkpt lat="49.75571" lon="2.17448">
        <ele>96.5</ele>
        <time>2022-05-11T13:57:56Z</time>
      </trkpt>
      <trkpt lat="49.7557" lon="2.17446">
        <ele>96.5</ele>
        <time>2022-05-11T13:57:57Z</time>
      </trkpt>
      <trkpt lat="49.75569" lon="2.17445">
        <ele>96.5</ele>
        <time>2022-05-11T13:57:58Z</time>
      </trkpt>
      <trkpt lat="49.75568" lon="2.17444">
        <ele>96.5</ele>
        <time>2022-05-11T13:57:59Z</time>
      </trkpt>
      <trkpt lat="49.75568" lon="2.17443">
        <ele>96.5</ele>
        <time>2022-05-11T13:58:00Z</time>
      </trkpt>
      <trkpt lat="49.75567" lon="2.17442">
        <ele>96.5</ele>
        <time>2022-05-11T13:58:01Z</time>
      </trkpt>
      <trkpt lat="49.75567" lon="2.17442">
        <ele>96.5</ele>
        <time>2022-05-11T13:58:02Z</time>
      </trkpt>
      <trkpt lat="49.75566" lon="2.17441">
        <ele>96.5</ele>
        <time>2022-05-11T13:58:03Z</time>
      </trkpt>
      <trkpt lat="49.75566" lon="2.17441">
        <ele>96.5</ele>
        <time>2022-05-11T13:58:04Z</time>
      </trkpt>
      <trkpt lat="49.75566" lon="2.17441">
        <ele>96.5</ele>
        <time>2022-05-11T13:58:05Z</time>
      </trkpt>
      <trkpt lat="49.75567" lon="2.17441">
        <ele>96.5</ele>
        <time>2022-05-11T13:58:07Z</time>
      </trkpt>
      <trkpt lat="49.75567" lon="2.17441">
        <ele>96.5</ele>
        <time>2022-05-11T13:58:08Z</time>
      </trkpt>
      <trkpt lat="49.75567" lon="2.17441">
        <ele>96.5</ele>
        <time>2022-05-11T13:58:09Z</time>
      </trkpt>
      <trkpt lat="49.75567" lon="2.17442">
        <ele>96.5</ele>
        <time>2022-05-11T13:58:10Z</time>
      </trkpt>
      <trkpt lat="49.75567" lon="2.17442">
        <ele>96.5</ele>
        <time>2022-05-11T13:58:11Z</time>
      </trkpt>
      <trkpt lat="49.75567" lon="2.17443">
        <ele>96.5</ele>
        <time>2022-05-11T13:58:12Z</time>
      </trkpt>
      <trkpt lat="49.75568" lon="2.17443">
        <ele>96.5</ele>
        <time>2022-05-11T13:58:13Z</time>
      </trkpt>
      <trkpt lat="49.75568" lon="2.17443">
        <ele>96.5</ele>
        <time>2022-05-11T13:58:14Z</time>
      </trkpt>
      <trkpt lat="49.75568" lon="2.17443">
        <ele>96.5</ele>
        <time>2022-05-11T13:58:15Z</time>
      </trkpt>
      <trkpt lat="49.75568" lon="2.17443">
        <ele>96.5</ele>
        <time>2022-05-11T13:58:16Z</time>
      </trkpt>
      <trkpt lat="49.75568" lon="2.17443">
        <ele>96.5</ele>
        <time>2022-05-11T13:58:17Z</time>
      </trkpt>
      <trkpt lat="49.75568" lon="2.17443">
        <ele>96.5</ele>
        <time>2022-05-11T13:58:18Z</time>
      </trkpt>
      <trkpt lat="49.75568" lon="2.17443">
        <ele>96.5</ele>
        <time>2022-05-11T13:58:19Z</time>
      </trkpt>
      <trkpt lat="49.75568" lon="2.17443">
        <ele>96.5</ele>
        <time>2022-05-11T13:58:20Z</time>
      </trkpt>
      <trkpt lat="49.75568" lon="2.17443">
        <ele>96.5</ele>
        <time>2022-05-11T13:58:21Z</time>
      </trkpt>
      <trkpt lat="49.75568" lon="2.17443">
        <ele>96.5</ele>
        <time>2022-05-11T13:58:22Z</time>
      </trkpt>
      <trkpt lat="49.75568" lon="2.17443">
        <ele>96.5</ele>
        <time>2022-05-11T13:58:23Z</time>
      </trkpt>
      <trkpt lat="49.75568" lon="2.17443">
        <ele>96.5</ele>
        <time>2022-05-11T13:58:24Z</time>
      </trkpt>
      <trkpt lat="49.75568" lon="2.17443">
        <ele>96.5</ele>
        <time>2022-05-11T13:58:25Z</time>
      </trkpt>
      <trkpt lat="49.75568" lon="2.17443">
        <ele>96.5</ele>
        <time>2022-05-11T13:58:26Z</time>
      </trkpt>
      <trkpt lat="49.75568" lon="2.17443">
        <ele>96.5</ele>
        <time>2022-05-11T13:58:27Z</time>
      </trkpt>
      <trkpt lat="49.75568" lon="2.17443">
        <ele>96.5</ele>
        <time>2022-05-11T13:58:28Z</time>
      </trkpt>
      <trkpt lat="49.75568" lon="2.17443">
        <ele>96.5</ele>
        <time>2022-05-11T13:58:29Z</time>
      </trkpt>
      <trkpt lat="49.75568" lon="2.17443">
        <ele>96.5</ele>
        <time>2022-05-11T13:58:30Z</time>
      </trkpt>
      <trkpt lat="49.75568" lon="2.17443">
        <ele>96.5</ele>
        <time>2022-05-11T13:58:31Z</time>
      </trkpt>
      <trkpt lat="49.75568" lon="2.17443">
        <ele>96.5</ele>
        <time>2022-05-11T13:58:32Z</time>
      </trkpt>
      <trkpt lat="49.75569" lon="2.17444">
        <ele>96.5</ele>
        <time>2022-05-11T13:58:33Z</time>
      </trkpt>
      <trkpt lat="49.7557" lon="2.17444">
        <ele>96.5</ele>
        <time>2022-05-11T13:58:34Z</time>
      </trkpt>
      <trkpt lat="49.7557" lon="2.17444">
        <ele>96.5</ele>
        <time>2022-05-11T13:58:35Z</time>
      </trkpt>
      <trkpt lat="49.75571" lon="2.17444">
        <ele>96.5</ele>
        <time>2022-05-11T13:58:36Z</time>
      </trkpt>
      <trkpt lat="49.75571" lon="2.17445">
        <ele>96.5</ele>
        <time>2022-05-11T13:58:37Z</time>
      </trkpt>
      <trkpt lat="49.75572" lon="2.17445">
        <ele>96.5</ele>
        <time>2022-05-11T13:58:38Z</time>
      </trkpt>
      <trkpt lat="49.75572" lon="2.17446">
        <ele>96.5</ele>
        <time>2022-05-11T13:58:39Z</time>
      </trkpt>
      <trkpt lat="49.75572" lon="2.17447">
        <ele>96.5</ele>
        <time>2022-05-11T13:58:40Z</time>
      </trkpt>
      <trkpt lat="49.75572" lon="2.17447">
        <ele>96.5</ele>
        <time>2022-05-11T13:58:41Z</time>
      </trkpt>
      <trkpt lat="49.75572" lon="2.17448">
        <ele>96.5</ele>
        <time>2022-05-11T13:58:42Z</time>
      </trkpt>
      <trkpt lat="49.75572" lon="2.1745">
        <ele>96.5</ele>
        <time>2022-05-11T13:58:43Z</time>
      </trkpt>
      <trkpt lat="49.75572" lon="2.17451">
        <ele>96.5</ele>
        <time>2022-05-11T13:58:44Z</time>
      </trkpt>
      <trkpt lat="49.75572" lon="2.17452">
        <ele>96.5</ele>
        <time>2022-05-11T13:58:45Z</time>
      </trkpt>
      <trkpt lat="49.75572" lon="2.17453">
        <ele>96.5</ele>
        <time>2022-05-11T13:58:46Z</time>
      </trkpt>
      <trkpt lat="49.75572" lon="2.17454">
        <ele>96.5</ele>
        <time>2022-05-11T13:58:47Z</time>
      </trkpt>
      <trkpt lat="49.75572" lon="2.17455">
        <ele>96.5</ele>
        <time>2022-05-11T13:58:48Z</time>
      </trkpt>
      <trkpt lat="49.75572" lon="2.17455">
        <ele>96.5</ele>
        <time>2022-05-11T13:58:49Z</time>
      </trkpt>
      <trkpt lat="49.75572" lon="2.17456">
        <ele>96.5</ele>
        <time>2022-05-11T13:58:51Z</time>
      </trkpt>
      <trkpt lat="49.75572" lon="2.17458">
        <ele>96.5</ele>
        <time>2022-05-11T13:58:52Z</time>
      </trkpt>
      <trkpt lat="49.75572" lon="2.17459">
        <ele>96.5</ele>
        <time>2022-05-11T13:58:53Z</time>
      </trkpt>
      <trkpt lat="49.75572" lon="2.17461">
        <ele>96.5</ele>
        <time>2022-05-11T13:58:54Z</time>
      </trkpt>
      <trkpt lat="49.75572" lon="2.17462">
        <ele>96.5</ele>
        <time>2022-05-11T13:58:55Z</time>
      </trkpt>
      <trkpt lat="49.75572" lon="2.17464">
        <ele>96.5</ele>
        <time>2022-05-11T13:58:56Z</time>
      </trkpt>
      <trkpt lat="49.75572" lon="2.17465">
        <ele>96.5</ele>
        <time>2022-05-11T13:58:57Z</time>
      </trkpt>
      <trkpt lat="49.75572" lon="2.17466">
        <ele>96.5</ele>
        <time>2022-05-11T13:58:59Z</time>
      </trkpt>
      <trkpt lat="49.75571" lon="2.17467">
        <ele>96.5</ele>
        <time>2022-05-11T13:59:00Z</time>
      </trkpt>
      <trkpt lat="49.75572" lon="2.1747">
        <ele>96.5</ele>
        <time>2022-05-11T13:59:01Z</time>
      </trkpt>
      <trkpt lat="49.75572" lon="2.17472">
        <ele>96.6</ele>
        <time>2022-05-11T13:59:02Z</time>
      </trkpt>
      <trkpt lat="49.75572" lon="2.17473">
        <ele>96.6</ele>
        <time>2022-05-11T13:59:03Z</time>
      </trkpt>
      <trkpt lat="49.75572" lon="2.17475">
        <ele>96.6</ele>
        <time>2022-05-11T13:59:04Z</time>
      </trkpt>
      <trkpt lat="49.75572" lon="2.17476">
        <ele>96.6</ele>
        <time>2022-05-11T13:59:05Z</time>
      </trkpt>
      <trkpt lat="49.75571" lon="2.17476">
        <ele>96.6</ele>
        <time>2022-05-11T13:59:06Z</time>
      </trkpt>
      <trkpt lat="49.75571" lon="2.17477">
        <ele>96.6</ele>
        <time>2022-05-11T13:59:08Z</time>
      </trkpt>
      <trkpt lat="49.75571" lon="2.17479">
        <ele>96.6</ele>
        <time>2022-05-11T13:59:09Z</time>
      </trkpt>
      <trkpt lat="49.7557" lon="2.17481">
        <ele>96.6</ele>
        <time>2022-05-11T13:59:10Z</time>
      </trkpt>
      <trkpt lat="49.75571" lon="2.17483">
        <ele>96.6</ele>
        <time>2022-05-11T13:59:11Z</time>
      </trkpt>
      <trkpt lat="49.75571" lon="2.17485">
        <ele>96.6</ele>
        <time>2022-05-11T13:59:12Z</time>
      </trkpt>
      <trkpt lat="49.75572" lon="2.17486">
        <ele>96.6</ele>
        <time>2022-05-11T13:59:13Z</time>
      </trkpt>
      <trkpt lat="49.75573" lon="2.17489">
        <ele>96.6</ele>
        <time>2022-05-11T13:59:15Z</time>
      </trkpt>
      <trkpt lat="49.75574" lon="2.17492">
        <ele>96.6</ele>
        <time>2022-05-11T13:59:16Z</time>
      </trkpt>
      <trkpt lat="49.75575" lon="2.17494">
        <ele>96.6</ele>
        <time>2022-05-11T13:59:17Z</time>
      </trkpt>
      <trkpt lat="49.75575" lon="2.17495">
        <ele>96.6</ele>
        <time>2022-05-11T13:59:18Z</time>
      </trkpt>
      <trkpt lat="49.75576" lon="2.17496">
        <ele>96.6</ele>
        <time>2022-05-11T13:59:19Z</time>
      </trkpt>
      <trkpt lat="49.75576" lon="2.17498">
        <ele>96.6</ele>
        <time>2022-05-11T13:59:20Z</time>
      </trkpt>
      <trkpt lat="49.75576" lon="2.175">
        <ele>96.6</ele>
        <time>2022-05-11T13:59:21Z</time>
      </trkpt>
      <trkpt lat="49.75576" lon="2.17503">
        <ele>96.6</ele>
        <time>2022-05-11T13:59:22Z</time>
      </trkpt>
      <trkpt lat="49.75576" lon="2.17505">
        <ele>96.6</ele>
        <time>2022-05-11T13:59:24Z</time>
      </trkpt>
      <trkpt lat="49.75576" lon="2.17506">
        <ele>96.6</ele>
        <time>2022-05-11T13:59:25Z</time>
      </trkpt>
      <trkpt lat="49.75576" lon="2.17508">
        <ele>96.6</ele>
        <time>2022-05-11T13:59:26Z</time>
      </trkpt>
      <trkpt lat="49.75576" lon="2.17509">
        <ele>96.6</ele>
        <time>2022-05-11T13:59:27Z</time>
      </trkpt>
      <trkpt lat="49.75576" lon="2.17512">
        <ele>96.6</ele>
        <time>2022-05-11T13:59:28Z</time>
      </trkpt>
      <trkpt lat="49.75576" lon="2.17514">
        <ele>96.6</ele>
        <time>2022-05-11T13:59:29Z</time>
      </trkpt>
      <trkpt lat="49.75577" lon="2.17515">
        <ele>96.6</ele>
        <time>2022-05-11T13:59:30Z</time>
      </trkpt>
      <trkpt lat="49.75576" lon="2.17518">
        <ele>96.6</ele>
        <time>2022-05-11T13:59:31Z</time>
      </trkpt>
      <trkpt lat="49.75576" lon="2.17519">
        <ele>96.6</ele>
        <time>2022-05-11T13:59:32Z</time>
      </trkpt>
      <trkpt lat="49.75576" lon="2.17521">
        <ele>96.6</ele>
        <time>2022-05-11T13:59:33Z</time>
      </trkpt>
      <trkpt lat="49.75576" lon="2.17524">
        <ele>96.6</ele>
        <time>2022-05-11T13:59:35Z</time>
      </trkpt>
      <trkpt lat="49.75576" lon="2.17525">
        <ele>96.6</ele>
        <time>2022-05-11T13:59:36Z</time>
      </trkpt>
      <trkpt lat="49.75575" lon="2.17527">
        <ele>96.6</ele>
        <time>2022-05-11T13:59:38Z</time>
      </trkpt>
      <trkpt lat="49.75575" lon="2.17529">
        <ele>96.7</ele>
        <time>2022-05-11T13:59:39Z</time>
      </trkpt>
      <trkpt lat="49.75575" lon="2.17533">
        <ele>96.7</ele>
        <time>2022-05-11T13:59:40Z</time>
      </trkpt>
      <trkpt lat="49.75575" lon="2.17538">
        <ele>96.7</ele>
        <time>2022-05-11T13:59:42Z</time>
      </trkpt>
      <trkpt lat="49.75575" lon="2.17543">
        <ele>96.7</ele>
        <time>2022-05-11T13:59:43Z</time>
      </trkpt>
      <trkpt lat="49.75575" lon="2.17545">
        <ele>96.7</ele>
        <time>2022-05-11T13:59:44Z</time>
      </trkpt>
      <trkpt lat="49.75575" lon="2.17548">
        <ele>96.7</ele>
        <time>2022-05-11T13:59:45Z</time>
      </trkpt>
      <trkpt lat="49.75574" lon="2.1755">
        <ele>96.7</ele>
        <time>2022-05-11T13:59:46Z</time>
      </trkpt>
      <trkpt lat="49.75574" lon="2.17552">
        <ele>96.7</ele>
        <time>2022-05-11T13:59:47Z</time>
      </trkpt>
      <trkpt lat="49.75574" lon="2.17553">
        <ele>96.7</ele>
        <time>2022-05-11T13:59:48Z</time>
      </trkpt>
      <trkpt lat="49.75574" lon="2.17555">
        <ele>96.7</ele>
        <time>2022-05-11T13:59:49Z</time>
      </trkpt>
      <trkpt lat="49.75574" lon="2.17558">
        <ele>96.7</ele>
        <time>2022-05-11T13:59:50Z</time>
      </trkpt>
      <trkpt lat="49.75574" lon="2.1756">
        <ele>96.7</ele>
        <time>2022-05-11T13:59:52Z</time>
      </trkpt>
      <trkpt lat="49.75574" lon="2.17561">
        <ele>96.7</ele>
        <time>2022-05-11T13:59:53Z</time>
      </trkpt>
      <trkpt lat="49.75574" lon="2.17564">
        <ele>96.7</ele>
        <time>2022-05-11T13:59:54Z</time>
      </trkpt>
      <trkpt lat="49.75574" lon="2.17566">
        <ele>96.7</ele>
        <time>2022-05-11T13:59:55Z</time>
      </trkpt>
      <trkpt lat="49.75574" lon="2.17568">
        <ele>96.7</ele>
        <time>2022-05-11T13:59:56Z</time>
      </trkpt>
      <trkpt lat="49.75574" lon="2.1757">
        <ele>96.7</ele>
        <time>2022-05-11T13:59:57Z</time>
      </trkpt>
      <trkpt lat="49.75574" lon="2.17572">
        <ele>96.7</ele>
        <time>2022-05-11T13:59:58Z</time>
      </trkpt>
      <trkpt lat="49.75574" lon="2.17576">
        <ele>96.6</ele>
        <time>2022-05-11T14:00:00Z</time>
      </trkpt>
      <trkpt lat="49.75574" lon="2.17577">
        <ele>96.6</ele>
        <time>2022-05-11T14:00:01Z</time>
      </trkpt>
      <trkpt lat="49.75574" lon="2.17579">
        <ele>96.6</ele>
        <time>2022-05-11T14:00:02Z</time>
      </trkpt>
      <trkpt lat="49.75575" lon="2.17583">
        <ele>96.6</ele>
        <time>2022-05-11T14:00:04Z</time>
      </trkpt>
      <trkpt lat="49.75575" lon="2.17585">
        <ele>96.6</ele>
        <time>2022-05-11T14:00:05Z</time>
      </trkpt>
      <trkpt lat="49.75576" lon="2.17586">
        <ele>96.6</ele>
        <time>2022-05-11T14:00:06Z</time>
      </trkpt>
      <trkpt lat="49.75576" lon="2.17588">
        <ele>96.6</ele>
        <time>2022-05-11T14:00:07Z</time>
      </trkpt>
      <trkpt lat="49.75576" lon="2.17588">
        <ele>96.6</ele>
        <time>2022-05-11T14:00:08Z</time>
      </trkpt>
      <trkpt lat="49.75576" lon="2.17588">
        <ele>96.6</ele>
        <time>2022-05-11T14:00:09Z</time>
      </trkpt>
      <trkpt lat="49.75576" lon="2.1759">
        <ele>96.6</ele>
        <time>2022-05-11T14:00:10Z</time>
      </trkpt>
      <trkpt lat="49.75576" lon="2.17592">
        <ele>96.6</ele>
        <time>2022-05-11T14:00:11Z</time>
      </trkpt>
      <trkpt lat="49.75576" lon="2.17597">
        <ele>96.6</ele>
        <time>2022-05-11T14:00:13Z</time>
      </trkpt>
      <trkpt lat="49.75576" lon="2.17598">
        <ele>96.6</ele>
        <time>2022-05-11T14:00:14Z</time>
      </trkpt>
      <trkpt lat="49.75576" lon="2.176">
        <ele>96.6</ele>
        <time>2022-05-11T14:00:15Z</time>
      </trkpt>
      <trkpt lat="49.75577" lon="2.17602">
        <ele>96.6</ele>
        <time>2022-05-11T14:00:16Z</time>
      </trkpt>
      <trkpt lat="49.75577" lon="2.17604">
        <ele>96.5</ele>
        <time>2022-05-11T14:00:17Z</time>
      </trkpt>
      <trkpt lat="49.75577" lon="2.17606">
        <ele>96.5</ele>
        <time>2022-05-11T14:00:18Z</time>
      </trkpt>
      <trkpt lat="49.75577" lon="2.17607">
        <ele>96.5</ele>
        <time>2022-05-11T14:00:19Z</time>
      </trkpt>
      <trkpt lat="49.75577" lon="2.1761">
        <ele>96.5</ele>
        <time>2022-05-11T14:00:20Z</time>
      </trkpt>
      <trkpt lat="49.75577" lon="2.17612">
        <ele>96.5</ele>
        <time>2022-05-11T14:00:22Z</time>
      </trkpt>
      <trkpt lat="49.75577" lon="2.17612">
        <ele>96.5</ele>
        <time>2022-05-11T14:00:23Z</time>
      </trkpt>
      <trkpt lat="49.75577" lon="2.17613">
        <ele>96.5</ele>
        <time>2022-05-11T14:00:24Z</time>
      </trkpt>
      <trkpt lat="49.75577" lon="2.17614">
        <ele>96.5</ele>
        <time>2022-05-11T14:00:25Z</time>
      </trkpt>
      <trkpt lat="49.75577" lon="2.17617">
        <ele>96.5</ele>
        <time>2022-05-11T14:00:26Z</time>
      </trkpt>
      <trkpt lat="49.75578" lon="2.17619">
        <ele>96.5</ele>
        <time>2022-05-11T14:00:27Z</time>
      </trkpt>
      <trkpt lat="49.75578" lon="2.17621">
        <ele>96.4</ele>
        <time>2022-05-11T14:00:28Z</time>
      </trkpt>
      <trkpt lat="49.75578" lon="2.17623">
        <ele>96.4</ele>
        <time>2022-05-11T14:00:29Z</time>
      </trkpt>
      <trkpt lat="49.75579" lon="2.17625">
        <ele>96.4</ele>
        <time>2022-05-11T14:00:30Z</time>
      </trkpt>
      <trkpt lat="49.75579" lon="2.17629">
        <ele>96.4</ele>
        <time>2022-05-11T14:00:32Z</time>
      </trkpt>
      <trkpt lat="49.75579" lon="2.1763">
        <ele>96.4</ele>
        <time>2022-05-11T14:00:33Z</time>
      </trkpt>
      <trkpt lat="49.75579" lon="2.17632">
        <ele>96.4</ele>
        <time>2022-05-11T14:00:34Z</time>
      </trkpt>
      <trkpt lat="49.7558" lon="2.17634">
        <ele>96.3</ele>
        <time>2022-05-11T14:00:35Z</time>
      </trkpt>
      <trkpt lat="49.75581" lon="2.17636">
        <ele>96.3</ele>
        <time>2022-05-11T14:00:36Z</time>
      </trkpt>
      <trkpt lat="49.75583" lon="2.1764">
        <ele>96.3</ele>
        <time>2022-05-11T14:00:38Z</time>
      </trkpt>
      <trkpt lat="49.75583" lon="2.17641">
        <ele>96.3</ele>
        <time>2022-05-11T14:00:39Z</time>
      </trkpt>
      <trkpt lat="49.75584" lon="2.17642">
        <ele>96.3</ele>
        <time>2022-05-11T14:00:40Z</time>
      </trkpt>
      <trkpt lat="49.75585" lon="2.17644">
        <ele>96.3</ele>
        <time>2022-05-11T14:00:41Z</time>
      </trkpt>
      <trkpt lat="49.75586" lon="2.17646">
        <ele>96.2</ele>
        <time>2022-05-11T14:00:42Z</time>
      </trkpt>
      <trkpt lat="49.75586" lon="2.17647">
        <ele>96.2</ele>
        <time>2022-05-11T14:00:43Z</time>
      </trkpt>
      <trkpt lat="49.75588" lon="2.1765">
        <ele>96.2</ele>
        <time>2022-05-11T14:00:45Z</time>
      </trkpt>
      <trkpt lat="49.75589" lon="2.17651">
        <ele>96.2</ele>
        <time>2022-05-11T14:00:46Z</time>
      </trkpt>
      <trkpt lat="49.75591" lon="2.17654">
        <ele>96.2</ele>
        <time>2022-05-11T14:00:48Z</time>
      </trkpt>
      <trkpt lat="49.75592" lon="2.17655">
        <ele>96.2</ele>
        <time>2022-05-11T14:00:49Z</time>
      </trkpt>
      <trkpt lat="49.75593" lon="2.17657">
        <ele>96.1</ele>
        <time>2022-05-11T14:00:50Z</time>
      </trkpt>
      <trkpt lat="49.75594" lon="2.17658">
        <ele>96.1</ele>
        <time>2022-05-11T14:00:51Z</time>
      </trkpt>
      <trkpt lat="49.75595" lon="2.17661">
        <ele>96.1</ele>
        <time>2022-05-11T14:00:53Z</time>
      </trkpt>
      <trkpt lat="49.75596" lon="2.17663">
        <ele>96.1</ele>
        <time>2022-05-11T14:00:54Z</time>
      </trkpt>
      <trkpt lat="49.75597" lon="2.17664">
        <ele>95.9</ele>
        <time>2022-05-11T14:00:55Z</time>
      </trkpt>
      <trkpt lat="49.75598" lon="2.17665">
        <ele>95.9</ele>
        <time>2022-05-11T14:00:56Z</time>
      </trkpt>
      <trkpt lat="49.75599" lon="2.17668">
        <ele>95.8</ele>
        <time>2022-05-11T14:00:57Z</time>
      </trkpt>
      <trkpt lat="49.75599" lon="2.17669">
        <ele>95.8</ele>
        <time>2022-05-11T14:00:58Z</time>
      </trkpt>
      <trkpt lat="49.756" lon="2.17671">
        <ele>95.7</ele>
        <time>2022-05-11T14:00:59Z</time>
      </trkpt>
      <trkpt lat="49.75601" lon="2.17671">
        <ele>95.7</ele>
        <time>2022-05-11T14:01:00Z</time>
      </trkpt>
      <trkpt lat="49.75601" lon="2.17672">
        <ele>95.7</ele>
        <time>2022-05-11T14:01:01Z</time>
      </trkpt>
      <trkpt lat="49.75603" lon="2.17673">
        <ele>95.6</ele>
        <time>2022-05-11T14:01:03Z</time>
      </trkpt>
      <trkpt lat="49.75605" lon="2.17674">
        <ele>95.5</ele>
        <time>2022-05-11T14:01:04Z</time>
      </trkpt>
      <trkpt lat="49.75606" lon="2.17674">
        <ele>95.5</ele>
        <time>2022-05-11T14:01:05Z</time>
      </trkpt>
      <trkpt lat="49.75607" lon="2.17675">
        <ele>95.5</ele>
        <time>2022-05-11T14:01:06Z</time>
      </trkpt>
      <trkpt lat="49.75608" lon="2.17675">
        <ele>95.4</ele>
        <time>2022-05-11T14:01:07Z</time>
      </trkpt>
      <trkpt lat="49.75609" lon="2.17674">
        <ele>95.4</ele>
        <time>2022-05-11T14:01:08Z</time>
      </trkpt>
      <trkpt lat="49.7561" lon="2.17672">
        <ele>95.3</ele>
        <time>2022-05-11T14:01:10Z</time>
      </trkpt>
      <trkpt lat="49.75611" lon="2.17671">
        <ele>95.3</ele>
        <time>2022-05-11T14:01:11Z</time>
      </trkpt>
      <trkpt lat="49.75612" lon="2.17671">
        <ele>95.3</ele>
        <time>2022-05-11T14:01:12Z</time>
      </trkpt>
      <trkpt lat="49.75613" lon="2.17671">
        <ele>95.2</ele>
        <time>2022-05-11T14:01:13Z</time>
      </trkpt>
      <trkpt lat="49.75614" lon="2.17671">
        <ele>95.2</ele>
        <time>2022-05-11T14:01:14Z</time>
      </trkpt>
      <trkpt lat="49.75615" lon="2.17671">
        <ele>95.2</ele>
        <time>2022-05-11T14:01:15Z</time>
      </trkpt>
      <trkpt lat="49.75616" lon="2.17671">
        <ele>95.1</ele>
        <time>2022-05-11T14:01:16Z</time>
      </trkpt>
      <trkpt lat="49.75617" lon="2.17671">
        <ele>95.1</ele>
        <time>2022-05-11T14:01:17Z</time>
      </trkpt>
      <trkpt lat="49.75618" lon="2.17671">
        <ele>95</ele>
        <time>2022-05-11T14:01:18Z</time>
      </trkpt>
      <trkpt lat="49.75619" lon="2.1767">
        <ele>95</ele>
        <time>2022-05-11T14:01:20Z</time>
      </trkpt>
      <trkpt lat="49.75621" lon="2.1767">
        <ele>94.9</ele>
        <time>2022-05-11T14:01:21Z</time>
      </trkpt>
      <trkpt lat="49.75623" lon="2.17669">
        <ele>94.9</ele>
        <time>2022-05-11T14:01:22Z</time>
      </trkpt>
      <trkpt lat="49.75624" lon="2.17669">
        <ele>94.8</ele>
        <time>2022-05-11T14:01:23Z</time>
      </trkpt>
      <trkpt lat="49.75626" lon="2.17668">
        <ele>94.8</ele>
        <time>2022-05-11T14:01:24Z</time>
      </trkpt>
      <trkpt lat="49.75629" lon="2.17668">
        <ele>94.7</ele>
        <time>2022-05-11T14:01:26Z</time>
      </trkpt>
      <trkpt lat="49.7563" lon="2.17667">
        <ele>94.7</ele>
        <time>2022-05-11T14:01:27Z</time>
      </trkpt>
      <trkpt lat="49.7563" lon="2.17667">
        <ele>94.6</ele>
        <time>2022-05-11T14:01:28Z</time>
      </trkpt>
      <trkpt lat="49.75631" lon="2.17667">
        <ele>94.6</ele>
        <time>2022-05-11T14:01:29Z</time>
      </trkpt>
      <trkpt lat="49.75632" lon="2.17667">
        <ele>94.6</ele>
        <time>2022-05-11T14:01:30Z</time>
      </trkpt>
      <trkpt lat="49.75633" lon="2.17667">
        <ele>94.6</ele>
        <time>2022-05-11T14:01:31Z</time>
      </trkpt>
      <trkpt lat="49.75634" lon="2.17666">
        <ele>94.5</ele>
        <time>2022-05-11T14:01:32Z</time>
      </trkpt>
      <trkpt lat="49.75635" lon="2.17666">
        <ele>94.5</ele>
        <time>2022-05-11T14:01:33Z</time>
      </trkpt>
      <trkpt lat="49.75637" lon="2.17666">
        <ele>94.4</ele>
        <time>2022-05-11T14:01:35Z</time>
      </trkpt>
      <trkpt lat="49.75638" lon="2.17666">
        <ele>94.4</ele>
        <time>2022-05-11T14:01:36Z</time>
      </trkpt>
      <trkpt lat="49.75639" lon="2.17665">
        <ele>94.4</ele>
        <time>2022-05-11T14:01:37Z</time>
      </trkpt>
      <trkpt lat="49.7564" lon="2.17665">
        <ele>94.3</ele>
        <time>2022-05-11T14:01:38Z</time>
      </trkpt>
      <trkpt lat="49.75642" lon="2.17664">
        <ele>94.3</ele>
        <time>2022-05-11T14:01:39Z</time>
      </trkpt>
      <trkpt lat="49.75643" lon="2.17664">
        <ele>94.2</ele>
        <time>2022-05-11T14:01:40Z</time>
      </trkpt>
      <trkpt lat="49.75645" lon="2.17663">
        <ele>94.2</ele>
        <time>2022-05-11T14:01:41Z</time>
      </trkpt>
      <trkpt lat="49.75647" lon="2.17662">
        <ele>94.1</ele>
        <time>2022-05-11T14:01:42Z</time>
      </trkpt>
      <trkpt lat="49.75648" lon="2.17662">
        <ele>94</ele>
        <time>2022-05-11T14:01:44Z</time>
      </trkpt>
      <trkpt lat="49.75649" lon="2.17662">
        <ele>94</ele>
        <time>2022-05-11T14:01:45Z</time>
      </trkpt>
      <trkpt lat="49.75651" lon="2.17661">
        <ele>94</ele>
        <time>2022-05-11T14:01:46Z</time>
      </trkpt>
      <trkpt lat="49.75652" lon="2.17661">
        <ele>93.9</ele>
        <time>2022-05-11T14:01:47Z</time>
      </trkpt>
      <trkpt lat="49.75654" lon="2.17661">
        <ele>93.9</ele>
        <time>2022-05-11T14:01:48Z</time>
      </trkpt>
      <trkpt lat="49.75655" lon="2.1766">
        <ele>93.8</ele>
        <time>2022-05-11T14:01:50Z</time>
      </trkpt>
      <trkpt lat="49.75656" lon="2.1766">
        <ele>93.8</ele>
        <time>2022-05-11T14:01:51Z</time>
      </trkpt>
      <trkpt lat="49.75658" lon="2.17659">
        <ele>93.7</ele>
        <time>2022-05-11T14:01:52Z</time>
      </trkpt>
      <trkpt lat="49.75659" lon="2.17659">
        <ele>93.7</ele>
        <time>2022-05-11T14:01:53Z</time>
      </trkpt>
      <trkpt lat="49.75659" lon="2.17659">
        <ele>93.7</ele>
        <time>2022-05-11T14:01:54Z</time>
      </trkpt>
      <trkpt lat="49.75661" lon="2.17659">
        <ele>93.6</ele>
        <time>2022-05-11T14:01:55Z</time>
      </trkpt>
      <trkpt lat="49.75662" lon="2.17659">
        <ele>93.6</ele>
        <time>2022-05-11T14:01:56Z</time>
      </trkpt>
      <trkpt lat="49.75663" lon="2.17658">
        <ele>93.6</ele>
        <time>2022-05-11T14:01:57Z</time>
      </trkpt>
      <trkpt lat="49.75664" lon="2.17658">
        <ele>93.6</ele>
        <time>2022-05-11T14:01:58Z</time>
      </trkpt>
      <trkpt lat="49.75665" lon="2.17658">
        <ele>93.5</ele>
        <time>2022-05-11T14:01:59Z</time>
      </trkpt>
      <trkpt lat="49.75666" lon="2.17658">
        <ele>93.5</ele>
        <time>2022-05-11T14:02:00Z</time>
      </trkpt>
      <trkpt lat="49.75667" lon="2.17658">
        <ele>93.5</ele>
        <time>2022-05-11T14:02:01Z</time>
      </trkpt>
      <trkpt lat="49.75668" lon="2.17658">
        <ele>93.4</ele>
        <time>2022-05-11T14:02:02Z</time>
      </trkpt>
      <trkpt lat="49.75669" lon="2.17657">
        <ele>93.4</ele>
        <time>2022-05-11T14:02:04Z</time>
      </trkpt>
      <trkpt lat="49.7567" lon="2.17657">
        <ele>93.4</ele>
        <time>2022-05-11T14:02:05Z</time>
      </trkpt>
      <trkpt lat="49.75673" lon="2.17657">
        <ele>93.3</ele>
        <time>2022-05-11T14:02:07Z</time>
      </trkpt>
      <trkpt lat="49.75674" lon="2.17657">
        <ele>93.3</ele>
        <time>2022-05-11T14:02:08Z</time>
      </trkpt>
      <trkpt lat="49.75675" lon="2.17657">
        <ele>93.2</ele>
        <time>2022-05-11T14:02:09Z</time>
      </trkpt>
      <trkpt lat="49.75676" lon="2.17657">
        <ele>93.2</ele>
        <time>2022-05-11T14:02:10Z</time>
      </trkpt>
      <trkpt lat="49.75678" lon="2.17657">
        <ele>93.1</ele>
        <time>2022-05-11T14:02:12Z</time>
      </trkpt>
      <trkpt lat="49.75679" lon="2.17657">
        <ele>93.1</ele>
        <time>2022-05-11T14:02:13Z</time>
      </trkpt>
      <trkpt lat="49.7568" lon="2.17657">
        <ele>93.1</ele>
        <time>2022-05-11T14:02:14Z</time>
      </trkpt>
      <trkpt lat="49.75682" lon="2.17658">
        <ele>93</ele>
        <time>2022-05-11T14:02:15Z</time>
      </trkpt>
      <trkpt lat="49.75683" lon="2.17658">
        <ele>93</ele>
        <time>2022-05-11T14:02:16Z</time>
      </trkpt>
      <trkpt lat="49.75684" lon="2.17658">
        <ele>93</ele>
        <time>2022-05-11T14:02:17Z</time>
      </trkpt>
      <trkpt lat="49.75686" lon="2.17657">
        <ele>92.9</ele>
        <time>2022-05-11T14:02:19Z</time>
      </trkpt>
      <trkpt lat="49.75687" lon="2.17657">
        <ele>92.8</ele>
        <time>2022-05-11T14:02:20Z</time>
      </trkpt>
      <trkpt lat="49.75689" lon="2.17656">
        <ele>92.8</ele>
        <time>2022-05-11T14:02:21Z</time>
      </trkpt>
      <trkpt lat="49.7569" lon="2.17656">
        <ele>92.8</ele>
        <time>2022-05-11T14:02:22Z</time>
      </trkpt>
      <trkpt lat="49.75693" lon="2.17656">
        <ele>92.7</ele>
        <time>2022-05-11T14:02:24Z</time>
      </trkpt>
      <trkpt lat="49.75695" lon="2.17656">
        <ele>92.6</ele>
        <time>2022-05-11T14:02:25Z</time>
      </trkpt>
      <trkpt lat="49.75696" lon="2.17656">
        <ele>92.6</ele>
        <time>2022-05-11T14:02:26Z</time>
      </trkpt>
      <trkpt lat="49.75697" lon="2.17655">
        <ele>92.5</ele>
        <time>2022-05-11T14:02:27Z</time>
      </trkpt>
      <trkpt lat="49.75698" lon="2.17656">
        <ele>92.5</ele>
        <time>2022-05-11T14:02:28Z</time>
      </trkpt>
      <trkpt lat="49.75699" lon="2.17656">
        <ele>92.4</ele>
        <time>2022-05-11T14:02:29Z</time>
      </trkpt>
      <trkpt lat="49.75701" lon="2.17656">
        <ele>92.4</ele>
        <time>2022-05-11T14:02:30Z</time>
      </trkpt>
      <trkpt lat="49.75702" lon="2.17656">
        <ele>92.4</ele>
        <time>2022-05-11T14:02:32Z</time>
      </trkpt>
      <trkpt lat="49.75703" lon="2.17656">
        <ele>92.3</ele>
        <time>2022-05-11T14:02:33Z</time>
      </trkpt>
      <trkpt lat="49.75705" lon="2.17656">
        <ele>92.3</ele>
        <time>2022-05-11T14:02:34Z</time>
      </trkpt>
      <trkpt lat="49.75706" lon="2.17656">
        <ele>92.2</ele>
        <time>2022-05-11T14:02:35Z</time>
      </trkpt>
      <trkpt lat="49.75708" lon="2.17656">
        <ele>92.2</ele>
        <time>2022-05-11T14:02:37Z</time>
      </trkpt>
      <trkpt lat="49.7571" lon="2.17656">
        <ele>92.1</ele>
        <time>2022-05-11T14:02:38Z</time>
      </trkpt>
      <trkpt lat="49.75711" lon="2.17657">
        <ele>92.1</ele>
        <time>2022-05-11T14:02:39Z</time>
      </trkpt>
      <trkpt lat="49.75712" lon="2.17657">
        <ele>92</ele>
        <time>2022-05-11T14:02:40Z</time>
      </trkpt>
      <trkpt lat="49.75713" lon="2.17657">
        <ele>92</ele>
        <time>2022-05-11T14:02:41Z</time>
      </trkpt>
      <trkpt lat="49.75714" lon="2.17658">
        <ele>91.9</ele>
        <time>2022-05-11T14:02:42Z</time>
      </trkpt>
      <trkpt lat="49.75715" lon="2.17658">
        <ele>91.9</ele>
        <time>2022-05-11T14:02:43Z</time>
      </trkpt>
      <trkpt lat="49.75716" lon="2.17658">
        <ele>91.9</ele>
        <time>2022-05-11T14:02:44Z</time>
      </trkpt>
      <trkpt lat="49.75718" lon="2.17658">
        <ele>91.8</ele>
        <time>2022-05-11T14:02:46Z</time>
      </trkpt>
      <trkpt lat="49.75721" lon="2.17657">
        <ele>91.7</ele>
        <time>2022-05-11T14:02:47Z</time>
      </trkpt>
      <trkpt lat="49.75722" lon="2.17657">
        <ele>91.7</ele>
        <time>2022-05-11T14:02:48Z</time>
      </trkpt>
      <trkpt lat="49.75723" lon="2.17657">
        <ele>91.6</ele>
        <time>2022-05-11T14:02:49Z</time>
      </trkpt>
      <trkpt lat="49.75725" lon="2.17657">
        <ele>91.5</ele>
        <time>2022-05-11T14:02:50Z</time>
      </trkpt>
      <trkpt lat="49.75726" lon="2.17657">
        <ele>91.5</ele>
        <time>2022-05-11T14:02:52Z</time>
      </trkpt>
      <trkpt lat="49.75727" lon="2.17657">
        <ele>91.5</ele>
        <time>2022-05-11T14:02:53Z</time>
      </trkpt>
      <trkpt lat="49.75728" lon="2.17657">
        <ele>91.5</ele>
        <time>2022-05-11T14:02:54Z</time>
      </trkpt>
      <trkpt lat="49.75729" lon="2.17657">
        <ele>91.4</ele>
        <time>2022-05-11T14:02:55Z</time>
      </trkpt>
      <trkpt lat="49.7573" lon="2.17656">
        <ele>91.4</ele>
        <time>2022-05-11T14:02:56Z</time>
      </trkpt>
      <trkpt lat="49.75732" lon="2.17656">
        <ele>91.4</ele>
        <time>2022-05-11T14:02:57Z</time>
      </trkpt>
      <trkpt lat="49.75733" lon="2.17656">
        <ele>91.3</ele>
        <time>2022-05-11T14:02:58Z</time>
      </trkpt>
      <trkpt lat="49.75735" lon="2.17656">
        <ele>91.3</ele>
        <time>2022-05-11T14:02:59Z</time>
      </trkpt>
      <trkpt lat="49.75736" lon="2.17656">
        <ele>91.3</ele>
        <time>2022-05-11T14:03:01Z</time>
      </trkpt>
      <trkpt lat="49.75738" lon="2.17655">
        <ele>91.2</ele>
        <time>2022-05-11T14:03:02Z</time>
      </trkpt>
      <trkpt lat="49.75739" lon="2.17655">
        <ele>91.2</ele>
        <time>2022-05-11T14:03:03Z</time>
      </trkpt>
      <trkpt lat="49.75742" lon="2.17655">
        <ele>91.1</ele>
        <time>2022-05-11T14:03:05Z</time>
      </trkpt>
      <trkpt lat="49.75743" lon="2.17654">
        <ele>91.1</ele>
        <time>2022-05-11T14:03:06Z</time>
      </trkpt>
      <trkpt lat="49.75744" lon="2.17654">
        <ele>91.1</ele>
        <time>2022-05-11T14:03:07Z</time>
      </trkpt>
      <trkpt lat="49.75745" lon="2.17654">
        <ele>91.1</ele>
        <time>2022-05-11T14:03:08Z</time>
      </trkpt>
      <trkpt lat="49.75746" lon="2.17654">
        <ele>91.1</ele>
        <time>2022-05-11T14:03:09Z</time>
      </trkpt>
      <trkpt lat="49.75747" lon="2.17654">
        <ele>91</ele>
        <time>2022-05-11T14:03:10Z</time>
      </trkpt>
      <trkpt lat="49.75749" lon="2.17654">
        <ele>91</ele>
        <time>2022-05-11T14:03:11Z</time>
      </trkpt>
      <trkpt lat="49.7575" lon="2.17654">
        <ele>91</ele>
        <time>2022-05-11T14:03:12Z</time>
      </trkpt>
      <trkpt lat="49.75752" lon="2.17653">
        <ele>91</ele>
        <time>2022-05-11T14:03:14Z</time>
      </trkpt>
      <trkpt lat="49.75753" lon="2.17653">
        <ele>90.9</ele>
        <time>2022-05-11T14:03:15Z</time>
      </trkpt>
      <trkpt lat="49.75755" lon="2.17652">
        <ele>90.9</ele>
        <time>2022-05-11T14:03:16Z</time>
      </trkpt>
      <trkpt lat="49.75756" lon="2.17652">
        <ele>90.9</ele>
        <time>2022-05-11T14:03:17Z</time>
      </trkpt>
      <trkpt lat="49.75758" lon="2.17651">
        <ele>90.8</ele>
        <time>2022-05-11T14:03:18Z</time>
      </trkpt>
      <trkpt lat="49.7576" lon="2.17651">
        <ele>90.8</ele>
        <time>2022-05-11T14:03:19Z</time>
      </trkpt>
      <trkpt lat="49.75761" lon="2.1765">
        <ele>90.8</ele>
        <time>2022-05-11T14:03:20Z</time>
      </trkpt>
      <trkpt lat="49.75762" lon="2.1765">
        <ele>90.8</ele>
        <time>2022-05-11T14:03:21Z</time>
      </trkpt>
      <trkpt lat="49.75763" lon="2.1765">
        <ele>90.7</ele>
        <time>2022-05-11T14:03:22Z</time>
      </trkpt>
      <trkpt lat="49.75765" lon="2.17649">
        <ele>90.7</ele>
        <time>2022-05-11T14:03:23Z</time>
      </trkpt>
      <trkpt lat="49.75768" lon="2.17648">
        <ele>90.7</ele>
        <time>2022-05-11T14:03:25Z</time>
      </trkpt>
      <trkpt lat="49.75769" lon="2.17648">
        <ele>90.7</ele>
        <time>2022-05-11T14:03:26Z</time>
      </trkpt>
      <trkpt lat="49.7577" lon="2.17648">
        <ele>90.6</ele>
        <time>2022-05-11T14:03:27Z</time>
      </trkpt>
      <trkpt lat="49.75771" lon="2.17648">
        <ele>90.6</ele>
        <time>2022-05-11T14:03:28Z</time>
      </trkpt>
      <trkpt lat="49.75772" lon="2.17648">
        <ele>90.6</ele>
        <time>2022-05-11T14:03:29Z</time>
      </trkpt>
      <trkpt lat="49.75772" lon="2.17648">
        <ele>90.6</ele>
        <time>2022-05-11T14:03:30Z</time>
      </trkpt>
      <trkpt lat="49.75773" lon="2.17648">
        <ele>90.6</ele>
        <time>2022-05-11T14:03:31Z</time>
      </trkpt>
      <trkpt lat="49.75774" lon="2.17648">
        <ele>90.6</ele>
        <time>2022-05-11T14:03:32Z</time>
      </trkpt>
      <trkpt lat="49.75776" lon="2.17648">
        <ele>90.6</ele>
        <time>2022-05-11T14:03:33Z</time>
      </trkpt>
      <trkpt lat="49.75777" lon="2.17647">
        <ele>90.6</ele>
        <time>2022-05-11T14:03:34Z</time>
      </trkpt>
      <trkpt lat="49.75778" lon="2.17647">
        <ele>90.5</ele>
        <time>2022-05-11T14:03:35Z</time>
      </trkpt>
      <trkpt lat="49.7578" lon="2.17646">
        <ele>90.5</ele>
        <time>2022-05-11T14:03:36Z</time>
      </trkpt>
      <trkpt lat="49.75781" lon="2.17646">
        <ele>90.5</ele>
        <time>2022-05-11T14:03:38Z</time>
      </trkpt>
      <trkpt lat="49.75782" lon="2.17646">
        <ele>90.5</ele>
        <time>2022-05-11T14:03:39Z</time>
      </trkpt>
      <trkpt lat="49.75784" lon="2.17646">
        <ele>90.5</ele>
        <time>2022-05-11T14:03:40Z</time>
      </trkpt>
      <trkpt lat="49.75785" lon="2.17645">
        <ele>90.5</ele>
        <time>2022-05-11T14:03:41Z</time>
      </trkpt>
      <trkpt lat="49.75786" lon="2.17645">
        <ele>90.4</ele>
        <time>2022-05-11T14:03:42Z</time>
      </trkpt>
      <trkpt lat="49.75787" lon="2.17645">
        <ele>90.4</ele>
        <time>2022-05-11T14:03:43Z</time>
      </trkpt>
      <trkpt lat="49.75788" lon="2.17645">
        <ele>90.4</ele>
        <time>2022-05-11T14:03:44Z</time>
      </trkpt>
      <trkpt lat="49.75789" lon="2.17644">
        <ele>90.4</ele>
        <time>2022-05-11T14:03:45Z</time>
      </trkpt>
      <trkpt lat="49.75792" lon="2.17644">
        <ele>90.4</ele>
        <time>2022-05-11T14:03:47Z</time>
      </trkpt>
      <trkpt lat="49.75793" lon="2.17644">
        <ele>90.4</ele>
        <time>2022-05-11T14:03:48Z</time>
      </trkpt>
      <trkpt lat="49.75794" lon="2.17644">
        <ele>90.3</ele>
        <time>2022-05-11T14:03:49Z</time>
      </trkpt>
      <trkpt lat="49.75795" lon="2.17644">
        <ele>90.3</ele>
        <time>2022-05-11T14:03:50Z</time>
      </trkpt>
      <trkpt lat="49.75796" lon="2.17644">
        <ele>90.3</ele>
        <time>2022-05-11T14:03:51Z</time>
      </trkpt>
      <trkpt lat="49.75797" lon="2.17644">
        <ele>90.3</ele>
        <time>2022-05-11T14:03:52Z</time>
      </trkpt>
      <trkpt lat="49.75798" lon="2.17644">
        <ele>90.3</ele>
        <time>2022-05-11T14:03:53Z</time>
      </trkpt>
      <trkpt lat="49.75799" lon="2.17644">
        <ele>90.3</ele>
        <time>2022-05-11T14:03:54Z</time>
      </trkpt>
      <trkpt lat="49.758" lon="2.17644">
        <ele>90.2</ele>
        <time>2022-05-11T14:03:55Z</time>
      </trkpt>
      <trkpt lat="49.75801" lon="2.17643">
        <ele>90.2</ele>
        <time>2022-05-11T14:03:56Z</time>
      </trkpt>
      <trkpt lat="49.75802" lon="2.17643">
        <ele>90.2</ele>
        <time>2022-05-11T14:03:57Z</time>
      </trkpt>
      <trkpt lat="49.75803" lon="2.17643">
        <ele>90.2</ele>
        <time>2022-05-11T14:03:59Z</time>
      </trkpt>
      <trkpt lat="49.75804" lon="2.17643">
        <ele>90.2</ele>
        <time>2022-05-11T14:04:00Z</time>
      </trkpt>
      <trkpt lat="49.75805" lon="2.17643">
        <ele>90.2</ele>
        <time>2022-05-11T14:04:01Z</time>
      </trkpt>
      <trkpt lat="49.75805" lon="2.17643">
        <ele>90.2</ele>
        <time>2022-05-11T14:04:02Z</time>
      </trkpt>
      <trkpt lat="49.75808" lon="2.17643">
        <ele>90.1</ele>
        <time>2022-05-11T14:04:03Z</time>
      </trkpt>
      <trkpt lat="49.75809" lon="2.17643">
        <ele>90.1</ele>
        <time>2022-05-11T14:04:04Z</time>
      </trkpt>
      <trkpt lat="49.7581" lon="2.17642">
        <ele>90.1</ele>
        <time>2022-05-11T14:04:05Z</time>
      </trkpt>
      <trkpt lat="49.75812" lon="2.17643">
        <ele>90.1</ele>
        <time>2022-05-11T14:04:07Z</time>
      </trkpt>
      <trkpt lat="49.75812" lon="2.17643">
        <ele>90.1</ele>
        <time>2022-05-11T14:04:08Z</time>
      </trkpt>
      <trkpt lat="49.75813" lon="2.17643">
        <ele>90.1</ele>
        <time>2022-05-11T14:04:09Z</time>
      </trkpt>
      <trkpt lat="49.75815" lon="2.17643">
        <ele>90</ele>
        <time>2022-05-11T14:04:10Z</time>
      </trkpt>
      <trkpt lat="49.75816" lon="2.17643">
        <ele>90</ele>
        <time>2022-05-11T14:04:11Z</time>
      </trkpt>
      <trkpt lat="49.75817" lon="2.17643">
        <ele>90</ele>
        <time>2022-05-11T14:04:12Z</time>
      </trkpt>
      <trkpt lat="49.75818" lon="2.17643">
        <ele>90</ele>
        <time>2022-05-11T14:04:13Z</time>
      </trkpt>
      <trkpt lat="49.7582" lon="2.17642">
        <ele>90</ele>
        <time>2022-05-11T14:04:14Z</time>
      </trkpt>
      <trkpt lat="49.75821" lon="2.17642">
        <ele>90</ele>
        <time>2022-05-11T14:04:15Z</time>
      </trkpt>
      <trkpt lat="49.75822" lon="2.17642">
        <ele>89.9</ele>
        <time>2022-05-11T14:04:17Z</time>
      </trkpt>
      <trkpt lat="49.75823" lon="2.17641">
        <ele>89.9</ele>
        <time>2022-05-11T14:04:18Z</time>
      </trkpt>
      <trkpt lat="49.75825" lon="2.17641">
        <ele>89.9</ele>
        <time>2022-05-11T14:04:19Z</time>
      </trkpt>
      <trkpt lat="49.75826" lon="2.17641">
        <ele>89.9</ele>
        <time>2022-05-11T14:04:20Z</time>
      </trkpt>
      <trkpt lat="49.75827" lon="2.17641">
        <ele>89.9</ele>
        <time>2022-05-11T14:04:21Z</time>
      </trkpt>
      <trkpt lat="49.7583" lon="2.1764">
        <ele>89.8</ele>
        <time>2022-05-11T14:04:23Z</time>
      </trkpt>
      <trkpt lat="49.75831" lon="2.1764">
        <ele>89.8</ele>
        <time>2022-05-11T14:04:24Z</time>
      </trkpt>
      <trkpt lat="49.75832" lon="2.1764">
        <ele>89.8</ele>
        <time>2022-05-11T14:04:25Z</time>
      </trkpt>
      <trkpt lat="49.75833" lon="2.17639">
        <ele>89.8</ele>
        <time>2022-05-11T14:04:26Z</time>
      </trkpt>
      <trkpt lat="49.75834" lon="2.17639">
        <ele>89.8</ele>
        <time>2022-05-11T14:04:27Z</time>
      </trkpt>
      <trkpt lat="49.75837" lon="2.17638">
        <ele>89.7</ele>
        <time>2022-05-11T14:04:29Z</time>
      </trkpt>
      <trkpt lat="49.75838" lon="2.17637">
        <ele>89.7</ele>
        <time>2022-05-11T14:04:30Z</time>
      </trkpt>
      <trkpt lat="49.7584" lon="2.17636">
        <ele>89.7</ele>
        <time>2022-05-11T14:04:31Z</time>
      </trkpt>
      <trkpt lat="49.75841" lon="2.17636">
        <ele>89.7</ele>
        <time>2022-05-11T14:04:32Z</time>
      </trkpt>
      <trkpt lat="49.75842" lon="2.17636">
        <ele>89.7</ele>
        <time>2022-05-11T14:04:33Z</time>
      </trkpt>
      <trkpt lat="49.75844" lon="2.17635">
        <ele>89.7</ele>
        <time>2022-05-11T14:04:34Z</time>
      </trkpt>
      <trkpt lat="49.75845" lon="2.17635">
        <ele>89.7</ele>
        <time>2022-05-11T14:04:35Z</time>
      </trkpt>
      <trkpt lat="49.75846" lon="2.17635">
        <ele>89.7</ele>
        <time>2022-05-11T14:04:36Z</time>
      </trkpt>
      <trkpt lat="49.75847" lon="2.17635">
        <ele>89.6</ele>
        <time>2022-05-11T14:04:38Z</time>
      </trkpt>
      <trkpt lat="49.75848" lon="2.17635">
        <ele>89.6</ele>
        <time>2022-05-11T14:04:39Z</time>
      </trkpt>
      <trkpt lat="49.7585" lon="2.17634">
        <ele>89.6</ele>
        <time>2022-05-11T14:04:40Z</time>
      </trkpt>
      <trkpt lat="49.75852" lon="2.17634">
        <ele>89.6</ele>
        <time>2022-05-11T14:04:41Z</time>
      </trkpt>
      <trkpt lat="49.75853" lon="2.17634">
        <ele>89.6</ele>
        <time>2022-05-11T14:04:42Z</time>
      </trkpt>
      <trkpt lat="49.75854" lon="2.17634">
        <ele>89.6</ele>
        <time>2022-05-11T14:04:43Z</time>
      </trkpt>
      <trkpt lat="49.75854" lon="2.17634">
        <ele>89.6</ele>
        <time>2022-05-11T14:04:44Z</time>
      </trkpt>
      <trkpt lat="49.75855" lon="2.17635">
        <ele>89.6</ele>
        <time>2022-05-11T14:04:45Z</time>
      </trkpt>
      <trkpt lat="49.75855" lon="2.17635">
        <ele>89.6</ele>
        <time>2022-05-11T14:04:46Z</time>
      </trkpt>
      <trkpt lat="49.75857" lon="2.17635">
        <ele>89.5</ele>
        <time>2022-05-11T14:04:47Z</time>
      </trkpt>
      <trkpt lat="49.75858" lon="2.17635">
        <ele>89.5</ele>
        <time>2022-05-11T14:04:49Z</time>
      </trkpt>
      <trkpt lat="49.75859" lon="2.17635">
        <ele>89.5</ele>
        <time>2022-05-11T14:04:50Z</time>
      </trkpt>
      <trkpt lat="49.7586" lon="2.17635">
        <ele>89.5</ele>
        <time>2022-05-11T14:04:51Z</time>
      </trkpt>
      <trkpt lat="49.75861" lon="2.17635">
        <ele>89.5</ele>
        <time>2022-05-11T14:04:52Z</time>
      </trkpt>
      <trkpt lat="49.75862" lon="2.17635">
        <ele>89.5</ele>
        <time>2022-05-11T14:04:53Z</time>
      </trkpt>
      <trkpt lat="49.75864" lon="2.17634">
        <ele>89.4</ele>
        <time>2022-05-11T14:04:54Z</time>
      </trkpt>
      <trkpt lat="49.75865" lon="2.17634">
        <ele>89.4</ele>
        <time>2022-05-11T14:04:55Z</time>
      </trkpt>
      <trkpt lat="49.75866" lon="2.17634">
        <ele>89.4</ele>
        <time>2022-05-11T14:04:56Z</time>
      </trkpt>
      <trkpt lat="49.75867" lon="2.17634">
        <ele>89.4</ele>
        <time>2022-05-11T14:04:57Z</time>
      </trkpt>
      <trkpt lat="49.75868" lon="2.17634">
        <ele>89.4</ele>
        <time>2022-05-11T14:04:58Z</time>
      </trkpt>
      <trkpt lat="49.75869" lon="2.17634">
        <ele>89.4</ele>
        <time>2022-05-11T14:05:00Z</time>
      </trkpt>
      <trkpt lat="49.7587" lon="2.17633">
        <ele>89.4</ele>
        <time>2022-05-11T14:05:01Z</time>
      </trkpt>
      <trkpt lat="49.75871" lon="2.17633">
        <ele>89.3</ele>
        <time>2022-05-11T14:05:02Z</time>
      </trkpt>
      <trkpt lat="49.75872" lon="2.17632">
        <ele>89.3</ele>
        <time>2022-05-11T14:05:03Z</time>
      </trkpt>
      <trkpt lat="49.75873" lon="2.17631">
        <ele>89.3</ele>
        <time>2022-05-11T14:05:04Z</time>
      </trkpt>
      <trkpt lat="49.75875" lon="2.17631">
        <ele>89.3</ele>
        <time>2022-05-11T14:05:05Z</time>
      </trkpt>
      <trkpt lat="49.75876" lon="2.17631">
        <ele>89.3</ele>
        <time>2022-05-11T14:05:06Z</time>
      </trkpt>
      <trkpt lat="49.75878" lon="2.17631">
        <ele>89.3</ele>
        <time>2022-05-11T14:05:07Z</time>
      </trkpt>
      <trkpt lat="49.7588" lon="2.1763">
        <ele>89.2</ele>
        <time>2022-05-11T14:05:08Z</time>
      </trkpt>
      <trkpt lat="49.7588" lon="2.1763">
        <ele>89.2</ele>
        <time>2022-05-11T14:05:09Z</time>
      </trkpt>
      <trkpt lat="49.75881" lon="2.1763">
        <ele>89.2</ele>
        <time>2022-05-11T14:05:10Z</time>
      </trkpt>
      <trkpt lat="49.75882" lon="2.1763">
        <ele>89.2</ele>
        <time>2022-05-11T14:05:11Z</time>
      </trkpt>
      <trkpt lat="49.75884" lon="2.1763">
        <ele>89.2</ele>
        <time>2022-05-11T14:05:12Z</time>
      </trkpt>
      <trkpt lat="49.75885" lon="2.17629">
        <ele>89.2</ele>
        <time>2022-05-11T14:05:13Z</time>
      </trkpt>
      <trkpt lat="49.75886" lon="2.17629">
        <ele>89.2</ele>
        <time>2022-05-11T14:05:14Z</time>
      </trkpt>
      <trkpt lat="49.75887" lon="2.17628">
        <ele>89.2</ele>
        <time>2022-05-11T14:05:15Z</time>
      </trkpt>
      <trkpt lat="49.75888" lon="2.17628">
        <ele>89.1</ele>
        <time>2022-05-11T14:05:16Z</time>
      </trkpt>
      <trkpt lat="49.7589" lon="2.17628">
        <ele>89.1</ele>
        <time>2022-05-11T14:05:17Z</time>
      </trkpt>
      <trkpt lat="49.75891" lon="2.17627">
        <ele>89.1</ele>
        <time>2022-05-11T14:05:18Z</time>
      </trkpt>
      <trkpt lat="49.75892" lon="2.17627">
        <ele>89.1</ele>
        <time>2022-05-11T14:05:19Z</time>
      </trkpt>
      <trkpt lat="49.75895" lon="2.17626">
        <ele>89.1</ele>
        <time>2022-05-11T14:05:21Z</time>
      </trkpt>
      <trkpt lat="49.75895" lon="2.17626">
        <ele>89.1</ele>
        <time>2022-05-11T14:05:22Z</time>
      </trkpt>
      <trkpt lat="49.75896" lon="2.17626">
        <ele>89</ele>
        <time>2022-05-11T14:05:23Z</time>
      </trkpt>
      <trkpt lat="49.75897" lon="2.17625">
        <ele>89</ele>
        <time>2022-05-11T14:05:24Z</time>
      </trkpt>
      <trkpt lat="49.75898" lon="2.17625">
        <ele>89</ele>
        <time>2022-05-11T14:05:25Z</time>
      </trkpt>
      <trkpt lat="49.75899" lon="2.17624">
        <ele>89</ele>
        <time>2022-05-11T14:05:26Z</time>
      </trkpt>
      <trkpt lat="49.759" lon="2.17624">
        <ele>89</ele>
        <time>2022-05-11T14:05:27Z</time>
      </trkpt>
      <trkpt lat="49.75902" lon="2.17624">
        <ele>89</ele>
        <time>2022-05-11T14:05:29Z</time>
      </trkpt>
      <trkpt lat="49.75903" lon="2.17624">
        <ele>89</ele>
        <time>2022-05-11T14:05:30Z</time>
      </trkpt>
      <trkpt lat="49.75904" lon="2.17623">
        <ele>89</ele>
        <time>2022-05-11T14:05:31Z</time>
      </trkpt>
      <trkpt lat="49.75905" lon="2.17623">
        <ele>88.9</ele>
        <time>2022-05-11T14:05:32Z</time>
      </trkpt>
      <trkpt lat="49.75907" lon="2.17623">
        <ele>88.9</ele>
        <time>2022-05-11T14:05:33Z</time>
      </trkpt>
      <trkpt lat="49.75908" lon="2.17623">
        <ele>88.9</ele>
        <time>2022-05-11T14:05:34Z</time>
      </trkpt>
      <trkpt lat="49.7591" lon="2.17622">
        <ele>88.9</ele>
        <time>2022-05-11T14:05:35Z</time>
      </trkpt>
      <trkpt lat="49.75911" lon="2.17622">
        <ele>88.9</ele>
        <time>2022-05-11T14:05:36Z</time>
      </trkpt>
      <trkpt lat="49.75913" lon="2.17622">
        <ele>88.8</ele>
        <time>2022-05-11T14:05:38Z</time>
      </trkpt>
      <trkpt lat="49.75915" lon="2.17621">
        <ele>88.8</ele>
        <time>2022-05-11T14:05:39Z</time>
      </trkpt>
      <trkpt lat="49.75917" lon="2.17621">
        <ele>88.8</ele>
        <time>2022-05-11T14:05:40Z</time>
      </trkpt>
      <trkpt lat="49.75918" lon="2.17621">
        <ele>88.8</ele>
        <time>2022-05-11T14:05:41Z</time>
      </trkpt>
      <trkpt lat="49.75919" lon="2.17621">
        <ele>88.7</ele>
        <time>2022-05-11T14:05:42Z</time>
      </trkpt>
      <trkpt lat="49.7592" lon="2.17621">
        <ele>88.7</ele>
        <time>2022-05-11T14:05:43Z</time>
      </trkpt>
      <trkpt lat="49.75922" lon="2.17621">
        <ele>88.7</ele>
        <time>2022-05-11T14:05:44Z</time>
      </trkpt>
      <trkpt lat="49.75924" lon="2.17621">
        <ele>88.7</ele>
        <time>2022-05-11T14:05:45Z</time>
      </trkpt>
      <trkpt lat="49.75925" lon="2.1762">
        <ele>88.7</ele>
        <time>2022-05-11T14:05:47Z</time>
      </trkpt>
      <trkpt lat="49.75925" lon="2.1762">
        <ele>88.7</ele>
        <time>2022-05-11T14:05:48Z</time>
      </trkpt>
      <trkpt lat="49.75926" lon="2.1762">
        <ele>88.6</ele>
        <time>2022-05-11T14:05:49Z</time>
      </trkpt>
      <trkpt lat="49.75927" lon="2.1762">
        <ele>88.6</ele>
        <time>2022-05-11T14:05:50Z</time>
      </trkpt>
      <trkpt lat="49.75929" lon="2.1762">
        <ele>88.6</ele>
        <time>2022-05-11T14:05:52Z</time>
      </trkpt>
      <trkpt lat="49.75929" lon="2.1762">
        <ele>88.6</ele>
        <time>2022-05-11T14:05:53Z</time>
      </trkpt>
      <trkpt lat="49.7593" lon="2.1762">
        <ele>88.6</ele>
        <time>2022-05-11T14:05:54Z</time>
      </trkpt>
      <trkpt lat="49.75931" lon="2.17619">
        <ele>88.6</ele>
        <time>2022-05-11T14:05:55Z</time>
      </trkpt>
      <trkpt lat="49.75932" lon="2.17619">
        <ele>88.6</ele>
        <time>2022-05-11T14:05:56Z</time>
      </trkpt>
      <trkpt lat="49.75934" lon="2.17618">
        <ele>88.6</ele>
        <time>2022-05-11T14:05:57Z</time>
      </trkpt>
      <trkpt lat="49.75934" lon="2.17618">
        <ele>88.5</ele>
        <time>2022-05-11T14:05:58Z</time>
      </trkpt>
      <trkpt lat="49.75934" lon="2.17619">
        <ele>88.5</ele>
        <time>2022-05-11T14:05:59Z</time>
      </trkpt>
      <trkpt lat="49.75936" lon="2.17619">
        <ele>88.5</ele>
        <time>2022-05-11T14:06:00Z</time>
      </trkpt>
      <trkpt lat="49.75939" lon="2.17618">
        <ele>88.5</ele>
        <time>2022-05-11T14:06:02Z</time>
      </trkpt>
      <trkpt lat="49.7594" lon="2.17617">
        <ele>88.5</ele>
        <time>2022-05-11T14:06:03Z</time>
      </trkpt>
      <trkpt lat="49.75943" lon="2.17616">
        <ele>88.5</ele>
        <time>2022-05-11T14:06:05Z</time>
      </trkpt>
      <trkpt lat="49.75943" lon="2.17616">
        <ele>88.5</ele>
        <time>2022-05-11T14:06:06Z</time>
      </trkpt>
      <trkpt lat="49.75945" lon="2.17615">
        <ele>88.4</ele>
        <time>2022-05-11T14:06:07Z</time>
      </trkpt>
      <trkpt lat="49.75946" lon="2.17615">
        <ele>88.4</ele>
        <time>2022-05-11T14:06:08Z</time>
      </trkpt>
      <trkpt lat="49.75947" lon="2.17614">
        <ele>88.4</ele>
        <time>2022-05-11T14:06:09Z</time>
      </trkpt>
      <trkpt lat="49.75949" lon="2.17614">
        <ele>88.4</ele>
        <time>2022-05-11T14:06:10Z</time>
      </trkpt>
      <trkpt lat="49.75951" lon="2.17613">
        <ele>88.4</ele>
        <time>2022-05-11T14:06:11Z</time>
      </trkpt>
      <trkpt lat="49.75952" lon="2.17613">
        <ele>88.4</ele>
        <time>2022-05-11T14:06:13Z</time>
      </trkpt>
      <trkpt lat="49.75953" lon="2.17612">
        <ele>88.4</ele>
        <time>2022-05-11T14:06:14Z</time>
      </trkpt>
      <trkpt lat="49.75954" lon="2.17612">
        <ele>88.3</ele>
        <time>2022-05-11T14:06:15Z</time>
      </trkpt>
      <trkpt lat="49.75955" lon="2.17611">
        <ele>88.3</ele>
        <time>2022-05-11T14:06:16Z</time>
      </trkpt>
      <trkpt lat="49.75957" lon="2.17611">
        <ele>88.3</ele>
        <time>2022-05-11T14:06:17Z</time>
      </trkpt>
      <trkpt lat="49.75958" lon="2.1761">
        <ele>88.3</ele>
        <time>2022-05-11T14:06:18Z</time>
      </trkpt>
      <trkpt lat="49.75959" lon="2.1761">
        <ele>88.3</ele>
        <time>2022-05-11T14:06:19Z</time>
      </trkpt>
      <trkpt lat="49.7596" lon="2.17609">
        <ele>88.3</ele>
        <time>2022-05-11T14:06:20Z</time>
      </trkpt>
      <trkpt lat="49.75961" lon="2.17609">
        <ele>88.3</ele>
        <time>2022-05-11T14:06:21Z</time>
      </trkpt>
      <trkpt lat="49.75962" lon="2.17609">
        <ele>88.3</ele>
        <time>2022-05-11T14:06:22Z</time>
      </trkpt>
      <trkpt lat="49.75963" lon="2.17609">
        <ele>88.3</ele>
        <time>2022-05-11T14:06:23Z</time>
      </trkpt>
      <trkpt lat="49.75964" lon="2.17609">
        <ele>88.2</ele>
        <time>2022-05-11T14:06:24Z</time>
      </trkpt>
      <trkpt lat="49.75966" lon="2.17608">
        <ele>88.2</ele>
        <time>2022-05-11T14:06:26Z</time>
      </trkpt>
      <trkpt lat="49.75967" lon="2.17608">
        <ele>88.2</ele>
        <time>2022-05-11T14:06:27Z</time>
      </trkpt>
      <trkpt lat="49.75967" lon="2.17608">
        <ele>88.2</ele>
        <time>2022-05-11T14:06:28Z</time>
      </trkpt>
      <trkpt lat="49.75968" lon="2.17608">
        <ele>88.2</ele>
        <time>2022-05-11T14:06:29Z</time>
      </trkpt>
      <trkpt lat="49.75969" lon="2.17608">
        <ele>88.2</ele>
        <time>2022-05-11T14:06:30Z</time>
      </trkpt>
      <trkpt lat="49.7597" lon="2.17608">
        <ele>88.2</ele>
        <time>2022-05-11T14:06:31Z</time>
      </trkpt>
      <trkpt lat="49.75972" lon="2.17608">
        <ele>88.1</ele>
        <time>2022-05-11T14:06:32Z</time>
      </trkpt>
      <trkpt lat="49.75973" lon="2.17607">
        <ele>88.1</ele>
        <time>2022-05-11T14:06:33Z</time>
      </trkpt>
      <trkpt lat="49.75975" lon="2.17607">
        <ele>88.1</ele>
        <time>2022-05-11T14:06:35Z</time>
      </trkpt>
      <trkpt lat="49.75976" lon="2.17607">
        <ele>88.1</ele>
        <time>2022-05-11T14:06:36Z</time>
      </trkpt>
      <trkpt lat="49.75978" lon="2.17606">
        <ele>88.1</ele>
        <time>2022-05-11T14:06:37Z</time>
      </trkpt>
      <trkpt lat="49.75979" lon="2.17606">
        <ele>88</ele>
        <time>2022-05-11T14:06:38Z</time>
      </trkpt>
      <trkpt lat="49.7598" lon="2.17606">
        <ele>88</ele>
        <time>2022-05-11T14:06:39Z</time>
      </trkpt>
      <trkpt lat="49.75981" lon="2.17606">
        <ele>88</ele>
        <time>2022-05-11T14:06:40Z</time>
      </trkpt>
      <trkpt lat="49.75982" lon="2.17606">
        <ele>88</ele>
        <time>2022-05-11T14:06:41Z</time>
      </trkpt>
      <trkpt lat="49.75983" lon="2.17605">
        <ele>88</ele>
        <time>2022-05-11T14:06:43Z</time>
      </trkpt>
      <trkpt lat="49.75984" lon="2.17605">
        <ele>88</ele>
        <time>2022-05-11T14:06:44Z</time>
      </trkpt>
      <trkpt lat="49.75985" lon="2.17605">
        <ele>88</ele>
        <time>2022-05-11T14:06:45Z</time>
      </trkpt>
      <trkpt lat="49.75986" lon="2.17605">
        <ele>88</ele>
        <time>2022-05-11T14:06:46Z</time>
      </trkpt>
      <trkpt lat="49.75988" lon="2.17605">
        <ele>87.9</ele>
        <time>2022-05-11T14:06:48Z</time>
      </trkpt>
      <trkpt lat="49.75989" lon="2.17604">
        <ele>87.9</ele>
        <time>2022-05-11T14:06:49Z</time>
      </trkpt>
      <trkpt lat="49.7599" lon="2.17604">
        <ele>87.9</ele>
        <time>2022-05-11T14:06:50Z</time>
      </trkpt>
      <trkpt lat="49.75991" lon="2.17604">
        <ele>87.9</ele>
        <time>2022-05-11T14:06:51Z</time>
      </trkpt>
      <trkpt lat="49.75992" lon="2.17604">
        <ele>87.9</ele>
        <time>2022-05-11T14:06:52Z</time>
      </trkpt>
      <trkpt lat="49.75993" lon="2.17604">
        <ele>87.9</ele>
        <time>2022-05-11T14:06:53Z</time>
      </trkpt>
      <trkpt lat="49.75994" lon="2.17604">
        <ele>87.9</ele>
        <time>2022-05-11T14:06:54Z</time>
      </trkpt>
      <trkpt lat="49.75996" lon="2.17604">
        <ele>87.8</ele>
        <time>2022-05-11T14:06:56Z</time>
      </trkpt>
      <trkpt lat="49.75997" lon="2.17603">
        <ele>87.8</ele>
        <time>2022-05-11T14:06:57Z</time>
      </trkpt>
      <trkpt lat="49.75999" lon="2.17603">
        <ele>87.8</ele>
        <time>2022-05-11T14:06:58Z</time>
      </trkpt>
      <trkpt lat="49.76" lon="2.17602">
        <ele>87.8</ele>
        <time>2022-05-11T14:06:59Z</time>
      </trkpt>
      <trkpt lat="49.76002" lon="2.17602">
        <ele>87.8</ele>
        <time>2022-05-11T14:07:00Z</time>
      </trkpt>
      <trkpt lat="49.76003" lon="2.17602">
        <ele>87.7</ele>
        <time>2022-05-11T14:07:01Z</time>
      </trkpt>
      <trkpt lat="49.76006" lon="2.176">
        <ele>87.7</ele>
        <time>2022-05-11T14:07:03Z</time>
      </trkpt>
      <trkpt lat="49.76007" lon="2.176">
        <ele>87.7</ele>
        <time>2022-05-11T14:07:04Z</time>
      </trkpt>
      <trkpt lat="49.7601" lon="2.176">
        <ele>87.7</ele>
        <time>2022-05-11T14:07:06Z</time>
      </trkpt>
      <trkpt lat="49.76011" lon="2.17599">
        <ele>87.6</ele>
        <time>2022-05-11T14:07:07Z</time>
      </trkpt>
      <trkpt lat="49.76012" lon="2.17599">
        <ele>87.6</ele>
        <time>2022-05-11T14:07:08Z</time>
      </trkpt>
      <trkpt lat="49.76013" lon="2.17599">
        <ele>87.6</ele>
        <time>2022-05-11T14:07:09Z</time>
      </trkpt>
      <trkpt lat="49.76014" lon="2.17599">
        <ele>87.6</ele>
        <time>2022-05-11T14:07:10Z</time>
      </trkpt>
      <trkpt lat="49.76015" lon="2.17599">
        <ele>87.6</ele>
        <time>2022-05-11T14:07:11Z</time>
      </trkpt>
      <trkpt lat="49.76016" lon="2.17598">
        <ele>87.6</ele>
        <time>2022-05-11T14:07:12Z</time>
      </trkpt>
      <trkpt lat="49.76017" lon="2.17598">
        <ele>87.6</ele>
        <time>2022-05-11T14:07:14Z</time>
      </trkpt>
      <trkpt lat="49.76018" lon="2.17598">
        <ele>87.6</ele>
        <time>2022-05-11T14:07:15Z</time>
      </trkpt>
      <trkpt lat="49.76018" lon="2.17598">
        <ele>87.5</ele>
        <time>2022-05-11T14:07:16Z</time>
      </trkpt>
      <trkpt lat="49.76019" lon="2.17598">
        <ele>87.5</ele>
        <time>2022-05-11T14:07:17Z</time>
      </trkpt>
      <trkpt lat="49.76021" lon="2.17598">
        <ele>87.5</ele>
        <time>2022-05-11T14:07:18Z</time>
      </trkpt>
      <trkpt lat="49.76023" lon="2.17597">
        <ele>87.5</ele>
        <time>2022-05-11T14:07:20Z</time>
      </trkpt>
      <trkpt lat="49.76025" lon="2.17597">
        <ele>87.5</ele>
        <time>2022-05-11T14:07:22Z</time>
      </trkpt>
      <trkpt lat="49.76026" lon="2.17596">
        <ele>87.5</ele>
        <time>2022-05-11T14:07:23Z</time>
      </trkpt>
      <trkpt lat="49.76027" lon="2.17596">
        <ele>87.4</ele>
        <time>2022-05-11T14:07:24Z</time>
      </trkpt>
      <trkpt lat="49.76029" lon="2.17596">
        <ele>87.4</ele>
        <time>2022-05-11T14:07:25Z</time>
      </trkpt>
      <trkpt lat="49.7603" lon="2.17595">
        <ele>87.4</ele>
        <time>2022-05-11T14:07:26Z</time>
      </trkpt>
      <trkpt lat="49.76031" lon="2.17595">
        <ele>87.4</ele>
        <time>2022-05-11T14:07:27Z</time>
      </trkpt>
      <trkpt lat="49.76032" lon="2.17595">
        <ele>87.4</ele>
        <time>2022-05-11T14:07:28Z</time>
      </trkpt>
      <trkpt lat="49.76033" lon="2.17595">
        <ele>87.4</ele>
        <time>2022-05-11T14:07:29Z</time>
      </trkpt>
      <trkpt lat="49.76034" lon="2.17594">
        <ele>87.4</ele>
        <time>2022-05-11T14:07:30Z</time>
      </trkpt>
      <trkpt lat="49.76035" lon="2.17594">
        <ele>87.4</ele>
        <time>2022-05-11T14:07:31Z</time>
      </trkpt>
      <trkpt lat="49.76036" lon="2.17594">
        <ele>87.4</ele>
        <time>2022-05-11T14:07:32Z</time>
      </trkpt>
      <trkpt lat="49.76038" lon="2.17593">
        <ele>87.3</ele>
        <time>2022-05-11T14:07:34Z</time>
      </trkpt>
      <trkpt lat="49.76039" lon="2.17593">
        <ele>87.3</ele>
        <time>2022-05-11T14:07:35Z</time>
      </trkpt>
      <trkpt lat="49.76041" lon="2.17592">
        <ele>87.3</ele>
        <time>2022-05-11T14:07:36Z</time>
      </trkpt>
      <trkpt lat="49.76043" lon="2.17592">
        <ele>87.3</ele>
        <time>2022-05-11T14:07:37Z</time>
      </trkpt>
      <trkpt lat="49.76044" lon="2.17592">
        <ele>87.3</ele>
        <time>2022-05-11T14:07:38Z</time>
      </trkpt>
      <trkpt lat="49.76046" lon="2.17591">
        <ele>87.2</ele>
        <time>2022-05-11T14:07:39Z</time>
      </trkpt>
      <trkpt lat="49.76047" lon="2.17591">
        <ele>87.2</ele>
        <time>2022-05-11T14:07:40Z</time>
      </trkpt>
      <trkpt lat="49.76049" lon="2.17591">
        <ele>87.2</ele>
        <time>2022-05-11T14:07:41Z</time>
      </trkpt>
      <trkpt lat="49.7605" lon="2.1759">
        <ele>87.2</ele>
        <time>2022-05-11T14:07:42Z</time>
      </trkpt>
      <trkpt lat="49.76051" lon="2.1759">
        <ele>87.2</ele>
        <time>2022-05-11T14:07:43Z</time>
      </trkpt>
      <trkpt lat="49.76052" lon="2.1759">
        <ele>87.2</ele>
        <time>2022-05-11T14:07:44Z</time>
      </trkpt>
      <trkpt lat="49.76054" lon="2.1759">
        <ele>87.1</ele>
        <time>2022-05-11T14:07:46Z</time>
      </trkpt>
      <trkpt lat="49.76055" lon="2.1759">
        <ele>87.1</ele>
        <time>2022-05-11T14:07:47Z</time>
      </trkpt>
      <trkpt lat="49.76056" lon="2.1759">
        <ele>87.1</ele>
        <time>2022-05-11T14:07:48Z</time>
      </trkpt>
      <trkpt lat="49.76057" lon="2.1759">
        <ele>87.1</ele>
        <time>2022-05-11T14:07:49Z</time>
      </trkpt>
      <trkpt lat="49.76059" lon="2.17589">
        <ele>87.1</ele>
        <time>2022-05-11T14:07:50Z</time>
      </trkpt>
      <trkpt lat="49.7606" lon="2.17588">
        <ele>87</ele>
        <time>2022-05-11T14:07:51Z</time>
      </trkpt>
      <trkpt lat="49.76061" lon="2.17588">
        <ele>87</ele>
        <time>2022-05-11T14:07:52Z</time>
      </trkpt>
      <trkpt lat="49.76063" lon="2.17587">
        <ele>87</ele>
        <time>2022-05-11T14:07:54Z</time>
      </trkpt>
      <trkpt lat="49.76065" lon="2.17587">
        <ele>87</ele>
        <time>2022-05-11T14:07:55Z</time>
      </trkpt>
      <trkpt lat="49.76066" lon="2.17586">
        <ele>86.9</ele>
        <time>2022-05-11T14:07:56Z</time>
      </trkpt>
      <trkpt lat="49.76067" lon="2.17586">
        <ele>86.9</ele>
        <time>2022-05-11T14:07:57Z</time>
      </trkpt>
      <trkpt lat="49.76069" lon="2.17586">
        <ele>86.9</ele>
        <time>2022-05-11T14:07:58Z</time>
      </trkpt>
      <trkpt lat="49.7607" lon="2.17585">
        <ele>86.9</ele>
        <time>2022-05-11T14:07:59Z</time>
      </trkpt>
      <trkpt lat="49.76072" lon="2.17584">
        <ele>86.9</ele>
        <time>2022-05-11T14:08:01Z</time>
      </trkpt>
      <trkpt lat="49.76073" lon="2.17584">
        <ele>86.8</ele>
        <time>2022-05-11T14:08:02Z</time>
      </trkpt>
      <trkpt lat="49.76073" lon="2.17584">
        <ele>86.8</ele>
        <time>2022-05-11T14:08:03Z</time>
      </trkpt>
      <trkpt lat="49.76074" lon="2.17583">
        <ele>86.8</ele>
        <time>2022-05-11T14:08:04Z</time>
      </trkpt>
      <trkpt lat="49.76075" lon="2.17583">
        <ele>86.8</ele>
        <time>2022-05-11T14:08:05Z</time>
      </trkpt>
      <trkpt lat="49.76075" lon="2.17583">
        <ele>86.8</ele>
        <time>2022-05-11T14:08:06Z</time>
      </trkpt>
      <trkpt lat="49.76076" lon="2.17583">
        <ele>86.8</ele>
        <time>2022-05-11T14:08:07Z</time>
      </trkpt>
      <trkpt lat="49.76076" lon="2.17584">
        <ele>86.8</ele>
        <time>2022-05-11T14:08:08Z</time>
      </trkpt>
      <trkpt lat="49.76076" lon="2.17584">
        <ele>86.8</ele>
        <time>2022-05-11T14:08:09Z</time>
      </trkpt>
      <trkpt lat="49.76078" lon="2.17583">
        <ele>86.7</ele>
        <time>2022-05-11T14:08:10Z</time>
      </trkpt>
      <trkpt lat="49.76079" lon="2.17584">
        <ele>86.7</ele>
        <time>2022-05-11T14:08:11Z</time>
      </trkpt>
      <trkpt lat="49.7608" lon="2.17584">
        <ele>86.7</ele>
        <time>2022-05-11T14:08:12Z</time>
      </trkpt>
      <trkpt lat="49.76081" lon="2.17584">
        <ele>86.7</ele>
        <time>2022-05-11T14:08:13Z</time>
      </trkpt>
      <trkpt lat="49.76082" lon="2.17584">
        <ele>86.7</ele>
        <time>2022-05-11T14:08:14Z</time>
      </trkpt>
      <trkpt lat="49.76084" lon="2.17584">
        <ele>86.7</ele>
        <time>2022-05-11T14:08:16Z</time>
      </trkpt>
      <trkpt lat="49.76085" lon="2.17585">
        <ele>86.7</ele>
        <time>2022-05-11T14:08:17Z</time>
      </trkpt>
      <trkpt lat="49.76087" lon="2.17585">
        <ele>86.6</ele>
        <time>2022-05-11T14:08:19Z</time>
      </trkpt>
      <trkpt lat="49.76088" lon="2.17585">
        <ele>86.6</ele>
        <time>2022-05-11T14:08:20Z</time>
      </trkpt>
      <trkpt lat="49.76088" lon="2.17585">
        <ele>86.6</ele>
        <time>2022-05-11T14:08:21Z</time>
      </trkpt>
      <trkpt lat="49.7609" lon="2.17585">
        <ele>86.6</ele>
        <time>2022-05-11T14:08:22Z</time>
      </trkpt>
      <trkpt lat="49.76091" lon="2.17585">
        <ele>86.6</ele>
        <time>2022-05-11T14:08:23Z</time>
      </trkpt>
      <trkpt lat="49.76091" lon="2.17586">
        <ele>86.6</ele>
        <time>2022-05-11T14:08:25Z</time>
      </trkpt>
      <trkpt lat="49.76092" lon="2.17587">
        <ele>86.6</ele>
        <time>2022-05-11T14:08:26Z</time>
      </trkpt>
      <trkpt lat="49.76092" lon="2.17587">
        <ele>86.6</ele>
        <time>2022-05-11T14:08:27Z</time>
      </trkpt>
      <trkpt lat="49.76093" lon="2.17587">
        <ele>86.6</ele>
        <time>2022-05-11T14:08:28Z</time>
      </trkpt>
      <trkpt lat="49.76093" lon="2.17588">
        <ele>86.6</ele>
        <time>2022-05-11T14:08:29Z</time>
      </trkpt>
      <trkpt lat="49.76094" lon="2.17588">
        <ele>86.6</ele>
        <time>2022-05-11T14:08:30Z</time>
      </trkpt>
      <trkpt lat="49.76094" lon="2.1759">
        <ele>86.5</ele>
        <time>2022-05-11T14:08:31Z</time>
      </trkpt>
      <trkpt lat="49.76095" lon="2.17591">
        <ele>86.5</ele>
        <time>2022-05-11T14:08:32Z</time>
      </trkpt>
      <trkpt lat="49.76094" lon="2.17592">
        <ele>86.5</ele>
        <time>2022-05-11T14:08:33Z</time>
      </trkpt>
      <trkpt lat="49.76094" lon="2.17592">
        <ele>86.5</ele>
        <time>2022-05-11T14:08:34Z</time>
      </trkpt>
      <trkpt lat="49.76094" lon="2.17592">
        <ele>86.5</ele>
        <time>2022-05-11T14:08:35Z</time>
      </trkpt>
      <trkpt lat="49.76094" lon="2.17593">
        <ele>86.5</ele>
        <time>2022-05-11T14:08:36Z</time>
      </trkpt>
      <trkpt lat="49.76094" lon="2.17593">
        <ele>86.5</ele>
        <time>2022-05-11T14:08:37Z</time>
      </trkpt>
      <trkpt lat="49.76094" lon="2.17593">
        <ele>86.5</ele>
        <time>2022-05-11T14:08:38Z</time>
      </trkpt>
      <trkpt lat="49.76094" lon="2.17594">
        <ele>86.5</ele>
        <time>2022-05-11T14:08:39Z</time>
      </trkpt>
      <trkpt lat="49.76094" lon="2.17594">
        <ele>86.5</ele>
        <time>2022-05-11T14:08:40Z</time>
      </trkpt>
      <trkpt lat="49.76093" lon="2.17594">
        <ele>86.5</ele>
        <time>2022-05-11T14:08:41Z</time>
      </trkpt>
      <trkpt lat="49.76093" lon="2.17595">
        <ele>86.5</ele>
        <time>2022-05-11T14:08:42Z</time>
      </trkpt>
      <trkpt lat="49.76093" lon="2.17594">
        <ele>86.5</ele>
        <time>2022-05-11T14:08:43Z</time>
      </trkpt>
      <trkpt lat="49.76093" lon="2.17594">
        <ele>86.5</ele>
        <time>2022-05-11T14:08:44Z</time>
      </trkpt>
      <trkpt lat="49.76092" lon="2.17594">
        <ele>86.5</ele>
        <time>2022-05-11T14:08:45Z</time>
      </trkpt>
      <trkpt lat="49.76092" lon="2.17594">
        <ele>86.5</ele>
        <time>2022-05-11T14:08:46Z</time>
      </trkpt>
      <trkpt lat="49.76092" lon="2.17594">
        <ele>86.5</ele>
        <time>2022-05-11T14:08:47Z</time>
      </trkpt>
      <trkpt lat="49.76092" lon="2.17594">
        <ele>86.5</ele>
        <time>2022-05-11T14:08:48Z</time>
      </trkpt>
      <trkpt lat="49.76092" lon="2.17594">
        <ele>86.5</ele>
        <time>2022-05-11T14:08:49Z</time>
      </trkpt>
      <trkpt lat="49.76092" lon="2.17594">
        <ele>86.5</ele>
        <time>2022-05-11T14:08:50Z</time>
      </trkpt>
      <trkpt lat="49.76092" lon="2.17594">
        <ele>86.5</ele>
        <time>2022-05-11T14:08:51Z</time>
      </trkpt>
      <trkpt lat="49.76092" lon="2.17594">
        <ele>86.5</ele>
        <time>2022-05-11T14:08:52Z</time>
      </trkpt>
      <trkpt lat="49.76092" lon="2.17594">
        <ele>86.5</ele>
        <time>2022-05-11T14:08:53Z</time>
      </trkpt>
      <trkpt lat="49.76091" lon="2.17594">
        <ele>86.5</ele>
        <time>2022-05-11T14:08:54Z</time>
      </trkpt>
      <trkpt lat="49.76091" lon="2.17594">
        <ele>86.5</ele>
        <time>2022-05-11T14:08:55Z</time>
      </trkpt>
      <trkpt lat="49.76091" lon="2.17594">
        <ele>86.5</ele>
        <time>2022-05-11T14:08:56Z</time>
      </trkpt>
      <trkpt lat="49.76091" lon="2.17594">
        <ele>86.5</ele>
        <time>2022-05-11T14:08:57Z</time>
      </trkpt>
      <trkpt lat="49.76091" lon="2.17594">
        <ele>86.5</ele>
        <time>2022-05-11T14:08:58Z</time>
      </trkpt>
      <trkpt lat="49.76091" lon="2.17594">
        <ele>86.5</ele>
        <time>2022-05-11T14:08:59Z</time>
      </trkpt>
      <trkpt lat="49.76091" lon="2.17593">
        <ele>86.5</ele>
        <time>2022-05-11T14:09:00Z</time>
      </trkpt>
      <trkpt lat="49.76091" lon="2.17593">
        <ele>86.5</ele>
        <time>2022-05-11T14:09:01Z</time>
      </trkpt>
      <trkpt lat="49.76091" lon="2.17593">
        <ele>86.5</ele>
        <time>2022-05-11T14:09:02Z</time>
      </trkpt>
      <trkpt lat="49.76091" lon="2.17593">
        <ele>86.5</ele>
        <time>2022-05-11T14:09:03Z</time>
      </trkpt>
      <trkpt lat="49.76091" lon="2.17593">
        <ele>86.5</ele>
        <time>2022-05-11T14:09:04Z</time>
      </trkpt>
      <trkpt lat="49.76091" lon="2.17593">
        <ele>86.5</ele>
        <time>2022-05-11T14:09:05Z</time>
      </trkpt>
      <trkpt lat="49.7609" lon="2.17593">
        <ele>86.5</ele>
        <time>2022-05-11T14:09:06Z</time>
      </trkpt>
      <trkpt lat="49.7609" lon="2.17593">
        <ele>86.5</ele>
        <time>2022-05-11T14:09:07Z</time>
      </trkpt>
      <trkpt lat="49.7609" lon="2.17593">
        <ele>86.5</ele>
        <time>2022-05-11T14:09:08Z</time>
      </trkpt>
      <trkpt lat="49.7609" lon="2.17593">
        <ele>86.5</ele>
        <time>2022-05-11T14:09:09Z</time>
      </trkpt>
      <trkpt lat="49.7609" lon="2.17593">
        <ele>86.5</ele>
        <time>2022-05-11T14:09:10Z</time>
      </trkpt>
      <trkpt lat="49.7609" lon="2.17593">
        <ele>86.5</ele>
        <time>2022-05-11T14:09:11Z</time>
      </trkpt>
      <trkpt lat="49.7609" lon="2.17593">
        <ele>86.5</ele>
        <time>2022-05-11T14:09:12Z</time>
      </trkpt>
      <trkpt lat="49.7609" lon="2.17593">
        <ele>86.5</ele>
        <time>2022-05-11T14:09:13Z</time>
      </trkpt>
      <trkpt lat="49.7609" lon="2.17593">
        <ele>86.5</ele>
        <time>2022-05-11T14:09:14Z</time>
      </trkpt>
      <trkpt lat="49.7609" lon="2.17593">
        <ele>86.5</ele>
        <time>2022-05-11T14:09:15Z</time>
      </trkpt>
      <trkpt lat="49.7609" lon="2.17593">
        <ele>86.5</ele>
        <time>2022-05-11T14:09:16Z</time>
      </trkpt>
      <trkpt lat="49.7609" lon="2.17592">
        <ele>86.5</ele>
        <time>2022-05-11T14:09:17Z</time>
      </trkpt>
      <trkpt lat="49.76089" lon="2.17592">
        <ele>86.5</ele>
        <time>2022-05-11T14:09:18Z</time>
      </trkpt>
      <trkpt lat="49.76089" lon="2.17592">
        <ele>86.5</ele>
        <time>2022-05-11T14:09:19Z</time>
      </trkpt>
      <trkpt lat="49.76089" lon="2.17592">
        <ele>86.5</ele>
        <time>2022-05-11T14:09:20Z</time>
      </trkpt>
      <trkpt lat="49.76089" lon="2.17592">
        <ele>86.5</ele>
        <time>2022-05-11T14:09:21Z</time>
      </trkpt>
      <trkpt lat="49.76089" lon="2.17592">
        <ele>86.5</ele>
        <time>2022-05-11T14:09:22Z</time>
      </trkpt>
      <trkpt lat="49.76089" lon="2.17592">
        <ele>86.5</ele>
        <time>2022-05-11T14:09:23Z</time>
      </trkpt>
      <trkpt lat="49.76089" lon="2.17592">
        <ele>86.5</ele>
        <time>2022-05-11T14:09:24Z</time>
      </trkpt>
      <trkpt lat="49.76089" lon="2.17592">
        <ele>86.5</ele>
        <time>2022-05-11T14:09:25Z</time>
      </trkpt>
      <trkpt lat="49.76089" lon="2.17592">
        <ele>86.5</ele>
        <time>2022-05-11T14:09:26Z</time>
      </trkpt>
      <trkpt lat="49.76089" lon="2.17592">
        <ele>86.5</ele>
        <time>2022-05-11T14:09:27Z</time>
      </trkpt>
      <trkpt lat="49.76089" lon="2.17592">
        <ele>86.5</ele>
        <time>2022-05-11T14:09:28Z</time>
      </trkpt>
      <trkpt lat="49.76089" lon="2.17592">
        <ele>86.5</ele>
        <time>2022-05-11T14:09:29Z</time>
      </trkpt>
      <trkpt lat="49.76089" lon="2.17592">
        <ele>86.5</ele>
        <time>2022-05-11T14:09:30Z</time>
      </trkpt>
      <trkpt lat="49.76088" lon="2.17592">
        <ele>86.5</ele>
        <time>2022-05-11T14:09:31Z</time>
      </trkpt>
      <trkpt lat="49.76088" lon="2.17592">
        <ele>86.5</ele>
        <time>2022-05-11T14:09:32Z</time>
      </trkpt>
      <trkpt lat="49.76088" lon="2.17592">
        <ele>86.5</ele>
        <time>2022-05-11T14:09:33Z</time>
      </trkpt>
      <trkpt lat="49.76088" lon="2.17591">
        <ele>86.5</ele>
        <time>2022-05-11T14:09:34Z</time>
      </trkpt>
      <trkpt lat="49.76088" lon="2.17591">
        <ele>86.5</ele>
        <time>2022-05-11T14:09:35Z</time>
      </trkpt>
      <trkpt lat="49.76088" lon="2.17591">
        <ele>86.5</ele>
        <time>2022-05-11T14:09:36Z</time>
      </trkpt>
      <trkpt lat="49.76088" lon="2.17591">
        <ele>86.5</ele>
        <time>2022-05-11T14:09:37Z</time>
      </trkpt>
      <trkpt lat="49.76088" lon="2.17591">
        <ele>86.5</ele>
        <time>2022-05-11T14:09:38Z</time>
      </trkpt>
      <trkpt lat="49.76088" lon="2.17591">
        <ele>86.5</ele>
        <time>2022-05-11T14:09:39Z</time>
      </trkpt>
      <trkpt lat="49.76088" lon="2.17591">
        <ele>86.5</ele>
        <time>2022-05-11T14:09:40Z</time>
      </trkpt>
      <trkpt lat="49.76085" lon="2.17589">
        <ele>86.5</ele>
        <time>2022-05-11T14:09:41Z</time>
      </trkpt>
      <trkpt lat="49.76084" lon="2.17588">
        <ele>86.4</ele>
        <time>2022-05-11T14:09:42Z</time>
      </trkpt>
      <trkpt lat="49.76083" lon="2.17588">
        <ele>86.4</ele>
        <time>2022-05-11T14:09:43Z</time>
      </trkpt>
      <trkpt lat="49.76083" lon="2.17588">
        <ele>86.4</ele>
        <time>2022-05-11T14:09:44Z</time>
      </trkpt>
      <trkpt lat="49.76083" lon="2.17588">
        <ele>86.4</ele>
        <time>2022-05-11T14:09:45Z</time>
      </trkpt>
      <trkpt lat="49.76083" lon="2.17588">
        <ele>86.4</ele>
        <time>2022-05-11T14:09:46Z</time>
      </trkpt>
      <trkpt lat="49.76083" lon="2.17587">
        <ele>86.4</ele>
        <time>2022-05-11T14:09:47Z</time>
      </trkpt>
      <trkpt lat="49.76083" lon="2.17587">
        <ele>86.4</ele>
        <time>2022-05-11T14:09:48Z</time>
      </trkpt>
      <trkpt lat="49.76083" lon="2.17587">
        <ele>86.4</ele>
        <time>2022-05-11T14:09:49Z</time>
      </trkpt>
      <trkpt lat="49.76083" lon="2.17587">
        <ele>86.4</ele>
        <time>2022-05-11T14:09:50Z</time>
      </trkpt>
      <trkpt lat="49.76083" lon="2.17587">
        <ele>86.4</ele>
        <time>2022-05-11T14:09:51Z</time>
      </trkpt>
      <trkpt lat="49.76083" lon="2.17587">
        <ele>86.4</ele>
        <time>2022-05-11T14:09:52Z</time>
      </trkpt>
      <trkpt lat="49.76083" lon="2.17587">
        <ele>86.4</ele>
        <time>2022-05-11T14:09:53Z</time>
      </trkpt>
      <trkpt lat="49.76083" lon="2.17587">
        <ele>86.4</ele>
        <time>2022-05-11T14:09:54Z</time>
      </trkpt>
      <trkpt lat="49.76083" lon="2.17587">
        <ele>86.4</ele>
        <time>2022-05-11T14:09:55Z</time>
      </trkpt>
      <trkpt lat="49.76083" lon="2.17587">
        <ele>86.4</ele>
        <time>2022-05-11T14:09:56Z</time>
      </trkpt>
      <trkpt lat="49.76083" lon="2.17587">
        <ele>86.4</ele>
        <time>2022-05-11T14:09:57Z</time>
      </trkpt>
      <trkpt lat="49.76083" lon="2.17587">
        <ele>86.4</ele>
        <time>2022-05-11T14:09:58Z</time>
      </trkpt>
      <trkpt lat="49.76083" lon="2.17587">
        <ele>86.4</ele>
        <time>2022-05-11T14:09:59Z</time>
      </trkpt>
      <trkpt lat="49.76083" lon="2.17587">
        <ele>86.4</ele>
        <time>2022-05-11T14:10:00Z</time>
      </trkpt>
      <trkpt lat="49.76083" lon="2.17587">
        <ele>86.4</ele>
        <time>2022-05-11T14:10:01Z</time>
      </trkpt>
      <trkpt lat="49.76083" lon="2.17587">
        <ele>86.4</ele>
        <time>2022-05-11T14:10:02Z</time>
      </trkpt>
      <trkpt lat="49.76083" lon="2.17587">
        <ele>86.4</ele>
        <time>2022-05-11T14:10:03Z</time>
      </trkpt>
      <trkpt lat="49.76083" lon="2.17587">
        <ele>86.4</ele>
        <time>2022-05-11T14:10:04Z</time>
      </trkpt>
      <trkpt lat="49.76083" lon="2.17587">
        <ele>86.4</ele>
        <time>2022-05-11T14:10:05Z</time>
      </trkpt>
      <trkpt lat="49.76083" lon="2.17587">
        <ele>86.4</ele>
        <time>2022-05-11T14:10:06Z</time>
      </trkpt>
      <trkpt lat="49.76083" lon="2.17587">
        <ele>86.4</ele>
        <time>2022-05-11T14:10:07Z</time>
      </trkpt>
      <trkpt lat="49.76083" lon="2.17587">
        <ele>86.4</ele>
        <time>2022-05-11T14:10:08Z</time>
      </trkpt>
      <trkpt lat="49.76083" lon="2.17587">
        <ele>86.4</ele>
        <time>2022-05-11T14:10:09Z</time>
      </trkpt>
      <trkpt lat="49.76083" lon="2.17587">
        <ele>86.4</ele>
        <time>2022-05-11T14:10:10Z</time>
      </trkpt>
      <trkpt lat="49.76083" lon="2.17587">
        <ele>86.4</ele>
        <time>2022-05-11T14:10:11Z</time>
      </trkpt>
      <trkpt lat="49.76083" lon="2.17587">
        <ele>86.4</ele>
        <time>2022-05-11T14:10:12Z</time>
      </trkpt>
      <trkpt lat="49.76083" lon="2.17587">
        <ele>86.4</ele>
        <time>2022-05-11T14:10:13Z</time>
      </trkpt>
      <trkpt lat="49.76083" lon="2.17587">
        <ele>86.4</ele>
        <time>2022-05-11T14:10:14Z</time>
      </trkpt>
      <trkpt lat="49.76083" lon="2.17587">
        <ele>86.4</ele>
        <time>2022-05-11T14:10:15Z</time>
      </trkpt>
      <trkpt lat="49.76083" lon="2.17587">
        <ele>86.4</ele>
        <time>2022-05-11T14:10:16Z</time>
      </trkpt>
      <trkpt lat="49.76083" lon="2.17587">
        <ele>86.4</ele>
        <time>2022-05-11T14:10:17Z</time>
      </trkpt>
      <trkpt lat="49.76083" lon="2.17587">
        <ele>86.4</ele>
        <time>2022-05-11T14:10:18Z</time>
      </trkpt>
      <trkpt lat="49.76083" lon="2.17587">
        <ele>86.4</ele>
        <time>2022-05-11T14:10:19Z</time>
      </trkpt>
      <trkpt lat="49.76083" lon="2.17587">
        <ele>86.4</ele>
        <time>2022-05-11T14:10:20Z</time>
      </trkpt>
      <trkpt lat="49.76083" lon="2.17587">
        <ele>86.4</ele>
        <time>2022-05-11T14:10:21Z</time>
      </trkpt>
      <trkpt lat="49.76083" lon="2.17587">
        <ele>86.4</ele>
        <time>2022-05-11T14:10:22Z</time>
      </trkpt>
      <trkpt lat="49.76083" lon="2.17587">
        <ele>86.4</ele>
        <time>2022-05-11T14:10:23Z</time>
      </trkpt>
      <trkpt lat="49.76083" lon="2.17587">
        <ele>86.4</ele>
        <time>2022-05-11T14:10:24Z</time>
      </trkpt>
      <trkpt lat="49.76083" lon="2.17587">
        <ele>86.4</ele>
        <time>2022-05-11T14:10:25Z</time>
      </trkpt>
      <trkpt lat="49.76083" lon="2.17587">
        <ele>86.4</ele>
        <time>2022-05-11T14:10:26Z</time>
      </trkpt>
      <trkpt lat="49.76083" lon="2.17587">
        <ele>86.4</ele>
        <time>2022-05-11T14:10:27Z</time>
      </trkpt>
      <trkpt lat="49.76083" lon="2.17587">
        <ele>86.4</ele>
        <time>2022-05-11T14:10:28Z</time>
      </trkpt>
      <trkpt lat="49.76083" lon="2.17587">
        <ele>86.4</ele>
        <time>2022-05-11T14:10:29Z</time>
      </trkpt>
      <trkpt lat="49.76083" lon="2.17587">
        <ele>86.4</ele>
        <time>2022-05-11T14:10:30Z</time>
      </trkpt>
      <trkpt lat="49.76083" lon="2.17587">
        <ele>86.4</ele>
        <time>2022-05-11T14:10:31Z</time>
      </trkpt>
      <trkpt lat="49.76083" lon="2.17587">
        <ele>86.4</ele>
        <time>2022-05-11T14:10:32Z</time>
      </trkpt>
      <trkpt lat="49.76083" lon="2.17587">
        <ele>86.4</ele>
        <time>2022-05-11T14:10:33Z</time>
      </trkpt>
      <trkpt lat="49.76083" lon="2.17587">
        <ele>86.4</ele>
        <time>2022-05-11T14:10:34Z</time>
      </trkpt>
      <trkpt lat="49.76083" lon="2.17587">
        <ele>86.4</ele>
        <time>2022-05-11T14:10:35Z</time>
      </trkpt>
      <trkpt lat="49.76083" lon="2.17587">
        <ele>86.4</ele>
        <time>2022-05-11T14:10:36Z</time>
      </trkpt>
      <trkpt lat="49.76083" lon="2.17587">
        <ele>86.4</ele>
        <time>2022-05-11T14:10:37Z</time>
      </trkpt>
      <trkpt lat="49.76083" lon="2.17587">
        <ele>86.4</ele>
        <time>2022-05-11T14:10:38Z</time>
      </trkpt>
      <trkpt lat="49.76083" lon="2.17587">
        <ele>86.4</ele>
        <time>2022-05-11T14:10:39Z</time>
      </trkpt>
      <trkpt lat="49.76083" lon="2.17587">
        <ele>86.4</ele>
        <time>2022-05-11T14:10:40Z</time>
      </trkpt>
      <trkpt lat="49.76083" lon="2.17587">
        <ele>86.4</ele>
        <time>2022-05-11T14:10:41Z</time>
      </trkpt>
      <trkpt lat="49.76083" lon="2.17587">
        <ele>86.4</ele>
        <time>2022-05-11T14:10:42Z</time>
      </trkpt>
      <trkpt lat="49.76083" lon="2.17587">
        <ele>86.4</ele>
        <time>2022-05-11T14:10:43Z</time>
      </trkpt>
      <trkpt lat="49.76083" lon="2.17587">
        <ele>86.4</ele>
        <time>2022-05-11T14:10:44Z</time>
      </trkpt>
      <trkpt lat="49.76083" lon="2.17587">
        <ele>86.4</ele>
        <time>2022-05-11T14:10:45Z</time>
      </trkpt>
      <trkpt lat="49.76083" lon="2.17587">
        <ele>86.4</ele>
        <time>2022-05-11T14:10:46Z</time>
      </trkpt>
      <trkpt lat="49.76083" lon="2.17587">
        <ele>86.4</ele>
        <time>2022-05-11T14:10:47Z</time>
      </trkpt>
      <trkpt lat="49.76083" lon="2.17587">
        <ele>86.4</ele>
        <time>2022-05-11T14:10:48Z</time>
      </trkpt>
      <trkpt lat="49.76083" lon="2.17587">
        <ele>86.4</ele>
        <time>2022-05-11T14:10:49Z</time>
      </trkpt>
      <trkpt lat="49.76083" lon="2.17587">
        <ele>86.4</ele>
        <time>2022-05-11T14:10:50Z</time>
      </trkpt>
      <trkpt lat="49.76083" lon="2.17587">
        <ele>86.4</ele>
        <time>2022-05-11T14:10:51Z</time>
      </trkpt>
      <trkpt lat="49.76083" lon="2.17587">
        <ele>86.4</ele>
        <time>2022-05-11T14:10:52Z</time>
      </trkpt>
      <trkpt lat="49.76083" lon="2.17587">
        <ele>86.4</ele>
        <time>2022-05-11T14:10:53Z</time>
      </trkpt>
      <trkpt lat="49.76083" lon="2.17587">
        <ele>86.4</ele>
        <time>2022-05-11T14:10:54Z</time>
      </trkpt>
      <trkpt lat="49.76083" lon="2.17587">
        <ele>86.4</ele>
        <time>2022-05-11T14:10:55Z</time>
      </trkpt>
      <trkpt lat="49.76083" lon="2.17587">
        <ele>86.4</ele>
        <time>2022-05-11T14:10:56Z</time>
      </trkpt>
      <trkpt lat="49.76083" lon="2.17586">
        <ele>86.4</ele>
        <time>2022-05-11T14:10:57Z</time>
      </trkpt>
      <trkpt lat="49.76083" lon="2.17586">
        <ele>86.4</ele>
        <time>2022-05-11T14:10:59Z</time>
      </trkpt>
      <trkpt lat="49.76083" lon="2.17586">
        <ele>86.4</ele>
        <time>2022-05-11T14:11:00Z</time>
      </trkpt>
      <trkpt lat="49.76084" lon="2.17586">
        <ele>86.4</ele>
        <time>2022-05-11T14:11:01Z</time>
      </trkpt>
      <trkpt lat="49.76086" lon="2.17585">
        <ele>86.4</ele>
        <time>2022-05-11T14:11:03Z</time>
      </trkpt>
      <trkpt lat="49.76087" lon="2.17583">
        <ele>86.4</ele>
        <time>2022-05-11T14:11:04Z</time>
      </trkpt>
      <trkpt lat="49.76088" lon="2.17582">
        <ele>86.4</ele>
        <time>2022-05-11T14:11:05Z</time>
      </trkpt>
      <trkpt lat="49.76091" lon="2.17579">
        <ele>86.4</ele>
        <time>2022-05-11T14:11:06Z</time>
      </trkpt>
      <trkpt lat="49.76092" lon="2.17578">
        <ele>86.4</ele>
        <time>2022-05-11T14:11:07Z</time>
      </trkpt>
      <trkpt lat="49.76094" lon="2.17575">
        <ele>86.3</ele>
        <time>2022-05-11T14:11:09Z</time>
      </trkpt>
      <trkpt lat="49.76095" lon="2.17574">
        <ele>86.3</ele>
        <time>2022-05-11T14:11:10Z</time>
      </trkpt>
      <trkpt lat="49.76096" lon="2.17573">
        <ele>86.3</ele>
        <time>2022-05-11T14:11:11Z</time>
      </trkpt>
      <trkpt lat="49.76098" lon="2.17572">
        <ele>86.3</ele>
        <time>2022-05-11T14:11:12Z</time>
      </trkpt>
      <trkpt lat="49.76099" lon="2.17572">
        <ele>86.3</ele>
        <time>2022-05-11T14:11:13Z</time>
      </trkpt>
      <trkpt lat="49.76101" lon="2.17571">
        <ele>86.3</ele>
        <time>2022-05-11T14:11:14Z</time>
      </trkpt>
      <trkpt lat="49.76102" lon="2.17571">
        <ele>86.3</ele>
        <time>2022-05-11T14:11:15Z</time>
      </trkpt>
      <trkpt lat="49.76104" lon="2.17571">
        <ele>86.3</ele>
        <time>2022-05-11T14:11:17Z</time>
      </trkpt>
      <trkpt lat="49.76106" lon="2.17572">
        <ele>86.2</ele>
        <time>2022-05-11T14:11:18Z</time>
      </trkpt>
      <trkpt lat="49.76107" lon="2.17572">
        <ele>86.2</ele>
        <time>2022-05-11T14:11:19Z</time>
      </trkpt>
      <trkpt lat="49.76108" lon="2.17572">
        <ele>86.2</ele>
        <time>2022-05-11T14:11:20Z</time>
      </trkpt>
      <trkpt lat="49.76109" lon="2.17572">
        <ele>86.2</ele>
        <time>2022-05-11T14:11:21Z</time>
      </trkpt>
      <trkpt lat="49.76111" lon="2.17572">
        <ele>86.2</ele>
        <time>2022-05-11T14:11:22Z</time>
      </trkpt>
      <trkpt lat="49.76114" lon="2.17572">
        <ele>86.2</ele>
        <time>2022-05-11T14:11:24Z</time>
      </trkpt>
      <trkpt lat="49.76115" lon="2.17572">
        <ele>86.2</ele>
        <time>2022-05-11T14:11:25Z</time>
      </trkpt>
      <trkpt lat="49.76118" lon="2.17571">
        <ele>86.1</ele>
        <time>2022-05-11T14:11:26Z</time>
      </trkpt>
      <trkpt lat="49.76119" lon="2.17571">
        <ele>86.1</ele>
        <time>2022-05-11T14:11:27Z</time>
      </trkpt>
      <trkpt lat="49.7612" lon="2.1757">
        <ele>86.1</ele>
        <time>2022-05-11T14:11:28Z</time>
      </trkpt>
      <trkpt lat="49.76122" lon="2.17569">
        <ele>86.1</ele>
        <time>2022-05-11T14:11:30Z</time>
      </trkpt>
      <trkpt lat="49.76124" lon="2.17569">
        <ele>86.1</ele>
        <time>2022-05-11T14:11:31Z</time>
      </trkpt>
      <trkpt lat="49.76125" lon="2.17569">
        <ele>86.1</ele>
        <time>2022-05-11T14:11:32Z</time>
      </trkpt>
      <trkpt lat="49.76125" lon="2.17569">
        <ele>86.1</ele>
        <time>2022-05-11T14:11:33Z</time>
      </trkpt>
      <trkpt lat="49.76126" lon="2.1757">
        <ele>86.1</ele>
        <time>2022-05-11T14:11:34Z</time>
      </trkpt>
      <trkpt lat="49.76127" lon="2.1757">
        <ele>86.1</ele>
        <time>2022-05-11T14:11:35Z</time>
      </trkpt>
      <trkpt lat="49.76126" lon="2.17572">
        <ele>86.1</ele>
        <time>2022-05-11T14:11:36Z</time>
      </trkpt>
      <trkpt lat="49.76127" lon="2.17572">
        <ele>86</ele>
        <time>2022-05-11T14:11:38Z</time>
      </trkpt>
      <trkpt lat="49.76128" lon="2.17572">
        <ele>86</ele>
        <time>2022-05-11T14:11:39Z</time>
      </trkpt>
      <trkpt lat="49.76129" lon="2.17572">
        <ele>86</ele>
        <time>2022-05-11T14:11:40Z</time>
      </trkpt>
      <trkpt lat="49.76131" lon="2.17571">
        <ele>86</ele>
        <time>2022-05-11T14:11:41Z</time>
      </trkpt>
      <trkpt lat="49.76132" lon="2.17571">
        <ele>86</ele>
        <time>2022-05-11T14:11:42Z</time>
      </trkpt>
      <trkpt lat="49.76133" lon="2.17571">
        <ele>86</ele>
        <time>2022-05-11T14:11:43Z</time>
      </trkpt>
      <trkpt lat="49.76135" lon="2.1757">
        <ele>86</ele>
        <time>2022-05-11T14:11:45Z</time>
      </trkpt>
      <trkpt lat="49.76136" lon="2.1757">
        <ele>86</ele>
        <time>2022-05-11T14:11:46Z</time>
      </trkpt>
      <trkpt lat="49.76137" lon="2.1757">
        <ele>86</ele>
        <time>2022-05-11T14:11:47Z</time>
      </trkpt>
      <trkpt lat="49.76138" lon="2.1757">
        <ele>85.9</ele>
        <time>2022-05-11T14:11:48Z</time>
      </trkpt>
      <trkpt lat="49.76139" lon="2.1757">
        <ele>85.9</ele>
        <time>2022-05-11T14:11:49Z</time>
      </trkpt>
      <trkpt lat="49.7614" lon="2.1757">
        <ele>85.9</ele>
        <time>2022-05-11T14:11:50Z</time>
      </trkpt>
      <trkpt lat="49.76142" lon="2.1757">
        <ele>85.9</ele>
        <time>2022-05-11T14:11:51Z</time>
      </trkpt>
      <trkpt lat="49.76142" lon="2.1757">
        <ele>85.9</ele>
        <time>2022-05-11T14:11:52Z</time>
      </trkpt>
      <trkpt lat="49.76143" lon="2.1757">
        <ele>85.9</ele>
        <time>2022-05-11T14:11:54Z</time>
      </trkpt>
      <trkpt lat="49.76145" lon="2.1757">
        <ele>85.9</ele>
        <time>2022-05-11T14:11:55Z</time>
      </trkpt>
      <trkpt lat="49.76147" lon="2.1757">
        <ele>85.9</ele>
        <time>2022-05-11T14:11:57Z</time>
      </trkpt>
      <trkpt lat="49.76148" lon="2.1757">
        <ele>85.9</ele>
        <time>2022-05-11T14:11:58Z</time>
      </trkpt>
      <trkpt lat="49.76149" lon="2.1757">
        <ele>85.8</ele>
        <time>2022-05-11T14:11:59Z</time>
      </trkpt>
      <trkpt lat="49.7615" lon="2.1757">
        <ele>85.8</ele>
        <time>2022-05-11T14:12:00Z</time>
      </trkpt>
      <trkpt lat="49.76152" lon="2.17571">
        <ele>85.8</ele>
        <time>2022-05-11T14:12:02Z</time>
      </trkpt>
      <trkpt lat="49.76154" lon="2.1757">
        <ele>85.8</ele>
        <time>2022-05-11T14:12:03Z</time>
      </trkpt>
      <trkpt lat="49.76155" lon="2.1757">
        <ele>85.8</ele>
        <time>2022-05-11T14:12:04Z</time>
      </trkpt>
      <trkpt lat="49.76156" lon="2.1757">
        <ele>85.8</ele>
        <time>2022-05-11T14:12:05Z</time>
      </trkpt>
      <trkpt lat="49.76157" lon="2.17568">
        <ele>85.8</ele>
        <time>2022-05-11T14:12:06Z</time>
      </trkpt>
      <trkpt lat="49.76159" lon="2.17568">
        <ele>85.7</ele>
        <time>2022-05-11T14:12:08Z</time>
      </trkpt>
      <trkpt lat="49.7616" lon="2.17568">
        <ele>85.7</ele>
        <time>2022-05-11T14:12:09Z</time>
      </trkpt>
      <trkpt lat="49.76161" lon="2.17568">
        <ele>85.7</ele>
        <time>2022-05-11T14:12:10Z</time>
      </trkpt>
      <trkpt lat="49.76162" lon="2.17567">
        <ele>85.7</ele>
        <time>2022-05-11T14:12:11Z</time>
      </trkpt>
      <trkpt lat="49.76164" lon="2.17567">
        <ele>85.7</ele>
        <time>2022-05-11T14:12:12Z</time>
      </trkpt>
      <trkpt lat="49.76165" lon="2.17566">
        <ele>85.7</ele>
        <time>2022-05-11T14:12:13Z</time>
      </trkpt>
      <trkpt lat="49.76166" lon="2.17566">
        <ele>85.6</ele>
        <time>2022-05-11T14:12:14Z</time>
      </trkpt>
      <trkpt lat="49.76168" lon="2.17565">
        <ele>85.6</ele>
        <time>2022-05-11T14:12:16Z</time>
      </trkpt>
      <trkpt lat="49.7617" lon="2.17565">
        <ele>85.6</ele>
        <time>2022-05-11T14:12:17Z</time>
      </trkpt>
      <trkpt lat="49.76172" lon="2.17564">
        <ele>85.6</ele>
        <time>2022-05-11T14:12:18Z</time>
      </trkpt>
      <trkpt lat="49.76173" lon="2.17564">
        <ele>85.5</ele>
        <time>2022-05-11T14:12:19Z</time>
      </trkpt>
      <trkpt lat="49.76175" lon="2.17563">
        <ele>85.5</ele>
        <time>2022-05-11T14:12:20Z</time>
      </trkpt>
      <trkpt lat="49.76176" lon="2.17562">
        <ele>85.5</ele>
        <time>2022-05-11T14:12:21Z</time>
      </trkpt>
      <trkpt lat="49.76178" lon="2.17561">
        <ele>85.4</ele>
        <time>2022-05-11T14:12:22Z</time>
      </trkpt>
      <trkpt lat="49.7618" lon="2.17561">
        <ele>85.4</ele>
        <time>2022-05-11T14:12:24Z</time>
      </trkpt>
      <trkpt lat="49.76181" lon="2.1756">
        <ele>85.4</ele>
        <time>2022-05-11T14:12:25Z</time>
      </trkpt>
      <trkpt lat="49.76182" lon="2.1756">
        <ele>85.4</ele>
        <time>2022-05-11T14:12:26Z</time>
      </trkpt>
      <trkpt lat="49.76184" lon="2.17559">
        <ele>85.3</ele>
        <time>2022-05-11T14:12:27Z</time>
      </trkpt>
      <trkpt lat="49.76185" lon="2.17559">
        <ele>85.3</ele>
        <time>2022-05-11T14:12:28Z</time>
      </trkpt>
      <trkpt lat="49.76187" lon="2.17558">
        <ele>85.3</ele>
        <time>2022-05-11T14:12:30Z</time>
      </trkpt>
      <trkpt lat="49.76188" lon="2.17557">
        <ele>85.3</ele>
        <time>2022-05-11T14:12:31Z</time>
      </trkpt>
      <trkpt lat="49.76189" lon="2.17557">
        <ele>85.2</ele>
        <time>2022-05-11T14:12:32Z</time>
      </trkpt>
      <trkpt lat="49.7619" lon="2.17556">
        <ele>85.2</ele>
        <time>2022-05-11T14:12:33Z</time>
      </trkpt>
      <trkpt lat="49.76191" lon="2.17556">
        <ele>85.2</ele>
        <time>2022-05-11T14:12:34Z</time>
      </trkpt>
      <trkpt lat="49.76192" lon="2.17556">
        <ele>85.2</ele>
        <time>2022-05-11T14:12:35Z</time>
      </trkpt>
      <trkpt lat="49.76193" lon="2.17555">
        <ele>85.1</ele>
        <time>2022-05-11T14:12:37Z</time>
      </trkpt>
      <trkpt lat="49.76195" lon="2.17555">
        <ele>85.1</ele>
        <time>2022-05-11T14:12:38Z</time>
      </trkpt>
      <trkpt lat="49.76196" lon="2.17555">
        <ele>85.1</ele>
        <time>2022-05-11T14:12:39Z</time>
      </trkpt>
      <trkpt lat="49.76197" lon="2.17554">
        <ele>85.1</ele>
        <time>2022-05-11T14:12:40Z</time>
      </trkpt>
      <trkpt lat="49.76198" lon="2.17554">
        <ele>85.1</ele>
        <time>2022-05-11T14:12:41Z</time>
      </trkpt>
      <trkpt lat="49.76199" lon="2.17554">
        <ele>85</ele>
        <time>2022-05-11T14:12:42Z</time>
      </trkpt>
      <trkpt lat="49.762" lon="2.17553">
        <ele>85</ele>
        <time>2022-05-11T14:12:43Z</time>
      </trkpt>
      <trkpt lat="49.762" lon="2.17553">
        <ele>85.1</ele>
        <time>2022-05-11T14:12:44Z</time>
      </trkpt>
      <trkpt lat="49.76201" lon="2.17553">
        <ele>85.1</ele>
        <time>2022-05-11T14:12:45Z</time>
      </trkpt>
      <trkpt lat="49.76202" lon="2.17553">
        <ele>85</ele>
        <time>2022-05-11T14:12:46Z</time>
      </trkpt>
      <trkpt lat="49.76204" lon="2.17552">
        <ele>85</ele>
        <time>2022-05-11T14:12:48Z</time>
      </trkpt>
      <trkpt lat="49.76205" lon="2.17552">
        <ele>85</ele>
        <time>2022-05-11T14:12:49Z</time>
      </trkpt>
      <trkpt lat="49.76206" lon="2.17551">
        <ele>84.9</ele>
        <time>2022-05-11T14:12:50Z</time>
      </trkpt>
      <trkpt lat="49.76209" lon="2.17551">
        <ele>84.9</ele>
        <time>2022-05-11T14:12:52Z</time>
      </trkpt>
      <trkpt lat="49.76211" lon="2.1755">
        <ele>84.8</ele>
        <time>2022-05-11T14:12:53Z</time>
      </trkpt>
      <trkpt lat="49.76212" lon="2.1755">
        <ele>84.9</ele>
        <time>2022-05-11T14:12:54Z</time>
      </trkpt>
      <trkpt lat="49.76214" lon="2.17549">
        <ele>84.8</ele>
        <time>2022-05-11T14:12:55Z</time>
      </trkpt>
      <trkpt lat="49.76215" lon="2.17549">
        <ele>84.8</ele>
        <time>2022-05-11T14:12:56Z</time>
      </trkpt>
      <trkpt lat="49.76217" lon="2.17548">
        <ele>84.8</ele>
        <time>2022-05-11T14:12:57Z</time>
      </trkpt>
      <trkpt lat="49.76218" lon="2.17548">
        <ele>84.7</ele>
        <time>2022-05-11T14:12:59Z</time>
      </trkpt>
      <trkpt lat="49.7622" lon="2.17547">
        <ele>84.7</ele>
        <time>2022-05-11T14:13:00Z</time>
      </trkpt>
      <trkpt lat="49.76221" lon="2.17547">
        <ele>84.6</ele>
        <time>2022-05-11T14:13:01Z</time>
      </trkpt>
      <trkpt lat="49.76222" lon="2.17546">
        <ele>84.6</ele>
        <time>2022-05-11T14:13:02Z</time>
      </trkpt>
      <trkpt lat="49.76223" lon="2.17546">
        <ele>84.6</ele>
        <time>2022-05-11T14:13:03Z</time>
      </trkpt>
      <trkpt lat="49.76225" lon="2.17546">
        <ele>84.6</ele>
        <time>2022-05-11T14:13:04Z</time>
      </trkpt>
      <trkpt lat="49.76225" lon="2.17546">
        <ele>84.6</ele>
        <time>2022-05-11T14:13:05Z</time>
      </trkpt>
      <trkpt lat="49.76225" lon="2.17546">
        <ele>84.5</ele>
        <time>2022-05-11T14:13:06Z</time>
      </trkpt>
      <trkpt lat="49.76227" lon="2.17546">
        <ele>84.5</ele>
        <time>2022-05-11T14:13:07Z</time>
      </trkpt>
      <trkpt lat="49.76228" lon="2.17546">
        <ele>84.5</ele>
        <time>2022-05-11T14:13:08Z</time>
      </trkpt>
      <trkpt lat="49.76229" lon="2.17545">
        <ele>84.5</ele>
        <time>2022-05-11T14:13:09Z</time>
      </trkpt>
      <trkpt lat="49.76231" lon="2.17545">
        <ele>84.4</ele>
        <time>2022-05-11T14:13:11Z</time>
      </trkpt>
      <trkpt lat="49.76233" lon="2.17544">
        <ele>84.4</ele>
        <time>2022-05-11T14:13:12Z</time>
      </trkpt>
      <trkpt lat="49.76234" lon="2.17544">
        <ele>84.3</ele>
        <time>2022-05-11T14:13:13Z</time>
      </trkpt>
      <trkpt lat="49.76235" lon="2.17544">
        <ele>84.3</ele>
        <time>2022-05-11T14:13:14Z</time>
      </trkpt>
      <trkpt lat="49.76237" lon="2.17544">
        <ele>84.3</ele>
        <time>2022-05-11T14:13:15Z</time>
      </trkpt>
      <trkpt lat="49.76238" lon="2.17544">
        <ele>84.2</ele>
        <time>2022-05-11T14:13:16Z</time>
      </trkpt>
      <trkpt lat="49.76239" lon="2.17544">
        <ele>84.2</ele>
        <time>2022-05-11T14:13:17Z</time>
      </trkpt>
      <trkpt lat="49.76241" lon="2.17544">
        <ele>84.2</ele>
        <time>2022-05-11T14:13:18Z</time>
      </trkpt>
      <trkpt lat="49.76242" lon="2.17544">
        <ele>84.1</ele>
        <time>2022-05-11T14:13:20Z</time>
      </trkpt>
      <trkpt lat="49.76244" lon="2.17543">
        <ele>84.1</ele>
        <time>2022-05-11T14:13:21Z</time>
      </trkpt>
      <trkpt lat="49.76245" lon="2.17543">
        <ele>84.1</ele>
        <time>2022-05-11T14:13:22Z</time>
      </trkpt>
      <trkpt lat="49.76246" lon="2.17543">
        <ele>84.1</ele>
        <time>2022-05-11T14:13:23Z</time>
      </trkpt>
      <trkpt lat="49.76247" lon="2.17543">
        <ele>84</ele>
        <time>2022-05-11T14:13:24Z</time>
      </trkpt>
      <trkpt lat="49.76248" lon="2.17543">
        <ele>84</ele>
        <time>2022-05-11T14:13:25Z</time>
      </trkpt>
      <trkpt lat="49.76249" lon="2.17543">
        <ele>84</ele>
        <time>2022-05-11T14:13:26Z</time>
      </trkpt>
      <trkpt lat="49.76251" lon="2.17543">
        <ele>84</ele>
        <time>2022-05-11T14:13:27Z</time>
      </trkpt>
      <trkpt lat="49.76252" lon="2.17543">
        <ele>83.9</ele>
        <time>2022-05-11T14:13:28Z</time>
      </trkpt>
      <trkpt lat="49.76253" lon="2.17543">
        <ele>83.9</ele>
        <time>2022-05-11T14:13:29Z</time>
      </trkpt>
      <trkpt lat="49.76254" lon="2.17543">
        <ele>83.9</ele>
        <time>2022-05-11T14:13:30Z</time>
      </trkpt>
      <trkpt lat="49.76256" lon="2.17542">
        <ele>83.8</ele>
        <time>2022-05-11T14:13:32Z</time>
      </trkpt>
      <trkpt lat="49.76257" lon="2.17542">
        <ele>83.8</ele>
        <time>2022-05-11T14:13:33Z</time>
      </trkpt>
      <trkpt lat="49.76258" lon="2.17542">
        <ele>83.8</ele>
        <time>2022-05-11T14:13:34Z</time>
      </trkpt>
      <trkpt lat="49.76259" lon="2.17542">
        <ele>83.8</ele>
        <time>2022-05-11T14:13:35Z</time>
      </trkpt>
      <trkpt lat="49.7626" lon="2.17542">
        <ele>83.8</ele>
        <time>2022-05-11T14:13:36Z</time>
      </trkpt>
      <trkpt lat="49.76262" lon="2.17541">
        <ele>83.7</ele>
        <time>2022-05-11T14:13:37Z</time>
      </trkpt>
      <trkpt lat="49.76263" lon="2.17541">
        <ele>83.7</ele>
        <time>2022-05-11T14:13:38Z</time>
      </trkpt>
      <trkpt lat="49.76264" lon="2.17541">
        <ele>83.7</ele>
        <time>2022-05-11T14:13:39Z</time>
      </trkpt>
      <trkpt lat="49.76266" lon="2.17541">
        <ele>83.6</ele>
        <time>2022-05-11T14:13:40Z</time>
      </trkpt>
      <trkpt lat="49.76267" lon="2.17542">
        <ele>83.6</ele>
        <time>2022-05-11T14:13:41Z</time>
      </trkpt>
      <trkpt lat="49.76269" lon="2.17541">
        <ele>83.6</ele>
        <time>2022-05-11T14:13:42Z</time>
      </trkpt>
      <trkpt lat="49.76271" lon="2.17541">
        <ele>83.5</ele>
        <time>2022-05-11T14:13:44Z</time>
      </trkpt>
      <trkpt lat="49.76273" lon="2.1754">
        <ele>83.4</ele>
        <time>2022-05-11T14:13:45Z</time>
      </trkpt>
      <trkpt lat="49.76274" lon="2.1754">
        <ele>83.4</ele>
        <time>2022-05-11T14:13:46Z</time>
      </trkpt>
      <trkpt lat="49.76275" lon="2.1754">
        <ele>83.4</ele>
        <time>2022-05-11T14:13:47Z</time>
      </trkpt>
      <trkpt lat="49.76277" lon="2.1754">
        <ele>83.3</ele>
        <time>2022-05-11T14:13:48Z</time>
      </trkpt>
      <trkpt lat="49.76278" lon="2.1754">
        <ele>83.3</ele>
        <time>2022-05-11T14:13:49Z</time>
      </trkpt>
      <trkpt lat="49.76279" lon="2.17539">
        <ele>83.3</ele>
        <time>2022-05-11T14:13:50Z</time>
      </trkpt>
      <trkpt lat="49.7628" lon="2.17539">
        <ele>83.2</ele>
        <time>2022-05-11T14:13:51Z</time>
      </trkpt>
      <trkpt lat="49.76283" lon="2.17538">
        <ele>83.2</ele>
        <time>2022-05-11T14:13:53Z</time>
      </trkpt>
      <trkpt lat="49.76284" lon="2.17538">
        <ele>83.1</ele>
        <time>2022-05-11T14:13:54Z</time>
      </trkpt>
      <trkpt lat="49.76286" lon="2.17537">
        <ele>83.1</ele>
        <time>2022-05-11T14:13:55Z</time>
      </trkpt>
      <trkpt lat="49.76288" lon="2.17536">
        <ele>83.1</ele>
        <time>2022-05-11T14:13:56Z</time>
      </trkpt>
      <trkpt lat="49.76288" lon="2.17536">
        <ele>83</ele>
        <time>2022-05-11T14:13:57Z</time>
      </trkpt>
      <trkpt lat="49.76289" lon="2.17536">
        <ele>83</ele>
        <time>2022-05-11T14:13:58Z</time>
      </trkpt>
      <trkpt lat="49.7629" lon="2.17536">
        <ele>83</ele>
        <time>2022-05-11T14:13:59Z</time>
      </trkpt>
      <trkpt lat="49.76291" lon="2.17535">
        <ele>83</ele>
        <time>2022-05-11T14:14:00Z</time>
      </trkpt>
      <trkpt lat="49.76292" lon="2.17535">
        <ele>83</ele>
        <time>2022-05-11T14:14:01Z</time>
      </trkpt>
      <trkpt lat="49.76293" lon="2.17535">
        <ele>82.9</ele>
        <time>2022-05-11T14:14:03Z</time>
      </trkpt>
      <trkpt lat="49.76294" lon="2.17535">
        <ele>82.9</ele>
        <time>2022-05-11T14:14:04Z</time>
      </trkpt>
      <trkpt lat="49.76297" lon="2.17534">
        <ele>82.9</ele>
        <time>2022-05-11T14:14:06Z</time>
      </trkpt>
      <trkpt lat="49.76299" lon="2.17533">
        <ele>82.8</ele>
        <time>2022-05-11T14:14:07Z</time>
      </trkpt>
      <trkpt lat="49.763" lon="2.17533">
        <ele>82.8</ele>
        <time>2022-05-11T14:14:08Z</time>
      </trkpt>
      <trkpt lat="49.763" lon="2.17532">
        <ele>82.8</ele>
        <time>2022-05-11T14:14:09Z</time>
      </trkpt>
      <trkpt lat="49.76302" lon="2.17532">
        <ele>82.8</ele>
        <time>2022-05-11T14:14:10Z</time>
      </trkpt>
      <trkpt lat="49.76303" lon="2.17531">
        <ele>82.7</ele>
        <time>2022-05-11T14:14:11Z</time>
      </trkpt>
      <trkpt lat="49.76305" lon="2.1753">
        <ele>82.6</ele>
        <time>2022-05-11T14:14:13Z</time>
      </trkpt>
      <trkpt lat="49.76306" lon="2.17529">
        <ele>82.6</ele>
        <time>2022-05-11T14:14:14Z</time>
      </trkpt>
      <trkpt lat="49.76307" lon="2.17529">
        <ele>82.6</ele>
        <time>2022-05-11T14:14:15Z</time>
      </trkpt>
      <trkpt lat="49.76308" lon="2.17529">
        <ele>82.6</ele>
        <time>2022-05-11T14:14:16Z</time>
      </trkpt>
      <trkpt lat="49.76309" lon="2.17528">
        <ele>82.6</ele>
        <time>2022-05-11T14:14:17Z</time>
      </trkpt>
      <trkpt lat="49.7631" lon="2.17528">
        <ele>82.5</ele>
        <time>2022-05-11T14:14:19Z</time>
      </trkpt>
      <trkpt lat="49.7631" lon="2.17527">
        <ele>82.5</ele>
        <time>2022-05-11T14:14:20Z</time>
      </trkpt>
      <trkpt lat="49.76311" lon="2.17527">
        <ele>82.5</ele>
        <time>2022-05-11T14:14:21Z</time>
      </trkpt>
      <trkpt lat="49.76312" lon="2.17526">
        <ele>82.5</ele>
        <time>2022-05-11T14:14:22Z</time>
      </trkpt>
      <trkpt lat="49.76312" lon="2.17526">
        <ele>82.5</ele>
        <time>2022-05-11T14:14:23Z</time>
      </trkpt>
      <trkpt lat="49.76312" lon="2.17525">
        <ele>82.5</ele>
        <time>2022-05-11T14:14:24Z</time>
      </trkpt>
      <trkpt lat="49.76313" lon="2.17522">
        <ele>82.5</ele>
        <time>2022-05-11T14:14:26Z</time>
      </trkpt>
      <trkpt lat="49.76314" lon="2.17521">
        <ele>82.4</ele>
        <time>2022-05-11T14:14:27Z</time>
      </trkpt>
      <trkpt lat="49.76314" lon="2.1752">
        <ele>82.4</ele>
        <time>2022-05-11T14:14:28Z</time>
      </trkpt>
      <trkpt lat="49.76315" lon="2.17519">
        <ele>82.4</ele>
        <time>2022-05-11T14:14:29Z</time>
      </trkpt>
      <trkpt lat="49.76316" lon="2.17517">
        <ele>82.4</ele>
        <time>2022-05-11T14:14:30Z</time>
      </trkpt>
      <trkpt lat="49.76316" lon="2.17516">
        <ele>82.4</ele>
        <time>2022-05-11T14:14:31Z</time>
      </trkpt>
      <trkpt lat="49.76317" lon="2.17514">
        <ele>82.4</ele>
        <time>2022-05-11T14:14:32Z</time>
      </trkpt>
      <trkpt lat="49.76318" lon="2.17512">
        <ele>82.4</ele>
        <time>2022-05-11T14:14:34Z</time>
      </trkpt>
      <trkpt lat="49.76318" lon="2.1751">
        <ele>82.3</ele>
        <time>2022-05-11T14:14:35Z</time>
      </trkpt>
      <trkpt lat="49.76319" lon="2.17507">
        <ele>82.3</ele>
        <time>2022-05-11T14:14:36Z</time>
      </trkpt>
      <trkpt lat="49.76319" lon="2.17505">
        <ele>82.3</ele>
        <time>2022-05-11T14:14:37Z</time>
      </trkpt>
      <trkpt lat="49.76319" lon="2.17504">
        <ele>82.3</ele>
        <time>2022-05-11T14:14:38Z</time>
      </trkpt>
      <trkpt lat="49.76319" lon="2.17502">
        <ele>82.3</ele>
        <time>2022-05-11T14:14:39Z</time>
      </trkpt>
      <trkpt lat="49.76318" lon="2.175">
        <ele>82.3</ele>
        <time>2022-05-11T14:14:41Z</time>
      </trkpt>
      <trkpt lat="49.76318" lon="2.17497">
        <ele>82.3</ele>
        <time>2022-05-11T14:14:42Z</time>
      </trkpt>
      <trkpt lat="49.76318" lon="2.17495">
        <ele>82.3</ele>
        <time>2022-05-11T14:14:43Z</time>
      </trkpt>
      <trkpt lat="49.76318" lon="2.17494">
        <ele>82.3</ele>
        <time>2022-05-11T14:14:44Z</time>
      </trkpt>
      <trkpt lat="49.76318" lon="2.17493">
        <ele>82.2</ele>
        <time>2022-05-11T14:14:45Z</time>
      </trkpt>
      <trkpt lat="49.76319" lon="2.17491">
        <ele>82.2</ele>
        <time>2022-05-11T14:14:46Z</time>
      </trkpt>
      <trkpt lat="49.76319" lon="2.17488">
        <ele>82.2</ele>
        <time>2022-05-11T14:14:47Z</time>
      </trkpt>
      <trkpt lat="49.76319" lon="2.17486">
        <ele>82.2</ele>
        <time>2022-05-11T14:14:48Z</time>
      </trkpt>
      <trkpt lat="49.7632" lon="2.17484">
        <ele>82.2</ele>
        <time>2022-05-11T14:14:49Z</time>
      </trkpt>
      <trkpt lat="49.7632" lon="2.1748">
        <ele>82.2</ele>
        <time>2022-05-11T14:14:51Z</time>
      </trkpt>
      <trkpt lat="49.7632" lon="2.17477">
        <ele>82.1</ele>
        <time>2022-05-11T14:14:52Z</time>
      </trkpt>
      <trkpt lat="49.7632" lon="2.17476">
        <ele>82.1</ele>
        <time>2022-05-11T14:14:53Z</time>
      </trkpt>
      <trkpt lat="49.76321" lon="2.17475">
        <ele>82.1</ele>
        <time>2022-05-11T14:14:54Z</time>
      </trkpt>
      <trkpt lat="49.76321" lon="2.1747">
        <ele>82.1</ele>
        <time>2022-05-11T14:14:56Z</time>
      </trkpt>
      <trkpt lat="49.76321" lon="2.17469">
        <ele>82.1</ele>
        <time>2022-05-11T14:14:57Z</time>
      </trkpt>
      <trkpt lat="49.76322" lon="2.17467">
        <ele>82.1</ele>
        <time>2022-05-11T14:14:58Z</time>
      </trkpt>
      <trkpt lat="49.76323" lon="2.17465">
        <ele>82</ele>
        <time>2022-05-11T14:14:59Z</time>
      </trkpt>
      <trkpt lat="49.76323" lon="2.17463">
        <ele>82</ele>
        <time>2022-05-11T14:15:00Z</time>
      </trkpt>
      <trkpt lat="49.76323" lon="2.17462">
        <ele>82</ele>
        <time>2022-05-11T14:15:01Z</time>
      </trkpt>
      <trkpt lat="49.76323" lon="2.1746">
        <ele>82</ele>
        <time>2022-05-11T14:15:02Z</time>
      </trkpt>
      <trkpt lat="49.76323" lon="2.17459">
        <ele>82</ele>
        <time>2022-05-11T14:15:03Z</time>
      </trkpt>
      <trkpt lat="49.76324" lon="2.17456">
        <ele>81.9</ele>
        <time>2022-05-11T14:15:05Z</time>
      </trkpt>
      <trkpt lat="49.76324" lon="2.17454">
        <ele>81.9</ele>
        <time>2022-05-11T14:15:06Z</time>
      </trkpt>
      <trkpt lat="49.76325" lon="2.17451">
        <ele>81.9</ele>
        <time>2022-05-11T14:15:07Z</time>
      </trkpt>
      <trkpt lat="49.76326" lon="2.17448">
        <ele>81.8</ele>
        <time>2022-05-11T14:15:09Z</time>
      </trkpt>
      <trkpt lat="49.76326" lon="2.17446">
        <ele>81.8</ele>
        <time>2022-05-11T14:15:10Z</time>
      </trkpt>
      <trkpt lat="49.76326" lon="2.17445">
        <ele>81.8</ele>
        <time>2022-05-11T14:15:11Z</time>
      </trkpt>
      <trkpt lat="49.76327" lon="2.17444">
        <ele>81.8</ele>
        <time>2022-05-11T14:15:12Z</time>
      </trkpt>
      <trkpt lat="49.76327" lon="2.17443">
        <ele>81.8</ele>
        <time>2022-05-11T14:15:13Z</time>
      </trkpt>
      <trkpt lat="49.76327" lon="2.17441">
        <ele>81.7</ele>
        <time>2022-05-11T14:15:14Z</time>
      </trkpt>
      <trkpt lat="49.76328" lon="2.17439">
        <ele>81.7</ele>
        <time>2022-05-11T14:15:15Z</time>
      </trkpt>
      <trkpt lat="49.76328" lon="2.17438">
        <ele>81.7</ele>
        <time>2022-05-11T14:15:16Z</time>
      </trkpt>
      <trkpt lat="49.76329" lon="2.17435">
        <ele>81.6</ele>
        <time>2022-05-11T14:15:18Z</time>
      </trkpt>
      <trkpt lat="49.76329" lon="2.17434">
        <ele>81.6</ele>
        <time>2022-05-11T14:15:19Z</time>
      </trkpt>
      <trkpt lat="49.7633" lon="2.17432">
        <ele>81.6</ele>
        <time>2022-05-11T14:15:20Z</time>
      </trkpt>
      <trkpt lat="49.7633" lon="2.17431">
        <ele>81.6</ele>
        <time>2022-05-11T14:15:21Z</time>
      </trkpt>
      <trkpt lat="49.76331" lon="2.17428">
        <ele>81.5</ele>
        <time>2022-05-11T14:15:22Z</time>
      </trkpt>
      <trkpt lat="49.76331" lon="2.17427">
        <ele>81.5</ele>
        <time>2022-05-11T14:15:23Z</time>
      </trkpt>
      <trkpt lat="49.76332" lon="2.17426">
        <ele>81.5</ele>
        <time>2022-05-11T14:15:24Z</time>
      </trkpt>
      <trkpt lat="49.76332" lon="2.17424">
        <ele>81.4</ele>
        <time>2022-05-11T14:15:25Z</time>
      </trkpt>
      <trkpt lat="49.76333" lon="2.17423">
        <ele>81.4</ele>
        <time>2022-05-11T14:15:26Z</time>
      </trkpt>
      <trkpt lat="49.76333" lon="2.1742">
        <ele>81.4</ele>
        <time>2022-05-11T14:15:28Z</time>
      </trkpt>
      <trkpt lat="49.76334" lon="2.17418">
        <ele>81.3</ele>
        <time>2022-05-11T14:15:29Z</time>
      </trkpt>
      <trkpt lat="49.76334" lon="2.17416">
        <ele>81.3</ele>
        <time>2022-05-11T14:15:30Z</time>
      </trkpt>
      <trkpt lat="49.76335" lon="2.17415">
        <ele>81.3</ele>
        <time>2022-05-11T14:15:31Z</time>
      </trkpt>
      <trkpt lat="49.76335" lon="2.17413">
        <ele>81.2</ele>
        <time>2022-05-11T14:15:32Z</time>
      </trkpt>
      <trkpt lat="49.76336" lon="2.17411">
        <ele>81.2</ele>
        <time>2022-05-11T14:15:33Z</time>
      </trkpt>
      <trkpt lat="49.76336" lon="2.17409">
        <ele>81.2</ele>
        <time>2022-05-11T14:15:34Z</time>
      </trkpt>
      <trkpt lat="49.76336" lon="2.17408">
        <ele>81.1</ele>
        <time>2022-05-11T14:15:35Z</time>
      </trkpt>
      <trkpt lat="49.76337" lon="2.17406">
        <ele>81.1</ele>
        <time>2022-05-11T14:15:36Z</time>
      </trkpt>
      <trkpt lat="49.76337" lon="2.17405">
        <ele>81.1</ele>
        <time>2022-05-11T14:15:37Z</time>
      </trkpt>
      <trkpt lat="49.76337" lon="2.17403">
        <ele>81</ele>
        <time>2022-05-11T14:15:38Z</time>
      </trkpt>
      <trkpt lat="49.76338" lon="2.17402">
        <ele>81</ele>
        <time>2022-05-11T14:15:39Z</time>
      </trkpt>
      <trkpt lat="49.76339" lon="2.17399">
        <ele>81</ele>
        <time>2022-05-11T14:15:41Z</time>
      </trkpt>
      <trkpt lat="49.76339" lon="2.17397">
        <ele>80.9</ele>
        <time>2022-05-11T14:15:42Z</time>
      </trkpt>
      <trkpt lat="49.7634" lon="2.17396">
        <ele>80.9</ele>
        <time>2022-05-11T14:15:43Z</time>
      </trkpt>
      <trkpt lat="49.7634" lon="2.17395">
        <ele>80.9</ele>
        <time>2022-05-11T14:15:44Z</time>
      </trkpt>
      <trkpt lat="49.76341" lon="2.17393">
        <ele>80.8</ele>
        <time>2022-05-11T14:15:45Z</time>
      </trkpt>
      <trkpt lat="49.76342" lon="2.17391">
        <ele>80.8</ele>
        <time>2022-05-11T14:15:46Z</time>
      </trkpt>
      <trkpt lat="49.76342" lon="2.17389">
        <ele>80.7</ele>
        <time>2022-05-11T14:15:47Z</time>
      </trkpt>
      <trkpt lat="49.76343" lon="2.17386">
        <ele>80.7</ele>
        <time>2022-05-11T14:15:49Z</time>
      </trkpt>
      <trkpt lat="49.76343" lon="2.17384">
        <ele>80.6</ele>
        <time>2022-05-11T14:15:50Z</time>
      </trkpt>
      <trkpt lat="49.76344" lon="2.17381">
        <ele>80.6</ele>
        <time>2022-05-11T14:15:52Z</time>
      </trkpt>
      <trkpt lat="49.76344" lon="2.17378">
        <ele>80.5</ele>
        <time>2022-05-11T14:15:53Z</time>
      </trkpt>
      <trkpt lat="49.76345" lon="2.17376">
        <ele>80.5</ele>
        <time>2022-05-11T14:15:54Z</time>
      </trkpt>
      <trkpt lat="49.76345" lon="2.17374">
        <ele>80.4</ele>
        <time>2022-05-11T14:15:55Z</time>
      </trkpt>
      <trkpt lat="49.76346" lon="2.17371">
        <ele>80.4</ele>
        <time>2022-05-11T14:15:56Z</time>
      </trkpt>
      <trkpt lat="49.76346" lon="2.1737">
        <ele>80.4</ele>
        <time>2022-05-11T14:15:57Z</time>
      </trkpt>
      <trkpt lat="49.76347" lon="2.17368">
        <ele>80.3</ele>
        <time>2022-05-11T14:15:58Z</time>
      </trkpt>
      <trkpt lat="49.76347" lon="2.17366">
        <ele>80.3</ele>
        <time>2022-05-11T14:16:00Z</time>
      </trkpt>
      <trkpt lat="49.76347" lon="2.17365">
        <ele>80.2</ele>
        <time>2022-05-11T14:16:01Z</time>
      </trkpt>
      <trkpt lat="49.76348" lon="2.17363">
        <ele>80.2</ele>
        <time>2022-05-11T14:16:02Z</time>
      </trkpt>
      <trkpt lat="49.76349" lon="2.17361">
        <ele>80.2</ele>
        <time>2022-05-11T14:16:03Z</time>
      </trkpt>
      <trkpt lat="49.76349" lon="2.17359">
        <ele>80.1</ele>
        <time>2022-05-11T14:16:04Z</time>
      </trkpt>
      <trkpt lat="49.7635" lon="2.17357">
        <ele>80.1</ele>
        <time>2022-05-11T14:16:05Z</time>
      </trkpt>
      <trkpt lat="49.7635" lon="2.17355">
        <ele>80</ele>
        <time>2022-05-11T14:16:06Z</time>
      </trkpt>
      <trkpt lat="49.76351" lon="2.17351">
        <ele>79.9</ele>
        <time>2022-05-11T14:16:07Z</time>
      </trkpt>
      <trkpt lat="49.76351" lon="2.1735">
        <ele>79.9</ele>
        <time>2022-05-11T14:16:08Z</time>
      </trkpt>
      <trkpt lat="49.76352" lon="2.17349">
        <ele>79.8</ele>
        <time>2022-05-11T14:16:09Z</time>
      </trkpt>
      <trkpt lat="49.76352" lon="2.17347">
        <ele>79.8</ele>
        <time>2022-05-11T14:16:10Z</time>
      </trkpt>
      <trkpt lat="49.76353" lon="2.17343">
        <ele>79.7</ele>
        <time>2022-05-11T14:16:12Z</time>
      </trkpt>
      <trkpt lat="49.76353" lon="2.1734">
        <ele>79.6</ele>
        <time>2022-05-11T14:16:13Z</time>
      </trkpt>
      <trkpt lat="49.76353" lon="2.17339">
        <ele>79.6</ele>
        <time>2022-05-11T14:16:14Z</time>
      </trkpt>
      <trkpt lat="49.76354" lon="2.17338">
        <ele>79.6</ele>
        <time>2022-05-11T14:16:15Z</time>
      </trkpt>
      <trkpt lat="49.76354" lon="2.17336">
        <ele>79.5</ele>
        <time>2022-05-11T14:16:16Z</time>
      </trkpt>
      <trkpt lat="49.76354" lon="2.17335">
        <ele>79.5</ele>
        <time>2022-05-11T14:16:17Z</time>
      </trkpt>
      <trkpt lat="49.76355" lon="2.17333">
        <ele>79.4</ele>
        <time>2022-05-11T14:16:18Z</time>
      </trkpt>
      <trkpt lat="49.76355" lon="2.1733">
        <ele>79.3</ele>
        <time>2022-05-11T14:16:20Z</time>
      </trkpt>
      <trkpt lat="49.76356" lon="2.17329">
        <ele>79.3</ele>
        <time>2022-05-11T14:16:21Z</time>
      </trkpt>
      <trkpt lat="49.76356" lon="2.17326">
        <ele>79.2</ele>
        <time>2022-05-11T14:16:22Z</time>
      </trkpt>
      <trkpt lat="49.76357" lon="2.17325">
        <ele>79.2</ele>
        <time>2022-05-11T14:16:23Z</time>
      </trkpt>
      <trkpt lat="49.76357" lon="2.17323">
        <ele>79.1</ele>
        <time>2022-05-11T14:16:24Z</time>
      </trkpt>
      <trkpt lat="49.76358" lon="2.1732">
        <ele>79</ele>
        <time>2022-05-11T14:16:25Z</time>
      </trkpt>
      <trkpt lat="49.76358" lon="2.17319">
        <ele>79</ele>
        <time>2022-05-11T14:16:27Z</time>
      </trkpt>
      <trkpt lat="49.76358" lon="2.17317">
        <ele>79</ele>
        <time>2022-05-11T14:16:28Z</time>
      </trkpt>
      <trkpt lat="49.76359" lon="2.17316">
        <ele>78.9</ele>
        <time>2022-05-11T14:16:29Z</time>
      </trkpt>
      <trkpt lat="49.76359" lon="2.17315">
        <ele>78.9</ele>
        <time>2022-05-11T14:16:30Z</time>
      </trkpt>
      <trkpt lat="49.76359" lon="2.17314">
        <ele>78.9</ele>
        <time>2022-05-11T14:16:31Z</time>
      </trkpt>
      <trkpt lat="49.7636" lon="2.17312">
        <ele>78.8</ele>
        <time>2022-05-11T14:16:33Z</time>
      </trkpt>
      <trkpt lat="49.7636" lon="2.17311">
        <ele>78.8</ele>
        <time>2022-05-11T14:16:34Z</time>
      </trkpt>
      <trkpt lat="49.7636" lon="2.1731">
        <ele>78.7</ele>
        <time>2022-05-11T14:16:35Z</time>
      </trkpt>
      <trkpt lat="49.76361" lon="2.17308">
        <ele>78.7</ele>
        <time>2022-05-11T14:16:36Z</time>
      </trkpt>
      <trkpt lat="49.76361" lon="2.17306">
        <ele>78.7</ele>
        <time>2022-05-11T14:16:37Z</time>
      </trkpt>
      <trkpt lat="49.76361" lon="2.17304">
        <ele>78.6</ele>
        <time>2022-05-11T14:16:38Z</time>
      </trkpt>
      <trkpt lat="49.76362" lon="2.17302">
        <ele>78.5</ele>
        <time>2022-05-11T14:16:39Z</time>
      </trkpt>
      <trkpt lat="49.76363" lon="2.173">
        <ele>78.5</ele>
        <time>2022-05-11T14:16:40Z</time>
      </trkpt>
      <trkpt lat="49.76363" lon="2.17299">
        <ele>78.4</ele>
        <time>2022-05-11T14:16:41Z</time>
      </trkpt>
      <trkpt lat="49.76363" lon="2.17297">
        <ele>78.4</ele>
        <time>2022-05-11T14:16:42Z</time>
      </trkpt>
      <trkpt lat="49.76364" lon="2.17294">
        <ele>78.3</ele>
        <time>2022-05-11T14:16:44Z</time>
      </trkpt>
      <trkpt lat="49.76364" lon="2.17292">
        <ele>78.2</ele>
        <time>2022-05-11T14:16:45Z</time>
      </trkpt>
      <trkpt lat="49.76365" lon="2.17289">
        <ele>78.2</ele>
        <time>2022-05-11T14:16:46Z</time>
      </trkpt>
      <trkpt lat="49.76365" lon="2.17287">
        <ele>78.1</ele>
        <time>2022-05-11T14:16:47Z</time>
      </trkpt>
      <trkpt lat="49.76366" lon="2.17286">
        <ele>78</ele>
        <time>2022-05-11T14:16:48Z</time>
      </trkpt>
      <trkpt lat="49.76367" lon="2.17284">
        <ele>78</ele>
        <time>2022-05-11T14:16:49Z</time>
      </trkpt>
      <trkpt lat="49.76367" lon="2.17282">
        <ele>77.9</ele>
        <time>2022-05-11T14:16:50Z</time>
      </trkpt>
      <trkpt lat="49.76367" lon="2.1728">
        <ele>77.9</ele>
        <time>2022-05-11T14:16:51Z</time>
      </trkpt>
      <trkpt lat="49.76368" lon="2.17279">
        <ele>77.8</ele>
        <time>2022-05-11T14:16:52Z</time>
      </trkpt>
      <trkpt lat="49.76368" lon="2.17277">
        <ele>77.8</ele>
        <time>2022-05-11T14:16:54Z</time>
      </trkpt>
      <trkpt lat="49.76368" lon="2.17276">
        <ele>77.7</ele>
        <time>2022-05-11T14:16:55Z</time>
      </trkpt>
      <trkpt lat="49.76369" lon="2.17274">
        <ele>77.7</ele>
        <time>2022-05-11T14:16:56Z</time>
      </trkpt>
      <trkpt lat="49.76369" lon="2.17272">
        <ele>77.6</ele>
        <time>2022-05-11T14:16:57Z</time>
      </trkpt>
      <trkpt lat="49.76369" lon="2.1727">
        <ele>77.6</ele>
        <time>2022-05-11T14:16:58Z</time>
      </trkpt>
      <trkpt lat="49.7637" lon="2.17268">
        <ele>77.5</ele>
        <time>2022-05-11T14:16:59Z</time>
      </trkpt>
      <trkpt lat="49.76371" lon="2.17265">
        <ele>77.4</ele>
        <time>2022-05-11T14:17:00Z</time>
      </trkpt>
      <trkpt lat="49.76371" lon="2.17263">
        <ele>77.4</ele>
        <time>2022-05-11T14:17:01Z</time>
      </trkpt>
      <trkpt lat="49.76371" lon="2.17261">
        <ele>77.3</ele>
        <time>2022-05-11T14:17:02Z</time>
      </trkpt>
      <trkpt lat="49.76372" lon="2.17259">
        <ele>77.3</ele>
        <time>2022-05-11T14:17:03Z</time>
      </trkpt>
      <trkpt lat="49.76372" lon="2.17257">
        <ele>77.2</ele>
        <time>2022-05-11T14:17:05Z</time>
      </trkpt>
      <trkpt lat="49.76372" lon="2.17258">
        <ele>77.2</ele>
        <time>2022-05-11T14:17:06Z</time>
      </trkpt>
      <trkpt lat="49.76372" lon="2.17257">
        <ele>77.2</ele>
        <time>2022-05-11T14:17:07Z</time>
      </trkpt>
      <trkpt lat="49.76373" lon="2.17256">
        <ele>77.1</ele>
        <time>2022-05-11T14:17:08Z</time>
      </trkpt>
      <trkpt lat="49.76373" lon="2.17253">
        <ele>77.1</ele>
        <time>2022-05-11T14:17:10Z</time>
      </trkpt>
      <trkpt lat="49.76373" lon="2.1725">
        <ele>77</ele>
        <time>2022-05-11T14:17:11Z</time>
      </trkpt>
      <trkpt lat="49.76374" lon="2.17248">
        <ele>76.9</ele>
        <time>2022-05-11T14:17:12Z</time>
      </trkpt>
      <trkpt lat="49.76374" lon="2.17246">
        <ele>76.9</ele>
        <time>2022-05-11T14:17:13Z</time>
      </trkpt>
      <trkpt lat="49.76375" lon="2.17244">
        <ele>76.8</ele>
        <time>2022-05-11T14:17:14Z</time>
      </trkpt>
      <trkpt lat="49.76375" lon="2.17243">
        <ele>76.8</ele>
        <time>2022-05-11T14:17:15Z</time>
      </trkpt>
      <trkpt lat="49.76376" lon="2.17241">
        <ele>76.7</ele>
        <time>2022-05-11T14:17:16Z</time>
      </trkpt>
      <trkpt lat="49.76376" lon="2.1724">
        <ele>76.7</ele>
        <time>2022-05-11T14:17:17Z</time>
      </trkpt>
      <trkpt lat="49.76377" lon="2.17237">
        <ele>76.6</ele>
        <time>2022-05-11T14:17:18Z</time>
      </trkpt>
      <trkpt lat="49.76377" lon="2.17235">
        <ele>76.6</ele>
        <time>2022-05-11T14:17:20Z</time>
      </trkpt>
      <trkpt lat="49.76378" lon="2.17233">
        <ele>76.5</ele>
        <time>2022-05-11T14:17:21Z</time>
      </trkpt>
      <trkpt lat="49.76378" lon="2.17231">
        <ele>76.4</ele>
        <time>2022-05-11T14:17:22Z</time>
      </trkpt>
      <trkpt lat="49.76379" lon="2.17228">
        <ele>76.4</ele>
        <time>2022-05-11T14:17:23Z</time>
      </trkpt>
      <trkpt lat="49.7638" lon="2.17227">
        <ele>76.3</ele>
        <time>2022-05-11T14:17:24Z</time>
      </trkpt>
      <trkpt lat="49.7638" lon="2.17225">
        <ele>76.3</ele>
        <time>2022-05-11T14:17:25Z</time>
      </trkpt>
      <trkpt lat="49.76381" lon="2.17224">
        <ele>76.2</ele>
        <time>2022-05-11T14:17:26Z</time>
      </trkpt>
      <trkpt lat="49.76382" lon="2.17223">
        <ele>76.2</ele>
        <time>2022-05-11T14:17:27Z</time>
      </trkpt>
      <trkpt lat="49.76382" lon="2.17221">
        <ele>76.1</ele>
        <time>2022-05-11T14:17:28Z</time>
      </trkpt>
      <trkpt lat="49.76383" lon="2.17217">
        <ele>76</ele>
        <time>2022-05-11T14:17:30Z</time>
      </trkpt>
      <trkpt lat="49.76384" lon="2.17216">
        <ele>75.9</ele>
        <time>2022-05-11T14:17:31Z</time>
      </trkpt>
      <trkpt lat="49.76384" lon="2.17214">
        <ele>75.9</ele>
        <time>2022-05-11T14:17:32Z</time>
      </trkpt>
      <trkpt lat="49.76385" lon="2.17213">
        <ele>75.8</ele>
        <time>2022-05-11T14:17:33Z</time>
      </trkpt>
      <trkpt lat="49.76385" lon="2.17211">
        <ele>75.8</ele>
        <time>2022-05-11T14:17:34Z</time>
      </trkpt>
      <trkpt lat="49.76386" lon="2.1721">
        <ele>75.7</ele>
        <time>2022-05-11T14:17:35Z</time>
      </trkpt>
      <trkpt lat="49.76386" lon="2.17208">
        <ele>75.7</ele>
        <time>2022-05-11T14:17:36Z</time>
      </trkpt>
      <trkpt lat="49.76387" lon="2.17207">
        <ele>75.6</ele>
        <time>2022-05-11T14:17:37Z</time>
      </trkpt>
      <trkpt lat="49.76387" lon="2.17207">
        <ele>75.6</ele>
        <time>2022-05-11T14:17:38Z</time>
      </trkpt>
      <trkpt lat="49.76387" lon="2.17205">
        <ele>75.6</ele>
        <time>2022-05-11T14:17:39Z</time>
      </trkpt>
      <trkpt lat="49.76387" lon="2.17204">
        <ele>75.5</ele>
        <time>2022-05-11T14:17:40Z</time>
      </trkpt>
      <trkpt lat="49.76388" lon="2.17201">
        <ele>75.4</ele>
        <time>2022-05-11T14:17:42Z</time>
      </trkpt>
      <trkpt lat="49.76388" lon="2.17199">
        <ele>75.4</ele>
        <time>2022-05-11T14:17:43Z</time>
      </trkpt>
      <trkpt lat="49.76389" lon="2.17197">
        <ele>75.3</ele>
        <time>2022-05-11T14:17:44Z</time>
      </trkpt>
      <trkpt lat="49.76389" lon="2.17196">
        <ele>75.3</ele>
        <time>2022-05-11T14:17:45Z</time>
      </trkpt>
      <trkpt lat="49.76389" lon="2.17194">
        <ele>75.2</ele>
        <time>2022-05-11T14:17:46Z</time>
      </trkpt>
      <trkpt lat="49.76389" lon="2.17192">
        <ele>75.2</ele>
        <time>2022-05-11T14:17:47Z</time>
      </trkpt>
      <trkpt lat="49.7639" lon="2.17191">
        <ele>75.1</ele>
        <time>2022-05-11T14:17:48Z</time>
      </trkpt>
      <trkpt lat="49.7639" lon="2.17189">
        <ele>75.1</ele>
        <time>2022-05-11T14:17:49Z</time>
      </trkpt>
      <trkpt lat="49.7639" lon="2.17187">
        <ele>75</ele>
        <time>2022-05-11T14:17:51Z</time>
      </trkpt>
      <trkpt lat="49.76391" lon="2.17186">
        <ele>74.9</ele>
        <time>2022-05-11T14:17:52Z</time>
      </trkpt>
      <trkpt lat="49.76391" lon="2.17184">
        <ele>74.9</ele>
        <time>2022-05-11T14:17:53Z</time>
      </trkpt>
      <trkpt lat="49.76391" lon="2.17182">
        <ele>74.8</ele>
        <time>2022-05-11T14:17:55Z</time>
      </trkpt>
      <trkpt lat="49.76392" lon="2.1718">
        <ele>74.7</ele>
        <time>2022-05-11T14:17:56Z</time>
      </trkpt>
      <trkpt lat="49.76392" lon="2.17178">
        <ele>74.7</ele>
        <time>2022-05-11T14:17:57Z</time>
      </trkpt>
      <trkpt lat="49.76393" lon="2.17176">
        <ele>74.6</ele>
        <time>2022-05-11T14:17:58Z</time>
      </trkpt>
      <trkpt lat="49.76393" lon="2.17172">
        <ele>74.5</ele>
        <time>2022-05-11T14:18:00Z</time>
      </trkpt>
      <trkpt lat="49.76394" lon="2.17171">
        <ele>74.4</ele>
        <time>2022-05-11T14:18:01Z</time>
      </trkpt>
      <trkpt lat="49.76394" lon="2.17168">
        <ele>74.4</ele>
        <time>2022-05-11T14:18:02Z</time>
      </trkpt>
      <trkpt lat="49.76395" lon="2.17167">
        <ele>74.3</ele>
        <time>2022-05-11T14:18:03Z</time>
      </trkpt>
      <trkpt lat="49.76395" lon="2.17165">
        <ele>74.3</ele>
        <time>2022-05-11T14:18:04Z</time>
      </trkpt>
      <trkpt lat="49.76396" lon="2.17163">
        <ele>74.2</ele>
        <time>2022-05-11T14:18:05Z</time>
      </trkpt>
      <trkpt lat="49.76396" lon="2.17161">
        <ele>74.1</ele>
        <time>2022-05-11T14:18:07Z</time>
      </trkpt>
      <trkpt lat="49.76397" lon="2.1716">
        <ele>74.1</ele>
        <time>2022-05-11T14:18:08Z</time>
      </trkpt>
      <trkpt lat="49.76397" lon="2.17158">
        <ele>74</ele>
        <time>2022-05-11T14:18:09Z</time>
      </trkpt>
      <trkpt lat="49.76397" lon="2.17156">
        <ele>74</ele>
        <time>2022-05-11T14:18:10Z</time>
      </trkpt>
      <trkpt lat="49.76398" lon="2.17154">
        <ele>73.9</ele>
        <time>2022-05-11T14:18:11Z</time>
      </trkpt>
      <trkpt lat="49.76399" lon="2.17151">
        <ele>73.8</ele>
        <time>2022-05-11T14:18:13Z</time>
      </trkpt>
      <trkpt lat="49.76399" lon="2.17149">
        <ele>73.8</ele>
        <time>2022-05-11T14:18:14Z</time>
      </trkpt>
      <trkpt lat="49.764" lon="2.17148">
        <ele>73.7</ele>
        <time>2022-05-11T14:18:15Z</time>
      </trkpt>
      <trkpt lat="49.764" lon="2.17146">
        <ele>73.7</ele>
        <time>2022-05-11T14:18:16Z</time>
      </trkpt>
      <trkpt lat="49.76401" lon="2.17144">
        <ele>73.6</ele>
        <time>2022-05-11T14:18:17Z</time>
      </trkpt>
      <trkpt lat="49.76401" lon="2.17142">
        <ele>73.5</ele>
        <time>2022-05-11T14:18:19Z</time>
      </trkpt>
      <trkpt lat="49.76402" lon="2.17139">
        <ele>73.5</ele>
        <time>2022-05-11T14:18:20Z</time>
      </trkpt>
      <trkpt lat="49.76403" lon="2.17136">
        <ele>73.4</ele>
        <time>2022-05-11T14:18:22Z</time>
      </trkpt>
      <trkpt lat="49.76403" lon="2.17133">
        <ele>73.3</ele>
        <time>2022-05-11T14:18:23Z</time>
      </trkpt>
      <trkpt lat="49.76404" lon="2.17132">
        <ele>73.3</ele>
        <time>2022-05-11T14:18:24Z</time>
      </trkpt>
      <trkpt lat="49.76404" lon="2.17131">
        <ele>73.2</ele>
        <time>2022-05-11T14:18:25Z</time>
      </trkpt>
      <trkpt lat="49.76405" lon="2.17128">
        <ele>73.2</ele>
        <time>2022-05-11T14:18:26Z</time>
      </trkpt>
      <trkpt lat="49.76405" lon="2.17126">
        <ele>73.1</ele>
        <time>2022-05-11T14:18:27Z</time>
      </trkpt>
      <trkpt lat="49.76406" lon="2.17123">
        <ele>73</ele>
        <time>2022-05-11T14:18:28Z</time>
      </trkpt>
      <trkpt lat="49.76406" lon="2.17121">
        <ele>73</ele>
        <time>2022-05-11T14:18:30Z</time>
      </trkpt>
      <trkpt lat="49.76407" lon="2.17119">
        <ele>72.9</ele>
        <time>2022-05-11T14:18:31Z</time>
      </trkpt>
      <trkpt lat="49.76407" lon="2.17118">
        <ele>72.9</ele>
        <time>2022-05-11T14:18:32Z</time>
      </trkpt>
      <trkpt lat="49.76408" lon="2.17116">
        <ele>72.9</ele>
        <time>2022-05-11T14:18:33Z</time>
      </trkpt>
      <trkpt lat="49.76408" lon="2.17115">
        <ele>72.8</ele>
        <time>2022-05-11T14:18:34Z</time>
      </trkpt>
      <trkpt lat="49.76409" lon="2.17113">
        <ele>72.8</ele>
        <time>2022-05-11T14:18:35Z</time>
      </trkpt>
      <trkpt lat="49.76409" lon="2.17111">
        <ele>72.7</ele>
        <time>2022-05-11T14:18:36Z</time>
      </trkpt>
      <trkpt lat="49.7641" lon="2.17109">
        <ele>72.7</ele>
        <time>2022-05-11T14:18:37Z</time>
      </trkpt>
      <trkpt lat="49.7641" lon="2.17107">
        <ele>72.6</ele>
        <time>2022-05-11T14:18:38Z</time>
      </trkpt>
      <trkpt lat="49.7641" lon="2.17105">
        <ele>72.6</ele>
        <time>2022-05-11T14:18:39Z</time>
      </trkpt>
      <trkpt lat="49.76411" lon="2.17104">
        <ele>72.6</ele>
        <time>2022-05-11T14:18:40Z</time>
      </trkpt>
      <trkpt lat="49.76411" lon="2.17103">
        <ele>72.5</ele>
        <time>2022-05-11T14:18:41Z</time>
      </trkpt>
      <trkpt lat="49.76411" lon="2.17102">
        <ele>72.5</ele>
        <time>2022-05-11T14:18:42Z</time>
      </trkpt>
      <trkpt lat="49.76412" lon="2.171">
        <ele>72.5</ele>
        <time>2022-05-11T14:18:43Z</time>
      </trkpt>
      <trkpt lat="49.76412" lon="2.17098">
        <ele>72.4</ele>
        <time>2022-05-11T14:18:45Z</time>
      </trkpt>
      <trkpt lat="49.76413" lon="2.17094">
        <ele>72.3</ele>
        <time>2022-05-11T14:18:46Z</time>
      </trkpt>
      <trkpt lat="49.76413" lon="2.17093">
        <ele>72.3</ele>
        <time>2022-05-11T14:18:47Z</time>
      </trkpt>
      <trkpt lat="49.76413" lon="2.17092">
        <ele>72.3</ele>
        <time>2022-05-11T14:18:48Z</time>
      </trkpt>
      <trkpt lat="49.76414" lon="2.1709">
        <ele>72.3</ele>
        <time>2022-05-11T14:18:49Z</time>
      </trkpt>
      <trkpt lat="49.76414" lon="2.17089">
        <ele>72.2</ele>
        <time>2022-05-11T14:18:50Z</time>
      </trkpt>
      <trkpt lat="49.76414" lon="2.17087">
        <ele>72.2</ele>
        <time>2022-05-11T14:18:51Z</time>
      </trkpt>
      <trkpt lat="49.76415" lon="2.17086">
        <ele>72.1</ele>
        <time>2022-05-11T14:18:53Z</time>
      </trkpt>
      <trkpt lat="49.76416" lon="2.17085">
        <ele>72.1</ele>
        <time>2022-05-11T14:18:54Z</time>
      </trkpt>
      <trkpt lat="49.76416" lon="2.17083">
        <ele>72.1</ele>
        <time>2022-05-11T14:18:55Z</time>
      </trkpt>
      <trkpt lat="49.76417" lon="2.1708">
        <ele>72</ele>
        <time>2022-05-11T14:18:56Z</time>
      </trkpt>
      <trkpt lat="49.76417" lon="2.17079">
        <ele>72</ele>
        <time>2022-05-11T14:18:57Z</time>
      </trkpt>
      <trkpt lat="49.76417" lon="2.17078">
        <ele>72</ele>
        <time>2022-05-11T14:18:58Z</time>
      </trkpt>
      <trkpt lat="49.76418" lon="2.17076">
        <ele>72</ele>
        <time>2022-05-11T14:18:59Z</time>
      </trkpt>
      <trkpt lat="49.76418" lon="2.17074">
        <ele>71.9</ele>
        <time>2022-05-11T14:19:00Z</time>
      </trkpt>
      <trkpt lat="49.76419" lon="2.17072">
        <ele>71.9</ele>
        <time>2022-05-11T14:19:01Z</time>
      </trkpt>
      <trkpt lat="49.76419" lon="2.1707">
        <ele>71.8</ele>
        <time>2022-05-11T14:19:02Z</time>
      </trkpt>
      <trkpt lat="49.7642" lon="2.17068">
        <ele>71.8</ele>
        <time>2022-05-11T14:19:03Z</time>
      </trkpt>
      <trkpt lat="49.76421" lon="2.17066">
        <ele>71.8</ele>
        <time>2022-05-11T14:19:04Z</time>
      </trkpt>
      <trkpt lat="49.76421" lon="2.17064">
        <ele>71.8</ele>
        <time>2022-05-11T14:19:05Z</time>
      </trkpt>
      <trkpt lat="49.76421" lon="2.17063">
        <ele>71.7</ele>
        <time>2022-05-11T14:19:06Z</time>
      </trkpt>
      <trkpt lat="49.76422" lon="2.17062">
        <ele>71.7</ele>
        <time>2022-05-11T14:19:07Z</time>
      </trkpt>
      <trkpt lat="49.76422" lon="2.1706">
        <ele>71.7</ele>
        <time>2022-05-11T14:19:08Z</time>
      </trkpt>
      <trkpt lat="49.76423" lon="2.17059">
        <ele>71.7</ele>
        <time>2022-05-11T14:19:09Z</time>
      </trkpt>
      <trkpt lat="49.76423" lon="2.17058">
        <ele>71.6</ele>
        <time>2022-05-11T14:19:10Z</time>
      </trkpt>
      <trkpt lat="49.76424" lon="2.17056">
        <ele>71.6</ele>
        <time>2022-05-11T14:19:11Z</time>
      </trkpt>
      <trkpt lat="49.76424" lon="2.17055">
        <ele>71.6</ele>
        <time>2022-05-11T14:19:12Z</time>
      </trkpt>
      <trkpt lat="49.76425" lon="2.17053">
        <ele>71.6</ele>
        <time>2022-05-11T14:19:14Z</time>
      </trkpt>
      <trkpt lat="49.76426" lon="2.17051">
        <ele>71.6</ele>
        <time>2022-05-11T14:19:15Z</time>
      </trkpt>
      <trkpt lat="49.76427" lon="2.1705">
        <ele>71.5</ele>
        <time>2022-05-11T14:19:16Z</time>
      </trkpt>
      <trkpt lat="49.76428" lon="2.17049">
        <ele>71.5</ele>
        <time>2022-05-11T14:19:17Z</time>
      </trkpt>
      <trkpt lat="49.76429" lon="2.17047">
        <ele>71.5</ele>
        <time>2022-05-11T14:19:18Z</time>
      </trkpt>
      <trkpt lat="49.7643" lon="2.17048">
        <ele>71.5</ele>
        <time>2022-05-11T14:19:19Z</time>
      </trkpt>
      <trkpt lat="49.76432" lon="2.17047">
        <ele>71.4</ele>
        <time>2022-05-11T14:19:21Z</time>
      </trkpt>
      <trkpt lat="49.76432" lon="2.17047">
        <ele>71.4</ele>
        <time>2022-05-11T14:19:22Z</time>
      </trkpt>
      <trkpt lat="49.76433" lon="2.17047">
        <ele>71.4</ele>
        <time>2022-05-11T14:19:23Z</time>
      </trkpt>
      <trkpt lat="49.76433" lon="2.17048">
        <ele>71.4</ele>
        <time>2022-05-11T14:19:24Z</time>
      </trkpt>
      <trkpt lat="49.76433" lon="2.17048">
        <ele>71.4</ele>
        <time>2022-05-11T14:19:25Z</time>
      </trkpt>
      <trkpt lat="49.76433" lon="2.17048">
        <ele>71.4</ele>
        <time>2022-05-11T14:19:26Z</time>
      </trkpt>
      <trkpt lat="49.76433" lon="2.17048">
        <ele>71.4</ele>
        <time>2022-05-11T14:19:27Z</time>
      </trkpt>
      <trkpt lat="49.76433" lon="2.17048">
        <ele>71.4</ele>
        <time>2022-05-11T14:19:28Z</time>
      </trkpt>
      <trkpt lat="49.76433" lon="2.17048">
        <ele>71.4</ele>
        <time>2022-05-11T14:19:29Z</time>
      </trkpt>
      <trkpt lat="49.76433" lon="2.17049">
        <ele>71.4</ele>
        <time>2022-05-11T14:19:30Z</time>
      </trkpt>
      <trkpt lat="49.76433" lon="2.17049">
        <ele>71.4</ele>
        <time>2022-05-11T14:19:31Z</time>
      </trkpt>
      <trkpt lat="49.76433" lon="2.17049">
        <ele>71.4</ele>
        <time>2022-05-11T14:19:32Z</time>
      </trkpt>
      <trkpt lat="49.76433" lon="2.17049">
        <ele>71.4</ele>
        <time>2022-05-11T14:19:33Z</time>
      </trkpt>
      <trkpt lat="49.76433" lon="2.17049">
        <ele>71.4</ele>
        <time>2022-05-11T14:19:34Z</time>
      </trkpt>
      <trkpt lat="49.76433" lon="2.17049">
        <ele>71.4</ele>
        <time>2022-05-11T14:19:35Z</time>
      </trkpt>
      <trkpt lat="49.76433" lon="2.17049">
        <ele>71.4</ele>
        <time>2022-05-11T14:19:36Z</time>
      </trkpt>
      <trkpt lat="49.76433" lon="2.1705">
        <ele>71.4</ele>
        <time>2022-05-11T14:19:37Z</time>
      </trkpt>
      <trkpt lat="49.76432" lon="2.1705">
        <ele>71.4</ele>
        <time>2022-05-11T14:19:38Z</time>
      </trkpt>
      <trkpt lat="49.76432" lon="2.1705">
        <ele>71.4</ele>
        <time>2022-05-11T14:19:39Z</time>
      </trkpt>
      <trkpt lat="49.76432" lon="2.1705">
        <ele>71.4</ele>
        <time>2022-05-11T14:19:40Z</time>
      </trkpt>
      <trkpt lat="49.76432" lon="2.1705">
        <ele>71.4</ele>
        <time>2022-05-11T14:19:41Z</time>
      </trkpt>
      <trkpt lat="49.76432" lon="2.1705">
        <ele>71.4</ele>
        <time>2022-05-11T14:19:42Z</time>
      </trkpt>
      <trkpt lat="49.76432" lon="2.17051">
        <ele>71.4</ele>
        <time>2022-05-11T14:19:43Z</time>
      </trkpt>
      <trkpt lat="49.76432" lon="2.17051">
        <ele>71.4</ele>
        <time>2022-05-11T14:19:44Z</time>
      </trkpt>
      <trkpt lat="49.76432" lon="2.17051">
        <ele>71.4</ele>
        <time>2022-05-11T14:19:45Z</time>
      </trkpt>
      <trkpt lat="49.76432" lon="2.17051">
        <ele>71.4</ele>
        <time>2022-05-11T14:19:46Z</time>
      </trkpt>
      <trkpt lat="49.76432" lon="2.17051">
        <ele>71.4</ele>
        <time>2022-05-11T14:19:47Z</time>
      </trkpt>
      <trkpt lat="49.76432" lon="2.17051">
        <ele>71.4</ele>
        <time>2022-05-11T14:19:48Z</time>
      </trkpt>
      <trkpt lat="49.76432" lon="2.17051">
        <ele>71.4</ele>
        <time>2022-05-11T14:19:49Z</time>
      </trkpt>
      <trkpt lat="49.76432" lon="2.17052">
        <ele>71.4</ele>
        <time>2022-05-11T14:19:50Z</time>
      </trkpt>
      <trkpt lat="49.76432" lon="2.17052">
        <ele>71.4</ele>
        <time>2022-05-11T14:19:51Z</time>
      </trkpt>
      <trkpt lat="49.76432" lon="2.17052">
        <ele>71.4</ele>
        <time>2022-05-11T14:19:52Z</time>
      </trkpt>
      <trkpt lat="49.76432" lon="2.17052">
        <ele>71.4</ele>
        <time>2022-05-11T14:19:53Z</time>
      </trkpt>
      <trkpt lat="49.76431" lon="2.17052">
        <ele>71.4</ele>
        <time>2022-05-11T14:19:54Z</time>
      </trkpt>
      <trkpt lat="49.76431" lon="2.17052">
        <ele>71.4</ele>
        <time>2022-05-11T14:19:55Z</time>
      </trkpt>
      <trkpt lat="49.76431" lon="2.17053">
        <ele>71.4</ele>
        <time>2022-05-11T14:19:56Z</time>
      </trkpt>
      <trkpt lat="49.76431" lon="2.17053">
        <ele>71.4</ele>
        <time>2022-05-11T14:19:57Z</time>
      </trkpt>
      <trkpt lat="49.76431" lon="2.17053">
        <ele>71.4</ele>
        <time>2022-05-11T14:19:58Z</time>
      </trkpt>
      <trkpt lat="49.76431" lon="2.17053">
        <ele>71.4</ele>
        <time>2022-05-11T14:19:59Z</time>
      </trkpt>
      <trkpt lat="49.76431" lon="2.17053">
        <ele>71.4</ele>
        <time>2022-05-11T14:20:00Z</time>
      </trkpt>
      <trkpt lat="49.76431" lon="2.17053">
        <ele>71.4</ele>
        <time>2022-05-11T14:20:01Z</time>
      </trkpt>
      <trkpt lat="49.76431" lon="2.17054">
        <ele>71.4</ele>
        <time>2022-05-11T14:20:02Z</time>
      </trkpt>
      <trkpt lat="49.76431" lon="2.17054">
        <ele>71.4</ele>
        <time>2022-05-11T14:20:03Z</time>
      </trkpt>
      <trkpt lat="49.76431" lon="2.17054">
        <ele>71.4</ele>
        <time>2022-05-11T14:20:04Z</time>
      </trkpt>
      <trkpt lat="49.76431" lon="2.17054">
        <ele>71.4</ele>
        <time>2022-05-11T14:20:05Z</time>
      </trkpt>
      <trkpt lat="49.76431" lon="2.17054">
        <ele>71.4</ele>
        <time>2022-05-11T14:20:06Z</time>
      </trkpt>
      <trkpt lat="49.76431" lon="2.17054">
        <ele>71.4</ele>
        <time>2022-05-11T14:20:07Z</time>
      </trkpt>
      <trkpt lat="49.76431" lon="2.17054">
        <ele>71.4</ele>
        <time>2022-05-11T14:20:08Z</time>
      </trkpt>
      <trkpt lat="49.76431" lon="2.17055">
        <ele>71.4</ele>
        <time>2022-05-11T14:20:09Z</time>
      </trkpt>
      <trkpt lat="49.76431" lon="2.17055">
        <ele>71.4</ele>
        <time>2022-05-11T14:20:10Z</time>
      </trkpt>
      <trkpt lat="49.76429" lon="2.17055">
        <ele>71.4</ele>
        <time>2022-05-11T14:20:11Z</time>
      </trkpt>
      <trkpt lat="49.7643" lon="2.17054">
        <ele>71.4</ele>
        <time>2022-05-11T14:20:12Z</time>
      </trkpt>
      <trkpt lat="49.7643" lon="2.17053">
        <ele>71.4</ele>
        <time>2022-05-11T14:20:13Z</time>
      </trkpt>
      <trkpt lat="49.7643" lon="2.17052">
        <ele>71.4</ele>
        <time>2022-05-11T14:20:14Z</time>
      </trkpt>
      <trkpt lat="49.7643" lon="2.1705">
        <ele>71.4</ele>
        <time>2022-05-11T14:20:15Z</time>
      </trkpt>
      <trkpt lat="49.7643" lon="2.17049">
        <ele>71.4</ele>
        <time>2022-05-11T14:20:16Z</time>
      </trkpt>
      <trkpt lat="49.76429" lon="2.17049">
        <ele>71.4</ele>
        <time>2022-05-11T14:20:17Z</time>
      </trkpt>
      <trkpt lat="49.76429" lon="2.17048">
        <ele>71.4</ele>
        <time>2022-05-11T14:20:19Z</time>
      </trkpt>
      <trkpt lat="49.7643" lon="2.17046">
        <ele>71.3</ele>
        <time>2022-05-11T14:20:20Z</time>
      </trkpt>
      <trkpt lat="49.7643" lon="2.17044">
        <ele>71.3</ele>
        <time>2022-05-11T14:20:21Z</time>
      </trkpt>
      <trkpt lat="49.76431" lon="2.17041">
        <ele>71.3</ele>
        <time>2022-05-11T14:20:22Z</time>
      </trkpt>
      <trkpt lat="49.76431" lon="2.17039">
        <ele>71.3</ele>
        <time>2022-05-11T14:20:23Z</time>
      </trkpt>
      <trkpt lat="49.76432" lon="2.17037">
        <ele>71.3</ele>
        <time>2022-05-11T14:20:24Z</time>
      </trkpt>
      <trkpt lat="49.76433" lon="2.17035">
        <ele>71.2</ele>
        <time>2022-05-11T14:20:25Z</time>
      </trkpt>
      <trkpt lat="49.76435" lon="2.17032">
        <ele>71.2</ele>
        <time>2022-05-11T14:20:27Z</time>
      </trkpt>
      <trkpt lat="49.76436" lon="2.17032">
        <ele>71.2</ele>
        <time>2022-05-11T14:20:28Z</time>
      </trkpt>
      <trkpt lat="49.76439" lon="2.17029">
        <ele>71.2</ele>
        <time>2022-05-11T14:20:29Z</time>
      </trkpt>
      <trkpt lat="49.7644" lon="2.17029">
        <ele>71.2</ele>
        <time>2022-05-11T14:20:30Z</time>
      </trkpt>
      <trkpt lat="49.76443" lon="2.17028">
        <ele>71.1</ele>
        <time>2022-05-11T14:20:31Z</time>
      </trkpt>
      <trkpt lat="49.76445" lon="2.17028">
        <ele>71.1</ele>
        <time>2022-05-11T14:20:33Z</time>
      </trkpt>
      <trkpt lat="49.76447" lon="2.17029">
        <ele>71.1</ele>
        <time>2022-05-11T14:20:34Z</time>
      </trkpt>
      <trkpt lat="49.76448" lon="2.17029">
        <ele>71.1</ele>
        <time>2022-05-11T14:20:35Z</time>
      </trkpt>
      <trkpt lat="49.7645" lon="2.1703">
        <ele>71.1</ele>
        <time>2022-05-11T14:20:36Z</time>
      </trkpt>
      <trkpt lat="49.76451" lon="2.17031">
        <ele>71</ele>
        <time>2022-05-11T14:20:37Z</time>
      </trkpt>
      <trkpt lat="49.76453" lon="2.17032">
        <ele>71</ele>
        <time>2022-05-11T14:20:38Z</time>
      </trkpt>
      <trkpt lat="49.76454" lon="2.17032">
        <ele>71</ele>
        <time>2022-05-11T14:20:39Z</time>
      </trkpt>
      <trkpt lat="49.76454" lon="2.17033">
        <ele>71</ele>
        <time>2022-05-11T14:20:40Z</time>
      </trkpt>
      <trkpt lat="49.76456" lon="2.17034">
        <ele>71</ele>
        <time>2022-05-11T14:20:41Z</time>
      </trkpt>
      <trkpt lat="49.76457" lon="2.17034">
        <ele>71</ele>
        <time>2022-05-11T14:20:43Z</time>
      </trkpt>
      <trkpt lat="49.76458" lon="2.17035">
        <ele>71</ele>
        <time>2022-05-11T14:20:44Z</time>
      </trkpt>
      <trkpt lat="49.7646" lon="2.17036">
        <ele>71</ele>
        <time>2022-05-11T14:20:45Z</time>
      </trkpt>
      <trkpt lat="49.76461" lon="2.17037">
        <ele>71</ele>
        <time>2022-05-11T14:20:46Z</time>
      </trkpt>
      <trkpt lat="49.76462" lon="2.17037">
        <ele>70.9</ele>
        <time>2022-05-11T14:20:47Z</time>
      </trkpt>
      <trkpt lat="49.76464" lon="2.17038">
        <ele>70.9</ele>
        <time>2022-05-11T14:20:49Z</time>
      </trkpt>
      <trkpt lat="49.76465" lon="2.17038">
        <ele>70.9</ele>
        <time>2022-05-11T14:20:50Z</time>
      </trkpt>
      <trkpt lat="49.76466" lon="2.17038">
        <ele>70.9</ele>
        <time>2022-05-11T14:20:51Z</time>
      </trkpt>
      <trkpt lat="49.76468" lon="2.17039">
        <ele>70.9</ele>
        <time>2022-05-11T14:20:53Z</time>
      </trkpt>
      <trkpt lat="49.76469" lon="2.17039">
        <ele>70.9</ele>
        <time>2022-05-11T14:20:54Z</time>
      </trkpt>
      <trkpt lat="49.7647" lon="2.1704">
        <ele>70.9</ele>
        <time>2022-05-11T14:20:55Z</time>
      </trkpt>
      <trkpt lat="49.76471" lon="2.1704">
        <ele>70.9</ele>
        <time>2022-05-11T14:20:56Z</time>
      </trkpt>
      <trkpt lat="49.76472" lon="2.17041">
        <ele>70.9</ele>
        <time>2022-05-11T14:20:57Z</time>
      </trkpt>
      <trkpt lat="49.76473" lon="2.17041">
        <ele>70.9</ele>
        <time>2022-05-11T14:20:59Z</time>
      </trkpt>
      <trkpt lat="49.76474" lon="2.17042">
        <ele>70.9</ele>
        <time>2022-05-11T14:21:00Z</time>
      </trkpt>
      <trkpt lat="49.76475" lon="2.17042">
        <ele>70.9</ele>
        <time>2022-05-11T14:21:01Z</time>
      </trkpt>
      <trkpt lat="49.76476" lon="2.17042">
        <ele>70.9</ele>
        <time>2022-05-11T14:21:02Z</time>
      </trkpt>
      <trkpt lat="49.76476" lon="2.17043">
        <ele>70.9</ele>
        <time>2022-05-11T14:21:03Z</time>
      </trkpt>
      <trkpt lat="49.76478" lon="2.17044">
        <ele>71</ele>
        <time>2022-05-11T14:21:04Z</time>
      </trkpt>
      <trkpt lat="49.76479" lon="2.17044">
        <ele>71</ele>
        <time>2022-05-11T14:21:05Z</time>
      </trkpt>
      <trkpt lat="49.7648" lon="2.17044">
        <ele>71</ele>
        <time>2022-05-11T14:21:06Z</time>
      </trkpt>
      <trkpt lat="49.76482" lon="2.17045">
        <ele>71</ele>
        <time>2022-05-11T14:21:08Z</time>
      </trkpt>
      <trkpt lat="49.76483" lon="2.17045">
        <ele>71</ele>
        <time>2022-05-11T14:21:09Z</time>
      </trkpt>
      <trkpt lat="49.76485" lon="2.17046">
        <ele>71</ele>
        <time>2022-05-11T14:21:10Z</time>
      </trkpt>
      <trkpt lat="49.76486" lon="2.17046">
        <ele>71</ele>
        <time>2022-05-11T14:21:11Z</time>
      </trkpt>
      <trkpt lat="49.76487" lon="2.17047">
        <ele>71</ele>
        <time>2022-05-11T14:21:12Z</time>
      </trkpt>
      <trkpt lat="49.76489" lon="2.17047">
        <ele>71</ele>
        <time>2022-05-11T14:21:13Z</time>
      </trkpt>
      <trkpt lat="49.7649" lon="2.17048">
        <ele>71</ele>
        <time>2022-05-11T14:21:14Z</time>
      </trkpt>
      <trkpt lat="49.76491" lon="2.17048">
        <ele>71</ele>
        <time>2022-05-11T14:21:15Z</time>
      </trkpt>
      <trkpt lat="49.76492" lon="2.17049">
        <ele>71</ele>
        <time>2022-05-11T14:21:16Z</time>
      </trkpt>
      <trkpt lat="49.76494" lon="2.17051">
        <ele>71</ele>
        <time>2022-05-11T14:21:17Z</time>
      </trkpt>
      <trkpt lat="49.76495" lon="2.17051">
        <ele>71</ele>
        <time>2022-05-11T14:21:19Z</time>
      </trkpt>
      <trkpt lat="49.76495" lon="2.17052">
        <ele>71</ele>
        <time>2022-05-11T14:21:20Z</time>
      </trkpt>
      <trkpt lat="49.76497" lon="2.17053">
        <ele>71</ele>
        <time>2022-05-11T14:21:21Z</time>
      </trkpt>
      <trkpt lat="49.76498" lon="2.17053">
        <ele>71</ele>
        <time>2022-05-11T14:21:22Z</time>
      </trkpt>
      <trkpt lat="49.76499" lon="2.17054">
        <ele>71</ele>
        <time>2022-05-11T14:21:23Z</time>
      </trkpt>
      <trkpt lat="49.765" lon="2.17055">
        <ele>71</ele>
        <time>2022-05-11T14:21:24Z</time>
      </trkpt>
      <trkpt lat="49.76501" lon="2.17055">
        <ele>71</ele>
        <time>2022-05-11T14:21:25Z</time>
      </trkpt>
      <trkpt lat="49.76502" lon="2.17056">
        <ele>71</ele>
        <time>2022-05-11T14:21:26Z</time>
      </trkpt>
      <trkpt lat="49.76503" lon="2.17057">
        <ele>71</ele>
        <time>2022-05-11T14:21:27Z</time>
      </trkpt>
      <trkpt lat="49.76504" lon="2.17058">
        <ele>71</ele>
        <time>2022-05-11T14:21:28Z</time>
      </trkpt>
      <trkpt lat="49.76506" lon="2.17059">
        <ele>70.9</ele>
        <time>2022-05-11T14:21:30Z</time>
      </trkpt>
      <trkpt lat="49.76507" lon="2.17059">
        <ele>70.9</ele>
        <time>2022-05-11T14:21:31Z</time>
      </trkpt>
      <trkpt lat="49.76509" lon="2.1706">
        <ele>70.9</ele>
        <time>2022-05-11T14:21:32Z</time>
      </trkpt>
      <trkpt lat="49.7651" lon="2.17061">
        <ele>70.9</ele>
        <time>2022-05-11T14:21:33Z</time>
      </trkpt>
      <trkpt lat="49.7651" lon="2.17062">
        <ele>70.9</ele>
        <time>2022-05-11T14:21:34Z</time>
      </trkpt>
      <trkpt lat="49.76511" lon="2.17063">
        <ele>70.9</ele>
        <time>2022-05-11T14:21:35Z</time>
      </trkpt>
      <trkpt lat="49.76513" lon="2.17065">
        <ele>70.9</ele>
        <time>2022-05-11T14:21:37Z</time>
      </trkpt>
      <trkpt lat="49.76514" lon="2.17066">
        <ele>70.9</ele>
        <time>2022-05-11T14:21:38Z</time>
      </trkpt>
      <trkpt lat="49.76515" lon="2.17066">
        <ele>70.9</ele>
        <time>2022-05-11T14:21:39Z</time>
      </trkpt>
      <trkpt lat="49.76516" lon="2.17067">
        <ele>70.9</ele>
        <time>2022-05-11T14:21:40Z</time>
      </trkpt>
      <trkpt lat="49.76518" lon="2.17068">
        <ele>70.9</ele>
        <time>2022-05-11T14:21:41Z</time>
      </trkpt>
      <trkpt lat="49.76518" lon="2.17069">
        <ele>70.9</ele>
        <time>2022-05-11T14:21:42Z</time>
      </trkpt>
      <trkpt lat="49.76519" lon="2.17069">
        <ele>70.9</ele>
        <time>2022-05-11T14:21:43Z</time>
      </trkpt>
      <trkpt lat="49.7652" lon="2.1707">
        <ele>70.9</ele>
        <time>2022-05-11T14:21:44Z</time>
      </trkpt>
      <trkpt lat="49.76522" lon="2.17072">
        <ele>70.9</ele>
        <time>2022-05-11T14:21:46Z</time>
      </trkpt>
      <trkpt lat="49.76523" lon="2.17073">
        <ele>70.9</ele>
        <time>2022-05-11T14:21:47Z</time>
      </trkpt>
      <trkpt lat="49.76524" lon="2.17074">
        <ele>70.9</ele>
        <time>2022-05-11T14:21:48Z</time>
      </trkpt>
      <trkpt lat="49.76526" lon="2.17075">
        <ele>70.9</ele>
        <time>2022-05-11T14:21:49Z</time>
      </trkpt>
      <trkpt lat="49.76527" lon="2.17076">
        <ele>70.9</ele>
        <time>2022-05-11T14:21:50Z</time>
      </trkpt>
      <trkpt lat="49.76528" lon="2.17077">
        <ele>70.9</ele>
        <time>2022-05-11T14:21:51Z</time>
      </trkpt>
      <trkpt lat="49.76529" lon="2.17078">
        <ele>70.9</ele>
        <time>2022-05-11T14:21:52Z</time>
      </trkpt>
      <trkpt lat="49.76531" lon="2.17079">
        <ele>70.9</ele>
        <time>2022-05-11T14:21:54Z</time>
      </trkpt>
      <trkpt lat="49.76532" lon="2.17079">
        <ele>70.8</ele>
        <time>2022-05-11T14:21:55Z</time>
      </trkpt>
      <trkpt lat="49.76533" lon="2.17081">
        <ele>70.8</ele>
        <time>2022-05-11T14:21:56Z</time>
      </trkpt>
      <trkpt lat="49.76534" lon="2.17081">
        <ele>70.8</ele>
        <time>2022-05-11T14:21:57Z</time>
      </trkpt>
      <trkpt lat="49.76535" lon="2.17082">
        <ele>70.8</ele>
        <time>2022-05-11T14:21:58Z</time>
      </trkpt>
      <trkpt lat="49.76535" lon="2.17083">
        <ele>70.8</ele>
        <time>2022-05-11T14:21:59Z</time>
      </trkpt>
      <trkpt lat="49.76536" lon="2.17083">
        <ele>70.8</ele>
        <time>2022-05-11T14:22:00Z</time>
      </trkpt>
      <trkpt lat="49.76536" lon="2.17084">
        <ele>70.8</ele>
        <time>2022-05-11T14:22:01Z</time>
      </trkpt>
      <trkpt lat="49.76536" lon="2.17085">
        <ele>70.8</ele>
        <time>2022-05-11T14:22:02Z</time>
      </trkpt>
      <trkpt lat="49.76537" lon="2.17086">
        <ele>70.8</ele>
        <time>2022-05-11T14:22:03Z</time>
      </trkpt>
      <trkpt lat="49.76538" lon="2.17086">
        <ele>70.8</ele>
        <time>2022-05-11T14:22:05Z</time>
      </trkpt>
      <trkpt lat="49.7654" lon="2.17087">
        <ele>70.8</ele>
        <time>2022-05-11T14:22:06Z</time>
      </trkpt>
      <trkpt lat="49.76541" lon="2.17088">
        <ele>70.8</ele>
        <time>2022-05-11T14:22:07Z</time>
      </trkpt>
      <trkpt lat="49.76542" lon="2.17088">
        <ele>70.8</ele>
        <time>2022-05-11T14:22:08Z</time>
      </trkpt>
      <trkpt lat="49.76543" lon="2.17088">
        <ele>70.8</ele>
        <time>2022-05-11T14:22:09Z</time>
      </trkpt>
      <trkpt lat="49.76543" lon="2.17088">
        <ele>70.8</ele>
        <time>2022-05-11T14:22:10Z</time>
      </trkpt>
      <trkpt lat="49.76544" lon="2.17088">
        <ele>70.8</ele>
        <time>2022-05-11T14:22:11Z</time>
      </trkpt>
      <trkpt lat="49.76546" lon="2.17089">
        <ele>70.7</ele>
        <time>2022-05-11T14:22:13Z</time>
      </trkpt>
      <trkpt lat="49.76548" lon="2.1709">
        <ele>70.7</ele>
        <time>2022-05-11T14:22:14Z</time>
      </trkpt>
      <trkpt lat="49.76549" lon="2.1709">
        <ele>70.7</ele>
        <time>2022-05-11T14:22:15Z</time>
      </trkpt>
      <trkpt lat="49.7655" lon="2.17091">
        <ele>70.7</ele>
        <time>2022-05-11T14:22:16Z</time>
      </trkpt>
      <trkpt lat="49.76552" lon="2.17091">
        <ele>70.7</ele>
        <time>2022-05-11T14:22:17Z</time>
      </trkpt>
      <trkpt lat="49.76553" lon="2.17092">
        <ele>70.7</ele>
        <time>2022-05-11T14:22:18Z</time>
      </trkpt>
      <trkpt lat="49.76554" lon="2.17092">
        <ele>70.6</ele>
        <time>2022-05-11T14:22:19Z</time>
      </trkpt>
      <trkpt lat="49.76556" lon="2.17093">
        <ele>70.6</ele>
        <time>2022-05-11T14:22:20Z</time>
      </trkpt>
      <trkpt lat="49.76557" lon="2.17093">
        <ele>70.6</ele>
        <time>2022-05-11T14:22:22Z</time>
      </trkpt>
      <trkpt lat="49.76558" lon="2.17093">
        <ele>70.6</ele>
        <time>2022-05-11T14:22:23Z</time>
      </trkpt>
      <trkpt lat="49.76559" lon="2.17093">
        <ele>70.6</ele>
        <time>2022-05-11T14:22:24Z</time>
      </trkpt>
      <trkpt lat="49.7656" lon="2.17093">
        <ele>70.6</ele>
        <time>2022-05-11T14:22:25Z</time>
      </trkpt>
      <trkpt lat="49.76561" lon="2.17094">
        <ele>70.6</ele>
        <time>2022-05-11T14:22:26Z</time>
      </trkpt>
      <trkpt lat="49.76562" lon="2.17094">
        <ele>70.6</ele>
        <time>2022-05-11T14:22:27Z</time>
      </trkpt>
      <trkpt lat="49.76563" lon="2.17094">
        <ele>70.6</ele>
        <time>2022-05-11T14:22:28Z</time>
      </trkpt>
      <trkpt lat="49.76564" lon="2.17094">
        <ele>70.5</ele>
        <time>2022-05-11T14:22:29Z</time>
      </trkpt>
      <trkpt lat="49.76565" lon="2.17095">
        <ele>70.5</ele>
        <time>2022-05-11T14:22:30Z</time>
      </trkpt>
      <trkpt lat="49.76567" lon="2.17095">
        <ele>70.5</ele>
        <time>2022-05-11T14:22:32Z</time>
      </trkpt>
      <trkpt lat="49.76569" lon="2.17095">
        <ele>70.5</ele>
        <time>2022-05-11T14:22:33Z</time>
      </trkpt>
      <trkpt lat="49.7657" lon="2.17096">
        <ele>70.5</ele>
        <time>2022-05-11T14:22:34Z</time>
      </trkpt>
      <trkpt lat="49.76571" lon="2.17096">
        <ele>70.5</ele>
        <time>2022-05-11T14:22:35Z</time>
      </trkpt>
      <trkpt lat="49.76572" lon="2.17096">
        <ele>70.5</ele>
        <time>2022-05-11T14:22:36Z</time>
      </trkpt>
      <trkpt lat="49.76573" lon="2.17096">
        <ele>70.5</ele>
        <time>2022-05-11T14:22:37Z</time>
      </trkpt>
      <trkpt lat="49.76575" lon="2.17096">
        <ele>70.5</ele>
        <time>2022-05-11T14:22:38Z</time>
      </trkpt>
      <trkpt lat="49.76576" lon="2.17097">
        <ele>70.5</ele>
        <time>2022-05-11T14:22:40Z</time>
      </trkpt>
      <trkpt lat="49.76578" lon="2.17097">
        <ele>70.5</ele>
        <time>2022-05-11T14:22:41Z</time>
      </trkpt>
      <trkpt lat="49.76579" lon="2.17097">
        <ele>70.5</ele>
        <time>2022-05-11T14:22:42Z</time>
      </trkpt>
      <trkpt lat="49.76581" lon="2.17097">
        <ele>70.4</ele>
        <time>2022-05-11T14:22:44Z</time>
      </trkpt>
      <trkpt lat="49.76582" lon="2.17097">
        <ele>70.4</ele>
        <time>2022-05-11T14:22:45Z</time>
      </trkpt>
      <trkpt lat="49.76583" lon="2.17097">
        <ele>70.4</ele>
        <time>2022-05-11T14:22:46Z</time>
      </trkpt>
      <trkpt lat="49.76583" lon="2.17097">
        <ele>70.4</ele>
        <time>2022-05-11T14:22:47Z</time>
      </trkpt>
      <trkpt lat="49.76584" lon="2.17097">
        <ele>70.4</ele>
        <time>2022-05-11T14:22:48Z</time>
      </trkpt>
      <trkpt lat="49.76585" lon="2.17097">
        <ele>70.4</ele>
        <time>2022-05-11T14:22:49Z</time>
      </trkpt>
      <trkpt lat="49.76586" lon="2.17097">
        <ele>70.4</ele>
        <time>2022-05-11T14:22:50Z</time>
      </trkpt>
      <trkpt lat="49.76588" lon="2.17097">
        <ele>70.4</ele>
        <time>2022-05-11T14:22:52Z</time>
      </trkpt>
      <trkpt lat="49.7659" lon="2.17097">
        <ele>70.4</ele>
        <time>2022-05-11T14:22:53Z</time>
      </trkpt>
      <trkpt lat="49.76591" lon="2.17097">
        <ele>70.4</ele>
        <time>2022-05-11T14:22:54Z</time>
      </trkpt>
      <trkpt lat="49.76591" lon="2.17097">
        <ele>70.4</ele>
        <time>2022-05-11T14:22:55Z</time>
      </trkpt>
      <trkpt lat="49.76592" lon="2.17098">
        <ele>70.4</ele>
        <time>2022-05-11T14:22:56Z</time>
      </trkpt>
      <trkpt lat="49.76594" lon="2.17098">
        <ele>70.4</ele>
        <time>2022-05-11T14:22:58Z</time>
      </trkpt>
      <trkpt lat="49.76595" lon="2.17098">
        <ele>70.4</ele>
        <time>2022-05-11T14:22:59Z</time>
      </trkpt>
      <trkpt lat="49.76596" lon="2.17099">
        <ele>70.4</ele>
        <time>2022-05-11T14:23:00Z</time>
      </trkpt>
      <trkpt lat="49.76597" lon="2.17099">
        <ele>70.4</ele>
        <time>2022-05-11T14:23:01Z</time>
      </trkpt>
      <trkpt lat="49.76598" lon="2.17099">
        <ele>70.4</ele>
        <time>2022-05-11T14:23:02Z</time>
      </trkpt>
      <trkpt lat="49.76599" lon="2.171">
        <ele>70.4</ele>
        <time>2022-05-11T14:23:03Z</time>
      </trkpt>
      <trkpt lat="49.766" lon="2.171">
        <ele>70.4</ele>
        <time>2022-05-11T14:23:04Z</time>
      </trkpt>
      <trkpt lat="49.76602" lon="2.17101">
        <ele>70.4</ele>
        <time>2022-05-11T14:23:06Z</time>
      </trkpt>
      <trkpt lat="49.76603" lon="2.17101">
        <ele>70.3</ele>
        <time>2022-05-11T14:23:07Z</time>
      </trkpt>
      <trkpt lat="49.76604" lon="2.17101">
        <ele>70.3</ele>
        <time>2022-05-11T14:23:08Z</time>
      </trkpt>
      <trkpt lat="49.76605" lon="2.17101">
        <ele>70.3</ele>
        <time>2022-05-11T14:23:09Z</time>
      </trkpt>
      <trkpt lat="49.76606" lon="2.17102">
        <ele>70.3</ele>
        <time>2022-05-11T14:23:10Z</time>
      </trkpt>
      <trkpt lat="49.76607" lon="2.17102">
        <ele>70.3</ele>
        <time>2022-05-11T14:23:11Z</time>
      </trkpt>
      <trkpt lat="49.76609" lon="2.17102">
        <ele>70.3</ele>
        <time>2022-05-11T14:23:13Z</time>
      </trkpt>
      <trkpt lat="49.7661" lon="2.17103">
        <ele>70.3</ele>
        <time>2022-05-11T14:23:14Z</time>
      </trkpt>
      <trkpt lat="49.7661" lon="2.17103">
        <ele>70.3</ele>
        <time>2022-05-11T14:23:15Z</time>
      </trkpt>
      <trkpt lat="49.76612" lon="2.17103">
        <ele>70.3</ele>
        <time>2022-05-11T14:23:16Z</time>
      </trkpt>
      <trkpt lat="49.76613" lon="2.17103">
        <ele>70.3</ele>
        <time>2022-05-11T14:23:18Z</time>
      </trkpt>
      <trkpt lat="49.76615" lon="2.17103">
        <ele>70.2</ele>
        <time>2022-05-11T14:23:19Z</time>
      </trkpt>
      <trkpt lat="49.76617" lon="2.17103">
        <ele>70.2</ele>
        <time>2022-05-11T14:23:20Z</time>
      </trkpt>
      <trkpt lat="49.76618" lon="2.17103">
        <ele>70.2</ele>
        <time>2022-05-11T14:23:21Z</time>
      </trkpt>
      <trkpt lat="49.7662" lon="2.17103">
        <ele>70.2</ele>
        <time>2022-05-11T14:23:22Z</time>
      </trkpt>
      <trkpt lat="49.76621" lon="2.17103">
        <ele>70.2</ele>
        <time>2022-05-11T14:23:23Z</time>
      </trkpt>
      <trkpt lat="49.76621" lon="2.17103">
        <ele>70.2</ele>
        <time>2022-05-11T14:23:24Z</time>
      </trkpt>
      <trkpt lat="49.76623" lon="2.17104">
        <ele>70.2</ele>
        <time>2022-05-11T14:23:25Z</time>
      </trkpt>
      <trkpt lat="49.76624" lon="2.17104">
        <ele>70.1</ele>
        <time>2022-05-11T14:23:26Z</time>
      </trkpt>
      <trkpt lat="49.76626" lon="2.17105">
        <ele>70.1</ele>
        <time>2022-05-11T14:23:27Z</time>
      </trkpt>
      <trkpt lat="49.76628" lon="2.17105">
        <ele>70.1</ele>
        <time>2022-05-11T14:23:29Z</time>
      </trkpt>
      <trkpt lat="49.76629" lon="2.17106">
        <ele>70.1</ele>
        <time>2022-05-11T14:23:30Z</time>
      </trkpt>
      <trkpt lat="49.7663" lon="2.17106">
        <ele>70.1</ele>
        <time>2022-05-11T14:23:31Z</time>
      </trkpt>
      <trkpt lat="49.76632" lon="2.17106">
        <ele>70.1</ele>
        <time>2022-05-11T14:23:32Z</time>
      </trkpt>
      <trkpt lat="49.76633" lon="2.17106">
        <ele>70.1</ele>
        <time>2022-05-11T14:23:33Z</time>
      </trkpt>
      <trkpt lat="49.76633" lon="2.17106">
        <ele>70</ele>
        <time>2022-05-11T14:23:34Z</time>
      </trkpt>
      <trkpt lat="49.76635" lon="2.17106">
        <ele>70</ele>
        <time>2022-05-11T14:23:36Z</time>
      </trkpt>
      <trkpt lat="49.76637" lon="2.17106">
        <ele>70</ele>
        <time>2022-05-11T14:23:37Z</time>
      </trkpt>
      <trkpt lat="49.76639" lon="2.17106">
        <ele>70</ele>
        <time>2022-05-11T14:23:39Z</time>
      </trkpt>
      <trkpt lat="49.7664" lon="2.17106">
        <ele>70</ele>
        <time>2022-05-11T14:23:40Z</time>
      </trkpt>
      <trkpt lat="49.76642" lon="2.17105">
        <ele>70</ele>
        <time>2022-05-11T14:23:41Z</time>
      </trkpt>
      <trkpt lat="49.76644" lon="2.17105">
        <ele>69.9</ele>
        <time>2022-05-11T14:23:43Z</time>
      </trkpt>
      <trkpt lat="49.76645" lon="2.17105">
        <ele>69.9</ele>
        <time>2022-05-11T14:23:44Z</time>
      </trkpt>
      <trkpt lat="49.76646" lon="2.17105">
        <ele>69.9</ele>
        <time>2022-05-11T14:23:45Z</time>
      </trkpt>
      <trkpt lat="49.76647" lon="2.17105">
        <ele>69.9</ele>
        <time>2022-05-11T14:23:46Z</time>
      </trkpt>
      <trkpt lat="49.76648" lon="2.17105">
        <ele>69.9</ele>
        <time>2022-05-11T14:23:47Z</time>
      </trkpt>
      <trkpt lat="49.76649" lon="2.17105">
        <ele>69.8</ele>
        <time>2022-05-11T14:23:48Z</time>
      </trkpt>
      <trkpt lat="49.76651" lon="2.17105">
        <ele>69.8</ele>
        <time>2022-05-11T14:23:50Z</time>
      </trkpt>
      <trkpt lat="49.76652" lon="2.17104">
        <ele>69.8</ele>
        <time>2022-05-11T14:23:51Z</time>
      </trkpt>
      <trkpt lat="49.76654" lon="2.17104">
        <ele>69.8</ele>
        <time>2022-05-11T14:23:52Z</time>
      </trkpt>
      <trkpt lat="49.76655" lon="2.17105">
        <ele>69.7</ele>
        <time>2022-05-11T14:23:54Z</time>
      </trkpt>
      <trkpt lat="49.76656" lon="2.17105">
        <ele>69.7</ele>
        <time>2022-05-11T14:23:55Z</time>
      </trkpt>
      <trkpt lat="49.76657" lon="2.17105">
        <ele>69.7</ele>
        <time>2022-05-11T14:23:56Z</time>
      </trkpt>
      <trkpt lat="49.76658" lon="2.17105">
        <ele>69.7</ele>
        <time>2022-05-11T14:23:57Z</time>
      </trkpt>
      <trkpt lat="49.7666" lon="2.17104">
        <ele>69.6</ele>
        <time>2022-05-11T14:23:58Z</time>
      </trkpt>
      <trkpt lat="49.76662" lon="2.17104">
        <ele>69.6</ele>
        <time>2022-05-11T14:24:00Z</time>
      </trkpt>
      <trkpt lat="49.76664" lon="2.17104">
        <ele>69.6</ele>
        <time>2022-05-11T14:24:01Z</time>
      </trkpt>
      <trkpt lat="49.76666" lon="2.17104">
        <ele>69.5</ele>
        <time>2022-05-11T14:24:02Z</time>
      </trkpt>
      <trkpt lat="49.76667" lon="2.17103">
        <ele>69.5</ele>
        <time>2022-05-11T14:24:03Z</time>
      </trkpt>
      <trkpt lat="49.76668" lon="2.17102">
        <ele>69.4</ele>
        <time>2022-05-11T14:24:04Z</time>
      </trkpt>
      <trkpt lat="49.76669" lon="2.17101">
        <ele>69.4</ele>
        <time>2022-05-11T14:24:06Z</time>
      </trkpt>
      <trkpt lat="49.7667" lon="2.171">
        <ele>69.3</ele>
        <time>2022-05-11T14:24:07Z</time>
      </trkpt>
      <trkpt lat="49.76671" lon="2.17098">
        <ele>69.3</ele>
        <time>2022-05-11T14:24:08Z</time>
      </trkpt>
      <trkpt lat="49.76672" lon="2.17096">
        <ele>69.3</ele>
        <time>2022-05-11T14:24:09Z</time>
      </trkpt>
      <trkpt lat="49.76674" lon="2.17094">
        <ele>69.2</ele>
        <time>2022-05-11T14:24:10Z</time>
      </trkpt>
      <trkpt lat="49.76674" lon="2.17093">
        <ele>69.2</ele>
        <time>2022-05-11T14:24:11Z</time>
      </trkpt>
      <trkpt lat="49.76675" lon="2.17092">
        <ele>69.2</ele>
        <time>2022-05-11T14:24:12Z</time>
      </trkpt>
      <trkpt lat="49.76676" lon="2.17089">
        <ele>69.1</ele>
        <time>2022-05-11T14:24:13Z</time>
      </trkpt>
      <trkpt lat="49.76676" lon="2.17088">
        <ele>69.1</ele>
        <time>2022-05-11T14:24:14Z</time>
      </trkpt>
      <trkpt lat="49.76677" lon="2.17086">
        <ele>69</ele>
        <time>2022-05-11T14:24:15Z</time>
      </trkpt>
      <trkpt lat="49.76677" lon="2.17082">
        <ele>69</ele>
        <time>2022-05-11T14:24:17Z</time>
      </trkpt>
      <trkpt lat="49.76678" lon="2.17081">
        <ele>69</ele>
        <time>2022-05-11T14:24:18Z</time>
      </trkpt>
      <trkpt lat="49.76678" lon="2.1708">
        <ele>69</ele>
        <time>2022-05-11T14:24:19Z</time>
      </trkpt>
      <trkpt lat="49.76679" lon="2.17078">
        <ele>68.9</ele>
        <time>2022-05-11T14:24:20Z</time>
      </trkpt>
      <trkpt lat="49.76679" lon="2.17077">
        <ele>68.9</ele>
        <time>2022-05-11T14:24:21Z</time>
      </trkpt>
      <trkpt lat="49.76679" lon="2.17075">
        <ele>68.9</ele>
        <time>2022-05-11T14:24:22Z</time>
      </trkpt>
      <trkpt lat="49.7668" lon="2.17074">
        <ele>68.9</ele>
        <time>2022-05-11T14:24:23Z</time>
      </trkpt>
      <trkpt lat="49.7668" lon="2.17073">
        <ele>68.9</ele>
        <time>2022-05-11T14:24:24Z</time>
      </trkpt>
      <trkpt lat="49.76681" lon="2.1707">
        <ele>68.8</ele>
        <time>2022-05-11T14:24:26Z</time>
      </trkpt>
      <trkpt lat="49.76681" lon="2.1707">
        <ele>68.8</ele>
        <time>2022-05-11T14:24:27Z</time>
      </trkpt>
      <trkpt lat="49.76682" lon="2.17069">
        <ele>68.8</ele>
        <time>2022-05-11T14:24:28Z</time>
      </trkpt>
      <trkpt lat="49.76683" lon="2.17067">
        <ele>68.8</ele>
        <time>2022-05-11T14:24:29Z</time>
      </trkpt>
      <trkpt lat="49.76684" lon="2.17066">
        <ele>68.8</ele>
        <time>2022-05-11T14:24:30Z</time>
      </trkpt>
      <trkpt lat="49.76685" lon="2.17065">
        <ele>68.7</ele>
        <time>2022-05-11T14:24:32Z</time>
      </trkpt>
      <trkpt lat="49.76686" lon="2.17065">
        <ele>68.7</ele>
        <time>2022-05-11T14:24:33Z</time>
      </trkpt>
      <trkpt lat="49.76688" lon="2.17064">
        <ele>68.7</ele>
        <time>2022-05-11T14:24:34Z</time>
      </trkpt>
      <trkpt lat="49.76689" lon="2.17064">
        <ele>68.7</ele>
        <time>2022-05-11T14:24:35Z</time>
      </trkpt>
      <trkpt lat="49.76691" lon="2.17064">
        <ele>68.6</ele>
        <time>2022-05-11T14:24:36Z</time>
      </trkpt>
      <trkpt lat="49.76692" lon="2.17064">
        <ele>68.6</ele>
        <time>2022-05-11T14:24:37Z</time>
      </trkpt>
      <trkpt lat="49.76693" lon="2.17064">
        <ele>68.6</ele>
        <time>2022-05-11T14:24:38Z</time>
      </trkpt>
      <trkpt lat="49.76695" lon="2.17064">
        <ele>68.6</ele>
        <time>2022-05-11T14:24:39Z</time>
      </trkpt>
      <trkpt lat="49.76696" lon="2.17065">
        <ele>68.6</ele>
        <time>2022-05-11T14:24:40Z</time>
      </trkpt>
      <trkpt lat="49.76699" lon="2.17066">
        <ele>68.5</ele>
        <time>2022-05-11T14:24:42Z</time>
      </trkpt>
      <trkpt lat="49.767" lon="2.17067">
        <ele>68.5</ele>
        <time>2022-05-11T14:24:43Z</time>
      </trkpt>
      <trkpt lat="49.76702" lon="2.17069">
        <ele>68.5</ele>
        <time>2022-05-11T14:24:44Z</time>
      </trkpt>
      <trkpt lat="49.76703" lon="2.17069">
        <ele>68.5</ele>
        <time>2022-05-11T14:24:45Z</time>
      </trkpt>
      <trkpt lat="49.76704" lon="2.1707">
        <ele>68.4</ele>
        <time>2022-05-11T14:24:47Z</time>
      </trkpt>
      <trkpt lat="49.76706" lon="2.17071">
        <ele>68.4</ele>
        <time>2022-05-11T14:24:48Z</time>
      </trkpt>
      <trkpt lat="49.76707" lon="2.17072">
        <ele>68.4</ele>
        <time>2022-05-11T14:24:49Z</time>
      </trkpt>
      <trkpt lat="49.76708" lon="2.17073">
        <ele>68.4</ele>
        <time>2022-05-11T14:24:50Z</time>
      </trkpt>
      <trkpt lat="49.7671" lon="2.17074">
        <ele>68.3</ele>
        <time>2022-05-11T14:24:51Z</time>
      </trkpt>
      <trkpt lat="49.76711" lon="2.17075">
        <ele>68.3</ele>
        <time>2022-05-11T14:24:52Z</time>
      </trkpt>
      <trkpt lat="49.76712" lon="2.17075">
        <ele>68.3</ele>
        <time>2022-05-11T14:24:53Z</time>
      </trkpt>
      <trkpt lat="49.76714" lon="2.17077">
        <ele>68.3</ele>
        <time>2022-05-11T14:24:54Z</time>
      </trkpt>
      <trkpt lat="49.76715" lon="2.17078">
        <ele>68.3</ele>
        <time>2022-05-11T14:24:56Z</time>
      </trkpt>
      <trkpt lat="49.76715" lon="2.17078">
        <ele>68.3</ele>
        <time>2022-05-11T14:24:57Z</time>
      </trkpt>
      <trkpt lat="49.76717" lon="2.17079">
        <ele>68.3</ele>
        <time>2022-05-11T14:24:58Z</time>
      </trkpt>
      <trkpt lat="49.76718" lon="2.1708">
        <ele>68.2</ele>
        <time>2022-05-11T14:24:59Z</time>
      </trkpt>
      <trkpt lat="49.7672" lon="2.17081">
        <ele>68.2</ele>
        <time>2022-05-11T14:25:00Z</time>
      </trkpt>
      <trkpt lat="49.76721" lon="2.17082">
        <ele>68.2</ele>
        <time>2022-05-11T14:25:01Z</time>
      </trkpt>
      <trkpt lat="49.76722" lon="2.17082">
        <ele>68.2</ele>
        <time>2022-05-11T14:25:02Z</time>
      </trkpt>
      <trkpt lat="49.76722" lon="2.17083">
        <ele>68.2</ele>
        <time>2022-05-11T14:25:03Z</time>
      </trkpt>
      <trkpt lat="49.76724" lon="2.17085">
        <ele>68.2</ele>
        <time>2022-05-11T14:25:04Z</time>
      </trkpt>
      <trkpt lat="49.76725" lon="2.17086">
        <ele>68.2</ele>
        <time>2022-05-11T14:25:06Z</time>
      </trkpt>
      <trkpt lat="49.76726" lon="2.17087">
        <ele>68.2</ele>
        <time>2022-05-11T14:25:07Z</time>
      </trkpt>
      <trkpt lat="49.76727" lon="2.17088">
        <ele>68.2</ele>
        <time>2022-05-11T14:25:08Z</time>
      </trkpt>
      <trkpt lat="49.76728" lon="2.17089">
        <ele>68.2</ele>
        <time>2022-05-11T14:25:09Z</time>
      </trkpt>
      <trkpt lat="49.76728" lon="2.17089">
        <ele>68.2</ele>
        <time>2022-05-11T14:25:10Z</time>
      </trkpt>
      <trkpt lat="49.76728" lon="2.1709">
        <ele>68.2</ele>
        <time>2022-05-11T14:25:11Z</time>
      </trkpt>
      <trkpt lat="49.76729" lon="2.17091">
        <ele>68.2</ele>
        <time>2022-05-11T14:25:12Z</time>
      </trkpt>
      <trkpt lat="49.7673" lon="2.17091">
        <ele>68.2</ele>
        <time>2022-05-11T14:25:13Z</time>
      </trkpt>
      <trkpt lat="49.76731" lon="2.17092">
        <ele>68.2</ele>
        <time>2022-05-11T14:25:14Z</time>
      </trkpt>
      <trkpt lat="49.76732" lon="2.17093">
        <ele>68.1</ele>
        <time>2022-05-11T14:25:15Z</time>
      </trkpt>
      <trkpt lat="49.76732" lon="2.17094">
        <ele>68.1</ele>
        <time>2022-05-11T14:25:16Z</time>
      </trkpt>
      <trkpt lat="49.76733" lon="2.17094">
        <ele>68.1</ele>
        <time>2022-05-11T14:25:17Z</time>
      </trkpt>
      <trkpt lat="49.76735" lon="2.17096">
        <ele>68.1</ele>
        <time>2022-05-11T14:25:19Z</time>
      </trkpt>
      <trkpt lat="49.76736" lon="2.17097">
        <ele>68.1</ele>
        <time>2022-05-11T14:25:20Z</time>
      </trkpt>
      <trkpt lat="49.76736" lon="2.17097">
        <ele>68.1</ele>
        <time>2022-05-11T14:25:21Z</time>
      </trkpt>
      <trkpt lat="49.76738" lon="2.17098">
        <ele>68.1</ele>
        <time>2022-05-11T14:25:22Z</time>
      </trkpt>
      <trkpt lat="49.76739" lon="2.171">
        <ele>68.1</ele>
        <time>2022-05-11T14:25:24Z</time>
      </trkpt>
      <trkpt lat="49.7674" lon="2.171">
        <ele>68.1</ele>
        <time>2022-05-11T14:25:25Z</time>
      </trkpt>
      <trkpt lat="49.7674" lon="2.17101">
        <ele>68.1</ele>
        <time>2022-05-11T14:25:26Z</time>
      </trkpt>
      <trkpt lat="49.76741" lon="2.17102">
        <ele>68.1</ele>
        <time>2022-05-11T14:25:27Z</time>
      </trkpt>
      <trkpt lat="49.76743" lon="2.17103">
        <ele>68</ele>
        <time>2022-05-11T14:25:28Z</time>
      </trkpt>
      <trkpt lat="49.76743" lon="2.17103">
        <ele>68</ele>
        <time>2022-05-11T14:25:29Z</time>
      </trkpt>
      <trkpt lat="49.76744" lon="2.17104">
        <ele>68</ele>
        <time>2022-05-11T14:25:30Z</time>
      </trkpt>
      <trkpt lat="49.76746" lon="2.17106">
        <ele>68</ele>
        <time>2022-05-11T14:25:31Z</time>
      </trkpt>
      <trkpt lat="49.76747" lon="2.17107">
        <ele>68</ele>
        <time>2022-05-11T14:25:32Z</time>
      </trkpt>
      <trkpt lat="49.76747" lon="2.17108">
        <ele>68</ele>
        <time>2022-05-11T14:25:33Z</time>
      </trkpt>
      <trkpt lat="49.76749" lon="2.17109">
        <ele>68</ele>
        <time>2022-05-11T14:25:34Z</time>
      </trkpt>
      <trkpt lat="49.7675" lon="2.1711">
        <ele>67.9</ele>
        <time>2022-05-11T14:25:35Z</time>
      </trkpt>
      <trkpt lat="49.76751" lon="2.17111">
        <ele>67.9</ele>
        <time>2022-05-11T14:25:36Z</time>
      </trkpt>
      <trkpt lat="49.76752" lon="2.17112">
        <ele>67.9</ele>
        <time>2022-05-11T14:25:37Z</time>
      </trkpt>
      <trkpt lat="49.76753" lon="2.17113">
        <ele>67.9</ele>
        <time>2022-05-11T14:25:38Z</time>
      </trkpt>
      <trkpt lat="49.76755" lon="2.17114">
        <ele>67.9</ele>
        <time>2022-05-11T14:25:39Z</time>
      </trkpt>
      <trkpt lat="49.76756" lon="2.17116">
        <ele>67.9</ele>
        <time>2022-05-11T14:25:40Z</time>
      </trkpt>
      <trkpt lat="49.76757" lon="2.17117">
        <ele>67.8</ele>
        <time>2022-05-11T14:25:42Z</time>
      </trkpt>
      <trkpt lat="49.76758" lon="2.17117">
        <ele>67.8</ele>
        <time>2022-05-11T14:25:43Z</time>
      </trkpt>
      <trkpt lat="49.76759" lon="2.17118">
        <ele>67.8</ele>
        <time>2022-05-11T14:25:44Z</time>
      </trkpt>
      <trkpt lat="49.7676" lon="2.17119">
        <ele>67.8</ele>
        <time>2022-05-11T14:25:45Z</time>
      </trkpt>
      <trkpt lat="49.76762" lon="2.1712">
        <ele>67.8</ele>
        <time>2022-05-11T14:25:46Z</time>
      </trkpt>
      <trkpt lat="49.76763" lon="2.17122">
        <ele>67.8</ele>
        <time>2022-05-11T14:25:47Z</time>
      </trkpt>
      <trkpt lat="49.76765" lon="2.17123">
        <ele>67.7</ele>
        <time>2022-05-11T14:25:48Z</time>
      </trkpt>
      <trkpt lat="49.76766" lon="2.17124">
        <ele>67.7</ele>
        <time>2022-05-11T14:25:49Z</time>
      </trkpt>
      <trkpt lat="49.76766" lon="2.17125">
        <ele>67.7</ele>
        <time>2022-05-11T14:25:50Z</time>
      </trkpt>
      <trkpt lat="49.76767" lon="2.17126">
        <ele>67.7</ele>
        <time>2022-05-11T14:25:51Z</time>
      </trkpt>
      <trkpt lat="49.76769" lon="2.17128">
        <ele>67.6</ele>
        <time>2022-05-11T14:25:53Z</time>
      </trkpt>
      <trkpt lat="49.7677" lon="2.17129">
        <ele>67.6</ele>
        <time>2022-05-11T14:25:54Z</time>
      </trkpt>
      <trkpt lat="49.76771" lon="2.1713">
        <ele>67.6</ele>
        <time>2022-05-11T14:25:55Z</time>
      </trkpt>
      <trkpt lat="49.76773" lon="2.17132">
        <ele>67.5</ele>
        <time>2022-05-11T14:25:57Z</time>
      </trkpt>
      <trkpt lat="49.76774" lon="2.17134">
        <ele>67.5</ele>
        <time>2022-05-11T14:25:58Z</time>
      </trkpt>
      <trkpt lat="49.76774" lon="2.17135">
        <ele>67.5</ele>
        <time>2022-05-11T14:25:59Z</time>
      </trkpt>
      <trkpt lat="49.76774" lon="2.17135">
        <ele>67.5</ele>
        <time>2022-05-11T14:26:00Z</time>
      </trkpt>
      <trkpt lat="49.76775" lon="2.17137">
        <ele>67.5</ele>
        <time>2022-05-11T14:26:01Z</time>
      </trkpt>
      <trkpt lat="49.76776" lon="2.17138">
        <ele>67.4</ele>
        <time>2022-05-11T14:26:02Z</time>
      </trkpt>
      <trkpt lat="49.76778" lon="2.1714">
        <ele>67.4</ele>
        <time>2022-05-11T14:26:04Z</time>
      </trkpt>
      <trkpt lat="49.76779" lon="2.17142">
        <ele>67.4</ele>
        <time>2022-05-11T14:26:06Z</time>
      </trkpt>
      <trkpt lat="49.7678" lon="2.17144">
        <ele>67.3</ele>
        <time>2022-05-11T14:26:07Z</time>
      </trkpt>
      <trkpt lat="49.76781" lon="2.17145">
        <ele>67.3</ele>
        <time>2022-05-11T14:26:09Z</time>
      </trkpt>
      <trkpt lat="49.76782" lon="2.17146">
        <ele>67.3</ele>
        <time>2022-05-11T14:26:10Z</time>
      </trkpt>
      <trkpt lat="49.76783" lon="2.17147">
        <ele>67.3</ele>
        <time>2022-05-11T14:26:11Z</time>
      </trkpt>
      <trkpt lat="49.76783" lon="2.17147">
        <ele>67.3</ele>
        <time>2022-05-11T14:26:12Z</time>
      </trkpt>
      <trkpt lat="49.76784" lon="2.17148">
        <ele>67.2</ele>
        <time>2022-05-11T14:26:13Z</time>
      </trkpt>
      <trkpt lat="49.76785" lon="2.1715">
        <ele>67.2</ele>
        <time>2022-05-11T14:26:15Z</time>
      </trkpt>
      <trkpt lat="49.76786" lon="2.17151">
        <ele>67.2</ele>
        <time>2022-05-11T14:26:16Z</time>
      </trkpt>
      <trkpt lat="49.76787" lon="2.17153">
        <ele>67.1</ele>
        <time>2022-05-11T14:26:17Z</time>
      </trkpt>
      <trkpt lat="49.76788" lon="2.17155">
        <ele>67.1</ele>
        <time>2022-05-11T14:26:18Z</time>
      </trkpt>
      <trkpt lat="49.76789" lon="2.17156">
        <ele>67.1</ele>
        <time>2022-05-11T14:26:19Z</time>
      </trkpt>
      <trkpt lat="49.7679" lon="2.17158">
        <ele>67</ele>
        <time>2022-05-11T14:26:20Z</time>
      </trkpt>
      <trkpt lat="49.76791" lon="2.17159">
        <ele>67</ele>
        <time>2022-05-11T14:26:21Z</time>
      </trkpt>
      <trkpt lat="49.76792" lon="2.17161">
        <ele>67</ele>
        <time>2022-05-11T14:26:22Z</time>
      </trkpt>
      <trkpt lat="49.76793" lon="2.17163">
        <ele>67</ele>
        <time>2022-05-11T14:26:23Z</time>
      </trkpt>
      <trkpt lat="49.76794" lon="2.17164">
        <ele>66.9</ele>
        <time>2022-05-11T14:26:24Z</time>
      </trkpt>
      <trkpt lat="49.76795" lon="2.17167">
        <ele>66.9</ele>
        <time>2022-05-11T14:26:26Z</time>
      </trkpt>
      <trkpt lat="49.76796" lon="2.17168">
        <ele>66.9</ele>
        <time>2022-05-11T14:26:27Z</time>
      </trkpt>
      <trkpt lat="49.76796" lon="2.17169">
        <ele>66.9</ele>
        <time>2022-05-11T14:26:28Z</time>
      </trkpt>
      <trkpt lat="49.76798" lon="2.17171">
        <ele>66.8</ele>
        <time>2022-05-11T14:26:29Z</time>
      </trkpt>
      <trkpt lat="49.76798" lon="2.17172">
        <ele>66.8</ele>
        <time>2022-05-11T14:26:30Z</time>
      </trkpt>
      <trkpt lat="49.76799" lon="2.17173">
        <ele>66.8</ele>
        <time>2022-05-11T14:26:31Z</time>
      </trkpt>
      <trkpt lat="49.768" lon="2.17175">
        <ele>66.8</ele>
        <time>2022-05-11T14:26:32Z</time>
      </trkpt>
      <trkpt lat="49.76801" lon="2.17176">
        <ele>66.7</ele>
        <time>2022-05-11T14:26:33Z</time>
      </trkpt>
      <trkpt lat="49.76802" lon="2.17178">
        <ele>66.7</ele>
        <time>2022-05-11T14:26:34Z</time>
      </trkpt>
      <trkpt lat="49.76803" lon="2.17179">
        <ele>66.7</ele>
        <time>2022-05-11T14:26:36Z</time>
      </trkpt>
      <trkpt lat="49.76804" lon="2.17181">
        <ele>66.6</ele>
        <time>2022-05-11T14:26:37Z</time>
      </trkpt>
      <trkpt lat="49.76805" lon="2.17182">
        <ele>66.6</ele>
        <time>2022-05-11T14:26:38Z</time>
      </trkpt>
      <trkpt lat="49.76807" lon="2.17185">
        <ele>66.6</ele>
        <time>2022-05-11T14:26:39Z</time>
      </trkpt>
      <trkpt lat="49.76808" lon="2.17185">
        <ele>66.6</ele>
        <time>2022-05-11T14:26:40Z</time>
      </trkpt>
      <trkpt lat="49.76808" lon="2.17186">
        <ele>66.6</ele>
        <time>2022-05-11T14:26:41Z</time>
      </trkpt>
      <trkpt lat="49.76809" lon="2.17186">
        <ele>66.5</ele>
        <time>2022-05-11T14:26:42Z</time>
      </trkpt>
      <trkpt lat="49.76809" lon="2.17187">
        <ele>66.5</ele>
        <time>2022-05-11T14:26:43Z</time>
      </trkpt>
      <trkpt lat="49.7681" lon="2.17188">
        <ele>66.5</ele>
        <time>2022-05-11T14:26:44Z</time>
      </trkpt>
      <trkpt lat="49.76811" lon="2.1719">
        <ele>66.5</ele>
        <time>2022-05-11T14:26:46Z</time>
      </trkpt>
      <trkpt lat="49.76813" lon="2.17192">
        <ele>66.4</ele>
        <time>2022-05-11T14:26:47Z</time>
      </trkpt>
      <trkpt lat="49.76814" lon="2.17193">
        <ele>66.4</ele>
        <time>2022-05-11T14:26:48Z</time>
      </trkpt>
      <trkpt lat="49.76814" lon="2.17194">
        <ele>66.4</ele>
        <time>2022-05-11T14:26:49Z</time>
      </trkpt>
      <trkpt lat="49.76815" lon="2.17196">
        <ele>66.4</ele>
        <time>2022-05-11T14:26:50Z</time>
      </trkpt>
      <trkpt lat="49.76816" lon="2.17197">
        <ele>66.3</ele>
        <time>2022-05-11T14:26:51Z</time>
      </trkpt>
      <trkpt lat="49.76817" lon="2.17198">
        <ele>66.3</ele>
        <time>2022-05-11T14:26:52Z</time>
      </trkpt>
      <trkpt lat="49.76818" lon="2.172">
        <ele>66.3</ele>
        <time>2022-05-11T14:26:54Z</time>
      </trkpt>
      <trkpt lat="49.76819" lon="2.17202">
        <ele>66.3</ele>
        <time>2022-05-11T14:26:55Z</time>
      </trkpt>
      <trkpt lat="49.7682" lon="2.17203">
        <ele>66.2</ele>
        <time>2022-05-11T14:26:56Z</time>
      </trkpt>
      <trkpt lat="49.76821" lon="2.17204">
        <ele>66.2</ele>
        <time>2022-05-11T14:26:57Z</time>
      </trkpt>
      <trkpt lat="49.76822" lon="2.17206">
        <ele>66.1</ele>
        <time>2022-05-11T14:26:58Z</time>
      </trkpt>
      <trkpt lat="49.76823" lon="2.17207">
        <ele>66.1</ele>
        <time>2022-05-11T14:26:59Z</time>
      </trkpt>
      <trkpt lat="49.76823" lon="2.17208">
        <ele>66.1</ele>
        <time>2022-05-11T14:27:00Z</time>
      </trkpt>
      <trkpt lat="49.76825" lon="2.17211">
        <ele>66</ele>
        <time>2022-05-11T14:27:01Z</time>
      </trkpt>
      <trkpt lat="49.76825" lon="2.17212">
        <ele>66</ele>
        <time>2022-05-11T14:27:02Z</time>
      </trkpt>
      <trkpt lat="49.76826" lon="2.17213">
        <ele>66</ele>
        <time>2022-05-11T14:27:03Z</time>
      </trkpt>
      <trkpt lat="49.76827" lon="2.17215">
        <ele>65.9</ele>
        <time>2022-05-11T14:27:05Z</time>
      </trkpt>
      <trkpt lat="49.76827" lon="2.17217">
        <ele>65.9</ele>
        <time>2022-05-11T14:27:06Z</time>
      </trkpt>
      <trkpt lat="49.76828" lon="2.17218">
        <ele>65.8</ele>
        <time>2022-05-11T14:27:07Z</time>
      </trkpt>
      <trkpt lat="49.76828" lon="2.17219">
        <ele>65.8</ele>
        <time>2022-05-11T14:27:08Z</time>
      </trkpt>
      <trkpt lat="49.76829" lon="2.1722">
        <ele>65.8</ele>
        <time>2022-05-11T14:27:09Z</time>
      </trkpt>
      <trkpt lat="49.76829" lon="2.17221">
        <ele>65.8</ele>
        <time>2022-05-11T14:27:10Z</time>
      </trkpt>
      <trkpt lat="49.7683" lon="2.17222">
        <ele>65.7</ele>
        <time>2022-05-11T14:27:12Z</time>
      </trkpt>
      <trkpt lat="49.76831" lon="2.17224">
        <ele>65.7</ele>
        <time>2022-05-11T14:27:13Z</time>
      </trkpt>
      <trkpt lat="49.76831" lon="2.17225">
        <ele>65.7</ele>
        <time>2022-05-11T14:27:14Z</time>
      </trkpt>
      <trkpt lat="49.76832" lon="2.17227">
        <ele>65.6</ele>
        <time>2022-05-11T14:27:15Z</time>
      </trkpt>
      <trkpt lat="49.76833" lon="2.17228">
        <ele>65.6</ele>
        <time>2022-05-11T14:27:16Z</time>
      </trkpt>
      <trkpt lat="49.76834" lon="2.1723">
        <ele>65.5</ele>
        <time>2022-05-11T14:27:17Z</time>
      </trkpt>
      <trkpt lat="49.76835" lon="2.17232">
        <ele>65.4</ele>
        <time>2022-05-11T14:27:18Z</time>
      </trkpt>
      <trkpt lat="49.76837" lon="2.17235">
        <ele>65.4</ele>
        <time>2022-05-11T14:27:20Z</time>
      </trkpt>
      <trkpt lat="49.76838" lon="2.17236">
        <ele>65.3</ele>
        <time>2022-05-11T14:27:21Z</time>
      </trkpt>
      <trkpt lat="49.76838" lon="2.17236">
        <ele>65.3</ele>
        <time>2022-05-11T14:27:22Z</time>
      </trkpt>
      <trkpt lat="49.76839" lon="2.17238">
        <ele>65.2</ele>
        <time>2022-05-11T14:27:23Z</time>
      </trkpt>
      <trkpt lat="49.76841" lon="2.17241">
        <ele>65.1</ele>
        <time>2022-05-11T14:27:25Z</time>
      </trkpt>
      <trkpt lat="49.76842" lon="2.17242">
        <ele>65.1</ele>
        <time>2022-05-11T14:27:26Z</time>
      </trkpt>
      <trkpt lat="49.76843" lon="2.17244">
        <ele>65</ele>
        <time>2022-05-11T14:27:27Z</time>
      </trkpt>
      <trkpt lat="49.76844" lon="2.17245">
        <ele>65</ele>
        <time>2022-05-11T14:27:28Z</time>
      </trkpt>
      <trkpt lat="49.76845" lon="2.17247">
        <ele>64.9</ele>
        <time>2022-05-11T14:27:29Z</time>
      </trkpt>
      <trkpt lat="49.76846" lon="2.17248">
        <ele>64.8</ele>
        <time>2022-05-11T14:27:30Z</time>
      </trkpt>
      <trkpt lat="49.76846" lon="2.1725">
        <ele>64.8</ele>
        <time>2022-05-11T14:27:31Z</time>
      </trkpt>
      <trkpt lat="49.76848" lon="2.17252">
        <ele>64.7</ele>
        <time>2022-05-11T14:27:33Z</time>
      </trkpt>
      <trkpt lat="49.76849" lon="2.17255">
        <ele>64.6</ele>
        <time>2022-05-11T14:27:34Z</time>
      </trkpt>
      <trkpt lat="49.7685" lon="2.17256">
        <ele>64.6</ele>
        <time>2022-05-11T14:27:35Z</time>
      </trkpt>
      <trkpt lat="49.7685" lon="2.17257">
        <ele>64.5</ele>
        <time>2022-05-11T14:27:36Z</time>
      </trkpt>
      <trkpt lat="49.76851" lon="2.17258">
        <ele>64.5</ele>
        <time>2022-05-11T14:27:37Z</time>
      </trkpt>
      <trkpt lat="49.76852" lon="2.1726">
        <ele>64.4</ele>
        <time>2022-05-11T14:27:38Z</time>
      </trkpt>
      <trkpt lat="49.76853" lon="2.17262">
        <ele>64.3</ele>
        <time>2022-05-11T14:27:39Z</time>
      </trkpt>
      <trkpt lat="49.76854" lon="2.17263">
        <ele>64.2</ele>
        <time>2022-05-11T14:27:40Z</time>
      </trkpt>
      <trkpt lat="49.76855" lon="2.17265">
        <ele>64.2</ele>
        <time>2022-05-11T14:27:42Z</time>
      </trkpt>
      <trkpt lat="49.76856" lon="2.17266">
        <ele>64.1</ele>
        <time>2022-05-11T14:27:43Z</time>
      </trkpt>
      <trkpt lat="49.76856" lon="2.17267">
        <ele>64</ele>
        <time>2022-05-11T14:27:44Z</time>
      </trkpt>
      <trkpt lat="49.76857" lon="2.17268">
        <ele>64</ele>
        <time>2022-05-11T14:27:45Z</time>
      </trkpt>
      <trkpt lat="49.76858" lon="2.17269">
        <ele>63.9</ele>
        <time>2022-05-11T14:27:46Z</time>
      </trkpt>
      <trkpt lat="49.76858" lon="2.17271">
        <ele>63.8</ele>
        <time>2022-05-11T14:27:47Z</time>
      </trkpt>
      <trkpt lat="49.76859" lon="2.17273">
        <ele>63.7</ele>
        <time>2022-05-11T14:27:48Z</time>
      </trkpt>
      <trkpt lat="49.7686" lon="2.17275">
        <ele>63.6</ele>
        <time>2022-05-11T14:27:49Z</time>
      </trkpt>
      <trkpt lat="49.76861" lon="2.17277">
        <ele>63.5</ele>
        <time>2022-05-11T14:27:51Z</time>
      </trkpt>
      <trkpt lat="49.76862" lon="2.17278">
        <ele>63.5</ele>
        <time>2022-05-11T14:27:52Z</time>
      </trkpt>
      <trkpt lat="49.76863" lon="2.17279">
        <ele>63.4</ele>
        <time>2022-05-11T14:27:53Z</time>
      </trkpt>
      <trkpt lat="49.76863" lon="2.1728">
        <ele>63.4</ele>
        <time>2022-05-11T14:27:54Z</time>
      </trkpt>
      <trkpt lat="49.76864" lon="2.17282">
        <ele>63.3</ele>
        <time>2022-05-11T14:27:55Z</time>
      </trkpt>
      <trkpt lat="49.76865" lon="2.17283">
        <ele>63.2</ele>
        <time>2022-05-11T14:27:56Z</time>
      </trkpt>
      <trkpt lat="49.76866" lon="2.17284">
        <ele>63.1</ele>
        <time>2022-05-11T14:27:57Z</time>
      </trkpt>
      <trkpt lat="49.76867" lon="2.17285">
        <ele>63.1</ele>
        <time>2022-05-11T14:27:59Z</time>
      </trkpt>
      <trkpt lat="49.76868" lon="2.17287">
        <ele>63</ele>
        <time>2022-05-11T14:28:00Z</time>
      </trkpt>
      <trkpt lat="49.76869" lon="2.17288">
        <ele>62.9</ele>
        <time>2022-05-11T14:28:01Z</time>
      </trkpt>
      <trkpt lat="49.76869" lon="2.17289">
        <ele>62.8</ele>
        <time>2022-05-11T14:28:02Z</time>
      </trkpt>
      <trkpt lat="49.7687" lon="2.17291">
        <ele>62.8</ele>
        <time>2022-05-11T14:28:03Z</time>
      </trkpt>
      <trkpt lat="49.76871" lon="2.17292">
        <ele>62.7</ele>
        <time>2022-05-11T14:28:04Z</time>
      </trkpt>
      <trkpt lat="49.76872" lon="2.17293">
        <ele>62.6</ele>
        <time>2022-05-11T14:28:05Z</time>
      </trkpt>
      <trkpt lat="49.76873" lon="2.17294">
        <ele>62.5</ele>
        <time>2022-05-11T14:28:07Z</time>
      </trkpt>
      <trkpt lat="49.76874" lon="2.17295">
        <ele>62.4</ele>
        <time>2022-05-11T14:28:08Z</time>
      </trkpt>
      <trkpt lat="49.76874" lon="2.17296">
        <ele>62.4</ele>
        <time>2022-05-11T14:28:09Z</time>
      </trkpt>
      <trkpt lat="49.76875" lon="2.17297">
        <ele>62.3</ele>
        <time>2022-05-11T14:28:10Z</time>
      </trkpt>
      <trkpt lat="49.76876" lon="2.17298">
        <ele>62.2</ele>
        <time>2022-05-11T14:28:11Z</time>
      </trkpt>
      <trkpt lat="49.76877" lon="2.17299">
        <ele>62.1</ele>
        <time>2022-05-11T14:28:12Z</time>
      </trkpt>
      <trkpt lat="49.76878" lon="2.173">
        <ele>62.1</ele>
        <time>2022-05-11T14:28:13Z</time>
      </trkpt>
      <trkpt lat="49.76879" lon="2.17301">
        <ele>61.9</ele>
        <time>2022-05-11T14:28:14Z</time>
      </trkpt>
      <trkpt lat="49.7688" lon="2.17303">
        <ele>61.8</ele>
        <time>2022-05-11T14:28:15Z</time>
      </trkpt>
      <trkpt lat="49.76881" lon="2.17304">
        <ele>61.7</ele>
        <time>2022-05-11T14:28:17Z</time>
      </trkpt>
      <trkpt lat="49.76883" lon="2.17306">
        <ele>61.6</ele>
        <time>2022-05-11T14:28:18Z</time>
      </trkpt>
      <trkpt lat="49.76884" lon="2.17306">
        <ele>61.5</ele>
        <time>2022-05-11T14:28:19Z</time>
      </trkpt>
      <trkpt lat="49.76885" lon="2.17307">
        <ele>61.4</ele>
        <time>2022-05-11T14:28:20Z</time>
      </trkpt>
      <trkpt lat="49.76885" lon="2.17307">
        <ele>61.4</ele>
        <time>2022-05-11T14:28:21Z</time>
      </trkpt>
      <trkpt lat="49.76885" lon="2.17306">
        <ele>61.3</ele>
        <time>2022-05-11T14:28:22Z</time>
      </trkpt>
      <trkpt lat="49.76886" lon="2.17306">
        <ele>61.3</ele>
        <time>2022-05-11T14:28:23Z</time>
      </trkpt>
      <trkpt lat="49.76887" lon="2.17307">
        <ele>61.2</ele>
        <time>2022-05-11T14:28:24Z</time>
      </trkpt>
      <trkpt lat="49.76888" lon="2.17307">
        <ele>61.1</ele>
        <time>2022-05-11T14:28:25Z</time>
      </trkpt>
      <trkpt lat="49.76888" lon="2.17307">
        <ele>61.1</ele>
        <time>2022-05-11T14:28:27Z</time>
      </trkpt>
      <trkpt lat="49.76889" lon="2.17306">
        <ele>61</ele>
        <time>2022-05-11T14:28:28Z</time>
      </trkpt>
      <trkpt lat="49.76889" lon="2.17305">
        <ele>61</ele>
        <time>2022-05-11T14:28:29Z</time>
      </trkpt>
      <trkpt lat="49.7689" lon="2.17305">
        <ele>60.9</ele>
        <time>2022-05-11T14:28:30Z</time>
      </trkpt>
      <trkpt lat="49.76891" lon="2.17305">
        <ele>60.8</ele>
        <time>2022-05-11T14:28:31Z</time>
      </trkpt>
      <trkpt lat="49.76892" lon="2.17305">
        <ele>60.8</ele>
        <time>2022-05-11T14:28:32Z</time>
      </trkpt>
      <trkpt lat="49.76893" lon="2.17306">
        <ele>60.7</ele>
        <time>2022-05-11T14:28:33Z</time>
      </trkpt>
      <trkpt lat="49.76894" lon="2.17307">
        <ele>60.6</ele>
        <time>2022-05-11T14:28:34Z</time>
      </trkpt>
      <trkpt lat="49.76896" lon="2.17307">
        <ele>60.5</ele>
        <time>2022-05-11T14:28:36Z</time>
      </trkpt>
      <trkpt lat="49.76897" lon="2.17307">
        <ele>60.4</ele>
        <time>2022-05-11T14:28:37Z</time>
      </trkpt>
      <trkpt lat="49.76897" lon="2.17307">
        <ele>60.3</ele>
        <time>2022-05-11T14:28:38Z</time>
      </trkpt>
      <trkpt lat="49.76899" lon="2.17307">
        <ele>60.2</ele>
        <time>2022-05-11T14:28:39Z</time>
      </trkpt>
      <trkpt lat="49.769" lon="2.17308">
        <ele>60.1</ele>
        <time>2022-05-11T14:28:40Z</time>
      </trkpt>
      <trkpt lat="49.76901" lon="2.17309">
        <ele>60</ele>
        <time>2022-05-11T14:28:41Z</time>
      </trkpt>
      <trkpt lat="49.76903" lon="2.17309">
        <ele>59.8</ele>
        <time>2022-05-11T14:28:42Z</time>
      </trkpt>
      <trkpt lat="49.76905" lon="2.1731">
        <ele>59.7</ele>
        <time>2022-05-11T14:28:44Z</time>
      </trkpt>
      <trkpt lat="49.76906" lon="2.1731">
        <ele>59.6</ele>
        <time>2022-05-11T14:28:45Z</time>
      </trkpt>
      <trkpt lat="49.76908" lon="2.1731">
        <ele>59.5</ele>
        <time>2022-05-11T14:28:46Z</time>
      </trkpt>
      <trkpt lat="49.7691" lon="2.1731">
        <ele>59.3</ele>
        <time>2022-05-11T14:28:47Z</time>
      </trkpt>
      <trkpt lat="49.76911" lon="2.1731">
        <ele>59.2</ele>
        <time>2022-05-11T14:28:48Z</time>
      </trkpt>
      <trkpt lat="49.76912" lon="2.1731">
        <ele>59.1</ele>
        <time>2022-05-11T14:28:49Z</time>
      </trkpt>
      <trkpt lat="49.76913" lon="2.1731">
        <ele>59</ele>
        <time>2022-05-11T14:28:51Z</time>
      </trkpt>
      <trkpt lat="49.76913" lon="2.17309">
        <ele>59</ele>
        <time>2022-05-11T14:28:52Z</time>
      </trkpt>
      <trkpt lat="49.76913" lon="2.17309">
        <ele>59</ele>
        <time>2022-05-11T14:28:53Z</time>
      </trkpt>
      <trkpt lat="49.76914" lon="2.17309">
        <ele>58.9</ele>
        <time>2022-05-11T14:28:54Z</time>
      </trkpt>
      <trkpt lat="49.76915" lon="2.1731">
        <ele>58.8</ele>
        <time>2022-05-11T14:28:55Z</time>
      </trkpt>
      <trkpt lat="49.76917" lon="2.1731">
        <ele>58.7</ele>
        <time>2022-05-11T14:28:56Z</time>
      </trkpt>
      <trkpt lat="49.76918" lon="2.1731">
        <ele>58.6</ele>
        <time>2022-05-11T14:28:57Z</time>
      </trkpt>
      <trkpt lat="49.76919" lon="2.1731">
        <ele>58.5</ele>
        <time>2022-05-11T14:28:58Z</time>
      </trkpt>
      <trkpt lat="49.76921" lon="2.1731">
        <ele>58.4</ele>
        <time>2022-05-11T14:29:00Z</time>
      </trkpt>
      <trkpt lat="49.76922" lon="2.1731">
        <ele>58.3</ele>
        <time>2022-05-11T14:29:01Z</time>
      </trkpt>
      <trkpt lat="49.76923" lon="2.1731">
        <ele>58.2</ele>
        <time>2022-05-11T14:29:02Z</time>
      </trkpt>
      <trkpt lat="49.76924" lon="2.1731">
        <ele>58.2</ele>
        <time>2022-05-11T14:29:03Z</time>
      </trkpt>
      <trkpt lat="49.76924" lon="2.1731">
        <ele>58.1</ele>
        <time>2022-05-11T14:29:04Z</time>
      </trkpt>
      <trkpt lat="49.76925" lon="2.1731">
        <ele>58.1</ele>
        <time>2022-05-11T14:29:05Z</time>
      </trkpt>
      <trkpt lat="49.76925" lon="2.1731">
        <ele>58.1</ele>
        <time>2022-05-11T14:29:06Z</time>
      </trkpt>
      <trkpt lat="49.76926" lon="2.1731">
        <ele>58</ele>
        <time>2022-05-11T14:29:08Z</time>
      </trkpt>
      <trkpt lat="49.76926" lon="2.1731">
        <ele>58</ele>
        <time>2022-05-11T14:29:09Z</time>
      </trkpt>
      <trkpt lat="49.76928" lon="2.1731">
        <ele>57.9</ele>
        <time>2022-05-11T14:29:10Z</time>
      </trkpt>
      <trkpt lat="49.76929" lon="2.1731">
        <ele>57.8</ele>
        <time>2022-05-11T14:29:11Z</time>
      </trkpt>
      <trkpt lat="49.7693" lon="2.1731">
        <ele>57.8</ele>
        <time>2022-05-11T14:29:12Z</time>
      </trkpt>
      <trkpt lat="49.76931" lon="2.1731">
        <ele>57.7</ele>
        <time>2022-05-11T14:29:13Z</time>
      </trkpt>
      <trkpt lat="49.76932" lon="2.1731">
        <ele>57.6</ele>
        <time>2022-05-11T14:29:14Z</time>
      </trkpt>
      <trkpt lat="49.76934" lon="2.17309">
        <ele>57.5</ele>
        <time>2022-05-11T14:29:16Z</time>
      </trkpt>
      <trkpt lat="49.76936" lon="2.17309">
        <ele>57.4</ele>
        <time>2022-05-11T14:29:17Z</time>
      </trkpt>
      <trkpt lat="49.76937" lon="2.1731">
        <ele>57.3</ele>
        <time>2022-05-11T14:29:18Z</time>
      </trkpt>
      <trkpt lat="49.76938" lon="2.1731">
        <ele>57.3</ele>
        <time>2022-05-11T14:29:19Z</time>
      </trkpt>
      <trkpt lat="49.76941" lon="2.17309">
        <ele>57.1</ele>
        <time>2022-05-11T14:29:21Z</time>
      </trkpt>
      <trkpt lat="49.76942" lon="2.17309">
        <ele>57.1</ele>
        <time>2022-05-11T14:29:22Z</time>
      </trkpt>
      <trkpt lat="49.76943" lon="2.17309">
        <ele>57</ele>
        <time>2022-05-11T14:29:23Z</time>
      </trkpt>
      <trkpt lat="49.76945" lon="2.17309">
        <ele>56.9</ele>
        <time>2022-05-11T14:29:24Z</time>
      </trkpt>
      <trkpt lat="49.76948" lon="2.17309">
        <ele>56.7</ele>
        <time>2022-05-11T14:29:26Z</time>
      </trkpt>
      <trkpt lat="49.76949" lon="2.17309">
        <ele>56.7</ele>
        <time>2022-05-11T14:29:27Z</time>
      </trkpt>
      <trkpt lat="49.76951" lon="2.17309">
        <ele>56.5</ele>
        <time>2022-05-11T14:29:28Z</time>
      </trkpt>
      <trkpt lat="49.76952" lon="2.17309">
        <ele>56.5</ele>
        <time>2022-05-11T14:29:29Z</time>
      </trkpt>
      <trkpt lat="49.76953" lon="2.17309">
        <ele>56.5</ele>
        <time>2022-05-11T14:29:30Z</time>
      </trkpt>
      <trkpt lat="49.76954" lon="2.17309">
        <ele>56.4</ele>
        <time>2022-05-11T14:29:31Z</time>
      </trkpt>
      <trkpt lat="49.76955" lon="2.17309">
        <ele>56.4</ele>
        <time>2022-05-11T14:29:32Z</time>
      </trkpt>
      <trkpt lat="49.76957" lon="2.17308">
        <ele>56.3</ele>
        <time>2022-05-11T14:29:34Z</time>
      </trkpt>
      <trkpt lat="49.76959" lon="2.17308">
        <ele>56.2</ele>
        <time>2022-05-11T14:29:35Z</time>
      </trkpt>
      <trkpt lat="49.7696" lon="2.17308">
        <ele>56.1</ele>
        <time>2022-05-11T14:29:36Z</time>
      </trkpt>
      <trkpt lat="49.76962" lon="2.17308">
        <ele>56.1</ele>
        <time>2022-05-11T14:29:37Z</time>
      </trkpt>
      <trkpt lat="49.76963" lon="2.17308">
        <ele>56</ele>
        <time>2022-05-11T14:29:38Z</time>
      </trkpt>
      <trkpt lat="49.76965" lon="2.17308">
        <ele>56</ele>
        <time>2022-05-11T14:29:39Z</time>
      </trkpt>
      <trkpt lat="49.76967" lon="2.17308">
        <ele>55.9</ele>
        <time>2022-05-11T14:29:40Z</time>
      </trkpt>
      <trkpt lat="49.76969" lon="2.17308">
        <ele>55.9</ele>
        <time>2022-05-11T14:29:42Z</time>
      </trkpt>
      <trkpt lat="49.76971" lon="2.17308">
        <ele>55.8</ele>
        <time>2022-05-11T14:29:43Z</time>
      </trkpt>
      <trkpt lat="49.76972" lon="2.17308">
        <ele>55.8</ele>
        <time>2022-05-11T14:29:44Z</time>
      </trkpt>
      <trkpt lat="49.76974" lon="2.17308">
        <ele>55.7</ele>
        <time>2022-05-11T14:29:45Z</time>
      </trkpt>
      <trkpt lat="49.76975" lon="2.17308">
        <ele>55.7</ele>
        <time>2022-05-11T14:29:46Z</time>
      </trkpt>
      <trkpt lat="49.76976" lon="2.17308">
        <ele>55.7</ele>
        <time>2022-05-11T14:29:47Z</time>
      </trkpt>
      <trkpt lat="49.76978" lon="2.17308">
        <ele>55.6</ele>
        <time>2022-05-11T14:29:49Z</time>
      </trkpt>
      <trkpt lat="49.76978" lon="2.17308">
        <ele>55.6</ele>
        <time>2022-05-11T14:29:50Z</time>
      </trkpt>
      <trkpt lat="49.76979" lon="2.17308">
        <ele>55.6</ele>
        <time>2022-05-11T14:29:51Z</time>
      </trkpt>
      <trkpt lat="49.7698" lon="2.17307">
        <ele>55.6</ele>
        <time>2022-05-11T14:29:52Z</time>
      </trkpt>
      <trkpt lat="49.76981" lon="2.17307">
        <ele>55.5</ele>
        <time>2022-05-11T14:29:53Z</time>
      </trkpt>
      <trkpt lat="49.76981" lon="2.17307">
        <ele>55.5</ele>
        <time>2022-05-11T14:29:54Z</time>
      </trkpt>
      <trkpt lat="49.7698" lon="2.17307">
        <ele>55.5</ele>
        <time>2022-05-11T14:29:55Z</time>
      </trkpt>
      <trkpt lat="49.76981" lon="2.17306">
        <ele>55.5</ele>
        <time>2022-05-11T14:29:56Z</time>
      </trkpt>
      <trkpt lat="49.76982" lon="2.17306">
        <ele>55.5</ele>
        <time>2022-05-11T14:29:58Z</time>
      </trkpt>
      <trkpt lat="49.76984" lon="2.17306">
        <ele>55.4</ele>
        <time>2022-05-11T14:29:59Z</time>
      </trkpt>
      <trkpt lat="49.76985" lon="2.17306">
        <ele>55.4</ele>
        <time>2022-05-11T14:30:00Z</time>
      </trkpt>
      <trkpt lat="49.76985" lon="2.17306">
        <ele>55.4</ele>
        <time>2022-05-11T14:30:01Z</time>
      </trkpt>
      <trkpt lat="49.76986" lon="2.17306">
        <ele>55.3</ele>
        <time>2022-05-11T14:30:02Z</time>
      </trkpt>
      <trkpt lat="49.76988" lon="2.17306">
        <ele>55.3</ele>
        <time>2022-05-11T14:30:04Z</time>
      </trkpt>
      <trkpt lat="49.76989" lon="2.17306">
        <ele>55.2</ele>
        <time>2022-05-11T14:30:05Z</time>
      </trkpt>
      <trkpt lat="49.76991" lon="2.17306">
        <ele>55.2</ele>
        <time>2022-05-11T14:30:06Z</time>
      </trkpt>
      <trkpt lat="49.76992" lon="2.17306">
        <ele>55.1</ele>
        <time>2022-05-11T14:30:07Z</time>
      </trkpt>
      <trkpt lat="49.76993" lon="2.17306">
        <ele>55.1</ele>
        <time>2022-05-11T14:30:08Z</time>
      </trkpt>
      <trkpt lat="49.76994" lon="2.17306">
        <ele>55</ele>
        <time>2022-05-11T14:30:09Z</time>
      </trkpt>
      <trkpt lat="49.76995" lon="2.17306">
        <ele>55</ele>
        <time>2022-05-11T14:30:10Z</time>
      </trkpt>
      <trkpt lat="49.76997" lon="2.17306">
        <ele>54.9</ele>
        <time>2022-05-11T14:30:11Z</time>
      </trkpt>
      <trkpt lat="49.76998" lon="2.17306">
        <ele>54.9</ele>
        <time>2022-05-11T14:30:12Z</time>
      </trkpt>
      <trkpt lat="49.76999" lon="2.17305">
        <ele>54.9</ele>
        <time>2022-05-11T14:30:13Z</time>
      </trkpt>
      <trkpt lat="49.77" lon="2.17305">
        <ele>54.8</ele>
        <time>2022-05-11T14:30:14Z</time>
      </trkpt>
      <trkpt lat="49.77" lon="2.17305">
        <ele>54.8</ele>
        <time>2022-05-11T14:30:15Z</time>
      </trkpt>
      <trkpt lat="49.77" lon="2.17305">
        <ele>54.8</ele>
        <time>2022-05-11T14:30:16Z</time>
      </trkpt>
      <trkpt lat="49.77" lon="2.17305">
        <ele>54.8</ele>
        <time>2022-05-11T14:30:17Z</time>
      </trkpt>
      <trkpt lat="49.77" lon="2.17305">
        <ele>54.7</ele>
        <time>2022-05-11T14:30:18Z</time>
      </trkpt>
      <trkpt lat="49.77002" lon="2.17306">
        <ele>54.7</ele>
        <time>2022-05-11T14:30:20Z</time>
      </trkpt>
      <trkpt lat="49.77004" lon="2.17306">
        <ele>54.6</ele>
        <time>2022-05-11T14:30:21Z</time>
      </trkpt>
      <trkpt lat="49.77005" lon="2.17306">
        <ele>54.6</ele>
        <time>2022-05-11T14:30:22Z</time>
      </trkpt>
      <trkpt lat="49.77006" lon="2.17306">
        <ele>54.5</ele>
        <time>2022-05-11T14:30:23Z</time>
      </trkpt>
      <trkpt lat="49.77008" lon="2.17306">
        <ele>54.5</ele>
        <time>2022-05-11T14:30:25Z</time>
      </trkpt>
      <trkpt lat="49.7701" lon="2.17306">
        <ele>54.4</ele>
        <time>2022-05-11T14:30:26Z</time>
      </trkpt>
      <trkpt lat="49.77011" lon="2.17306">
        <ele>54.3</ele>
        <time>2022-05-11T14:30:27Z</time>
      </trkpt>
      <trkpt lat="49.77013" lon="2.17306">
        <ele>54.3</ele>
        <time>2022-05-11T14:30:28Z</time>
      </trkpt>
      <trkpt lat="49.77014" lon="2.17306">
        <ele>54.2</ele>
        <time>2022-05-11T14:30:29Z</time>
      </trkpt>
      <trkpt lat="49.77015" lon="2.17306">
        <ele>54.2</ele>
        <time>2022-05-11T14:30:30Z</time>
      </trkpt>
      <trkpt lat="49.77016" lon="2.17306">
        <ele>54.2</ele>
        <time>2022-05-11T14:30:31Z</time>
      </trkpt>
      <trkpt lat="49.77017" lon="2.17307">
        <ele>54.1</ele>
        <time>2022-05-11T14:30:32Z</time>
      </trkpt>
      <trkpt lat="49.77017" lon="2.17307">
        <ele>54.1</ele>
        <time>2022-05-11T14:30:33Z</time>
      </trkpt>
      <trkpt lat="49.77018" lon="2.17307">
        <ele>54.1</ele>
        <time>2022-05-11T14:30:35Z</time>
      </trkpt>
      <trkpt lat="49.77018" lon="2.17307">
        <ele>54.1</ele>
        <time>2022-05-11T14:30:36Z</time>
      </trkpt>
      <trkpt lat="49.7702" lon="2.17307">
        <ele>54</ele>
        <time>2022-05-11T14:30:37Z</time>
      </trkpt>
      <trkpt lat="49.77022" lon="2.17307">
        <ele>53.9</ele>
        <time>2022-05-11T14:30:38Z</time>
      </trkpt>
      <trkpt lat="49.77023" lon="2.17307">
        <ele>53.9</ele>
        <time>2022-05-11T14:30:39Z</time>
      </trkpt>
      <trkpt lat="49.77025" lon="2.17307">
        <ele>53.8</ele>
        <time>2022-05-11T14:30:40Z</time>
      </trkpt>
      <trkpt lat="49.77026" lon="2.17307">
        <ele>53.8</ele>
        <time>2022-05-11T14:30:41Z</time>
      </trkpt>
      <trkpt lat="49.77027" lon="2.17307">
        <ele>53.7</ele>
        <time>2022-05-11T14:30:42Z</time>
      </trkpt>
      <trkpt lat="49.77028" lon="2.17307">
        <ele>53.7</ele>
        <time>2022-05-11T14:30:43Z</time>
      </trkpt>
      <trkpt lat="49.7703" lon="2.17308">
        <ele>53.6</ele>
        <time>2022-05-11T14:30:45Z</time>
      </trkpt>
      <trkpt lat="49.77031" lon="2.17308">
        <ele>53.6</ele>
        <time>2022-05-11T14:30:46Z</time>
      </trkpt>
      <trkpt lat="49.77032" lon="2.17308">
        <ele>53.5</ele>
        <time>2022-05-11T14:30:47Z</time>
      </trkpt>
      <trkpt lat="49.77034" lon="2.17307">
        <ele>53.5</ele>
        <time>2022-05-11T14:30:48Z</time>
      </trkpt>
      <trkpt lat="49.77035" lon="2.17307">
        <ele>53.4</ele>
        <time>2022-05-11T14:30:49Z</time>
      </trkpt>
      <trkpt lat="49.77037" lon="2.17307">
        <ele>53.3</ele>
        <time>2022-05-11T14:30:50Z</time>
      </trkpt>
      <trkpt lat="49.77038" lon="2.17307">
        <ele>53.3</ele>
        <time>2022-05-11T14:30:51Z</time>
      </trkpt>
      <trkpt lat="49.77039" lon="2.17307">
        <ele>53.2</ele>
        <time>2022-05-11T14:30:52Z</time>
      </trkpt>
      <trkpt lat="49.77041" lon="2.17306">
        <ele>53.2</ele>
        <time>2022-05-11T14:30:54Z</time>
      </trkpt>
      <trkpt lat="49.77043" lon="2.17307">
        <ele>53.1</ele>
        <time>2022-05-11T14:30:55Z</time>
      </trkpt>
      <trkpt lat="49.77044" lon="2.17307">
        <ele>53.1</ele>
        <time>2022-05-11T14:30:56Z</time>
      </trkpt>
      <trkpt lat="49.77046" lon="2.17307">
        <ele>53</ele>
        <time>2022-05-11T14:30:57Z</time>
      </trkpt>
      <trkpt lat="49.77047" lon="2.17307">
        <ele>53</ele>
        <time>2022-05-11T14:30:58Z</time>
      </trkpt>
      <trkpt lat="49.77048" lon="2.17307">
        <ele>52.9</ele>
        <time>2022-05-11T14:30:59Z</time>
      </trkpt>
      <trkpt lat="49.77049" lon="2.17307">
        <ele>52.9</ele>
        <time>2022-05-11T14:31:00Z</time>
      </trkpt>
      <trkpt lat="49.77049" lon="2.17308">
        <ele>52.9</ele>
        <time>2022-05-11T14:31:01Z</time>
      </trkpt>
      <trkpt lat="49.7705" lon="2.17308">
        <ele>52.9</ele>
        <time>2022-05-11T14:31:02Z</time>
      </trkpt>
      <trkpt lat="49.7705" lon="2.1731">
        <ele>52.8</ele>
        <time>2022-05-11T14:31:03Z</time>
      </trkpt>
      <trkpt lat="49.7705" lon="2.17311">
        <ele>52.8</ele>
        <time>2022-05-11T14:31:05Z</time>
      </trkpt>
      <trkpt lat="49.77051" lon="2.17311">
        <ele>52.8</ele>
        <time>2022-05-11T14:31:06Z</time>
      </trkpt>
      <trkpt lat="49.77053" lon="2.17312">
        <ele>52.7</ele>
        <time>2022-05-11T14:31:07Z</time>
      </trkpt>
      <trkpt lat="49.77055" lon="2.17313">
        <ele>52.6</ele>
        <time>2022-05-11T14:31:08Z</time>
      </trkpt>
      <trkpt lat="49.77056" lon="2.17313">
        <ele>52.6</ele>
        <time>2022-05-11T14:31:09Z</time>
      </trkpt>
      <trkpt lat="49.77057" lon="2.17313">
        <ele>52.6</ele>
        <time>2022-05-11T14:31:10Z</time>
      </trkpt>
      <trkpt lat="49.77058" lon="2.17314">
        <ele>52.5</ele>
        <time>2022-05-11T14:31:12Z</time>
      </trkpt>
      <trkpt lat="49.7706" lon="2.17315">
        <ele>52.5</ele>
        <time>2022-05-11T14:31:13Z</time>
      </trkpt>
      <trkpt lat="49.77061" lon="2.17316">
        <ele>52.5</ele>
        <time>2022-05-11T14:31:14Z</time>
      </trkpt>
      <trkpt lat="49.77062" lon="2.17316">
        <ele>52.4</ele>
        <time>2022-05-11T14:31:15Z</time>
      </trkpt>
      <trkpt lat="49.77064" lon="2.17316">
        <ele>52.4</ele>
        <time>2022-05-11T14:31:16Z</time>
      </trkpt>
      <trkpt lat="49.77065" lon="2.17317">
        <ele>52.4</ele>
        <time>2022-05-11T14:31:17Z</time>
      </trkpt>
      <trkpt lat="49.77067" lon="2.17318">
        <ele>52.3</ele>
        <time>2022-05-11T14:31:19Z</time>
      </trkpt>
      <trkpt lat="49.77068" lon="2.17319">
        <ele>52.3</ele>
        <time>2022-05-11T14:31:20Z</time>
      </trkpt>
      <trkpt lat="49.77069" lon="2.17319">
        <ele>52.3</ele>
        <time>2022-05-11T14:31:21Z</time>
      </trkpt>
      <trkpt lat="49.77069" lon="2.1732">
        <ele>52.3</ele>
        <time>2022-05-11T14:31:22Z</time>
      </trkpt>
      <trkpt lat="49.77069" lon="2.1732">
        <ele>52.3</ele>
        <time>2022-05-11T14:31:23Z</time>
      </trkpt>
      <trkpt lat="49.7707" lon="2.17321">
        <ele>52.3</ele>
        <time>2022-05-11T14:31:24Z</time>
      </trkpt>
      <trkpt lat="49.77071" lon="2.17321">
        <ele>52.3</ele>
        <time>2022-05-11T14:31:25Z</time>
      </trkpt>
      <trkpt lat="49.77072" lon="2.17321">
        <ele>52.2</ele>
        <time>2022-05-11T14:31:26Z</time>
      </trkpt>
      <trkpt lat="49.77074" lon="2.17322">
        <ele>52.2</ele>
        <time>2022-05-11T14:31:27Z</time>
      </trkpt>
      <trkpt lat="49.77074" lon="2.17322">
        <ele>52.2</ele>
        <time>2022-05-11T14:31:28Z</time>
      </trkpt>
      <trkpt lat="49.77074" lon="2.17323">
        <ele>52.2</ele>
        <time>2022-05-11T14:31:30Z</time>
      </trkpt>
      <trkpt lat="49.77075" lon="2.17323">
        <ele>52.2</ele>
        <time>2022-05-11T14:31:31Z</time>
      </trkpt>
      <trkpt lat="49.77076" lon="2.17324">
        <ele>52.2</ele>
        <time>2022-05-11T14:31:33Z</time>
      </trkpt>
      <trkpt lat="49.77079" lon="2.17325">
        <ele>52.1</ele>
        <time>2022-05-11T14:31:34Z</time>
      </trkpt>
      <trkpt lat="49.77079" lon="2.17325">
        <ele>52.1</ele>
        <time>2022-05-11T14:31:35Z</time>
      </trkpt>
      <trkpt lat="49.77081" lon="2.17325">
        <ele>52.1</ele>
        <time>2022-05-11T14:31:36Z</time>
      </trkpt>
      <trkpt lat="49.77082" lon="2.17325">
        <ele>52.1</ele>
        <time>2022-05-11T14:31:37Z</time>
      </trkpt>
      <trkpt lat="49.77085" lon="2.17326">
        <ele>52</ele>
        <time>2022-05-11T14:31:38Z</time>
      </trkpt>
      <trkpt lat="49.77085" lon="2.17326">
        <ele>52</ele>
        <time>2022-05-11T14:31:40Z</time>
      </trkpt>
      <trkpt lat="49.77085" lon="2.17326">
        <ele>52</ele>
        <time>2022-05-11T14:31:41Z</time>
      </trkpt>
      <trkpt lat="49.77086" lon="2.17326">
        <ele>52</ele>
        <time>2022-05-11T14:31:42Z</time>
      </trkpt>
      <trkpt lat="49.77087" lon="2.17326">
        <ele>52</ele>
        <time>2022-05-11T14:31:43Z</time>
      </trkpt>
      <trkpt lat="49.77088" lon="2.17326">
        <ele>52</ele>
        <time>2022-05-11T14:31:44Z</time>
      </trkpt>
      <trkpt lat="49.7709" lon="2.17326">
        <ele>51.9</ele>
        <time>2022-05-11T14:31:45Z</time>
      </trkpt>
      <trkpt lat="49.77092" lon="2.17326">
        <ele>51.9</ele>
        <time>2022-05-11T14:31:46Z</time>
      </trkpt>
      <trkpt lat="49.77095" lon="2.17327">
        <ele>51.8</ele>
        <time>2022-05-11T14:31:48Z</time>
      </trkpt>
      <trkpt lat="49.77095" lon="2.17327">
        <ele>51.8</ele>
        <time>2022-05-11T14:31:49Z</time>
      </trkpt>
      <trkpt lat="49.77096" lon="2.17327">
        <ele>51.8</ele>
        <time>2022-05-11T14:31:50Z</time>
      </trkpt>
      <trkpt lat="49.77096" lon="2.17327">
        <ele>51.8</ele>
        <time>2022-05-11T14:31:52Z</time>
      </trkpt>
      <trkpt lat="49.77096" lon="2.17327">
        <ele>51.8</ele>
        <time>2022-05-11T14:31:53Z</time>
      </trkpt>
      <trkpt lat="49.77095" lon="2.17328">
        <ele>51.8</ele>
        <time>2022-05-11T14:31:54Z</time>
      </trkpt>
      <trkpt lat="49.77094" lon="2.17329">
        <ele>51.8</ele>
        <time>2022-05-11T14:31:55Z</time>
      </trkpt>
      <trkpt lat="49.77093" lon="2.1733">
        <ele>51.8</ele>
        <time>2022-05-11T14:31:56Z</time>
      </trkpt>
      <trkpt lat="49.77095" lon="2.17329">
        <ele>51.8</ele>
        <time>2022-05-11T14:31:58Z</time>
      </trkpt>
      <trkpt lat="49.77097" lon="2.17329">
        <ele>51.8</ele>
        <time>2022-05-11T14:31:59Z</time>
      </trkpt>
      <trkpt lat="49.77098" lon="2.1733">
        <ele>51.7</ele>
        <time>2022-05-11T14:32:00Z</time>
      </trkpt>
      <trkpt lat="49.77099" lon="2.1733">
        <ele>51.7</ele>
        <time>2022-05-11T14:32:01Z</time>
      </trkpt>
      <trkpt lat="49.771" lon="2.1733">
        <ele>51.7</ele>
        <time>2022-05-11T14:32:02Z</time>
      </trkpt>
      <trkpt lat="49.77101" lon="2.1733">
        <ele>51.7</ele>
        <time>2022-05-11T14:32:03Z</time>
      </trkpt>
      <trkpt lat="49.77102" lon="2.1733">
        <ele>51.7</ele>
        <time>2022-05-11T14:32:04Z</time>
      </trkpt>
      <trkpt lat="49.77103" lon="2.1733">
        <ele>51.7</ele>
        <time>2022-05-11T14:32:06Z</time>
      </trkpt>
      <trkpt lat="49.77103" lon="2.17329">
        <ele>51.7</ele>
        <time>2022-05-11T14:32:07Z</time>
      </trkpt>
      <trkpt lat="49.77104" lon="2.17329">
        <ele>51.7</ele>
        <time>2022-05-11T14:32:08Z</time>
      </trkpt>
      <trkpt lat="49.77104" lon="2.17328">
        <ele>51.7</ele>
        <time>2022-05-11T14:32:09Z</time>
      </trkpt>
      <trkpt lat="49.77104" lon="2.17328">
        <ele>51.7</ele>
        <time>2022-05-11T14:32:10Z</time>
      </trkpt>
      <trkpt lat="49.77105" lon="2.17326">
        <ele>51.7</ele>
        <time>2022-05-11T14:32:11Z</time>
      </trkpt>
      <trkpt lat="49.77106" lon="2.17325">
        <ele>51.7</ele>
        <time>2022-05-11T14:32:13Z</time>
      </trkpt>
      <trkpt lat="49.77107" lon="2.17323">
        <ele>51.7</ele>
        <time>2022-05-11T14:32:14Z</time>
      </trkpt>
      <trkpt lat="49.77108" lon="2.1732">
        <ele>51.6</ele>
        <time>2022-05-11T14:32:15Z</time>
      </trkpt>
      <trkpt lat="49.77109" lon="2.17319">
        <ele>51.6</ele>
        <time>2022-05-11T14:32:16Z</time>
      </trkpt>
      <trkpt lat="49.7711" lon="2.17318">
        <ele>51.6</ele>
        <time>2022-05-11T14:32:17Z</time>
      </trkpt>
      <trkpt lat="49.77111" lon="2.17316">
        <ele>51.6</ele>
        <time>2022-05-11T14:32:18Z</time>
      </trkpt>
      <trkpt lat="49.77111" lon="2.17315">
        <ele>51.6</ele>
        <time>2022-05-11T14:32:19Z</time>
      </trkpt>
      <trkpt lat="49.77112" lon="2.17314">
        <ele>51.6</ele>
        <time>2022-05-11T14:32:20Z</time>
      </trkpt>
      <trkpt lat="49.77112" lon="2.17313">
        <ele>51.6</ele>
        <time>2022-05-11T14:32:21Z</time>
      </trkpt>
      <trkpt lat="49.77112" lon="2.17313">
        <ele>51.6</ele>
        <time>2022-05-11T14:32:22Z</time>
      </trkpt>
      <trkpt lat="49.77113" lon="2.17311">
        <ele>51.6</ele>
        <time>2022-05-11T14:32:23Z</time>
      </trkpt>
      <trkpt lat="49.77114" lon="2.1731">
        <ele>51.6</ele>
        <time>2022-05-11T14:32:24Z</time>
      </trkpt>
      <trkpt lat="49.77115" lon="2.17308">
        <ele>51.6</ele>
        <time>2022-05-11T14:32:26Z</time>
      </trkpt>
      <trkpt lat="49.77115" lon="2.17307">
        <ele>51.6</ele>
        <time>2022-05-11T14:32:27Z</time>
      </trkpt>
      <trkpt lat="49.77116" lon="2.17306">
        <ele>51.6</ele>
        <time>2022-05-11T14:32:28Z</time>
      </trkpt>
      <trkpt lat="49.77115" lon="2.17307">
        <ele>51.6</ele>
        <time>2022-05-11T14:32:29Z</time>
      </trkpt>
      <trkpt lat="49.77116" lon="2.17306">
        <ele>51.6</ele>
        <time>2022-05-11T14:32:30Z</time>
      </trkpt>
      <trkpt lat="49.77117" lon="2.17305">
        <ele>51.6</ele>
        <time>2022-05-11T14:32:31Z</time>
      </trkpt>
      <trkpt lat="49.77119" lon="2.17304">
        <ele>51.6</ele>
        <time>2022-05-11T14:32:33Z</time>
      </trkpt>
      <trkpt lat="49.7712" lon="2.17303">
        <ele>51.6</ele>
        <time>2022-05-11T14:32:34Z</time>
      </trkpt>
      <trkpt lat="49.77122" lon="2.17302">
        <ele>51.6</ele>
        <time>2022-05-11T14:32:35Z</time>
      </trkpt>
      <trkpt lat="49.77123" lon="2.17301">
        <ele>51.6</ele>
        <time>2022-05-11T14:32:36Z</time>
      </trkpt>
      <trkpt lat="49.77124" lon="2.173">
        <ele>51.6</ele>
        <time>2022-05-11T14:32:37Z</time>
      </trkpt>
      <trkpt lat="49.77126" lon="2.17299">
        <ele>51.6</ele>
        <time>2022-05-11T14:32:38Z</time>
      </trkpt>
      <trkpt lat="49.77127" lon="2.17298">
        <ele>51.6</ele>
        <time>2022-05-11T14:32:39Z</time>
      </trkpt>
      <trkpt lat="49.77128" lon="2.17297">
        <ele>51.6</ele>
        <time>2022-05-11T14:32:40Z</time>
      </trkpt>
      <trkpt lat="49.77129" lon="2.17296">
        <ele>51.6</ele>
        <time>2022-05-11T14:32:41Z</time>
      </trkpt>
      <trkpt lat="49.7713" lon="2.17295">
        <ele>51.6</ele>
        <time>2022-05-11T14:32:42Z</time>
      </trkpt>
      <trkpt lat="49.77131" lon="2.17292">
        <ele>51.6</ele>
        <time>2022-05-11T14:32:43Z</time>
      </trkpt>
      <trkpt lat="49.77132" lon="2.17291">
        <ele>51.6</ele>
        <time>2022-05-11T14:32:44Z</time>
      </trkpt>
      <trkpt lat="49.77133" lon="2.1729">
        <ele>51.6</ele>
        <time>2022-05-11T14:32:45Z</time>
      </trkpt>
      <trkpt lat="49.77135" lon="2.17289">
        <ele>51.6</ele>
        <time>2022-05-11T14:32:46Z</time>
      </trkpt>
      <trkpt lat="49.77136" lon="2.17288">
        <ele>51.6</ele>
        <time>2022-05-11T14:32:48Z</time>
      </trkpt>
      <trkpt lat="49.77136" lon="2.17287">
        <ele>51.6</ele>
        <time>2022-05-11T14:32:49Z</time>
      </trkpt>
      <trkpt lat="49.77138" lon="2.17286">
        <ele>51.6</ele>
        <time>2022-05-11T14:32:50Z</time>
      </trkpt>
      <trkpt lat="49.77139" lon="2.17285">
        <ele>51.6</ele>
        <time>2022-05-11T14:32:51Z</time>
      </trkpt>
      <trkpt lat="49.77141" lon="2.17283">
        <ele>51.6</ele>
        <time>2022-05-11T14:32:52Z</time>
      </trkpt>
      <trkpt lat="49.77141" lon="2.17282">
        <ele>51.6</ele>
        <time>2022-05-11T14:32:53Z</time>
      </trkpt>
      <trkpt lat="49.77142" lon="2.17281">
        <ele>51.6</ele>
        <time>2022-05-11T14:32:54Z</time>
      </trkpt>
      <trkpt lat="49.77143" lon="2.1728">
        <ele>51.6</ele>
        <time>2022-05-11T14:32:55Z</time>
      </trkpt>
      <trkpt lat="49.77144" lon="2.17278">
        <ele>51.6</ele>
        <time>2022-05-11T14:32:56Z</time>
      </trkpt>
      <trkpt lat="49.77146" lon="2.17276">
        <ele>51.6</ele>
        <time>2022-05-11T14:32:58Z</time>
      </trkpt>
      <trkpt lat="49.77147" lon="2.17275">
        <ele>51.6</ele>
        <time>2022-05-11T14:32:59Z</time>
      </trkpt>
      <trkpt lat="49.77148" lon="2.17273">
        <ele>51.6</ele>
        <time>2022-05-11T14:33:00Z</time>
      </trkpt>
      <trkpt lat="49.7715" lon="2.17271">
        <ele>51.6</ele>
        <time>2022-05-11T14:33:01Z</time>
      </trkpt>
      <trkpt lat="49.77151" lon="2.1727">
        <ele>51.6</ele>
        <time>2022-05-11T14:33:02Z</time>
      </trkpt>
      <trkpt lat="49.77152" lon="2.17269">
        <ele>51.6</ele>
        <time>2022-05-11T14:33:03Z</time>
      </trkpt>
      <trkpt lat="49.77153" lon="2.17268">
        <ele>51.6</ele>
        <time>2022-05-11T14:33:04Z</time>
      </trkpt>
      <trkpt lat="49.77154" lon="2.17267">
        <ele>51.6</ele>
        <time>2022-05-11T14:33:06Z</time>
      </trkpt>
      <trkpt lat="49.77154" lon="2.17266">
        <ele>51.6</ele>
        <time>2022-05-11T14:33:07Z</time>
      </trkpt>
      <trkpt lat="49.77155" lon="2.17266">
        <ele>51.6</ele>
        <time>2022-05-11T14:33:08Z</time>
      </trkpt>
      <trkpt lat="49.77156" lon="2.17266">
        <ele>51.6</ele>
        <time>2022-05-11T14:33:09Z</time>
      </trkpt>
      <trkpt lat="49.77156" lon="2.17266">
        <ele>51.6</ele>
        <time>2022-05-11T14:33:10Z</time>
      </trkpt>
      <trkpt lat="49.77157" lon="2.17265">
        <ele>51.6</ele>
        <time>2022-05-11T14:33:11Z</time>
      </trkpt>
      <trkpt lat="49.77159" lon="2.17263">
        <ele>51.6</ele>
        <time>2022-05-11T14:33:13Z</time>
      </trkpt>
      <trkpt lat="49.77159" lon="2.17262">
        <ele>51.6</ele>
        <time>2022-05-11T14:33:15Z</time>
      </trkpt>
      <trkpt lat="49.7716" lon="2.1726">
        <ele>51.6</ele>
        <time>2022-05-11T14:33:16Z</time>
      </trkpt>
      <trkpt lat="49.77162" lon="2.17259">
        <ele>51.6</ele>
        <time>2022-05-11T14:33:17Z</time>
      </trkpt>
      <trkpt lat="49.77163" lon="2.17258">
        <ele>51.6</ele>
        <time>2022-05-11T14:33:18Z</time>
      </trkpt>
      <trkpt lat="49.77164" lon="2.17257">
        <ele>51.6</ele>
        <time>2022-05-11T14:33:19Z</time>
      </trkpt>
      <trkpt lat="49.77165" lon="2.17255">
        <ele>51.6</ele>
        <time>2022-05-11T14:33:20Z</time>
      </trkpt>
      <trkpt lat="49.77167" lon="2.17253">
        <ele>51.6</ele>
        <time>2022-05-11T14:33:22Z</time>
      </trkpt>
      <trkpt lat="49.77168" lon="2.17252">
        <ele>51.6</ele>
        <time>2022-05-11T14:33:23Z</time>
      </trkpt>
      <trkpt lat="49.77169" lon="2.1725">
        <ele>51.6</ele>
        <time>2022-05-11T14:33:24Z</time>
      </trkpt>
      <trkpt lat="49.7717" lon="2.17249">
        <ele>51.5</ele>
        <time>2022-05-11T14:33:25Z</time>
      </trkpt>
      <trkpt lat="49.77171" lon="2.17247">
        <ele>51.5</ele>
        <time>2022-05-11T14:33:26Z</time>
      </trkpt>
      <trkpt lat="49.77173" lon="2.17246">
        <ele>51.5</ele>
        <time>2022-05-11T14:33:27Z</time>
      </trkpt>
      <trkpt lat="49.77174" lon="2.17244">
        <ele>51.5</ele>
        <time>2022-05-11T14:33:28Z</time>
      </trkpt>
      <trkpt lat="49.77175" lon="2.17242">
        <ele>51.5</ele>
        <time>2022-05-11T14:33:29Z</time>
      </trkpt>
      <trkpt lat="49.77176" lon="2.1724">
        <ele>51.5</ele>
        <time>2022-05-11T14:33:31Z</time>
      </trkpt>
      <trkpt lat="49.77177" lon="2.17238">
        <ele>51.5</ele>
        <time>2022-05-11T14:33:32Z</time>
      </trkpt>
      <trkpt lat="49.77177" lon="2.17237">
        <ele>51.5</ele>
        <time>2022-05-11T14:33:33Z</time>
      </trkpt>
      <trkpt lat="49.77178" lon="2.17235">
        <ele>51.5</ele>
        <time>2022-05-11T14:33:34Z</time>
      </trkpt>
      <trkpt lat="49.77177" lon="2.17234">
        <ele>51.5</ele>
        <time>2022-05-11T14:33:35Z</time>
      </trkpt>
      <trkpt lat="49.77178" lon="2.17232">
        <ele>51.5</ele>
        <time>2022-05-11T14:33:36Z</time>
      </trkpt>
      <trkpt lat="49.77178" lon="2.17231">
        <ele>51.5</ele>
        <time>2022-05-11T14:33:37Z</time>
      </trkpt>
      <trkpt lat="49.77179" lon="2.1723">
        <ele>51.5</ele>
        <time>2022-05-11T14:33:39Z</time>
      </trkpt>
      <trkpt lat="49.77179" lon="2.17228">
        <ele>51.5</ele>
        <time>2022-05-11T14:33:40Z</time>
      </trkpt>
      <trkpt lat="49.7718" lon="2.17227">
        <ele>51.4</ele>
        <time>2022-05-11T14:33:41Z</time>
      </trkpt>
      <trkpt lat="49.77181" lon="2.17227">
        <ele>51.4</ele>
        <time>2022-05-11T14:33:42Z</time>
      </trkpt>
      <trkpt lat="49.77182" lon="2.17226">
        <ele>51.4</ele>
        <time>2022-05-11T14:33:43Z</time>
      </trkpt>
      <trkpt lat="49.77182" lon="2.17226">
        <ele>51.4</ele>
        <time>2022-05-11T14:33:44Z</time>
      </trkpt>
      <trkpt lat="49.77182" lon="2.17227">
        <ele>51.4</ele>
        <time>2022-05-11T14:33:45Z</time>
      </trkpt>
      <trkpt lat="49.77183" lon="2.17226">
        <ele>51.4</ele>
        <time>2022-05-11T14:33:46Z</time>
      </trkpt>
      <trkpt lat="49.77184" lon="2.17225">
        <ele>51.4</ele>
        <time>2022-05-11T14:33:47Z</time>
      </trkpt>
      <trkpt lat="49.77185" lon="2.17225">
        <ele>51.4</ele>
        <time>2022-05-11T14:33:48Z</time>
      </trkpt>
      <trkpt lat="49.77186" lon="2.17222">
        <ele>51.4</ele>
        <time>2022-05-11T14:33:50Z</time>
      </trkpt>
      <trkpt lat="49.77187" lon="2.17221">
        <ele>51.4</ele>
        <time>2022-05-11T14:33:51Z</time>
      </trkpt>
      <trkpt lat="49.77187" lon="2.1722">
        <ele>51.4</ele>
        <time>2022-05-11T14:33:52Z</time>
      </trkpt>
      <trkpt lat="49.77188" lon="2.17218">
        <ele>51.4</ele>
        <time>2022-05-11T14:33:53Z</time>
      </trkpt>
      <trkpt lat="49.77189" lon="2.17217">
        <ele>51.4</ele>
        <time>2022-05-11T14:33:54Z</time>
      </trkpt>
      <trkpt lat="49.77189" lon="2.17216">
        <ele>51.4</ele>
        <time>2022-05-11T14:33:55Z</time>
      </trkpt>
      <trkpt lat="49.7719" lon="2.17214">
        <ele>51.4</ele>
        <time>2022-05-11T14:33:56Z</time>
      </trkpt>
      <trkpt lat="49.77191" lon="2.17213">
        <ele>51.4</ele>
        <time>2022-05-11T14:33:57Z</time>
      </trkpt>
      <trkpt lat="49.77192" lon="2.1721">
        <ele>51.4</ele>
        <time>2022-05-11T14:33:59Z</time>
      </trkpt>
      <trkpt lat="49.77192" lon="2.17208">
        <ele>51.4</ele>
        <time>2022-05-11T14:34:01Z</time>
      </trkpt>
      <trkpt lat="49.77192" lon="2.17207">
        <ele>51.4</ele>
        <time>2022-05-11T14:34:02Z</time>
      </trkpt>
      <trkpt lat="49.77191" lon="2.17207">
        <ele>51.4</ele>
        <time>2022-05-11T14:34:03Z</time>
      </trkpt>
      <trkpt lat="49.77191" lon="2.17205">
        <ele>51.4</ele>
        <time>2022-05-11T14:34:04Z</time>
      </trkpt>
      <trkpt lat="49.77192" lon="2.17203">
        <ele>51.4</ele>
        <time>2022-05-11T14:34:05Z</time>
      </trkpt>
      <trkpt lat="49.77192" lon="2.17202">
        <ele>51.4</ele>
        <time>2022-05-11T14:34:07Z</time>
      </trkpt>
      <trkpt lat="49.77193" lon="2.17201">
        <ele>51.4</ele>
        <time>2022-05-11T14:34:08Z</time>
      </trkpt>
      <trkpt lat="49.77193" lon="2.172">
        <ele>51.4</ele>
        <time>2022-05-11T14:34:09Z</time>
      </trkpt>
      <trkpt lat="49.77194" lon="2.17199">
        <ele>51.4</ele>
        <time>2022-05-11T14:34:10Z</time>
      </trkpt>
      <trkpt lat="49.77194" lon="2.17198">
        <ele>51.4</ele>
        <time>2022-05-11T14:34:11Z</time>
      </trkpt>
      <trkpt lat="49.77194" lon="2.17197">
        <ele>51.4</ele>
        <time>2022-05-11T14:34:12Z</time>
      </trkpt>
      <trkpt lat="49.77194" lon="2.17196">
        <ele>51.4</ele>
        <time>2022-05-11T14:34:13Z</time>
      </trkpt>
      <trkpt lat="49.77195" lon="2.17195">
        <ele>51.4</ele>
        <time>2022-05-11T14:34:14Z</time>
      </trkpt>
      <trkpt lat="49.77195" lon="2.17193">
        <ele>51.4</ele>
        <time>2022-05-11T14:34:15Z</time>
      </trkpt>
      <trkpt lat="49.77196" lon="2.17192">
        <ele>51.4</ele>
        <time>2022-05-11T14:34:16Z</time>
      </trkpt>
      <trkpt lat="49.77196" lon="2.1719">
        <ele>51.4</ele>
        <time>2022-05-11T14:34:17Z</time>
      </trkpt>
      <trkpt lat="49.77197" lon="2.17189">
        <ele>51.4</ele>
        <time>2022-05-11T14:34:18Z</time>
      </trkpt>
      <trkpt lat="49.77197" lon="2.17188">
        <ele>51.4</ele>
        <time>2022-05-11T14:34:19Z</time>
      </trkpt>
      <trkpt lat="49.77197" lon="2.17186">
        <ele>51.4</ele>
        <time>2022-05-11T14:34:20Z</time>
      </trkpt>
      <trkpt lat="49.77198" lon="2.17184">
        <ele>51.4</ele>
        <time>2022-05-11T14:34:22Z</time>
      </trkpt>
      <trkpt lat="49.77199" lon="2.17182">
        <ele>51.4</ele>
        <time>2022-05-11T14:34:23Z</time>
      </trkpt>
      <trkpt lat="49.772" lon="2.1718">
        <ele>51.4</ele>
        <time>2022-05-11T14:34:24Z</time>
      </trkpt>
      <trkpt lat="49.77201" lon="2.1718">
        <ele>51.4</ele>
        <time>2022-05-11T14:34:25Z</time>
      </trkpt>
      <trkpt lat="49.77202" lon="2.1718">
        <ele>51.4</ele>
        <time>2022-05-11T14:34:26Z</time>
      </trkpt>
      <trkpt lat="49.77203" lon="2.17179">
        <ele>51.4</ele>
        <time>2022-05-11T14:34:27Z</time>
      </trkpt>
      <trkpt lat="49.77204" lon="2.1718">
        <ele>51.4</ele>
        <time>2022-05-11T14:34:28Z</time>
      </trkpt>
      <trkpt lat="49.77205" lon="2.1718">
        <ele>51.4</ele>
        <time>2022-05-11T14:34:29Z</time>
      </trkpt>
      <trkpt lat="49.77205" lon="2.1718">
        <ele>51.4</ele>
        <time>2022-05-11T14:34:30Z</time>
      </trkpt>
      <trkpt lat="49.77206" lon="2.1718">
        <ele>51.4</ele>
        <time>2022-05-11T14:34:31Z</time>
      </trkpt>
      <trkpt lat="49.77207" lon="2.17179">
        <ele>51.4</ele>
        <time>2022-05-11T14:34:32Z</time>
      </trkpt>
      <trkpt lat="49.77207" lon="2.1718">
        <ele>51.4</ele>
        <time>2022-05-11T14:34:33Z</time>
      </trkpt>
      <trkpt lat="49.77207" lon="2.1718">
        <ele>51.4</ele>
        <time>2022-05-11T14:34:34Z</time>
      </trkpt>
      <trkpt lat="49.77206" lon="2.17179">
        <ele>51.4</ele>
        <time>2022-05-11T14:34:35Z</time>
      </trkpt>
      <trkpt lat="49.77206" lon="2.17179">
        <ele>51.4</ele>
        <time>2022-05-11T14:34:36Z</time>
      </trkpt>
      <trkpt lat="49.77206" lon="2.1718">
        <ele>51.4</ele>
        <time>2022-05-11T14:34:37Z</time>
      </trkpt>
      <trkpt lat="49.77206" lon="2.17181">
        <ele>51.4</ele>
        <time>2022-05-11T14:34:38Z</time>
      </trkpt>
      <trkpt lat="49.77207" lon="2.17181">
        <ele>51.4</ele>
        <time>2022-05-11T14:34:39Z</time>
      </trkpt>
      <trkpt lat="49.77208" lon="2.17181">
        <ele>51.4</ele>
        <time>2022-05-11T14:34:40Z</time>
      </trkpt>
      <trkpt lat="49.77208" lon="2.1718">
        <ele>51.4</ele>
        <time>2022-05-11T14:34:41Z</time>
      </trkpt>
      <trkpt lat="49.77209" lon="2.17179">
        <ele>51.4</ele>
        <time>2022-05-11T14:34:42Z</time>
      </trkpt>
      <trkpt lat="49.77211" lon="2.1718">
        <ele>51.4</ele>
        <time>2022-05-11T14:34:43Z</time>
      </trkpt>
      <trkpt lat="49.77213" lon="2.17181">
        <ele>51.2</ele>
        <time>2022-05-11T14:34:44Z</time>
      </trkpt>
      <trkpt lat="49.77213" lon="2.1718">
        <ele>51.2</ele>
        <time>2022-05-11T14:34:45Z</time>
      </trkpt>
      <trkpt lat="49.77214" lon="2.1718">
        <ele>51.2</ele>
        <time>2022-05-11T14:34:46Z</time>
      </trkpt>
      <trkpt lat="49.77215" lon="2.17178">
        <ele>51.2</ele>
        <time>2022-05-11T14:34:47Z</time>
      </trkpt>
      <trkpt lat="49.77215" lon="2.17177">
        <ele>51.1</ele>
        <time>2022-05-11T14:34:48Z</time>
      </trkpt>
      <trkpt lat="49.77215" lon="2.17175">
        <ele>51.1</ele>
        <time>2022-05-11T14:34:49Z</time>
      </trkpt>
      <trkpt lat="49.77215" lon="2.17174">
        <ele>51.1</ele>
        <time>2022-05-11T14:34:50Z</time>
      </trkpt>
      <trkpt lat="49.77214" lon="2.17173">
        <ele>51.1</ele>
        <time>2022-05-11T14:34:52Z</time>
      </trkpt>
      <trkpt lat="49.77212" lon="2.17171">
        <ele>51</ele>
        <time>2022-05-11T14:34:53Z</time>
      </trkpt>
      <trkpt lat="49.77211" lon="2.17171">
        <ele>51</ele>
        <time>2022-05-11T14:34:54Z</time>
      </trkpt>
      <trkpt lat="49.77211" lon="2.1717">
        <ele>51</ele>
        <time>2022-05-11T14:34:55Z</time>
      </trkpt>
      <trkpt lat="49.7721" lon="2.17168">
        <ele>50.9</ele>
        <time>2022-05-11T14:34:56Z</time>
      </trkpt>
      <trkpt lat="49.7721" lon="2.17167">
        <ele>50.9</ele>
        <time>2022-05-11T14:34:57Z</time>
      </trkpt>
      <trkpt lat="49.7721" lon="2.17166">
        <ele>50.9</ele>
        <time>2022-05-11T14:34:58Z</time>
      </trkpt>
      <trkpt lat="49.7721" lon="2.17164">
        <ele>50.9</ele>
        <time>2022-05-11T14:34:59Z</time>
      </trkpt>
      <trkpt lat="49.7721" lon="2.17161">
        <ele>50.8</ele>
        <time>2022-05-11T14:35:01Z</time>
      </trkpt>
      <trkpt lat="49.7721" lon="2.17159">
        <ele>50.8</ele>
        <time>2022-05-11T14:35:02Z</time>
      </trkpt>
      <trkpt lat="49.7721" lon="2.17158">
        <ele>50.8</ele>
        <time>2022-05-11T14:35:03Z</time>
      </trkpt>
      <trkpt lat="49.77211" lon="2.17157">
        <ele>50.8</ele>
        <time>2022-05-11T14:35:04Z</time>
      </trkpt>
      <trkpt lat="49.7721" lon="2.17155">
        <ele>50.8</ele>
        <time>2022-05-11T14:35:05Z</time>
      </trkpt>
      <trkpt lat="49.77211" lon="2.17152">
        <ele>50.7</ele>
        <time>2022-05-11T14:35:06Z</time>
      </trkpt>
      <trkpt lat="49.77211" lon="2.1715">
        <ele>50.7</ele>
        <time>2022-05-11T14:35:08Z</time>
      </trkpt>
      <trkpt lat="49.77211" lon="2.17148">
        <ele>50.7</ele>
        <time>2022-05-11T14:35:09Z</time>
      </trkpt>
      <trkpt lat="49.77211" lon="2.17148">
        <ele>50.7</ele>
        <time>2022-05-11T14:35:10Z</time>
      </trkpt>
      <trkpt lat="49.77211" lon="2.17146">
        <ele>50.7</ele>
        <time>2022-05-11T14:35:11Z</time>
      </trkpt>
      <trkpt lat="49.77212" lon="2.17145">
        <ele>50.6</ele>
        <time>2022-05-11T14:35:12Z</time>
      </trkpt>
      <trkpt lat="49.77212" lon="2.17144">
        <ele>50.6</ele>
        <time>2022-05-11T14:35:13Z</time>
      </trkpt>
      <trkpt lat="49.77212" lon="2.17141">
        <ele>50.6</ele>
        <time>2022-05-11T14:35:14Z</time>
      </trkpt>
      <trkpt lat="49.77213" lon="2.1714">
        <ele>50.6</ele>
        <time>2022-05-11T14:35:16Z</time>
      </trkpt>
      <trkpt lat="49.77213" lon="2.17139">
        <ele>50.6</ele>
        <time>2022-05-11T14:35:17Z</time>
      </trkpt>
      <trkpt lat="49.77213" lon="2.17136">
        <ele>50.5</ele>
        <time>2022-05-11T14:35:18Z</time>
      </trkpt>
      <trkpt lat="49.77214" lon="2.17132">
        <ele>50.5</ele>
        <time>2022-05-11T14:35:20Z</time>
      </trkpt>
      <trkpt lat="49.77214" lon="2.1713">
        <ele>50.5</ele>
        <time>2022-05-11T14:35:21Z</time>
      </trkpt>
      <trkpt lat="49.77214" lon="2.17128">
        <ele>50.5</ele>
        <time>2022-05-11T14:35:22Z</time>
      </trkpt>
      <trkpt lat="49.77215" lon="2.17126">
        <ele>50.4</ele>
        <time>2022-05-11T14:35:23Z</time>
      </trkpt>
      <trkpt lat="49.77216" lon="2.17124">
        <ele>50.4</ele>
        <time>2022-05-11T14:35:24Z</time>
      </trkpt>
      <trkpt lat="49.77216" lon="2.17122">
        <ele>50.4</ele>
        <time>2022-05-11T14:35:25Z</time>
      </trkpt>
      <trkpt lat="49.77217" lon="2.17118">
        <ele>50.4</ele>
        <time>2022-05-11T14:35:27Z</time>
      </trkpt>
      <trkpt lat="49.77218" lon="2.17117">
        <ele>50.3</ele>
        <time>2022-05-11T14:35:28Z</time>
      </trkpt>
      <trkpt lat="49.77219" lon="2.17116">
        <ele>50.3</ele>
        <time>2022-05-11T14:35:29Z</time>
      </trkpt>
      <trkpt lat="49.77219" lon="2.17114">
        <ele>50.3</ele>
        <time>2022-05-11T14:35:30Z</time>
      </trkpt>
      <trkpt lat="49.7722" lon="2.17113">
        <ele>50.3</ele>
        <time>2022-05-11T14:35:31Z</time>
      </trkpt>
      <trkpt lat="49.7722" lon="2.17112">
        <ele>50.3</ele>
        <time>2022-05-11T14:35:32Z</time>
      </trkpt>
      <trkpt lat="49.7722" lon="2.1711">
        <ele>50.3</ele>
        <time>2022-05-11T14:35:33Z</time>
      </trkpt>
      <trkpt lat="49.77221" lon="2.17109">
        <ele>50.2</ele>
        <time>2022-05-11T14:35:34Z</time>
      </trkpt>
      <trkpt lat="49.77222" lon="2.17106">
        <ele>50.2</ele>
        <time>2022-05-11T14:35:35Z</time>
      </trkpt>
      <trkpt lat="49.77223" lon="2.17103">
        <ele>50.2</ele>
        <time>2022-05-11T14:35:37Z</time>
      </trkpt>
      <trkpt lat="49.77223" lon="2.17101">
        <ele>50.2</ele>
        <time>2022-05-11T14:35:38Z</time>
      </trkpt>
      <trkpt lat="49.77224" lon="2.17098">
        <ele>50.2</ele>
        <time>2022-05-11T14:35:39Z</time>
      </trkpt>
      <trkpt lat="49.77225" lon="2.17096">
        <ele>50.1</ele>
        <time>2022-05-11T14:35:40Z</time>
      </trkpt>
      <trkpt lat="49.77225" lon="2.17093">
        <ele>50.1</ele>
        <time>2022-05-11T14:35:41Z</time>
      </trkpt>
      <trkpt lat="49.77226" lon="2.17091">
        <ele>50.1</ele>
        <time>2022-05-11T14:35:42Z</time>
      </trkpt>
      <trkpt lat="49.77226" lon="2.1709">
        <ele>50.1</ele>
        <time>2022-05-11T14:35:43Z</time>
      </trkpt>
      <trkpt lat="49.77226" lon="2.17088">
        <ele>50.1</ele>
        <time>2022-05-11T14:35:44Z</time>
      </trkpt>
      <trkpt lat="49.77227" lon="2.17087">
        <ele>50.1</ele>
        <time>2022-05-11T14:35:45Z</time>
      </trkpt>
      <trkpt lat="49.77227" lon="2.17087">
        <ele>50.1</ele>
        <time>2022-05-11T14:35:47Z</time>
      </trkpt>
      <trkpt lat="49.77227" lon="2.17086">
        <ele>50.1</ele>
        <time>2022-05-11T14:35:48Z</time>
      </trkpt>
      <trkpt lat="49.77228" lon="2.17084">
        <ele>50.1</ele>
        <time>2022-05-11T14:35:49Z</time>
      </trkpt>
      <trkpt lat="49.77228" lon="2.17081">
        <ele>50.1</ele>
        <time>2022-05-11T14:35:50Z</time>
      </trkpt>
      <trkpt lat="49.77228" lon="2.17079">
        <ele>50.1</ele>
        <time>2022-05-11T14:35:51Z</time>
      </trkpt>
      <trkpt lat="49.77228" lon="2.17076">
        <ele>50</ele>
        <time>2022-05-11T14:35:53Z</time>
      </trkpt>
      <trkpt lat="49.77228" lon="2.17074">
        <ele>50</ele>
        <time>2022-05-11T14:35:54Z</time>
      </trkpt>
      <trkpt lat="49.77228" lon="2.17073">
        <ele>50</ele>
        <time>2022-05-11T14:35:55Z</time>
      </trkpt>
      <trkpt lat="49.77228" lon="2.17072">
        <ele>50</ele>
        <time>2022-05-11T14:35:56Z</time>
      </trkpt>
      <trkpt lat="49.77228" lon="2.17071">
        <ele>50</ele>
        <time>2022-05-11T14:35:57Z</time>
      </trkpt>
      <trkpt lat="49.77228" lon="2.17069">
        <ele>50</ele>
        <time>2022-05-11T14:35:58Z</time>
      </trkpt>
      <trkpt lat="49.77228" lon="2.17066">
        <ele>50</ele>
        <time>2022-05-11T14:36:00Z</time>
      </trkpt>
      <trkpt lat="49.77228" lon="2.17063">
        <ele>50</ele>
        <time>2022-05-11T14:36:01Z</time>
      </trkpt>
      <trkpt lat="49.77228" lon="2.17061">
        <ele>50</ele>
        <time>2022-05-11T14:36:02Z</time>
      </trkpt>
      <trkpt lat="49.77228" lon="2.17058">
        <ele>50</ele>
        <time>2022-05-11T14:36:03Z</time>
      </trkpt>
      <trkpt lat="49.77228" lon="2.17057">
        <ele>50</ele>
        <time>2022-05-11T14:36:04Z</time>
      </trkpt>
      <trkpt lat="49.77228" lon="2.17055">
        <ele>50</ele>
        <time>2022-05-11T14:36:05Z</time>
      </trkpt>
      <trkpt lat="49.77228" lon="2.17054">
        <ele>50</ele>
        <time>2022-05-11T14:36:06Z</time>
      </trkpt>
      <trkpt lat="49.77228" lon="2.17052">
        <ele>50</ele>
        <time>2022-05-11T14:36:08Z</time>
      </trkpt>
      <trkpt lat="49.77228" lon="2.1705">
        <ele>50</ele>
        <time>2022-05-11T14:36:09Z</time>
      </trkpt>
      <trkpt lat="49.77227" lon="2.17049">
        <ele>50</ele>
        <time>2022-05-11T14:36:10Z</time>
      </trkpt>
      <trkpt lat="49.77227" lon="2.17049">
        <ele>50</ele>
        <time>2022-05-11T14:36:11Z</time>
      </trkpt>
      <trkpt lat="49.77227" lon="2.17048">
        <ele>50</ele>
        <time>2022-05-11T14:36:12Z</time>
      </trkpt>
      <trkpt lat="49.77227" lon="2.17045">
        <ele>50</ele>
        <time>2022-05-11T14:36:14Z</time>
      </trkpt>
      <trkpt lat="49.77227" lon="2.17043">
        <ele>50</ele>
        <time>2022-05-11T14:36:15Z</time>
      </trkpt>
      <trkpt lat="49.77226" lon="2.17041">
        <ele>50</ele>
        <time>2022-05-11T14:36:16Z</time>
      </trkpt>
      <trkpt lat="49.77226" lon="2.1704">
        <ele>50</ele>
        <time>2022-05-11T14:36:17Z</time>
      </trkpt>
      <trkpt lat="49.77226" lon="2.17038">
        <ele>50</ele>
        <time>2022-05-11T14:36:18Z</time>
      </trkpt>
      <trkpt lat="49.77226" lon="2.17037">
        <ele>50</ele>
        <time>2022-05-11T14:36:19Z</time>
      </trkpt>
      <trkpt lat="49.77225" lon="2.17034">
        <ele>49.9</ele>
        <time>2022-05-11T14:36:20Z</time>
      </trkpt>
      <trkpt lat="49.77225" lon="2.17033">
        <ele>49.9</ele>
        <time>2022-05-11T14:36:22Z</time>
      </trkpt>
      <trkpt lat="49.77225" lon="2.17031">
        <ele>49.9</ele>
        <time>2022-05-11T14:36:23Z</time>
      </trkpt>
      <trkpt lat="49.77224" lon="2.17029">
        <ele>49.9</ele>
        <time>2022-05-11T14:36:24Z</time>
      </trkpt>
      <trkpt lat="49.77224" lon="2.17027">
        <ele>49.9</ele>
        <time>2022-05-11T14:36:25Z</time>
      </trkpt>
      <trkpt lat="49.77224" lon="2.17025">
        <ele>49.9</ele>
        <time>2022-05-11T14:36:26Z</time>
      </trkpt>
      <trkpt lat="49.77224" lon="2.17023">
        <ele>49.9</ele>
        <time>2022-05-11T14:36:27Z</time>
      </trkpt>
      <trkpt lat="49.77224" lon="2.17019">
        <ele>49.9</ele>
        <time>2022-05-11T14:36:29Z</time>
      </trkpt>
      <trkpt lat="49.77224" lon="2.17016">
        <ele>49.9</ele>
        <time>2022-05-11T14:36:30Z</time>
      </trkpt>
      <trkpt lat="49.77224" lon="2.17014">
        <ele>49.9</ele>
        <time>2022-05-11T14:36:31Z</time>
      </trkpt>
      <trkpt lat="49.77224" lon="2.17012">
        <ele>49.9</ele>
        <time>2022-05-11T14:36:32Z</time>
      </trkpt>
      <trkpt lat="49.77224" lon="2.1701">
        <ele>49.9</ele>
        <time>2022-05-11T14:36:33Z</time>
      </trkpt>
      <trkpt lat="49.77224" lon="2.17008">
        <ele>49.9</ele>
        <time>2022-05-11T14:36:34Z</time>
      </trkpt>
      <trkpt lat="49.77224" lon="2.17006">
        <ele>49.9</ele>
        <time>2022-05-11T14:36:35Z</time>
      </trkpt>
      <trkpt lat="49.77224" lon="2.17004">
        <ele>49.9</ele>
        <time>2022-05-11T14:36:37Z</time>
      </trkpt>
      <trkpt lat="49.77224" lon="2.17001">
        <ele>49.9</ele>
        <time>2022-05-11T14:36:38Z</time>
      </trkpt>
      <trkpt lat="49.77224" lon="2.16999">
        <ele>49.9</ele>
        <time>2022-05-11T14:36:39Z</time>
      </trkpt>
      <trkpt lat="49.77224" lon="2.16996">
        <ele>49.9</ele>
        <time>2022-05-11T14:36:41Z</time>
      </trkpt>
      <trkpt lat="49.77224" lon="2.16995">
        <ele>49.9</ele>
        <time>2022-05-11T14:36:42Z</time>
      </trkpt>
      <trkpt lat="49.77223" lon="2.1699">
        <ele>49.8</ele>
        <time>2022-05-11T14:36:44Z</time>
      </trkpt>
      <trkpt lat="49.77223" lon="2.16989">
        <ele>49.8</ele>
        <time>2022-05-11T14:36:45Z</time>
      </trkpt>
      <trkpt lat="49.77223" lon="2.16987">
        <ele>49.8</ele>
        <time>2022-05-11T14:36:46Z</time>
      </trkpt>
      <trkpt lat="49.77223" lon="2.16984">
        <ele>49.8</ele>
        <time>2022-05-11T14:36:47Z</time>
      </trkpt>
      <trkpt lat="49.77223" lon="2.16982">
        <ele>49.8</ele>
        <time>2022-05-11T14:36:48Z</time>
      </trkpt>
      <trkpt lat="49.77222" lon="2.1698">
        <ele>49.8</ele>
        <time>2022-05-11T14:36:49Z</time>
      </trkpt>
      <trkpt lat="49.77223" lon="2.16978">
        <ele>49.8</ele>
        <time>2022-05-11T14:36:50Z</time>
      </trkpt>
      <trkpt lat="49.77222" lon="2.16977">
        <ele>49.8</ele>
        <time>2022-05-11T14:36:51Z</time>
      </trkpt>
      <trkpt lat="49.77222" lon="2.16973">
        <ele>49.8</ele>
        <time>2022-05-11T14:36:53Z</time>
      </trkpt>
      <trkpt lat="49.77222" lon="2.16971">
        <ele>49.8</ele>
        <time>2022-05-11T14:36:54Z</time>
      </trkpt>
      <trkpt lat="49.77222" lon="2.16968">
        <ele>49.8</ele>
        <time>2022-05-11T14:36:55Z</time>
      </trkpt>
      <trkpt lat="49.77222" lon="2.16966">
        <ele>49.8</ele>
        <time>2022-05-11T14:36:56Z</time>
      </trkpt>
      <trkpt lat="49.77222" lon="2.16964">
        <ele>49.8</ele>
        <time>2022-05-11T14:36:57Z</time>
      </trkpt>
      <trkpt lat="49.77222" lon="2.16962">
        <ele>49.8</ele>
        <time>2022-05-11T14:36:58Z</time>
      </trkpt>
      <trkpt lat="49.77223" lon="2.1696">
        <ele>49.8</ele>
        <time>2022-05-11T14:36:59Z</time>
      </trkpt>
      <trkpt lat="49.77223" lon="2.16957">
        <ele>49.8</ele>
        <time>2022-05-11T14:37:00Z</time>
      </trkpt>
      <trkpt lat="49.77223" lon="2.16954">
        <ele>49.8</ele>
        <time>2022-05-11T14:37:02Z</time>
      </trkpt>
      <trkpt lat="49.77223" lon="2.16952">
        <ele>49.8</ele>
        <time>2022-05-11T14:37:03Z</time>
      </trkpt>
      <trkpt lat="49.77223" lon="2.1695">
        <ele>49.8</ele>
        <time>2022-05-11T14:37:04Z</time>
      </trkpt>
      <trkpt lat="49.77223" lon="2.16948">
        <ele>49.8</ele>
        <time>2022-05-11T14:37:05Z</time>
      </trkpt>
      <trkpt lat="49.77224" lon="2.16946">
        <ele>49.8</ele>
        <time>2022-05-11T14:37:06Z</time>
      </trkpt>
      <trkpt lat="49.77224" lon="2.16944">
        <ele>49.8</ele>
        <time>2022-05-11T14:37:07Z</time>
      </trkpt>
      <trkpt lat="49.77224" lon="2.16943">
        <ele>49.8</ele>
        <time>2022-05-11T14:37:08Z</time>
      </trkpt>
      <trkpt lat="49.77224" lon="2.16942">
        <ele>49.8</ele>
        <time>2022-05-11T14:37:09Z</time>
      </trkpt>
      <trkpt lat="49.77224" lon="2.1694">
        <ele>49.8</ele>
        <time>2022-05-11T14:37:10Z</time>
      </trkpt>
      <trkpt lat="49.77224" lon="2.16937">
        <ele>49.8</ele>
        <time>2022-05-11T14:37:12Z</time>
      </trkpt>
      <trkpt lat="49.77224" lon="2.16935">
        <ele>49.8</ele>
        <time>2022-05-11T14:37:13Z</time>
      </trkpt>
      <trkpt lat="49.77224" lon="2.16933">
        <ele>49.8</ele>
        <time>2022-05-11T14:37:14Z</time>
      </trkpt>
      <trkpt lat="49.77224" lon="2.16931">
        <ele>49.8</ele>
        <time>2022-05-11T14:37:15Z</time>
      </trkpt>
      <trkpt lat="49.77224" lon="2.1693">
        <ele>49.8</ele>
        <time>2022-05-11T14:37:16Z</time>
      </trkpt>
      <trkpt lat="49.77225" lon="2.16928">
        <ele>49.8</ele>
        <time>2022-05-11T14:37:17Z</time>
      </trkpt>
      <trkpt lat="49.77225" lon="2.16928">
        <ele>49.8</ele>
        <time>2022-05-11T14:37:18Z</time>
      </trkpt>
      <trkpt lat="49.77225" lon="2.16927">
        <ele>49.8</ele>
        <time>2022-05-11T14:37:19Z</time>
      </trkpt>
      <trkpt lat="49.77225" lon="2.16929">
        <ele>49.8</ele>
        <time>2022-05-11T14:37:20Z</time>
      </trkpt>
      <trkpt lat="49.77225" lon="2.16928">
        <ele>49.8</ele>
        <time>2022-05-11T14:37:21Z</time>
      </trkpt>
      <trkpt lat="49.77225" lon="2.16924">
        <ele>49.8</ele>
        <time>2022-05-11T14:37:23Z</time>
      </trkpt>
      <trkpt lat="49.77225" lon="2.16922">
        <ele>49.8</ele>
        <time>2022-05-11T14:37:24Z</time>
      </trkpt>
      <trkpt lat="49.77225" lon="2.1692">
        <ele>49.8</ele>
        <time>2022-05-11T14:37:25Z</time>
      </trkpt>
      <trkpt lat="49.77225" lon="2.16917">
        <ele>49.8</ele>
        <time>2022-05-11T14:37:26Z</time>
      </trkpt>
      <trkpt lat="49.77225" lon="2.16915">
        <ele>49.8</ele>
        <time>2022-05-11T14:37:27Z</time>
      </trkpt>
      <trkpt lat="49.77225" lon="2.16912">
        <ele>49.8</ele>
        <time>2022-05-11T14:37:28Z</time>
      </trkpt>
      <trkpt lat="49.77225" lon="2.16911">
        <ele>49.8</ele>
        <time>2022-05-11T14:37:29Z</time>
      </trkpt>
      <trkpt lat="49.77225" lon="2.16909">
        <ele>49.8</ele>
        <time>2022-05-11T14:37:30Z</time>
      </trkpt>
      <trkpt lat="49.77225" lon="2.16905">
        <ele>49.8</ele>
        <time>2022-05-11T14:37:31Z</time>
      </trkpt>
      <trkpt lat="49.77226" lon="2.16904">
        <ele>49.8</ele>
        <time>2022-05-11T14:37:33Z</time>
      </trkpt>
      <trkpt lat="49.77226" lon="2.16903">
        <ele>49.8</ele>
        <time>2022-05-11T14:37:34Z</time>
      </trkpt>
      <trkpt lat="49.77226" lon="2.16902">
        <ele>49.8</ele>
        <time>2022-05-11T14:37:36Z</time>
      </trkpt>
      <trkpt lat="49.77227" lon="2.169">
        <ele>49.8</ele>
        <time>2022-05-11T14:37:37Z</time>
      </trkpt>
      <trkpt lat="49.77227" lon="2.16899">
        <ele>49.8</ele>
        <time>2022-05-11T14:37:38Z</time>
      </trkpt>
      <trkpt lat="49.77227" lon="2.16896">
        <ele>49.8</ele>
        <time>2022-05-11T14:37:39Z</time>
      </trkpt>
      <trkpt lat="49.77227" lon="2.16894">
        <ele>49.8</ele>
        <time>2022-05-11T14:37:40Z</time>
      </trkpt>
      <trkpt lat="49.77227" lon="2.16892">
        <ele>49.8</ele>
        <time>2022-05-11T14:37:41Z</time>
      </trkpt>
      <trkpt lat="49.77228" lon="2.1689">
        <ele>49.8</ele>
        <time>2022-05-11T14:37:42Z</time>
      </trkpt>
      <trkpt lat="49.77228" lon="2.16885">
        <ele>49.8</ele>
        <time>2022-05-11T14:37:44Z</time>
      </trkpt>
      <trkpt lat="49.77228" lon="2.16883">
        <ele>49.8</ele>
        <time>2022-05-11T14:37:46Z</time>
      </trkpt>
      <trkpt lat="49.77228" lon="2.16882">
        <ele>49.8</ele>
        <time>2022-05-11T14:37:47Z</time>
      </trkpt>
      <trkpt lat="49.77227" lon="2.1688">
        <ele>49.8</ele>
        <time>2022-05-11T14:37:48Z</time>
      </trkpt>
      <trkpt lat="49.77227" lon="2.16878">
        <ele>49.8</ele>
        <time>2022-05-11T14:37:49Z</time>
      </trkpt>
      <trkpt lat="49.77227" lon="2.16876">
        <ele>49.9</ele>
        <time>2022-05-11T14:37:50Z</time>
      </trkpt>
      <trkpt lat="49.77227" lon="2.16875">
        <ele>49.9</ele>
        <time>2022-05-11T14:37:51Z</time>
      </trkpt>
      <trkpt lat="49.77227" lon="2.16872">
        <ele>49.9</ele>
        <time>2022-05-11T14:37:53Z</time>
      </trkpt>
      <trkpt lat="49.77227" lon="2.1687">
        <ele>49.9</ele>
        <time>2022-05-11T14:37:54Z</time>
      </trkpt>
      <trkpt lat="49.77227" lon="2.16868">
        <ele>49.9</ele>
        <time>2022-05-11T14:37:55Z</time>
      </trkpt>
      <trkpt lat="49.77227" lon="2.16867">
        <ele>49.9</ele>
        <time>2022-05-11T14:37:56Z</time>
      </trkpt>
      <trkpt lat="49.77227" lon="2.16865">
        <ele>49.9</ele>
        <time>2022-05-11T14:37:57Z</time>
      </trkpt>
      <trkpt lat="49.77227" lon="2.16864">
        <ele>49.9</ele>
        <time>2022-05-11T14:37:59Z</time>
      </trkpt>
      <trkpt lat="49.77227" lon="2.16861">
        <ele>49.9</ele>
        <time>2022-05-11T14:38:00Z</time>
      </trkpt>
      <trkpt lat="49.77227" lon="2.1686">
        <ele>49.9</ele>
        <time>2022-05-11T14:38:01Z</time>
      </trkpt>
      <trkpt lat="49.77228" lon="2.16858">
        <ele>49.9</ele>
        <time>2022-05-11T14:38:03Z</time>
      </trkpt>
      <trkpt lat="49.77228" lon="2.16856">
        <ele>49.9</ele>
        <time>2022-05-11T14:38:04Z</time>
      </trkpt>
      <trkpt lat="49.77228" lon="2.16853">
        <ele>49.9</ele>
        <time>2022-05-11T14:38:05Z</time>
      </trkpt>
      <trkpt lat="49.77228" lon="2.16851">
        <ele>49.9</ele>
        <time>2022-05-11T14:38:06Z</time>
      </trkpt>
      <trkpt lat="49.77228" lon="2.1685">
        <ele>49.9</ele>
        <time>2022-05-11T14:38:07Z</time>
      </trkpt>
      <trkpt lat="49.77228" lon="2.16848">
        <ele>49.9</ele>
        <time>2022-05-11T14:38:08Z</time>
      </trkpt>
      <trkpt lat="49.77228" lon="2.16847">
        <ele>49.9</ele>
        <time>2022-05-11T14:38:09Z</time>
      </trkpt>
      <trkpt lat="49.77228" lon="2.16845">
        <ele>49.9</ele>
        <time>2022-05-11T14:38:10Z</time>
      </trkpt>
      <trkpt lat="49.77228" lon="2.16842">
        <ele>49.9</ele>
        <time>2022-05-11T14:38:11Z</time>
      </trkpt>
      <trkpt lat="49.77228" lon="2.16841">
        <ele>49.9</ele>
        <time>2022-05-11T14:38:13Z</time>
      </trkpt>
      <trkpt lat="49.77228" lon="2.16839">
        <ele>49.9</ele>
        <time>2022-05-11T14:38:14Z</time>
      </trkpt>
      <trkpt lat="49.77228" lon="2.16837">
        <ele>49.9</ele>
        <time>2022-05-11T14:38:15Z</time>
      </trkpt>
      <trkpt lat="49.77228" lon="2.16835">
        <ele>49.9</ele>
        <time>2022-05-11T14:38:16Z</time>
      </trkpt>
      <trkpt lat="49.77229" lon="2.16833">
        <ele>49.9</ele>
        <time>2022-05-11T14:38:17Z</time>
      </trkpt>
      <trkpt lat="49.7723" lon="2.16831">
        <ele>49.9</ele>
        <time>2022-05-11T14:38:18Z</time>
      </trkpt>
      <trkpt lat="49.7723" lon="2.16828">
        <ele>49.9</ele>
        <time>2022-05-11T14:38:20Z</time>
      </trkpt>
      <trkpt lat="49.77231" lon="2.16826">
        <ele>49.9</ele>
        <time>2022-05-11T14:38:21Z</time>
      </trkpt>
      <trkpt lat="49.77232" lon="2.16825">
        <ele>49.9</ele>
        <time>2022-05-11T14:38:22Z</time>
      </trkpt>
      <trkpt lat="49.77234" lon="2.16823">
        <ele>49.9</ele>
        <time>2022-05-11T14:38:23Z</time>
      </trkpt>
      <trkpt lat="49.77234" lon="2.16822">
        <ele>49.9</ele>
        <time>2022-05-11T14:38:24Z</time>
      </trkpt>
      <trkpt lat="49.77235" lon="2.16821">
        <ele>49.9</ele>
        <time>2022-05-11T14:38:25Z</time>
      </trkpt>
      <trkpt lat="49.77236" lon="2.16819">
        <ele>49.9</ele>
        <time>2022-05-11T14:38:26Z</time>
      </trkpt>
      <trkpt lat="49.77237" lon="2.16818">
        <ele>49.9</ele>
        <time>2022-05-11T14:38:27Z</time>
      </trkpt>
      <trkpt lat="49.77239" lon="2.16815">
        <ele>49.9</ele>
        <time>2022-05-11T14:38:28Z</time>
      </trkpt>
      <trkpt lat="49.7724" lon="2.16814">
        <ele>49.9</ele>
        <time>2022-05-11T14:38:30Z</time>
      </trkpt>
      <trkpt lat="49.77241" lon="2.16812">
        <ele>49.9</ele>
        <time>2022-05-11T14:38:31Z</time>
      </trkpt>
      <trkpt lat="49.77241" lon="2.16811">
        <ele>49.9</ele>
        <time>2022-05-11T14:38:32Z</time>
      </trkpt>
      <trkpt lat="49.77242" lon="2.1681">
        <ele>49.9</ele>
        <time>2022-05-11T14:38:33Z</time>
      </trkpt>
      <trkpt lat="49.77243" lon="2.16809">
        <ele>49.9</ele>
        <time>2022-05-11T14:38:34Z</time>
      </trkpt>
      <trkpt lat="49.77244" lon="2.16807">
        <ele>49.9</ele>
        <time>2022-05-11T14:38:35Z</time>
      </trkpt>
      <trkpt lat="49.77244" lon="2.16806">
        <ele>49.9</ele>
        <time>2022-05-11T14:38:36Z</time>
      </trkpt>
      <trkpt lat="49.77245" lon="2.16807">
        <ele>49.9</ele>
        <time>2022-05-11T14:38:37Z</time>
      </trkpt>
      <trkpt lat="49.77246" lon="2.16806">
        <ele>49.9</ele>
        <time>2022-05-11T14:38:38Z</time>
      </trkpt>
      <trkpt lat="49.77246" lon="2.16805">
        <ele>49.9</ele>
        <time>2022-05-11T14:38:40Z</time>
      </trkpt>
      <trkpt lat="49.77247" lon="2.16804">
        <ele>49.9</ele>
        <time>2022-05-11T14:38:41Z</time>
      </trkpt>
      <trkpt lat="49.77248" lon="2.16803">
        <ele>49.9</ele>
        <time>2022-05-11T14:38:42Z</time>
      </trkpt>
      <trkpt lat="49.77248" lon="2.16802">
        <ele>49.9</ele>
        <time>2022-05-11T14:38:43Z</time>
      </trkpt>
      <trkpt lat="49.77249" lon="2.16801">
        <ele>49.9</ele>
        <time>2022-05-11T14:38:44Z</time>
      </trkpt>
      <trkpt lat="49.7725" lon="2.16801">
        <ele>49.9</ele>
        <time>2022-05-11T14:38:45Z</time>
      </trkpt>
      <trkpt lat="49.77251" lon="2.16801">
        <ele>49.9</ele>
        <time>2022-05-11T14:38:46Z</time>
      </trkpt>
      <trkpt lat="49.77252" lon="2.168">
        <ele>49.9</ele>
        <time>2022-05-11T14:38:47Z</time>
      </trkpt>
      <trkpt lat="49.77253" lon="2.16799">
        <ele>49.9</ele>
        <time>2022-05-11T14:38:48Z</time>
      </trkpt>
      <trkpt lat="49.77253" lon="2.16798">
        <ele>49.9</ele>
        <time>2022-05-11T14:38:49Z</time>
      </trkpt>
      <trkpt lat="49.77254" lon="2.16797">
        <ele>49.9</ele>
        <time>2022-05-11T14:38:50Z</time>
      </trkpt>
      <trkpt lat="49.77255" lon="2.16796">
        <ele>49.9</ele>
        <time>2022-05-11T14:38:52Z</time>
      </trkpt>
      <trkpt lat="49.77256" lon="2.16795">
        <ele>49.9</ele>
        <time>2022-05-11T14:38:53Z</time>
      </trkpt>
      <trkpt lat="49.77258" lon="2.16794">
        <ele>49.9</ele>
        <time>2022-05-11T14:38:54Z</time>
      </trkpt>
      <trkpt lat="49.77259" lon="2.16793">
        <ele>49.9</ele>
        <time>2022-05-11T14:38:55Z</time>
      </trkpt>
      <trkpt lat="49.7726" lon="2.16792">
        <ele>49.9</ele>
        <time>2022-05-11T14:38:56Z</time>
      </trkpt>
      <trkpt lat="49.77261" lon="2.16791">
        <ele>49.9</ele>
        <time>2022-05-11T14:38:57Z</time>
      </trkpt>
      <trkpt lat="49.77263" lon="2.16791">
        <ele>49.9</ele>
        <time>2022-05-11T14:38:58Z</time>
      </trkpt>
      <trkpt lat="49.77264" lon="2.1679">
        <ele>49.9</ele>
        <time>2022-05-11T14:38:59Z</time>
      </trkpt>
      <trkpt lat="49.77266" lon="2.16788">
        <ele>49.9</ele>
        <time>2022-05-11T14:39:00Z</time>
      </trkpt>
      <trkpt lat="49.77267" lon="2.16787">
        <ele>49.9</ele>
        <time>2022-05-11T14:39:01Z</time>
      </trkpt>
      <trkpt lat="49.77268" lon="2.16787">
        <ele>49.9</ele>
        <time>2022-05-11T14:39:02Z</time>
      </trkpt>
      <trkpt lat="49.7727" lon="2.16785">
        <ele>49.9</ele>
        <time>2022-05-11T14:39:04Z</time>
      </trkpt>
      <trkpt lat="49.7727" lon="2.16784">
        <ele>49.9</ele>
        <time>2022-05-11T14:39:05Z</time>
      </trkpt>
      <trkpt lat="49.77271" lon="2.16783">
        <ele>49.9</ele>
        <time>2022-05-11T14:39:06Z</time>
      </trkpt>
      <trkpt lat="49.77272" lon="2.16782">
        <ele>49.9</ele>
        <time>2022-05-11T14:39:07Z</time>
      </trkpt>
      <trkpt lat="49.77273" lon="2.16781">
        <ele>49.9</ele>
        <time>2022-05-11T14:39:08Z</time>
      </trkpt>
      <trkpt lat="49.77275" lon="2.16778">
        <ele>50</ele>
        <time>2022-05-11T14:39:09Z</time>
      </trkpt>
      <trkpt lat="49.77275" lon="2.16778">
        <ele>50</ele>
        <time>2022-05-11T14:39:10Z</time>
      </trkpt>
      <trkpt lat="49.77276" lon="2.16777">
        <ele>50</ele>
        <time>2022-05-11T14:39:11Z</time>
      </trkpt>
      <trkpt lat="49.77277" lon="2.16775">
        <ele>50</ele>
        <time>2022-05-11T14:39:12Z</time>
      </trkpt>
      <trkpt lat="49.77278" lon="2.16774">
        <ele>50</ele>
        <time>2022-05-11T14:39:13Z</time>
      </trkpt>
      <trkpt lat="49.77279" lon="2.16771">
        <ele>50</ele>
        <time>2022-05-11T14:39:15Z</time>
      </trkpt>
      <trkpt lat="49.7728" lon="2.1677">
        <ele>50</ele>
        <time>2022-05-11T14:39:16Z</time>
      </trkpt>
      <trkpt lat="49.7728" lon="2.16769">
        <ele>50</ele>
        <time>2022-05-11T14:39:17Z</time>
      </trkpt>
      <trkpt lat="49.77281" lon="2.16768">
        <ele>50</ele>
        <time>2022-05-11T14:39:18Z</time>
      </trkpt>
      <trkpt lat="49.77281" lon="2.16766">
        <ele>50</ele>
        <time>2022-05-11T14:39:19Z</time>
      </trkpt>
      <trkpt lat="49.77281" lon="2.16765">
        <ele>50</ele>
        <time>2022-05-11T14:39:20Z</time>
      </trkpt>
      <trkpt lat="49.77282" lon="2.16763">
        <ele>50</ele>
        <time>2022-05-11T14:39:21Z</time>
      </trkpt>
      <trkpt lat="49.77282" lon="2.16761">
        <ele>50</ele>
        <time>2022-05-11T14:39:23Z</time>
      </trkpt>
      <trkpt lat="49.77282" lon="2.16759">
        <ele>50</ele>
        <time>2022-05-11T14:39:24Z</time>
      </trkpt>
      <trkpt lat="49.77283" lon="2.16758">
        <ele>50</ele>
        <time>2022-05-11T14:39:25Z</time>
      </trkpt>
      <trkpt lat="49.77283" lon="2.16756">
        <ele>50</ele>
        <time>2022-05-11T14:39:26Z</time>
      </trkpt>
      <trkpt lat="49.77282" lon="2.16754">
        <ele>50</ele>
        <time>2022-05-11T14:39:27Z</time>
      </trkpt>
      <trkpt lat="49.77282" lon="2.16752">
        <ele>50</ele>
        <time>2022-05-11T14:39:28Z</time>
      </trkpt>
      <trkpt lat="49.77282" lon="2.1675">
        <ele>50</ele>
        <time>2022-05-11T14:39:30Z</time>
      </trkpt>
      <trkpt lat="49.77282" lon="2.16748">
        <ele>50</ele>
        <time>2022-05-11T14:39:31Z</time>
      </trkpt>
      <trkpt lat="49.77283" lon="2.16745">
        <ele>50</ele>
        <time>2022-05-11T14:39:32Z</time>
      </trkpt>
      <trkpt lat="49.77283" lon="2.16744">
        <ele>50</ele>
        <time>2022-05-11T14:39:33Z</time>
      </trkpt>
      <trkpt lat="49.77283" lon="2.16742">
        <ele>50</ele>
        <time>2022-05-11T14:39:34Z</time>
      </trkpt>
      <trkpt lat="49.77283" lon="2.1674">
        <ele>50</ele>
        <time>2022-05-11T14:39:35Z</time>
      </trkpt>
      <trkpt lat="49.77283" lon="2.16738">
        <ele>50</ele>
        <time>2022-05-11T14:39:36Z</time>
      </trkpt>
      <trkpt lat="49.77283" lon="2.16736">
        <ele>50</ele>
        <time>2022-05-11T14:39:38Z</time>
      </trkpt>
      <trkpt lat="49.77283" lon="2.16734">
        <ele>50</ele>
        <time>2022-05-11T14:39:39Z</time>
      </trkpt>
      <trkpt lat="49.77284" lon="2.16733">
        <ele>50</ele>
        <time>2022-05-11T14:39:40Z</time>
      </trkpt>
      <trkpt lat="49.77285" lon="2.16732">
        <ele>50</ele>
        <time>2022-05-11T14:39:41Z</time>
      </trkpt>
      <trkpt lat="49.77286" lon="2.16731">
        <ele>50</ele>
        <time>2022-05-11T14:39:42Z</time>
      </trkpt>
      <trkpt lat="49.77287" lon="2.16731">
        <ele>50</ele>
        <time>2022-05-11T14:39:43Z</time>
      </trkpt>
      <trkpt lat="49.77288" lon="2.16731">
        <ele>50</ele>
        <time>2022-05-11T14:39:44Z</time>
      </trkpt>
      <trkpt lat="49.77288" lon="2.16731">
        <ele>50</ele>
        <time>2022-05-11T14:39:45Z</time>
      </trkpt>
      <trkpt lat="49.7729" lon="2.16732">
        <ele>50</ele>
        <time>2022-05-11T14:39:46Z</time>
      </trkpt>
      <trkpt lat="49.77291" lon="2.16732">
        <ele>50</ele>
        <time>2022-05-11T14:39:47Z</time>
      </trkpt>
      <trkpt lat="49.77291" lon="2.16733">
        <ele>50</ele>
        <time>2022-05-11T14:39:48Z</time>
      </trkpt>
      <trkpt lat="49.77293" lon="2.16734">
        <ele>50</ele>
        <time>2022-05-11T14:39:49Z</time>
      </trkpt>
      <trkpt lat="49.77293" lon="2.16735">
        <ele>50</ele>
        <time>2022-05-11T14:39:50Z</time>
      </trkpt>
      <trkpt lat="49.77294" lon="2.16736">
        <ele>50</ele>
        <time>2022-05-11T14:39:51Z</time>
      </trkpt>
      <trkpt lat="49.77295" lon="2.16736">
        <ele>50</ele>
        <time>2022-05-11T14:39:52Z</time>
      </trkpt>
      <trkpt lat="49.77295" lon="2.16735">
        <ele>50</ele>
        <time>2022-05-11T14:39:53Z</time>
      </trkpt>
      <trkpt lat="49.77296" lon="2.16734">
        <ele>50</ele>
        <time>2022-05-11T14:39:54Z</time>
      </trkpt>
      <trkpt lat="49.77296" lon="2.16734">
        <ele>50</ele>
        <time>2022-05-11T14:39:55Z</time>
      </trkpt>
      <trkpt lat="49.77296" lon="2.16734">
        <ele>50</ele>
        <time>2022-05-11T14:39:56Z</time>
      </trkpt>
      <trkpt lat="49.77295" lon="2.16734">
        <ele>50</ele>
        <time>2022-05-11T14:39:57Z</time>
      </trkpt>
      <trkpt lat="49.77294" lon="2.16734">
        <ele>50</ele>
        <time>2022-05-11T14:39:58Z</time>
      </trkpt>
      <trkpt lat="49.77294" lon="2.16735">
        <ele>50</ele>
        <time>2022-05-11T14:39:59Z</time>
      </trkpt>
      <trkpt lat="49.77294" lon="2.16735">
        <ele>50</ele>
        <time>2022-05-11T14:40:00Z</time>
      </trkpt>
      <trkpt lat="49.77294" lon="2.16735">
        <ele>50</ele>
        <time>2022-05-11T14:40:02Z</time>
      </trkpt>
      <trkpt lat="49.77293" lon="2.16736">
        <ele>50</ele>
        <time>2022-05-11T14:40:06Z</time>
      </trkpt>
      <trkpt lat="49.77292" lon="2.16737">
        <ele>50</ele>
        <time>2022-05-11T14:40:07Z</time>
      </trkpt>
      <trkpt lat="49.77292" lon="2.16738">
        <ele>50</ele>
        <time>2022-05-11T14:40:08Z</time>
      </trkpt>
      <trkpt lat="49.77291" lon="2.1674">
        <ele>50</ele>
        <time>2022-05-11T14:40:10Z</time>
      </trkpt>
      <trkpt lat="49.7729" lon="2.16741">
        <ele>50</ele>
        <time>2022-05-11T14:40:11Z</time>
      </trkpt>
      <trkpt lat="49.77289" lon="2.16742">
        <ele>50</ele>
        <time>2022-05-11T14:40:12Z</time>
      </trkpt>
      <trkpt lat="49.77288" lon="2.16743">
        <ele>50</ele>
        <time>2022-05-11T14:40:13Z</time>
      </trkpt>
      <trkpt lat="49.77288" lon="2.16743">
        <ele>50</ele>
        <time>2022-05-11T14:40:14Z</time>
      </trkpt>
      <trkpt lat="49.77288" lon="2.16743">
        <ele>50</ele>
        <time>2022-05-11T14:40:15Z</time>
      </trkpt>
      <trkpt lat="49.77288" lon="2.16743">
        <ele>50</ele>
        <time>2022-05-11T14:40:17Z</time>
      </trkpt>
      <trkpt lat="49.77287" lon="2.16743">
        <ele>50</ele>
        <time>2022-05-11T14:40:18Z</time>
      </trkpt>
      <trkpt lat="49.77287" lon="2.16743">
        <ele>50</ele>
        <time>2022-05-11T14:40:19Z</time>
      </trkpt>
      <trkpt lat="49.77287" lon="2.16743">
        <ele>50</ele>
        <time>2022-05-11T14:40:20Z</time>
      </trkpt>
      <trkpt lat="49.77287" lon="2.16743">
        <ele>50</ele>
        <time>2022-05-11T14:40:21Z</time>
      </trkpt>
      <trkpt lat="49.77287" lon="2.16743">
        <ele>50</ele>
        <time>2022-05-11T14:40:22Z</time>
      </trkpt>
      <trkpt lat="49.77287" lon="2.16744">
        <ele>50</ele>
        <time>2022-05-11T14:40:23Z</time>
      </trkpt>
      <trkpt lat="49.77286" lon="2.16744">
        <ele>50</ele>
        <time>2022-05-11T14:40:24Z</time>
      </trkpt>
      <trkpt lat="49.77286" lon="2.16744">
        <ele>50</ele>
        <time>2022-05-11T14:40:25Z</time>
      </trkpt>
      <trkpt lat="49.77286" lon="2.16744">
        <ele>50</ele>
        <time>2022-05-11T14:40:26Z</time>
      </trkpt>
      <trkpt lat="49.77286" lon="2.16744">
        <ele>50</ele>
        <time>2022-05-11T14:40:27Z</time>
      </trkpt>
      <trkpt lat="49.77286" lon="2.16744">
        <ele>50</ele>
        <time>2022-05-11T14:40:28Z</time>
      </trkpt>
      <trkpt lat="49.77286" lon="2.16744">
        <ele>50</ele>
        <time>2022-05-11T14:40:29Z</time>
      </trkpt>
      <trkpt lat="49.77285" lon="2.16744">
        <ele>50</ele>
        <time>2022-05-11T14:40:30Z</time>
      </trkpt>
      <trkpt lat="49.77285" lon="2.16744">
        <ele>50</ele>
        <time>2022-05-11T14:40:31Z</time>
      </trkpt>
      <trkpt lat="49.77285" lon="2.16745">
        <ele>50</ele>
        <time>2022-05-11T14:40:32Z</time>
      </trkpt>
      <trkpt lat="49.77285" lon="2.16745">
        <ele>50</ele>
        <time>2022-05-11T14:40:33Z</time>
      </trkpt>
      <trkpt lat="49.77285" lon="2.16745">
        <ele>50</ele>
        <time>2022-05-11T14:40:34Z</time>
      </trkpt>
      <trkpt lat="49.77285" lon="2.16745">
        <ele>50</ele>
        <time>2022-05-11T14:40:35Z</time>
      </trkpt>
      <trkpt lat="49.77282" lon="2.16747">
        <ele>50</ele>
        <time>2022-05-11T14:40:36Z</time>
      </trkpt>
      <trkpt lat="49.77282" lon="2.16748">
        <ele>50</ele>
        <time>2022-05-11T14:40:37Z</time>
      </trkpt>
      <trkpt lat="49.77281" lon="2.16748">
        <ele>50</ele>
        <time>2022-05-11T14:40:38Z</time>
      </trkpt>
      <trkpt lat="49.77281" lon="2.16748">
        <ele>50</ele>
        <time>2022-05-11T14:40:39Z</time>
      </trkpt>
      <trkpt lat="49.77281" lon="2.16747">
        <ele>50</ele>
        <time>2022-05-11T14:40:40Z</time>
      </trkpt>
      <trkpt lat="49.77282" lon="2.16747">
        <ele>50</ele>
        <time>2022-05-11T14:40:41Z</time>
      </trkpt>
      <trkpt lat="49.77281" lon="2.16747">
        <ele>50</ele>
        <time>2022-05-11T14:40:42Z</time>
      </trkpt>
      <trkpt lat="49.77282" lon="2.16745">
        <ele>50</ele>
        <time>2022-05-11T14:40:43Z</time>
      </trkpt>
      <trkpt lat="49.77282" lon="2.16743">
        <ele>50</ele>
        <time>2022-05-11T14:40:44Z</time>
      </trkpt>
      <trkpt lat="49.77281" lon="2.1674">
        <ele>50</ele>
        <time>2022-05-11T14:40:46Z</time>
      </trkpt>
      <trkpt lat="49.77281" lon="2.16738">
        <ele>50</ele>
        <time>2022-05-11T14:40:47Z</time>
      </trkpt>
      <trkpt lat="49.7728" lon="2.16736">
        <ele>50</ele>
        <time>2022-05-11T14:40:48Z</time>
      </trkpt>
      <trkpt lat="49.77278" lon="2.16733">
        <ele>50</ele>
        <time>2022-05-11T14:40:49Z</time>
      </trkpt>
      <trkpt lat="49.77277" lon="2.16732">
        <ele>50</ele>
        <time>2022-05-11T14:40:50Z</time>
      </trkpt>
      <trkpt lat="49.77276" lon="2.16731">
        <ele>50</ele>
        <time>2022-05-11T14:40:51Z</time>
      </trkpt>
      <trkpt lat="49.77275" lon="2.1673">
        <ele>50.2</ele>
        <time>2022-05-11T14:40:53Z</time>
      </trkpt>
      <trkpt lat="49.77274" lon="2.16728">
        <ele>50.2</ele>
        <time>2022-05-11T14:40:54Z</time>
      </trkpt>
      <trkpt lat="49.77271" lon="2.16725">
        <ele>50.5</ele>
        <time>2022-05-11T14:40:55Z</time>
      </trkpt>
      <trkpt lat="49.7727" lon="2.16724">
        <ele>50.5</ele>
        <time>2022-05-11T14:40:56Z</time>
      </trkpt>
      <trkpt lat="49.77268" lon="2.16721">
        <ele>50.7</ele>
        <time>2022-05-11T14:40:57Z</time>
      </trkpt>
      <trkpt lat="49.77268" lon="2.1672">
        <ele>50.7</ele>
        <time>2022-05-11T14:40:58Z</time>
      </trkpt>
      <trkpt lat="49.77266" lon="2.1672">
        <ele>50.6</ele>
        <time>2022-05-11T14:40:59Z</time>
      </trkpt>
      <trkpt lat="49.77265" lon="2.1672">
        <ele>50.7</ele>
        <time>2022-05-11T14:41:00Z</time>
      </trkpt>
      <trkpt lat="49.77265" lon="2.16719">
        <ele>50.6</ele>
        <time>2022-05-11T14:41:01Z</time>
      </trkpt>
      <trkpt lat="49.77263" lon="2.16718">
        <ele>50.6</ele>
        <time>2022-05-11T14:41:03Z</time>
      </trkpt>
      <trkpt lat="49.77261" lon="2.16718">
        <ele>50.3</ele>
        <time>2022-05-11T14:41:04Z</time>
      </trkpt>
      <trkpt lat="49.7726" lon="2.16718">
        <ele>50.4</ele>
        <time>2022-05-11T14:41:05Z</time>
      </trkpt>
      <trkpt lat="49.77258" lon="2.16718">
        <ele>50.1</ele>
        <time>2022-05-11T14:41:06Z</time>
      </trkpt>
      <trkpt lat="49.77257" lon="2.16717">
        <ele>50.1</ele>
        <time>2022-05-11T14:41:07Z</time>
      </trkpt>
      <trkpt lat="49.77256" lon="2.16717">
        <ele>49.7</ele>
        <time>2022-05-11T14:41:09Z</time>
      </trkpt>
      <trkpt lat="49.77255" lon="2.16717">
        <ele>49.8</ele>
        <time>2022-05-11T14:41:10Z</time>
      </trkpt>
      <trkpt lat="49.77254" lon="2.16717">
        <ele>49.8</ele>
        <time>2022-05-11T14:41:11Z</time>
      </trkpt>
      <trkpt lat="49.77253" lon="2.16718">
        <ele>49.4</ele>
        <time>2022-05-11T14:41:12Z</time>
      </trkpt>
      <trkpt lat="49.77252" lon="2.16718">
        <ele>49.8</ele>
        <time>2022-05-11T14:41:13Z</time>
      </trkpt>
      <trkpt lat="49.7725" lon="2.16718">
        <ele>49</ele>
        <time>2022-05-11T14:41:14Z</time>
      </trkpt>
      <trkpt lat="49.77249" lon="2.16718">
        <ele>49</ele>
        <time>2022-05-11T14:41:15Z</time>
      </trkpt>
      <trkpt lat="49.77248" lon="2.16718">
        <ele>49</ele>
        <time>2022-05-11T14:41:16Z</time>
      </trkpt>
      <trkpt lat="49.77247" lon="2.16718">
        <ele>48.6</ele>
        <time>2022-05-11T14:41:17Z</time>
      </trkpt>
      <trkpt lat="49.77245" lon="2.16717">
        <ele>48.6</ele>
        <time>2022-05-11T14:41:19Z</time>
      </trkpt>
      <trkpt lat="49.77244" lon="2.16717">
        <ele>48.1</ele>
        <time>2022-05-11T14:41:20Z</time>
      </trkpt>
      <trkpt lat="49.77243" lon="2.16717">
        <ele>48.2</ele>
        <time>2022-05-11T14:41:21Z</time>
      </trkpt>
      <trkpt lat="49.77242" lon="2.16716">
        <ele>47.8</ele>
        <time>2022-05-11T14:41:22Z</time>
      </trkpt>
      <trkpt lat="49.7724" lon="2.16716">
        <ele>47.8</ele>
        <time>2022-05-11T14:41:23Z</time>
      </trkpt>
      <trkpt lat="49.77239" lon="2.16716">
        <ele>47.4</ele>
        <time>2022-05-11T14:41:24Z</time>
      </trkpt>
      <trkpt lat="49.77238" lon="2.16715">
        <ele>47.4</ele>
        <time>2022-05-11T14:41:25Z</time>
      </trkpt>
      <trkpt lat="49.77236" lon="2.16716">
        <ele>47.1</ele>
        <time>2022-05-11T14:41:26Z</time>
      </trkpt>
      <trkpt lat="49.77235" lon="2.16716">
        <ele>47.1</ele>
        <time>2022-05-11T14:41:27Z</time>
      </trkpt>
      <trkpt lat="49.77233" lon="2.16716">
        <ele>46.8</ele>
        <time>2022-05-11T14:41:28Z</time>
      </trkpt>
      <trkpt lat="49.77231" lon="2.16716">
        <ele>46.5</ele>
        <time>2022-05-11T14:41:30Z</time>
      </trkpt>
      <trkpt lat="49.77228" lon="2.16716">
        <ele>46.3</ele>
        <time>2022-05-11T14:41:31Z</time>
      </trkpt>
      <trkpt lat="49.77227" lon="2.16716">
        <ele>46.3</ele>
        <time>2022-05-11T14:41:32Z</time>
      </trkpt>
      <trkpt lat="49.77225" lon="2.16715">
        <ele>46.2</ele>
        <time>2022-05-11T14:41:34Z</time>
      </trkpt>
      <trkpt lat="49.77224" lon="2.16715">
        <ele>46.2</ele>
        <time>2022-05-11T14:41:35Z</time>
      </trkpt>
      <trkpt lat="49.77223" lon="2.16715">
        <ele>46.1</ele>
        <time>2022-05-11T14:41:36Z</time>
      </trkpt>
      <trkpt lat="49.77222" lon="2.16715">
        <ele>46.1</ele>
        <time>2022-05-11T14:41:37Z</time>
      </trkpt>
      <trkpt lat="49.77222" lon="2.16714">
        <ele>46.1</ele>
        <time>2022-05-11T14:41:38Z</time>
      </trkpt>
      <trkpt lat="49.77221" lon="2.16714">
        <ele>45.9</ele>
        <time>2022-05-11T14:41:39Z</time>
      </trkpt>
      <trkpt lat="49.77219" lon="2.16714">
        <ele>46</ele>
        <time>2022-05-11T14:41:41Z</time>
      </trkpt>
      <trkpt lat="49.77217" lon="2.16714">
        <ele>46</ele>
        <time>2022-05-11T14:41:42Z</time>
      </trkpt>
      <trkpt lat="49.77216" lon="2.16714">
        <ele>46</ele>
        <time>2022-05-11T14:41:43Z</time>
      </trkpt>
      <trkpt lat="49.77216" lon="2.16714">
        <ele>46</ele>
        <time>2022-05-11T14:41:44Z</time>
      </trkpt>
      <trkpt lat="49.77215" lon="2.16715">
        <ele>46.1</ele>
        <time>2022-05-11T14:41:45Z</time>
      </trkpt>
      <trkpt lat="49.77215" lon="2.16715">
        <ele>46.1</ele>
        <time>2022-05-11T14:41:46Z</time>
      </trkpt>
      <trkpt lat="49.77214" lon="2.16715">
        <ele>46.1</ele>
        <time>2022-05-11T14:41:47Z</time>
      </trkpt>
      <trkpt lat="49.77211" lon="2.16715">
        <ele>46.1</ele>
        <time>2022-05-11T14:41:49Z</time>
      </trkpt>
      <trkpt lat="49.77211" lon="2.16714">
        <ele>46.3</ele>
        <time>2022-05-11T14:41:50Z</time>
      </trkpt>
      <trkpt lat="49.7721" lon="2.16713">
        <ele>46.3</ele>
        <time>2022-05-11T14:41:52Z</time>
      </trkpt>
      <trkpt lat="49.77209" lon="2.16712">
        <ele>46.4</ele>
        <time>2022-05-11T14:41:53Z</time>
      </trkpt>
      <trkpt lat="49.77208" lon="2.16711">
        <ele>46.4</ele>
        <time>2022-05-11T14:41:54Z</time>
      </trkpt>
      <trkpt lat="49.77206" lon="2.16709">
        <ele>46.6</ele>
        <time>2022-05-11T14:41:55Z</time>
      </trkpt>
      <trkpt lat="49.77205" lon="2.16709">
        <ele>46.6</ele>
        <time>2022-05-11T14:41:56Z</time>
      </trkpt>
      <trkpt lat="49.77205" lon="2.16709">
        <ele>46.6</ele>
        <time>2022-05-11T14:41:57Z</time>
      </trkpt>
      <trkpt lat="49.77202" lon="2.16708">
        <ele>46.7</ele>
        <time>2022-05-11T14:41:59Z</time>
      </trkpt>
      <trkpt lat="49.77201" lon="2.16708">
        <ele>46.7</ele>
        <time>2022-05-11T14:42:00Z</time>
      </trkpt>
      <trkpt lat="49.77199" lon="2.16707">
        <ele>46.7</ele>
        <time>2022-05-11T14:42:01Z</time>
      </trkpt>
      <trkpt lat="49.77198" lon="2.16707">
        <ele>46.7</ele>
        <time>2022-05-11T14:42:02Z</time>
      </trkpt>
      <trkpt lat="49.77197" lon="2.16707">
        <ele>46.7</ele>
        <time>2022-05-11T14:42:03Z</time>
      </trkpt>
      <trkpt lat="49.77195" lon="2.16707">
        <ele>46.7</ele>
        <time>2022-05-11T14:42:05Z</time>
      </trkpt>
      <trkpt lat="49.77194" lon="2.16708">
        <ele>46.8</ele>
        <time>2022-05-11T14:42:06Z</time>
      </trkpt>
      <trkpt lat="49.77192" lon="2.16708">
        <ele>46.8</ele>
        <time>2022-05-11T14:42:07Z</time>
      </trkpt>
      <trkpt lat="49.77191" lon="2.16708">
        <ele>46.8</ele>
        <time>2022-05-11T14:42:08Z</time>
      </trkpt>
      <trkpt lat="49.7719" lon="2.16707">
        <ele>46.8</ele>
        <time>2022-05-11T14:42:09Z</time>
      </trkpt>
      <trkpt lat="49.77189" lon="2.16707">
        <ele>46.8</ele>
        <time>2022-05-11T14:42:10Z</time>
      </trkpt>
      <trkpt lat="49.77187" lon="2.16706">
        <ele>46.8</ele>
        <time>2022-05-11T14:42:12Z</time>
      </trkpt>
      <trkpt lat="49.77186" lon="2.16706">
        <ele>46.8</ele>
        <time>2022-05-11T14:42:13Z</time>
      </trkpt>
      <trkpt lat="49.77185" lon="2.16705">
        <ele>46.6</ele>
        <time>2022-05-11T14:42:14Z</time>
      </trkpt>
      <trkpt lat="49.77183" lon="2.16705">
        <ele>46.6</ele>
        <time>2022-05-11T14:42:15Z</time>
      </trkpt>
      <trkpt lat="49.77181" lon="2.16705">
        <ele>46.6</ele>
        <time>2022-05-11T14:42:16Z</time>
      </trkpt>
      <trkpt lat="49.7718" lon="2.16704">
        <ele>46.6</ele>
        <time>2022-05-11T14:42:17Z</time>
      </trkpt>
      <trkpt lat="49.77179" lon="2.16704">
        <ele>46.6</ele>
        <time>2022-05-11T14:42:18Z</time>
      </trkpt>
      <trkpt lat="49.77177" lon="2.16704">
        <ele>46.6</ele>
        <time>2022-05-11T14:42:19Z</time>
      </trkpt>
      <trkpt lat="49.77176" lon="2.16703">
        <ele>46.5</ele>
        <time>2022-05-11T14:42:20Z</time>
      </trkpt>
      <trkpt lat="49.77174" lon="2.16703">
        <ele>46.5</ele>
        <time>2022-05-11T14:42:22Z</time>
      </trkpt>
      <trkpt lat="49.77173" lon="2.16703">
        <ele>46.5</ele>
        <time>2022-05-11T14:42:23Z</time>
      </trkpt>
      <trkpt lat="49.77172" lon="2.16702">
        <ele>46.5</ele>
        <time>2022-05-11T14:42:24Z</time>
      </trkpt>
      <trkpt lat="49.7717" lon="2.16702">
        <ele>46.6</ele>
        <time>2022-05-11T14:42:25Z</time>
      </trkpt>
      <trkpt lat="49.77171" lon="2.16702">
        <ele>46.6</ele>
        <time>2022-05-11T14:42:26Z</time>
      </trkpt>
      <trkpt lat="49.7717" lon="2.16702">
        <ele>46.6</ele>
        <time>2022-05-11T14:42:27Z</time>
      </trkpt>
      <trkpt lat="49.77168" lon="2.16702">
        <ele>46.6</ele>
        <time>2022-05-11T14:42:28Z</time>
      </trkpt>
      <trkpt lat="49.77167" lon="2.16702">
        <ele>46.6</ele>
        <time>2022-05-11T14:42:29Z</time>
      </trkpt>
      <trkpt lat="49.77166" lon="2.16702">
        <ele>46.6</ele>
        <time>2022-05-11T14:42:30Z</time>
      </trkpt>
      <trkpt lat="49.77164" lon="2.16702">
        <ele>46.6</ele>
        <time>2022-05-11T14:42:31Z</time>
      </trkpt>
      <trkpt lat="49.77163" lon="2.16702">
        <ele>46.6</ele>
        <time>2022-05-11T14:42:33Z</time>
      </trkpt>
      <trkpt lat="49.77162" lon="2.16702">
        <ele>46.7</ele>
        <time>2022-05-11T14:42:34Z</time>
      </trkpt>
      <trkpt lat="49.77161" lon="2.16701">
        <ele>46.6</ele>
        <time>2022-05-11T14:42:35Z</time>
      </trkpt>
      <trkpt lat="49.7716" lon="2.16701">
        <ele>46.6</ele>
        <time>2022-05-11T14:42:36Z</time>
      </trkpt>
      <trkpt lat="49.77158" lon="2.167">
        <ele>46.7</ele>
        <time>2022-05-11T14:42:37Z</time>
      </trkpt>
      <trkpt lat="49.77158" lon="2.167">
        <ele>46.7</ele>
        <time>2022-05-11T14:42:38Z</time>
      </trkpt>
      <trkpt lat="49.77157" lon="2.167">
        <ele>46.7</ele>
        <time>2022-05-11T14:42:39Z</time>
      </trkpt>
      <trkpt lat="49.77156" lon="2.167">
        <ele>46.8</ele>
        <time>2022-05-11T14:42:41Z</time>
      </trkpt>
      <trkpt lat="49.77154" lon="2.167">
        <ele>46.8</ele>
        <time>2022-05-11T14:42:42Z</time>
      </trkpt>
      <trkpt lat="49.77153" lon="2.167">
        <ele>46.9</ele>
        <time>2022-05-11T14:42:43Z</time>
      </trkpt>
      <trkpt lat="49.77152" lon="2.167">
        <ele>46.9</ele>
        <time>2022-05-11T14:42:44Z</time>
      </trkpt>
      <trkpt lat="49.77151" lon="2.167">
        <ele>47</ele>
        <time>2022-05-11T14:42:45Z</time>
      </trkpt>
      <trkpt lat="49.7715" lon="2.167">
        <ele>47.1</ele>
        <time>2022-05-11T14:42:46Z</time>
      </trkpt>
      <trkpt lat="49.77148" lon="2.16699">
        <ele>47.2</ele>
        <time>2022-05-11T14:42:47Z</time>
      </trkpt>
      <trkpt lat="49.77147" lon="2.16699">
        <ele>47.2</ele>
        <time>2022-05-11T14:42:48Z</time>
      </trkpt>
      <trkpt lat="49.77146" lon="2.16698">
        <ele>47.2</ele>
        <time>2022-05-11T14:42:49Z</time>
      </trkpt>
      <trkpt lat="49.77145" lon="2.16698">
        <ele>47.4</ele>
        <time>2022-05-11T14:42:50Z</time>
      </trkpt>
      <trkpt lat="49.77144" lon="2.16698">
        <ele>47.4</ele>
        <time>2022-05-11T14:42:51Z</time>
      </trkpt>
      <trkpt lat="49.77143" lon="2.16698">
        <ele>47.4</ele>
        <time>2022-05-11T14:42:52Z</time>
      </trkpt>
      <trkpt lat="49.77142" lon="2.16697">
        <ele>47.6</ele>
        <time>2022-05-11T14:42:53Z</time>
      </trkpt>
      <trkpt lat="49.77141" lon="2.16697">
        <ele>47.6</ele>
        <time>2022-05-11T14:42:54Z</time>
      </trkpt>
      <trkpt lat="49.7714" lon="2.16697">
        <ele>47.6</ele>
        <time>2022-05-11T14:42:55Z</time>
      </trkpt>
      <trkpt lat="49.77138" lon="2.16696">
        <ele>47.6</ele>
        <time>2022-05-11T14:42:56Z</time>
      </trkpt>
      <trkpt lat="49.77136" lon="2.16696">
        <ele>47.7</ele>
        <time>2022-05-11T14:42:57Z</time>
      </trkpt>
      <trkpt lat="49.77135" lon="2.16696">
        <ele>47.7</ele>
        <time>2022-05-11T14:42:58Z</time>
      </trkpt>
      <trkpt lat="49.77133" lon="2.16695">
        <ele>47.9</ele>
        <time>2022-05-11T14:43:00Z</time>
      </trkpt>
      <trkpt lat="49.77132" lon="2.16695">
        <ele>47.9</ele>
        <time>2022-05-11T14:43:01Z</time>
      </trkpt>
      <trkpt lat="49.7713" lon="2.16694">
        <ele>48</ele>
        <time>2022-05-11T14:43:02Z</time>
      </trkpt>
      <trkpt lat="49.77129" lon="2.16694">
        <ele>48</ele>
        <time>2022-05-11T14:43:03Z</time>
      </trkpt>
      <trkpt lat="49.77127" lon="2.16694">
        <ele>48.1</ele>
        <time>2022-05-11T14:43:04Z</time>
      </trkpt>
      <trkpt lat="49.77126" lon="2.16694">
        <ele>48.1</ele>
        <time>2022-05-11T14:43:05Z</time>
      </trkpt>
      <trkpt lat="49.77125" lon="2.16694">
        <ele>48.1</ele>
        <time>2022-05-11T14:43:06Z</time>
      </trkpt>
      <trkpt lat="49.77124" lon="2.16694">
        <ele>48.1</ele>
        <time>2022-05-11T14:43:07Z</time>
      </trkpt>
      <trkpt lat="49.77123" lon="2.16693">
        <ele>48.2</ele>
        <time>2022-05-11T14:43:08Z</time>
      </trkpt>
      <trkpt lat="49.77122" lon="2.16693">
        <ele>48.2</ele>
        <time>2022-05-11T14:43:09Z</time>
      </trkpt>
      <trkpt lat="49.7712" lon="2.16693">
        <ele>48.2</ele>
        <time>2022-05-11T14:43:10Z</time>
      </trkpt>
      <trkpt lat="49.77119" lon="2.16693">
        <ele>48.2</ele>
        <time>2022-05-11T14:43:11Z</time>
      </trkpt>
      <trkpt lat="49.77117" lon="2.16692">
        <ele>48</ele>
        <time>2022-05-11T14:43:12Z</time>
      </trkpt>
      <trkpt lat="49.77116" lon="2.16692">
        <ele>48</ele>
        <time>2022-05-11T14:43:13Z</time>
      </trkpt>
      <trkpt lat="49.77115" lon="2.16692">
        <ele>48.1</ele>
        <time>2022-05-11T14:43:14Z</time>
      </trkpt>
      <trkpt lat="49.77113" lon="2.16692">
        <ele>48.1</ele>
        <time>2022-05-11T14:43:16Z</time>
      </trkpt>
      <trkpt lat="49.77112" lon="2.16691">
        <ele>48</ele>
        <time>2022-05-11T14:43:17Z</time>
      </trkpt>
      <trkpt lat="49.77111" lon="2.16691">
        <ele>48.1</ele>
        <time>2022-05-11T14:43:18Z</time>
      </trkpt>
      <trkpt lat="49.7711" lon="2.16691">
        <ele>48.1</ele>
        <time>2022-05-11T14:43:19Z</time>
      </trkpt>
      <trkpt lat="49.77108" lon="2.16691">
        <ele>48.1</ele>
        <time>2022-05-11T14:43:20Z</time>
      </trkpt>
      <trkpt lat="49.77107" lon="2.16691">
        <ele>48.1</ele>
        <time>2022-05-11T14:43:21Z</time>
      </trkpt>
      <trkpt lat="49.77105" lon="2.1669">
        <ele>48</ele>
        <time>2022-05-11T14:43:22Z</time>
      </trkpt>
      <trkpt lat="49.77104" lon="2.1669">
        <ele>48.1</ele>
        <time>2022-05-11T14:43:23Z</time>
      </trkpt>
      <trkpt lat="49.77103" lon="2.16689">
        <ele>48</ele>
        <time>2022-05-11T14:43:24Z</time>
      </trkpt>
      <trkpt lat="49.77103" lon="2.16689">
        <ele>48.1</ele>
        <time>2022-05-11T14:43:25Z</time>
      </trkpt>
      <trkpt lat="49.77101" lon="2.16688">
        <ele>47.9</ele>
        <time>2022-05-11T14:43:26Z</time>
      </trkpt>
      <trkpt lat="49.771" lon="2.16688">
        <ele>47.9</ele>
        <time>2022-05-11T14:43:28Z</time>
      </trkpt>
      <trkpt lat="49.77098" lon="2.16687">
        <ele>48</ele>
        <time>2022-05-11T14:43:29Z</time>
      </trkpt>
      <trkpt lat="49.77097" lon="2.16687">
        <ele>48</ele>
        <time>2022-05-11T14:43:30Z</time>
      </trkpt>
      <trkpt lat="49.77096" lon="2.16687">
        <ele>48</ele>
        <time>2022-05-11T14:43:31Z</time>
      </trkpt>
      <trkpt lat="49.77094" lon="2.16686">
        <ele>48</ele>
        <time>2022-05-11T14:43:32Z</time>
      </trkpt>
      <trkpt lat="49.77094" lon="2.16686">
        <ele>48</ele>
        <time>2022-05-11T14:43:33Z</time>
      </trkpt>
      <trkpt lat="49.77093" lon="2.16686">
        <ele>48</ele>
        <time>2022-05-11T14:43:34Z</time>
      </trkpt>
      <trkpt lat="49.77091" lon="2.16686">
        <ele>48</ele>
        <time>2022-05-11T14:43:35Z</time>
      </trkpt>
      <trkpt lat="49.7709" lon="2.16685">
        <ele>48</ele>
        <time>2022-05-11T14:43:36Z</time>
      </trkpt>
      <trkpt lat="49.77089" lon="2.16685">
        <ele>48.1</ele>
        <time>2022-05-11T14:43:37Z</time>
      </trkpt>
      <trkpt lat="49.77087" lon="2.16684">
        <ele>48.1</ele>
        <time>2022-05-11T14:43:38Z</time>
      </trkpt>
      <trkpt lat="49.77086" lon="2.16684">
        <ele>48.1</ele>
        <time>2022-05-11T14:43:40Z</time>
      </trkpt>
      <trkpt lat="49.77084" lon="2.16683">
        <ele>48.1</ele>
        <time>2022-05-11T14:43:41Z</time>
      </trkpt>
      <trkpt lat="49.77083" lon="2.16683">
        <ele>48.1</ele>
        <time>2022-05-11T14:43:42Z</time>
      </trkpt>
      <trkpt lat="49.77082" lon="2.16683">
        <ele>48.1</ele>
        <time>2022-05-11T14:43:43Z</time>
      </trkpt>
      <trkpt lat="49.77081" lon="2.16682">
        <ele>48.1</ele>
        <time>2022-05-11T14:43:44Z</time>
      </trkpt>
      <trkpt lat="49.7708" lon="2.16681">
        <ele>48.2</ele>
        <time>2022-05-11T14:43:45Z</time>
      </trkpt>
      <trkpt lat="49.77079" lon="2.16681">
        <ele>48.2</ele>
        <time>2022-05-11T14:43:46Z</time>
      </trkpt>
      <trkpt lat="49.77077" lon="2.16681">
        <ele>48.2</ele>
        <time>2022-05-11T14:43:47Z</time>
      </trkpt>
      <trkpt lat="49.77077" lon="2.1668">
        <ele>48.2</ele>
        <time>2022-05-11T14:43:48Z</time>
      </trkpt>
      <trkpt lat="49.77076" lon="2.1668">
        <ele>48.2</ele>
        <time>2022-05-11T14:43:49Z</time>
      </trkpt>
      <trkpt lat="49.77075" lon="2.16679">
        <ele>48.2</ele>
        <time>2022-05-11T14:43:50Z</time>
      </trkpt>
      <trkpt lat="49.77074" lon="2.16679">
        <ele>48.3</ele>
        <time>2022-05-11T14:43:51Z</time>
      </trkpt>
      <trkpt lat="49.77072" lon="2.16678">
        <ele>48.3</ele>
        <time>2022-05-11T14:43:53Z</time>
      </trkpt>
      <trkpt lat="49.77071" lon="2.16677">
        <ele>48.3</ele>
        <time>2022-05-11T14:43:54Z</time>
      </trkpt>
      <trkpt lat="49.7707" lon="2.16677">
        <ele>48.3</ele>
        <time>2022-05-11T14:43:55Z</time>
      </trkpt>
      <trkpt lat="49.77068" lon="2.16676">
        <ele>48.3</ele>
        <time>2022-05-11T14:43:56Z</time>
      </trkpt>
      <trkpt lat="49.77068" lon="2.16675">
        <ele>48.4</ele>
        <time>2022-05-11T14:43:57Z</time>
      </trkpt>
      <trkpt lat="49.77066" lon="2.16675">
        <ele>48.3</ele>
        <time>2022-05-11T14:43:58Z</time>
      </trkpt>
      <trkpt lat="49.77064" lon="2.16673">
        <ele>48.4</ele>
        <time>2022-05-11T14:43:59Z</time>
      </trkpt>
      <trkpt lat="49.77064" lon="2.16672">
        <ele>48.4</ele>
        <time>2022-05-11T14:44:00Z</time>
      </trkpt>
      <trkpt lat="49.77063" lon="2.16672">
        <ele>48.4</ele>
        <time>2022-05-11T14:44:01Z</time>
      </trkpt>
      <trkpt lat="49.77062" lon="2.16671">
        <ele>48.4</ele>
        <time>2022-05-11T14:44:02Z</time>
      </trkpt>
      <trkpt lat="49.77061" lon="2.16669">
        <ele>48.4</ele>
        <time>2022-05-11T14:44:04Z</time>
      </trkpt>
      <trkpt lat="49.7706" lon="2.16668">
        <ele>48.4</ele>
        <time>2022-05-11T14:44:05Z</time>
      </trkpt>
      <trkpt lat="49.77059" lon="2.16667">
        <ele>48.5</ele>
        <time>2022-05-11T14:44:06Z</time>
      </trkpt>
      <trkpt lat="49.77058" lon="2.16666">
        <ele>48.4</ele>
        <time>2022-05-11T14:44:07Z</time>
      </trkpt>
      <trkpt lat="49.77056" lon="2.16664">
        <ele>48.5</ele>
        <time>2022-05-11T14:44:08Z</time>
      </trkpt>
      <trkpt lat="49.77056" lon="2.16663">
        <ele>48.5</ele>
        <time>2022-05-11T14:44:10Z</time>
      </trkpt>
      <trkpt lat="49.77055" lon="2.16663">
        <ele>48.5</ele>
        <time>2022-05-11T14:44:11Z</time>
      </trkpt>
      <trkpt lat="49.77053" lon="2.16661">
        <ele>48.5</ele>
        <time>2022-05-11T14:44:12Z</time>
      </trkpt>
      <trkpt lat="49.77052" lon="2.16661">
        <ele>48.5</ele>
        <time>2022-05-11T14:44:13Z</time>
      </trkpt>
      <trkpt lat="49.77052" lon="2.1666">
        <ele>48.5</ele>
        <time>2022-05-11T14:44:14Z</time>
      </trkpt>
      <trkpt lat="49.77051" lon="2.1666">
        <ele>48.5</ele>
        <time>2022-05-11T14:44:15Z</time>
      </trkpt>
      <trkpt lat="49.7705" lon="2.16659">
        <ele>48.5</ele>
        <time>2022-05-11T14:44:16Z</time>
      </trkpt>
      <trkpt lat="49.77049" lon="2.16659">
        <ele>48.6</ele>
        <time>2022-05-11T14:44:17Z</time>
      </trkpt>
      <trkpt lat="49.77048" lon="2.16658">
        <ele>48.6</ele>
        <time>2022-05-11T14:44:18Z</time>
      </trkpt>
      <trkpt lat="49.77047" lon="2.16657">
        <ele>48.6</ele>
        <time>2022-05-11T14:44:19Z</time>
      </trkpt>
      <trkpt lat="49.77046" lon="2.16657">
        <ele>48.6</ele>
        <time>2022-05-11T14:44:20Z</time>
      </trkpt>
      <trkpt lat="49.77045" lon="2.16656">
        <ele>48.6</ele>
        <time>2022-05-11T14:44:21Z</time>
      </trkpt>
      <trkpt lat="49.77045" lon="2.16655">
        <ele>48.6</ele>
        <time>2022-05-11T14:44:22Z</time>
      </trkpt>
      <trkpt lat="49.77044" lon="2.16654">
        <ele>48.6</ele>
        <time>2022-05-11T14:44:23Z</time>
      </trkpt>
      <trkpt lat="49.77042" lon="2.16653">
        <ele>48.6</ele>
        <time>2022-05-11T14:44:24Z</time>
      </trkpt>
      <trkpt lat="49.77041" lon="2.16653">
        <ele>48.7</ele>
        <time>2022-05-11T14:44:25Z</time>
      </trkpt>
      <trkpt lat="49.7704" lon="2.16652">
        <ele>48.7</ele>
        <time>2022-05-11T14:44:27Z</time>
      </trkpt>
      <trkpt lat="49.77039" lon="2.16651">
        <ele>48.7</ele>
        <time>2022-05-11T14:44:28Z</time>
      </trkpt>
      <trkpt lat="49.77038" lon="2.16651">
        <ele>48.7</ele>
        <time>2022-05-11T14:44:29Z</time>
      </trkpt>
      <trkpt lat="49.77037" lon="2.1665">
        <ele>48.7</ele>
        <time>2022-05-11T14:44:30Z</time>
      </trkpt>
      <trkpt lat="49.77036" lon="2.16649">
        <ele>48.7</ele>
        <time>2022-05-11T14:44:31Z</time>
      </trkpt>
      <trkpt lat="49.77034" lon="2.16648">
        <ele>48.8</ele>
        <time>2022-05-11T14:44:32Z</time>
      </trkpt>
      <trkpt lat="49.77032" lon="2.16647">
        <ele>48.8</ele>
        <time>2022-05-11T14:44:33Z</time>
      </trkpt>
      <trkpt lat="49.77031" lon="2.16646">
        <ele>48.8</ele>
        <time>2022-05-11T14:44:34Z</time>
      </trkpt>
      <trkpt lat="49.77031" lon="2.16645">
        <ele>48.8</ele>
        <time>2022-05-11T14:44:35Z</time>
      </trkpt>
      <trkpt lat="49.77029" lon="2.16645">
        <ele>48.9</ele>
        <time>2022-05-11T14:44:37Z</time>
      </trkpt>
      <trkpt lat="49.77028" lon="2.16644">
        <ele>48.9</ele>
        <time>2022-05-11T14:44:38Z</time>
      </trkpt>
      <trkpt lat="49.77028" lon="2.16644">
        <ele>48.9</ele>
        <time>2022-05-11T14:44:39Z</time>
      </trkpt>
      <trkpt lat="49.77027" lon="2.16643">
        <ele>48.9</ele>
        <time>2022-05-11T14:44:40Z</time>
      </trkpt>
      <trkpt lat="49.77026" lon="2.16643">
        <ele>49</ele>
        <time>2022-05-11T14:44:41Z</time>
      </trkpt>
      <trkpt lat="49.77025" lon="2.16642">
        <ele>49</ele>
        <time>2022-05-11T14:44:42Z</time>
      </trkpt>
      <trkpt lat="49.77024" lon="2.16641">
        <ele>49</ele>
        <time>2022-05-11T14:44:43Z</time>
      </trkpt>
      <trkpt lat="49.77023" lon="2.1664">
        <ele>49</ele>
        <time>2022-05-11T14:44:44Z</time>
      </trkpt>
      <trkpt lat="49.77022" lon="2.1664">
        <ele>49</ele>
        <time>2022-05-11T14:44:45Z</time>
      </trkpt>
      <trkpt lat="49.7702" lon="2.16639">
        <ele>49</ele>
        <time>2022-05-11T14:44:47Z</time>
      </trkpt>
      <trkpt lat="49.77018" lon="2.16639">
        <ele>49.1</ele>
        <time>2022-05-11T14:44:48Z</time>
      </trkpt>
      <trkpt lat="49.77017" lon="2.16639">
        <ele>49.1</ele>
        <time>2022-05-11T14:44:49Z</time>
      </trkpt>
      <trkpt lat="49.77015" lon="2.16638">
        <ele>49.1</ele>
        <time>2022-05-11T14:44:50Z</time>
      </trkpt>
      <trkpt lat="49.77014" lon="2.16637">
        <ele>49.1</ele>
        <time>2022-05-11T14:44:51Z</time>
      </trkpt>
      <trkpt lat="49.77013" lon="2.16637">
        <ele>49.1</ele>
        <time>2022-05-11T14:44:52Z</time>
      </trkpt>
      <trkpt lat="49.77012" lon="2.16636">
        <ele>49.1</ele>
        <time>2022-05-11T14:44:53Z</time>
      </trkpt>
      <trkpt lat="49.77011" lon="2.16636">
        <ele>49.1</ele>
        <time>2022-05-11T14:44:54Z</time>
      </trkpt>
      <trkpt lat="49.77009" lon="2.16635">
        <ele>49.1</ele>
        <time>2022-05-11T14:44:56Z</time>
      </trkpt>
      <trkpt lat="49.77008" lon="2.16634">
        <ele>49.1</ele>
        <time>2022-05-11T14:44:57Z</time>
      </trkpt>
      <trkpt lat="49.77007" lon="2.16634">
        <ele>49.1</ele>
        <time>2022-05-11T14:44:58Z</time>
      </trkpt>
      <trkpt lat="49.77005" lon="2.16633">
        <ele>49.1</ele>
        <time>2022-05-11T14:44:59Z</time>
      </trkpt>
      <trkpt lat="49.77004" lon="2.16632">
        <ele>49.1</ele>
        <time>2022-05-11T14:45:00Z</time>
      </trkpt>
      <trkpt lat="49.77002" lon="2.16632">
        <ele>49.1</ele>
        <time>2022-05-11T14:45:01Z</time>
      </trkpt>
      <trkpt lat="49.77001" lon="2.16631">
        <ele>49.1</ele>
        <time>2022-05-11T14:45:02Z</time>
      </trkpt>
      <trkpt lat="49.77" lon="2.1663">
        <ele>49.1</ele>
        <time>2022-05-11T14:45:04Z</time>
      </trkpt>
      <trkpt lat="49.76998" lon="2.16628">
        <ele>49.1</ele>
        <time>2022-05-11T14:45:05Z</time>
      </trkpt>
      <trkpt lat="49.76996" lon="2.16627">
        <ele>49.1</ele>
        <time>2022-05-11T14:45:06Z</time>
      </trkpt>
      <trkpt lat="49.76995" lon="2.16626">
        <ele>49.1</ele>
        <time>2022-05-11T14:45:07Z</time>
      </trkpt>
      <trkpt lat="49.76993" lon="2.16625">
        <ele>49.2</ele>
        <time>2022-05-11T14:45:08Z</time>
      </trkpt>
      <trkpt lat="49.76992" lon="2.16624">
        <ele>49.2</ele>
        <time>2022-05-11T14:45:09Z</time>
      </trkpt>
      <trkpt lat="49.76992" lon="2.16623">
        <ele>49.2</ele>
        <time>2022-05-11T14:45:10Z</time>
      </trkpt>
      <trkpt lat="49.76991" lon="2.16623">
        <ele>49.2</ele>
        <time>2022-05-11T14:45:11Z</time>
      </trkpt>
      <trkpt lat="49.7699" lon="2.16622">
        <ele>49.2</ele>
        <time>2022-05-11T14:45:13Z</time>
      </trkpt>
      <trkpt lat="49.76989" lon="2.16621">
        <ele>49.3</ele>
        <time>2022-05-11T14:45:14Z</time>
      </trkpt>
      <trkpt lat="49.76987" lon="2.1662">
        <ele>49.3</ele>
        <time>2022-05-11T14:45:15Z</time>
      </trkpt>
      <trkpt lat="49.76986" lon="2.1662">
        <ele>49.3</ele>
        <time>2022-05-11T14:45:16Z</time>
      </trkpt>
      <trkpt lat="49.76985" lon="2.16619">
        <ele>49.3</ele>
        <time>2022-05-11T14:45:17Z</time>
      </trkpt>
      <trkpt lat="49.76983" lon="2.16617">
        <ele>49.4</ele>
        <time>2022-05-11T14:45:18Z</time>
      </trkpt>
      <trkpt lat="49.76983" lon="2.16617">
        <ele>49.4</ele>
        <time>2022-05-11T14:45:19Z</time>
      </trkpt>
      <trkpt lat="49.76982" lon="2.16616">
        <ele>49.5</ele>
        <time>2022-05-11T14:45:20Z</time>
      </trkpt>
      <trkpt lat="49.7698" lon="2.16615">
        <ele>49.4</ele>
        <time>2022-05-11T14:45:22Z</time>
      </trkpt>
      <trkpt lat="49.76979" lon="2.16613">
        <ele>49.5</ele>
        <time>2022-05-11T14:45:23Z</time>
      </trkpt>
      <trkpt lat="49.76978" lon="2.16612">
        <ele>49.5</ele>
        <time>2022-05-11T14:45:24Z</time>
      </trkpt>
      <trkpt lat="49.76978" lon="2.16611">
        <ele>49.5</ele>
        <time>2022-05-11T14:45:26Z</time>
      </trkpt>
      <trkpt lat="49.76977" lon="2.1661">
        <ele>49.5</ele>
        <time>2022-05-11T14:45:27Z</time>
      </trkpt>
      <trkpt lat="49.76976" lon="2.16609">
        <ele>49.5</ele>
        <time>2022-05-11T14:45:29Z</time>
      </trkpt>
      <trkpt lat="49.76975" lon="2.16609">
        <ele>49.6</ele>
        <time>2022-05-11T14:45:30Z</time>
      </trkpt>
      <trkpt lat="49.76974" lon="2.16608">
        <ele>49.6</ele>
        <time>2022-05-11T14:45:31Z</time>
      </trkpt>
      <trkpt lat="49.76973" lon="2.16608">
        <ele>49.6</ele>
        <time>2022-05-11T14:45:32Z</time>
      </trkpt>
      <trkpt lat="49.76972" lon="2.16607">
        <ele>49.7</ele>
        <time>2022-05-11T14:45:33Z</time>
      </trkpt>
      <trkpt lat="49.7697" lon="2.16606">
        <ele>49.6</ele>
        <time>2022-05-11T14:45:34Z</time>
      </trkpt>
      <trkpt lat="49.76969" lon="2.16606">
        <ele>49.6</ele>
        <time>2022-05-11T14:45:35Z</time>
      </trkpt>
      <trkpt lat="49.76968" lon="2.16605">
        <ele>49.7</ele>
        <time>2022-05-11T14:45:37Z</time>
      </trkpt>
      <trkpt lat="49.76967" lon="2.16604">
        <ele>49.7</ele>
        <time>2022-05-11T14:45:38Z</time>
      </trkpt>
      <trkpt lat="49.76965" lon="2.16604">
        <ele>49.7</ele>
        <time>2022-05-11T14:45:39Z</time>
      </trkpt>
      <trkpt lat="49.76964" lon="2.16603">
        <ele>49.8</ele>
        <time>2022-05-11T14:45:40Z</time>
      </trkpt>
      <trkpt lat="49.76963" lon="2.16602">
        <ele>49.6</ele>
        <time>2022-05-11T14:45:41Z</time>
      </trkpt>
      <trkpt lat="49.76961" lon="2.16601">
        <ele>49.7</ele>
        <time>2022-05-11T14:45:42Z</time>
      </trkpt>
      <trkpt lat="49.7696" lon="2.166">
        <ele>49.7</ele>
        <time>2022-05-11T14:45:43Z</time>
      </trkpt>
      <trkpt lat="49.76959" lon="2.16599">
        <ele>49.9</ele>
        <time>2022-05-11T14:45:44Z</time>
      </trkpt>
      <trkpt lat="49.76958" lon="2.16599">
        <ele>49.9</ele>
        <time>2022-05-11T14:45:45Z</time>
      </trkpt>
      <trkpt lat="49.76956" lon="2.16598">
        <ele>49.9</ele>
        <time>2022-05-11T14:45:47Z</time>
      </trkpt>
      <trkpt lat="49.76955" lon="2.16597">
        <ele>49.9</ele>
        <time>2022-05-11T14:45:49Z</time>
      </trkpt>
      <trkpt lat="49.76953" lon="2.16596">
        <ele>50.2</ele>
        <time>2022-05-11T14:45:50Z</time>
      </trkpt>
      <trkpt lat="49.76952" lon="2.16596">
        <ele>50.2</ele>
        <time>2022-05-11T14:45:51Z</time>
      </trkpt>
      <trkpt lat="49.76951" lon="2.16596">
        <ele>50.5</ele>
        <time>2022-05-11T14:45:52Z</time>
      </trkpt>
      <trkpt lat="49.7695" lon="2.16595">
        <ele>50.5</ele>
        <time>2022-05-11T14:45:53Z</time>
      </trkpt>
      <trkpt lat="49.76949" lon="2.16595">
        <ele>50.5</ele>
        <time>2022-05-11T14:45:54Z</time>
      </trkpt>
      <trkpt lat="49.76948" lon="2.16594">
        <ele>50.8</ele>
        <time>2022-05-11T14:45:55Z</time>
      </trkpt>
      <trkpt lat="49.76947" lon="2.16593">
        <ele>50.8</ele>
        <time>2022-05-11T14:45:56Z</time>
      </trkpt>
      <trkpt lat="49.76946" lon="2.16592">
        <ele>50.8</ele>
        <time>2022-05-11T14:45:57Z</time>
      </trkpt>
      <trkpt lat="49.76946" lon="2.1659">
        <ele>50.8</ele>
        <time>2022-05-11T14:45:58Z</time>
      </trkpt>
      <trkpt lat="49.76946" lon="2.16589">
        <ele>50.8</ele>
        <time>2022-05-11T14:45:59Z</time>
      </trkpt>
      <trkpt lat="49.76946" lon="2.16588">
        <ele>50.8</ele>
        <time>2022-05-11T14:46:00Z</time>
      </trkpt>
      <trkpt lat="49.76948" lon="2.16587">
        <ele>50.8</ele>
        <time>2022-05-11T14:46:01Z</time>
      </trkpt>
      <trkpt lat="49.76948" lon="2.16586">
        <ele>50.9</ele>
        <time>2022-05-11T14:46:02Z</time>
      </trkpt>
      <trkpt lat="49.76947" lon="2.16584">
        <ele>50.9</ele>
        <time>2022-05-11T14:46:03Z</time>
      </trkpt>
      <trkpt lat="49.76947" lon="2.16583">
        <ele>50.9</ele>
        <time>2022-05-11T14:46:04Z</time>
      </trkpt>
      <trkpt lat="49.76947" lon="2.16581">
        <ele>50.9</ele>
        <time>2022-05-11T14:46:05Z</time>
      </trkpt>
      <trkpt lat="49.76947" lon="2.16579">
        <ele>50.9</ele>
        <time>2022-05-11T14:46:06Z</time>
      </trkpt>
      <trkpt lat="49.76946" lon="2.16578">
        <ele>50.9</ele>
        <time>2022-05-11T14:46:07Z</time>
      </trkpt>
      <trkpt lat="49.76946" lon="2.16576">
        <ele>50.9</ele>
        <time>2022-05-11T14:46:09Z</time>
      </trkpt>
      <trkpt lat="49.76946" lon="2.16574">
        <ele>50.9</ele>
        <time>2022-05-11T14:46:10Z</time>
      </trkpt>
      <trkpt lat="49.76947" lon="2.16572">
        <ele>50.9</ele>
        <time>2022-05-11T14:46:11Z</time>
      </trkpt>
      <trkpt lat="49.76948" lon="2.1657">
        <ele>50.9</ele>
        <time>2022-05-11T14:46:12Z</time>
      </trkpt>
      <trkpt lat="49.76949" lon="2.16568">
        <ele>50.9</ele>
        <time>2022-05-11T14:46:13Z</time>
      </trkpt>
      <trkpt lat="49.76949" lon="2.16567">
        <ele>50.8</ele>
        <time>2022-05-11T14:46:14Z</time>
      </trkpt>
      <trkpt lat="49.7695" lon="2.16565">
        <ele>50.8</ele>
        <time>2022-05-11T14:46:15Z</time>
      </trkpt>
      <trkpt lat="49.7695" lon="2.16563">
        <ele>50.8</ele>
        <time>2022-05-11T14:46:16Z</time>
      </trkpt>
      <trkpt lat="49.76951" lon="2.16561">
        <ele>50.8</ele>
        <time>2022-05-11T14:46:17Z</time>
      </trkpt>
      <trkpt lat="49.76951" lon="2.16559">
        <ele>50.8</ele>
        <time>2022-05-11T14:46:18Z</time>
      </trkpt>
      <trkpt lat="49.76952" lon="2.16556">
        <ele>50.8</ele>
        <time>2022-05-11T14:46:20Z</time>
      </trkpt>
      <trkpt lat="49.76953" lon="2.16553">
        <ele>50.8</ele>
        <time>2022-05-11T14:46:21Z</time>
      </trkpt>
      <trkpt lat="49.76953" lon="2.16551">
        <ele>50.8</ele>
        <time>2022-05-11T14:46:22Z</time>
      </trkpt>
      <trkpt lat="49.76954" lon="2.16547">
        <ele>50.8</ele>
        <time>2022-05-11T14:46:23Z</time>
      </trkpt>
      <trkpt lat="49.76954" lon="2.16545">
        <ele>50.8</ele>
        <time>2022-05-11T14:46:24Z</time>
      </trkpt>
      <trkpt lat="49.76955" lon="2.16541">
        <ele>50.7</ele>
        <time>2022-05-11T14:46:25Z</time>
      </trkpt>
      <trkpt lat="49.76956" lon="2.16539">
        <ele>50.7</ele>
        <time>2022-05-11T14:46:26Z</time>
      </trkpt>
      <trkpt lat="49.76957" lon="2.16537">
        <ele>50.7</ele>
        <time>2022-05-11T14:46:27Z</time>
      </trkpt>
      <trkpt lat="49.76957" lon="2.16534">
        <ele>50.7</ele>
        <time>2022-05-11T14:46:28Z</time>
      </trkpt>
      <trkpt lat="49.76958" lon="2.16532">
        <ele>50.7</ele>
        <time>2022-05-11T14:46:29Z</time>
      </trkpt>
      <trkpt lat="49.76959" lon="2.16531">
        <ele>50.7</ele>
        <time>2022-05-11T14:46:30Z</time>
      </trkpt>
      <trkpt lat="49.7696" lon="2.16529">
        <ele>50.7</ele>
        <time>2022-05-11T14:46:31Z</time>
      </trkpt>
      <trkpt lat="49.76961" lon="2.16528">
        <ele>50.7</ele>
        <time>2022-05-11T14:46:32Z</time>
      </trkpt>
      <trkpt lat="49.76962" lon="2.16526">
        <ele>50.7</ele>
        <time>2022-05-11T14:46:34Z</time>
      </trkpt>
      <trkpt lat="49.76963" lon="2.16524">
        <ele>50.7</ele>
        <time>2022-05-11T14:46:35Z</time>
      </trkpt>
      <trkpt lat="49.76964" lon="2.16522">
        <ele>50.7</ele>
        <time>2022-05-11T14:46:36Z</time>
      </trkpt>
      <trkpt lat="49.76965" lon="2.1652">
        <ele>50.7</ele>
        <time>2022-05-11T14:46:37Z</time>
      </trkpt>
      <trkpt lat="49.76966" lon="2.16519">
        <ele>50.6</ele>
        <time>2022-05-11T14:46:38Z</time>
      </trkpt>
      <trkpt lat="49.76966" lon="2.16518">
        <ele>50.6</ele>
        <time>2022-05-11T14:46:39Z</time>
      </trkpt>
      <trkpt lat="49.76967" lon="2.16515">
        <ele>50.6</ele>
        <time>2022-05-11T14:46:41Z</time>
      </trkpt>
      <trkpt lat="49.76967" lon="2.16512">
        <ele>50.6</ele>
        <time>2022-05-11T14:46:42Z</time>
      </trkpt>
      <trkpt lat="49.76968" lon="2.1651">
        <ele>50.6</ele>
        <time>2022-05-11T14:46:43Z</time>
      </trkpt>
      <trkpt lat="49.76968" lon="2.16509">
        <ele>50.6</ele>
        <time>2022-05-11T14:46:44Z</time>
      </trkpt>
      <trkpt lat="49.76968" lon="2.16508">
        <ele>50.6</ele>
        <time>2022-05-11T14:46:45Z</time>
      </trkpt>
      <trkpt lat="49.76968" lon="2.16507">
        <ele>50.6</ele>
        <time>2022-05-11T14:46:46Z</time>
      </trkpt>
      <trkpt lat="49.76968" lon="2.16505">
        <ele>50.6</ele>
        <time>2022-05-11T14:46:47Z</time>
      </trkpt>
      <trkpt lat="49.76969" lon="2.16504">
        <ele>50.6</ele>
        <time>2022-05-11T14:46:49Z</time>
      </trkpt>
      <trkpt lat="49.76969" lon="2.16502">
        <ele>50.6</ele>
        <time>2022-05-11T14:46:50Z</time>
      </trkpt>
      <trkpt lat="49.76969" lon="2.16501">
        <ele>50.6</ele>
        <time>2022-05-11T14:46:51Z</time>
      </trkpt>
      <trkpt lat="49.76969" lon="2.16499">
        <ele>50.6</ele>
        <time>2022-05-11T14:46:52Z</time>
      </trkpt>
      <trkpt lat="49.76969" lon="2.16498">
        <ele>50.6</ele>
        <time>2022-05-11T14:46:53Z</time>
      </trkpt>
      <trkpt lat="49.7697" lon="2.16495">
        <ele>50.6</ele>
        <time>2022-05-11T14:46:54Z</time>
      </trkpt>
      <trkpt lat="49.7697" lon="2.16494">
        <ele>50.6</ele>
        <time>2022-05-11T14:46:56Z</time>
      </trkpt>
      <trkpt lat="49.7697" lon="2.16492">
        <ele>50.6</ele>
        <time>2022-05-11T14:46:57Z</time>
      </trkpt>
      <trkpt lat="49.7697" lon="2.1649">
        <ele>50.6</ele>
        <time>2022-05-11T14:46:59Z</time>
      </trkpt>
      <trkpt lat="49.76971" lon="2.16489">
        <ele>50.5</ele>
        <time>2022-05-11T14:47:00Z</time>
      </trkpt>
      <trkpt lat="49.76971" lon="2.16487">
        <ele>50.5</ele>
        <time>2022-05-11T14:47:01Z</time>
      </trkpt>
      <trkpt lat="49.76972" lon="2.16485">
        <ele>50.5</ele>
        <time>2022-05-11T14:47:02Z</time>
      </trkpt>
      <trkpt lat="49.76973" lon="2.16483">
        <ele>50.5</ele>
        <time>2022-05-11T14:47:03Z</time>
      </trkpt>
      <trkpt lat="49.76973" lon="2.16482">
        <ele>50.5</ele>
        <time>2022-05-11T14:47:04Z</time>
      </trkpt>
      <trkpt lat="49.76974" lon="2.16481">
        <ele>50.5</ele>
        <time>2022-05-11T14:47:06Z</time>
      </trkpt>
      <trkpt lat="49.76975" lon="2.16479">
        <ele>50.5</ele>
        <time>2022-05-11T14:47:07Z</time>
      </trkpt>
      <trkpt lat="49.76976" lon="2.16478">
        <ele>50.5</ele>
        <time>2022-05-11T14:47:08Z</time>
      </trkpt>
      <trkpt lat="49.76977" lon="2.16475">
        <ele>50.5</ele>
        <time>2022-05-11T14:47:09Z</time>
      </trkpt>
      <trkpt lat="49.76978" lon="2.16473">
        <ele>50.4</ele>
        <time>2022-05-11T14:47:10Z</time>
      </trkpt>
      <trkpt lat="49.76979" lon="2.16472">
        <ele>50.4</ele>
        <time>2022-05-11T14:47:11Z</time>
      </trkpt>
      <trkpt lat="49.7698" lon="2.1647">
        <ele>50.4</ele>
        <time>2022-05-11T14:47:12Z</time>
      </trkpt>
      <trkpt lat="49.76981" lon="2.1647">
        <ele>50.4</ele>
        <time>2022-05-11T14:47:13Z</time>
      </trkpt>
      <trkpt lat="49.76983" lon="2.1647">
        <ele>50.4</ele>
        <time>2022-05-11T14:47:15Z</time>
      </trkpt>
      <trkpt lat="49.76984" lon="2.16468">
        <ele>50.4</ele>
        <time>2022-05-11T14:47:16Z</time>
      </trkpt>
      <trkpt lat="49.76985" lon="2.16467">
        <ele>50.4</ele>
        <time>2022-05-11T14:47:17Z</time>
      </trkpt>
      <trkpt lat="49.76985" lon="2.16466">
        <ele>50.4</ele>
        <time>2022-05-11T14:47:18Z</time>
      </trkpt>
      <trkpt lat="49.76986" lon="2.16464">
        <ele>50.4</ele>
        <time>2022-05-11T14:47:19Z</time>
      </trkpt>
      <trkpt lat="49.76986" lon="2.16463">
        <ele>50.4</ele>
        <time>2022-05-11T14:47:20Z</time>
      </trkpt>
      <trkpt lat="49.76987" lon="2.16461">
        <ele>50.4</ele>
        <time>2022-05-11T14:47:21Z</time>
      </trkpt>
      <trkpt lat="49.76987" lon="2.1646">
        <ele>50.3</ele>
        <time>2022-05-11T14:47:22Z</time>
      </trkpt>
      <trkpt lat="49.76988" lon="2.16458">
        <ele>50.3</ele>
        <time>2022-05-11T14:47:23Z</time>
      </trkpt>
      <trkpt lat="49.76988" lon="2.16457">
        <ele>50.3</ele>
        <time>2022-05-11T14:47:24Z</time>
      </trkpt>
      <trkpt lat="49.76988" lon="2.16456">
        <ele>50.3</ele>
        <time>2022-05-11T14:47:25Z</time>
      </trkpt>
      <trkpt lat="49.76989" lon="2.16455">
        <ele>50.3</ele>
        <time>2022-05-11T14:47:27Z</time>
      </trkpt>
      <trkpt lat="49.7699" lon="2.16454">
        <ele>50</ele>
        <time>2022-05-11T14:47:28Z</time>
      </trkpt>
      <trkpt lat="49.7699" lon="2.16452">
        <ele>50</ele>
        <time>2022-05-11T14:47:29Z</time>
      </trkpt>
      <trkpt lat="49.76991" lon="2.16451">
        <ele>50</ele>
        <time>2022-05-11T14:47:30Z</time>
      </trkpt>
      <trkpt lat="49.76991" lon="2.1645">
        <ele>50</ele>
        <time>2022-05-11T14:47:31Z</time>
      </trkpt>
      <trkpt lat="49.76992" lon="2.16448">
        <ele>50</ele>
        <time>2022-05-11T14:47:32Z</time>
      </trkpt>
      <trkpt lat="49.76993" lon="2.16447">
        <ele>50</ele>
        <time>2022-05-11T14:47:33Z</time>
      </trkpt>
      <trkpt lat="49.76994" lon="2.16445">
        <ele>50</ele>
        <time>2022-05-11T14:47:35Z</time>
      </trkpt>
      <trkpt lat="49.76995" lon="2.16445">
        <ele>50</ele>
        <time>2022-05-11T14:47:36Z</time>
      </trkpt>
      <trkpt lat="49.76997" lon="2.16445">
        <ele>50</ele>
        <time>2022-05-11T14:47:37Z</time>
      </trkpt>
      <trkpt lat="49.76998" lon="2.16445">
        <ele>50</ele>
        <time>2022-05-11T14:47:38Z</time>
      </trkpt>
      <trkpt lat="49.77" lon="2.16445">
        <ele>50</ele>
        <time>2022-05-11T14:47:39Z</time>
      </trkpt>
      <trkpt lat="49.77001" lon="2.16444">
        <ele>50</ele>
        <time>2022-05-11T14:47:40Z</time>
      </trkpt>
      <trkpt lat="49.77003" lon="2.16443">
        <ele>49.9</ele>
        <time>2022-05-11T14:47:41Z</time>
      </trkpt>
      <trkpt lat="49.77005" lon="2.16439">
        <ele>49.9</ele>
        <time>2022-05-11T14:47:43Z</time>
      </trkpt>
      <trkpt lat="49.77006" lon="2.16437">
        <ele>49.9</ele>
        <time>2022-05-11T14:47:44Z</time>
      </trkpt>
      <trkpt lat="49.77007" lon="2.16435">
        <ele>49.9</ele>
        <time>2022-05-11T14:47:45Z</time>
      </trkpt>
      <trkpt lat="49.77007" lon="2.16434">
        <ele>49.9</ele>
        <time>2022-05-11T14:47:47Z</time>
      </trkpt>
      <trkpt lat="49.77008" lon="2.16433">
        <ele>49.9</ele>
        <time>2022-05-11T14:47:48Z</time>
      </trkpt>
      <trkpt lat="49.77007" lon="2.16436">
        <ele>49.9</ele>
        <time>2022-05-11T14:47:49Z</time>
      </trkpt>
      <trkpt lat="49.77007" lon="2.16438">
        <ele>49.9</ele>
        <time>2022-05-11T14:47:50Z</time>
      </trkpt>
      <trkpt lat="49.77008" lon="2.16439">
        <ele>49.9</ele>
        <time>2022-05-11T14:47:51Z</time>
      </trkpt>
      <trkpt lat="49.77008" lon="2.16439">
        <ele>49.9</ele>
        <time>2022-05-11T14:47:52Z</time>
      </trkpt>
      <trkpt lat="49.77008" lon="2.16439">
        <ele>49.9</ele>
        <time>2022-05-11T14:47:53Z</time>
      </trkpt>
      <trkpt lat="49.77008" lon="2.1644">
        <ele>49.9</ele>
        <time>2022-05-11T14:47:54Z</time>
      </trkpt>
      <trkpt lat="49.77008" lon="2.1644">
        <ele>49.9</ele>
        <time>2022-05-11T14:47:55Z</time>
      </trkpt>
      <trkpt lat="49.77007" lon="2.16441">
        <ele>49.9</ele>
        <time>2022-05-11T14:47:56Z</time>
      </trkpt>
      <trkpt lat="49.77007" lon="2.16441">
        <ele>49.9</ele>
        <time>2022-05-11T14:47:57Z</time>
      </trkpt>
      <trkpt lat="49.77007" lon="2.16441">
        <ele>49.9</ele>
        <time>2022-05-11T14:47:58Z</time>
      </trkpt>
      <trkpt lat="49.77007" lon="2.16441">
        <ele>49.9</ele>
        <time>2022-05-11T14:47:59Z</time>
      </trkpt>
      <trkpt lat="49.77007" lon="2.16441">
        <ele>49.9</ele>
        <time>2022-05-11T14:48:00Z</time>
      </trkpt>
      <trkpt lat="49.77007" lon="2.16441">
        <ele>49.9</ele>
        <time>2022-05-11T14:48:01Z</time>
      </trkpt>
      <trkpt lat="49.77007" lon="2.16441">
        <ele>49.9</ele>
        <time>2022-05-11T14:48:02Z</time>
      </trkpt>
      <trkpt lat="49.77007" lon="2.16441">
        <ele>49.9</ele>
        <time>2022-05-11T14:48:03Z</time>
      </trkpt>
      <trkpt lat="49.77007" lon="2.16441">
        <ele>49.9</ele>
        <time>2022-05-11T14:48:04Z</time>
      </trkpt>
      <trkpt lat="49.77007" lon="2.16441">
        <ele>49.9</ele>
        <time>2022-05-11T14:48:05Z</time>
      </trkpt>
      <trkpt lat="49.77007" lon="2.16441">
        <ele>49.9</ele>
        <time>2022-05-11T14:48:06Z</time>
      </trkpt>
      <trkpt lat="49.77007" lon="2.16441">
        <ele>49.9</ele>
        <time>2022-05-11T14:48:08Z</time>
      </trkpt>
      <trkpt lat="49.77007" lon="2.16442">
        <ele>49.9</ele>
        <time>2022-05-11T14:48:09Z</time>
      </trkpt>
      <trkpt lat="49.77007" lon="2.16443">
        <ele>49.9</ele>
        <time>2022-05-11T14:48:10Z</time>
      </trkpt>
      <trkpt lat="49.77007" lon="2.16443">
        <ele>49.9</ele>
        <time>2022-05-11T14:48:11Z</time>
      </trkpt>
      <trkpt lat="49.77007" lon="2.16443">
        <ele>49.9</ele>
        <time>2022-05-11T14:48:12Z</time>
      </trkpt>
      <trkpt lat="49.77007" lon="2.16444">
        <ele>49.9</ele>
        <time>2022-05-11T14:48:13Z</time>
      </trkpt>
      <trkpt lat="49.77007" lon="2.16443">
        <ele>49.9</ele>
        <time>2022-05-11T14:48:14Z</time>
      </trkpt>
      <trkpt lat="49.77006" lon="2.16444">
        <ele>49.9</ele>
        <time>2022-05-11T14:48:15Z</time>
      </trkpt>
      <trkpt lat="49.77006" lon="2.16445">
        <ele>49.9</ele>
        <time>2022-05-11T14:48:16Z</time>
      </trkpt>
      <trkpt lat="49.77006" lon="2.16445">
        <ele>49.9</ele>
        <time>2022-05-11T14:48:17Z</time>
      </trkpt>
      <trkpt lat="49.77006" lon="2.16445">
        <ele>49.9</ele>
        <time>2022-05-11T14:48:18Z</time>
      </trkpt>
      <trkpt lat="49.77005" lon="2.16445">
        <ele>49.9</ele>
        <time>2022-05-11T14:48:19Z</time>
      </trkpt>
      <trkpt lat="49.77005" lon="2.16446">
        <ele>49.9</ele>
        <time>2022-05-11T14:48:20Z</time>
      </trkpt>
      <trkpt lat="49.77005" lon="2.16446">
        <ele>49.9</ele>
        <time>2022-05-11T14:48:21Z</time>
      </trkpt>
      <trkpt lat="49.77005" lon="2.16446">
        <ele>49.9</ele>
        <time>2022-05-11T14:48:22Z</time>
      </trkpt>
      <trkpt lat="49.77005" lon="2.16447">
        <ele>49.9</ele>
        <time>2022-05-11T14:48:23Z</time>
      </trkpt>
      <trkpt lat="49.77005" lon="2.16447">
        <ele>49.9</ele>
        <time>2022-05-11T14:48:24Z</time>
      </trkpt>
      <trkpt lat="49.77006" lon="2.16446">
        <ele>49.9</ele>
        <time>2022-05-11T14:48:25Z</time>
      </trkpt>
      <trkpt lat="49.77006" lon="2.16446">
        <ele>49.9</ele>
        <time>2022-05-11T14:48:26Z</time>
      </trkpt>
      <trkpt lat="49.77006" lon="2.16446">
        <ele>49.9</ele>
        <time>2022-05-11T14:48:27Z</time>
      </trkpt>
      <trkpt lat="49.77006" lon="2.16447">
        <ele>49.9</ele>
        <time>2022-05-11T14:48:28Z</time>
      </trkpt>
      <trkpt lat="49.77006" lon="2.16448">
        <ele>49.9</ele>
        <time>2022-05-11T14:48:29Z</time>
      </trkpt>
      <trkpt lat="49.77006" lon="2.16449">
        <ele>49.9</ele>
        <time>2022-05-11T14:48:30Z</time>
      </trkpt>
      <trkpt lat="49.77005" lon="2.16451">
        <ele>49.9</ele>
        <time>2022-05-11T14:48:31Z</time>
      </trkpt>
      <trkpt lat="49.77005" lon="2.16455">
        <ele>49.9</ele>
        <time>2022-05-11T14:48:32Z</time>
      </trkpt>
      <trkpt lat="49.77005" lon="2.16456">
        <ele>49.9</ele>
        <time>2022-05-11T14:48:33Z</time>
      </trkpt>
      <trkpt lat="49.77005" lon="2.16457">
        <ele>49.9</ele>
        <time>2022-05-11T14:48:34Z</time>
      </trkpt>
      <trkpt lat="49.77005" lon="2.1646">
        <ele>49.9</ele>
        <time>2022-05-11T14:48:35Z</time>
      </trkpt>
      <trkpt lat="49.77006" lon="2.16461">
        <ele>49.9</ele>
        <time>2022-05-11T14:48:36Z</time>
      </trkpt>
      <trkpt lat="49.77006" lon="2.16463">
        <ele>49.9</ele>
        <time>2022-05-11T14:48:37Z</time>
      </trkpt>
      <trkpt lat="49.77005" lon="2.16464">
        <ele>49.9</ele>
        <time>2022-05-11T14:48:38Z</time>
      </trkpt>
      <trkpt lat="49.77005" lon="2.16466">
        <ele>49.9</ele>
        <time>2022-05-11T14:48:39Z</time>
      </trkpt>
      <trkpt lat="49.77005" lon="2.16468">
        <ele>49.8</ele>
        <time>2022-05-11T14:48:40Z</time>
      </trkpt>
      <trkpt lat="49.77006" lon="2.16469">
        <ele>49.8</ele>
        <time>2022-05-11T14:48:41Z</time>
      </trkpt>
      <trkpt lat="49.77007" lon="2.16469">
        <ele>49.8</ele>
        <time>2022-05-11T14:48:42Z</time>
      </trkpt>
      <trkpt lat="49.77007" lon="2.1647">
        <ele>49.8</ele>
        <time>2022-05-11T14:48:43Z</time>
      </trkpt>
      <trkpt lat="49.7701" lon="2.16472">
        <ele>49.8</ele>
        <time>2022-05-11T14:48:45Z</time>
      </trkpt>
      <trkpt lat="49.7701" lon="2.16472">
        <ele>49.8</ele>
        <time>2022-05-11T14:48:46Z</time>
      </trkpt>
      <trkpt lat="49.77011" lon="2.16473">
        <ele>49.8</ele>
        <time>2022-05-11T14:48:47Z</time>
      </trkpt>
      <trkpt lat="49.77011" lon="2.16474">
        <ele>49.8</ele>
        <time>2022-05-11T14:48:48Z</time>
      </trkpt>
      <trkpt lat="49.77011" lon="2.16475">
        <ele>49.8</ele>
        <time>2022-05-11T14:48:49Z</time>
      </trkpt>
      <trkpt lat="49.77011" lon="2.16476">
        <ele>49.8</ele>
        <time>2022-05-11T14:48:50Z</time>
      </trkpt>
      <trkpt lat="49.77011" lon="2.16477">
        <ele>49.8</ele>
        <time>2022-05-11T14:48:51Z</time>
      </trkpt>
      <trkpt lat="49.7701" lon="2.16478">
        <ele>49.8</ele>
        <time>2022-05-11T14:48:52Z</time>
      </trkpt>
      <trkpt lat="49.7701" lon="2.16478">
        <ele>49.8</ele>
        <time>2022-05-11T14:48:53Z</time>
      </trkpt>
      <trkpt lat="49.7701" lon="2.16478">
        <ele>49.8</ele>
        <time>2022-05-11T14:48:54Z</time>
      </trkpt>
      <trkpt lat="49.77011" lon="2.16477">
        <ele>49.8</ele>
        <time>2022-05-11T14:48:55Z</time>
      </trkpt>
      <trkpt lat="49.77011" lon="2.16476">
        <ele>49.8</ele>
        <time>2022-05-11T14:48:56Z</time>
      </trkpt>
      <trkpt lat="49.77012" lon="2.16476">
        <ele>49.8</ele>
        <time>2022-05-11T14:48:57Z</time>
      </trkpt>
      <trkpt lat="49.77012" lon="2.16475">
        <ele>49.8</ele>
        <time>2022-05-11T14:48:58Z</time>
      </trkpt>
      <trkpt lat="49.77013" lon="2.16475">
        <ele>49.8</ele>
        <time>2022-05-11T14:48:59Z</time>
      </trkpt>
      <trkpt lat="49.77012" lon="2.16477">
        <ele>49.8</ele>
        <time>2022-05-11T14:49:00Z</time>
      </trkpt>
      <trkpt lat="49.77012" lon="2.16477">
        <ele>49.8</ele>
        <time>2022-05-11T14:49:01Z</time>
      </trkpt>
      <trkpt lat="49.77013" lon="2.16477">
        <ele>49.8</ele>
        <time>2022-05-11T14:49:02Z</time>
      </trkpt>
      <trkpt lat="49.77014" lon="2.16477">
        <ele>49.8</ele>
        <time>2022-05-11T14:49:04Z</time>
      </trkpt>
      <trkpt lat="49.77016" lon="2.16476">
        <ele>49.8</ele>
        <time>2022-05-11T14:49:06Z</time>
      </trkpt>
      <trkpt lat="49.77017" lon="2.16477">
        <ele>49.8</ele>
        <time>2022-05-11T14:49:07Z</time>
      </trkpt>
      <trkpt lat="49.77017" lon="2.16475">
        <ele>49.8</ele>
        <time>2022-05-11T14:49:08Z</time>
      </trkpt>
      <trkpt lat="49.77018" lon="2.16474">
        <ele>49.8</ele>
        <time>2022-05-11T14:49:09Z</time>
      </trkpt>
      <trkpt lat="49.77019" lon="2.16474">
        <ele>49.8</ele>
        <time>2022-05-11T14:49:11Z</time>
      </trkpt>
      <trkpt lat="49.77021" lon="2.16475">
        <ele>49.8</ele>
        <time>2022-05-11T14:49:12Z</time>
      </trkpt>
      <trkpt lat="49.77022" lon="2.16475">
        <ele>49.8</ele>
        <time>2022-05-11T14:49:13Z</time>
      </trkpt>
      <trkpt lat="49.77023" lon="2.16476">
        <ele>49.8</ele>
        <time>2022-05-11T14:49:14Z</time>
      </trkpt>
      <trkpt lat="49.77023" lon="2.16477">
        <ele>49.8</ele>
        <time>2022-05-11T14:49:15Z</time>
      </trkpt>
      <trkpt lat="49.7702" lon="2.16477">
        <ele>49.8</ele>
        <time>2022-05-11T14:49:16Z</time>
      </trkpt>
      <trkpt lat="49.77016" lon="2.16476">
        <ele>49.8</ele>
        <time>2022-05-11T14:49:17Z</time>
      </trkpt>
      <trkpt lat="49.77014" lon="2.16476">
        <ele>49.8</ele>
        <time>2022-05-11T14:49:19Z</time>
      </trkpt>
      <trkpt lat="49.77013" lon="2.16476">
        <ele>49.8</ele>
        <time>2022-05-11T14:49:20Z</time>
      </trkpt>
      <trkpt lat="49.7701" lon="2.16476">
        <ele>49.8</ele>
        <time>2022-05-11T14:49:21Z</time>
      </trkpt>
      <trkpt lat="49.77009" lon="2.16476">
        <ele>49.8</ele>
        <time>2022-05-11T14:49:22Z</time>
      </trkpt>
      <trkpt lat="49.77006" lon="2.16476">
        <ele>49.8</ele>
        <time>2022-05-11T14:49:23Z</time>
      </trkpt>
      <trkpt lat="49.77004" lon="2.16476">
        <ele>49.8</ele>
        <time>2022-05-11T14:49:24Z</time>
      </trkpt>
      <trkpt lat="49.77001" lon="2.16476">
        <ele>49.8</ele>
        <time>2022-05-11T14:49:25Z</time>
      </trkpt>
      <trkpt lat="49.77" lon="2.16476">
        <ele>49.8</ele>
        <time>2022-05-11T14:49:26Z</time>
      </trkpt>
      <trkpt lat="49.76999" lon="2.16476">
        <ele>49.8</ele>
        <time>2022-05-11T14:49:27Z</time>
      </trkpt>
      <trkpt lat="49.76996" lon="2.16476">
        <ele>49.9</ele>
        <time>2022-05-11T14:49:29Z</time>
      </trkpt>
      <trkpt lat="49.76993" lon="2.16477">
        <ele>49.9</ele>
        <time>2022-05-11T14:49:30Z</time>
      </trkpt>
      <trkpt lat="49.76992" lon="2.16477">
        <ele>49.9</ele>
        <time>2022-05-11T14:49:31Z</time>
      </trkpt>
      <trkpt lat="49.76989" lon="2.16476">
        <ele>49.9</ele>
        <time>2022-05-11T14:49:32Z</time>
      </trkpt>
      <trkpt lat="49.76988" lon="2.16476">
        <ele>49.9</ele>
        <time>2022-05-11T14:49:33Z</time>
      </trkpt>
      <trkpt lat="49.76987" lon="2.16476">
        <ele>49.9</ele>
        <time>2022-05-11T14:49:34Z</time>
      </trkpt>
      <trkpt lat="49.76985" lon="2.16475">
        <ele>49.9</ele>
        <time>2022-05-11T14:49:35Z</time>
      </trkpt>
      <trkpt lat="49.76983" lon="2.16471">
        <ele>49.9</ele>
        <time>2022-05-11T14:49:37Z</time>
      </trkpt>
      <trkpt lat="49.76983" lon="2.16469">
        <ele>49.9</ele>
        <time>2022-05-11T14:49:38Z</time>
      </trkpt>
      <trkpt lat="49.76982" lon="2.16467">
        <ele>49.9</ele>
        <time>2022-05-11T14:49:39Z</time>
      </trkpt>
      <trkpt lat="49.76982" lon="2.16466">
        <ele>49.9</ele>
        <time>2022-05-11T14:49:40Z</time>
      </trkpt>
      <trkpt lat="49.76981" lon="2.16465">
        <ele>49.9</ele>
        <time>2022-05-11T14:49:41Z</time>
      </trkpt>
      <trkpt lat="49.7698" lon="2.16463">
        <ele>49.9</ele>
        <time>2022-05-11T14:49:42Z</time>
      </trkpt>
      <trkpt lat="49.76979" lon="2.16463">
        <ele>49.9</ele>
        <time>2022-05-11T14:49:43Z</time>
      </trkpt>
      <trkpt lat="49.76978" lon="2.16465">
        <ele>49.9</ele>
        <time>2022-05-11T14:49:44Z</time>
      </trkpt>
      <trkpt lat="49.76979" lon="2.16468">
        <ele>49.9</ele>
        <time>2022-05-11T14:49:45Z</time>
      </trkpt>
      <trkpt lat="49.7698" lon="2.16472">
        <ele>49.9</ele>
        <time>2022-05-11T14:49:47Z</time>
      </trkpt>
      <trkpt lat="49.76981" lon="2.16474">
        <ele>49.9</ele>
        <time>2022-05-11T14:49:48Z</time>
      </trkpt>
      <trkpt lat="49.76982" lon="2.16476">
        <ele>49.9</ele>
        <time>2022-05-11T14:49:49Z</time>
      </trkpt>
      <trkpt lat="49.76983" lon="2.16478">
        <ele>49.9</ele>
        <time>2022-05-11T14:49:50Z</time>
      </trkpt>
      <trkpt lat="49.76983" lon="2.16479">
        <ele>49.9</ele>
        <time>2022-05-11T14:49:51Z</time>
      </trkpt>
      <trkpt lat="49.76984" lon="2.16478">
        <ele>49.9</ele>
        <time>2022-05-11T14:49:52Z</time>
      </trkpt>
      <trkpt lat="49.76983" lon="2.16477">
        <ele>49.9</ele>
        <time>2022-05-11T14:49:54Z</time>
      </trkpt>
      <trkpt lat="49.76983" lon="2.16476">
        <ele>49.9</ele>
        <time>2022-05-11T14:49:55Z</time>
      </trkpt>
      <trkpt lat="49.76982" lon="2.16474">
        <ele>49.9</ele>
        <time>2022-05-11T14:49:56Z</time>
      </trkpt>
      <trkpt lat="49.76981" lon="2.16472">
        <ele>50</ele>
        <time>2022-05-11T14:49:57Z</time>
      </trkpt>
      <trkpt lat="49.7698" lon="2.16469">
        <ele>50</ele>
        <time>2022-05-11T14:49:58Z</time>
      </trkpt>
      <trkpt lat="49.7698" lon="2.16467">
        <ele>50</ele>
        <time>2022-05-11T14:49:59Z</time>
      </trkpt>
      <trkpt lat="49.76981" lon="2.16464">
        <ele>50</ele>
        <time>2022-05-11T14:50:00Z</time>
      </trkpt>
      <trkpt lat="49.76981" lon="2.16462">
        <ele>50</ele>
        <time>2022-05-11T14:50:01Z</time>
      </trkpt>
      <trkpt lat="49.76983" lon="2.16461">
        <ele>50</ele>
        <time>2022-05-11T14:50:02Z</time>
      </trkpt>
      <trkpt lat="49.76984" lon="2.16463">
        <ele>50</ele>
        <time>2022-05-11T14:50:03Z</time>
      </trkpt>
      <trkpt lat="49.76984" lon="2.16465">
        <ele>50</ele>
        <time>2022-05-11T14:50:04Z</time>
      </trkpt>
      <trkpt lat="49.76983" lon="2.16469">
        <ele>50</ele>
        <time>2022-05-11T14:50:06Z</time>
      </trkpt>
      <trkpt lat="49.76983" lon="2.16471">
        <ele>50</ele>
        <time>2022-05-11T14:50:07Z</time>
      </trkpt>
      <trkpt lat="49.76984" lon="2.16475">
        <ele>50</ele>
        <time>2022-05-11T14:50:08Z</time>
      </trkpt>
      <trkpt lat="49.76984" lon="2.16477">
        <ele>50.1</ele>
        <time>2022-05-11T14:50:09Z</time>
      </trkpt>
      <trkpt lat="49.76985" lon="2.16481">
        <ele>50.1</ele>
        <time>2022-05-11T14:50:10Z</time>
      </trkpt>
      <trkpt lat="49.76985" lon="2.16482">
        <ele>50.1</ele>
        <time>2022-05-11T14:50:11Z</time>
      </trkpt>
      <trkpt lat="49.76988" lon="2.16484">
        <ele>50.1</ele>
        <time>2022-05-11T14:50:13Z</time>
      </trkpt>
      <trkpt lat="49.7699" lon="2.16485">
        <ele>50.1</ele>
        <time>2022-05-11T14:50:14Z</time>
      </trkpt>
      <trkpt lat="49.7699" lon="2.16487">
        <ele>50.1</ele>
        <time>2022-05-11T14:50:15Z</time>
      </trkpt>
      <trkpt lat="49.76989" lon="2.16488">
        <ele>50.1</ele>
        <time>2022-05-11T14:50:16Z</time>
      </trkpt>
      <trkpt lat="49.76987" lon="2.16488">
        <ele>50.1</ele>
        <time>2022-05-11T14:50:17Z</time>
      </trkpt>
      <trkpt lat="49.76985" lon="2.16488">
        <ele>50.1</ele>
        <time>2022-05-11T14:50:18Z</time>
      </trkpt>
      <trkpt lat="49.76982" lon="2.16488">
        <ele>50.2</ele>
        <time>2022-05-11T14:50:20Z</time>
      </trkpt>
      <trkpt lat="49.76979" lon="2.16489">
        <ele>50.2</ele>
        <time>2022-05-11T14:50:21Z</time>
      </trkpt>
      <trkpt lat="49.76976" lon="2.16487">
        <ele>50.2</ele>
        <time>2022-05-11T14:50:22Z</time>
      </trkpt>
      <trkpt lat="49.76973" lon="2.16486">
        <ele>50.2</ele>
        <time>2022-05-11T14:50:24Z</time>
      </trkpt>
      <trkpt lat="49.76971" lon="2.16484">
        <ele>50.2</ele>
        <time>2022-05-11T14:50:25Z</time>
      </trkpt>
      <trkpt lat="49.76969" lon="2.16482">
        <ele>50.2</ele>
        <time>2022-05-11T14:50:26Z</time>
      </trkpt>
      <trkpt lat="49.76968" lon="2.1648">
        <ele>50.3</ele>
        <time>2022-05-11T14:50:27Z</time>
      </trkpt>
      <trkpt lat="49.76968" lon="2.16477">
        <ele>50.3</ele>
        <time>2022-05-11T14:50:28Z</time>
      </trkpt>
      <trkpt lat="49.76968" lon="2.16476">
        <ele>50.3</ele>
        <time>2022-05-11T14:50:29Z</time>
      </trkpt>
      <trkpt lat="49.76968" lon="2.16475">
        <ele>50.3</ele>
        <time>2022-05-11T14:50:30Z</time>
      </trkpt>
      <trkpt lat="49.76968" lon="2.16475">
        <ele>50.3</ele>
        <time>2022-05-11T14:50:31Z</time>
      </trkpt>
      <trkpt lat="49.76969" lon="2.16475">
        <ele>50.2</ele>
        <time>2022-05-11T14:50:32Z</time>
      </trkpt>
      <trkpt lat="49.76969" lon="2.16475">
        <ele>50.2</ele>
        <time>2022-05-11T14:50:33Z</time>
      </trkpt>
      <trkpt lat="49.76969" lon="2.16475">
        <ele>50.2</ele>
        <time>2022-05-11T14:50:34Z</time>
      </trkpt>
      <trkpt lat="49.76969" lon="2.16475">
        <ele>50.2</ele>
        <time>2022-05-11T14:50:35Z</time>
      </trkpt>
      <trkpt lat="49.76969" lon="2.16475">
        <ele>50.2</ele>
        <time>2022-05-11T14:50:36Z</time>
      </trkpt>
      <trkpt lat="49.76969" lon="2.16476">
        <ele>50.2</ele>
        <time>2022-05-11T14:50:37Z</time>
      </trkpt>
      <trkpt lat="49.76969" lon="2.16476">
        <ele>50.2</ele>
        <time>2022-05-11T14:50:39Z</time>
      </trkpt>
      <trkpt lat="49.7697" lon="2.16477">
        <ele>50.2</ele>
        <time>2022-05-11T14:50:40Z</time>
      </trkpt>
      <trkpt lat="49.7697" lon="2.16477">
        <ele>50.2</ele>
        <time>2022-05-11T14:50:41Z</time>
      </trkpt>
      <trkpt lat="49.7697" lon="2.16478">
        <ele>50.2</ele>
        <time>2022-05-11T14:50:42Z</time>
      </trkpt>
      <trkpt lat="49.76971" lon="2.16479">
        <ele>50.2</ele>
        <time>2022-05-11T14:50:43Z</time>
      </trkpt>
      <trkpt lat="49.76972" lon="2.1648">
        <ele>50.2</ele>
        <time>2022-05-11T14:50:44Z</time>
      </trkpt>
      <trkpt lat="49.76974" lon="2.16482">
        <ele>50.2</ele>
        <time>2022-05-11T14:50:46Z</time>
      </trkpt>
      <trkpt lat="49.76974" lon="2.16483">
        <ele>50.2</ele>
        <time>2022-05-11T14:50:47Z</time>
      </trkpt>
      <trkpt lat="49.76974" lon="2.16484">
        <ele>50.2</ele>
        <time>2022-05-11T14:50:48Z</time>
      </trkpt>
      <trkpt lat="49.76973" lon="2.16485">
        <ele>50.2</ele>
        <time>2022-05-11T14:50:49Z</time>
      </trkpt>
      <trkpt lat="49.76972" lon="2.16485">
        <ele>50.2</ele>
        <time>2022-05-11T14:50:50Z</time>
      </trkpt>
      <trkpt lat="49.76971" lon="2.16485">
        <ele>50.2</ele>
        <time>2022-05-11T14:50:51Z</time>
      </trkpt>
      <trkpt lat="49.76971" lon="2.16484">
        <ele>50.2</ele>
        <time>2022-05-11T14:50:52Z</time>
      </trkpt>
      <trkpt lat="49.76971" lon="2.16484">
        <ele>50.2</ele>
        <time>2022-05-11T14:50:53Z</time>
      </trkpt>
      <trkpt lat="49.76972" lon="2.16484">
        <ele>50.2</ele>
        <time>2022-05-11T14:50:54Z</time>
      </trkpt>
      <trkpt lat="49.76972" lon="2.16483">
        <ele>50.2</ele>
        <time>2022-05-11T14:50:55Z</time>
      </trkpt>
      <trkpt lat="49.76972" lon="2.16483">
        <ele>50.2</ele>
        <time>2022-05-11T14:50:56Z</time>
      </trkpt>
      <trkpt lat="49.76973" lon="2.16484">
        <ele>50.2</ele>
        <time>2022-05-11T14:50:57Z</time>
      </trkpt>
      <trkpt lat="49.76973" lon="2.16484">
        <ele>50.2</ele>
        <time>2022-05-11T14:50:58Z</time>
      </trkpt>
      <trkpt lat="49.76973" lon="2.16484">
        <ele>50.2</ele>
        <time>2022-05-11T14:50:59Z</time>
      </trkpt>
      <trkpt lat="49.76974" lon="2.16484">
        <ele>50.2</ele>
        <time>2022-05-11T14:51:00Z</time>
      </trkpt>
      <trkpt lat="49.76974" lon="2.16483">
        <ele>50.2</ele>
        <time>2022-05-11T14:51:01Z</time>
      </trkpt>
      <trkpt lat="49.76974" lon="2.16483">
        <ele>50.2</ele>
        <time>2022-05-11T14:51:02Z</time>
      </trkpt>
      <trkpt lat="49.76975" lon="2.16483">
        <ele>50.2</ele>
        <time>2022-05-11T14:51:04Z</time>
      </trkpt>
      <trkpt lat="49.76975" lon="2.16484">
        <ele>50.2</ele>
        <time>2022-05-11T14:51:05Z</time>
      </trkpt>
      <trkpt lat="49.76975" lon="2.16484">
        <ele>50.2</ele>
        <time>2022-05-11T14:51:06Z</time>
      </trkpt>
      <trkpt lat="49.76975" lon="2.16484">
        <ele>50.2</ele>
        <time>2022-05-11T14:51:07Z</time>
      </trkpt>
      <trkpt lat="49.76976" lon="2.16484">
        <ele>50.2</ele>
        <time>2022-05-11T14:51:08Z</time>
      </trkpt>
      <trkpt lat="49.76976" lon="2.16484">
        <ele>50.2</ele>
        <time>2022-05-11T14:51:09Z</time>
      </trkpt>
      <trkpt lat="49.76976" lon="2.16484">
        <ele>50.2</ele>
        <time>2022-05-11T14:51:10Z</time>
      </trkpt>
      <trkpt lat="49.76977" lon="2.16484">
        <ele>50.2</ele>
        <time>2022-05-11T14:51:12Z</time>
      </trkpt>
      <trkpt lat="49.76978" lon="2.16484">
        <ele>50.2</ele>
        <time>2022-05-11T14:51:13Z</time>
      </trkpt>
      <trkpt lat="49.76981" lon="2.16483">
        <ele>50.2</ele>
        <time>2022-05-11T14:51:15Z</time>
      </trkpt>
      <trkpt lat="49.76982" lon="2.16484">
        <ele>50.2</ele>
        <time>2022-05-11T14:51:16Z</time>
      </trkpt>
      <trkpt lat="49.76983" lon="2.16486">
        <ele>50.2</ele>
        <time>2022-05-11T14:51:17Z</time>
      </trkpt>
      <trkpt lat="49.76983" lon="2.16488">
        <ele>50.2</ele>
        <time>2022-05-11T14:51:18Z</time>
      </trkpt>
      <trkpt lat="49.76983" lon="2.16492">
        <ele>50.2</ele>
        <time>2022-05-11T14:51:19Z</time>
      </trkpt>
      <trkpt lat="49.76983" lon="2.16493">
        <ele>50.2</ele>
        <time>2022-05-11T14:51:20Z</time>
      </trkpt>
      <trkpt lat="49.76983" lon="2.16494">
        <ele>50.2</ele>
        <time>2022-05-11T14:51:21Z</time>
      </trkpt>
      <trkpt lat="49.76983" lon="2.16496">
        <ele>50.2</ele>
        <time>2022-05-11T14:51:22Z</time>
      </trkpt>
      <trkpt lat="49.76983" lon="2.16495">
        <ele>50.2</ele>
        <time>2022-05-11T14:51:23Z</time>
      </trkpt>
      <trkpt lat="49.76983" lon="2.16495">
        <ele>50.2</ele>
        <time>2022-05-11T14:51:24Z</time>
      </trkpt>
      <trkpt lat="49.76983" lon="2.16494">
        <ele>50.2</ele>
        <time>2022-05-11T14:51:25Z</time>
      </trkpt>
      <trkpt lat="49.76983" lon="2.16494">
        <ele>50.2</ele>
        <time>2022-05-11T14:51:27Z</time>
      </trkpt>
      <trkpt lat="49.76983" lon="2.16493">
        <ele>50.2</ele>
        <time>2022-05-11T14:51:28Z</time>
      </trkpt>
      <trkpt lat="49.76982" lon="2.16493">
        <ele>50.2</ele>
        <time>2022-05-11T14:51:29Z</time>
      </trkpt>
      <trkpt lat="49.76982" lon="2.16493">
        <ele>50.2</ele>
        <time>2022-05-11T14:51:30Z</time>
      </trkpt>
      <trkpt lat="49.76982" lon="2.16492">
        <ele>50.2</ele>
        <time>2022-05-11T14:51:31Z</time>
      </trkpt>
      <trkpt lat="49.76982" lon="2.16492">
        <ele>50.2</ele>
        <time>2022-05-11T14:51:32Z</time>
      </trkpt>
      <trkpt lat="49.76982" lon="2.16491">
        <ele>50.2</ele>
        <time>2022-05-11T14:51:33Z</time>
      </trkpt>
      <trkpt lat="49.76982" lon="2.16491">
        <ele>50.2</ele>
        <time>2022-05-11T14:51:34Z</time>
      </trkpt>
      <trkpt lat="49.76982" lon="2.1649">
        <ele>50.2</ele>
        <time>2022-05-11T14:51:35Z</time>
      </trkpt>
      <trkpt lat="49.76982" lon="2.1649">
        <ele>50.2</ele>
        <time>2022-05-11T14:51:37Z</time>
      </trkpt>
      <trkpt lat="49.76982" lon="2.1649">
        <ele>50.2</ele>
        <time>2022-05-11T14:51:38Z</time>
      </trkpt>
      <trkpt lat="49.76982" lon="2.16489">
        <ele>50.2</ele>
        <time>2022-05-11T14:51:39Z</time>
      </trkpt>
      <trkpt lat="49.76982" lon="2.16489">
        <ele>50.2</ele>
        <time>2022-05-11T14:51:40Z</time>
      </trkpt>
      <trkpt lat="49.76982" lon="2.16488">
        <ele>50.2</ele>
        <time>2022-05-11T14:51:41Z</time>
      </trkpt>
      <trkpt lat="49.76981" lon="2.16484">
        <ele>50.2</ele>
        <time>2022-05-11T14:51:42Z</time>
      </trkpt>
      <trkpt lat="49.76981" lon="2.16483">
        <ele>50.2</ele>
        <time>2022-05-11T14:51:43Z</time>
      </trkpt>
      <trkpt lat="49.7698" lon="2.16482">
        <ele>50.2</ele>
        <time>2022-05-11T14:51:44Z</time>
      </trkpt>
      <trkpt lat="49.7698" lon="2.16482">
        <ele>50.2</ele>
        <time>2022-05-11T14:51:45Z</time>
      </trkpt>
      <trkpt lat="49.7698" lon="2.16482">
        <ele>50.2</ele>
        <time>2022-05-11T14:51:46Z</time>
      </trkpt>
      <trkpt lat="49.7698" lon="2.16482">
        <ele>50.2</ele>
        <time>2022-05-11T14:51:47Z</time>
      </trkpt>
      <trkpt lat="49.7698" lon="2.16482">
        <ele>50.2</ele>
        <time>2022-05-11T14:51:48Z</time>
      </trkpt>
      <trkpt lat="49.7698" lon="2.16482">
        <ele>50.2</ele>
        <time>2022-05-11T14:51:49Z</time>
      </trkpt>
      <trkpt lat="49.7698" lon="2.16485">
        <ele>50.1</ele>
        <time>2022-05-11T14:51:50Z</time>
      </trkpt>
      <trkpt lat="49.76979" lon="2.16487">
        <ele>50.1</ele>
        <time>2022-05-11T14:51:52Z</time>
      </trkpt>
      <trkpt lat="49.76979" lon="2.16487">
        <ele>50.1</ele>
        <time>2022-05-11T14:51:53Z</time>
      </trkpt>
      <trkpt lat="49.76978" lon="2.16489">
        <ele>50.1</ele>
        <time>2022-05-11T14:51:54Z</time>
      </trkpt>
      <trkpt lat="49.76978" lon="2.16489">
        <ele>50.1</ele>
        <time>2022-05-11T14:51:55Z</time>
      </trkpt>
      <trkpt lat="49.76977" lon="2.16491">
        <ele>50.1</ele>
        <time>2022-05-11T14:51:56Z</time>
      </trkpt>
      <trkpt lat="49.76977" lon="2.16492">
        <ele>50.1</ele>
        <time>2022-05-11T14:51:57Z</time>
      </trkpt>
      <trkpt lat="49.76978" lon="2.16492">
        <ele>50.1</ele>
        <time>2022-05-11T14:51:58Z</time>
      </trkpt>
      <trkpt lat="49.7698" lon="2.16488">
        <ele>50.1</ele>
        <time>2022-05-11T14:51:59Z</time>
      </trkpt>
      <trkpt lat="49.76981" lon="2.16482">
        <ele>50.1</ele>
        <time>2022-05-11T14:52:01Z</time>
      </trkpt>
      <trkpt lat="49.76982" lon="2.1648">
        <ele>50.1</ele>
        <time>2022-05-11T14:52:02Z</time>
      </trkpt>
      <trkpt lat="49.76982" lon="2.16475">
        <ele>50.1</ele>
        <time>2022-05-11T14:52:03Z</time>
      </trkpt>
      <trkpt lat="49.76983" lon="2.16471">
        <ele>50.1</ele>
        <time>2022-05-11T14:52:04Z</time>
      </trkpt>
      <trkpt lat="49.76983" lon="2.16469">
        <ele>50.1</ele>
        <time>2022-05-11T14:52:05Z</time>
      </trkpt>
      <trkpt lat="49.76983" lon="2.16467">
        <ele>50.1</ele>
        <time>2022-05-11T14:52:06Z</time>
      </trkpt>
      <trkpt lat="49.76983" lon="2.16464">
        <ele>50.1</ele>
        <time>2022-05-11T14:52:07Z</time>
      </trkpt>
      <trkpt lat="49.76984" lon="2.16459">
        <ele>50.1</ele>
        <time>2022-05-11T14:52:09Z</time>
      </trkpt>
      <trkpt lat="49.76984" lon="2.16458">
        <ele>50.1</ele>
        <time>2022-05-11T14:52:10Z</time>
      </trkpt>
      <trkpt lat="49.76984" lon="2.16455">
        <ele>50.1</ele>
        <time>2022-05-11T14:52:11Z</time>
      </trkpt>
      <trkpt lat="49.76984" lon="2.16453">
        <ele>50.1</ele>
        <time>2022-05-11T14:52:12Z</time>
      </trkpt>
      <trkpt lat="49.76984" lon="2.16452">
        <ele>50.1</ele>
        <time>2022-05-11T14:52:13Z</time>
      </trkpt>
      <trkpt lat="49.76986" lon="2.1645">
        <ele>50.1</ele>
        <time>2022-05-11T14:52:14Z</time>
      </trkpt>
      <trkpt lat="49.76986" lon="2.16449">
        <ele>50.1</ele>
        <time>2022-05-11T14:52:16Z</time>
      </trkpt>
      <trkpt lat="49.76987" lon="2.16449">
        <ele>50.1</ele>
        <time>2022-05-11T14:52:17Z</time>
      </trkpt>
      <trkpt lat="49.76989" lon="2.16447">
        <ele>50.1</ele>
        <time>2022-05-11T14:52:18Z</time>
      </trkpt>
      <trkpt lat="49.7699" lon="2.16446">
        <ele>50.1</ele>
        <time>2022-05-11T14:52:19Z</time>
      </trkpt>
      <trkpt lat="49.7699" lon="2.16446">
        <ele>50.1</ele>
        <time>2022-05-11T14:52:20Z</time>
      </trkpt>
      <trkpt lat="49.76992" lon="2.16445">
        <ele>50</ele>
        <time>2022-05-11T14:52:21Z</time>
      </trkpt>
      <trkpt lat="49.76993" lon="2.16444">
        <ele>50</ele>
        <time>2022-05-11T14:52:22Z</time>
      </trkpt>
      <trkpt lat="49.76995" lon="2.16443">
        <ele>50</ele>
        <time>2022-05-11T14:52:23Z</time>
      </trkpt>
      <trkpt lat="49.76997" lon="2.16441">
        <ele>50</ele>
        <time>2022-05-11T14:52:25Z</time>
      </trkpt>
      <trkpt lat="49.76999" lon="2.16438">
        <ele>50</ele>
        <time>2022-05-11T14:52:26Z</time>
      </trkpt>
      <trkpt lat="49.77" lon="2.16437">
        <ele>50</ele>
        <time>2022-05-11T14:52:27Z</time>
      </trkpt>
      <trkpt lat="49.77002" lon="2.16434">
        <ele>50</ele>
        <time>2022-05-11T14:52:28Z</time>
      </trkpt>
      <trkpt lat="49.77003" lon="2.16433">
        <ele>50</ele>
        <time>2022-05-11T14:52:29Z</time>
      </trkpt>
      <trkpt lat="49.77004" lon="2.16432">
        <ele>50</ele>
        <time>2022-05-11T14:52:30Z</time>
      </trkpt>
      <trkpt lat="49.77005" lon="2.1643">
        <ele>50</ele>
        <time>2022-05-11T14:52:32Z</time>
      </trkpt>
      <trkpt lat="49.77006" lon="2.16428">
        <ele>50</ele>
        <time>2022-05-11T14:52:33Z</time>
      </trkpt>
      <trkpt lat="49.77007" lon="2.16427">
        <ele>50</ele>
        <time>2022-05-11T14:52:34Z</time>
      </trkpt>
      <trkpt lat="49.77008" lon="2.16426">
        <ele>50</ele>
        <time>2022-05-11T14:52:35Z</time>
      </trkpt>
      <trkpt lat="49.77008" lon="2.16427">
        <ele>50</ele>
        <time>2022-05-11T14:52:36Z</time>
      </trkpt>
      <trkpt lat="49.77008" lon="2.16427">
        <ele>50</ele>
        <time>2022-05-11T14:52:37Z</time>
      </trkpt>
      <trkpt lat="49.77008" lon="2.16427">
        <ele>50</ele>
        <time>2022-05-11T14:52:38Z</time>
      </trkpt>
      <trkpt lat="49.77008" lon="2.16427">
        <ele>50</ele>
        <time>2022-05-11T14:52:39Z</time>
      </trkpt>
      <trkpt lat="49.77008" lon="2.16428">
        <ele>50</ele>
        <time>2022-05-11T14:52:40Z</time>
      </trkpt>
      <trkpt lat="49.77008" lon="2.16428">
        <ele>50</ele>
        <time>2022-05-11T14:52:41Z</time>
      </trkpt>
      <trkpt lat="49.77008" lon="2.16428">
        <ele>50</ele>
        <time>2022-05-11T14:52:42Z</time>
      </trkpt>
      <trkpt lat="49.77008" lon="2.16429">
        <ele>50</ele>
        <time>2022-05-11T14:52:43Z</time>
      </trkpt>
      <trkpt lat="49.77008" lon="2.16429">
        <ele>50</ele>
        <time>2022-05-11T14:52:44Z</time>
      </trkpt>
      <trkpt lat="49.77007" lon="2.16429">
        <ele>50</ele>
        <time>2022-05-11T14:52:45Z</time>
      </trkpt>
      <trkpt lat="49.77007" lon="2.16429">
        <ele>50</ele>
        <time>2022-05-11T14:52:46Z</time>
      </trkpt>
      <trkpt lat="49.77007" lon="2.1643">
        <ele>50</ele>
        <time>2022-05-11T14:52:47Z</time>
      </trkpt>
      <trkpt lat="49.77007" lon="2.1643">
        <ele>50</ele>
        <time>2022-05-11T14:52:48Z</time>
      </trkpt>
      <trkpt lat="49.77007" lon="2.1643">
        <ele>50</ele>
        <time>2022-05-11T14:52:49Z</time>
      </trkpt>
      <trkpt lat="49.77007" lon="2.1643">
        <ele>50</ele>
        <time>2022-05-11T14:52:50Z</time>
      </trkpt>
      <trkpt lat="49.77007" lon="2.16431">
        <ele>50</ele>
        <time>2022-05-11T14:52:51Z</time>
      </trkpt>
      <trkpt lat="49.77007" lon="2.16431">
        <ele>50</ele>
        <time>2022-05-11T14:52:52Z</time>
      </trkpt>
      <trkpt lat="49.77007" lon="2.16431">
        <ele>50</ele>
        <time>2022-05-11T14:52:53Z</time>
      </trkpt>
      <trkpt lat="49.77007" lon="2.16431">
        <ele>50</ele>
        <time>2022-05-11T14:52:54Z</time>
      </trkpt>
      <trkpt lat="49.77007" lon="2.16432">
        <ele>50</ele>
        <time>2022-05-11T14:52:55Z</time>
      </trkpt>
      <trkpt lat="49.77007" lon="2.16432">
        <ele>50</ele>
        <time>2022-05-11T14:52:56Z</time>
      </trkpt>
      <trkpt lat="49.77007" lon="2.16432">
        <ele>50</ele>
        <time>2022-05-11T14:52:57Z</time>
      </trkpt>
      <trkpt lat="49.77007" lon="2.16432">
        <ele>50</ele>
        <time>2022-05-11T14:52:58Z</time>
      </trkpt>
      <trkpt lat="49.77007" lon="2.16433">
        <ele>50</ele>
        <time>2022-05-11T14:52:59Z</time>
      </trkpt>
      <trkpt lat="49.77007" lon="2.16433">
        <ele>50</ele>
        <time>2022-05-11T14:53:00Z</time>
      </trkpt>
      <trkpt lat="49.77004" lon="2.16443">
        <ele>50</ele>
        <time>2022-05-11T14:53:01Z</time>
      </trkpt>
      <trkpt lat="49.77004" lon="2.16443">
        <ele>50</ele>
        <time>2022-05-11T14:53:02Z</time>
      </trkpt>
      <trkpt lat="49.77003" lon="2.16447">
        <ele>50</ele>
        <time>2022-05-11T14:53:03Z</time>
      </trkpt>
      <trkpt lat="49.77003" lon="2.16449">
        <ele>50</ele>
        <time>2022-05-11T14:53:04Z</time>
      </trkpt>
      <trkpt lat="49.77002" lon="2.1645">
        <ele>50</ele>
        <time>2022-05-11T14:53:05Z</time>
      </trkpt>
      <trkpt lat="49.77002" lon="2.1645">
        <ele>50</ele>
        <time>2022-05-11T14:53:06Z</time>
      </trkpt>
      <trkpt lat="49.77002" lon="2.1645">
        <ele>50</ele>
        <time>2022-05-11T14:53:07Z</time>
      </trkpt>
      <trkpt lat="49.77002" lon="2.16451">
        <ele>50</ele>
        <time>2022-05-11T14:53:08Z</time>
      </trkpt>
      <trkpt lat="49.77002" lon="2.16451">
        <ele>50</ele>
        <time>2022-05-11T14:53:09Z</time>
      </trkpt>
      <trkpt lat="49.77002" lon="2.16451">
        <ele>50</ele>
        <time>2022-05-11T14:53:10Z</time>
      </trkpt>
      <trkpt lat="49.77002" lon="2.16451">
        <ele>50</ele>
        <time>2022-05-11T14:53:11Z</time>
      </trkpt>
      <trkpt lat="49.77002" lon="2.16452">
        <ele>50</ele>
        <time>2022-05-11T14:53:12Z</time>
      </trkpt>
      <trkpt lat="49.77002" lon="2.16452">
        <ele>50</ele>
        <time>2022-05-11T14:53:13Z</time>
      </trkpt>
      <trkpt lat="49.77002" lon="2.16452">
        <ele>50</ele>
        <time>2022-05-11T14:53:14Z</time>
      </trkpt>
      <trkpt lat="49.77002" lon="2.16452">
        <ele>50</ele>
        <time>2022-05-11T14:53:15Z</time>
      </trkpt>
      <trkpt lat="49.77001" lon="2.16453">
        <ele>50</ele>
        <time>2022-05-11T14:53:16Z</time>
      </trkpt>
      <trkpt lat="49.77001" lon="2.16453">
        <ele>50</ele>
        <time>2022-05-11T14:53:17Z</time>
      </trkpt>
      <trkpt lat="49.77001" lon="2.16453">
        <ele>50</ele>
        <time>2022-05-11T14:53:18Z</time>
      </trkpt>
      <trkpt lat="49.77001" lon="2.16453">
        <ele>50</ele>
        <time>2022-05-11T14:53:19Z</time>
      </trkpt>
      <trkpt lat="49.77001" lon="2.16454">
        <ele>50</ele>
        <time>2022-05-11T14:53:20Z</time>
      </trkpt>
      <trkpt lat="49.77001" lon="2.16454">
        <ele>50</ele>
        <time>2022-05-11T14:53:21Z</time>
      </trkpt>
      <trkpt lat="49.77001" lon="2.16454">
        <ele>50</ele>
        <time>2022-05-11T14:53:22Z</time>
      </trkpt>
      <trkpt lat="49.77001" lon="2.16454">
        <ele>50</ele>
        <time>2022-05-11T14:53:23Z</time>
      </trkpt>
      <trkpt lat="49.77001" lon="2.16455">
        <ele>50</ele>
        <time>2022-05-11T14:53:24Z</time>
      </trkpt>
      <trkpt lat="49.77001" lon="2.16455">
        <ele>50</ele>
        <time>2022-05-11T14:53:25Z</time>
      </trkpt>
      <trkpt lat="49.77001" lon="2.16455">
        <ele>50</ele>
        <time>2022-05-11T14:53:26Z</time>
      </trkpt>
      <trkpt lat="49.77" lon="2.16455">
        <ele>50</ele>
        <time>2022-05-11T14:53:27Z</time>
      </trkpt>
      <trkpt lat="49.77" lon="2.16456">
        <ele>50</ele>
        <time>2022-05-11T14:53:28Z</time>
      </trkpt>
      <trkpt lat="49.76999" lon="2.16459">
        <ele>50</ele>
        <time>2022-05-11T14:53:29Z</time>
      </trkpt>
      <trkpt lat="49.76998" lon="2.1646">
        <ele>50</ele>
        <time>2022-05-11T14:53:30Z</time>
      </trkpt>
      <trkpt lat="49.76998" lon="2.16461">
        <ele>50</ele>
        <time>2022-05-11T14:53:31Z</time>
      </trkpt>
      <trkpt lat="49.77" lon="2.1646">
        <ele>50</ele>
        <time>2022-05-11T14:53:32Z</time>
      </trkpt>
      <trkpt lat="49.77" lon="2.16461">
        <ele>50</ele>
        <time>2022-05-11T14:53:34Z</time>
      </trkpt>
      <trkpt lat="49.76999" lon="2.16462">
        <ele>50</ele>
        <time>2022-05-11T14:53:35Z</time>
      </trkpt>
      <trkpt lat="49.76998" lon="2.16462">
        <ele>50</ele>
        <time>2022-05-11T14:53:36Z</time>
      </trkpt>
      <trkpt lat="49.76997" lon="2.16463">
        <ele>49.9</ele>
        <time>2022-05-11T14:53:37Z</time>
      </trkpt>
      <trkpt lat="49.76996" lon="2.16464">
        <ele>49.9</ele>
        <time>2022-05-11T14:53:38Z</time>
      </trkpt>
      <trkpt lat="49.76996" lon="2.16464">
        <ele>49.9</ele>
        <time>2022-05-11T14:53:39Z</time>
      </trkpt>
      <trkpt lat="49.76995" lon="2.16465">
        <ele>49.9</ele>
        <time>2022-05-11T14:53:40Z</time>
      </trkpt>
      <trkpt lat="49.76995" lon="2.16465">
        <ele>49.9</ele>
        <time>2022-05-11T14:53:41Z</time>
      </trkpt>
      <trkpt lat="49.76995" lon="2.16465">
        <ele>49.9</ele>
        <time>2022-05-11T14:53:42Z</time>
      </trkpt>
      <trkpt lat="49.76995" lon="2.16464">
        <ele>49.9</ele>
        <time>2022-05-11T14:53:43Z</time>
      </trkpt>
      <trkpt lat="49.76995" lon="2.16464">
        <ele>49.9</ele>
        <time>2022-05-11T14:53:44Z</time>
      </trkpt>
      <trkpt lat="49.76995" lon="2.16464">
        <ele>49.9</ele>
        <time>2022-05-11T14:53:45Z</time>
      </trkpt>
      <trkpt lat="49.76995" lon="2.16464">
        <ele>49.9</ele>
        <time>2022-05-11T14:53:46Z</time>
      </trkpt>
      <trkpt lat="49.76995" lon="2.16464">
        <ele>49.9</ele>
        <time>2022-05-11T14:53:47Z</time>
      </trkpt>
      <trkpt lat="49.76996" lon="2.16464">
        <ele>49.9</ele>
        <time>2022-05-11T14:53:48Z</time>
      </trkpt>
      <trkpt lat="49.76996" lon="2.16464">
        <ele>49.9</ele>
        <time>2022-05-11T14:53:49Z</time>
      </trkpt>
      <trkpt lat="49.76996" lon="2.16464">
        <ele>49.9</ele>
        <time>2022-05-11T14:53:50Z</time>
      </trkpt>
      <trkpt lat="49.76996" lon="2.16464">
        <ele>49.9</ele>
        <time>2022-05-11T14:53:51Z</time>
      </trkpt>
      <trkpt lat="49.76996" lon="2.16464">
        <ele>49.9</ele>
        <time>2022-05-11T14:53:52Z</time>
      </trkpt>
      <trkpt lat="49.76996" lon="2.16464">
        <ele>49.9</ele>
        <time>2022-05-11T14:53:53Z</time>
      </trkpt>
      <trkpt lat="49.76995" lon="2.16464">
        <ele>49.9</ele>
        <time>2022-05-11T14:53:54Z</time>
      </trkpt>
      <trkpt lat="49.76996" lon="2.16464">
        <ele>49.9</ele>
        <time>2022-05-11T14:53:56Z</time>
      </trkpt>
      <trkpt lat="49.76995" lon="2.16464">
        <ele>49.9</ele>
        <time>2022-05-11T14:53:57Z</time>
      </trkpt>
      <trkpt lat="49.76995" lon="2.16463">
        <ele>49.9</ele>
        <time>2022-05-11T14:53:58Z</time>
      </trkpt>
      <trkpt lat="49.76995" lon="2.16463">
        <ele>49.9</ele>
        <time>2022-05-11T14:53:59Z</time>
      </trkpt>
      <trkpt lat="49.76995" lon="2.16463">
        <ele>49.9</ele>
        <time>2022-05-11T14:54:00Z</time>
      </trkpt>
      <trkpt lat="49.76995" lon="2.16462">
        <ele>49.9</ele>
        <time>2022-05-11T14:54:01Z</time>
      </trkpt>
      <trkpt lat="49.76995" lon="2.16462">
        <ele>49.9</ele>
        <time>2022-05-11T14:54:02Z</time>
      </trkpt>
      <trkpt lat="49.76995" lon="2.16463">
        <ele>49.9</ele>
        <time>2022-05-11T14:54:04Z</time>
      </trkpt>
      <trkpt lat="49.76995" lon="2.16463">
        <ele>49.9</ele>
        <time>2022-05-11T14:54:05Z</time>
      </trkpt>
      <trkpt lat="49.76995" lon="2.16464">
        <ele>49.9</ele>
        <time>2022-05-11T14:54:06Z</time>
      </trkpt>
      <trkpt lat="49.76996" lon="2.16464">
        <ele>49.9</ele>
        <time>2022-05-11T14:54:07Z</time>
      </trkpt>
      <trkpt lat="49.76996" lon="2.16464">
        <ele>49.9</ele>
        <time>2022-05-11T14:54:08Z</time>
      </trkpt>
      <trkpt lat="49.76996" lon="2.16464">
        <ele>49.9</ele>
        <time>2022-05-11T14:54:09Z</time>
      </trkpt>
      <trkpt lat="49.76996" lon="2.16465">
        <ele>49.9</ele>
        <time>2022-05-11T14:54:10Z</time>
      </trkpt>
      <trkpt lat="49.76996" lon="2.16465">
        <ele>49.9</ele>
        <time>2022-05-11T14:54:11Z</time>
      </trkpt>
      <trkpt lat="49.76997" lon="2.16464">
        <ele>49.9</ele>
        <time>2022-05-11T14:54:12Z</time>
      </trkpt>
      <trkpt lat="49.76997" lon="2.16464">
        <ele>49.9</ele>
        <time>2022-05-11T14:54:13Z</time>
      </trkpt>
      <trkpt lat="49.76997" lon="2.16463">
        <ele>49.9</ele>
        <time>2022-05-11T14:54:14Z</time>
      </trkpt>
      <trkpt lat="49.76998" lon="2.16463">
        <ele>49.9</ele>
        <time>2022-05-11T14:54:15Z</time>
      </trkpt>
      <trkpt lat="49.76998" lon="2.16463">
        <ele>49.9</ele>
        <time>2022-05-11T14:54:16Z</time>
      </trkpt>
      <trkpt lat="49.76998" lon="2.16462">
        <ele>49.9</ele>
        <time>2022-05-11T14:54:17Z</time>
      </trkpt>
      <trkpt lat="49.76998" lon="2.16461">
        <ele>49.9</ele>
        <time>2022-05-11T14:54:18Z</time>
      </trkpt>
      <trkpt lat="49.76998" lon="2.1646">
        <ele>49.9</ele>
        <time>2022-05-11T14:54:19Z</time>
      </trkpt>
      <trkpt lat="49.76998" lon="2.16459">
        <ele>49.9</ele>
        <time>2022-05-11T14:54:20Z</time>
      </trkpt>
      <trkpt lat="49.76998" lon="2.16458">
        <ele>49.9</ele>
        <time>2022-05-11T14:54:21Z</time>
      </trkpt>
      <trkpt lat="49.76998" lon="2.16458">
        <ele>49.9</ele>
        <time>2022-05-11T14:54:22Z</time>
      </trkpt>
      <trkpt lat="49.76998" lon="2.16458">
        <ele>49.9</ele>
        <time>2022-05-11T14:54:23Z</time>
      </trkpt>
      <trkpt lat="49.76998" lon="2.16458">
        <ele>49.9</ele>
        <time>2022-05-11T14:54:24Z</time>
      </trkpt>
      <trkpt lat="49.76998" lon="2.16458">
        <ele>49.9</ele>
        <time>2022-05-11T14:54:26Z</time>
      </trkpt>
      <trkpt lat="49.76998" lon="2.16458">
        <ele>49.9</ele>
        <time>2022-05-11T14:54:27Z</time>
      </trkpt>
      <trkpt lat="49.76998" lon="2.16458">
        <ele>49.9</ele>
        <time>2022-05-11T14:54:28Z</time>
      </trkpt>
      <trkpt lat="49.76998" lon="2.16458">
        <ele>49.9</ele>
        <time>2022-05-11T14:54:29Z</time>
      </trkpt>
      <trkpt lat="49.76998" lon="2.16458">
        <ele>49.9</ele>
        <time>2022-05-11T14:54:30Z</time>
      </trkpt>
      <trkpt lat="49.76998" lon="2.16458">
        <ele>49.9</ele>
        <time>2022-05-11T14:54:31Z</time>
      </trkpt>
      <trkpt lat="49.76998" lon="2.16458">
        <ele>49.9</ele>
        <time>2022-05-11T14:54:32Z</time>
      </trkpt>
      <trkpt lat="49.76998" lon="2.16458">
        <ele>49.9</ele>
        <time>2022-05-11T14:54:33Z</time>
      </trkpt>
      <trkpt lat="49.76998" lon="2.16458">
        <ele>49.9</ele>
        <time>2022-05-11T14:54:34Z</time>
      </trkpt>
      <trkpt lat="49.76998" lon="2.16458">
        <ele>49.9</ele>
        <time>2022-05-11T14:54:35Z</time>
      </trkpt>
      <trkpt lat="49.76998" lon="2.16458">
        <ele>49.9</ele>
        <time>2022-05-11T14:54:36Z</time>
      </trkpt>
      <trkpt lat="49.76998" lon="2.16458">
        <ele>49.9</ele>
        <time>2022-05-11T14:54:37Z</time>
      </trkpt>
      <trkpt lat="49.76998" lon="2.16458">
        <ele>49.9</ele>
        <time>2022-05-11T14:54:38Z</time>
      </trkpt>
      <trkpt lat="49.76998" lon="2.16458">
        <ele>49.9</ele>
        <time>2022-05-11T14:54:39Z</time>
      </trkpt>
      <trkpt lat="49.76998" lon="2.16458">
        <ele>49.9</ele>
        <time>2022-05-11T14:54:40Z</time>
      </trkpt>
      <trkpt lat="49.76998" lon="2.16458">
        <ele>49.9</ele>
        <time>2022-05-11T14:54:41Z</time>
      </trkpt>
      <trkpt lat="49.76998" lon="2.16458">
        <ele>49.9</ele>
        <time>2022-05-11T14:54:42Z</time>
      </trkpt>
      <trkpt lat="49.76998" lon="2.16458">
        <ele>49.9</ele>
        <time>2022-05-11T14:54:43Z</time>
      </trkpt>
      <trkpt lat="49.76998" lon="2.16458">
        <ele>49.9</ele>
        <time>2022-05-11T14:54:44Z</time>
      </trkpt>
      <trkpt lat="49.76998" lon="2.16458">
        <ele>49.9</ele>
        <time>2022-05-11T14:54:45Z</time>
      </trkpt>
      <trkpt lat="49.76998" lon="2.16458">
        <ele>49.9</ele>
        <time>2022-05-11T14:54:46Z</time>
      </trkpt>
      <trkpt lat="49.76998" lon="2.16458">
        <ele>49.9</ele>
        <time>2022-05-11T14:54:47Z</time>
      </trkpt>
      <trkpt lat="49.76998" lon="2.16458">
        <ele>49.9</ele>
        <time>2022-05-11T14:54:48Z</time>
      </trkpt>
      <trkpt lat="49.76998" lon="2.16458">
        <ele>49.9</ele>
        <time>2022-05-11T14:54:49Z</time>
      </trkpt>
      <trkpt lat="49.76998" lon="2.16458">
        <ele>49.9</ele>
        <time>2022-05-11T14:54:50Z</time>
      </trkpt>
      <trkpt lat="49.76998" lon="2.16458">
        <ele>49.9</ele>
        <time>2022-05-11T14:54:51Z</time>
      </trkpt>
      <trkpt lat="49.76998" lon="2.16458">
        <ele>49.9</ele>
        <time>2022-05-11T14:54:52Z</time>
      </trkpt>
      <trkpt lat="49.76998" lon="2.16458">
        <ele>49.9</ele>
        <time>2022-05-11T14:54:53Z</time>
      </trkpt>
      <trkpt lat="49.76998" lon="2.16458">
        <ele>49.9</ele>
        <time>2022-05-11T14:54:54Z</time>
      </trkpt>
      <trkpt lat="49.76998" lon="2.16458">
        <ele>49.9</ele>
        <time>2022-05-11T14:54:55Z</time>
      </trkpt>
    </trkseg>
  </trk>
</gpx>